<?xml version='1.0' encoding='UTF-8'?><gpx version="1.1" creator="JPX - https://github.com/jenetics/jpx" xmlns="http://www.topografix.com/GPX/1/1"><trk><trkseg><trkpt lat="46.27453702017337" lon="12.371121470468214"><ele>793.0</ele><time>2026-04-19T12:54:09.556Z</time></trkpt><trkpt lat="46.27455336796168" lon="12.371215715293026"><ele>793.0</ele><time>2026-04-19T12:54:11.556Z</time></trkpt><trkpt lat="46.27460797374929" lon="12.371278231860883"><ele>793.0</ele><time>2026-04-19T12:54:23.556Z</time></trkpt><trkpt lat="46.27465247155998" lon="12.371418789075484"><ele>793.0</ele><time>2026-04-19T12:54:31.555Z</time></trkpt><trkpt lat="46.27470043023804" lon="12.371547577886801"><ele>793.0</ele><time>2026-04-19T12:54:32.555Z</time></trkpt><trkpt lat="46.27478318440286" lon="12.371684541099425"><ele>795.25</ele><time>2026-04-19T12:54:33.555Z</time></trkpt><trkpt lat="46.274870408748725" lon="12.37179346228705"><ele>797.5</ele><time>2026-04-19T12:54:34.555Z</time></trkpt><trkpt lat="46.27497767660978" lon="12.37190046500516"><ele>799.75</ele><time>2026-04-19T12:54:35.555Z</time></trkpt><trkpt lat="46.275118244777566" lon="12.372021149761943"><ele>802.0</ele><time>2026-04-19T12:54:36.555Z</time></trkpt><trkpt lat="46.27526101466048" lon="12.372130487817502"><ele>800.25</ele><time>2026-04-19T12:54:37.555Z</time></trkpt><trkpt lat="46.27539221667723" lon="12.372205634540604"><ele>798.5</ele><time>2026-04-19T12:54:38.555Z</time></trkpt><trkpt lat="46.27552569541013" lon="12.372266320011319"><ele>796.75</ele><time>2026-04-19T12:54:39.555Z</time></trkpt><trkpt lat="46.27567343252668" lon="12.372320016166272"><ele>795.0</ele><time>2026-04-19T12:54:40.555Z</time></trkpt><trkpt lat="46.275820298034496" lon="12.372366788121058"><ele>795.0</ele><time>2026-04-19T12:54:41.555Z</time></trkpt><trkpt lat="46.27597386703132" lon="12.372415941948011"><ele>795.0</ele><time>2026-04-19T12:54:42.555Z</time></trkpt><trkpt lat="46.27611495041579" lon="12.372459653155305"><ele>795.0</ele><time>2026-04-19T12:54:43.555Z</time></trkpt><trkpt lat="46.276241538089025" lon="12.372507241267906"><ele>795.0</ele><time>2026-04-19T12:54:44.555Z</time></trkpt><trkpt lat="46.27635418922096" lon="12.372551303567755"><ele>796.75</ele><time>2026-04-19T12:54:45.555Z</time></trkpt><trkpt lat="46.27646897189869" lon="12.37258754545302"><ele>798.5</ele><time>2026-04-19T12:54:46.555Z</time></trkpt><trkpt lat="46.27657727896924" lon="12.372635066845028"><ele>800.25</ele><time>2026-04-19T12:54:47.555Z</time></trkpt><trkpt lat="46.276680215316155" lon="12.372706493578276"><ele>802.0</ele><time>2026-04-19T12:54:48.555Z</time></trkpt><trkpt lat="46.27678351944919" lon="12.37281204653524"><ele>802.0</ele><time>2026-04-19T12:54:49.555Z</time></trkpt><trkpt lat="46.27685054681695" lon="12.372960852966491"><ele>802.0</ele><time>2026-04-19T12:54:50.555Z</time></trkpt><trkpt lat="46.27690522867843" lon="12.373114268137048"><ele>802.0</ele><time>2026-04-19T12:54:51.555Z</time></trkpt><trkpt lat="46.27696170978248" lon="12.373287979755688"><ele>802.0</ele><time>2026-04-19T12:54:52.555Z</time></trkpt><trkpt lat="46.27702478737244" lon="12.373475737108954"><ele>799.5</ele><time>2026-04-19T12:54:53.555Z</time></trkpt><trkpt lat="46.277099940134" lon="12.37362645193257"><ele>797.0</ele><time>2026-04-19T12:54:54.555Z</time></trkpt><trkpt lat="46.27718206803857" lon="12.373758088463735"><ele>794.5</ele><time>2026-04-19T12:54:55.555Z</time></trkpt><trkpt lat="46.27729333684818" lon="12.373864836363449"><ele>792.0</ele><time>2026-04-19T12:54:56.555Z</time></trkpt><trkpt lat="46.277457359604504" lon="12.37400214331213"><ele>791.5</ele><time>2026-04-19T12:54:57.555Z</time></trkpt><trkpt lat="46.27759658262349" lon="12.374074947930772"><ele>791.0</ele><time>2026-04-19T12:54:58.555Z</time></trkpt><trkpt lat="46.27774224511915" lon="12.374063113577094"><ele>790.5</ele><time>2026-04-19T12:55:00.555Z</time></trkpt><trkpt lat="46.27784925718927" lon="12.374010600552213"><ele>790.0</ele><time>2026-04-19T12:55:01.555Z</time></trkpt><trkpt lat="46.27797520107447" lon="12.37390824976732"><ele>793.25</ele><time>2026-04-19T12:55:02.555Z</time></trkpt><trkpt lat="46.27810272140536" lon="12.3737676021029"><ele>796.5</ele><time>2026-04-19T12:55:03.555Z</time></trkpt><trkpt lat="46.27821298797903" lon="12.37365924745293"><ele>799.75</ele><time>2026-04-19T12:55:04.555Z</time></trkpt><trkpt lat="46.2783007065071" lon="12.37360483766576"><ele>803.0</ele><time>2026-04-19T12:55:05.555Z</time></trkpt><trkpt lat="46.27839073784022" lon="12.373599985452152"><ele>803.0</ele><time>2026-04-19T12:55:06.555Z</time></trkpt><trkpt lat="46.278484535507864" lon="12.373642571825751"><ele>803.0</ele><time>2026-04-19T12:55:07.555Z</time></trkpt><trkpt lat="46.27857116206154" lon="12.373731735534367"><ele>803.0</ele><time>2026-04-19T12:55:08.555Z</time></trkpt><trkpt lat="46.27864115573037" lon="12.373861014831988"><ele>803.0</ele><time>2026-04-19T12:55:09.555Z</time></trkpt><trkpt lat="46.27869221799408" lon="12.374018175669933"><ele>803.0</ele><time>2026-04-19T12:55:10.555Z</time></trkpt><trkpt lat="46.27874209999168" lon="12.37419897667139"><ele>800.75</ele><time>2026-04-19T12:55:11.555Z</time></trkpt><trkpt lat="46.2787891483281" lon="12.374381456551674"><ele>798.5</ele><time>2026-04-19T12:55:12.555Z</time></trkpt><trkpt lat="46.27885114339921" lon="12.374524644330139"><ele>796.25</ele><time>2026-04-19T12:55:13.555Z</time></trkpt><trkpt lat="46.27891634258131" lon="12.374650624052478"><ele>794.0</ele><time>2026-04-19T12:55:14.555Z</time></trkpt><trkpt lat="46.278984614968174" lon="12.374763580187668"><ele>794.0</ele><time>2026-04-19T12:55:15.555Z</time></trkpt><trkpt lat="46.279058410414706" lon="12.374872906753316"><ele>794.0</ele><time>2026-04-19T12:55:16.555Z</time></trkpt><trkpt lat="46.27916197018631" lon="12.37496390253345"><ele>794.0</ele><time>2026-04-19T12:55:17.555Z</time></trkpt><trkpt lat="46.279241465891644" lon="12.375047522893738"><ele>794.0</ele><time>2026-04-19T12:55:18.555Z</time></trkpt><trkpt lat="46.27932474764329" lon="12.375124712298572"><ele>794.0</ele><time>2026-04-19T12:55:19.555Z</time></trkpt><trkpt lat="46.27942213110502" lon="12.37517828466085"><ele>794.0</ele><time>2026-04-19T12:55:20.555Z</time></trkpt><trkpt lat="46.279530150642785" lon="12.375238702029222"><ele>794.0</ele><time>2026-04-19T12:55:21.555Z</time></trkpt><trkpt lat="46.279645318659185" lon="12.375296600245784"><ele>794.0</ele><time>2026-04-19T12:55:22.555Z</time></trkpt><trkpt lat="46.27975855554501" lon="12.375361997697157"><ele>794.0</ele><time>2026-04-19T12:55:23.555Z</time></trkpt><trkpt lat="46.27986976911791" lon="12.375425892336889"><ele>791.0</ele><time>2026-04-19T12:55:24.555Z</time></trkpt><trkpt lat="46.27997495916694" lon="12.375486695328545"><ele>788.0</ele><time>2026-04-19T12:55:25.555Z</time></trkpt><trkpt lat="46.28007160997742" lon="12.375540443087793"><ele>785.0</ele><time>2026-04-19T12:55:26.555Z</time></trkpt><trkpt lat="46.28016976616256" lon="12.375589151244597"><ele>782.0</ele><time>2026-04-19T12:55:27.555Z</time></trkpt><trkpt lat="46.280272763435406" lon="12.375634072227127"><ele>779.0</ele><time>2026-04-19T12:55:28.555Z</time></trkpt><trkpt lat="46.28035938891628" lon="12.375667261272266"><ele>779.0000000000001</ele><time>2026-04-19T12:55:29.555Z</time></trkpt><trkpt lat="46.280453017287286" lon="12.375686177672376"><ele>779.0</ele><time>2026-04-19T12:55:30.555Z</time></trkpt><trkpt lat="46.280540165884034" lon="12.37569426758284"><ele>779.0</ele><time>2026-04-19T12:55:31.555Z</time></trkpt><trkpt lat="46.280620193496304" lon="12.375703576454987"><ele>779.0</ele><time>2026-04-19T12:55:32.555Z</time></trkpt><trkpt lat="46.280702117984724" lon="12.37572483365291"><ele>779.0000000000001</ele><time>2026-04-19T12:55:33.555Z</time></trkpt><trkpt lat="46.28079068028784" lon="12.375749308761408"><ele>779.0</ele><time>2026-04-19T12:55:34.555Z</time></trkpt><trkpt lat="46.28087097814381" lon="12.375762738080283"><ele>779.5000000000001</ele><time>2026-04-19T12:55:35.555Z</time></trkpt><trkpt lat="46.280944576041875" lon="12.375743296810416"><ele>780.0</ele><time>2026-04-19T12:55:36.555Z</time></trkpt><trkpt lat="46.281021244824835" lon="12.375719441864053"><ele>780.5</ele><time>2026-04-19T12:55:37.555Z</time></trkpt><trkpt lat="46.28110808584115" lon="12.3756236984099"><ele>781.0</ele><time>2026-04-19T12:55:38.555Z</time></trkpt><trkpt lat="46.28116620310331" lon="12.375543142024013"><ele>781.5000000000001</ele><time>2026-04-19T12:55:39.555Z</time></trkpt><trkpt lat="46.28122759895868" lon="12.37546989012473"><ele>782.0</ele><time>2026-04-19T12:55:40.555Z</time></trkpt><trkpt lat="46.28128326130266" lon="12.375411903475111"><ele>782.0</ele><time>2026-04-19T12:55:41.555Z</time></trkpt><trkpt lat="46.28141046798946" lon="12.375347090476536"><ele>782.0</ele><time>2026-04-19T12:55:43.555Z</time></trkpt><trkpt lat="46.28148900070007" lon="12.375347757163077"><ele>782.0</ele><time>2026-04-19T12:55:44.555Z</time></trkpt><trkpt lat="46.28156471816358" lon="12.375406997137405"><ele>782.0</ele><time>2026-04-19T12:55:45.555Z</time></trkpt><trkpt lat="46.281627432378045" lon="12.375484167695596"><ele>782.0</ele><time>2026-04-19T12:55:46.555Z</time></trkpt><trkpt lat="46.281682138155304" lon="12.375577171691882"><ele>782.0000000000001</ele><time>2026-04-19T12:55:47.555Z</time></trkpt><trkpt lat="46.281747750369036" lon="12.37566590885279"><ele>782.0</ele><time>2026-04-19T12:55:48.555Z</time></trkpt><trkpt lat="46.281818268515934" lon="12.375749956772907"><ele>782.0</ele><time>2026-04-19T12:55:49.555Z</time></trkpt><trkpt lat="46.28186846472475" lon="12.375844128359846"><ele>782.0</ele><time>2026-04-19T12:55:50.555Z</time></trkpt><trkpt lat="46.28191480788444" lon="12.375944617904947"><ele>782.0000000000001</ele><time>2026-04-19T12:55:51.555Z</time></trkpt><trkpt lat="46.28195554465277" lon="12.376043947193784"><ele>782.0</ele><time>2026-04-19T12:55:52.555Z</time></trkpt><trkpt lat="46.2819820007436" lon="12.376155555180105"><ele>782.0</ele><time>2026-04-19T12:55:53.555Z</time></trkpt><trkpt lat="46.281981454065935" lon="12.37628321754564"><ele>782.0</ele><time>2026-04-19T12:55:54.555Z</time></trkpt><trkpt lat="46.281953604937925" lon="12.376415202852836"><ele>782.0</ele><time>2026-04-19T12:55:55.555Z</time></trkpt><trkpt lat="46.28187973847479" lon="12.376537791343791"><ele>782.0</ele><time>2026-04-19T12:55:56.555Z</time></trkpt><trkpt lat="46.281841501501205" lon="12.376672465833805"><ele>782.0</ele><time>2026-04-19T12:55:57.555Z</time></trkpt><trkpt lat="46.28181249293167" lon="12.376849572039655"><ele>781.6</ele><time>2026-04-19T12:55:58.555Z</time></trkpt><trkpt lat="46.281771333671806" lon="12.376997806626706"><ele>781.2</ele><time>2026-04-19T12:55:59.555Z</time></trkpt><trkpt lat="46.281751108121206" lon="12.377149202540956"><ele>780.8</ele><time>2026-04-19T12:56:00.555Z</time></trkpt><trkpt lat="46.28172508942422" lon="12.377291252480688"><ele>780.4</ele><time>2026-04-19T12:56:01.555Z</time></trkpt><trkpt lat="46.28170605958734" lon="12.3774490462328"><ele>780.0</ele><time>2026-04-19T12:56:02.555Z</time></trkpt><trkpt lat="46.28168682585666" lon="12.377618261414431"><ele>780.0</ele><time>2026-04-19T12:56:03.555Z</time></trkpt><trkpt lat="46.28166879283883" lon="12.377783000289828"><ele>780.0</ele><time>2026-04-19T12:56:04.555Z</time></trkpt><trkpt lat="46.28164628787259" lon="12.377945741189148"><ele>780.0</ele><time>2026-04-19T12:56:05.555Z</time></trkpt><trkpt lat="46.28160673449587" lon="12.378109749225656"><ele>780.0</ele><time>2026-04-19T12:56:06.555Z</time></trkpt><trkpt lat="46.28156522924551" lon="12.378280500557025"><ele>783.0</ele><time>2026-04-19T12:56:07.555Z</time></trkpt><trkpt lat="46.28149794440613" lon="12.378429630350375"><ele>786.0</ele><time>2026-04-19T12:56:08.555Z</time></trkpt><trkpt lat="46.281415820338424" lon="12.378606796592681"><ele>789.0</ele><time>2026-04-19T12:56:09.555Z</time></trkpt><trkpt lat="46.28133476363513" lon="12.378776559903642"><ele>792.0</ele><time>2026-04-19T12:56:10.555Z</time></trkpt><trkpt lat="46.28125014701929" lon="12.378969417129188"><ele>781.3333333333334</ele><time>2026-04-19T12:56:11.555Z</time></trkpt><trkpt lat="46.28117348135317" lon="12.379155066861639"><ele>770.6666666666667</ele><time>2026-04-19T12:56:12.555Z</time></trkpt><trkpt lat="46.28110252544996" lon="12.379332679312745"><ele>760.0</ele><time>2026-04-19T12:56:13.555Z</time></trkpt><trkpt lat="46.281022998875535" lon="12.379536448493003"><ele>764.75</ele><time>2026-04-19T12:56:14.555Z</time></trkpt><trkpt lat="46.28095352352684" lon="12.379718444140973"><ele>769.5</ele><time>2026-04-19T12:56:15.555Z</time></trkpt><trkpt lat="46.28088838551797" lon="12.379889255559407"><ele>774.25</ele><time>2026-04-19T12:56:16.555Z</time></trkpt><trkpt lat="46.28082588482195" lon="12.380038650999685"><ele>779.0</ele><time>2026-04-19T12:56:17.555Z</time></trkpt><trkpt lat="46.280777793355085" lon="12.380126033726992"><ele>779.0</ele><time>2026-04-19T12:56:18.555Z</time></trkpt><trkpt lat="46.280669898755136" lon="12.380270349326217"><ele>779.0</ele><time>2026-04-19T12:56:19.555Z</time></trkpt><trkpt lat="46.280567143541" lon="12.380308203621778"><ele>779.0</ele><time>2026-04-19T12:56:20.555Z</time></trkpt><trkpt lat="46.28042823710076" lon="12.380422004594502"><ele>779.0</ele><time>2026-04-19T12:56:21.555Z</time></trkpt><trkpt lat="46.2803461348559" lon="12.38053466744489"><ele>777.8000000000001</ele><time>2026-04-19T12:56:22.555Z</time></trkpt><trkpt lat="46.280252268458376" lon="12.380627041991394"><ele>776.6</ele><time>2026-04-19T12:56:23.555Z</time></trkpt><trkpt lat="46.280171710096226" lon="12.380703814815732"><ele>775.4</ele><time>2026-04-19T12:56:24.555Z</time></trkpt><trkpt lat="46.280098064755386" lon="12.380781721003867"><ele>774.2</ele><time>2026-04-19T12:56:25.555Z</time></trkpt><trkpt lat="46.279982148381926" lon="12.380798646954425"><ele>773.0</ele><time>2026-04-19T12:56:26.555Z</time></trkpt><trkpt lat="46.27994559568207" lon="12.380934006327267"><ele>773.0</ele><time>2026-04-19T12:56:27.555Z</time></trkpt><trkpt lat="46.27986782525016" lon="12.381037824867338"><ele>773.0</ele><time>2026-04-19T12:56:28.555Z</time></trkpt><trkpt lat="46.279786254620454" lon="12.38113488933377"><ele>773.0</ele><time>2026-04-19T12:56:29.555Z</time></trkpt><trkpt lat="46.27970409218537" lon="12.381210779215145"><ele>773.0</ele><time>2026-04-19T12:56:30.555Z</time></trkpt><trkpt lat="46.279610354591796" lon="12.381193694033227"><ele>773.0</ele><time>2026-04-19T12:56:31.555Z</time></trkpt><trkpt lat="46.279534261925384" lon="12.381163790844168"><ele>773.5999999999999</ele><time>2026-04-19T12:56:32.555Z</time></trkpt><trkpt lat="46.279450287518344" lon="12.381083752241477"><ele>774.1999999999999</ele><time>2026-04-19T12:56:33.555Z</time></trkpt><trkpt lat="46.279401335239406" lon="12.380994188681242"><ele>774.8</ele><time>2026-04-19T12:56:34.555Z</time></trkpt><trkpt lat="46.27936496541034" lon="12.380879947630353"><ele>775.4</ele><time>2026-04-19T12:56:35.555Z</time></trkpt><trkpt lat="46.27926553669889" lon="12.38078280568837"><ele>776.0</ele><time>2026-04-19T12:56:36.555Z</time></trkpt><trkpt lat="46.27919016822383" lon="12.380680543685726"><ele>776.0</ele><time>2026-04-19T12:56:37.555Z</time></trkpt><trkpt lat="46.27911399500689" lon="12.380572158190656"><ele>776.0</ele><time>2026-04-19T12:56:38.555Z</time></trkpt><trkpt lat="46.27904368192941" lon="12.380455871318741"><ele>776.0</ele><time>2026-04-19T12:56:39.556Z</time></trkpt><trkpt lat="46.27898285612458" lon="12.380378545386478"><ele>776.0</ele><time>2026-04-19T12:56:40.556Z</time></trkpt><trkpt lat="46.27893225052749" lon="12.380295219678441"><ele>776.0</ele><time>2026-04-19T12:56:41.556Z</time></trkpt><trkpt lat="46.27885012611041" lon="12.380245895692308"><ele>769.4</ele><time>2026-04-19T12:56:42.556Z</time></trkpt><trkpt lat="46.27874871750064" lon="12.380246674152396"><ele>762.8</ele><time>2026-04-19T12:56:43.556Z</time></trkpt><trkpt lat="46.2786630976326" lon="12.380319860492174"><ele>756.1999999999999</ele><time>2026-04-19T12:56:44.556Z</time></trkpt><trkpt lat="46.27856394375295" lon="12.380365704095984"><ele>749.5999999999999</ele><time>2026-04-19T12:56:45.556Z</time></trkpt><trkpt lat="46.2784983792818" lon="12.380459939454957"><ele>743.0</ele><time>2026-04-19T12:56:46.556Z</time></trkpt><trkpt lat="46.27841449689569" lon="12.380509684817232"><ele>743.0</ele><time>2026-04-19T12:56:47.556Z</time></trkpt><trkpt lat="46.27829680050843" lon="12.380555798317246"><ele>743.0</ele><time>2026-04-19T12:56:48.556Z</time></trkpt><trkpt lat="46.278166287947876" lon="12.380619704250405"><ele>743.0</ele><time>2026-04-19T12:56:49.556Z</time></trkpt><trkpt lat="46.278053644921386" lon="12.380665499578074"><ele>743.0</ele><time>2026-04-19T12:56:50.556Z</time></trkpt><trkpt lat="46.277929041428635" lon="12.38073313536357"><ele>743.0</ele><time>2026-04-19T12:56:51.556Z</time></trkpt><trkpt lat="46.27780928726212" lon="12.38080317456618"><ele>743.0</ele><time>2026-04-19T12:56:52.556Z</time></trkpt><trkpt lat="46.277706208295" lon="12.380879744091281"><ele>743.0</ele><time>2026-04-19T12:56:53.556Z</time></trkpt><trkpt lat="46.277632275497595" lon="12.380979409274232"><ele>743.0</ele><time>2026-04-19T12:56:54.556Z</time></trkpt><trkpt lat="46.277584863132404" lon="12.381094174865064"><ele>743.0</ele><time>2026-04-19T12:56:55.556Z</time></trkpt><trkpt lat="46.277533655296644" lon="12.381238174882586"><ele>747.5</ele><time>2026-04-19T12:56:56.556Z</time></trkpt><trkpt lat="46.27748320951561" lon="12.381391989516178"><ele>752.0</ele><time>2026-04-19T12:56:57.556Z</time></trkpt><trkpt lat="46.27742280168798" lon="12.381538120888571"><ele>756.5</ele><time>2026-04-19T12:56:58.556Z</time></trkpt><trkpt lat="46.277365787683195" lon="12.381705833508562"><ele>761.0</ele><time>2026-04-19T12:56:59.556Z</time></trkpt><trkpt lat="46.277309443221796" lon="12.381865939405452"><ele>755.0</ele><time>2026-04-19T12:57:00.556Z</time></trkpt><trkpt lat="46.277263213827865" lon="12.38202149529268"><ele>749.0</ele><time>2026-04-19T12:57:01.556Z</time></trkpt><trkpt lat="46.27723497523032" lon="12.382169616878617"><ele>743.0</ele><time>2026-04-19T12:57:02.556Z</time></trkpt><trkpt lat="46.27723931636331" lon="12.382331309548189"><ele>737.0</ele><time>2026-04-19T12:57:03.556Z</time></trkpt><trkpt lat="46.27724766187054" lon="12.382461758036293"><ele>731.0</ele><time>2026-04-19T12:57:04.556Z</time></trkpt><trkpt lat="46.2772574428558" lon="12.382635444546269"><ele>731.0</ele><time>2026-04-19T12:57:05.556Z</time></trkpt><trkpt lat="46.27725243794987" lon="12.382801601482694"><ele>731.0</ele><time>2026-04-19T12:57:06.556Z</time></trkpt><trkpt lat="46.27724033381967" lon="12.382949992404685"><ele>731.0</ele><time>2026-04-19T12:57:07.556Z</time></trkpt><trkpt lat="46.27721979712299" lon="12.38310777126669"><ele>731.0</ele><time>2026-04-19T12:57:08.556Z</time></trkpt><trkpt lat="46.27717238023787" lon="12.383248837760274"><ele>731.0</ele><time>2026-04-19T12:57:09.556Z</time></trkpt><trkpt lat="46.27711259609798" lon="12.383374667565418"><ele>732.0</ele><time>2026-04-19T12:57:10.556Z</time></trkpt><trkpt lat="46.27704810300767" lon="12.383500215181785"><ele>733.0</ele><time>2026-04-19T12:57:11.556Z</time></trkpt><trkpt lat="46.276983675876366" lon="12.383610154902193"><ele>734.0</ele><time>2026-04-19T12:57:12.556Z</time></trkpt><trkpt lat="46.27692845042701" lon="12.383722490531849"><ele>735.0</ele><time>2026-04-19T12:57:13.556Z</time></trkpt><trkpt lat="46.27688449887241" lon="12.383834568491721"><ele>736.0</ele><time>2026-04-19T12:57:14.556Z</time></trkpt><trkpt lat="46.27683866217405" lon="12.383955209230457"><ele>738.4</ele><time>2026-04-19T12:57:15.556Z</time></trkpt><trkpt lat="46.27679073347162" lon="12.384078388666504"><ele>740.8</ele><time>2026-04-19T12:57:16.556Z</time></trkpt><trkpt lat="46.27675407960579" lon="12.384190465108189"><ele>743.1999999999999</ele><time>2026-04-19T12:57:17.556Z</time></trkpt><trkpt lat="46.27673972922685" lon="12.38429705081798"><ele>745.5999999999999</ele><time>2026-04-19T12:57:18.556Z</time></trkpt><trkpt lat="46.27673887428694" lon="12.384422648746009"><ele>748.0</ele><time>2026-04-19T12:57:19.556Z</time></trkpt><trkpt lat="46.27676072221691" lon="12.38457326170171"><ele>747.2</ele><time>2026-04-19T12:57:20.556Z</time></trkpt><trkpt lat="46.27679623771963" lon="12.384711849023752"><ele>746.4</ele><time>2026-04-19T12:57:21.556Z</time></trkpt><trkpt lat="46.27682667977638" lon="12.384853601137461"><ele>745.6</ele><time>2026-04-19T12:57:22.556Z</time></trkpt><trkpt lat="46.276868314308594" lon="12.384996540458868"><ele>744.8000000000001</ele><time>2026-04-19T12:57:23.556Z</time></trkpt><trkpt lat="46.27690822277172" lon="12.385128975732608"><ele>744.0</ele><time>2026-04-19T12:57:24.556Z</time></trkpt><trkpt lat="46.276945651837444" lon="12.385272727831174"><ele>744.0</ele><time>2026-04-19T12:57:25.556Z</time></trkpt><trkpt lat="46.276953393275896" lon="12.385422390699974"><ele>744.0</ele><time>2026-04-19T12:57:26.556Z</time></trkpt><trkpt lat="46.27697616335912" lon="12.385625132641028"><ele>744.0</ele><time>2026-04-19T12:57:27.556Z</time></trkpt><trkpt lat="46.27701267647056" lon="12.385897542233053"><ele>744.0</ele><time>2026-04-19T12:57:28.556Z</time></trkpt><trkpt lat="46.277105092107796" lon="12.386161544247246"><ele>742.4000000000001</ele><time>2026-04-19T12:57:29.556Z</time></trkpt><trkpt lat="46.277052348892" lon="12.386028993740407"><ele>740.8</ele><time>2026-04-19T12:57:30.556Z</time></trkpt><trkpt lat="46.27710231929011" lon="12.38617808309541"><ele>739.2</ele><time>2026-04-19T12:57:31.556Z</time></trkpt><trkpt lat="46.277169977679534" lon="12.386316886590583"><ele>737.5999999999999</ele><time>2026-04-19T12:57:32.556Z</time></trkpt><trkpt lat="46.27718475899311" lon="12.386455737660238"><ele>736.0</ele><time>2026-04-19T12:57:33.556Z</time></trkpt><trkpt lat="46.27727255992325" lon="12.386588364473058"><ele>744.5</ele><time>2026-04-19T12:57:34.556Z</time></trkpt><trkpt lat="46.27732633234733" lon="12.386732871874518"><ele>753.0</ele><time>2026-04-19T12:57:35.556Z</time></trkpt><trkpt lat="46.27736200829496" lon="12.386895725993428"><ele>761.5</ele><time>2026-04-19T12:57:36.556Z</time></trkpt><trkpt lat="46.277354597794414" lon="12.387066168895966"><ele>770.0</ele><time>2026-04-19T12:57:37.556Z</time></trkpt><trkpt lat="46.27735412552205" lon="12.387243187746526"><ele>770.0</ele><time>2026-04-19T12:57:38.556Z</time></trkpt><trkpt lat="46.27734464861722" lon="12.387401451616487"><ele>770.0</ele><time>2026-04-19T12:57:39.556Z</time></trkpt><trkpt lat="46.277331755620295" lon="12.387552827277819"><ele>770.0</ele><time>2026-04-19T12:57:40.556Z</time></trkpt><trkpt lat="46.27732445061992" lon="12.387718769086772"><ele>770.0</ele><time>2026-04-19T12:57:41.556Z</time></trkpt><trkpt lat="46.27734747280604" lon="12.387887898049215"><ele>770.0</ele><time>2026-04-19T12:57:42.556Z</time></trkpt><trkpt lat="46.27737413057717" lon="12.388058340559919"><ele>769.6</ele><time>2026-04-19T12:57:43.556Z</time></trkpt><trkpt lat="46.27740499084301" lon="12.38822871667924"><ele>769.2</ele><time>2026-04-19T12:57:44.556Z</time></trkpt><trkpt lat="46.27741512942751" lon="12.388360341136972"><ele>768.8</ele><time>2026-04-19T12:57:45.556Z</time></trkpt><trkpt lat="46.27740939257744" lon="12.388500122115895"><ele>768.4</ele><time>2026-04-19T12:57:46.556Z</time></trkpt><trkpt lat="46.27740816164984" lon="12.388654324569854"><ele>768.0</ele><time>2026-04-19T12:57:47.556Z</time></trkpt><trkpt lat="46.27741533978896" lon="12.388807902653731"><ele>766.5999999999999</ele><time>2026-04-19T12:57:48.556Z</time></trkpt><trkpt lat="46.2774519279666" lon="12.388973955726815"><ele>765.1999999999999</ele><time>2026-04-19T12:57:49.556Z</time></trkpt><trkpt lat="46.27748981694038" lon="12.389129058485796"><ele>763.8</ele><time>2026-04-19T12:57:50.556Z</time></trkpt><trkpt lat="46.27753260987413" lon="12.389270119134478"><ele>762.4</ele><time>2026-04-19T12:57:51.556Z</time></trkpt><trkpt lat="46.277590583900974" lon="12.389390439667524"><ele>761.0</ele><time>2026-04-19T12:57:52.556Z</time></trkpt><trkpt lat="46.27765567165509" lon="12.389489668124806"><ele>761.0</ele><time>2026-04-19T12:57:53.556Z</time></trkpt><trkpt lat="46.27766986499805" lon="12.389614332117729"><ele>761.0</ele><time>2026-04-19T12:57:54.556Z</time></trkpt><trkpt lat="46.27763784562379" lon="12.389762029345391"><ele>761.0</ele><time>2026-04-19T12:57:55.556Z</time></trkpt><trkpt lat="46.27765778977147" lon="12.38990115743179"><ele>761.0</ele><time>2026-04-19T12:57:56.556Z</time></trkpt><trkpt lat="46.277685947182775" lon="12.390024946419961"><ele>761.0</ele><time>2026-04-19T12:57:57.556Z</time></trkpt><trkpt lat="46.277743542985995" lon="12.390127028685322"><ele>757.1999999999999</ele><time>2026-04-19T12:57:58.556Z</time></trkpt><trkpt lat="46.27782264694169" lon="12.39020899156404"><ele>753.4</ele><time>2026-04-19T12:57:59.556Z</time></trkpt><trkpt lat="46.27791283784783" lon="12.390256594378897"><ele>749.6</ele><time>2026-04-19T12:58:00.556Z</time></trkpt><trkpt lat="46.278014392005836" lon="12.390286292383445"><ele>745.8</ele><time>2026-04-19T12:58:01.556Z</time></trkpt><trkpt lat="46.2781237415723" lon="12.390352218102061"><ele>742.0</ele><time>2026-04-19T12:58:02.556Z</time></trkpt><trkpt lat="46.27821682916429" lon="12.390437287088995"><ele>746.0</ele><time>2026-04-19T12:58:03.556Z</time></trkpt><trkpt lat="46.278314055925755" lon="12.390516120663928"><ele>750.0</ele><time>2026-04-19T12:58:04.556Z</time></trkpt><trkpt lat="46.27842101523247" lon="12.390601219632739"><ele>754.0</ele><time>2026-04-19T12:58:05.556Z</time></trkpt><trkpt lat="46.27852317537258" lon="12.390742844303928"><ele>758.0</ele><time>2026-04-19T12:58:06.556Z</time></trkpt><trkpt lat="46.278598730307884" lon="12.39089579164667"><ele>758.0</ele><time>2026-04-19T12:58:07.556Z</time></trkpt><trkpt lat="46.27866470484422" lon="12.391009415115668"><ele>758.0</ele><time>2026-04-19T12:58:08.556Z</time></trkpt><trkpt lat="46.278710926040986" lon="12.391089748239954"><ele>758.0</ele><time>2026-04-19T12:58:09.556Z</time></trkpt><trkpt lat="46.27875674402682" lon="12.39116877533272"><ele>758.0</ele><time>2026-04-19T12:58:11.556Z</time></trkpt><trkpt lat="46.278789357847735" lon="12.391249449512685"><ele>758.0</ele><time>2026-04-19T12:58:14.556Z</time></trkpt><trkpt lat="46.278832814993606" lon="12.391318624364537"><ele>758.0</ele><time>2026-04-19T12:58:37.556Z</time></trkpt><trkpt lat="46.27890371568767" lon="12.391393539098555"><ele>761.8</ele><time>2026-04-19T12:58:39.556Z</time></trkpt><trkpt lat="46.27896149281856" lon="12.391522730657732"><ele>765.5999999999999</ele><time>2026-04-19T12:58:40.556Z</time></trkpt><trkpt lat="46.279033359978705" lon="12.39164591517836"><ele>769.4000000000001</ele><time>2026-04-19T12:58:41.556Z</time></trkpt><trkpt lat="46.27909262842885" lon="12.391749824441375"><ele>773.2</ele><time>2026-04-19T12:58:42.556Z</time></trkpt><trkpt lat="46.279155414489686" lon="12.391863383287507"><ele>777.0</ele><time>2026-04-19T12:58:43.556Z</time></trkpt><trkpt lat="46.27923876301838" lon="12.392037694744653"><ele>774.0</ele><time>2026-04-19T12:58:44.556Z</time></trkpt><trkpt lat="46.27929381660821" lon="12.392226193329583"><ele>771.0</ele><time>2026-04-19T12:58:45.556Z</time></trkpt><trkpt lat="46.279335177905956" lon="12.392412584813837"><ele>768.0</ele><time>2026-04-19T12:58:46.556Z</time></trkpt><trkpt lat="46.2793711127942" lon="12.39259352162307"><ele>765.0</ele><time>2026-04-19T12:58:47.556Z</time></trkpt><trkpt lat="46.27941304823748" lon="12.392780768432539"><ele>765.0</ele><time>2026-04-19T12:58:48.556Z</time></trkpt><trkpt lat="46.279463296551974" lon="12.392967581683768"><ele>765.0</ele><time>2026-04-19T12:58:49.556Z</time></trkpt><trkpt lat="46.27953412652918" lon="12.393135350192914"><ele>765.0</ele><time>2026-04-19T12:58:50.556Z</time></trkpt><trkpt lat="46.27962327091167" lon="12.393308341485367"><ele>765.0</ele><time>2026-04-19T12:58:51.556Z</time></trkpt><trkpt lat="46.27972136478059" lon="12.393462818315195"><ele>767.6666666666667</ele><time>2026-04-19T12:58:52.556Z</time></trkpt><trkpt lat="46.27983505083567" lon="12.393607489524326"><ele>770.3333333333334</ele><time>2026-04-19T12:58:53.556Z</time></trkpt><trkpt lat="46.279962050120965" lon="12.393787953991588"><ele>773.0</ele><time>2026-04-19T12:58:54.556Z</time></trkpt><trkpt lat="46.28008735770233" lon="12.393953546598546"><ele>773.0</ele><time>2026-04-19T12:58:55.556Z</time></trkpt><trkpt lat="46.28019150031949" lon="12.394111260479757"><ele>773.0</ele><time>2026-04-19T12:58:56.556Z</time></trkpt><trkpt lat="46.28030319450132" lon="12.394265438705554"><ele>773.0</ele><time>2026-04-19T12:58:57.556Z</time></trkpt><trkpt lat="46.2804142627588" lon="12.39443696170565"><ele>773.0</ele><time>2026-04-19T12:58:58.556Z</time></trkpt><trkpt lat="46.280524962996274" lon="12.394611865724626"><ele>773.0</ele><time>2026-04-19T12:58:59.556Z</time></trkpt><trkpt lat="46.280625434276686" lon="12.394791406920099"><ele>773.0</ele><time>2026-04-19T12:59:00.556Z</time></trkpt><trkpt lat="46.28071965900312" lon="12.394983981066398"><ele>773.3333333333334</ele><time>2026-04-19T12:59:01.556Z</time></trkpt><trkpt lat="46.280809701707305" lon="12.395179061623027"><ele>773.6666666666667</ele><time>2026-04-19T12:59:02.556Z</time></trkpt><trkpt lat="46.280896943829205" lon="12.395368867767859"><ele>774.0</ele><time>2026-04-19T12:59:03.556Z</time></trkpt><trkpt lat="46.280976357902105" lon="12.39556938049021"><ele>774.0</ele><time>2026-04-19T12:59:04.556Z</time></trkpt><trkpt lat="46.28105470425135" lon="12.395775405172314"><ele>774.0</ele><time>2026-04-19T12:59:05.556Z</time></trkpt><trkpt lat="46.28113647419939" lon="12.395996636407975"><ele>774.0</ele><time>2026-04-19T12:59:06.556Z</time></trkpt><trkpt lat="46.28122205203708" lon="12.396238360306297"><ele>776.3333333333333</ele><time>2026-04-19T12:59:07.556Z</time></trkpt><trkpt lat="46.28130511243061" lon="12.396484011262029"><ele>778.6666666666666</ele><time>2026-04-19T12:59:08.556Z</time></trkpt><trkpt lat="46.28137982711401" lon="12.39672110147434"><ele>781.0</ele><time>2026-04-19T12:59:09.556Z</time></trkpt><trkpt lat="46.28144844537853" lon="12.396932674912104"><ele>781.75</ele><time>2026-04-19T12:59:10.556Z</time></trkpt><trkpt lat="46.281509057844964" lon="12.397130944366975"><ele>782.5</ele><time>2026-04-19T12:59:11.556Z</time></trkpt><trkpt lat="46.281575209034266" lon="12.397317198440657"><ele>783.25</ele><time>2026-04-19T12:59:12.556Z</time></trkpt><trkpt lat="46.281643410667066" lon="12.397489583137466"><ele>784.0</ele><time>2026-04-19T12:59:13.556Z</time></trkpt><trkpt lat="46.281734478925856" lon="12.397657860880305"><ele>785.3333333333333</ele><time>2026-04-19T12:59:14.556Z</time></trkpt><trkpt lat="46.2818497433957" lon="12.39780849589893"><ele>786.6666666666667</ele><time>2026-04-19T12:59:15.556Z</time></trkpt><trkpt lat="46.281984535659205" lon="12.397962574368355"><ele>788.0</ele><time>2026-04-19T12:59:16.556Z</time></trkpt><trkpt lat="46.28213371508075" lon="12.398121466534931"><ele>788.6666666666667</ele><time>2026-04-19T12:59:17.556Z</time></trkpt><trkpt lat="46.282287616351056" lon="12.398300244002634"><ele>789.3333333333333</ele><time>2026-04-19T12:59:18.556Z</time></trkpt><trkpt lat="46.282450656780554" lon="12.398502153012531"><ele>790.0</ele><time>2026-04-19T12:59:19.556Z</time></trkpt><trkpt lat="46.28261620098961" lon="12.398717106286613"><ele>794.0</ele><time>2026-04-19T12:59:20.556Z</time></trkpt><trkpt lat="46.282795104701634" lon="12.398942390172682"><ele>798.0</ele><time>2026-04-19T12:59:21.556Z</time></trkpt><trkpt lat="46.28297053503499" lon="12.39916708886344"><ele>800.3333333333333</ele><time>2026-04-19T12:59:22.556Z</time></trkpt><trkpt lat="46.283128317794926" lon="12.399368165290118"><ele>802.6666666666666</ele><time>2026-04-19T12:59:23.556Z</time></trkpt><trkpt lat="46.28326864340185" lon="12.399552489190096"><ele>805.0</ele><time>2026-04-19T12:59:24.556Z</time></trkpt><trkpt lat="46.28339428764467" lon="12.39973502972563"><ele>805.3333333333333</ele><time>2026-04-19T12:59:25.556Z</time></trkpt><trkpt lat="46.28350204278264" lon="12.399908513344277"><ele>805.6666666666667</ele><time>2026-04-19T12:59:26.556Z</time></trkpt><trkpt lat="46.28360172076039" lon="12.40006985174571"><ele>806.0</ele><time>2026-04-19T12:59:27.556Z</time></trkpt><trkpt lat="46.283697579448756" lon="12.400232073825348"><ele>806.0</ele><time>2026-04-19T12:59:28.556Z</time></trkpt><trkpt lat="46.28380154178784" lon="12.400388218403501"><ele>806.0</ele><time>2026-04-19T12:59:29.556Z</time></trkpt><trkpt lat="46.28391843975057" lon="12.400520987548951"><ele>806.0</ele><time>2026-04-19T12:59:30.556Z</time></trkpt><trkpt lat="46.28403020261517" lon="12.400646372121326"><ele>806.0</ele><time>2026-04-19T12:59:31.556Z</time></trkpt><trkpt lat="46.28414132208827" lon="12.400769540358164"><ele>807.0</ele><time>2026-04-19T12:59:32.556Z</time></trkpt><trkpt lat="46.28425076272435" lon="12.400894589841673"><ele>808.0</ele><time>2026-04-19T12:59:33.556Z</time></trkpt><trkpt lat="46.28433565572699" lon="12.401039120373031"><ele>809.0</ele><time>2026-04-19T12:59:34.556Z</time></trkpt><trkpt lat="46.284405252450206" lon="12.401195335446852"><ele>810.0</ele><time>2026-04-19T12:59:35.556Z</time></trkpt><trkpt lat="46.28446738194036" lon="12.401368895853622"><ele>812.0</ele><time>2026-04-19T12:59:36.556Z</time></trkpt><trkpt lat="46.28450066110996" lon="12.40158299386134"><ele>814.0</ele><time>2026-04-19T12:59:37.556Z</time></trkpt><trkpt lat="46.28451923538045" lon="12.401783923032665"><ele>816.0</ele><time>2026-04-19T12:59:38.556Z</time></trkpt><trkpt lat="46.28451557895092" lon="12.402051610968451"><ele>820.0</ele><time>2026-04-19T12:59:39.556Z</time></trkpt><trkpt lat="46.28455122839371" lon="12.402311676247141"><ele>824.0</ele><time>2026-04-19T12:59:40.556Z</time></trkpt><trkpt lat="46.28460394898696" lon="12.402570920240642"><ele>828.0</ele><time>2026-04-19T12:59:41.556Z</time></trkpt><trkpt lat="46.28466557470968" lon="12.402845109396063"><ele>830.3333333333333</ele><time>2026-04-19T12:59:42.556Z</time></trkpt><trkpt lat="46.28473207404445" lon="12.403088670596084"><ele>832.6666666666666</ele><time>2026-04-19T12:59:43.556Z</time></trkpt><trkpt lat="46.28478700523546" lon="12.40332051272287"><ele>835.0</ele><time>2026-04-19T12:59:44.556Z</time></trkpt><trkpt lat="46.28484339220141" lon="12.403534683012008"><ele>827.3333333333333</ele><time>2026-04-19T12:59:45.556Z</time></trkpt><trkpt lat="46.28490088511031" lon="12.403767430779046"><ele>819.6666666666667</ele><time>2026-04-19T12:59:46.556Z</time></trkpt><trkpt lat="46.28495287811104" lon="12.404001203258929"><ele>812.0</ele><time>2026-04-19T12:59:47.556Z</time></trkpt><trkpt lat="46.285017972868275" lon="12.404221299275813"><ele>811.6666666666667</ele><time>2026-04-19T12:59:48.556Z</time></trkpt><trkpt lat="46.28509298875956" lon="12.404424138032352"><ele>811.3333333333333</ele><time>2026-04-19T12:59:49.556Z</time></trkpt><trkpt lat="46.285177750450856" lon="12.404623067695239"><ele>811.0</ele><time>2026-04-19T12:59:50.556Z</time></trkpt><trkpt lat="46.28527551915628" lon="12.404814696053519"><ele>811.0</ele><time>2026-04-19T12:59:51.556Z</time></trkpt><trkpt lat="46.285380982500484" lon="12.405014079032965"><ele>811.0</ele><time>2026-04-19T12:59:52.556Z</time></trkpt><trkpt lat="46.28548111250547" lon="12.405222884885147"><ele>811.0</ele><time>2026-04-19T12:59:53.556Z</time></trkpt><trkpt lat="46.28557686929041" lon="12.405415670333554"><ele>812.3333333333333</ele><time>2026-04-19T12:59:54.556Z</time></trkpt><trkpt lat="46.28567936032677" lon="12.405586797454351"><ele>813.6666666666667</ele><time>2026-04-19T12:59:55.556Z</time></trkpt><trkpt lat="46.285787733682646" lon="12.405750870588282"><ele>815.0</ele><time>2026-04-19T12:59:56.556Z</time></trkpt><trkpt lat="46.285912172996326" lon="12.40589953508426"><ele>815.0</ele><time>2026-04-19T12:59:57.556Z</time></trkpt><trkpt lat="46.286047632800326" lon="12.406048617595578"><ele>815.0</ele><time>2026-04-19T12:59:58.556Z</time></trkpt><trkpt lat="46.28619842473369" lon="12.406198321102183"><ele>815.0</ele><time>2026-04-19T12:59:59.556Z</time></trkpt><trkpt lat="46.2863463513912" lon="12.406322778376728"><ele>815.0</ele><time>2026-04-19T13:00:00.556Z</time></trkpt><trkpt lat="46.286482749569274" lon="12.406425840528627"><ele>815.0</ele><time>2026-04-19T13:00:01.556Z</time></trkpt><trkpt lat="46.28660823066186" lon="12.406501065905845"><ele>815.0</ele><time>2026-04-19T13:00:02.556Z</time></trkpt><trkpt lat="46.286724972699524" lon="12.406563178075999"><ele>815.0</ele><time>2026-04-19T13:00:03.556Z</time></trkpt><trkpt lat="46.28683655283522" lon="12.40663735194881"><ele>815.0000000000001</ele><time>2026-04-19T13:00:04.556Z</time></trkpt><trkpt lat="46.286938699362196" lon="12.406716545131554"><ele>815.0</ele><time>2026-04-19T13:00:05.556Z</time></trkpt><trkpt lat="46.28699405583462" lon="12.406803975322756"><ele>815.0</ele><time>2026-04-19T13:00:06.556Z</time></trkpt><trkpt lat="46.2870271605838" lon="12.406914795010344"><ele>815.0</ele><time>2026-04-19T13:00:07.556Z</time></trkpt><trkpt lat="46.28701526009115" lon="12.40703548900667"><ele>815.0000000000001</ele><time>2026-04-19T13:00:08.556Z</time></trkpt><trkpt lat="46.28696491071148" lon="12.407129223080277"><ele>815.0</ele><time>2026-04-19T13:00:09.556Z</time></trkpt><trkpt lat="46.28690296274812" lon="12.407186861164236"><ele>815.0</ele><time>2026-04-19T13:00:10.556Z</time></trkpt><trkpt lat="46.28681084715571" lon="12.407191401950868"><ele>815.0</ele><time>2026-04-19T13:00:11.556Z</time></trkpt><trkpt lat="46.28671712003975" lon="12.40709715565981"><ele>815.0</ele><time>2026-04-19T13:00:12.556Z</time></trkpt><trkpt lat="46.2866055504925" lon="12.407051735835827"><ele>815.0</ele><time>2026-04-19T13:00:13.556Z</time></trkpt><trkpt lat="46.28647119088433" lon="12.407021267500474"><ele>814.25</ele><time>2026-04-19T13:00:14.556Z</time></trkpt><trkpt lat="46.286359112867274" lon="12.407039970692727"><ele>813.5</ele><time>2026-04-19T13:00:15.556Z</time></trkpt><trkpt lat="46.28624275435229" lon="12.407086702131751"><ele>812.75</ele><time>2026-04-19T13:00:16.556Z</time></trkpt><trkpt lat="46.28608948481836" lon="12.407157897140413"><ele>812.0</ele><time>2026-04-19T13:00:17.556Z</time></trkpt><trkpt lat="46.28597352424098" lon="12.40724599746424"><ele>814.5</ele><time>2026-04-19T13:00:18.556Z</time></trkpt><trkpt lat="46.28588485774089" lon="12.407380296758637"><ele>817.0</ele><time>2026-04-19T13:00:19.556Z</time></trkpt><trkpt lat="46.28583401028547" lon="12.407529554400451"><ele>819.5</ele><time>2026-04-19T13:00:20.556Z</time></trkpt><trkpt lat="46.28573600603474" lon="12.407695948825474"><ele>822.0</ele><time>2026-04-19T13:00:21.556Z</time></trkpt><trkpt lat="46.285643460812665" lon="12.407887567972761"><ele>828.5</ele><time>2026-04-19T13:00:22.556Z</time></trkpt><trkpt lat="46.28555163442626" lon="12.408045281959264"><ele>835.0</ele><time>2026-04-19T13:00:23.556Z</time></trkpt><trkpt lat="46.28548611395522" lon="12.408199398217242"><ele>841.5</ele><time>2026-04-19T13:00:24.556Z</time></trkpt><trkpt lat="46.285439694549105" lon="12.408370025762109"><ele>848.0</ele><time>2026-04-19T13:00:25.556Z</time></trkpt><trkpt lat="46.28541136862189" lon="12.40856040231781"><ele>848.0</ele><time>2026-04-19T13:00:26.556Z</time></trkpt><trkpt lat="46.28539843708336" lon="12.408749817512785"><ele>848.0</ele><time>2026-04-19T13:00:27.556Z</time></trkpt><trkpt lat="46.28540035531947" lon="12.40894842841196"><ele>848.0</ele><time>2026-04-19T13:00:28.556Z</time></trkpt><trkpt lat="46.28539713423064" lon="12.409160119316013"><ele>848.0</ele><time>2026-04-19T13:00:29.556Z</time></trkpt><trkpt lat="46.28539802472401" lon="12.40939572028142"><ele>847.3333333333334</ele><time>2026-04-19T13:00:30.556Z</time></trkpt><trkpt lat="46.28540075218282" lon="12.409661688768804"><ele>846.6666666666667</ele><time>2026-04-19T13:00:31.556Z</time></trkpt><trkpt lat="46.285426760621114" lon="12.409878641094277"><ele>846.0</ele><time>2026-04-19T13:00:32.556Z</time></trkpt><trkpt lat="46.28546357294618" lon="12.410105042655587"><ele>846.0</ele><time>2026-04-19T13:00:33.556Z</time></trkpt><trkpt lat="46.285508098933626" lon="12.410317032012996"><ele>846.0</ele><time>2026-04-19T13:00:34.556Z</time></trkpt><trkpt lat="46.28556246995524" lon="12.410527046209497"><ele>846.0</ele><time>2026-04-19T13:00:35.556Z</time></trkpt><trkpt lat="46.285618609170854" lon="12.410747225108"><ele>838.0</ele><time>2026-04-19T13:00:36.556Z</time></trkpt><trkpt lat="46.28567401493379" lon="12.410966842062612"><ele>830.0</ele><time>2026-04-19T13:00:37.556Z</time></trkpt><trkpt lat="46.28572333428932" lon="12.411179473424268"><ele>822.0</ele><time>2026-04-19T13:00:38.556Z</time></trkpt><trkpt lat="46.28577147570604" lon="12.411387012500363"><ele>820.6666666666667</ele><time>2026-04-19T13:00:39.556Z</time></trkpt><trkpt lat="46.28581866672041" lon="12.411590161990675"><ele>819.3333333333334</ele><time>2026-04-19T13:00:40.556Z</time></trkpt><trkpt lat="46.28586773861165" lon="12.41179976058906"><ele>818.0</ele><time>2026-04-19T13:00:41.556Z</time></trkpt><trkpt lat="46.28592886073779" lon="12.411996495382335"><ele>814.3333333333334</ele><time>2026-04-19T13:00:42.557Z</time></trkpt><trkpt lat="46.286027883555306" lon="12.412192405603832"><ele>810.6666666666667</ele><time>2026-04-19T13:00:43.557Z</time></trkpt><trkpt lat="46.286097076170165" lon="12.412377335431806"><ele>807.0</ele><time>2026-04-19T13:00:44.557Z</time></trkpt><trkpt lat="46.286159769042705" lon="12.41256797608655"><ele>807.0</ele><time>2026-04-19T13:00:45.557Z</time></trkpt><trkpt lat="46.28619448695166" lon="12.412795570159538"><ele>807.0</ele><time>2026-04-19T13:00:46.557Z</time></trkpt><trkpt lat="46.28620801552368" lon="12.413031654470803"><ele>807.0</ele><time>2026-04-19T13:00:47.557Z</time></trkpt><trkpt lat="46.28620217856543" lon="12.413294710512679"><ele>804.6666666666667</ele><time>2026-04-19T13:00:48.557Z</time></trkpt><trkpt lat="46.28618312704875" lon="12.413541643523638"><ele>802.3333333333334</ele><time>2026-04-19T13:00:49.557Z</time></trkpt><trkpt lat="46.286178116451794" lon="12.41376657996001"><ele>800.0</ele><time>2026-04-19T13:00:50.557Z</time></trkpt><trkpt lat="46.2861858942145" lon="12.413987014500714"><ele>800.0</ele><time>2026-04-19T13:00:51.557Z</time></trkpt><trkpt lat="46.286213757657855" lon="12.414209654094485"><ele>800.0</ele><time>2026-04-19T13:00:52.557Z</time></trkpt><trkpt lat="46.28625662576236" lon="12.414435642362509"><ele>800.0</ele><time>2026-04-19T13:00:53.557Z</time></trkpt><trkpt lat="46.28630983483965" lon="12.414678179525094"><ele>799.0</ele><time>2026-04-19T13:00:54.557Z</time></trkpt><trkpt lat="46.28636241391595" lon="12.414935270069826"><ele>798.0</ele><time>2026-04-19T13:00:55.557Z</time></trkpt><trkpt lat="46.28640547751084" lon="12.415180552283864"><ele>797.0</ele><time>2026-04-19T13:00:56.557Z</time></trkpt><trkpt lat="46.28643222995854" lon="12.415417652878174"><ele>799.0</ele><time>2026-04-19T13:00:57.557Z</time></trkpt><trkpt lat="46.28645516210491" lon="12.415660022857995"><ele>801.0</ele><time>2026-04-19T13:00:58.557Z</time></trkpt><trkpt lat="46.2864683087311" lon="12.415902251792161"><ele>803.0</ele><time>2026-04-19T13:00:59.557Z</time></trkpt><trkpt lat="46.28647250538938" lon="12.416157565109911"><ele>803.3333333333334</ele><time>2026-04-19T13:01:00.557Z</time></trkpt><trkpt lat="46.28645962929396" lon="12.4164096905973"><ele>803.6666666666667</ele><time>2026-04-19T13:01:01.557Z</time></trkpt><trkpt lat="46.286453668452914" lon="12.416651768847704"><ele>804.0</ele><time>2026-04-19T13:01:02.557Z</time></trkpt><trkpt lat="46.28645637386103" lon="12.416871285552933"><ele>804.0</ele><time>2026-04-19T13:01:03.557Z</time></trkpt><trkpt lat="46.28645263835495" lon="12.417070823753706"><ele>804.0</ele><time>2026-04-19T13:01:04.557Z</time></trkpt><trkpt lat="46.28647058346997" lon="12.417239752088205"><ele>804.0</ele><time>2026-04-19T13:01:05.557Z</time></trkpt><trkpt lat="46.28645897983098" lon="12.417415208605279"><ele>804.0</ele><time>2026-04-19T13:01:06.557Z</time></trkpt><trkpt lat="46.286415433351046" lon="12.417604738678186"><ele>802.3333333333333</ele><time>2026-04-19T13:01:07.557Z</time></trkpt><trkpt lat="46.2863604604175" lon="12.417811099590942"><ele>800.6666666666666</ele><time>2026-04-19T13:01:08.557Z</time></trkpt><trkpt lat="46.286307512795865" lon="12.418029747680263"><ele>799.0</ele><time>2026-04-19T13:01:09.557Z</time></trkpt><trkpt lat="46.28626233145044" lon="12.418232497427967"><ele>798.0</ele><time>2026-04-19T13:01:10.557Z</time></trkpt><trkpt lat="46.28620973730595" lon="12.418417751284768"><ele>797.0</ele><time>2026-04-19T13:01:11.557Z</time></trkpt><trkpt lat="46.28617196997314" lon="12.4185937530767"><ele>796.0</ele><time>2026-04-19T13:01:12.557Z</time></trkpt><trkpt lat="46.28613889835615" lon="12.418740936327115"><ele>795.0</ele><time>2026-04-19T13:01:13.557Z</time></trkpt><trkpt lat="46.28611802464723" lon="12.418875653348637"><ele>793.6</ele><time>2026-04-19T13:01:14.557Z</time></trkpt><trkpt lat="46.28612584218248" lon="12.419019216115323"><ele>792.2</ele><time>2026-04-19T13:01:15.557Z</time></trkpt><trkpt lat="46.28616774099912" lon="12.41915216927916"><ele>790.8</ele><time>2026-04-19T13:01:16.557Z</time></trkpt><trkpt lat="46.2862311818111" lon="12.419280091407055"><ele>789.4</ele><time>2026-04-19T13:01:17.557Z</time></trkpt><trkpt lat="46.286312753469474" lon="12.419404245129805"><ele>788.0</ele><time>2026-04-19T13:01:18.557Z</time></trkpt><trkpt lat="46.28641163009145" lon="12.419515729882173"><ele>787.75</ele><time>2026-04-19T13:01:19.557Z</time></trkpt><trkpt lat="46.286495652839065" lon="12.419633871711236"><ele>787.5</ele><time>2026-04-19T13:01:20.557Z</time></trkpt><trkpt lat="46.28655472307406" lon="12.419772198305735"><ele>787.25</ele><time>2026-04-19T13:01:21.557Z</time></trkpt><trkpt lat="46.28656794808808" lon="12.419948942711597"><ele>787.0</ele><time>2026-04-19T13:01:22.557Z</time></trkpt><trkpt lat="46.28658393871577" lon="12.420138024758351"><ele>787.0</ele><time>2026-04-19T13:01:23.557Z</time></trkpt><trkpt lat="46.286618875343784" lon="12.420314289371346"><ele>787.0</ele><time>2026-04-19T13:01:24.557Z</time></trkpt><trkpt lat="46.28668274894402" lon="12.420489211981197"><ele>787.0</ele><time>2026-04-19T13:01:25.557Z</time></trkpt><trkpt lat="46.28676164745333" lon="12.420655619070711"><ele>787.0</ele><time>2026-04-19T13:01:26.557Z</time></trkpt><trkpt lat="46.286831054644864" lon="12.42080787475277"><ele>784.0</ele><time>2026-04-19T13:01:27.557Z</time></trkpt><trkpt lat="46.28686903148068" lon="12.420975739576065"><ele>781.0</ele><time>2026-04-19T13:01:28.557Z</time></trkpt><trkpt lat="46.28689647636512" lon="12.421146185941359"><ele>778.0</ele><time>2026-04-19T13:01:29.557Z</time></trkpt><trkpt lat="46.28689359556933" lon="12.421344400545786"><ele>775.0</ele><time>2026-04-19T13:01:30.557Z</time></trkpt><trkpt lat="46.28688637300232" lon="12.4215665480289"><ele>772.3333333333333</ele><time>2026-04-19T13:01:31.557Z</time></trkpt><trkpt lat="46.28687800499725" lon="12.421799776583047"><ele>769.6666666666666</ele><time>2026-04-19T13:01:32.557Z</time></trkpt><trkpt lat="46.28687342504325" lon="12.422018008364033"><ele>767.0</ele><time>2026-04-19T13:01:33.557Z</time></trkpt><trkpt lat="46.28687876699304" lon="12.422220652103944"><ele>764.5</ele><time>2026-04-19T13:01:34.557Z</time></trkpt><trkpt lat="46.28690179669291" lon="12.422412316779482"><ele>762.0</ele><time>2026-04-19T13:01:35.557Z</time></trkpt><trkpt lat="46.28693510538845" lon="12.42259940107186"><ele>759.5</ele><time>2026-04-19T13:01:36.557Z</time></trkpt><trkpt lat="46.28697625450336" lon="12.422784285984477"><ele>757.0</ele><time>2026-04-19T13:01:37.557Z</time></trkpt><trkpt lat="46.287017814575" lon="12.422988111808579"><ele>755.0</ele><time>2026-04-19T13:01:38.557Z</time></trkpt><trkpt lat="46.28706104181408" lon="12.423192438358198"><ele>753.0</ele><time>2026-04-19T13:01:39.557Z</time></trkpt><trkpt lat="46.28710295165879" lon="12.423392668788926"><ele>751.0</ele><time>2026-04-19T13:01:40.557Z</time></trkpt><trkpt lat="46.28715273284108" lon="12.423575685176099"><ele>749.0</ele><time>2026-04-19T13:01:41.557Z</time></trkpt><trkpt lat="46.287225980310005" lon="12.42373988197866"><ele>748.75</ele><time>2026-04-19T13:01:42.557Z</time></trkpt><trkpt lat="46.28730326009582" lon="12.423889618838134"><ele>748.5</ele><time>2026-04-19T13:01:43.557Z</time></trkpt><trkpt lat="46.28739184078047" lon="12.42401936460919"><ele>748.25</ele><time>2026-04-19T13:01:44.557Z</time></trkpt><trkpt lat="46.28745902652885" lon="12.424138121892256"><ele>748.0</ele><time>2026-04-19T13:01:45.557Z</time></trkpt><trkpt lat="46.28751908094351" lon="12.424253025803806"><ele>748.0</ele><time>2026-04-19T13:01:46.557Z</time></trkpt><trkpt lat="46.28755008497787" lon="12.424383090419475"><ele>748.0</ele><time>2026-04-19T13:01:47.557Z</time></trkpt><trkpt lat="46.28757666919065" lon="12.424477827322708"><ele>748.0</ele><time>2026-04-19T13:01:48.557Z</time></trkpt><trkpt lat="46.28758937751371" lon="12.424643526494014"><ele>748.0</ele><time>2026-04-19T13:01:50.557Z</time></trkpt><trkpt lat="46.287523385990276" lon="12.42476285929208"><ele>748.0</ele><time>2026-04-19T13:01:52.557Z</time></trkpt><trkpt lat="46.28745532577578" lon="12.424733813941737"><ele>748.0</ele><time>2026-04-19T13:01:53.557Z</time></trkpt><trkpt lat="46.28740031963185" lon="12.424660336488918"><ele>748.0</ele><time>2026-04-19T13:01:54.557Z</time></trkpt><trkpt lat="46.28737076745289" lon="12.42455273938813"><ele>748.0</ele><time>2026-04-19T13:01:55.557Z</time></trkpt><trkpt lat="46.28737241303527" lon="12.424396677209831"><ele>748.0</ele><time>2026-04-19T13:01:56.557Z</time></trkpt><trkpt lat="46.28734725270064" lon="12.4242638178712"><ele>748.0</ele><time>2026-04-19T13:01:57.557Z</time></trkpt><trkpt lat="46.287317198781864" lon="12.424144882012271"><ele>748.0</ele><time>2026-04-19T13:01:58.557Z</time></trkpt><trkpt lat="46.28726627262891" lon="12.424055803249464"><ele>748.5999999999999</ele><time>2026-04-19T13:01:59.557Z</time></trkpt><trkpt lat="46.28719198261211" lon="12.424001334553422"><ele>749.1999999999999</ele><time>2026-04-19T13:02:00.557Z</time></trkpt><trkpt lat="46.28711233053339" lon="12.423998872289976"><ele>749.8</ele><time>2026-04-19T13:02:01.557Z</time></trkpt><trkpt lat="46.28702220518676" lon="12.424067248135728"><ele>750.4</ele><time>2026-04-19T13:02:02.557Z</time></trkpt><trkpt lat="46.28695884396989" lon="12.42417543188519"><ele>751.0</ele><time>2026-04-19T13:02:03.557Z</time></trkpt><trkpt lat="46.286931540117365" lon="12.424313878603414"><ele>751.0</ele><time>2026-04-19T13:02:04.557Z</time></trkpt><trkpt lat="46.28693457674631" lon="12.424484166535235"><ele>751.0</ele><time>2026-04-19T13:02:05.557Z</time></trkpt><trkpt lat="46.28696058726878" lon="12.424685496796021"><ele>751.0</ele><time>2026-04-19T13:02:06.557Z</time></trkpt><trkpt lat="46.28699235979756" lon="12.424889797725758"><ele>751.0</ele><time>2026-04-19T13:02:07.557Z</time></trkpt><trkpt lat="46.28700686025655" lon="12.425094378704737"><ele>750.0</ele><time>2026-04-19T13:02:08.557Z</time></trkpt><trkpt lat="46.28698231946561" lon="12.425287715326977"><ele>749.0</ele><time>2026-04-19T13:02:09.557Z</time></trkpt><trkpt lat="46.28696172800206" lon="12.425470018590664"><ele>748.0</ele><time>2026-04-19T13:02:10.557Z</time></trkpt><trkpt lat="46.286927283074206" lon="12.425633590625496"><ele>747.0</ele><time>2026-04-19T13:02:11.557Z</time></trkpt><trkpt lat="46.28688086200897" lon="12.425821227968285"><ele>745.8</ele><time>2026-04-19T13:02:12.557Z</time></trkpt><trkpt lat="46.28685194538468" lon="12.42597663925547"><ele>744.6</ele><time>2026-04-19T13:02:13.557Z</time></trkpt><trkpt lat="46.286853370682344" lon="12.426141613403466"><ele>743.4</ele><time>2026-04-19T13:02:14.557Z</time></trkpt><trkpt lat="46.286866127611084" lon="12.426299726464755"><ele>742.1999999999999</ele><time>2026-04-19T13:02:15.557Z</time></trkpt><trkpt lat="46.286896406470156" lon="12.426456700901449"><ele>741.0</ele><time>2026-04-19T13:02:16.557Z</time></trkpt><trkpt lat="46.2869655699476" lon="12.426589447675555"><ele>741.0</ele><time>2026-04-19T13:02:17.557Z</time></trkpt><trkpt lat="46.28700544885135" lon="12.42672380256888"><ele>741.0</ele><time>2026-04-19T13:02:18.557Z</time></trkpt><trkpt lat="46.28705366633188" lon="12.42684451232365"><ele>741.0</ele><time>2026-04-19T13:02:19.557Z</time></trkpt><trkpt lat="46.28710708471919" lon="12.42699587952758"><ele>741.0</ele><time>2026-04-19T13:02:20.557Z</time></trkpt><trkpt lat="46.28714709696556" lon="12.427167719145073"><ele>741.0</ele><time>2026-04-19T13:02:21.557Z</time></trkpt><trkpt lat="46.28717307907634" lon="12.427320227668837"><ele>741.25</ele><time>2026-04-19T13:02:22.557Z</time></trkpt><trkpt lat="46.287196972397304" lon="12.427488918157215"><ele>741.5</ele><time>2026-04-19T13:02:23.557Z</time></trkpt><trkpt lat="46.28720608721698" lon="12.427680525131086"><ele>741.75</ele><time>2026-04-19T13:02:24.557Z</time></trkpt><trkpt lat="46.287208949960316" lon="12.427850523736847"><ele>742.0</ele><time>2026-04-19T13:02:25.557Z</time></trkpt><trkpt lat="46.28718316082049" lon="12.428056299881856"><ele>742.0</ele><time>2026-04-19T13:02:26.557Z</time></trkpt><trkpt lat="46.28717627339724" lon="12.42823245128091"><ele>742.0</ele><time>2026-04-19T13:02:27.557Z</time></trkpt><trkpt lat="46.2871333300069" lon="12.428389770647124"><ele>742.0</ele><time>2026-04-19T13:02:28.557Z</time></trkpt><trkpt lat="46.287104944681346" lon="12.428522976553044"><ele>742.0</ele><time>2026-04-19T13:02:29.557Z</time></trkpt><trkpt lat="46.28705423542332" lon="12.428641651192947"><ele>742.0</ele><time>2026-04-19T13:02:30.557Z</time></trkpt><trkpt lat="46.287003472815805" lon="12.428751352732618"><ele>739.6</ele><time>2026-04-19T13:02:31.557Z</time></trkpt><trkpt lat="46.28694142978238" lon="12.428896098711263"><ele>737.2</ele><time>2026-04-19T13:02:33.557Z</time></trkpt><trkpt lat="46.28694377809998" lon="12.428989089290454"><ele>734.8</ele><time>2026-04-19T13:02:34.557Z</time></trkpt><trkpt lat="46.28701611686847" lon="12.429130473912833"><ele>732.4</ele><time>2026-04-19T13:02:36.557Z</time></trkpt><trkpt lat="46.28710131910993" lon="12.429100784156931"><ele>730.0</ele><time>2026-04-19T13:02:37.557Z</time></trkpt><trkpt lat="46.28717770788759" lon="12.429063132009041"><ele>730.0</ele><time>2026-04-19T13:02:38.557Z</time></trkpt><trkpt lat="46.28721293889671" lon="12.428908175817595"><ele>730.0</ele><time>2026-04-19T13:02:39.557Z</time></trkpt><trkpt lat="46.28724180307971" lon="12.428744905225585"><ele>730.0</ele><time>2026-04-19T13:02:40.557Z</time></trkpt><trkpt lat="46.287271966188676" lon="12.428545857012299"><ele>730.0</ele><time>2026-04-19T13:02:41.557Z</time></trkpt><trkpt lat="46.2873053764648" lon="12.428392036739439"><ele>724.4</ele><time>2026-04-19T13:02:42.557Z</time></trkpt><trkpt lat="46.28734449593891" lon="12.428268334219062"><ele>718.8</ele><time>2026-04-19T13:02:43.557Z</time></trkpt><trkpt lat="46.287390577260176" lon="12.428157715380053"><ele>713.2</ele><time>2026-04-19T13:02:44.557Z</time></trkpt><trkpt lat="46.28743865000613" lon="12.428074682824523"><ele>707.6</ele><time>2026-04-19T13:02:45.557Z</time></trkpt><trkpt lat="46.28755779833725" lon="12.428011900260355"><ele>702.0</ele><time>2026-04-19T13:02:47.557Z</time></trkpt><trkpt lat="46.28762708796487" lon="12.428048915648162"><ele>702.0</ele><time>2026-04-19T13:02:48.558Z</time></trkpt><trkpt lat="46.287683947550555" lon="12.428141216198773"><ele>702.0</ele><time>2026-04-19T13:02:49.558Z</time></trkpt><trkpt lat="46.28771855041726" lon="12.428287474632247"><ele>702.0</ele><time>2026-04-19T13:02:50.558Z</time></trkpt><trkpt lat="46.28776599730525" lon="12.428455228009941"><ele>702.0</ele><time>2026-04-19T13:02:51.558Z</time></trkpt><trkpt lat="46.28780642308573" lon="12.428631054839258"><ele>702.0</ele><time>2026-04-19T13:02:52.558Z</time></trkpt><trkpt lat="46.28784029969517" lon="12.42880218633255"><ele>698.75</ele><time>2026-04-19T13:02:53.558Z</time></trkpt><trkpt lat="46.287878504116364" lon="12.428964802202197"><ele>695.5</ele><time>2026-04-19T13:02:54.558Z</time></trkpt><trkpt lat="46.287903629110495" lon="12.429140266446092"><ele>692.25</ele><time>2026-04-19T13:02:55.558Z</time></trkpt><trkpt lat="46.28790897455991" lon="12.429312734501535"><ele>689.0</ele><time>2026-04-19T13:02:56.558Z</time></trkpt><trkpt lat="46.28790843423557" lon="12.429495508478713"><ele>685.0</ele><time>2026-04-19T13:02:57.558Z</time></trkpt><trkpt lat="46.28789368360141" lon="12.42967595414514"><ele>681.0</ele><time>2026-04-19T13:02:58.558Z</time></trkpt><trkpt lat="46.28787050599596" lon="12.4298589384365"><ele>677.0</ele><time>2026-04-19T13:02:59.558Z</time></trkpt><trkpt lat="46.287835221213925" lon="12.430028181319825"><ele>673.0</ele><time>2026-04-19T13:03:00.558Z</time></trkpt><trkpt lat="46.287793986108326" lon="12.430195717165711"><ele>673.0</ele><time>2026-04-19T13:03:01.558Z</time></trkpt><trkpt lat="46.28770756905715" lon="12.430326330108313"><ele>673.0</ele><time>2026-04-19T13:03:02.558Z</time></trkpt><trkpt lat="46.287624655493296" lon="12.430450756400882"><ele>673.0</ele><time>2026-04-19T13:03:03.558Z</time></trkpt><trkpt lat="46.28754430571869" lon="12.43057130905454"><ele>673.0</ele><time>2026-04-19T13:03:04.558Z</time></trkpt><trkpt lat="46.28746505841046" lon="12.430660711475428"><ele>671.75</ele><time>2026-04-19T13:03:05.558Z</time></trkpt><trkpt lat="46.28738048953812" lon="12.43077601478071"><ele>670.5</ele><time>2026-04-19T13:03:06.558Z</time></trkpt><trkpt lat="46.287311938504835" lon="12.430902865598702"><ele>669.25</ele><time>2026-04-19T13:03:07.558Z</time></trkpt><trkpt lat="46.28725371899313" lon="12.431040152142057"><ele>668.0</ele><time>2026-04-19T13:03:08.558Z</time></trkpt><trkpt lat="46.28720580032598" lon="12.431220705366856"><ele>664.75</ele><time>2026-04-19T13:03:09.558Z</time></trkpt><trkpt lat="46.287156728728725" lon="12.43140304139748"><ele>661.5</ele><time>2026-04-19T13:03:10.558Z</time></trkpt><trkpt lat="46.28710641893154" lon="12.431617975232971"><ele>658.25</ele><time>2026-04-19T13:03:11.558Z</time></trkpt><trkpt lat="46.28707665379893" lon="12.431839041753154"><ele>655.0</ele><time>2026-04-19T13:03:12.558Z</time></trkpt><trkpt lat="46.287037037675375" lon="12.432050619549306"><ele>652.6666666666667</ele><time>2026-04-19T13:03:13.558Z</time></trkpt><trkpt lat="46.287013109477165" lon="12.432253662971503"><ele>650.3333333333334</ele><time>2026-04-19T13:03:14.558Z</time></trkpt><trkpt lat="46.28699965299536" lon="12.432479172044188"><ele>648.0</ele><time>2026-04-19T13:03:15.558Z</time></trkpt><trkpt lat="46.28697434777307" lon="12.432709315260691"><ele>648.0</ele><time>2026-04-19T13:03:16.558Z</time></trkpt><trkpt lat="46.28694807422782" lon="12.432963974279366"><ele>648.0</ele><time>2026-04-19T13:03:17.558Z</time></trkpt><trkpt lat="46.28692134019218" lon="12.433209982397594"><ele>648.0</ele><time>2026-04-19T13:03:18.558Z</time></trkpt><trkpt lat="46.28690189137389" lon="12.433469399375515"><ele>647.6666666666666</ele><time>2026-04-19T13:03:19.558Z</time></trkpt><trkpt lat="46.28687625681894" lon="12.433704103699046"><ele>647.3333333333333</ele><time>2026-04-19T13:03:20.558Z</time></trkpt><trkpt lat="46.28685892128397" lon="12.433939609303474"><ele>647.0</ele><time>2026-04-19T13:03:21.558Z</time></trkpt><trkpt lat="46.28684857491953" lon="12.434153097728814"><ele>647.0</ele><time>2026-04-19T13:03:22.558Z</time></trkpt><trkpt lat="46.28683019138747" lon="12.434358300073859"><ele>647.0</ele><time>2026-04-19T13:03:23.558Z</time></trkpt><trkpt lat="46.28681253845066" lon="12.43454989668613"><ele>647.0</ele><time>2026-04-19T13:03:24.558Z</time></trkpt><trkpt lat="46.28679764832481" lon="12.43474388527691"><ele>647.0</ele><time>2026-04-19T13:03:25.558Z</time></trkpt><trkpt lat="46.28678573482355" lon="12.434926014946221"><ele>646.75</ele><time>2026-04-19T13:03:26.558Z</time></trkpt><trkpt lat="46.28676859608916" lon="12.435114997484883"><ele>646.5</ele><time>2026-04-19T13:03:27.558Z</time></trkpt><trkpt lat="46.28674530639029" lon="12.435292385298485"><ele>646.25</ele><time>2026-04-19T13:03:28.558Z</time></trkpt><trkpt lat="46.2867276678915" lon="12.435467195607998"><ele>646.0</ele><time>2026-04-19T13:03:29.558Z</time></trkpt><trkpt lat="46.28671232036016" lon="12.435632241653362"><ele>646.0</ele><time>2026-04-19T13:03:30.558Z</time></trkpt><trkpt lat="46.28670031238716" lon="12.435803022879407"><ele>646.0</ele><time>2026-04-19T13:03:31.558Z</time></trkpt><trkpt lat="46.286686874087785" lon="12.435998395239345"><ele>646.0</ele><time>2026-04-19T13:03:32.558Z</time></trkpt><trkpt lat="46.28667352051684" lon="12.436178834056772"><ele>646.0</ele><time>2026-04-19T13:03:33.558Z</time></trkpt><trkpt lat="46.28667276239647" lon="12.436378691146835"><ele>646.0</ele><time>2026-04-19T13:03:34.558Z</time></trkpt><trkpt lat="46.28666698908281" lon="12.43656342071095"><ele>646.0</ele><time>2026-04-19T13:03:35.558Z</time></trkpt><trkpt lat="46.28666904092217" lon="12.436744340954782"><ele>646.0</ele><time>2026-04-19T13:03:36.558Z</time></trkpt><trkpt lat="46.286662490573214" lon="12.436908642750506"><ele>646.0</ele><time>2026-04-19T13:03:37.558Z</time></trkpt><trkpt lat="46.28666262897273" lon="12.43705694807408"><ele>646.1666666666667</ele><time>2026-04-19T13:03:38.558Z</time></trkpt><trkpt lat="46.28666285841024" lon="12.437196121492393"><ele>646.3333333333334</ele><time>2026-04-19T13:03:39.558Z</time></trkpt><trkpt lat="46.286660930991474" lon="12.437328477129586"><ele>646.5</ele><time>2026-04-19T13:03:40.558Z</time></trkpt><trkpt lat="46.286656350412414" lon="12.43742357149057"><ele>646.6666666666666</ele><time>2026-04-19T13:03:41.558Z</time></trkpt><trkpt lat="46.28665808115132" lon="12.437542551385729"><ele>646.8333333333333</ele><time>2026-04-19T13:03:43.558Z</time></trkpt><trkpt lat="46.28665843133973" lon="12.437637686337185"><ele>647.0</ele><time>2026-04-19T13:03:46.558Z</time></trkpt><trkpt lat="46.28675958363896" lon="12.437753964853734"><ele>647.0</ele><time>2026-04-19T13:03:48.558Z</time></trkpt><trkpt lat="46.28682568760675" lon="12.437812926135273"><ele>647.0</ele><time>2026-04-19T13:03:49.558Z</time></trkpt><trkpt lat="46.28695497363455" lon="12.437840084550118"><ele>647.0</ele><time>2026-04-19T13:03:51.558Z</time></trkpt><trkpt lat="46.28702684185766" lon="12.437882506555013"><ele>647.0</ele><time>2026-04-19T13:03:52.558Z</time></trkpt><trkpt lat="46.287109452888004" lon="12.43793554984392"><ele>647.0</ele><time>2026-04-19T13:03:53.558Z</time></trkpt><trkpt lat="46.28719121487684" lon="12.437990059831094"><ele>647.6666666666666</ele><time>2026-04-19T13:03:54.558Z</time></trkpt><trkpt lat="46.287270397338865" lon="12.438036874426569"><ele>648.3333333333333</ele><time>2026-04-19T13:03:55.558Z</time></trkpt><trkpt lat="46.28734649085168" lon="12.438062078329533"><ele>649.0</ele><time>2026-04-19T13:03:56.558Z</time></trkpt><trkpt lat="46.28742490443209" lon="12.43806621450596"><ele>649.6666666666666</ele><time>2026-04-19T13:03:57.558Z</time></trkpt><trkpt lat="46.28750495334081" lon="12.438059213710472"><ele>650.3333333333334</ele><time>2026-04-19T13:03:58.558Z</time></trkpt><trkpt lat="46.28756961064848" lon="12.438040510255341"><ele>651.0</ele><time>2026-04-19T13:03:59.558Z</time></trkpt><trkpt lat="46.28763483514417" lon="12.438022480094235"><ele>651.0</ele><time>2026-04-19T13:04:00.558Z</time></trkpt><trkpt lat="46.28774467704201" lon="12.438004506346086"><ele>651.0</ele><time>2026-04-19T13:04:02.558Z</time></trkpt><trkpt lat="46.28786875063268" lon="12.43800350715628"><ele>651.0</ele><time>2026-04-19T13:04:04.558Z</time></trkpt><trkpt lat="46.28795388997832" lon="12.437992405500822"><ele>651.0</ele><time>2026-04-19T13:04:06.558Z</time></trkpt><trkpt lat="46.28806697629352" lon="12.437956527958233"><ele>651.0</ele><time>2026-04-19T13:04:08.558Z</time></trkpt><trkpt lat="46.28817079467744" lon="12.437919903333798"><ele>651.1999999999999</ele><time>2026-04-19T13:04:10.558Z</time></trkpt><trkpt lat="46.288263983453135" lon="12.43783977868524"><ele>651.4</ele><time>2026-04-19T13:04:12.558Z</time></trkpt><trkpt lat="46.288366908054705" lon="12.43776982072283"><ele>651.6</ele><time>2026-04-19T13:04:14.558Z</time></trkpt><trkpt lat="46.288466104241344" lon="12.437703890200805"><ele>651.8</ele><time>2026-04-19T13:04:16.558Z</time></trkpt><trkpt lat="46.28854339196021" lon="12.43771711606404"><ele>652.0</ele><time>2026-04-19T13:04:17.558Z</time></trkpt><trkpt lat="46.28866907559313" lon="12.437712588564215"><ele>652.0</ele><time>2026-04-19T13:04:19.558Z</time></trkpt><trkpt lat="46.28874700277732" lon="12.437703296406541"><ele>652.0</ele><time>2026-04-19T13:04:20.558Z</time></trkpt><trkpt lat="46.28887096121356" lon="12.437704937050407"><ele>652.0</ele><time>2026-04-19T13:04:22.558Z</time></trkpt><trkpt lat="46.28894455789464" lon="12.437704086449639"><ele>652.0</ele><time>2026-04-19T13:04:23.558Z</time></trkpt><trkpt lat="46.28904443269679" lon="12.437729838774967"><ele>652.0</ele><time>2026-04-19T13:04:25.558Z</time></trkpt><trkpt lat="46.28914190380805" lon="12.437749304363034"><ele>652.6</ele><time>2026-04-19T13:04:27.558Z</time></trkpt><trkpt lat="46.28926471191654" lon="12.437814680060843"><ele>653.2</ele><time>2026-04-19T13:04:29.558Z</time></trkpt><trkpt lat="46.28936036049944" lon="12.43789658248228"><ele>653.8</ele><time>2026-04-19T13:04:31.558Z</time></trkpt><trkpt lat="46.289420836295164" lon="12.437975092443624"><ele>654.4</ele><time>2026-04-19T13:04:33.558Z</time></trkpt><trkpt lat="46.28944726838895" lon="12.438097144064836"><ele>655.0</ele><time>2026-04-19T13:04:34.558Z</time></trkpt><trkpt lat="46.28952124889581" lon="12.43821727136892"><ele>655.0</ele><time>2026-04-19T13:04:36.558Z</time></trkpt><trkpt lat="46.289559116483495" lon="12.438386002609157"><ele>655.0</ele><time>2026-04-19T13:04:38.558Z</time></trkpt><trkpt lat="46.289590831191084" lon="12.438465120806464"><ele>655.0</ele><time>2026-04-19T13:04:39.558Z</time></trkpt><trkpt lat="46.289673773927845" lon="12.438576507003793"><ele>655.0</ele><time>2026-04-19T13:04:41.558Z</time></trkpt><trkpt lat="46.28973653689136" lon="12.438643891107166"><ele>655.0</ele><time>2026-04-19T13:04:42.558Z</time></trkpt><trkpt lat="46.289808773319145" lon="12.438703274593793"><ele>655.3333333333334</ele><time>2026-04-19T13:04:43.558Z</time></trkpt><trkpt lat="46.28987683799445" lon="12.4387593644588"><ele>655.6666666666667</ele><time>2026-04-19T13:04:44.558Z</time></trkpt><trkpt lat="46.289939395757756" lon="12.438808605700691"><ele>656.0</ele><time>2026-04-19T13:04:45.558Z</time></trkpt><trkpt lat="46.290006610131634" lon="12.438848099835518"><ele>656.3333333333334</ele><time>2026-04-19T13:04:46.558Z</time></trkpt><trkpt lat="46.29005125297274" lon="12.438938114092387"><ele>656.6666666666666</ele><time>2026-04-19T13:04:47.558Z</time></trkpt><trkpt lat="46.290103719869435" lon="12.439018228260185"><ele>657.0</ele><time>2026-04-19T13:04:48.558Z</time></trkpt><trkpt lat="46.29017227420978" lon="12.439121466061524"><ele>657.0</ele><time>2026-04-19T13:04:49.558Z</time></trkpt><trkpt lat="46.29024708242307" lon="12.43921252602934"><ele>657.0</ele><time>2026-04-19T13:04:50.558Z</time></trkpt><trkpt lat="46.29029021950531" lon="12.439302002405757"><ele>657.0</ele><time>2026-04-19T13:04:51.558Z</time></trkpt><trkpt lat="46.290357225806844" lon="12.439377230448034"><ele>657.0</ele><time>2026-04-19T13:04:52.558Z</time></trkpt><trkpt lat="46.29041788147408" lon="12.439472949176695"><ele>657.0</ele><time>2026-04-19T13:04:53.558Z</time></trkpt><trkpt lat="46.290481999600665" lon="12.439591080784075"><ele>657.5</ele><time>2026-04-19T13:04:54.56Z</time></trkpt><trkpt lat="46.2905247346858" lon="12.439708577699786"><ele>658.0</ele><time>2026-04-19T13:04:55.56Z</time></trkpt><trkpt lat="46.29058943031631" lon="12.439791336149327"><ele>658.5</ele><time>2026-04-19T13:04:56.56Z</time></trkpt><trkpt lat="46.29064980949472" lon="12.43987429885892"><ele>659.0</ele><time>2026-04-19T13:04:57.56Z</time></trkpt><trkpt lat="46.29071925708001" lon="12.439931656811591"><ele>659.5</ele><time>2026-04-19T13:04:58.56Z</time></trkpt><trkpt lat="46.29080480270165" lon="12.439977280875693"><ele>660.0</ele><time>2026-04-19T13:04:59.56Z</time></trkpt><trkpt lat="46.2908954747431" lon="12.440012191898498"><ele>660.0</ele><time>2026-04-19T13:05:00.56Z</time></trkpt><trkpt lat="46.29099272494606" lon="12.440063388799823"><ele>660.0</ele><time>2026-04-19T13:05:01.56Z</time></trkpt><trkpt lat="46.29109758359441" lon="12.440137917989373"><ele>660.0</ele><time>2026-04-19T13:05:02.56Z</time></trkpt><trkpt lat="46.29118874872873" lon="12.44021037394231"><ele>660.0</ele><time>2026-04-19T13:05:03.56Z</time></trkpt><trkpt lat="46.29125144604114" lon="12.440268033193997"><ele>660.0</ele><time>2026-04-19T13:05:04.56Z</time></trkpt><trkpt lat="46.29132062715249" lon="12.44032145862046"><ele>660.0</ele><time>2026-04-19T13:05:05.56Z</time></trkpt><trkpt lat="46.29138839678706" lon="12.440375216509365"><ele>660.0</ele><time>2026-04-19T13:05:06.56Z</time></trkpt><trkpt lat="46.29144999573144" lon="12.440422805332718"><ele>660.0</ele><time>2026-04-19T13:05:07.56Z</time></trkpt><trkpt lat="46.29152160746866" lon="12.440473935922716"><ele>660.0</ele><time>2026-04-19T13:05:08.56Z</time></trkpt><trkpt lat="46.29160536312499" lon="12.440507364575282"><ele>660.0</ele><time>2026-04-19T13:05:09.56Z</time></trkpt><trkpt lat="46.29169227060235" lon="12.440524217144496"><ele>660.0</ele><time>2026-04-19T13:05:10.56Z</time></trkpt><trkpt lat="46.29180369992235" lon="12.440528154887305"><ele>660.0</ele><time>2026-04-19T13:05:11.56Z</time></trkpt><trkpt lat="46.291884062636576" lon="12.44052188260664"><ele>660.0</ele><time>2026-04-19T13:05:12.56Z</time></trkpt><trkpt lat="46.29197196177366" lon="12.440494463829314"><ele>660.0</ele><time>2026-04-19T13:05:13.56Z</time></trkpt><trkpt lat="46.29205275189902" lon="12.440484460519233"><ele>660.0</ele><time>2026-04-19T13:05:14.56Z</time></trkpt><trkpt lat="46.29212074267328" lon="12.440478828769994"><ele>660.0</ele><time>2026-04-19T13:05:15.56Z</time></trkpt><trkpt lat="46.2921846407277" lon="12.44047510729873"><ele>660.0</ele><time>2026-04-19T13:05:16.56Z</time></trkpt><trkpt lat="46.292278441198924" lon="12.440461296867722"><ele>661.5</ele><time>2026-04-19T13:05:18.56Z</time></trkpt><trkpt lat="46.292361451626796" lon="12.440464946052728"><ele>663.0</ele><time>2026-04-19T13:05:20.56Z</time></trkpt><trkpt lat="46.29245667460666" lon="12.440436219651799"><ele>664.5</ele><time>2026-04-19T13:05:22.56Z</time></trkpt><trkpt lat="46.29246985041738" lon="12.44030422963073"><ele>666.0</ele><time>2026-04-19T13:05:24.56Z</time></trkpt><trkpt lat="46.292443429037135" lon="12.440219986497166"><ele>667.5</ele><time>2026-04-19T13:05:25.56Z</time></trkpt><trkpt lat="46.292406262103775" lon="12.440120289673407"><ele>669.0</ele><time>2026-04-19T13:05:26.56Z</time></trkpt><trkpt lat="46.29235603231635" lon="12.440004313145714"><ele>669.0</ele><time>2026-04-19T13:05:27.56Z</time></trkpt><trkpt lat="46.292311398961004" lon="12.4398627690878"><ele>669.0</ele><time>2026-04-19T13:05:28.56Z</time></trkpt><trkpt lat="46.292262878998415" lon="12.439688497380464"><ele>669.0</ele><time>2026-04-19T13:05:29.56Z</time></trkpt><trkpt lat="46.29221385390048" lon="12.439529686705484"><ele>669.0</ele><time>2026-04-19T13:05:30.56Z</time></trkpt><trkpt lat="46.292163971792526" lon="12.439355558387446"><ele>667.75</ele><time>2026-04-19T13:05:31.56Z</time></trkpt><trkpt lat="46.29211762361333" lon="12.439188470933695"><ele>666.5</ele><time>2026-04-19T13:05:32.56Z</time></trkpt><trkpt lat="46.29204634015606" lon="12.439027245002768"><ele>665.25</ele><time>2026-04-19T13:05:33.56Z</time></trkpt><trkpt lat="46.29197302681477" lon="12.438888654864067"><ele>664.0</ele><time>2026-04-19T13:05:34.56Z</time></trkpt><trkpt lat="46.29189969755091" lon="12.438767114973825"><ele>664.0</ele><time>2026-04-19T13:05:35.56Z</time></trkpt><trkpt lat="46.29182201964092" lon="12.43864406757723"><ele>664.0</ele><time>2026-04-19T13:05:36.56Z</time></trkpt><trkpt lat="46.29172583760523" lon="12.43851745111214"><ele>664.0</ele><time>2026-04-19T13:05:37.56Z</time></trkpt><trkpt lat="46.29163379316037" lon="12.4383775431956"><ele>664.0</ele><time>2026-04-19T13:05:38.56Z</time></trkpt><trkpt lat="46.29153781904906" lon="12.438232552661272"><ele>664.0</ele><time>2026-04-19T13:05:39.56Z</time></trkpt><trkpt lat="46.29144649309113" lon="12.438092591607672"><ele>664.0</ele><time>2026-04-19T13:05:40.56Z</time></trkpt><trkpt lat="46.2913465372119" lon="12.43795412109297"><ele>664.0</ele><time>2026-04-19T13:05:41.56Z</time></trkpt><trkpt lat="46.2912513170908" lon="12.437840712127864"><ele>664.0</ele><time>2026-04-19T13:05:42.56Z</time></trkpt><trkpt lat="46.2911474809669" lon="12.43774464093246"><ele>664.5</ele><time>2026-04-19T13:05:43.56Z</time></trkpt><trkpt lat="46.29102314012473" lon="12.437646500002886"><ele>665.0</ele><time>2026-04-19T13:05:44.56Z</time></trkpt><trkpt lat="46.29089603151845" lon="12.437523593048903"><ele>665.5</ele><time>2026-04-19T13:05:45.56Z</time></trkpt><trkpt lat="46.290754638580125" lon="12.437436841461516"><ele>666.0</ele><time>2026-04-19T13:05:46.56Z</time></trkpt><trkpt lat="46.290606868466604" lon="12.43733196270167"><ele>666.6666666666666</ele><time>2026-04-19T13:05:47.56Z</time></trkpt><trkpt lat="46.29045870215076" lon="12.437229928771169"><ele>667.3333333333333</ele><time>2026-04-19T13:05:48.56Z</time></trkpt><trkpt lat="46.29031972873543" lon="12.437102736915447"><ele>668.0</ele><time>2026-04-19T13:05:49.56Z</time></trkpt><trkpt lat="46.29018747990652" lon="12.437005853171625"><ele>668.0</ele><time>2026-04-19T13:05:50.56Z</time></trkpt><trkpt lat="46.29006550380733" lon="12.436917583711965"><ele>668.0</ele><time>2026-04-19T13:05:51.56Z</time></trkpt><trkpt lat="46.28994927071166" lon="12.436832192510806"><ele>668.0</ele><time>2026-04-19T13:05:52.56Z</time></trkpt><trkpt lat="46.28982040464034" lon="12.436738366919256"><ele>668.0</ele><time>2026-04-19T13:05:53.56Z</time></trkpt><trkpt lat="46.289686546355924" lon="12.43668361366442"><ele>665.25</ele><time>2026-04-19T13:05:54.56Z</time></trkpt><trkpt lat="46.28957266859177" lon="12.43660578018383"><ele>662.5</ele><time>2026-04-19T13:05:55.56Z</time></trkpt><trkpt lat="46.289453715652606" lon="12.43654804780456"><ele>659.75</ele><time>2026-04-19T13:05:56.56Z</time></trkpt><trkpt lat="46.28934398669333" lon="12.436501912709922"><ele>657.0</ele><time>2026-04-19T13:05:57.56Z</time></trkpt><trkpt lat="46.2892352120244" lon="12.43646576637387"><ele>657.0</ele><time>2026-04-19T13:05:58.56Z</time></trkpt><trkpt lat="46.28913721233788" lon="12.436405352704892"><ele>657.0</ele><time>2026-04-19T13:05:59.56Z</time></trkpt><trkpt lat="46.28903971578596" lon="12.436344072696885"><ele>657.0</ele><time>2026-04-19T13:06:00.56Z</time></trkpt><trkpt lat="46.28896210966817" lon="12.436260097324075"><ele>657.0</ele><time>2026-04-19T13:06:01.56Z</time></trkpt><trkpt lat="46.28886594247385" lon="12.436191750739125"><ele>657.0</ele><time>2026-04-19T13:06:02.56Z</time></trkpt><trkpt lat="46.288783021022006" lon="12.436098399312407"><ele>656.3333333333334</ele><time>2026-04-19T13:06:03.56Z</time></trkpt><trkpt lat="46.2887102559236" lon="12.436050381874603"><ele>655.6666666666666</ele><time>2026-04-19T13:06:04.56Z</time></trkpt><trkpt lat="46.2886481679617" lon="12.436024687773077"><ele>655.0</ele><time>2026-04-19T13:06:05.56Z</time></trkpt><trkpt lat="46.288548439944705" lon="12.43599724544459"><ele>654.3333333333333</ele><time>2026-04-19T13:06:06.56Z</time></trkpt><trkpt lat="46.28845411040235" lon="12.43590081033314"><ele>653.6666666666666</ele><time>2026-04-19T13:06:07.56Z</time></trkpt><trkpt lat="46.28837756904035" lon="12.43584380728943"><ele>653.0</ele><time>2026-04-19T13:06:08.56Z</time></trkpt><trkpt lat="46.288295411540524" lon="12.435795614405617"><ele>653.0</ele><time>2026-04-19T13:06:09.56Z</time></trkpt><trkpt lat="46.288216514920855" lon="12.435737481911765"><ele>653.0</ele><time>2026-04-19T13:06:10.56Z</time></trkpt><trkpt lat="46.28813536993593" lon="12.435639641377415"><ele>653.0</ele><time>2026-04-19T13:06:11.56Z</time></trkpt><trkpt lat="46.28803364364544" lon="12.43557150705876"><ele>653.0</ele><time>2026-04-19T13:06:12.56Z</time></trkpt><trkpt lat="46.28794940018071" lon="12.43548868585255"><ele>653.0</ele><time>2026-04-19T13:06:13.56Z</time></trkpt><trkpt lat="46.28786952132967" lon="12.435412120435078"><ele>652.1666666666666</ele><time>2026-04-19T13:06:14.56Z</time></trkpt><trkpt lat="46.2877977633341" lon="12.435333781390842"><ele>651.3333333333333</ele><time>2026-04-19T13:06:15.56Z</time></trkpt><trkpt lat="46.28772104008567" lon="12.435263479936951"><ele>650.5</ele><time>2026-04-19T13:06:16.56Z</time></trkpt><trkpt lat="46.28765560856431" lon="12.435198013699145"><ele>649.6666666666666</ele><time>2026-04-19T13:06:17.56Z</time></trkpt><trkpt lat="46.28758229727983" lon="12.435142413706048"><ele>648.8333333333334</ele><time>2026-04-19T13:06:19.56Z</time></trkpt><trkpt lat="46.287510478781115" lon="12.435077018519705"><ele>648.0</ele><time>2026-04-19T13:06:21.56Z</time></trkpt><trkpt lat="46.287429092763276" lon="12.435013132816746"><ele>648.0</ele><time>2026-04-19T13:06:23.56Z</time></trkpt><trkpt lat="46.287365378526886" lon="12.435008810707295"><ele>648.0</ele><time>2026-04-19T13:06:24.56Z</time></trkpt><trkpt lat="46.287320072915215" lon="12.434930794184062"><ele>648.0</ele><time>2026-04-19T13:06:25.56Z</time></trkpt><trkpt lat="46.287218786614254" lon="12.434816772378133"><ele>648.0</ele><time>2026-04-19T13:06:27.56Z</time></trkpt><trkpt lat="46.28716183811631" lon="12.434772347802772"><ele>648.0</ele><time>2026-04-19T13:06:28.56Z</time></trkpt><trkpt lat="46.287046356809945" lon="12.434714076187124"><ele>647.75</ele><time>2026-04-19T13:06:30.56Z</time></trkpt><trkpt lat="46.28696549615087" lon="12.43463631066427"><ele>647.5</ele><time>2026-04-19T13:06:32.56Z</time></trkpt><trkpt lat="46.28687905755412" lon="12.434609262766816"><ele>647.25</ele><time>2026-04-19T13:06:34.56Z</time></trkpt><trkpt lat="46.28686978471081" lon="12.434300161851123"><ele>647.0</ele><time>2026-04-19T13:06:36.56Z</time></trkpt><trkpt lat="46.286893038405154" lon="12.43416853782238"><ele>647.0</ele><time>2026-04-19T13:06:37.56Z</time></trkpt><trkpt lat="46.28690756160975" lon="12.434003336468919"><ele>647.0</ele><time>2026-04-19T13:06:38.56Z</time></trkpt><trkpt lat="46.28692163166507" lon="12.433843289536174"><ele>647.0</ele><time>2026-04-19T13:06:39.56Z</time></trkpt><trkpt lat="46.286925434109214" lon="12.433698890324878"><ele>647.0</ele><time>2026-04-19T13:06:40.56Z</time></trkpt><trkpt lat="46.28694109935776" lon="12.433582330290301"><ele>647.0</ele><time>2026-04-19T13:06:41.56Z</time></trkpt><trkpt lat="46.28695635122156" lon="12.433443527928485"><ele>646.8</ele><time>2026-04-19T13:06:42.56Z</time></trkpt><trkpt lat="46.28696713537362" lon="12.43330290147535"><ele>646.6</ele><time>2026-04-19T13:06:43.56Z</time></trkpt><trkpt lat="46.28697580658642" lon="12.433163140852457"><ele>646.4</ele><time>2026-04-19T13:06:44.56Z</time></trkpt><trkpt lat="46.28698768161619" lon="12.433014026562244"><ele>646.1999999999999</ele><time>2026-04-19T13:06:45.56Z</time></trkpt><trkpt lat="46.287003207362744" lon="12.432860672444804"><ele>646.0</ele><time>2026-04-19T13:06:46.56Z</time></trkpt><trkpt lat="46.28701703714604" lon="12.43270202309535"><ele>646.5</ele><time>2026-04-19T13:06:47.56Z</time></trkpt><trkpt lat="46.28703649958977" lon="12.432529122930347"><ele>647.0</ele><time>2026-04-19T13:06:48.56Z</time></trkpt><trkpt lat="46.28705406487177" lon="12.432361116695043"><ele>647.5</ele><time>2026-04-19T13:06:49.56Z</time></trkpt><trkpt lat="46.287071076043205" lon="12.432185883207676"><ele>648.0</ele><time>2026-04-19T13:06:50.56Z</time></trkpt><trkpt lat="46.28708637276854" lon="12.432009435790947"><ele>649.75</ele><time>2026-04-19T13:06:51.56Z</time></trkpt><trkpt lat="46.287106725902646" lon="12.431823812706797"><ele>651.5</ele><time>2026-04-19T13:06:52.56Z</time></trkpt><trkpt lat="46.28714487411104" lon="12.431643979007902"><ele>653.25</ele><time>2026-04-19T13:06:53.56Z</time></trkpt><trkpt lat="46.28718299945138" lon="12.431459992060182"><ele>655.0</ele><time>2026-04-19T13:06:54.56Z</time></trkpt><trkpt lat="46.28722324890732" lon="12.43127429892316"><ele>657.75</ele><time>2026-04-19T13:06:55.56Z</time></trkpt><trkpt lat="46.287280616334094" lon="12.431097353981578"><ele>660.5</ele><time>2026-04-19T13:06:56.56Z</time></trkpt><trkpt lat="46.287349590904704" lon="12.430920510028082"><ele>663.25</ele><time>2026-04-19T13:06:57.56Z</time></trkpt><trkpt lat="46.287453300575535" lon="12.430739901575222"><ele>666.0</ele><time>2026-04-19T13:06:58.56Z</time></trkpt><trkpt lat="46.287593308443135" lon="12.430562068234035"><ele>668.3333333333334</ele><time>2026-04-19T13:06:59.56Z</time></trkpt><trkpt lat="46.28771277049159" lon="12.430389375047701"><ele>670.6666666666667</ele><time>2026-04-19T13:07:00.561Z</time></trkpt><trkpt lat="46.28780282660962" lon="12.430235080945332"><ele>673.0</ele><time>2026-04-19T13:07:01.561Z</time></trkpt><trkpt lat="46.28785802667209" lon="12.430042326770907"><ele>673.0</ele><time>2026-04-19T13:07:02.561Z</time></trkpt><trkpt lat="46.287910574011704" lon="12.429845612663062"><ele>673.0</ele><time>2026-04-19T13:07:03.561Z</time></trkpt><trkpt lat="46.28793979433555" lon="12.429603486419358"><ele>673.0</ele><time>2026-04-19T13:07:04.561Z</time></trkpt><trkpt lat="46.28794371091078" lon="12.429365080265164"><ele>677.0</ele><time>2026-04-19T13:07:05.561Z</time></trkpt><trkpt lat="46.28794019357423" lon="12.429159461685636"><ele>681.0</ele><time>2026-04-19T13:07:06.561Z</time></trkpt><trkpt lat="46.287911513030984" lon="12.428962632488153"><ele>685.0</ele><time>2026-04-19T13:07:07.561Z</time></trkpt><trkpt lat="46.28787482598652" lon="12.42877784342757"><ele>689.0</ele><time>2026-04-19T13:07:08.561Z</time></trkpt><trkpt lat="46.28783422221945" lon="12.428622049273281"><ele>691.1666666666666</ele><time>2026-04-19T13:07:09.561Z</time></trkpt><trkpt lat="46.28779678463451" lon="12.42849057599595"><ele>693.3333333333333</ele><time>2026-04-19T13:07:10.561Z</time></trkpt><trkpt lat="46.287769911694646" lon="12.428375561461957"><ele>695.5</ele><time>2026-04-19T13:07:11.561Z</time></trkpt><trkpt lat="46.28773879757189" lon="12.428284496290894"><ele>697.6666666666666</ele><time>2026-04-19T13:07:12.561Z</time></trkpt><trkpt lat="46.287709737516465" lon="12.42819735194921"><ele>699.8333333333334</ele><time>2026-04-19T13:07:13.561Z</time></trkpt><trkpt lat="46.28766547011721" lon="12.428080243371621"><ele>702.0</ele><time>2026-04-19T13:07:14.561Z</time></trkpt><trkpt lat="46.28761212205302" lon="12.42797941080905"><ele>702.0</ele><time>2026-04-19T13:07:15.561Z</time></trkpt><trkpt lat="46.287534299287756" lon="12.427947466228726"><ele>702.0</ele><time>2026-04-19T13:07:16.561Z</time></trkpt><trkpt lat="46.28745484162548" lon="12.427984176214151"><ele>702.0</ele><time>2026-04-19T13:07:17.561Z</time></trkpt><trkpt lat="46.28738854224903" lon="12.428073469661708"><ele>702.0</ele><time>2026-04-19T13:07:18.561Z</time></trkpt><trkpt lat="46.28733133915746" lon="12.428200366455412"><ele>702.0</ele><time>2026-04-19T13:07:19.561Z</time></trkpt><trkpt lat="46.28730106252107" lon="12.428342004777296"><ele>707.6</ele><time>2026-04-19T13:07:20.561Z</time></trkpt><trkpt lat="46.28725843266045" lon="12.428479377417835"><ele>713.2</ele><time>2026-04-19T13:07:21.561Z</time></trkpt><trkpt lat="46.28724045076455" lon="12.42863632893404"><ele>718.8</ele><time>2026-04-19T13:07:22.561Z</time></trkpt><trkpt lat="46.28720954506604" lon="12.42876401981679"><ele>724.4</ele><time>2026-04-19T13:07:23.561Z</time></trkpt><trkpt lat="46.28718524029512" lon="12.428865421474367"><ele>730.0</ele><time>2026-04-19T13:07:24.561Z</time></trkpt><trkpt lat="46.28716325018168" lon="12.42897434594169"><ele>730.0</ele><time>2026-04-19T13:07:25.561Z</time></trkpt><trkpt lat="46.28713062025725" lon="12.429056253112964"><ele>730.0</ele><time>2026-04-19T13:07:26.561Z</time></trkpt><trkpt lat="46.28702251012089" lon="12.42907082205118"><ele>730.0</ele><time>2026-04-19T13:07:28.561Z</time></trkpt><trkpt lat="46.28697824062339" lon="12.429001396508937"><ele>730.0</ele><time>2026-04-19T13:07:29.561Z</time></trkpt><trkpt lat="46.28695873624411" lon="12.42889134804915"><ele>730.0</ele><time>2026-04-19T13:07:30.561Z</time></trkpt><trkpt lat="46.28699756382145" lon="12.428793719311725"><ele>730.0</ele><time>2026-04-19T13:07:31.561Z</time></trkpt><trkpt lat="46.287065633817555" lon="12.428706322592898"><ele>733.0</ele><time>2026-04-19T13:07:32.561Z</time></trkpt><trkpt lat="46.28711703653761" lon="12.42853996984312"><ele>736.0</ele><time>2026-04-19T13:07:33.561Z</time></trkpt><trkpt lat="46.28718147751567" lon="12.42836502138636"><ele>739.0</ele><time>2026-04-19T13:07:34.561Z</time></trkpt><trkpt lat="46.28721455925472" lon="12.428214614430772"><ele>742.0</ele><time>2026-04-19T13:07:35.561Z</time></trkpt><trkpt lat="46.287237477943634" lon="12.428066852512831"><ele>742.25</ele><time>2026-04-19T13:07:36.561Z</time></trkpt><trkpt lat="46.28724668153718" lon="12.427906427979629"><ele>742.5</ele><time>2026-04-19T13:07:37.561Z</time></trkpt><trkpt lat="46.28725291610578" lon="12.427748620049492"><ele>742.75</ele><time>2026-04-19T13:07:38.561Z</time></trkpt><trkpt lat="46.28725224687164" lon="12.427587569183254"><ele>743.0</ele><time>2026-04-19T13:07:39.561Z</time></trkpt><trkpt lat="46.28722564342498" lon="12.427419884600045"><ele>743.0</ele><time>2026-04-19T13:07:40.561Z</time></trkpt><trkpt lat="46.2872038410686" lon="12.427250486840263"><ele>743.0</ele><time>2026-04-19T13:07:41.561Z</time></trkpt><trkpt lat="46.287170570674924" lon="12.427057915505975"><ele>743.0</ele><time>2026-04-19T13:07:42.561Z</time></trkpt><trkpt lat="46.287109276197356" lon="12.426851194166126"><ele>743.0</ele><time>2026-04-19T13:07:43.561Z</time></trkpt><trkpt lat="46.28703502606775" lon="12.426673267823695"><ele>742.5</ele><time>2026-04-19T13:07:44.561Z</time></trkpt><trkpt lat="46.28696927167489" lon="12.426530858295584"><ele>742.0</ele><time>2026-04-19T13:07:45.561Z</time></trkpt><trkpt lat="46.28692265539668" lon="12.426390951605356"><ele>741.5</ele><time>2026-04-19T13:07:46.561Z</time></trkpt><trkpt lat="46.28690069147507" lon="12.42623257640143"><ele>741.0</ele><time>2026-04-19T13:07:47.561Z</time></trkpt><trkpt lat="46.28688999161596" lon="12.426068074207867"><ele>741.0</ele><time>2026-04-19T13:07:48.561Z</time></trkpt><trkpt lat="46.28688541968472" lon="12.425897706720939"><ele>741.0</ele><time>2026-04-19T13:07:49.561Z</time></trkpt><trkpt lat="46.28693647403467" lon="12.425700770417947"><ele>741.0</ele><time>2026-04-19T13:07:50.561Z</time></trkpt><trkpt lat="46.28698530363118" lon="12.425521532693692"><ele>741.0</ele><time>2026-04-19T13:07:51.561Z</time></trkpt><trkpt lat="46.28702820034365" lon="12.42533049626767"><ele>742.5</ele><time>2026-04-19T13:07:52.561Z</time></trkpt><trkpt lat="46.28704717982561" lon="12.425137865685693"><ele>744.0</ele><time>2026-04-19T13:07:53.561Z</time></trkpt><trkpt lat="46.28704988931119" lon="12.424956901517927"><ele>745.5</ele><time>2026-04-19T13:07:54.561Z</time></trkpt><trkpt lat="46.28701644762752" lon="12.424781319777324"><ele>747.0</ele><time>2026-04-19T13:07:55.561Z</time></trkpt><trkpt lat="46.287000977451896" lon="12.424622796173772"><ele>747.6666666666666</ele><time>2026-04-19T13:07:56.561Z</time></trkpt><trkpt lat="46.28699094638987" lon="12.4244840479103"><ele>748.3333333333334</ele><time>2026-04-19T13:07:57.561Z</time></trkpt><trkpt lat="46.28698606453514" lon="12.424371394660495"><ele>749.0</ele><time>2026-04-19T13:07:58.561Z</time></trkpt><trkpt lat="46.286995805975145" lon="12.424272300169184"><ele>749.6666666666667</ele><time>2026-04-19T13:07:59.561Z</time></trkpt><trkpt lat="46.28701545713519" lon="12.42418311426737"><ele>750.3333333333334</ele><time>2026-04-19T13:08:00.561Z</time></trkpt><trkpt lat="46.28706825389871" lon="12.424104304272454"><ele>751.0</ele><time>2026-04-19T13:08:01.561Z</time></trkpt><trkpt lat="46.28716692801706" lon="12.424084019306116"><ele>751.0</ele><time>2026-04-19T13:08:02.561Z</time></trkpt><trkpt lat="46.28724107077929" lon="12.424109651058494"><ele>751.0</ele><time>2026-04-19T13:08:03.561Z</time></trkpt><trkpt lat="46.28730927000557" lon="12.424189829376575"><ele>751.0</ele><time>2026-04-19T13:08:04.561Z</time></trkpt><trkpt lat="46.28735663395426" lon="12.424292580745862"><ele>751.0</ele><time>2026-04-19T13:08:05.561Z</time></trkpt><trkpt lat="46.28734236641287" lon="12.424419925667582"><ele>751.0</ele><time>2026-04-19T13:08:06.561Z</time></trkpt><trkpt lat="46.28736373484062" lon="12.424557188096927"><ele>751.0</ele><time>2026-04-19T13:08:07.561Z</time></trkpt><trkpt lat="46.287401859096214" lon="12.424701104415105"><ele>750.5</ele><time>2026-04-19T13:08:08.561Z</time></trkpt><trkpt lat="46.28743353105979" lon="12.424789477994272"><ele>750.0</ele><time>2026-04-19T13:08:09.561Z</time></trkpt><trkpt lat="46.287514636078534" lon="12.42480829326699"><ele>749.5</ele><time>2026-04-19T13:08:10.561Z</time></trkpt><trkpt lat="46.28758559568893" lon="12.424789095208126"><ele>749.0</ele><time>2026-04-19T13:08:11.561Z</time></trkpt><trkpt lat="46.28764371141207" lon="12.424722962325168"><ele>748.5</ele><time>2026-04-19T13:08:12.561Z</time></trkpt><trkpt lat="46.28767204373786" lon="12.424620633723556"><ele>748.0</ele><time>2026-04-19T13:08:13.561Z</time></trkpt><trkpt lat="46.28764717064898" lon="12.424488037476003"><ele>748.0</ele><time>2026-04-19T13:08:14.561Z</time></trkpt><trkpt lat="46.28761290282857" lon="12.424376355531459"><ele>748.0</ele><time>2026-04-19T13:08:15.561Z</time></trkpt><trkpt lat="46.28755793091926" lon="12.424246666152289"><ele>748.0</ele><time>2026-04-19T13:08:16.561Z</time></trkpt><trkpt lat="46.28747755537355" lon="12.424087494740958"><ele>748.0</ele><time>2026-04-19T13:08:17.561Z</time></trkpt><trkpt lat="46.28738524535713" lon="12.423911094780069"><ele>748.25</ele><time>2026-04-19T13:08:18.561Z</time></trkpt><trkpt lat="46.287299237146776" lon="12.423793826949025"><ele>748.5</ele><time>2026-04-19T13:08:19.561Z</time></trkpt><trkpt lat="46.28724735390633" lon="12.423657487573047"><ele>748.75</ele><time>2026-04-19T13:08:20.561Z</time></trkpt><trkpt lat="46.28719345384248" lon="12.42351975241306"><ele>749.0</ele><time>2026-04-19T13:08:21.561Z</time></trkpt><trkpt lat="46.287153416236656" lon="12.423362421205878"><ele>749.0</ele><time>2026-04-19T13:08:22.561Z</time></trkpt><trkpt lat="46.28711477076537" lon="12.42317910684466"><ele>749.0</ele><time>2026-04-19T13:08:23.561Z</time></trkpt><trkpt lat="46.28707001104831" lon="12.422989210462308"><ele>749.0</ele><time>2026-04-19T13:08:24.561Z</time></trkpt><trkpt lat="46.28701709680548" lon="12.422777270089444"><ele>749.0</ele><time>2026-04-19T13:08:25.561Z</time></trkpt><trkpt lat="46.28696214310763" lon="12.422533045042966"><ele>751.0</ele><time>2026-04-19T13:08:26.561Z</time></trkpt><trkpt lat="46.286943792408294" lon="12.422288102656642"><ele>753.0</ele><time>2026-04-19T13:08:27.561Z</time></trkpt><trkpt lat="46.28693979992697" lon="12.422079754768946"><ele>755.0</ele><time>2026-04-19T13:08:28.561Z</time></trkpt><trkpt lat="46.286927678913415" lon="12.421885613346863"><ele>757.0</ele><time>2026-04-19T13:08:29.561Z</time></trkpt><trkpt lat="46.286945802006656" lon="12.421681725132185"><ele>759.5</ele><time>2026-04-19T13:08:30.561Z</time></trkpt><trkpt lat="46.28695004936144" lon="12.421490535992204"><ele>762.0</ele><time>2026-04-19T13:08:31.561Z</time></trkpt><trkpt lat="46.286940291144674" lon="12.421304666944867"><ele>764.5</ele><time>2026-04-19T13:08:32.561Z</time></trkpt><trkpt lat="46.286928755108065" lon="12.42112332274607"><ele>767.0</ele><time>2026-04-19T13:08:33.561Z</time></trkpt><trkpt lat="46.2869093626596" lon="12.420935589950117"><ele>769.0</ele><time>2026-04-19T13:08:34.561Z</time></trkpt><trkpt lat="46.28686800141913" lon="12.420762930219613"><ele>771.0</ele><time>2026-04-19T13:08:35.561Z</time></trkpt><trkpt lat="46.28680312193417" lon="12.420605672989684"><ele>773.0</ele><time>2026-04-19T13:08:36.561Z</time></trkpt><trkpt lat="46.286731798238485" lon="12.420452478620103"><ele>775.0</ele><time>2026-04-19T13:08:37.561Z</time></trkpt><trkpt lat="46.28666187516029" lon="12.420290956890934"><ele>777.4</ele><time>2026-04-19T13:08:38.561Z</time></trkpt><trkpt lat="46.28661286814913" lon="12.420123506733876"><ele>779.8</ele><time>2026-04-19T13:08:39.561Z</time></trkpt><trkpt lat="46.28661619256894" lon="12.419951152204815"><ele>782.2</ele><time>2026-04-19T13:08:40.561Z</time></trkpt><trkpt lat="46.286581623673456" lon="12.419813994745338"><ele>784.6</ele><time>2026-04-19T13:08:41.561Z</time></trkpt><trkpt lat="46.28656289173457" lon="12.419676582010831"><ele>787.0</ele><time>2026-04-19T13:08:42.561Z</time></trkpt><trkpt lat="46.28651169966896" lon="12.41955898746161"><ele>787.25</ele><time>2026-04-19T13:08:43.561Z</time></trkpt><trkpt lat="46.286437009416495" lon="12.419442099827823"><ele>787.5</ele><time>2026-04-19T13:08:44.561Z</time></trkpt><trkpt lat="46.28634201758965" lon="12.419323319100085"><ele>787.75</ele><time>2026-04-19T13:08:45.561Z</time></trkpt><trkpt lat="46.28624989563533" lon="12.419215299307094"><ele>788.0</ele><time>2026-04-19T13:08:46.561Z</time></trkpt><trkpt lat="46.28620404748726" lon="12.419086647407514"><ele>788.0</ele><time>2026-04-19T13:08:47.561Z</time></trkpt><trkpt lat="46.2861787578979" lon="12.418960398837168"><ele>788.0</ele><time>2026-04-19T13:08:48.561Z</time></trkpt><trkpt lat="46.28615359021825" lon="12.418810419688482"><ele>788.0</ele><time>2026-04-19T13:08:49.561Z</time></trkpt><trkpt lat="46.28620133450922" lon="12.418646709995155"><ele>788.0</ele><time>2026-04-19T13:08:50.561Z</time></trkpt><trkpt lat="46.28624475761043" lon="12.41846239386218"><ele>789.75</ele><time>2026-04-19T13:08:51.561Z</time></trkpt><trkpt lat="46.28628272827511" lon="12.418254925046718"><ele>791.5</ele><time>2026-04-19T13:08:52.561Z</time></trkpt><trkpt lat="46.28633372594615" lon="12.418065469028889"><ele>793.25</ele><time>2026-04-19T13:08:53.561Z</time></trkpt><trkpt lat="46.28637479516608" lon="12.417872748419317"><ele>795.0</ele><time>2026-04-19T13:08:54.561Z</time></trkpt><trkpt lat="46.28641599261889" lon="12.417685122204734"><ele>796.5</ele><time>2026-04-19T13:08:55.561Z</time></trkpt><trkpt lat="46.286463070568686" lon="12.41750730671291"><ele>798.0</ele><time>2026-04-19T13:08:56.561Z</time></trkpt><trkpt lat="46.286495773729435" lon="12.417332229518124"><ele>799.5</ele><time>2026-04-19T13:08:57.561Z</time></trkpt><trkpt lat="46.28651794303093" lon="12.41715616833923"><ele>801.0</ele><time>2026-04-19T13:08:58.561Z</time></trkpt><trkpt lat="46.28651320159928" lon="12.416976214461737"><ele>801.75</ele><time>2026-04-19T13:08:59.561Z</time></trkpt><trkpt lat="46.28648412905217" lon="12.416812053217713"><ele>802.5</ele><time>2026-04-19T13:09:00.561Z</time></trkpt><trkpt lat="46.28645875202264" lon="12.416661182227012"><ele>803.25</ele><time>2026-04-19T13:09:01.561Z</time></trkpt><trkpt lat="46.28647346586397" lon="12.41649614111421"><ele>804.0</ele><time>2026-04-19T13:09:02.561Z</time></trkpt><trkpt lat="46.286497838231654" lon="12.416330996404886"><ele>803.6666666666667</ele><time>2026-04-19T13:09:03.561Z</time></trkpt><trkpt lat="46.28650864272551" lon="12.416133550519138"><ele>803.3333333333334</ele><time>2026-04-19T13:09:04.561Z</time></trkpt><trkpt lat="46.286527175376776" lon="12.415903955717024"><ele>803.0</ele><time>2026-04-19T13:09:05.561Z</time></trkpt><trkpt lat="46.28651331082076" lon="12.41568242947458"><ele>803.0</ele><time>2026-04-19T13:09:06.562Z</time></trkpt><trkpt lat="46.28647533175504" lon="12.415564997075327"><ele>803.0</ele><time>2026-04-19T13:09:07.562Z</time></trkpt><trkpt lat="46.28645587493735" lon="12.415359733413721"><ele>803.0</ele><time>2026-04-19T13:09:08.562Z</time></trkpt><trkpt lat="46.286438470419235" lon="12.415145179262536"><ele>803.0</ele><time>2026-04-19T13:09:09.562Z</time></trkpt><trkpt lat="46.28639891237218" lon="12.414906183537028"><ele>802.0</ele><time>2026-04-19T13:09:10.562Z</time></trkpt><trkpt lat="46.28635798607548" lon="12.414655925086949"><ele>801.0</ele><time>2026-04-19T13:09:11.562Z</time></trkpt><trkpt lat="46.286303247090004" lon="12.414396149423771"><ele>800.0</ele><time>2026-04-19T13:09:12.562Z</time></trkpt><trkpt lat="46.286254139820265" lon="12.414167734230997"><ele>800.0</ele><time>2026-04-19T13:09:13.562Z</time></trkpt><trkpt lat="46.28622186384159" lon="12.41398153528338"><ele>800.0</ele><time>2026-04-19T13:09:14.562Z</time></trkpt><trkpt lat="46.28620856348041" lon="12.413792231449477"><ele>800.0</ele><time>2026-04-19T13:09:15.562Z</time></trkpt><trkpt lat="46.2862056507217" lon="12.413602137185288"><ele>800.0</ele><time>2026-04-19T13:09:16.562Z</time></trkpt><trkpt lat="46.28621933792442" lon="12.413425643206345"><ele>799.5</ele><time>2026-04-19T13:09:17.562Z</time></trkpt><trkpt lat="46.286224650983044" lon="12.41322448488215"><ele>799.0</ele><time>2026-04-19T13:09:18.562Z</time></trkpt><trkpt lat="46.286223776925894" lon="12.413029955451794"><ele>798.5</ele><time>2026-04-19T13:09:19.562Z</time></trkpt><trkpt lat="46.286223533347815" lon="12.412860688729733"><ele>798.0</ele><time>2026-04-19T13:09:20.562Z</time></trkpt><trkpt lat="46.28620735599851" lon="12.412700655651763"><ele>801.0</ele><time>2026-04-19T13:09:21.562Z</time></trkpt><trkpt lat="46.28622019111339" lon="12.412583220167129"><ele>804.0</ele><time>2026-04-19T13:09:22.562Z</time></trkpt><trkpt lat="46.28623374928607" lon="12.412447221910655"><ele>807.0</ele><time>2026-04-19T13:09:24.562Z</time></trkpt><trkpt lat="46.285985878563444" lon="12.411954696619496"><ele>809.75</ele><time>2026-04-19T13:09:25.562Z</time></trkpt><trkpt lat="46.2859200224429" lon="12.411772167002784"><ele>812.5</ele><time>2026-04-19T13:09:26.562Z</time></trkpt><trkpt lat="46.285868693004055" lon="12.411596590390399"><ele>815.25</ele><time>2026-04-19T13:09:27.562Z</time></trkpt><trkpt lat="46.28582700058324" lon="12.411418973805931"><ele>818.0</ele><time>2026-04-19T13:09:28.562Z</time></trkpt><trkpt lat="46.28578322078133" lon="12.411231856760503"><ele>819.3333333333334</ele><time>2026-04-19T13:09:29.562Z</time></trkpt><trkpt lat="46.28573308802825" lon="12.411022388003596"><ele>820.6666666666667</ele><time>2026-04-19T13:09:30.562Z</time></trkpt><trkpt lat="46.28568203065584" lon="12.410802595836312"><ele>822.0</ele><time>2026-04-19T13:09:31.562Z</time></trkpt><trkpt lat="46.285627958259" lon="12.41058782275874"><ele>828.0</ele><time>2026-04-19T13:09:32.562Z</time></trkpt><trkpt lat="46.28557176797677" lon="12.410371087112374"><ele>834.0</ele><time>2026-04-19T13:09:33.562Z</time></trkpt><trkpt lat="46.28552507879073" lon="12.410162203262376"><ele>840.0</ele><time>2026-04-19T13:09:34.562Z</time></trkpt><trkpt lat="46.28547850937364" lon="12.409975186194126"><ele>846.0</ele><time>2026-04-19T13:09:35.562Z</time></trkpt><trkpt lat="46.28544896969236" lon="12.409804954771774"><ele>849.75</ele><time>2026-04-19T13:09:36.562Z</time></trkpt><trkpt lat="46.28543968928373" lon="12.40962136198896"><ele>853.5</ele><time>2026-04-19T13:09:37.562Z</time></trkpt><trkpt lat="46.28541152760408" lon="12.409437115051801"><ele>857.25</ele><time>2026-04-19T13:09:38.562Z</time></trkpt><trkpt lat="46.285405692827666" lon="12.409253683268311"><ele>861.0</ele><time>2026-04-19T13:09:39.562Z</time></trkpt><trkpt lat="46.285414187401244" lon="12.409083211513295"><ele>861.0</ele><time>2026-04-19T13:09:40.562Z</time></trkpt><trkpt lat="46.28542130844301" lon="12.408928311512545"><ele>860.9999999999999</ele><time>2026-04-19T13:09:41.562Z</time></trkpt><trkpt lat="46.28544340663138" lon="12.40878668595748"><ele>860.9999999999999</ele><time>2026-04-19T13:09:42.562Z</time></trkpt><trkpt lat="46.285434305572494" lon="12.408654263754912"><ele>861.0</ele><time>2026-04-19T13:09:43.562Z</time></trkpt><trkpt lat="46.28545754368062" lon="12.408529900343003"><ele>861.0</ele><time>2026-04-19T13:09:44.562Z</time></trkpt><trkpt lat="46.285473255503675" lon="12.408406093516573"><ele>858.4</ele><time>2026-04-19T13:09:45.562Z</time></trkpt><trkpt lat="46.285496490515094" lon="12.408289821769118"><ele>855.8</ele><time>2026-04-19T13:09:46.562Z</time></trkpt><trkpt lat="46.28553263623789" lon="12.408170757790968"><ele>853.1999999999999</ele><time>2026-04-19T13:09:47.562Z</time></trkpt><trkpt lat="46.285585255510064" lon="12.408014334957686"><ele>850.5999999999999</ele><time>2026-04-19T13:09:48.562Z</time></trkpt><trkpt lat="46.285671586691855" lon="12.407886672722903"><ele>848.0</ele><time>2026-04-19T13:09:49.562Z</time></trkpt><trkpt lat="46.28573921929034" lon="12.407744054724544"><ele>842.8</ele><time>2026-04-19T13:09:50.562Z</time></trkpt><trkpt lat="46.28582389155049" lon="12.407611053445494"><ele>837.5999999999999</ele><time>2026-04-19T13:09:51.562Z</time></trkpt><trkpt lat="46.28589701096799" lon="12.407492671529894"><ele>832.4000000000001</ele><time>2026-04-19T13:09:52.562Z</time></trkpt><trkpt lat="46.28595509232144" lon="12.407394040112308"><ele>827.2</ele><time>2026-04-19T13:09:53.562Z</time></trkpt><trkpt lat="46.286025201017644" lon="12.407299033009915"><ele>822.0</ele><time>2026-04-19T13:09:54.562Z</time></trkpt><trkpt lat="46.28609951505564" lon="12.407204998176534"><ele>820.6</ele><time>2026-04-19T13:09:55.562Z</time></trkpt><trkpt lat="46.286194664890935" lon="12.407142978970692"><ele>819.2</ele><time>2026-04-19T13:09:56.562Z</time></trkpt><trkpt lat="46.28628738528348" lon="12.407100649326617"><ele>817.8</ele><time>2026-04-19T13:09:57.562Z</time></trkpt><trkpt lat="46.286391406238344" lon="12.40707719912608"><ele>816.4</ele><time>2026-04-19T13:09:58.562Z</time></trkpt><trkpt lat="46.286494061983866" lon="12.407072156603592"><ele>815.0</ele><time>2026-04-19T13:09:59.562Z</time></trkpt><trkpt lat="46.28659419284074" lon="12.407081905264482"><ele>815.0000000000001</ele><time>2026-04-19T13:10:00.562Z</time></trkpt><trkpt lat="46.28668263452519" lon="12.407135935059314"><ele>815.0</ele><time>2026-04-19T13:10:01.562Z</time></trkpt><trkpt lat="46.28677714490728" lon="12.40719879057841"><ele>815.0</ele><time>2026-04-19T13:10:02.562Z</time></trkpt><trkpt lat="46.28686118949059" lon="12.407243521555513"><ele>815.0</ele><time>2026-04-19T13:10:03.562Z</time></trkpt><trkpt lat="46.28693430599405" lon="12.407238940138008"><ele>815.0000000000001</ele><time>2026-04-19T13:10:04.562Z</time></trkpt><trkpt lat="46.287002910283846" lon="12.40719763063005"><ele>815.0</ele><time>2026-04-19T13:10:05.562Z</time></trkpt><trkpt lat="46.287034503028615" lon="12.407118539257885"><ele>815.0</ele><time>2026-04-19T13:10:06.562Z</time></trkpt><trkpt lat="46.287088635376726" lon="12.407013722839084"><ele>815.0</ele><time>2026-04-19T13:10:07.562Z</time></trkpt><trkpt lat="46.28708183258379" lon="12.406868434339543"><ele>815.0</ele><time>2026-04-19T13:10:08.562Z</time></trkpt><trkpt lat="46.28702683356571" lon="12.406765311600356"><ele>815.0</ele><time>2026-04-19T13:10:09.562Z</time></trkpt><trkpt lat="46.28694163072686" lon="12.406662658290346"><ele>815.0</ele><time>2026-04-19T13:10:10.562Z</time></trkpt><trkpt lat="46.286824712990075" lon="12.406569387154804"><ele>815.0</ele><time>2026-04-19T13:10:11.562Z</time></trkpt><trkpt lat="46.28667701066735" lon="12.406477521665556"><ele>815.0</ele><time>2026-04-19T13:10:12.562Z</time></trkpt><trkpt lat="46.286532163379995" lon="12.406408319975382"><ele>815.0</ele><time>2026-04-19T13:10:13.562Z</time></trkpt><trkpt lat="46.286413886381204" lon="12.406302345698247"><ele>815.0</ele><time>2026-04-19T13:10:14.562Z</time></trkpt><trkpt lat="46.28629313660143" lon="12.406203927146668"><ele>815.0</ele><time>2026-04-19T13:10:15.562Z</time></trkpt><trkpt lat="46.28616481859298" lon="12.406088256140642"><ele>815.0</ele><time>2026-04-19T13:10:16.562Z</time></trkpt><trkpt lat="46.286038349471056" lon="12.405952245528072"><ele>815.0</ele><time>2026-04-19T13:10:17.562Z</time></trkpt><trkpt lat="46.285905527604086" lon="12.40580013394543"><ele>815.0</ele><time>2026-04-19T13:10:18.562Z</time></trkpt><trkpt lat="46.285775291211266" lon="12.405668241981473"><ele>815.0</ele><time>2026-04-19T13:10:19.562Z</time></trkpt><trkpt lat="46.285688373426794" lon="12.40550012432442"><ele>815.0</ele><time>2026-04-19T13:10:20.562Z</time></trkpt><trkpt lat="46.28559224672759" lon="12.405324535245821"><ele>813.6666666666667</ele><time>2026-04-19T13:10:21.562Z</time></trkpt><trkpt lat="46.28549349747431" lon="12.405134634350915"><ele>812.3333333333333</ele><time>2026-04-19T13:10:22.562Z</time></trkpt><trkpt lat="46.28538786883373" lon="12.404955505057414"><ele>811.0</ele><time>2026-04-19T13:10:23.562Z</time></trkpt><trkpt lat="46.285304430426606" lon="12.404775983155453"><ele>810.75</ele><time>2026-04-19T13:10:24.562Z</time></trkpt><trkpt lat="46.285226421962264" lon="12.404611191168962"><ele>810.5</ele><time>2026-04-19T13:10:25.562Z</time></trkpt><trkpt lat="46.2851624589355" lon="12.404438721436826"><ele>810.25</ele><time>2026-04-19T13:10:26.562Z</time></trkpt><trkpt lat="46.28508459793687" lon="12.404282152920093"><ele>810.0</ele><time>2026-04-19T13:10:27.562Z</time></trkpt><trkpt lat="46.28503013824606" lon="12.404083361155031"><ele>810.0</ele><time>2026-04-19T13:10:28.562Z</time></trkpt><trkpt lat="46.284973984497505" lon="12.403877043498728"><ele>810.0</ele><time>2026-04-19T13:10:29.562Z</time></trkpt><trkpt lat="46.28492358736377" lon="12.403663871883195"><ele>810.0</ele><time>2026-04-19T13:10:30.562Z</time></trkpt><trkpt lat="46.28487601392128" lon="12.403462307809942"><ele>810.5</ele><time>2026-04-19T13:10:31.562Z</time></trkpt><trkpt lat="46.284829880735785" lon="12.403268940880523"><ele>811.0</ele><time>2026-04-19T13:10:32.562Z</time></trkpt><trkpt lat="46.28479512342434" lon="12.403084343875618"><ele>811.5</ele><time>2026-04-19T13:10:33.562Z</time></trkpt><trkpt lat="46.2847548592896" lon="12.40290277140363"><ele>812.0</ele><time>2026-04-19T13:10:34.562Z</time></trkpt><trkpt lat="46.28470167766967" lon="12.402724556717413"><ele>813.0</ele><time>2026-04-19T13:10:35.562Z</time></trkpt><trkpt lat="46.28465599550457" lon="12.402553595124175"><ele>814.0</ele><time>2026-04-19T13:10:36.562Z</time></trkpt><trkpt lat="46.28461619822835" lon="12.402385960750596"><ele>815.0</ele><time>2026-04-19T13:10:37.562Z</time></trkpt><trkpt lat="46.28458423649991" lon="12.40221249317489"><ele>816.0</ele><time>2026-04-19T13:10:38.562Z</time></trkpt><trkpt lat="46.28457454914321" lon="12.402029553918458"><ele>816.0</ele><time>2026-04-19T13:10:39.562Z</time></trkpt><trkpt lat="46.284548293088044" lon="12.401862330964946"><ele>816.0</ele><time>2026-04-19T13:10:40.562Z</time></trkpt><trkpt lat="46.28453538965917" lon="12.40169306674698"><ele>816.0</ele><time>2026-04-19T13:10:41.562Z</time></trkpt><trkpt lat="46.284526693480295" lon="12.401524023405557"><ele>816.0</ele><time>2026-04-19T13:10:42.562Z</time></trkpt><trkpt lat="46.28451243168352" lon="12.401358208865538"><ele>814.5</ele><time>2026-04-19T13:10:43.562Z</time></trkpt><trkpt lat="46.28447036330963" lon="12.401201360633012"><ele>813.0</ele><time>2026-04-19T13:10:44.562Z</time></trkpt><trkpt lat="46.28441285093247" lon="12.401048575262614"><ele>811.5</ele><time>2026-04-19T13:10:45.562Z</time></trkpt><trkpt lat="46.284328090522614" lon="12.400894775009036"><ele>810.0</ele><time>2026-04-19T13:10:46.562Z</time></trkpt><trkpt lat="46.284227035505886" lon="12.400749125975901"><ele>810.0</ele><time>2026-04-19T13:10:47.562Z</time></trkpt><trkpt lat="46.284098551526235" lon="12.400604278419365"><ele>810.0</ele><time>2026-04-19T13:10:48.562Z</time></trkpt><trkpt lat="46.28397501845658" lon="12.400467942833032"><ele>810.0</ele><time>2026-04-19T13:10:49.562Z</time></trkpt><trkpt lat="46.28383336360905" lon="12.400296964923738"><ele>808.6666666666667</ele><time>2026-04-19T13:10:50.562Z</time></trkpt><trkpt lat="46.28369983243913" lon="12.40011884924448"><ele>807.3333333333334</ele><time>2026-04-19T13:10:51.562Z</time></trkpt><trkpt lat="46.283593388015724" lon="12.399921711298855"><ele>806.0</ele><time>2026-04-19T13:10:52.562Z</time></trkpt><trkpt lat="46.28347983212482" lon="12.399746401849718"><ele>805.6666666666667</ele><time>2026-04-19T13:10:53.562Z</time></trkpt><trkpt lat="46.28336230278785" lon="12.399570147481173"><ele>805.3333333333333</ele><time>2026-04-19T13:10:54.562Z</time></trkpt><trkpt lat="46.283241199860015" lon="12.399404799593281"><ele>805.0</ele><time>2026-04-19T13:10:55.562Z</time></trkpt><trkpt lat="46.283121090514896" lon="12.399253745495363"><ele>802.6666666666666</ele><time>2026-04-19T13:10:56.562Z</time></trkpt><trkpt lat="46.28300290766229" lon="12.39910567107408"><ele>800.3333333333333</ele><time>2026-04-19T13:10:57.562Z</time></trkpt><trkpt lat="46.28287495375017" lon="12.398977097129041"><ele>798.0</ele><time>2026-04-19T13:10:58.562Z</time></trkpt><trkpt lat="46.28276539842715" lon="12.398836174713743"><ele>796.0</ele><time>2026-04-19T13:10:59.562Z</time></trkpt><trkpt lat="46.282654864575164" lon="12.398699634036037"><ele>794.0</ele><time>2026-04-19T13:11:00.562Z</time></trkpt><trkpt lat="46.28255901229358" lon="12.3985466820875"><ele>792.0</ele><time>2026-04-19T13:11:01.562Z</time></trkpt><trkpt lat="46.28244486526659" lon="12.398433264058694"><ele>790.0</ele><time>2026-04-19T13:11:02.562Z</time></trkpt><trkpt lat="46.28233959362395" lon="12.39829906988399"><ele>789.5</ele><time>2026-04-19T13:11:03.562Z</time></trkpt><trkpt lat="46.28223753139193" lon="12.398172656738742"><ele>789.0</ele><time>2026-04-19T13:11:04.562Z</time></trkpt><trkpt lat="46.28213271601197" lon="12.398051213382006"><ele>788.5</ele><time>2026-04-19T13:11:05.562Z</time></trkpt><trkpt lat="46.28202859931399" lon="12.397934153954921"><ele>788.0</ele><time>2026-04-19T13:11:06.562Z</time></trkpt><trkpt lat="46.28192098403898" lon="12.397802100344519"><ele>788.0</ele><time>2026-04-19T13:11:07.562Z</time></trkpt><trkpt lat="46.28181468376148" lon="12.397659584942696"><ele>788.0</ele><time>2026-04-19T13:11:08.562Z</time></trkpt><trkpt lat="46.28172123670401" lon="12.39751367372025"><ele>788.0</ele><time>2026-04-19T13:11:09.562Z</time></trkpt><trkpt lat="46.28164791283995" lon="12.39734780158177"><ele>788.0</ele><time>2026-04-19T13:11:10.562Z</time></trkpt><trkpt lat="46.281587489255124" lon="12.397175094596946"><ele>786.6666666666667</ele><time>2026-04-19T13:11:11.562Z</time></trkpt><trkpt lat="46.28151360786127" lon="12.396957827028066"><ele>785.3333333333333</ele><time>2026-04-19T13:11:12.563Z</time></trkpt><trkpt lat="46.28141573453451" lon="12.396714915180988"><ele>784.0</ele><time>2026-04-19T13:11:13.563Z</time></trkpt><trkpt lat="46.28133241054471" lon="12.39646004177541"><ele>780.6666666666666</ele><time>2026-04-19T13:11:14.563Z</time></trkpt><trkpt lat="46.28125161766405" lon="12.396234670970435"><ele>777.3333333333333</ele><time>2026-04-19T13:11:15.563Z</time></trkpt><trkpt lat="46.281175125843184" lon="12.396016536040358"><ele>774.0</ele><time>2026-04-19T13:11:16.563Z</time></trkpt><trkpt lat="46.2810946974405" lon="12.395796357415975"><ele>774.0</ele><time>2026-04-19T13:11:17.563Z</time></trkpt><trkpt lat="46.281008119744584" lon="12.395570960029454"><ele>774.0</ele><time>2026-04-19T13:11:18.563Z</time></trkpt><trkpt lat="46.28091726108782" lon="12.395353078047886"><ele>774.0</ele><time>2026-04-19T13:11:19.563Z</time></trkpt><trkpt lat="46.280828658181385" lon="12.395142923649352"><ele>773.6666666666667</ele><time>2026-04-19T13:11:20.563Z</time></trkpt><trkpt lat="46.28073808056991" lon="12.394949904406001"><ele>773.3333333333334</ele><time>2026-04-19T13:11:21.563Z</time></trkpt><trkpt lat="46.280636836928934" lon="12.394762454756892"><ele>773.0</ele><time>2026-04-19T13:11:22.563Z</time></trkpt><trkpt lat="46.280541619393695" lon="12.394588669998742"><ele>773.0</ele><time>2026-04-19T13:11:23.563Z</time></trkpt><trkpt lat="46.28043989298265" lon="12.39442591301642"><ele>773.0</ele><time>2026-04-19T13:11:24.563Z</time></trkpt><trkpt lat="46.28034068172011" lon="12.394277074431196"><ele>773.0</ele><time>2026-04-19T13:11:25.563Z</time></trkpt><trkpt lat="46.28024381640798" lon="12.394129434628391"><ele>773.0</ele><time>2026-04-19T13:11:26.563Z</time></trkpt><trkpt lat="46.280152823019804" lon="12.39398957338407"><ele>773.0</ele><time>2026-04-19T13:11:27.563Z</time></trkpt><trkpt lat="46.280059532273796" lon="12.393855185578113"><ele>773.0</ele><time>2026-04-19T13:11:28.563Z</time></trkpt><trkpt lat="46.279956357535056" lon="12.39370821893364"><ele>773.0</ele><time>2026-04-19T13:11:29.563Z</time></trkpt><trkpt lat="46.279868451368266" lon="12.393584440425998"><ele>773.0</ele><time>2026-04-19T13:11:30.563Z</time></trkpt><trkpt lat="46.279773281944244" lon="12.393448474807064"><ele>771.0</ele><time>2026-04-19T13:11:31.563Z</time></trkpt><trkpt lat="46.279677068777616" lon="12.393302190904254"><ele>769.0</ele><time>2026-04-19T13:11:32.563Z</time></trkpt><trkpt lat="46.279587129211464" lon="12.39315844689405"><ele>767.0</ele><time>2026-04-19T13:11:33.563Z</time></trkpt><trkpt lat="46.279519428159745" lon="12.393008982334441"><ele>765.0</ele><time>2026-04-19T13:11:34.563Z</time></trkpt><trkpt lat="46.279458533836845" lon="12.392830809569615"><ele>765.0</ele><time>2026-04-19T13:11:35.563Z</time></trkpt><trkpt lat="46.279408484989226" lon="12.392625732281983"><ele>765.0</ele><time>2026-04-19T13:11:36.563Z</time></trkpt><trkpt lat="46.27936428859652" lon="12.392419975485232"><ele>765.0</ele><time>2026-04-19T13:11:37.563Z</time></trkpt><trkpt lat="46.279321626515994" lon="12.39222916125999"><ele>765.0</ele><time>2026-04-19T13:11:38.563Z</time></trkpt><trkpt lat="46.2792757441759" lon="12.392049018960833"><ele>768.0</ele><time>2026-04-19T13:11:39.563Z</time></trkpt><trkpt lat="46.27919506251233" lon="12.391886117450307"><ele>771.0</ele><time>2026-04-19T13:11:40.563Z</time></trkpt><trkpt lat="46.27911334702258" lon="12.39172448931065"><ele>774.0</ele><time>2026-04-19T13:11:41.563Z</time></trkpt><trkpt lat="46.27900886856389" lon="12.391561537615576"><ele>777.0</ele><time>2026-04-19T13:11:42.563Z</time></trkpt><trkpt lat="46.278911698258476" lon="12.391396878062007"><ele>772.25</ele><time>2026-04-19T13:11:43.563Z</time></trkpt><trkpt lat="46.2788211989376" lon="12.39123322727903"><ele>767.5</ele><time>2026-04-19T13:11:44.563Z</time></trkpt><trkpt lat="46.27873127749216" lon="12.391074312295695"><ele>762.75</ele><time>2026-04-19T13:11:45.563Z</time></trkpt><trkpt lat="46.27864677004652" lon="12.390923215127454"><ele>758.0</ele><time>2026-04-19T13:11:46.563Z</time></trkpt><trkpt lat="46.278571151891" lon="12.390781219874842"><ele>758.0</ele><time>2026-04-19T13:11:47.563Z</time></trkpt><trkpt lat="46.27848326707977" lon="12.390646151561688"><ele>758.0</ele><time>2026-04-19T13:11:48.563Z</time></trkpt><trkpt lat="46.27838974044083" lon="12.39052839316164"><ele>758.0</ele><time>2026-04-19T13:11:49.563Z</time></trkpt><trkpt lat="46.27828703519211" lon="12.390433631065934"><ele>758.0</ele><time>2026-04-19T13:11:50.563Z</time></trkpt><trkpt lat="46.27818231395944" lon="12.390363909635465"><ele>754.8</ele><time>2026-04-19T13:11:51.563Z</time></trkpt><trkpt lat="46.278087232318896" lon="12.390302001306145"><ele>751.5999999999999</ele><time>2026-04-19T13:11:52.563Z</time></trkpt><trkpt lat="46.27799788817489" lon="12.390243554360687"><ele>748.4000000000001</ele><time>2026-04-19T13:11:53.563Z</time></trkpt><trkpt lat="46.277906404928395" lon="12.390203195532889"><ele>745.2</ele><time>2026-04-19T13:11:54.563Z</time></trkpt><trkpt lat="46.27782828714073" lon="12.39016652119202"><ele>742.0</ele><time>2026-04-19T13:11:55.563Z</time></trkpt><trkpt lat="46.27775928665665" lon="12.390097264973083"><ele>742.0</ele><time>2026-04-19T13:11:56.563Z</time></trkpt><trkpt lat="46.27769735984792" lon="12.390013185010927"><ele>742.0</ele><time>2026-04-19T13:11:57.563Z</time></trkpt><trkpt lat="46.27767326508191" lon="12.389876987407368"><ele>742.0</ele><time>2026-04-19T13:11:58.563Z</time></trkpt><trkpt lat="46.27768462878896" lon="12.389669606280304"><ele>742.0</ele><time>2026-04-19T13:11:59.563Z</time></trkpt><trkpt lat="46.27767725819383" lon="12.389532655987125"><ele>742.0</ele><time>2026-04-19T13:12:00.563Z</time></trkpt><trkpt lat="46.27762968588263" lon="12.389370215837959"><ele>745.8</ele><time>2026-04-19T13:12:01.563Z</time></trkpt><trkpt lat="46.277571083989116" lon="12.38924727742395"><ele>749.6</ele><time>2026-04-19T13:12:02.563Z</time></trkpt><trkpt lat="46.27750980750059" lon="12.389112599509364"><ele>753.4</ele><time>2026-04-19T13:12:03.563Z</time></trkpt><trkpt lat="46.27745703550449" lon="12.388971393616842"><ele>757.1999999999999</ele><time>2026-04-19T13:12:04.563Z</time></trkpt><trkpt lat="46.27744733812561" lon="12.388817243509406"><ele>761.0</ele><time>2026-04-19T13:12:05.563Z</time></trkpt><trkpt lat="46.27743862092229" lon="12.388658827900358"><ele>762.75</ele><time>2026-04-19T13:12:06.563Z</time></trkpt><trkpt lat="46.27744311005913" lon="12.388485143209484"><ele>764.5</ele><time>2026-04-19T13:12:07.563Z</time></trkpt><trkpt lat="46.27742833028212" lon="12.388304859119039"><ele>766.25</ele><time>2026-04-19T13:12:08.563Z</time></trkpt><trkpt lat="46.277415744503365" lon="12.388148471196097"><ele>768.0</ele><time>2026-04-19T13:12:09.563Z</time></trkpt><trkpt lat="46.277385935253875" lon="12.387992884816136"><ele>768.5</ele><time>2026-04-19T13:12:10.563Z</time></trkpt><trkpt lat="46.277362510992305" lon="12.387833756239644"><ele>769.0</ele><time>2026-04-19T13:12:11.563Z</time></trkpt><trkpt lat="46.277346753037854" lon="12.387656382063378"><ele>769.5</ele><time>2026-04-19T13:12:12.563Z</time></trkpt><trkpt lat="46.27737273224004" lon="12.387458399827903"><ele>770.0</ele><time>2026-04-19T13:12:13.563Z</time></trkpt><trkpt lat="46.27738668298804" lon="12.387278162445083"><ele>771.0</ele><time>2026-04-19T13:12:14.563Z</time></trkpt><trkpt lat="46.27737483662966" lon="12.38710844480166"><ele>772.0</ele><time>2026-04-19T13:12:15.563Z</time></trkpt><trkpt lat="46.27737720898381" lon="12.386936482324456"><ele>773.0</ele><time>2026-04-19T13:12:16.563Z</time></trkpt><trkpt lat="46.277369604296844" lon="12.386776008978886"><ele>774.0</ele><time>2026-04-19T13:12:17.563Z</time></trkpt><trkpt lat="46.27733781835629" lon="12.386624877263387"><ele>774.0</ele><time>2026-04-19T13:12:18.563Z</time></trkpt><trkpt lat="46.277285014731454" lon="12.386471999351457"><ele>774.0</ele><time>2026-04-19T13:12:19.563Z</time></trkpt><trkpt lat="46.277217266420436" lon="12.386321635966762"><ele>774.0</ele><time>2026-04-19T13:12:20.563Z</time></trkpt><trkpt lat="46.277149541524345" lon="12.386170925728837"><ele>774.0</ele><time>2026-04-19T13:12:21.563Z</time></trkpt><trkpt lat="46.277087511136635" lon="12.386029565643533"><ele>766.5</ele><time>2026-04-19T13:12:22.563Z</time></trkpt><trkpt lat="46.27704563515589" lon="12.385892201621804"><ele>759.0</ele><time>2026-04-19T13:12:23.563Z</time></trkpt><trkpt lat="46.27701158033229" lon="12.38574005237001"><ele>751.5</ele><time>2026-04-19T13:12:24.563Z</time></trkpt><trkpt lat="46.2769944876779" lon="12.385564053838143"><ele>744.0</ele><time>2026-04-19T13:12:25.563Z</time></trkpt><trkpt lat="46.276974772229366" lon="12.385388840822921"><ele>744.0</ele><time>2026-04-19T13:12:26.563Z</time></trkpt><trkpt lat="46.276951349350306" lon="12.385209807863804"><ele>744.0</ele><time>2026-04-19T13:12:27.563Z</time></trkpt><trkpt lat="46.27691336445936" lon="12.385034486761793"><ele>744.0</ele><time>2026-04-19T13:12:28.563Z</time></trkpt><trkpt lat="46.27687061279793" lon="12.384887910270217"><ele>744.0</ele><time>2026-04-19T13:12:29.563Z</time></trkpt><trkpt lat="46.27681865766554" lon="12.384740035663608"><ele>744.6666666666666</ele><time>2026-04-19T13:12:30.563Z</time></trkpt><trkpt lat="46.27677837287407" lon="12.384590566185272"><ele>745.3333333333334</ele><time>2026-04-19T13:12:31.563Z</time></trkpt><trkpt lat="46.27677371942944" lon="12.38446450472113"><ele>746.0</ele><time>2026-04-19T13:12:32.563Z</time></trkpt><trkpt lat="46.2767628838747" lon="12.384346165952342"><ele>746.6666666666667</ele><time>2026-04-19T13:12:33.563Z</time></trkpt><trkpt lat="46.276773175117256" lon="12.384229427679957"><ele>747.3333333333334</ele><time>2026-04-19T13:12:34.563Z</time></trkpt><trkpt lat="46.276813233086216" lon="12.384138669158352"><ele>748.0</ele><time>2026-04-19T13:12:35.563Z</time></trkpt><trkpt lat="46.27686355624856" lon="12.384013678224461"><ele>748.0</ele><time>2026-04-19T13:12:36.563Z</time></trkpt><trkpt lat="46.276917686189435" lon="12.383874085251747"><ele>748.0</ele><time>2026-04-19T13:12:37.563Z</time></trkpt><trkpt lat="46.27700493630582" lon="12.383720257785814"><ele>748.0</ele><time>2026-04-19T13:12:38.563Z</time></trkpt><trkpt lat="46.277067675982146" lon="12.38359328667745"><ele>748.0</ele><time>2026-04-19T13:12:39.563Z</time></trkpt><trkpt lat="46.27712145973101" lon="12.3834702886266"><ele>745.5999999999999</ele><time>2026-04-19T13:12:40.563Z</time></trkpt><trkpt lat="46.27718377257441" lon="12.383348465607744"><ele>743.1999999999999</ele><time>2026-04-19T13:12:41.563Z</time></trkpt><trkpt lat="46.27723870478739" lon="12.383237320737067"><ele>740.8</ele><time>2026-04-19T13:12:42.563Z</time></trkpt><trkpt lat="46.27727808807311" lon="12.383106794387782"><ele>738.4</ele><time>2026-04-19T13:12:43.563Z</time></trkpt><trkpt lat="46.277303790137964" lon="12.382959945533695"><ele>736.0</ele><time>2026-04-19T13:12:44.563Z</time></trkpt><trkpt lat="46.27731641255735" lon="12.382795911485301"><ele>742.25</ele><time>2026-04-19T13:12:45.563Z</time></trkpt><trkpt lat="46.27731372324262" lon="12.382612170303263"><ele>748.5</ele><time>2026-04-19T13:12:46.563Z</time></trkpt><trkpt lat="46.27730812510096" lon="12.382437583303465"><ele>754.75</ele><time>2026-04-19T13:12:47.563Z</time></trkpt><trkpt lat="46.27732241081738" lon="12.382306529810007"><ele>761.0</ele><time>2026-04-19T13:12:48.563Z</time></trkpt><trkpt lat="46.27731232536389" lon="12.382127107909302"><ele>761.0</ele><time>2026-04-19T13:12:49.563Z</time></trkpt><trkpt lat="46.27733559529372" lon="12.381968202738456"><ele>761.0</ele><time>2026-04-19T13:12:50.563Z</time></trkpt><trkpt lat="46.277380384023765" lon="12.381805113187353"><ele>761.0</ele><time>2026-04-19T13:12:51.563Z</time></trkpt><trkpt lat="46.27744587179192" lon="12.381640717511017"><ele>761.0</ele><time>2026-04-19T13:12:52.563Z</time></trkpt><trkpt lat="46.277508478662334" lon="12.38148578857008"><ele>757.4</ele><time>2026-04-19T13:12:53.563Z</time></trkpt><trkpt lat="46.2775570482271" lon="12.38134753014765"><ele>753.8</ele><time>2026-04-19T13:12:54.563Z</time></trkpt><trkpt lat="46.27759738529744" lon="12.3812075444931"><ele>750.1999999999999</ele><time>2026-04-19T13:12:55.563Z</time></trkpt><trkpt lat="46.27765757046117" lon="12.381075111413557"><ele>746.5999999999999</ele><time>2026-04-19T13:12:56.563Z</time></trkpt><trkpt lat="46.277722545776214" lon="12.380952051671015"><ele>743.0</ele><time>2026-04-19T13:12:57.563Z</time></trkpt><trkpt lat="46.27780522196637" lon="12.380862980966837"><ele>743.0</ele><time>2026-04-19T13:12:58.563Z</time></trkpt><trkpt lat="46.27790889271075" lon="12.38078609139421"><ele>743.0</ele><time>2026-04-19T13:12:59.563Z</time></trkpt><trkpt lat="46.27802705077663" lon="12.3807187256871"><ele>743.0</ele><time>2026-04-19T13:13:00.563Z</time></trkpt><trkpt lat="46.27815457281998" lon="12.38064464989347"><ele>743.0</ele><time>2026-04-19T13:13:01.563Z</time></trkpt><trkpt lat="46.27829453290638" lon="12.380596261681331"><ele>743.0</ele><time>2026-04-19T13:13:02.563Z</time></trkpt><trkpt lat="46.27842778711935" lon="12.380549259292415"><ele>743.0</ele><time>2026-04-19T13:13:03.563Z</time></trkpt><trkpt lat="46.27853137877128" lon="12.38048773829197"><ele>743.0</ele><time>2026-04-19T13:13:04.563Z</time></trkpt><trkpt lat="46.2786203816837" lon="12.380414928414284"><ele>743.0</ele><time>2026-04-19T13:13:05.563Z</time></trkpt><trkpt lat="46.27869865932392" lon="12.38033502318746"><ele>743.0</ele><time>2026-04-19T13:13:06.563Z</time></trkpt><trkpt lat="46.278768380463895" lon="12.380293095612794"><ele>743.0</ele><time>2026-04-19T13:13:07.563Z</time></trkpt><trkpt lat="46.278841616346206" lon="12.38029704580658"><ele>743.0</ele><time>2026-04-19T13:13:08.563Z</time></trkpt><trkpt lat="46.27893372388938" lon="12.380320899928726"><ele>743.0</ele><time>2026-04-19T13:13:09.563Z</time></trkpt><trkpt lat="46.279011734469364" lon="12.38039995848634"><ele>743.0</ele><time>2026-04-19T13:13:10.563Z</time></trkpt><trkpt lat="46.279062764873025" lon="12.380524777281789"><ele>743.0</ele><time>2026-04-19T13:13:11.563Z</time></trkpt><trkpt lat="46.27916040325715" lon="12.380713587312412"><ele>751.25</ele><time>2026-04-19T13:13:12.563Z</time></trkpt><trkpt lat="46.27925913334602" lon="12.380890560230698"><ele>759.5</ele><time>2026-04-19T13:13:13.563Z</time></trkpt><trkpt lat="46.279377604759375" lon="12.38101130810447"><ele>767.75</ele><time>2026-04-19T13:13:14.563Z</time></trkpt><trkpt lat="46.279453455338896" lon="12.381114827502351"><ele>776.0</ele><time>2026-04-19T13:13:15.563Z</time></trkpt><trkpt lat="46.27953246182063" lon="12.381197166410917"><ele>776.0</ele><time>2026-04-19T13:13:16.563Z</time></trkpt><trkpt lat="46.27961503931204" lon="12.381250403060058"><ele>776.0</ele><time>2026-04-19T13:13:17.563Z</time></trkpt><trkpt lat="46.27970493751476" lon="12.381253020356212"><ele>776.0</ele><time>2026-04-19T13:13:18.564Z</time></trkpt><trkpt lat="46.27980412176686" lon="12.381203683582171"><ele>776.0</ele><time>2026-04-19T13:13:19.564Z</time></trkpt><trkpt lat="46.27990067328555" lon="12.381146246430761"><ele>776.0</ele><time>2026-04-19T13:13:20.564Z</time></trkpt><trkpt lat="46.27997386901743" lon="12.380970530716588"><ele>775.25</ele><time>2026-04-19T13:13:21.564Z</time></trkpt><trkpt lat="46.280094568418406" lon="12.380846052770137"><ele>774.5</ele><time>2026-04-19T13:13:22.564Z</time></trkpt><trkpt lat="46.28019943348048" lon="12.380734093441728"><ele>773.75</ele><time>2026-04-19T13:13:23.564Z</time></trkpt><trkpt lat="46.28029564973817" lon="12.380623494217135"><ele>773.0</ele><time>2026-04-19T13:13:24.564Z</time></trkpt><trkpt lat="46.28043671969493" lon="12.38052419412912"><ele>775.0</ele><time>2026-04-19T13:13:25.564Z</time></trkpt><trkpt lat="46.28057362547993" lon="12.380403713435758"><ele>777.0</ele><time>2026-04-19T13:13:26.564Z</time></trkpt><trkpt lat="46.28073676694964" lon="12.380246597844375"><ele>779.0</ele><time>2026-04-19T13:13:27.564Z</time></trkpt><trkpt lat="46.28086743467042" lon="12.380039896638339"><ele>779.0</ele><time>2026-04-19T13:13:28.564Z</time></trkpt><trkpt lat="46.28095595478173" lon="12.379811673780994"><ele>779.0</ele><time>2026-04-19T13:13:29.564Z</time></trkpt><trkpt lat="46.281029422607745" lon="12.379619145606783"><ele>779.0</ele><time>2026-04-19T13:13:30.564Z</time></trkpt><trkpt lat="46.28110690329623" lon="12.379419318727937"><ele>772.6666666666667</ele><time>2026-04-19T13:13:31.564Z</time></trkpt><trkpt lat="46.28118994747061" lon="12.37920946243346"><ele>766.3333333333334</ele><time>2026-04-19T13:13:32.564Z</time></trkpt><trkpt lat="46.281331657808934" lon="12.379026313022523"><ele>760.0</ele><time>2026-04-19T13:13:35.564Z</time></trkpt><trkpt lat="46.281427569051985" lon="12.378856888925666"><ele>766.6666666666667</ele><time>2026-04-19T13:13:36.564Z</time></trkpt><trkpt lat="46.281481369370745" lon="12.378744465257853"><ele>773.3333333333334</ele><time>2026-04-19T13:13:37.564Z</time></trkpt><trkpt lat="46.28155214559397" lon="12.378593944532655"><ele>780.0</ele><time>2026-04-19T13:13:38.578Z</time></trkpt><trkpt lat="46.28175719645459" lon="12.377434959646665"><ele>778.0</ele><time>2026-04-19T13:13:42.564Z</time></trkpt><trkpt lat="46.28177374857855" lon="12.377170842840089"><ele>776.0</ele><time>2026-04-19T13:13:43.564Z</time></trkpt><trkpt lat="46.281801684582994" lon="12.377006734382833"><ele>774.0</ele><time>2026-04-19T13:13:44.564Z</time></trkpt><trkpt lat="46.28184050326742" lon="12.376837502596558"><ele>772.0</ele><time>2026-04-19T13:13:45.564Z</time></trkpt><trkpt lat="46.28188123402552" lon="12.376673774260496"><ele>772.0</ele><time>2026-04-19T13:13:46.564Z</time></trkpt><trkpt lat="46.2819272115935" lon="12.376531118078388"><ele>772.0</ele><time>2026-04-19T13:13:47.564Z</time></trkpt><trkpt lat="46.28197765339613" lon="12.376407214549015"><ele>772.0</ele><time>2026-04-19T13:13:48.564Z</time></trkpt><trkpt lat="46.282013255141116" lon="12.376284782284511"><ele>772.0</ele><time>2026-04-19T13:13:49.564Z</time></trkpt><trkpt lat="46.28202889250895" lon="12.376167049746307"><ele>772.0</ele><time>2026-04-19T13:13:50.564Z</time></trkpt><trkpt lat="46.28199439269986" lon="12.376010562108576"><ele>774.5</ele><time>2026-04-19T13:13:51.564Z</time></trkpt><trkpt lat="46.28192861326549" lon="12.375847591501241"><ele>777.0</ele><time>2026-04-19T13:13:52.564Z</time></trkpt><trkpt lat="46.2818427129973" lon="12.375717880718351"><ele>779.5</ele><time>2026-04-19T13:13:53.564Z</time></trkpt><trkpt lat="46.28175367969976" lon="12.375615174564901"><ele>782.0</ele><time>2026-04-19T13:13:54.564Z</time></trkpt><trkpt lat="46.281673936910664" lon="12.375521187103157"><ele>785.1666666666667</ele><time>2026-04-19T13:13:55.564Z</time></trkpt><trkpt lat="46.28160025641359" lon="12.375434443418026"><ele>788.3333333333334</ele><time>2026-04-19T13:13:56.564Z</time></trkpt><trkpt lat="46.2815438626726" lon="12.375347176720803"><ele>791.5</ele><time>2026-04-19T13:13:57.564Z</time></trkpt><trkpt lat="46.281471061730265" lon="12.375280259654701"><ele>794.6666666666667</ele><time>2026-04-19T13:13:58.564Z</time></trkpt><trkpt lat="46.28139046393173" lon="12.375284486744562"><ele>797.8333333333334</ele><time>2026-04-19T13:13:59.564Z</time></trkpt><trkpt lat="46.281311442208036" lon="12.37533541080987"><ele>801.0</ele><time>2026-04-19T13:14:00.564Z</time></trkpt><trkpt lat="46.281230274594165" lon="12.375416260836072"><ele>803.3333333333334</ele><time>2026-04-19T13:14:01.564Z</time></trkpt><trkpt lat="46.281163476089404" lon="12.375496280353095"><ele>805.6666666666667</ele><time>2026-04-19T13:14:02.564Z</time></trkpt><trkpt lat="46.281097662826625" lon="12.375573059438269"><ele>808.0</ele><time>2026-04-19T13:14:03.564Z</time></trkpt><trkpt lat="46.2810322501027" lon="12.375643513760076"><ele>810.3333333333334</ele><time>2026-04-19T13:14:04.564Z</time></trkpt><trkpt lat="46.28096503250689" lon="12.375712452082912"><ele>812.6666666666667</ele><time>2026-04-19T13:14:05.564Z</time></trkpt><trkpt lat="46.280891420944386" lon="12.375745511969761"><ele>815.0</ele><time>2026-04-19T13:14:06.564Z</time></trkpt><trkpt lat="46.280807331321036" lon="12.375705852326151"><ele>806.75</ele><time>2026-04-19T13:14:07.564Z</time></trkpt><trkpt lat="46.280700102754295" lon="12.375699149170137"><ele>798.5</ele><time>2026-04-19T13:14:08.564Z</time></trkpt><trkpt lat="46.28057102348612" lon="12.375669083104459"><ele>790.25</ele><time>2026-04-19T13:14:09.564Z</time></trkpt><trkpt lat="46.2804439868463" lon="12.37563381257581"><ele>782.0</ele><time>2026-04-19T13:14:10.564Z</time></trkpt><trkpt lat="46.28032327325481" lon="12.375609724756924"><ele>781.25</ele><time>2026-04-19T13:14:11.564Z</time></trkpt><trkpt lat="46.28019686299408" lon="12.375568826361354"><ele>780.5</ele><time>2026-04-19T13:14:12.564Z</time></trkpt><trkpt lat="46.280067290405775" lon="12.37550866632419"><ele>779.75</ele><time>2026-04-19T13:14:13.564Z</time></trkpt><trkpt lat="46.27992885199333" lon="12.375429213252062"><ele>779.0</ele><time>2026-04-19T13:14:14.564Z</time></trkpt><trkpt lat="46.27976140665952" lon="12.3753257805366"><ele>782.75</ele><time>2026-04-19T13:14:15.564Z</time></trkpt><trkpt lat="46.27960563442361" lon="12.37523208395446"><ele>786.5</ele><time>2026-04-19T13:14:16.564Z</time></trkpt><trkpt lat="46.279476145991445" lon="12.375162406762755"><ele>790.25</ele><time>2026-04-19T13:14:17.564Z</time></trkpt><trkpt lat="46.279373058211824" lon="12.375119562178131"><ele>794.0</ele><time>2026-04-19T13:14:18.564Z</time></trkpt><trkpt lat="46.279282859967786" lon="12.375034802636254"><ele>794.0</ele><time>2026-04-19T13:14:19.564Z</time></trkpt><trkpt lat="46.27920453127222" lon="12.374956582422879"><ele>794.0</ele><time>2026-04-19T13:14:20.564Z</time></trkpt><trkpt lat="46.27911586827626" lon="12.374880561158879"><ele>794.0</ele><time>2026-04-19T13:14:21.564Z</time></trkpt><trkpt lat="46.27903892310367" lon="12.374782365404032"><ele>794.0</ele><time>2026-04-19T13:14:22.564Z</time></trkpt><trkpt lat="46.278965497255136" lon="12.374675921423867"><ele>794.0</ele><time>2026-04-19T13:14:23.564Z</time></trkpt><trkpt lat="46.27889933990781" lon="12.374559682013468"><ele>793.3333333333334</ele><time>2026-04-19T13:14:24.564Z</time></trkpt><trkpt lat="46.27883889019706" lon="12.37443188838289"><ele>792.6666666666667</ele><time>2026-04-19T13:14:25.564Z</time></trkpt><trkpt lat="46.278785936952865" lon="12.374307033287396"><ele>792.0</ele><time>2026-04-19T13:14:26.564Z</time></trkpt><trkpt lat="46.27873832953486" lon="12.374193131704729"><ele>791.3333333333333</ele><time>2026-04-19T13:14:27.564Z</time></trkpt><trkpt lat="46.278708796267544" lon="12.374099296801873"><ele>790.6666666666666</ele><time>2026-04-19T13:14:28.564Z</time></trkpt><trkpt lat="46.278701961413724" lon="12.374004367805638"><ele>790.0</ele><time>2026-04-19T13:14:29.564Z</time></trkpt><trkpt lat="46.27868287600873" lon="12.373904489256415"><ele>792.6</ele><time>2026-04-19T13:14:30.564Z</time></trkpt><trkpt lat="46.278636109723564" lon="12.373795256631343"><ele>795.2</ele><time>2026-04-19T13:14:31.564Z</time></trkpt><trkpt lat="46.278567770305344" lon="12.373701757757553"><ele>797.8</ele><time>2026-04-19T13:14:32.564Z</time></trkpt><trkpt lat="46.27848841735203" lon="12.37362437924451"><ele>800.4</ele><time>2026-04-19T13:14:33.564Z</time></trkpt><trkpt lat="46.27840365717884" lon="12.373588172613681"><ele>803.0</ele><time>2026-04-19T13:14:34.564Z</time></trkpt><trkpt lat="46.27830982531776" lon="12.373597522855775"><ele>803.0</ele><time>2026-04-19T13:14:35.564Z</time></trkpt><trkpt lat="46.278222719598915" lon="12.37359625966722"><ele>803.0</ele><time>2026-04-19T13:14:36.564Z</time></trkpt><trkpt lat="46.27813076881102" lon="12.37369656547594"><ele>803.0</ele><time>2026-04-19T13:14:37.564Z</time></trkpt><trkpt lat="46.278042411640314" lon="12.373767988299159"><ele>803.0</ele><time>2026-04-19T13:14:38.564Z</time></trkpt><trkpt lat="46.27795708347827" lon="12.373841493388756"><ele>803.0</ele><time>2026-04-19T13:14:39.564Z</time></trkpt><trkpt lat="46.277863070433234" lon="12.373885550612345"><ele>800.4</ele><time>2026-04-19T13:14:40.564Z</time></trkpt><trkpt lat="46.27777690034064" lon="12.373947683245504"><ele>797.8</ele><time>2026-04-19T13:14:41.564Z</time></trkpt><trkpt lat="46.277688434121146" lon="12.374023618396974"><ele>795.2</ele><time>2026-04-19T13:14:42.564Z</time></trkpt><trkpt lat="46.27757456216812" lon="12.374023581826007"><ele>792.6</ele><time>2026-04-19T13:14:43.564Z</time></trkpt><trkpt lat="46.27747961999643" lon="12.373968376176256"><ele>790.0</ele><time>2026-04-19T13:14:44.564Z</time></trkpt><trkpt lat="46.2773776807428" lon="12.37389597760891"><ele>790.5</ele><time>2026-04-19T13:14:45.564Z</time></trkpt><trkpt lat="46.27727629274036" lon="12.373785351852828"><ele>791.0</ele><time>2026-04-19T13:14:46.564Z</time></trkpt><trkpt lat="46.27716421467487" lon="12.373658120328388"><ele>791.5</ele><time>2026-04-19T13:14:47.564Z</time></trkpt><trkpt lat="46.27708027252633" lon="12.373513567376701"><ele>792.0</ele><time>2026-04-19T13:14:48.564Z</time></trkpt><trkpt lat="46.27701945452006" lon="12.373355684419804"><ele>792.0</ele><time>2026-04-19T13:14:49.564Z</time></trkpt><trkpt lat="46.276964095320366" lon="12.373182588271563"><ele>792.0</ele><time>2026-04-19T13:14:50.564Z</time></trkpt><trkpt lat="46.27690585017297" lon="12.373008372198386"><ele>792.0</ele><time>2026-04-19T13:14:51.564Z</time></trkpt><trkpt lat="46.27684263826699" lon="12.372860260741914"><ele>792.0</ele><time>2026-04-19T13:14:52.564Z</time></trkpt><trkpt lat="46.27675819398051" lon="12.372756617397645"><ele>792.75</ele><time>2026-04-19T13:14:53.564Z</time></trkpt><trkpt lat="46.276676019050974" lon="12.37264906423327"><ele>793.5</ele><time>2026-04-19T13:14:54.564Z</time></trkpt><trkpt lat="46.27657283794166" lon="12.372577753150768"><ele>794.25</ele><time>2026-04-19T13:14:55.564Z</time></trkpt><trkpt lat="46.276453841591405" lon="12.372524292537124"><ele>795.0</ele><time>2026-04-19T13:14:56.564Z</time></trkpt><trkpt lat="46.27633040779511" lon="12.372488451250359"><ele>795.0</ele><time>2026-04-19T13:14:57.564Z</time></trkpt><trkpt lat="46.276198819575946" lon="12.372448174999745"><ele>795.0</ele><time>2026-04-19T13:14:58.564Z</time></trkpt><trkpt lat="46.276075932587446" lon="12.372412058392138"><ele>795.0</ele><time>2026-04-19T13:14:59.564Z</time></trkpt><trkpt lat="46.27595553486431" lon="12.372368680074102"><ele>795.0</ele><time>2026-04-19T13:15:00.564Z</time></trkpt><trkpt lat="46.27582909226988" lon="12.37231585635707"><ele>795.0</ele><time>2026-04-19T13:15:01.564Z</time></trkpt><trkpt lat="46.27570541111538" lon="12.372282603635858"><ele>795.0</ele><time>2026-04-19T13:15:02.564Z</time></trkpt><trkpt lat="46.27558550617067" lon="12.372249943488134"><ele>795.0</ele><time>2026-04-19T13:15:03.564Z</time></trkpt><trkpt lat="46.275477594289654" lon="12.372210604116521"><ele>795.0</ele><time>2026-04-19T13:15:04.564Z</time></trkpt><trkpt lat="46.27537429751491" lon="12.372166126071887"><ele>796.4</ele><time>2026-04-19T13:15:05.564Z</time></trkpt><trkpt lat="46.27527864331325" lon="12.3721099231678"><ele>797.8</ele><time>2026-04-19T13:15:06.564Z</time></trkpt><trkpt lat="46.27518614641243" lon="12.372048916120296"><ele>799.2</ele><time>2026-04-19T13:15:07.564Z</time></trkpt><trkpt lat="46.2750903998216" lon="12.37198055477017"><ele>800.6</ele><time>2026-04-19T13:15:08.564Z</time></trkpt><trkpt lat="46.27498748783488" lon="12.371885809309564"><ele>802.0</ele><time>2026-04-19T13:15:09.564Z</time></trkpt><trkpt lat="46.274874010803785" lon="12.371767656841529"><ele>802.0</ele><time>2026-04-19T13:15:10.564Z</time></trkpt><trkpt lat="46.27477573402131" lon="12.37161634026577"><ele>802.0</ele><time>2026-04-19T13:15:11.564Z</time></trkpt><trkpt lat="46.27468344007023" lon="12.371484326664113"><ele>802.0</ele><time>2026-04-19T13:15:12.564Z</time></trkpt><trkpt lat="46.27460485030916" lon="12.371353490491213"><ele>802.0</ele><time>2026-04-19T13:15:13.564Z</time></trkpt><trkpt lat="46.274512239007606" lon="12.37122331240706"><ele>799.75</ele><time>2026-04-19T13:15:14.564Z</time></trkpt><trkpt lat="46.27442967820164" lon="12.371069421173607"><ele>797.5</ele><time>2026-04-19T13:15:15.564Z</time></trkpt><trkpt lat="46.274334329844805" lon="12.370919774347529"><ele>795.25</ele><time>2026-04-19T13:15:16.564Z</time></trkpt><trkpt lat="46.274242219062515" lon="12.370774125025806"><ele>793.0</ele><time>2026-04-19T13:15:17.564Z</time></trkpt><trkpt lat="46.27416493006458" lon="12.370633710138504"><ele>796.25</ele><time>2026-04-19T13:15:18.564Z</time></trkpt><trkpt lat="46.27408728820387" lon="12.370499824669867"><ele>799.5</ele><time>2026-04-19T13:15:19.564Z</time></trkpt><trkpt lat="46.27401692824957" lon="12.370372199172733"><ele>802.75</ele><time>2026-04-19T13:15:20.564Z</time></trkpt><trkpt lat="46.273944831844034" lon="12.37022594390923"><ele>806.0</ele><time>2026-04-19T13:15:21.564Z</time></trkpt><trkpt lat="46.27387389321859" lon="12.370069749216922"><ele>799.25</ele><time>2026-04-19T13:15:22.564Z</time></trkpt><trkpt lat="46.27381167170998" lon="12.36991065752079"><ele>792.5</ele><time>2026-04-19T13:15:23.564Z</time></trkpt><trkpt lat="46.27377467088717" lon="12.369736499030047"><ele>785.75</ele><time>2026-04-19T13:15:24.565Z</time></trkpt><trkpt lat="46.27374156170922" lon="12.369558271269455"><ele>779.0</ele><time>2026-04-19T13:15:25.565Z</time></trkpt><trkpt lat="46.27370239110465" lon="12.369395800457326"><ele>779.2</ele><time>2026-04-19T13:15:26.565Z</time></trkpt><trkpt lat="46.273686605588736" lon="12.369239784158673"><ele>779.4000000000001</ele><time>2026-04-19T13:15:27.565Z</time></trkpt><trkpt lat="46.27367733956595" lon="12.369089141393767"><ele>779.6</ele><time>2026-04-19T13:15:28.565Z</time></trkpt><trkpt lat="46.27372038925976" lon="12.36894488117787"><ele>779.8</ele><time>2026-04-19T13:15:29.565Z</time></trkpt><trkpt lat="46.27375974005082" lon="12.368809027997598"><ele>780.0</ele><time>2026-04-19T13:15:30.565Z</time></trkpt><trkpt lat="46.27379583220403" lon="12.368639447408297"><ele>780.0</ele><time>2026-04-19T13:15:31.565Z</time></trkpt><trkpt lat="46.273851037240654" lon="12.36847300768277"><ele>780.0</ele><time>2026-04-19T13:15:32.565Z</time></trkpt><trkpt lat="46.27389627843114" lon="12.368338018466066"><ele>780.0</ele><time>2026-04-19T13:15:33.565Z</time></trkpt><trkpt lat="46.27392933458501" lon="12.368210255105744"><ele>780.0</ele><time>2026-04-19T13:15:34.565Z</time></trkpt><trkpt lat="46.273930305020784" lon="12.368085372419724"><ele>780.0</ele><time>2026-04-19T13:15:35.565Z</time></trkpt><trkpt lat="46.273903030999385" lon="12.36795831471024"><ele>782.2</ele><time>2026-04-19T13:15:36.565Z</time></trkpt><trkpt lat="46.273846262209204" lon="12.367850971966226"><ele>784.4</ele><time>2026-04-19T13:15:37.565Z</time></trkpt><trkpt lat="46.273767650658165" lon="12.367771291911625"><ele>786.5999999999999</ele><time>2026-04-19T13:15:38.565Z</time></trkpt><trkpt lat="46.273682102278265" lon="12.367727029343328"><ele>788.8</ele><time>2026-04-19T13:15:39.565Z</time></trkpt><trkpt lat="46.27357838713515" lon="12.367717059139707"><ele>791.0</ele><time>2026-04-19T13:15:40.565Z</time></trkpt><trkpt lat="46.27345780907009" lon="12.3677385305808"><ele>791.0</ele><time>2026-04-19T13:15:41.565Z</time></trkpt><trkpt lat="46.27335104844437" lon="12.367767600297372"><ele>791.0</ele><time>2026-04-19T13:15:42.565Z</time></trkpt><trkpt lat="46.27325516399198" lon="12.367775682887089"><ele>791.0</ele><time>2026-04-19T13:15:43.565Z</time></trkpt><trkpt lat="46.27317038107845" lon="12.367768623702933"><ele>791.0</ele><time>2026-04-19T13:15:44.565Z</time></trkpt><trkpt lat="46.2730845596535" lon="12.367746637464787"><ele>791.0</ele><time>2026-04-19T13:15:45.565Z</time></trkpt><trkpt lat="46.273004055211054" lon="12.367681746944859"><ele>788.0</ele><time>2026-04-19T13:15:46.565Z</time></trkpt><trkpt lat="46.27294383573588" lon="12.367558519608396"><ele>785.0</ele><time>2026-04-19T13:15:47.565Z</time></trkpt><trkpt lat="46.272873518179246" lon="12.367428726248376"><ele>782.0</ele><time>2026-04-19T13:15:48.565Z</time></trkpt><trkpt lat="46.27279519043928" lon="12.367304889796268"><ele>779.0</ele><time>2026-04-19T13:15:49.565Z</time></trkpt><trkpt lat="46.27274396510677" lon="12.367176947030421"><ele>776.0</ele><time>2026-04-19T13:15:50.565Z</time></trkpt><trkpt lat="46.272692841052" lon="12.367019387190632"><ele>776.0</ele><time>2026-04-19T13:15:51.565Z</time></trkpt><trkpt lat="46.27264342725833" lon="12.366816726113713"><ele>776.0</ele><time>2026-04-19T13:15:52.565Z</time></trkpt><trkpt lat="46.27259613764217" lon="12.36660632376429"><ele>776.0</ele><time>2026-04-19T13:15:53.565Z</time></trkpt><trkpt lat="46.27255802913899" lon="12.366418998747445"><ele>776.0</ele><time>2026-04-19T13:15:54.565Z</time></trkpt><trkpt lat="46.272517251018755" lon="12.366241674184112"><ele>777.25</ele><time>2026-04-19T13:15:55.565Z</time></trkpt><trkpt lat="46.27248824881222" lon="12.366058738723094"><ele>778.5</ele><time>2026-04-19T13:15:56.565Z</time></trkpt><trkpt lat="46.27245058081478" lon="12.365884836543618"><ele>779.75</ele><time>2026-04-19T13:15:57.565Z</time></trkpt><trkpt lat="46.27241127688185" lon="12.365703103360008"><ele>781.0</ele><time>2026-04-19T13:15:58.565Z</time></trkpt><trkpt lat="46.272389885138644" lon="12.365523875893391"><ele>782.5</ele><time>2026-04-19T13:15:59.565Z</time></trkpt><trkpt lat="46.27236992878372" lon="12.3653223871741"><ele>784.0</ele><time>2026-04-19T13:16:00.565Z</time></trkpt><trkpt lat="46.27235639644722" lon="12.365110357175709"><ele>785.5</ele><time>2026-04-19T13:16:01.565Z</time></trkpt><trkpt lat="46.27234373486451" lon="12.364897040290272"><ele>787.0</ele><time>2026-04-19T13:16:02.565Z</time></trkpt><trkpt lat="46.27231653645202" lon="12.364703622678718"><ele>787.25</ele><time>2026-04-19T13:16:03.565Z</time></trkpt><trkpt lat="46.27232116487278" lon="12.364516790912587"><ele>787.5</ele><time>2026-04-19T13:16:04.565Z</time></trkpt><trkpt lat="46.272310016206" lon="12.36432896315565"><ele>787.75</ele><time>2026-04-19T13:16:05.565Z</time></trkpt><trkpt lat="46.2722811497031" lon="12.364148319730816"><ele>788.0</ele><time>2026-04-19T13:16:06.565Z</time></trkpt><trkpt lat="46.272269307923786" lon="12.36396870829275"><ele>784.0</ele><time>2026-04-19T13:16:07.565Z</time></trkpt><trkpt lat="46.27226639316862" lon="12.363800379887188"><ele>780.0</ele><time>2026-04-19T13:16:08.565Z</time></trkpt><trkpt lat="46.27224892442076" lon="12.363644738813074"><ele>776.0</ele><time>2026-04-19T13:16:09.565Z</time></trkpt><trkpt lat="46.27223724677577" lon="12.363505902796087"><ele>772.0</ele><time>2026-04-19T13:16:10.565Z</time></trkpt><trkpt lat="46.27219703660561" lon="12.363385861422424"><ele>768.0</ele><time>2026-04-19T13:16:11.565Z</time></trkpt><trkpt lat="46.27214119629629" lon="12.363267374830682"><ele>768.0</ele><time>2026-04-19T13:16:12.565Z</time></trkpt><trkpt lat="46.27203654036083" lon="12.36320392790996"><ele>768.0</ele><time>2026-04-19T13:16:13.565Z</time></trkpt><trkpt lat="46.271926589442835" lon="12.363128349058035"><ele>768.0</ele><time>2026-04-19T13:16:14.565Z</time></trkpt><trkpt lat="46.27181304108963" lon="12.363068693292094"><ele>768.0</ele><time>2026-04-19T13:16:15.565Z</time></trkpt><trkpt lat="46.27170284054196" lon="12.36298171849417"><ele>767.25</ele><time>2026-04-19T13:16:16.565Z</time></trkpt><trkpt lat="46.27160127248094" lon="12.36290432216806"><ele>766.5</ele><time>2026-04-19T13:16:17.565Z</time></trkpt><trkpt lat="46.271497506386915" lon="12.362822115217952"><ele>765.75</ele><time>2026-04-19T13:16:18.565Z</time></trkpt><trkpt lat="46.271387250985676" lon="12.362764158014084"><ele>765.0</ele><time>2026-04-19T13:16:19.565Z</time></trkpt><trkpt lat="46.27127786689822" lon="12.362725417859538"><ele>765.0</ele><time>2026-04-19T13:16:20.565Z</time></trkpt><trkpt lat="46.271180103761495" lon="12.36269722018709"><ele>765.0</ele><time>2026-04-19T13:16:21.565Z</time></trkpt><trkpt lat="46.271085615041514" lon="12.36266184916702"><ele>765.0</ele><time>2026-04-19T13:16:22.565Z</time></trkpt><trkpt lat="46.27100720890059" lon="12.36258884336627"><ele>765.0</ele><time>2026-04-19T13:16:23.565Z</time></trkpt><trkpt lat="46.27093638203921" lon="12.36252733885785"><ele>765.0</ele><time>2026-04-19T13:16:24.565Z</time></trkpt><trkpt lat="46.27092584447652" lon="12.362385354402797"><ele>765.0</ele><time>2026-04-19T13:16:25.565Z</time></trkpt><trkpt lat="46.27090096101366" lon="12.362219386330631"><ele>765.0</ele><time>2026-04-19T13:16:26.565Z</time></trkpt><trkpt lat="46.270898341150065" lon="12.362028199055647"><ele>765.0</ele><time>2026-04-19T13:16:27.565Z</time></trkpt><trkpt lat="46.27091723068775" lon="12.361811407067652"><ele>765.0</ele><time>2026-04-19T13:16:28.565Z</time></trkpt><trkpt lat="46.27094823097175" lon="12.361587696042145"><ele>765.5</ele><time>2026-04-19T13:16:29.565Z</time></trkpt><trkpt lat="46.27098009287037" lon="12.361391708948616"><ele>766.0</ele><time>2026-04-19T13:16:30.565Z</time></trkpt><trkpt lat="46.27103031935664" lon="12.361224009250835"><ele>766.5</ele><time>2026-04-19T13:16:31.565Z</time></trkpt><trkpt lat="46.27110161505491" lon="12.361107499246613"><ele>767.0</ele><time>2026-04-19T13:16:32.565Z</time></trkpt><trkpt lat="46.271172574520484" lon="12.360987127272711"><ele>767.0</ele><time>2026-04-19T13:16:33.565Z</time></trkpt><trkpt lat="46.27122035886586" lon="12.36084637796576"><ele>767.0</ele><time>2026-04-19T13:16:34.565Z</time></trkpt><trkpt lat="46.271257113996754" lon="12.36068280637905"><ele>767.0</ele><time>2026-04-19T13:16:35.565Z</time></trkpt><trkpt lat="46.2712722347596" lon="12.360505167623863"><ele>767.0</ele><time>2026-04-19T13:16:36.565Z</time></trkpt><trkpt lat="46.27127665973976" lon="12.360319478159942"><ele>766.5</ele><time>2026-04-19T13:16:37.565Z</time></trkpt><trkpt lat="46.27128029652009" lon="12.360138217944074"><ele>766.0</ele><time>2026-04-19T13:16:38.565Z</time></trkpt><trkpt lat="46.27128780820528" lon="12.359962036927165"><ele>765.5</ele><time>2026-04-19T13:16:39.565Z</time></trkpt><trkpt lat="46.27130268466662" lon="12.359785149085118"><ele>765.0</ele><time>2026-04-19T13:16:40.565Z</time></trkpt><trkpt lat="46.27131214046181" lon="12.35960867520689"><ele>767.0</ele><time>2026-04-19T13:16:41.565Z</time></trkpt><trkpt lat="46.27131496174589" lon="12.359426519210443"><ele>769.0</ele><time>2026-04-19T13:16:42.565Z</time></trkpt><trkpt lat="46.27130710361858" lon="12.359244011079424"><ele>771.0</ele><time>2026-04-19T13:16:43.565Z</time></trkpt><trkpt lat="46.271274374647405" lon="12.359067063468736"><ele>773.0</ele><time>2026-04-19T13:16:44.565Z</time></trkpt><trkpt lat="46.27119618913369" lon="12.358912014284348"><ele>775.5</ele><time>2026-04-19T13:16:45.565Z</time></trkpt><trkpt lat="46.27114087747741" lon="12.358751036435802"><ele>778.0</ele><time>2026-04-19T13:16:46.565Z</time></trkpt><trkpt lat="46.27108356654522" lon="12.358595795519031"><ele>780.5</ele><time>2026-04-19T13:16:47.565Z</time></trkpt><trkpt lat="46.27103598535788" lon="12.358449234870077"><ele>783.0</ele><time>2026-04-19T13:16:48.565Z</time></trkpt><trkpt lat="46.270996353244726" lon="12.358296953844041"><ele>783.0</ele><time>2026-04-19T13:16:49.565Z</time></trkpt><trkpt lat="46.27096882633943" lon="12.358160917316745"><ele>783.0</ele><time>2026-04-19T13:16:50.565Z</time></trkpt><trkpt lat="46.27095030133591" lon="12.358022655093448"><ele>783.0</ele><time>2026-04-19T13:16:51.565Z</time></trkpt><trkpt lat="46.2709237538155" lon="12.357822243748156"><ele>783.0</ele><time>2026-04-19T13:16:52.565Z</time></trkpt><trkpt lat="46.27089837790517" lon="12.35760716866095"><ele>785.0</ele><time>2026-04-19T13:16:53.565Z</time></trkpt><trkpt lat="46.27088101063402" lon="12.357410274320637"><ele>787.0</ele><time>2026-04-19T13:16:54.565Z</time></trkpt><trkpt lat="46.270870324421864" lon="12.357219598245646"><ele>789.0</ele><time>2026-04-19T13:16:55.565Z</time></trkpt><trkpt lat="46.27086907479777" lon="12.357043574473792"><ele>791.0</ele><time>2026-04-19T13:16:56.565Z</time></trkpt><trkpt lat="46.270866305166784" lon="12.356935328416245"><ele>793.0</ele><time>2026-04-19T13:16:57.565Z</time></trkpt><trkpt lat="46.270892947373945" lon="12.35673821166354"><ele>795.0</ele><time>2026-04-19T13:16:58.565Z</time></trkpt><trkpt lat="46.270887221266655" lon="12.356385276084971"><ele>797.0</ele><time>2026-04-19T13:16:59.565Z</time></trkpt><trkpt lat="46.270838392034534" lon="12.356083470128057"><ele>801.0</ele><time>2026-04-19T13:17:00.565Z</time></trkpt><trkpt lat="46.27076536582962" lon="12.355846920145188"><ele>805.0</ele><time>2026-04-19T13:17:01.565Z</time></trkpt><trkpt lat="46.270691560308215" lon="12.355441919046271"><ele>812.3333333333333</ele><time>2026-04-19T13:17:02.565Z</time></trkpt><trkpt lat="46.27061700376579" lon="12.355233471317657"><ele>819.6666666666667</ele><time>2026-04-19T13:17:03.565Z</time></trkpt><trkpt lat="46.27056599392371" lon="12.355084562683388"><ele>827.0</ele><time>2026-04-19T13:17:04.565Z</time></trkpt><trkpt lat="46.270457268971676" lon="12.354735455574113"><ele>828.6666666666667</ele><time>2026-04-19T13:17:05.565Z</time></trkpt><trkpt lat="46.27037914936218" lon="12.354449822121776"><ele>830.3333333333333</ele><time>2026-04-19T13:17:06.565Z</time></trkpt><trkpt lat="46.27032405212344" lon="12.354226513694565"><ele>832.0</ele><time>2026-04-19T13:17:07.565Z</time></trkpt><trkpt lat="46.27022362283428" lon="12.353808462792312"><ele>832.0</ele><time>2026-04-19T13:17:08.565Z</time></trkpt><trkpt lat="46.270202736777364" lon="12.353998098429523"><ele>832.0</ele><time>2026-04-19T13:17:09.565Z</time></trkpt><trkpt lat="46.2701508663375" lon="12.353873361055244"><ele>832.0</ele><time>2026-04-19T13:17:10.565Z</time></trkpt><trkpt lat="46.270105941340844" lon="12.35376946865681"><ele>832.0</ele><time>2026-04-19T13:17:11.565Z</time></trkpt><trkpt lat="46.270031020766524" lon="12.35365507838322"><ele>832.0</ele><time>2026-04-19T13:17:12.565Z</time></trkpt><trkpt lat="46.26990636450211" lon="12.353576926667042"><ele>832.0</ele><time>2026-04-19T13:17:13.565Z</time></trkpt><trkpt lat="46.269789655707804" lon="12.35352703170921"><ele>832.0</ele><time>2026-04-19T13:17:14.565Z</time></trkpt><trkpt lat="46.2696874938632" lon="12.353473821258088"><ele>832.0</ele><time>2026-04-19T13:17:15.565Z</time></trkpt><trkpt lat="46.26959090527344" lon="12.35341885107033"><ele>832.0</ele><time>2026-04-19T13:17:16.565Z</time></trkpt><trkpt lat="46.269494181484895" lon="12.35337251759358"><ele>832.0</ele><time>2026-04-19T13:17:17.565Z</time></trkpt><trkpt lat="46.2694083991883" lon="12.353294476260798"><ele>825.4000000000001</ele><time>2026-04-19T13:17:18.565Z</time></trkpt><trkpt lat="46.2693573604126" lon="12.353192478505973"><ele>818.8000000000001</ele><time>2026-04-19T13:17:19.565Z</time></trkpt><trkpt lat="46.269303202643805" lon="12.35308812705098"><ele>812.2</ele><time>2026-04-19T13:17:20.565Z</time></trkpt><trkpt lat="46.269278962714196" lon="12.352964142530086"><ele>805.6</ele><time>2026-04-19T13:17:21.565Z</time></trkpt><trkpt lat="46.26926771986754" lon="12.352824107229507"><ele>799.0</ele><time>2026-04-19T13:17:22.565Z</time></trkpt><trkpt lat="46.26929037349939" lon="12.352692318823701"><ele>799.0</ele><time>2026-04-19T13:17:23.565Z</time></trkpt><trkpt lat="46.269318523933805" lon="12.352520125340929"><ele>799.0</ele><time>2026-04-19T13:17:24.565Z</time></trkpt><trkpt lat="46.26935186263481" lon="12.352292232415259"><ele>799.0</ele><time>2026-04-19T13:17:25.565Z</time></trkpt><trkpt lat="46.269391558536064" lon="12.35202359185043"><ele>798.6666666666666</ele><time>2026-04-19T13:17:26.565Z</time></trkpt><trkpt lat="46.26943349938458" lon="12.35174498126235"><ele>798.3333333333333</ele><time>2026-04-19T13:17:27.565Z</time></trkpt><trkpt lat="46.26945483218329" lon="12.351466244133215"><ele>798.0</ele><time>2026-04-19T13:17:28.565Z</time></trkpt><trkpt lat="46.26944266841436" lon="12.351187517311"><ele>798.0</ele><time>2026-04-19T13:17:29.565Z</time></trkpt><trkpt lat="46.26940533298537" lon="12.350940166694889"><ele>798.0</ele><time>2026-04-19T13:17:30.566Z</time></trkpt><trkpt lat="46.26936610382045" lon="12.35072742309805"><ele>798.0</ele><time>2026-04-19T13:17:31.566Z</time></trkpt><trkpt lat="46.26931122393293" lon="12.350507468383888"><ele>800.25</ele><time>2026-04-19T13:17:32.566Z</time></trkpt><trkpt lat="46.269288635370316" lon="12.350313412059894"><ele>802.5</ele><time>2026-04-19T13:17:33.566Z</time></trkpt><trkpt lat="46.26925497284627" lon="12.350130783197415"><ele>804.75</ele><time>2026-04-19T13:17:34.566Z</time></trkpt><trkpt lat="46.26920676444581" lon="12.349953515456136"><ele>807.0</ele><time>2026-04-19T13:17:35.566Z</time></trkpt><trkpt lat="46.2691738315207" lon="12.34976960559263"><ele>808.25</ele><time>2026-04-19T13:17:36.566Z</time></trkpt><trkpt lat="46.269144245370775" lon="12.349579299938215"><ele>809.5</ele><time>2026-04-19T13:17:37.566Z</time></trkpt><trkpt lat="46.26911269957544" lon="12.349391557881612"><ele>810.75</ele><time>2026-04-19T13:17:38.566Z</time></trkpt><trkpt lat="46.26906899495563" lon="12.349217649905748"><ele>812.0</ele><time>2026-04-19T13:17:39.567Z</time></trkpt><trkpt lat="46.26902227382198" lon="12.349043397039765"><ele>814.0</ele><time>2026-04-19T13:17:40.567Z</time></trkpt><trkpt lat="46.26896526160271" lon="12.348866593895249"><ele>816.0</ele><time>2026-04-19T13:17:41.567Z</time></trkpt><trkpt lat="46.26889532657548" lon="12.348714055866877"><ele>818.0</ele><time>2026-04-19T13:17:42.567Z</time></trkpt><trkpt lat="46.268807682780455" lon="12.348614360395967"><ele>820.0</ele><time>2026-04-19T13:17:43.567Z</time></trkpt><trkpt lat="46.26876942914875" lon="12.34850078423009"><ele>819.4</ele><time>2026-04-19T13:17:44.567Z</time></trkpt><trkpt lat="46.26873090244462" lon="12.348385303189822"><ele>818.8</ele><time>2026-04-19T13:17:45.567Z</time></trkpt><trkpt lat="46.26871268057763" lon="12.34825833111189"><ele>818.2</ele><time>2026-04-19T13:17:46.567Z</time></trkpt><trkpt lat="46.26871273838155" lon="12.348113705585257"><ele>817.6</ele><time>2026-04-19T13:17:47.567Z</time></trkpt><trkpt lat="46.26873395811161" lon="12.347953111394995"><ele>817.0</ele><time>2026-04-19T13:17:48.567Z</time></trkpt><trkpt lat="46.268802221841355" lon="12.347796966525625"><ele>817.0</ele><time>2026-04-19T13:17:49.567Z</time></trkpt><trkpt lat="46.26888656857445" lon="12.347613396440707"><ele>817.0</ele><time>2026-04-19T13:17:50.567Z</time></trkpt><trkpt lat="46.26895666692046" lon="12.3474453462493"><ele>817.0</ele><time>2026-04-19T13:17:51.567Z</time></trkpt><trkpt lat="46.26902537905184" lon="12.347274566251977"><ele>817.0</ele><time>2026-04-19T13:17:52.567Z</time></trkpt><trkpt lat="46.26909333238151" lon="12.34708668680991"><ele>815.5</ele><time>2026-04-19T13:17:53.567Z</time></trkpt><trkpt lat="46.269155574174114" lon="12.346887732503648"><ele>814.0</ele><time>2026-04-19T13:17:54.567Z</time></trkpt><trkpt lat="46.26921022092729" lon="12.346707033225238"><ele>812.5</ele><time>2026-04-19T13:17:55.567Z</time></trkpt><trkpt lat="46.269256990854316" lon="12.34651679192235"><ele>811.0</ele><time>2026-04-19T13:17:56.567Z</time></trkpt><trkpt lat="46.26931067952248" lon="12.346311470168105"><ele>807.3333333333333</ele><time>2026-04-19T13:17:57.567Z</time></trkpt><trkpt lat="46.26937980937091" lon="12.34611594975956"><ele>803.6666666666667</ele><time>2026-04-19T13:17:58.567Z</time></trkpt><trkpt lat="46.26942090707123" lon="12.345893929525294"><ele>800.0</ele><time>2026-04-19T13:17:59.567Z</time></trkpt><trkpt lat="46.26947095576365" lon="12.345657961247689"><ele>799.0</ele><time>2026-04-19T13:18:00.567Z</time></trkpt><trkpt lat="46.26951130042631" lon="12.345416103551631"><ele>798.0</ele><time>2026-04-19T13:18:01.567Z</time></trkpt><trkpt lat="46.26956453564777" lon="12.345206116686764"><ele>797.0</ele><time>2026-04-19T13:18:02.567Z</time></trkpt><trkpt lat="46.269583909453374" lon="12.344989735999917"><ele>797.0</ele><time>2026-04-19T13:18:03.567Z</time></trkpt><trkpt lat="46.26963484984981" lon="12.344783726099845"><ele>797.0</ele><time>2026-04-19T13:18:04.567Z</time></trkpt><trkpt lat="46.26965302644787" lon="12.344576076617237"><ele>797.0</ele><time>2026-04-19T13:18:05.567Z</time></trkpt><trkpt lat="46.269691216517415" lon="12.344378864095107"><ele>797.0</ele><time>2026-04-19T13:18:06.567Z</time></trkpt><trkpt lat="46.2697224380717" lon="12.344173070233818"><ele>800.3333333333334</ele><time>2026-04-19T13:18:07.567Z</time></trkpt><trkpt lat="46.26976635319088" lon="12.343962085343177"><ele>803.6666666666667</ele><time>2026-04-19T13:18:08.567Z</time></trkpt><trkpt lat="46.269801016420736" lon="12.343752908800084"><ele>807.0</ele><time>2026-04-19T13:18:09.567Z</time></trkpt><trkpt lat="46.269829830474634" lon="12.343536828111576"><ele>808.75</ele><time>2026-04-19T13:18:10.567Z</time></trkpt><trkpt lat="46.2698757981584" lon="12.343347282508223"><ele>810.5</ele><time>2026-04-19T13:18:11.567Z</time></trkpt><trkpt lat="46.26989009825604" lon="12.343166575983421"><ele>812.25</ele><time>2026-04-19T13:18:12.567Z</time></trkpt><trkpt lat="46.269920148728126" lon="12.342995918815479"><ele>814.0</ele><time>2026-04-19T13:18:13.567Z</time></trkpt><trkpt lat="46.26995852571187" lon="12.342804611788932"><ele>813.0</ele><time>2026-04-19T13:18:14.567Z</time></trkpt><trkpt lat="46.26999733015773" lon="12.342588194579989"><ele>812.0</ele><time>2026-04-19T13:18:15.567Z</time></trkpt><trkpt lat="46.2700233784478" lon="12.34235198867947"><ele>811.0</ele><time>2026-04-19T13:18:16.567Z</time></trkpt><trkpt lat="46.270041248108214" lon="12.342126335822018"><ele>811.0</ele><time>2026-04-19T13:18:17.567Z</time></trkpt><trkpt lat="46.27005656865399" lon="12.34192404212141"><ele>811.0</ele><time>2026-04-19T13:18:18.567Z</time></trkpt><trkpt lat="46.27006566296049" lon="12.341725732277247"><ele>811.0</ele><time>2026-04-19T13:18:19.567Z</time></trkpt><trkpt lat="46.270092829033494" lon="12.341538270494926"><ele>811.0</ele><time>2026-04-19T13:18:20.567Z</time></trkpt><trkpt lat="46.270096252649694" lon="12.341338083747958"><ele>809.5</ele><time>2026-04-19T13:18:21.567Z</time></trkpt><trkpt lat="46.27011557756912" lon="12.341134329261948"><ele>808.0</ele><time>2026-04-19T13:18:22.567Z</time></trkpt><trkpt lat="46.27012430657804" lon="12.340938378893368"><ele>806.5</ele><time>2026-04-19T13:18:23.567Z</time></trkpt><trkpt lat="46.27013397520423" lon="12.340749898742608"><ele>805.0</ele><time>2026-04-19T13:18:24.567Z</time></trkpt><trkpt lat="46.27014783768778" lon="12.340558678642548"><ele>803.0</ele><time>2026-04-19T13:18:25.567Z</time></trkpt><trkpt lat="46.27015977173905" lon="12.340365092991005"><ele>801.0</ele><time>2026-04-19T13:18:26.567Z</time></trkpt><trkpt lat="46.27017086174604" lon="12.340159205508774"><ele>799.0</ele><time>2026-04-19T13:18:27.567Z</time></trkpt><trkpt lat="46.270173099340596" lon="12.33994063222198"><ele>797.0</ele><time>2026-04-19T13:18:28.567Z</time></trkpt><trkpt lat="46.27014097658373" lon="12.33970587821217"><ele>797.0</ele><time>2026-04-19T13:18:29.567Z</time></trkpt><trkpt lat="46.27008216999954" lon="12.339485381295818"><ele>797.0</ele><time>2026-04-19T13:18:30.567Z</time></trkpt><trkpt lat="46.26998290330402" lon="12.33927478241184"><ele>797.0</ele><time>2026-04-19T13:18:31.567Z</time></trkpt><trkpt lat="46.26986158615502" lon="12.339070462889415"><ele>796.0</ele><time>2026-04-19T13:18:32.567Z</time></trkpt><trkpt lat="46.26973586416888" lon="12.338880751100746"><ele>795.0</ele><time>2026-04-19T13:18:33.567Z</time></trkpt><trkpt lat="46.26962328026949" lon="12.338695928871063"><ele>794.0</ele><time>2026-04-19T13:18:34.567Z</time></trkpt><trkpt lat="46.26952517985179" lon="12.338528753451248"><ele>794.0</ele><time>2026-04-19T13:18:35.567Z</time></trkpt><trkpt lat="46.26944006400745" lon="12.338389678776377"><ele>794.0</ele><time>2026-04-19T13:18:36.567Z</time></trkpt><trkpt lat="46.269384830650395" lon="12.338229886709245"><ele>794.0</ele><time>2026-04-19T13:18:37.567Z</time></trkpt><trkpt lat="46.26930754479632" lon="12.338094642393655"><ele>794.0</ele><time>2026-04-19T13:18:38.567Z</time></trkpt><trkpt lat="46.269230950696894" lon="12.337960548085537"><ele>794.0</ele><time>2026-04-19T13:18:39.567Z</time></trkpt><trkpt lat="46.269148081886335" lon="12.337814825706069"><ele>794.0</ele><time>2026-04-19T13:18:40.567Z</time></trkpt><trkpt lat="46.26906576776253" lon="12.337670529204441"><ele>794.0</ele><time>2026-04-19T13:18:41.567Z</time></trkpt><trkpt lat="46.268986520561945" lon="12.337533010382652"><ele>794.0</ele><time>2026-04-19T13:18:42.567Z</time></trkpt><trkpt lat="46.268912552667985" lon="12.337404462775291"><ele>793.2</ele><time>2026-04-19T13:18:43.567Z</time></trkpt><trkpt lat="46.26882804679642" lon="12.33729080226315"><ele>792.4000000000001</ele><time>2026-04-19T13:18:44.567Z</time></trkpt><trkpt lat="46.26875623704788" lon="12.337151602014762"><ele>791.6</ele><time>2026-04-19T13:18:45.567Z</time></trkpt><trkpt lat="46.26871642584123" lon="12.336999920306855"><ele>790.8</ele><time>2026-04-19T13:18:46.567Z</time></trkpt><trkpt lat="46.26868277377434" lon="12.336876006177057"><ele>790.0</ele><time>2026-04-19T13:18:47.567Z</time></trkpt><trkpt lat="46.268665548409935" lon="12.336770127232613"><ele>788.2</ele><time>2026-04-19T13:18:48.567Z</time></trkpt><trkpt lat="46.26865169807454" lon="12.33661794106724"><ele>786.4</ele><time>2026-04-19T13:18:50.567Z</time></trkpt><trkpt lat="46.26864293765704" lon="12.336522112432615"><ele>784.5999999999999</ele><time>2026-04-19T13:18:53.567Z</time></trkpt><trkpt lat="46.268550839783806" lon="12.336433110011315"><ele>782.8</ele><time>2026-04-19T13:18:55.567Z</time></trkpt><trkpt lat="46.268551830935536" lon="12.336318058369226"><ele>781.0</ele><time>2026-04-19T13:18:57.567Z</time></trkpt><trkpt lat="46.26857397799035" lon="12.336180146638169"><ele>778.6666666666666</ele><time>2026-04-19T13:18:59.567Z</time></trkpt><trkpt lat="46.26859915190973" lon="12.336047521970663"><ele>776.3333333333333</ele><time>2026-04-19T13:19:01.567Z</time></trkpt><trkpt lat="46.2686003160761" lon="12.335948368203113"><ele>774.0</ele><time>2026-04-19T13:19:03.567Z</time></trkpt><trkpt lat="46.268647585863825" lon="12.335877327619283"><ele>771.6666666666666</ele><time>2026-04-19T13:19:05.567Z</time></trkpt><trkpt lat="46.26865959077411" lon="12.335783324328625"><ele>769.3333333333333</ele><time>2026-04-19T13:19:09.567Z</time></trkpt><trkpt lat="46.26852913997611" lon="12.335705647536933"><ele>767.0</ele><time>2026-04-19T13:19:15.567Z</time></trkpt><trkpt lat="46.26873544010482" lon="12.335741539236128"><ele>767.0</ele><time>2026-04-19T13:36:32.57Z</time></trkpt><trkpt lat="46.26888528793302" lon="12.335747206183221"><ele>767.0</ele><time>2026-04-19T13:36:45.57Z</time></trkpt><trkpt lat="46.26897874185913" lon="12.33570979992662"><ele>767.0</ele><time>2026-04-19T13:36:46.57Z</time></trkpt><trkpt lat="46.269063242584586" lon="12.335664773789357"><ele>767.0</ele><time>2026-04-19T13:36:47.57Z</time></trkpt><trkpt lat="46.26913525469107" lon="12.335603401253005"><ele>767.0</ele><time>2026-04-19T13:36:48.57Z</time></trkpt><trkpt lat="46.26924454273574" lon="12.3355452267565"><ele>764.6</ele><time>2026-04-19T13:36:49.57Z</time></trkpt><trkpt lat="46.2693591955302" lon="12.335532777666431"><ele>762.2</ele><time>2026-04-19T13:36:51.57Z</time></trkpt><trkpt lat="46.26944351512025" lon="12.335506107186157"><ele>759.8</ele><time>2026-04-19T13:36:52.57Z</time></trkpt><trkpt lat="46.269524107647754" lon="12.33547484003181"><ele>757.4</ele><time>2026-04-19T13:36:53.57Z</time></trkpt><trkpt lat="46.269599963341435" lon="12.335424822145841"><ele>755.0</ele><time>2026-04-19T13:36:54.57Z</time></trkpt><trkpt lat="46.26967668102807" lon="12.335358900920816"><ele>755.0</ele><time>2026-04-19T13:36:55.57Z</time></trkpt><trkpt lat="46.269742904347474" lon="12.335287947427862"><ele>755.0</ele><time>2026-04-19T13:36:56.57Z</time></trkpt><trkpt lat="46.26980147375582" lon="12.335203464916416"><ele>755.0</ele><time>2026-04-19T13:36:57.57Z</time></trkpt><trkpt lat="46.26984181727521" lon="12.335110789874415"><ele>755.0</ele><time>2026-04-19T13:36:58.57Z</time></trkpt><trkpt lat="46.269893686698985" lon="12.334983918451375"><ele>755.0</ele><time>2026-04-19T13:36:59.57Z</time></trkpt><trkpt lat="46.269938066177296" lon="12.33485471369817"><ele>755.0</ele><time>2026-04-19T13:37:00.57Z</time></trkpt><trkpt lat="46.26996889534375" lon="12.334721970586005"><ele>760.5</ele><time>2026-04-19T13:37:01.57Z</time></trkpt><trkpt lat="46.269998348490496" lon="12.334591130218627"><ele>766.0</ele><time>2026-04-19T13:37:02.57Z</time></trkpt><trkpt lat="46.270030622609944" lon="12.334461291792998"><ele>771.5</ele><time>2026-04-19T13:37:03.57Z</time></trkpt><trkpt lat="46.27006241074986" lon="12.334339729412951"><ele>777.0</ele><time>2026-04-19T13:37:04.57Z</time></trkpt><trkpt lat="46.2700959353656" lon="12.334228002842375"><ele>782.5000000000001</ele><time>2026-04-19T13:37:05.57Z</time></trkpt><trkpt lat="46.27011109674878" lon="12.334115333786366"><ele>788.0</ele><time>2026-04-19T13:37:06.57Z</time></trkpt><trkpt lat="46.2701265847797" lon="12.334002266369145"><ele>788.0000000000001</ele><time>2026-04-19T13:37:07.57Z</time></trkpt><trkpt lat="46.27011679556962" lon="12.333891426984614"><ele>788.0</ele><time>2026-04-19T13:37:08.57Z</time></trkpt><trkpt lat="46.27008688014886" lon="12.333783207877875"><ele>788.0</ele><time>2026-04-19T13:37:09.57Z</time></trkpt><trkpt lat="46.27002466961588" lon="12.33370408025171"><ele>788.0</ele><time>2026-04-19T13:37:10.57Z</time></trkpt><trkpt lat="46.26995056561467" lon="12.333653323013074"><ele>788.0000000000001</ele><time>2026-04-19T13:37:11.57Z</time></trkpt><trkpt lat="46.26987022779129" lon="12.333624037674882"><ele>788.0</ele><time>2026-04-19T13:37:12.57Z</time></trkpt><trkpt lat="46.26972920906299" lon="12.333649671591234"><ele>779.6666666666667</ele><time>2026-04-19T13:37:13.57Z</time></trkpt><trkpt lat="46.269663673451724" lon="12.333637602804634"><ele>771.3333333333334</ele><time>2026-04-19T13:37:14.57Z</time></trkpt><trkpt lat="46.269590884016736" lon="12.333625770944044"><ele>763.0</ele><time>2026-04-19T13:37:15.57Z</time></trkpt><trkpt lat="46.2695078693245" lon="12.333534856054824"><ele>754.6666666666667</ele><time>2026-04-19T13:37:17.57Z</time></trkpt><trkpt lat="46.26947479764216" lon="12.333411341579824"><ele>746.3333333333334</ele><time>2026-04-19T13:37:18.57Z</time></trkpt><trkpt lat="46.26946959878437" lon="12.333250804011971"><ele>738.0</ele><time>2026-04-19T13:37:19.57Z</time></trkpt><trkpt lat="46.269484258291264" lon="12.333088745092075"><ele>738.0</ele><time>2026-04-19T13:37:20.57Z</time></trkpt><trkpt lat="46.26950910241649" lon="12.332886962721346"><ele>738.0</ele><time>2026-04-19T13:37:21.57Z</time></trkpt><trkpt lat="46.269564995165126" lon="12.33271414914862"><ele>738.0</ele><time>2026-04-19T13:37:22.57Z</time></trkpt><trkpt lat="46.26957692672787" lon="12.332550192116193"><ele>738.0</ele><time>2026-04-19T13:37:23.57Z</time></trkpt><trkpt lat="46.26956621366053" lon="12.332398919690553"><ele>738.0</ele><time>2026-04-19T13:37:24.57Z</time></trkpt><trkpt lat="46.26948170663575" lon="12.332228814467655"><ele>738.0</ele><time>2026-04-19T13:37:25.57Z</time></trkpt><trkpt lat="46.26943198886181" lon="12.332071026296147"><ele>738.0</ele><time>2026-04-19T13:37:26.57Z</time></trkpt><trkpt lat="46.26939045551725" lon="12.331909529441255"><ele>738.0</ele><time>2026-04-19T13:37:27.57Z</time></trkpt><trkpt lat="46.26934079029343" lon="12.331766737501843"><ele>738.8</ele><time>2026-04-19T13:37:28.57Z</time></trkpt><trkpt lat="46.26928487050702" lon="12.331628693116317"><ele>739.5999999999999</ele><time>2026-04-19T13:37:29.57Z</time></trkpt><trkpt lat="46.269228951936334" lon="12.331482537533244"><ele>740.4000000000001</ele><time>2026-04-19T13:37:30.57Z</time></trkpt><trkpt lat="46.26918324095993" lon="12.331346817813237"><ele>741.2</ele><time>2026-04-19T13:37:31.57Z</time></trkpt><trkpt lat="46.26913880159075" lon="12.331232314402262"><ele>742.0</ele><time>2026-04-19T13:37:32.57Z</time></trkpt><trkpt lat="46.26909640492531" lon="12.33111696580425"><ele>742.1666666666667</ele><time>2026-04-19T13:37:33.57Z</time></trkpt><trkpt lat="46.269051309542725" lon="12.331003116671079"><ele>742.3333333333334</ele><time>2026-04-19T13:37:34.57Z</time></trkpt><trkpt lat="46.26900884931066" lon="12.33088782024285"><ele>742.5</ele><time>2026-04-19T13:37:35.57Z</time></trkpt><trkpt lat="46.26897796826632" lon="12.330765850705749"><ele>742.6666666666666</ele><time>2026-04-19T13:37:36.57Z</time></trkpt><trkpt lat="46.2689307698908" lon="12.330665371173902"><ele>742.8333333333333</ele><time>2026-04-19T13:37:37.57Z</time></trkpt><trkpt lat="46.268878288050885" lon="12.330570406342236"><ele>743.0</ele><time>2026-04-19T13:37:38.57Z</time></trkpt><trkpt lat="46.268820303224345" lon="12.330481838090414"><ele>740.0</ele><time>2026-04-19T13:37:39.57Z</time></trkpt><trkpt lat="46.26876021624098" lon="12.330398029499023"><ele>737.0</ele><time>2026-04-19T13:37:40.57Z</time></trkpt><trkpt lat="46.268693550678435" lon="12.330324198586982"><ele>734.0</ele><time>2026-04-19T13:37:41.57Z</time></trkpt><trkpt lat="46.268622895999364" lon="12.330252488561953"><ele>731.0</ele><time>2026-04-19T13:37:42.57Z</time></trkpt><trkpt lat="46.26855808362526" lon="12.330188344437014"><ele>728.0</ele><time>2026-04-19T13:37:43.57Z</time></trkpt><trkpt lat="46.268497708848265" lon="12.33012840601047"><ele>725.0</ele><time>2026-04-19T13:37:44.57Z</time></trkpt><trkpt lat="46.26842207491838" lon="12.330042715269917"><ele>725.0</ele><time>2026-04-19T13:37:45.57Z</time></trkpt><trkpt lat="46.26835982767588" lon="12.329949699912689"><ele>725.0</ele><time>2026-04-19T13:37:46.57Z</time></trkpt><trkpt lat="46.26830370553376" lon="12.329845791888213"><ele>725.0</ele><time>2026-04-19T13:37:47.57Z</time></trkpt><trkpt lat="46.268268608299046" lon="12.329739883797032"><ele>725.0</ele><time>2026-04-19T13:37:48.57Z</time></trkpt><trkpt lat="46.26824248378966" lon="12.329615924787682"><ele>725.0</ele><time>2026-04-19T13:37:49.57Z</time></trkpt><trkpt lat="46.268231124953104" lon="12.329491545968427"><ele>725.0</ele><time>2026-04-19T13:37:50.57Z</time></trkpt><trkpt lat="46.26822008569136" lon="12.329339342843282"><ele>728.75</ele><time>2026-04-19T13:37:51.57Z</time></trkpt><trkpt lat="46.26820940879142" lon="12.329192135538838"><ele>732.5</ele><time>2026-04-19T13:37:52.57Z</time></trkpt><trkpt lat="46.26819727958826" lon="12.329037422630416"><ele>736.25</ele><time>2026-04-19T13:37:53.587Z</time></trkpt><trkpt lat="46.268184565372856" lon="12.32888093862811"><ele>740.0</ele><time>2026-04-19T13:37:54.585Z</time></trkpt><trkpt lat="46.26816875816403" lon="12.328686386011979"><ele>741.3333333333333</ele><time>2026-04-19T13:37:55.582Z</time></trkpt><trkpt lat="46.26815377990443" lon="12.328502920539728"><ele>742.6666666666666</ele><time>2026-04-19T13:37:56.585Z</time></trkpt><trkpt lat="46.26814009543126" lon="12.328347385621305"><ele>744.0</ele><time>2026-04-19T13:37:57.582Z</time></trkpt><trkpt lat="46.26811028462487" lon="12.327284021314538"><ele>744.0</ele><time>2026-04-19T13:38:00.57Z</time></trkpt><trkpt lat="46.268111202843365" lon="12.327068195364408"><ele>744.0</ele><time>2026-04-19T13:38:01.57Z</time></trkpt><trkpt lat="46.268092292629674" lon="12.326829098131409"><ele>744.0</ele><time>2026-04-19T13:38:02.57Z</time></trkpt><trkpt lat="46.26811758700127" lon="12.326613807240639"><ele>744.0</ele><time>2026-04-19T13:38:03.57Z</time></trkpt><trkpt lat="46.268142738056326" lon="12.326386580665819"><ele>744.0</ele><time>2026-04-19T13:38:04.589Z</time></trkpt><trkpt lat="46.26743596051472" lon="12.325082179170405"><ele>744.0</ele><time>2026-04-19T13:38:14.57Z</time></trkpt><trkpt lat="46.267348708564256" lon="12.325022675388349"><ele>744.0</ele><time>2026-04-19T13:38:15.57Z</time></trkpt><trkpt lat="46.2672413178225" lon="12.324883512811741"><ele>744.0</ele><time>2026-04-19T13:38:16.57Z</time></trkpt><trkpt lat="46.26722773450926" lon="12.324718826559053"><ele>744.0</ele><time>2026-04-19T13:38:17.57Z</time></trkpt><trkpt lat="46.267271471801514" lon="12.324538624401082"><ele>744.0</ele><time>2026-04-19T13:38:18.57Z</time></trkpt><trkpt lat="46.2672860412839" lon="12.324318785058107"><ele>744.0</ele><time>2026-04-19T13:38:20.57Z</time></trkpt><trkpt lat="46.2672860412781" lon="12.324204638458628"><ele>744.0</ele><time>2026-04-19T13:38:21.57Z</time></trkpt><trkpt lat="46.26737142887479" lon="12.324060306899522"><ele>744.0</ele><time>2026-04-19T13:38:23.581Z</time></trkpt><trkpt lat="46.26739199461814" lon="12.32391453453509"><ele>744.0</ele><time>2026-04-19T13:38:24.586Z</time></trkpt><trkpt lat="46.26740677430583" lon="12.323780888601329"><ele>744.0</ele><time>2026-04-19T13:38:25.581Z</time></trkpt><trkpt lat="46.26693757567877" lon="12.323473479352806"><ele>706.0</ele><time>2026-04-19T13:38:26.582Z</time></trkpt><trkpt lat="46.27002689060407" lon="12.317239064734725"><ele>706.0</ele><time>2026-04-19T13:38:58.57Z</time></trkpt><trkpt lat="46.27012703715406" lon="12.317123486361996"><ele>706.0</ele><time>2026-04-19T13:38:59.57Z</time></trkpt><trkpt lat="46.27042933307789" lon="12.3173125691298"><ele>724.3333333333334</ele><time>2026-04-19T13:39:00.57Z</time></trkpt><trkpt lat="46.27062917930892" lon="12.317355521500732"><ele>742.6666666666666</ele><time>2026-04-19T13:39:01.57Z</time></trkpt><trkpt lat="46.27080855719695" lon="12.317314786219974"><ele>761.0</ele><time>2026-04-19T13:39:02.57Z</time></trkpt><trkpt lat="46.271029370375786" lon="12.317261397965355"><ele>730.6666666666666</ele><time>2026-04-19T13:39:03.57Z</time></trkpt><trkpt lat="46.2712382087651" lon="12.317210211230822"><ele>700.3333333333334</ele><time>2026-04-19T13:39:04.57Z</time></trkpt><trkpt lat="46.27141377663776" lon="12.317147427244093"><ele>670.0</ele><time>2026-04-19T13:39:05.57Z</time></trkpt><trkpt lat="46.271568897656294" lon="12.317108462533271"><ele>670.0</ele><time>2026-04-19T13:39:06.57Z</time></trkpt><trkpt lat="46.2717147120126" lon="12.317098005319737"><ele>670.0</ele><time>2026-04-19T13:39:07.57Z</time></trkpt><trkpt lat="46.27184395303422" lon="12.317061625188005"><ele>670.0</ele><time>2026-04-19T13:39:08.57Z</time></trkpt><trkpt lat="46.27197150797793" lon="12.317021079232887"><ele>670.0</ele><time>2026-04-19T13:39:09.57Z</time></trkpt><trkpt lat="46.272095951930226" lon="12.317060260694229"><ele>670.0</ele><time>2026-04-19T13:39:10.57Z</time></trkpt><trkpt lat="46.27226280886943" lon="12.31708630306161"><ele>670.0</ele><time>2026-04-19T13:39:11.57Z</time></trkpt><trkpt lat="46.27244999490598" lon="12.317140754288204"><ele>670.0</ele><time>2026-04-19T13:39:12.57Z</time></trkpt><trkpt lat="46.27266991579171" lon="12.317208091563804"><ele>694.0</ele><time>2026-04-19T13:39:13.57Z</time></trkpt><trkpt lat="46.272892491208346" lon="12.317263778326337"><ele>718.0</ele><time>2026-04-19T13:39:14.57Z</time></trkpt><trkpt lat="46.27310736232488" lon="12.31728434886283"><ele>742.0</ele><time>2026-04-19T13:39:15.57Z</time></trkpt><trkpt lat="46.27331631631951" lon="12.317337366342226"><ele>742.0</ele><time>2026-04-19T13:39:16.57Z</time></trkpt><trkpt lat="46.273508578488595" lon="12.317392076329511"><ele>742.0</ele><time>2026-04-19T13:39:17.57Z</time></trkpt><trkpt lat="46.27368832629734" lon="12.317440702047756"><ele>742.0</ele><time>2026-04-19T13:39:18.57Z</time></trkpt><trkpt lat="46.273865765137614" lon="12.317485150881732"><ele>742.0</ele><time>2026-04-19T13:39:19.57Z</time></trkpt><trkpt lat="46.27404509066577" lon="12.317528673844155"><ele>742.0</ele><time>2026-04-19T13:39:20.57Z</time></trkpt><trkpt lat="46.274229426303094" lon="12.317548515812947"><ele>742.0</ele><time>2026-04-19T13:39:21.57Z</time></trkpt><trkpt lat="46.274441788197116" lon="12.317596266039331"><ele>710.3333333333334</ele><time>2026-04-19T13:39:22.57Z</time></trkpt><trkpt lat="46.27464718489018" lon="12.317586419170865"><ele>678.6666666666666</ele><time>2026-04-19T13:39:23.57Z</time></trkpt><trkpt lat="46.274833140687875" lon="12.317563314627517"><ele>647.0</ele><time>2026-04-19T13:39:24.57Z</time></trkpt><trkpt lat="46.27503327463846" lon="12.317567321779743"><ele>647.0</ele><time>2026-04-19T13:39:25.57Z</time></trkpt><trkpt lat="46.27525896871619" lon="12.31757249153101"><ele>647.0</ele><time>2026-04-19T13:39:26.57Z</time></trkpt><trkpt lat="46.27546728812985" lon="12.317558069926374"><ele>647.0</ele><time>2026-04-19T13:39:27.57Z</time></trkpt><trkpt lat="46.27567875345982" lon="12.317577323100453"><ele>649.6666666666666</ele><time>2026-04-19T13:39:28.57Z</time></trkpt><trkpt lat="46.275861743945335" lon="12.317573929060627"><ele>652.3333333333334</ele><time>2026-04-19T13:39:29.57Z</time></trkpt><trkpt lat="46.27602743583146" lon="12.317557708438294"><ele>655.0</ele><time>2026-04-19T13:39:30.57Z</time></trkpt><trkpt lat="46.276228515753054" lon="12.317548086104349"><ele>655.0</ele><time>2026-04-19T13:39:31.57Z</time></trkpt><trkpt lat="46.27638822794736" lon="12.317523497667866"><ele>655.0</ele><time>2026-04-19T13:39:32.57Z</time></trkpt><trkpt lat="46.276535274004694" lon="12.31749257233964"><ele>655.0</ele><time>2026-04-19T13:39:33.57Z</time></trkpt><trkpt lat="46.27667526908805" lon="12.317464100778542"><ele>657.0</ele><time>2026-04-19T13:39:34.57Z</time></trkpt><trkpt lat="46.27681326890155" lon="12.317446866691578"><ele>659.0</ele><time>2026-04-19T13:39:35.57Z</time></trkpt><trkpt lat="46.27694559150541" lon="12.317424627395392"><ele>661.0</ele><time>2026-04-19T13:39:36.57Z</time></trkpt><trkpt lat="46.27707129557978" lon="12.317404582940114"><ele>663.0</ele><time>2026-04-19T13:39:37.57Z</time></trkpt><trkpt lat="46.2771839475552" lon="12.317395231026344"><ele>666.1666666666666</ele><time>2026-04-19T13:39:38.57Z</time></trkpt><trkpt lat="46.277289478480306" lon="12.317413325053947"><ele>669.3333333333334</ele><time>2026-04-19T13:39:39.57Z</time></trkpt><trkpt lat="46.27737866510572" lon="12.317410168004939"><ele>672.5</ele><time>2026-04-19T13:39:40.57Z</time></trkpt><trkpt lat="46.277443511205526" lon="12.31740328858361"><ele>675.6666666666667</ele><time>2026-04-19T13:39:41.57Z</time></trkpt><trkpt lat="46.277492479405076" lon="12.31730861206919"><ele>678.8333333333334</ele><time>2026-04-19T13:39:42.57Z</time></trkpt><trkpt lat="46.277495594175235" lon="12.317201950534194"><ele>682.0</ele><time>2026-04-19T13:39:43.57Z</time></trkpt><trkpt lat="46.277451823128004" lon="12.317099893833715"><ele>670.0</ele><time>2026-04-19T13:39:44.57Z</time></trkpt><trkpt lat="46.277369259271076" lon="12.317069227240994"><ele>658.0</ele><time>2026-04-19T13:39:45.57Z</time></trkpt><trkpt lat="46.277253306124784" lon="12.317074250514427"><ele>646.0</ele><time>2026-04-19T13:39:46.57Z</time></trkpt><trkpt lat="46.27711139562877" lon="12.317090825652002"><ele>634.0</ele><time>2026-04-19T13:39:47.57Z</time></trkpt><trkpt lat="46.27694934198123" lon="12.317104493698105"><ele>633.6666666666667</ele><time>2026-04-19T13:39:48.57Z</time></trkpt><trkpt lat="46.276753702739605" lon="12.317112416806191"><ele>633.3333333333334</ele><time>2026-04-19T13:39:49.57Z</time></trkpt><trkpt lat="46.276523591966175" lon="12.317120976629269"><ele>633.0</ele><time>2026-04-19T13:39:50.57Z</time></trkpt><trkpt lat="46.276318942116745" lon="12.317128105056645"><ele>632.6666666666666</ele><time>2026-04-19T13:39:51.57Z</time></trkpt><trkpt lat="46.27611974821705" lon="12.317152443113526"><ele>632.3333333333333</ele><time>2026-04-19T13:39:52.57Z</time></trkpt><trkpt lat="46.27591583593461" lon="12.317139296954565"><ele>632.0</ele><time>2026-04-19T13:39:53.57Z</time></trkpt><trkpt lat="46.275672492499055" lon="12.317093179206312"><ele>632.3333333333333</ele><time>2026-04-19T13:39:54.57Z</time></trkpt><trkpt lat="46.275483729964115" lon="12.317060929028328"><ele>632.6666666666666</ele><time>2026-04-19T13:39:55.57Z</time></trkpt><trkpt lat="46.275309133371714" lon="12.31703199483353"><ele>633.0</ele><time>2026-04-19T13:39:56.57Z</time></trkpt><trkpt lat="46.275144305852336" lon="12.316992643538228"><ele>633.0</ele><time>2026-04-19T13:39:57.57Z</time></trkpt><trkpt lat="46.27499163688358" lon="12.316936006153748"><ele>633.0</ele><time>2026-04-19T13:39:58.57Z</time></trkpt><trkpt lat="46.274831627974315" lon="12.316857300423358"><ele>633.0</ele><time>2026-04-19T13:39:59.57Z</time></trkpt><trkpt lat="46.274676345003165" lon="12.316778837403854"><ele>633.0</ele><time>2026-04-19T13:40:00.57Z</time></trkpt><trkpt lat="46.27451639362094" lon="12.316697201332905"><ele>633.0</ele><time>2026-04-19T13:40:01.57Z</time></trkpt><trkpt lat="46.2743566513918" lon="12.316614287226216"><ele>633.0</ele><time>2026-04-19T13:40:02.57Z</time></trkpt><trkpt lat="46.274193964615996" lon="12.316535680463826"><ele>633.0</ele><time>2026-04-19T13:40:03.57Z</time></trkpt><trkpt lat="46.27402002404908" lon="12.316480681433191"><ele>633.0</ele><time>2026-04-19T13:40:04.57Z</time></trkpt><trkpt lat="46.273849655027085" lon="12.316422230481697"><ele>633.0</ele><time>2026-04-19T13:40:05.57Z</time></trkpt><trkpt lat="46.27366838919784" lon="12.316374369350715"><ele>625.3333333333334</ele><time>2026-04-19T13:40:06.57Z</time></trkpt><trkpt lat="46.27348966972528" lon="12.316336523035698"><ele>617.6666666666667</ele><time>2026-04-19T13:40:07.57Z</time></trkpt><trkpt lat="46.27331237264544" lon="12.316282676236048"><ele>610.0</ele><time>2026-04-19T13:40:08.57Z</time></trkpt><trkpt lat="46.273137815536096" lon="12.316242526488756"><ele>613.6666666666667</ele><time>2026-04-19T13:40:09.57Z</time></trkpt><trkpt lat="46.272968537533934" lon="12.316176151612115"><ele>617.3333333333334</ele><time>2026-04-19T13:40:10.57Z</time></trkpt><trkpt lat="46.2727976923017" lon="12.316147296001896"><ele>621.0</ele><time>2026-04-19T13:40:11.57Z</time></trkpt><trkpt lat="46.27263704941985" lon="12.31610504351324"><ele>621.0</ele><time>2026-04-19T13:40:12.57Z</time></trkpt><trkpt lat="46.272481023451796" lon="12.316051522358594"><ele>621.0</ele><time>2026-04-19T13:40:13.57Z</time></trkpt><trkpt lat="46.27232888418527" lon="12.316014174829295"><ele>621.0</ele><time>2026-04-19T13:40:14.57Z</time></trkpt><trkpt lat="46.27216268535772" lon="12.31595654572159"><ele>621.6666666666666</ele><time>2026-04-19T13:40:15.57Z</time></trkpt><trkpt lat="46.27198657732903" lon="12.31590851386523"><ele>622.3333333333333</ele><time>2026-04-19T13:40:16.57Z</time></trkpt><trkpt lat="46.27182254401206" lon="12.315831294338253"><ele>623.0</ele><time>2026-04-19T13:40:17.57Z</time></trkpt><trkpt lat="46.271662779322504" lon="12.315768128992795"><ele>623.0</ele><time>2026-04-19T13:40:18.57Z</time></trkpt><trkpt lat="46.27150786281138" lon="12.31568253161868"><ele>623.0</ele><time>2026-04-19T13:40:19.57Z</time></trkpt><trkpt lat="46.27137279884139" lon="12.315627956792742"><ele>623.0</ele><time>2026-04-19T13:40:20.57Z</time></trkpt><trkpt lat="46.27127374674004" lon="12.315539001499975"><ele>623.0</ele><time>2026-04-19T13:40:21.57Z</time></trkpt><trkpt lat="46.27117142521956" lon="12.315491837941941"><ele>620.6666666666666</ele><time>2026-04-19T13:40:22.57Z</time></trkpt><trkpt lat="46.27109964906712" lon="12.315424817109818"><ele>618.3333333333333</ele><time>2026-04-19T13:40:23.57Z</time></trkpt><trkpt lat="46.2710497714139" lon="12.315338410572604"><ele>616.0</ele><time>2026-04-19T13:40:24.57Z</time></trkpt><trkpt lat="46.27100967757988" lon="12.315238985685458"><ele>613.6666666666666</ele><time>2026-04-19T13:40:25.57Z</time></trkpt><trkpt lat="46.2710164881075" lon="12.315114771509505"><ele>611.3333333333334</ele><time>2026-04-19T13:40:26.57Z</time></trkpt><trkpt lat="46.27106952916401" lon="12.31501482296513"><ele>609.0</ele><time>2026-04-19T13:40:27.57Z</time></trkpt><trkpt lat="46.271174677414834" lon="12.314947267854945"><ele>609.0</ele><time>2026-04-19T13:40:28.57Z</time></trkpt><trkpt lat="46.271284249121514" lon="12.314934015283475"><ele>609.0</ele><time>2026-04-19T13:40:29.57Z</time></trkpt><trkpt lat="46.271396460431816" lon="12.314980659986889"><ele>609.0</ele><time>2026-04-19T13:40:30.57Z</time></trkpt><trkpt lat="46.27152677775491" lon="12.31505343607124"><ele>609.0</ele><time>2026-04-19T13:40:31.57Z</time></trkpt><trkpt lat="46.271671426735395" lon="12.315168759448989"><ele>607.6666666666666</ele><time>2026-04-19T13:40:32.57Z</time></trkpt><trkpt lat="46.27184314317152" lon="12.3152948215858"><ele>606.3333333333333</ele><time>2026-04-19T13:40:33.57Z</time></trkpt><trkpt lat="46.272038436408096" lon="12.315397269863105"><ele>605.0</ele><time>2026-04-19T13:40:34.57Z</time></trkpt><trkpt lat="46.27222841048633" lon="12.31547823197345"><ele>604.3333333333333</ele><time>2026-04-19T13:40:35.57Z</time></trkpt><trkpt lat="46.27242015866896" lon="12.315541866014678"><ele>603.6666666666666</ele><time>2026-04-19T13:40:36.57Z</time></trkpt><trkpt lat="46.272602827261046" lon="12.31556799053678"><ele>603.0</ele><time>2026-04-19T13:40:37.57Z</time></trkpt><trkpt lat="46.27281266163789" lon="12.315576497682187"><ele>603.0</ele><time>2026-04-19T13:40:38.57Z</time></trkpt><trkpt lat="46.27300631031156" lon="12.315563790673343"><ele>603.0</ele><time>2026-04-19T13:40:39.57Z</time></trkpt><trkpt lat="46.27319507899149" lon="12.315555910876341"><ele>603.0</ele><time>2026-04-19T13:40:40.57Z</time></trkpt><trkpt lat="46.27337096274347" lon="12.315559053807814"><ele>605.3333333333334</ele><time>2026-04-19T13:40:41.57Z</time></trkpt><trkpt lat="46.2735472528062" lon="12.31558530512411"><ele>607.6666666666667</ele><time>2026-04-19T13:40:42.57Z</time></trkpt><trkpt lat="46.27368603691847" lon="12.315630617057696"><ele>610.0</ele><time>2026-04-19T13:40:43.57Z</time></trkpt><trkpt lat="46.273848214819886" lon="12.315672025048139"><ele>609.4</ele><time>2026-04-19T13:40:44.57Z</time></trkpt><trkpt lat="46.27394162297825" lon="12.315724783125157"><ele>608.8</ele><time>2026-04-19T13:40:45.57Z</time></trkpt><trkpt lat="46.274050988026545" lon="12.315760072923394"><ele>608.2</ele><time>2026-04-19T13:40:46.57Z</time></trkpt><trkpt lat="46.27415211191679" lon="12.315803683742038"><ele>607.6</ele><time>2026-04-19T13:40:47.57Z</time></trkpt><trkpt lat="46.27422194043538" lon="12.315785431330124"><ele>607.0</ele><time>2026-04-19T13:40:48.57Z</time></trkpt><trkpt lat="46.27429354318491" lon="12.315725284720685"><ele>607.0</ele><time>2026-04-19T13:40:49.57Z</time></trkpt><trkpt lat="46.27434742695912" lon="12.315586954518817"><ele>607.0</ele><time>2026-04-19T13:40:50.57Z</time></trkpt><trkpt lat="46.274401454074045" lon="12.315480061653625"><ele>607.0</ele><time>2026-04-19T13:40:51.57Z</time></trkpt><trkpt lat="46.27439293545271" lon="12.315309957514193"><ele>607.0</ele><time>2026-04-19T13:40:52.57Z</time></trkpt><trkpt lat="46.27433372024884" lon="12.315172717084458"><ele>607.0</ele><time>2026-04-19T13:40:53.57Z</time></trkpt><trkpt lat="46.27421338740123" lon="12.315079556185328"><ele>603.75</ele><time>2026-04-19T13:40:54.57Z</time></trkpt><trkpt lat="46.274095652095745" lon="12.315017526984676"><ele>600.5</ele><time>2026-04-19T13:40:55.57Z</time></trkpt><trkpt lat="46.27396090431882" lon="12.314937630544799"><ele>597.25</ele><time>2026-04-19T13:40:56.57Z</time></trkpt><trkpt lat="46.273829870244775" lon="12.314854316578327"><ele>594.0</ele><time>2026-04-19T13:40:57.57Z</time></trkpt><trkpt lat="46.27370013816076" lon="12.314771829808096"><ele>590.8</ele><time>2026-04-19T13:40:58.57Z</time></trkpt><trkpt lat="46.27359961976077" lon="12.314706664720656"><ele>587.5999999999999</ele><time>2026-04-19T13:40:59.57Z</time></trkpt><trkpt lat="46.27351581759633" lon="12.314643602572737"><ele>584.4</ele><time>2026-04-19T13:41:00.57Z</time></trkpt><trkpt lat="46.27344764957153" lon="12.314581135672794"><ele>581.1999999999999</ele><time>2026-04-19T13:41:01.57Z</time></trkpt><trkpt lat="46.27338816050221" lon="12.314408489917817"><ele>578.0</ele><time>2026-04-19T13:41:03.57Z</time></trkpt><trkpt lat="46.27342311305865" lon="12.314307925638664"><ele>578.0</ele><time>2026-04-19T13:41:04.57Z</time></trkpt><trkpt lat="46.27347781573701" lon="12.314221621190404"><ele>578.0</ele><time>2026-04-19T13:41:05.57Z</time></trkpt><trkpt lat="46.273554325221504" lon="12.314161948403703"><ele>578.0</ele><time>2026-04-19T13:41:06.57Z</time></trkpt><trkpt lat="46.273645157091124" lon="12.314154350751712"><ele>578.0</ele><time>2026-04-19T13:41:07.57Z</time></trkpt><trkpt lat="46.27374847025597" lon="12.314194143714273"><ele>578.0</ele><time>2026-04-19T13:41:08.57Z</time></trkpt><trkpt lat="46.27385928382398" lon="12.314287836984999"><ele>575.0</ele><time>2026-04-19T13:41:09.57Z</time></trkpt><trkpt lat="46.27399381657736" lon="12.31442606213673"><ele>572.0</ele><time>2026-04-19T13:41:10.571Z</time></trkpt><trkpt lat="46.27412873269732" lon="12.314594236665883"><ele>569.0</ele><time>2026-04-19T13:41:11.571Z</time></trkpt><trkpt lat="46.274258932418135" lon="12.314737484878961"><ele>574.0</ele><time>2026-04-19T13:41:12.571Z</time></trkpt><trkpt lat="46.27440373884653" lon="12.314869181529122"><ele>579.0</ele><time>2026-04-19T13:41:13.571Z</time></trkpt><trkpt lat="46.274550705292455" lon="12.314968279509323"><ele>584.0</ele><time>2026-04-19T13:41:14.571Z</time></trkpt><trkpt lat="46.27470337464688" lon="12.31505259400383"><ele>579.0</ele><time>2026-04-19T13:41:15.571Z</time></trkpt><trkpt lat="46.27486175544378" lon="12.315117228573168"><ele>574.0</ele><time>2026-04-19T13:41:16.571Z</time></trkpt><trkpt lat="46.2750261688292" lon="12.31515189702056"><ele>569.0</ele><time>2026-04-19T13:41:17.571Z</time></trkpt><trkpt lat="46.2752185339152" lon="12.315150208985491"><ele>569.0</ele><time>2026-04-19T13:41:18.571Z</time></trkpt><trkpt lat="46.275433834845" lon="12.315120221230059"><ele>569.0</ele><time>2026-04-19T13:41:19.571Z</time></trkpt><trkpt lat="46.27565630738708" lon="12.315092218913797"><ele>569.0</ele><time>2026-04-19T13:41:20.571Z</time></trkpt><trkpt lat="46.275872138228976" lon="12.315087532068187"><ele>567.6666666666666</ele><time>2026-04-19T13:41:21.571Z</time></trkpt><trkpt lat="46.276072285411146" lon="12.31507337493443"><ele>566.3333333333334</ele><time>2026-04-19T13:41:22.571Z</time></trkpt><trkpt lat="46.2762649425474" lon="12.315077818170298"><ele>565.0</ele><time>2026-04-19T13:41:23.571Z</time></trkpt><trkpt lat="46.27645783530126" lon="12.315067348196518"><ele>565.0</ele><time>2026-04-19T13:41:24.571Z</time></trkpt><trkpt lat="46.27665927049724" lon="12.315054735619661"><ele>565.0</ele><time>2026-04-19T13:41:25.571Z</time></trkpt><trkpt lat="46.2768412432116" lon="12.31503836779634"><ele>565.0</ele><time>2026-04-19T13:41:26.571Z</time></trkpt><trkpt lat="46.27701147579094" lon="12.314951771533021"><ele>565.0</ele><time>2026-04-19T13:41:27.571Z</time></trkpt><trkpt lat="46.27718615104478" lon="12.314847517653735"><ele>565.0</ele><time>2026-04-19T13:41:28.571Z</time></trkpt><trkpt lat="46.277352577894966" lon="12.31477806332965"><ele>565.0</ele><time>2026-04-19T13:41:29.571Z</time></trkpt><trkpt lat="46.27750462565854" lon="12.31467834454636"><ele>556.6666666666667</ele><time>2026-04-19T13:41:30.571Z</time></trkpt><trkpt lat="46.27765531631389" lon="12.31456800914371"><ele>548.3333333333334</ele><time>2026-04-19T13:41:31.571Z</time></trkpt><trkpt lat="46.27780337870418" lon="12.314421476819652"><ele>540.0</ele><time>2026-04-19T13:41:32.571Z</time></trkpt><trkpt lat="46.2779442037876" lon="12.314249885584552"><ele>540.0</ele><time>2026-04-19T13:41:33.571Z</time></trkpt><trkpt lat="46.27808011693348" lon="12.314051255866033"><ele>540.0</ele><time>2026-04-19T13:41:34.571Z</time></trkpt><trkpt lat="46.278192803682614" lon="12.313867164779918"><ele>540.0</ele><time>2026-04-19T13:41:35.571Z</time></trkpt><trkpt lat="46.27831089255588" lon="12.3137223521069"><ele>540.5</ele><time>2026-04-19T13:41:36.571Z</time></trkpt><trkpt lat="46.27844086641886" lon="12.313637391841219"><ele>541.0</ele><time>2026-04-19T13:41:37.571Z</time></trkpt><trkpt lat="46.27857934819971" lon="12.313553059046992"><ele>541.5</ele><time>2026-04-19T13:41:38.571Z</time></trkpt><trkpt lat="46.27871956828332" lon="12.31349721805177"><ele>542.0</ele><time>2026-04-19T13:41:39.571Z</time></trkpt><trkpt lat="46.27887716372" lon="12.313461913415747"><ele>539.0</ele><time>2026-04-19T13:41:40.571Z</time></trkpt><trkpt lat="46.279042655357195" lon="12.313450378163274"><ele>536.0</ele><time>2026-04-19T13:41:41.571Z</time></trkpt><trkpt lat="46.27921944524995" lon="12.313406495171819"><ele>533.0</ele><time>2026-04-19T13:41:42.571Z</time></trkpt><trkpt lat="46.27939627121145" lon="12.313354068049156"><ele>533.0</ele><time>2026-04-19T13:41:43.571Z</time></trkpt><trkpt lat="46.27958164656233" lon="12.313310653794481"><ele>533.0</ele><time>2026-04-19T13:41:44.571Z</time></trkpt><trkpt lat="46.27978980425282" lon="12.313279971737478"><ele>533.0</ele><time>2026-04-19T13:41:45.571Z</time></trkpt><trkpt lat="46.27997165998811" lon="12.313244563151967"><ele>532.0</ele><time>2026-04-19T13:41:46.571Z</time></trkpt><trkpt lat="46.28015378692971" lon="12.313215877601362"><ele>531.0</ele><time>2026-04-19T13:41:47.571Z</time></trkpt><trkpt lat="46.280316973746565" lon="12.313188564441973"><ele>530.0</ele><time>2026-04-19T13:41:48.571Z</time></trkpt><trkpt lat="46.28046194254783" lon="12.313166349964607"><ele>530.0</ele><time>2026-04-19T13:41:49.571Z</time></trkpt><trkpt lat="46.28059134399483" lon="12.31314604935692"><ele>530.0</ele><time>2026-04-19T13:41:50.571Z</time></trkpt><trkpt lat="46.28070986048641" lon="12.313099425198871"><ele>530.0</ele><time>2026-04-19T13:41:51.571Z</time></trkpt><trkpt lat="46.28080654144539" lon="12.313026901823395"><ele>530.0</ele><time>2026-04-19T13:41:52.571Z</time></trkpt><trkpt lat="46.28087068767104" lon="12.312920138632542"><ele>523.25</ele><time>2026-04-19T13:41:53.571Z</time></trkpt><trkpt lat="46.28089760011965" lon="12.31279310485619"><ele>516.5</ele><time>2026-04-19T13:41:54.571Z</time></trkpt><trkpt lat="46.28088871615283" lon="12.312627515127957"><ele>509.75</ele><time>2026-04-19T13:41:55.571Z</time></trkpt><trkpt lat="46.28083249737956" lon="12.312473291738732"><ele>503.0</ele><time>2026-04-19T13:41:56.571Z</time></trkpt><trkpt lat="46.28073692887401" lon="12.312347666991297"><ele>503.0</ele><time>2026-04-19T13:41:57.571Z</time></trkpt><trkpt lat="46.28060172015782" lon="12.312261844544352"><ele>503.0</ele><time>2026-04-19T13:41:58.571Z</time></trkpt><trkpt lat="46.280461563713246" lon="12.312243268235573"><ele>503.0</ele><time>2026-04-19T13:41:59.571Z</time></trkpt><trkpt lat="46.28030368650882" lon="12.312250445028637"><ele>503.0</ele><time>2026-04-19T13:42:00.571Z</time></trkpt><trkpt lat="46.28011386557365" lon="12.312203170380517"><ele>495.5</ele><time>2026-04-19T13:42:01.571Z</time></trkpt><trkpt lat="46.27989791221085" lon="12.312162120990001"><ele>488.0</ele><time>2026-04-19T13:42:02.571Z</time></trkpt><trkpt lat="46.279666034572706" lon="12.312122956601128"><ele>488.0</ele><time>2026-04-19T13:42:03.571Z</time></trkpt><trkpt lat="46.27944623982859" lon="12.312118110750388"><ele>488.0</ele><time>2026-04-19T13:42:04.571Z</time></trkpt><trkpt lat="46.27921251382778" lon="12.312137295007641"><ele>488.0</ele><time>2026-04-19T13:42:05.571Z</time></trkpt><trkpt lat="46.279022195420175" lon="12.31217209097139"><ele>488.0</ele><time>2026-04-19T13:42:06.571Z</time></trkpt><trkpt lat="46.27882611794129" lon="12.312077832553953"><ele>488.0</ele><time>2026-04-19T13:42:07.571Z</time></trkpt><trkpt lat="46.27865659761533" lon="12.312032597009386"><ele>489.0</ele><time>2026-04-19T13:42:08.571Z</time></trkpt><trkpt lat="46.278531392706554" lon="12.312047301283506"><ele>489.99999999999994</ele><time>2026-04-19T13:42:09.571Z</time></trkpt><trkpt lat="46.2784255778965" lon="12.312001288640802"><ele>490.99999999999994</ele><time>2026-04-19T13:42:10.571Z</time></trkpt><trkpt lat="46.27834510609771" lon="12.311970868796358"><ele>492.0</ele><time>2026-04-19T13:42:11.571Z</time></trkpt><trkpt lat="46.27828330468734" lon="12.311940939301733"><ele>493.0</ele><time>2026-04-19T13:42:12.571Z</time></trkpt><trkpt lat="46.278222055027115" lon="12.311863113066252"><ele>493.00000000000006</ele><time>2026-04-19T13:42:13.571Z</time></trkpt><trkpt lat="46.278192149452586" lon="12.311771549315585"><ele>493.0</ele><time>2026-04-19T13:42:14.571Z</time></trkpt><trkpt lat="46.27820894729924" lon="12.31165611235314"><ele>493.0</ele><time>2026-04-19T13:42:15.571Z</time></trkpt><trkpt lat="46.278261284447936" lon="12.31156848770221"><ele>493.0</ele><time>2026-04-19T13:42:16.571Z</time></trkpt><trkpt lat="46.27833964250833" lon="12.311532501197416"><ele>493.00000000000006</ele><time>2026-04-19T13:42:17.571Z</time></trkpt><trkpt lat="46.27842830430759" lon="12.311566494468309"><ele>493.0</ele><time>2026-04-19T13:42:18.571Z</time></trkpt><trkpt lat="46.27851670275429" lon="12.311639612871149"><ele>493.0</ele><time>2026-04-19T13:42:19.571Z</time></trkpt><trkpt lat="46.27863798647061" lon="12.311700705462847"><ele>493.0</ele><time>2026-04-19T13:42:20.571Z</time></trkpt><trkpt lat="46.278772163879474" lon="12.311784648215145"><ele>493.0</ele><time>2026-04-19T13:42:21.571Z</time></trkpt><trkpt lat="46.27893688468998" lon="12.311815444638203"><ele>493.0</ele><time>2026-04-19T13:42:22.571Z</time></trkpt><trkpt lat="46.27910663625232" lon="12.311817923232212"><ele>491.75</ele><time>2026-04-19T13:42:23.571Z</time></trkpt><trkpt lat="46.27917454025072" lon="12.311864745292702"><ele>490.5</ele><time>2026-04-19T13:42:24.571Z</time></trkpt><trkpt lat="46.27933869477367" lon="12.311830345236412"><ele>489.25</ele><time>2026-04-19T13:42:25.571Z</time></trkpt><trkpt lat="46.27947449747271" lon="12.311813213630733"><ele>488.0</ele><time>2026-04-19T13:42:26.571Z</time></trkpt><trkpt lat="46.27958123183665" lon="12.311791773924321"><ele>487.99999999999994</ele><time>2026-04-19T13:42:27.571Z</time></trkpt><trkpt lat="46.27966362226893" lon="12.311762760852313"><ele>488.0</ele><time>2026-04-19T13:42:28.571Z</time></trkpt><trkpt lat="46.27973535514106" lon="12.311710132753909"><ele>488.0</ele><time>2026-04-19T13:42:29.571Z</time></trkpt><trkpt lat="46.27976871712773" lon="12.311608654059985"><ele>488.0</ele><time>2026-04-19T13:42:30.571Z</time></trkpt><trkpt lat="46.279758398094074" lon="12.311478227163452"><ele>487.99999999999994</ele><time>2026-04-19T13:42:31.571Z</time></trkpt><trkpt lat="46.279698638888625" lon="12.311370027478656"><ele>488.0</ele><time>2026-04-19T13:42:32.571Z</time></trkpt><trkpt lat="46.27959917521155" lon="12.31128298249108"><ele>483.66666666666663</ele><time>2026-04-19T13:42:33.571Z</time></trkpt><trkpt lat="46.279474146660434" lon="12.311207869057858"><ele>479.33333333333337</ele><time>2026-04-19T13:42:34.571Z</time></trkpt><trkpt lat="46.279321097535245" lon="12.311116085083228"><ele>475.0</ele><time>2026-04-19T13:42:35.571Z</time></trkpt><trkpt lat="46.27914176962677" lon="12.311000242775428"><ele>475.0</ele><time>2026-04-19T13:42:36.571Z</time></trkpt><trkpt lat="46.278953884090015" lon="12.31091208141618"><ele>475.0</ele><time>2026-04-19T13:42:37.571Z</time></trkpt><trkpt lat="46.27878304213053" lon="12.310833142942283"><ele>475.0</ele><time>2026-04-19T13:42:38.571Z</time></trkpt><trkpt lat="46.27860316282886" lon="12.310755262049277"><ele>474.0</ele><time>2026-04-19T13:42:39.571Z</time></trkpt><trkpt lat="46.27842063159917" lon="12.310670022189436"><ele>473.0</ele><time>2026-04-19T13:42:40.571Z</time></trkpt><trkpt lat="46.278240203662754" lon="12.310558750495595"><ele>472.0</ele><time>2026-04-19T13:42:41.571Z</time></trkpt><trkpt lat="46.2780586647822" lon="12.310431103593741"><ele>469.33333333333337</ele><time>2026-04-19T13:42:42.571Z</time></trkpt><trkpt lat="46.27789722787879" lon="12.310312880307903"><ele>466.66666666666663</ele><time>2026-04-19T13:42:43.571Z</time></trkpt><trkpt lat="46.27774883004598" lon="12.310185120019481"><ele>464.0</ele><time>2026-04-19T13:42:44.571Z</time></trkpt><trkpt lat="46.27760278355848" lon="12.310052690552235"><ele>464.0</ele><time>2026-04-19T13:42:45.571Z</time></trkpt><trkpt lat="46.27745930180628" lon="12.30990610255963"><ele>464.0</ele><time>2026-04-19T13:42:46.571Z</time></trkpt><trkpt lat="46.27731087399654" lon="12.3097561543261"><ele>464.0</ele><time>2026-04-19T13:42:47.571Z</time></trkpt><trkpt lat="46.277180188429504" lon="12.309621970066795"><ele>462.75</ele><time>2026-04-19T13:42:48.571Z</time></trkpt><trkpt lat="46.277054338008874" lon="12.309488987988173"><ele>461.5</ele><time>2026-04-19T13:42:49.571Z</time></trkpt><trkpt lat="46.27693912498504" lon="12.309351533844124"><ele>460.25</ele><time>2026-04-19T13:42:50.571Z</time></trkpt><trkpt lat="46.27683736809349" lon="12.309209875175391"><ele>459.0</ele><time>2026-04-19T13:42:51.571Z</time></trkpt><trkpt lat="46.27673658016191" lon="12.309072238883033"><ele>459.0</ele><time>2026-04-19T13:42:52.571Z</time></trkpt><trkpt lat="46.27663277370618" lon="12.308930891466467"><ele>459.0</ele><time>2026-04-19T13:42:53.571Z</time></trkpt><trkpt lat="46.27653896998899" lon="12.30879990632347"><ele>459.0</ele><time>2026-04-19T13:42:54.571Z</time></trkpt><trkpt lat="46.2764644324597" lon="12.308682711664956"><ele>459.0</ele><time>2026-04-19T13:42:55.571Z</time></trkpt><trkpt lat="46.27639650548911" lon="12.308565347125699"><ele>458.0</ele><time>2026-04-19T13:42:56.571Z</time></trkpt><trkpt lat="46.276319587225004" lon="12.308449146113167"><ele>457.0</ele><time>2026-04-19T13:42:57.571Z</time></trkpt><trkpt lat="46.276232469902475" lon="12.308350339770337"><ele>456.0</ele><time>2026-04-19T13:42:58.571Z</time></trkpt><trkpt lat="46.27612902927531" lon="12.308272576039299"><ele>455.0</ele><time>2026-04-19T13:42:59.571Z</time></trkpt><trkpt lat="46.276013301519896" lon="12.308215086901255"><ele>455.0</ele><time>2026-04-19T13:43:00.571Z</time></trkpt><trkpt lat="46.27588949285124" lon="12.308183780616476"><ele>455.0</ele><time>2026-04-19T13:43:01.571Z</time></trkpt><trkpt lat="46.27575543101043" lon="12.308184082724182"><ele>455.0</ele><time>2026-04-19T13:43:02.571Z</time></trkpt><trkpt lat="46.275613266972464" lon="12.308217407618635"><ele>455.0</ele><time>2026-04-19T13:43:03.571Z</time></trkpt><trkpt lat="46.275470337856405" lon="12.308289582647108"><ele>451.66666666666663</ele><time>2026-04-19T13:43:04.571Z</time></trkpt><trkpt lat="46.27532862067655" lon="12.30838766538646"><ele>448.33333333333337</ele><time>2026-04-19T13:43:05.571Z</time></trkpt><trkpt lat="46.275168808372996" lon="12.308503144702918"><ele>445.0</ele><time>2026-04-19T13:43:06.571Z</time></trkpt><trkpt lat="46.27499669700086" lon="12.308616265967036"><ele>445.0</ele><time>2026-04-19T13:43:07.571Z</time></trkpt><trkpt lat="46.27483510007028" lon="12.308732297013652"><ele>445.0</ele><time>2026-04-19T13:43:08.571Z</time></trkpt><trkpt lat="46.27467399819632" lon="12.308811456634862"><ele>445.0</ele><time>2026-04-19T13:43:09.571Z</time></trkpt><trkpt lat="46.27451023121212" lon="12.308910676323684"><ele>445.0</ele><time>2026-04-19T13:43:10.571Z</time></trkpt><trkpt lat="46.27433874940827" lon="12.308998191738912"><ele>445.0</ele><time>2026-04-19T13:43:11.571Z</time></trkpt><trkpt lat="46.27415932763844" lon="12.309070839095732"><ele>445.0</ele><time>2026-04-19T13:43:12.571Z</time></trkpt><trkpt lat="46.27397268568745" lon="12.309125224325895"><ele>446.33333333333337</ele><time>2026-04-19T13:43:13.571Z</time></trkpt><trkpt lat="46.27379046239491" lon="12.30916118931143"><ele>447.66666666666663</ele><time>2026-04-19T13:43:14.571Z</time></trkpt><trkpt lat="46.273604752427076" lon="12.309170421980873"><ele>449.0</ele><time>2026-04-19T13:43:15.571Z</time></trkpt><trkpt lat="46.27340085996908" lon="12.3091595852444"><ele>449.0</ele><time>2026-04-19T13:43:16.572Z</time></trkpt><trkpt lat="46.27318418780752" lon="12.309148766077168"><ele>449.0</ele><time>2026-04-19T13:43:17.572Z</time></trkpt><trkpt lat="46.27296222571909" lon="12.309110670538042"><ele>449.0</ele><time>2026-04-19T13:43:18.572Z</time></trkpt><trkpt lat="46.27273245634738" lon="12.309084387383294"><ele>451.3333333333333</ele><time>2026-04-19T13:43:19.572Z</time></trkpt><trkpt lat="46.27251630039423" lon="12.3090526173674"><ele>453.66666666666663</ele><time>2026-04-19T13:43:20.572Z</time></trkpt><trkpt lat="46.27231180900266" lon="12.309031044417397"><ele>456.0</ele><time>2026-04-19T13:43:21.572Z</time></trkpt><trkpt lat="46.27211611805679" lon="12.30901105382997"><ele>456.0</ele><time>2026-04-19T13:43:22.572Z</time></trkpt><trkpt lat="46.271919346825555" lon="12.308973924208862"><ele>456.0</ele><time>2026-04-19T13:43:23.572Z</time></trkpt><trkpt lat="46.2717372021284" lon="12.308938769312295"><ele>456.0</ele><time>2026-04-19T13:43:24.572Z</time></trkpt><trkpt lat="46.27155686226368" lon="12.308912414521915"><ele>453.0</ele><time>2026-04-19T13:43:25.572Z</time></trkpt><trkpt lat="46.271377504267136" lon="12.308934579699283"><ele>450.0</ele><time>2026-04-19T13:43:26.572Z</time></trkpt><trkpt lat="46.2711915546289" lon="12.308994892534951"><ele>447.0</ele><time>2026-04-19T13:43:27.572Z</time></trkpt><trkpt lat="46.270997211331796" lon="12.309097484502967"><ele>447.0</ele><time>2026-04-19T13:43:28.572Z</time></trkpt><trkpt lat="46.27079357539667" lon="12.309242056251342"><ele>447.0</ele><time>2026-04-19T13:43:29.572Z</time></trkpt><trkpt lat="46.270584697358096" lon="12.30938369076024"><ele>446.0</ele><time>2026-04-19T13:43:30.572Z</time></trkpt><trkpt lat="46.2703678768807" lon="12.309493909256325"><ele>445.0</ele><time>2026-04-19T13:43:31.572Z</time></trkpt><trkpt lat="46.270170055850706" lon="12.30961400541534"><ele>444.0</ele><time>2026-04-19T13:43:32.572Z</time></trkpt><trkpt lat="46.26998685646201" lon="12.309723103552697"><ele>444.33333333333337</ele><time>2026-04-19T13:43:33.572Z</time></trkpt><trkpt lat="46.2698049178945" lon="12.30983145074194"><ele>444.6666666666667</ele><time>2026-04-19T13:43:34.572Z</time></trkpt><trkpt lat="46.26961985315817" lon="12.309941813064338"><ele>445.0</ele><time>2026-04-19T13:43:35.572Z</time></trkpt><trkpt lat="46.2694386337241" lon="12.310052463885748"><ele>445.0</ele><time>2026-04-19T13:43:36.572Z</time></trkpt><trkpt lat="46.26926883842721" lon="12.310156139312078"><ele>445.0</ele><time>2026-04-19T13:43:37.572Z</time></trkpt><trkpt lat="46.26910880344574" lon="12.310253855086417"><ele>445.0</ele><time>2026-04-19T13:43:38.572Z</time></trkpt><trkpt lat="46.268959689093194" lon="12.310344902905893"><ele>443.75</ele><time>2026-04-19T13:43:39.572Z</time></trkpt><trkpt lat="46.26881869070007" lon="12.310430995185962"><ele>442.5</ele><time>2026-04-19T13:43:40.572Z</time></trkpt><trkpt lat="46.268678381746014" lon="12.310517308980442"><ele>441.25</ele><time>2026-04-19T13:43:41.572Z</time></trkpt><trkpt lat="46.26855101319707" lon="12.310596360506104"><ele>440.0</ele><time>2026-04-19T13:43:42.572Z</time></trkpt><trkpt lat="46.26843904721692" lon="12.3106655216939"><ele>441.6</ele><time>2026-04-19T13:43:43.572Z</time></trkpt><trkpt lat="46.268325765198355" lon="12.310735415235571"><ele>443.2</ele><time>2026-04-19T13:43:44.572Z</time></trkpt><trkpt lat="46.268222730840534" lon="12.310799500082648"><ele>444.79999999999995</ele><time>2026-04-19T13:43:45.572Z</time></trkpt><trkpt lat="46.26814001111852" lon="12.310848962502913"><ele>446.4</ele><time>2026-04-19T13:43:46.572Z</time></trkpt><trkpt lat="46.26807596961489" lon="12.31087664346903"><ele>448.0</ele><time>2026-04-19T13:43:47.572Z</time></trkpt><trkpt lat="46.26801269596752" lon="12.310857213240032"><ele>448.0</ele><time>2026-04-19T13:43:48.572Z</time></trkpt><trkpt lat="46.267942090086386" lon="12.310729965173774"><ele>448.0</ele><time>2026-04-19T13:43:49.572Z</time></trkpt><trkpt lat="46.26794640566075" lon="12.310579503210993"><ele>448.0</ele><time>2026-04-19T13:43:50.572Z</time></trkpt><trkpt lat="46.267934878212415" lon="12.310420892084549"><ele>448.0</ele><time>2026-04-19T13:43:51.572Z</time></trkpt><trkpt lat="46.267942586930054" lon="12.310238528333555"><ele>446.4</ele><time>2026-04-19T13:43:52.572Z</time></trkpt><trkpt lat="46.267936846993244" lon="12.310078739214779"><ele>444.79999999999995</ele><time>2026-04-19T13:43:53.572Z</time></trkpt><trkpt lat="46.26793161118207" lon="12.309965495222484"><ele>443.2</ele><time>2026-04-19T13:43:54.572Z</time></trkpt><trkpt lat="46.26792857848069" lon="12.309851854849343"><ele>441.6</ele><time>2026-04-19T13:43:56.572Z</time></trkpt><trkpt lat="46.267946180469764" lon="12.309726075094327"><ele>440.0</ele><time>2026-04-19T13:45:02.572Z</time></trkpt><trkpt lat="46.26791321370142" lon="12.309488349166966"><ele>439.0</ele><time>2026-04-19T13:45:04.572Z</time></trkpt><trkpt lat="46.26788855954564" lon="12.309238854862233"><ele>438.0</ele><time>2026-04-19T13:45:05.572Z</time></trkpt><trkpt lat="46.26787269976246" lon="12.308998520789448"><ele>437.0</ele><time>2026-04-19T13:45:06.572Z</time></trkpt><trkpt lat="46.26786412386381" lon="12.308719949587058"><ele>436.3333333333333</ele><time>2026-04-19T13:45:07.572Z</time></trkpt><trkpt lat="46.26784399103212" lon="12.30839502480687"><ele>435.66666666666663</ele><time>2026-04-19T13:45:08.572Z</time></trkpt><trkpt lat="46.26782875535229" lon="12.30812001513105"><ele>435.0</ele><time>2026-04-19T13:45:09.572Z</time></trkpt><trkpt lat="46.26781574473352" lon="12.307875631013216"><ele>435.0</ele><time>2026-04-19T13:45:10.572Z</time></trkpt><trkpt lat="46.26780293236686" lon="12.307634691226095"><ele>435.0</ele><time>2026-04-19T13:45:11.572Z</time></trkpt><trkpt lat="46.26778761792548" lon="12.307393782049564"><ele>435.0</ele><time>2026-04-19T13:45:12.572Z</time></trkpt><trkpt lat="46.26777206442707" lon="12.307152848000525"><ele>435.0</ele><time>2026-04-19T13:45:13.572Z</time></trkpt><trkpt lat="46.2677576186525" lon="12.306902705353693"><ele>435.0</ele><time>2026-04-19T13:45:14.572Z</time></trkpt><trkpt lat="46.26773665662331" lon="12.306627396020554"><ele>435.0</ele><time>2026-04-19T13:45:15.572Z</time></trkpt><trkpt lat="46.26771280119484" lon="12.306343427088743"><ele>436.0</ele><time>2026-04-19T13:45:16.572Z</time></trkpt><trkpt lat="46.26770183065806" lon="12.306086853421467"><ele>437.0</ele><time>2026-04-19T13:45:17.572Z</time></trkpt><trkpt lat="46.26768777825946" lon="12.305827141074548"><ele>438.0</ele><time>2026-04-19T13:45:18.572Z</time></trkpt><trkpt lat="46.267675917035625" lon="12.30556995643973"><ele>439.33333333333337</ele><time>2026-04-19T13:45:19.572Z</time></trkpt><trkpt lat="46.26767757379059" lon="12.305330308149719"><ele>440.6666666666667</ele><time>2026-04-19T13:45:20.572Z</time></trkpt><trkpt lat="46.267688249932014" lon="12.30510308875417"><ele>442.0</ele><time>2026-04-19T13:45:21.572Z</time></trkpt><trkpt lat="46.26770992705308" lon="12.304893746518704"><ele>442.0</ele><time>2026-04-19T13:45:22.573Z</time></trkpt><trkpt lat="46.26775012022645" lon="12.30468382009235"><ele>442.0</ele><time>2026-04-19T13:45:23.573Z</time></trkpt><trkpt lat="46.26779666519706" lon="12.304462250704749"><ele>442.0</ele><time>2026-04-19T13:45:24.573Z</time></trkpt><trkpt lat="46.26785260110741" lon="12.304238454997408"><ele>442.0</ele><time>2026-04-19T13:45:25.573Z</time></trkpt><trkpt lat="46.26793989111533" lon="12.304043983883272"><ele>442.0</ele><time>2026-04-19T13:45:26.573Z</time></trkpt><trkpt lat="46.26796467095787" lon="12.303852977636707"><ele>442.0</ele><time>2026-04-19T13:45:27.573Z</time></trkpt><trkpt lat="46.26796366403654" lon="12.303655635635717"><ele>442.0</ele><time>2026-04-19T13:45:28.573Z</time></trkpt><trkpt lat="46.26794149376157" lon="12.303448763800803"><ele>443.5</ele><time>2026-04-19T13:45:29.573Z</time></trkpt><trkpt lat="46.267900381474696" lon="12.303263499882897"><ele>445.0</ele><time>2026-04-19T13:45:30.573Z</time></trkpt><trkpt lat="46.267837542089914" lon="12.303111551907785"><ele>446.5</ele><time>2026-04-19T13:45:31.573Z</time></trkpt><trkpt lat="46.26775560689281" lon="12.302962622052227"><ele>448.0</ele><time>2026-04-19T13:45:32.573Z</time></trkpt><trkpt lat="46.26765489924536" lon="12.302818983821854"><ele>451.0</ele><time>2026-04-19T13:45:33.573Z</time></trkpt><trkpt lat="46.26753484940645" lon="12.302688005864178"><ele>454.0</ele><time>2026-04-19T13:45:34.573Z</time></trkpt><trkpt lat="46.26739988838127" lon="12.302569760768135"><ele>457.0</ele><time>2026-04-19T13:45:35.573Z</time></trkpt><trkpt lat="46.26724053921369" lon="12.302475175818895"><ele>457.6666666666667</ele><time>2026-04-19T13:45:36.573Z</time></trkpt><trkpt lat="46.267071060452004" lon="12.302416988020695"><ele>458.33333333333337</ele><time>2026-04-19T13:45:37.573Z</time></trkpt><trkpt lat="46.26690411463807" lon="12.302390918914158"><ele>459.0</ele><time>2026-04-19T13:45:38.573Z</time></trkpt><trkpt lat="46.26673295445596" lon="12.30238470441484"><ele>459.0</ele><time>2026-04-19T13:45:39.573Z</time></trkpt><trkpt lat="46.26655715360532" lon="12.302411960697976"><ele>459.0</ele><time>2026-04-19T13:45:40.573Z</time></trkpt><trkpt lat="46.26639035561724" lon="12.302462113211691"><ele>459.0</ele><time>2026-04-19T13:45:41.573Z</time></trkpt><trkpt lat="46.2662463983843" lon="12.302522469219834"><ele>460.25</ele><time>2026-04-19T13:45:42.573Z</time></trkpt><trkpt lat="46.26610080239077" lon="12.302607255870555"><ele>461.5</ele><time>2026-04-19T13:45:43.573Z</time></trkpt><trkpt lat="46.26596405383839" lon="12.302706860304207"><ele>462.75</ele><time>2026-04-19T13:45:44.573Z</time></trkpt><trkpt lat="46.26583676699439" lon="12.302766150822945"><ele>464.0</ele><time>2026-04-19T13:45:45.573Z</time></trkpt><trkpt lat="46.2657291970425" lon="12.302835696136615"><ele>463.99999999999994</ele><time>2026-04-19T13:45:46.573Z</time></trkpt><trkpt lat="46.26563633160635" lon="12.302895734864554"><ele>464.0</ele><time>2026-04-19T13:45:47.573Z</time></trkpt><trkpt lat="46.265556353082616" lon="12.302949673432977"><ele>464.0</ele><time>2026-04-19T13:45:48.573Z</time></trkpt><trkpt lat="46.26548175440312" lon="12.303000582840545"><ele>464.0</ele><time>2026-04-19T13:45:49.573Z</time></trkpt><trkpt lat="46.2654113961054" lon="12.303045389964876"><ele>463.99999999999994</ele><time>2026-04-19T13:45:50.573Z</time></trkpt><trkpt lat="46.26533925902778" lon="12.303036564633471"><ele>464.0</ele><time>2026-04-19T13:45:51.573Z</time></trkpt><trkpt lat="46.265260759658155" lon="12.302998415853859"><ele>466.0</ele><time>2026-04-19T13:45:52.573Z</time></trkpt><trkpt lat="46.26518301690774" lon="12.302936627424362"><ele>468.0</ele><time>2026-04-19T13:45:53.573Z</time></trkpt><trkpt lat="46.26511687932505" lon="12.30287750831891"><ele>470.0</ele><time>2026-04-19T13:45:54.573Z</time></trkpt><trkpt lat="46.26501930891679" lon="12.302811731487967"><ele>472.0</ele><time>2026-04-19T13:45:56.573Z</time></trkpt><trkpt lat="46.26490722294782" lon="12.302756492072074"><ele>474.0</ele><time>2026-04-19T13:45:58.573Z</time></trkpt><trkpt lat="46.26483115101425" lon="12.30276373461113"><ele>475.5</ele><time>2026-04-19T13:45:59.573Z</time></trkpt><trkpt lat="46.264730643708155" lon="12.302824811318429"><ele>477.0</ele><time>2026-04-19T13:46:00.573Z</time></trkpt><trkpt lat="46.26461435704959" lon="12.30290520762404"><ele>478.5</ele><time>2026-04-19T13:46:01.573Z</time></trkpt><trkpt lat="46.26451973497983" lon="12.302986082443635"><ele>480.0</ele><time>2026-04-19T13:46:02.573Z</time></trkpt><trkpt lat="46.26441003495782" lon="12.303043517529956"><ele>480.0</ele><time>2026-04-19T13:46:03.573Z</time></trkpt><trkpt lat="46.26428020352065" lon="12.303077876293505"><ele>480.0</ele><time>2026-04-19T13:46:04.573Z</time></trkpt><trkpt lat="46.26415075593294" lon="12.303083811076482"><ele>480.0</ele><time>2026-04-19T13:46:05.573Z</time></trkpt><trkpt lat="46.26400747272705" lon="12.303013504782141"><ele>480.0</ele><time>2026-04-19T13:46:06.573Z</time></trkpt><trkpt lat="46.263858432922774" lon="12.302944534217024"><ele>475.33333333333337</ele><time>2026-04-19T13:46:07.573Z</time></trkpt><trkpt lat="46.26369849861946" lon="12.30284465514396"><ele>470.6666666666667</ele><time>2026-04-19T13:46:08.573Z</time></trkpt><trkpt lat="46.263523177062" lon="12.302729731654216"><ele>466.0</ele><time>2026-04-19T13:46:09.573Z</time></trkpt><trkpt lat="46.26333274867416" lon="12.302602839593552"><ele>466.0</ele><time>2026-04-19T13:46:10.573Z</time></trkpt><trkpt lat="46.26311575301431" lon="12.302484265147083"><ele>466.0</ele><time>2026-04-19T13:46:11.573Z</time></trkpt><trkpt lat="46.26291916545954" lon="12.302350771535036"><ele>466.0</ele><time>2026-04-19T13:46:12.573Z</time></trkpt><trkpt lat="46.26271931608824" lon="12.302192916273517"><ele>464.5</ele><time>2026-04-19T13:46:13.573Z</time></trkpt><trkpt lat="46.26251477571696" lon="12.302056196491986"><ele>463.0</ele><time>2026-04-19T13:46:14.573Z</time></trkpt><trkpt lat="46.26229726007793" lon="12.30193534836775"><ele>456.0</ele><time>2026-04-19T13:46:15.573Z</time></trkpt><trkpt lat="46.2620763809754" lon="12.301785988281894"><ele>449.0</ele><time>2026-04-19T13:46:16.573Z</time></trkpt><trkpt lat="46.26185256134865" lon="12.301638568481817"><ele>449.0</ele><time>2026-04-19T13:46:17.573Z</time></trkpt><trkpt lat="46.261646059699636" lon="12.301493557088568"><ele>449.0</ele><time>2026-04-19T13:46:18.573Z</time></trkpt><trkpt lat="46.26144596188184" lon="12.301356750619581"><ele>449.66666666666663</ele><time>2026-04-19T13:46:19.573Z</time></trkpt><trkpt lat="46.26125604809122" lon="12.301211352706927"><ele>450.33333333333337</ele><time>2026-04-19T13:46:20.573Z</time></trkpt><trkpt lat="46.26108203057619" lon="12.301054430038723"><ele>451.0</ele><time>2026-04-19T13:46:21.573Z</time></trkpt><trkpt lat="46.26089813724481" lon="12.300887438668289"><ele>451.0</ele><time>2026-04-19T13:46:22.573Z</time></trkpt><trkpt lat="46.26072322056475" lon="12.300736308418454"><ele>451.0</ele><time>2026-04-19T13:46:23.573Z</time></trkpt><trkpt lat="46.26054354885311" lon="12.300589234732085"><ele>451.0</ele><time>2026-04-19T13:46:24.573Z</time></trkpt><trkpt lat="46.26035671214691" lon="12.300466919826377"><ele>449.0</ele><time>2026-04-19T13:46:25.573Z</time></trkpt><trkpt lat="46.260157122064506" lon="12.300358569204738"><ele>447.0</ele><time>2026-04-19T13:46:26.573Z</time></trkpt><trkpt lat="46.2599390720729" lon="12.300262187794154"><ele>445.0</ele><time>2026-04-19T13:46:27.573Z</time></trkpt><trkpt lat="46.25972106080931" lon="12.30016395087314"><ele>443.33333333333337</ele><time>2026-04-19T13:46:28.573Z</time></trkpt><trkpt lat="46.25951913196692" lon="12.300074765774157"><ele>441.66666666666663</ele><time>2026-04-19T13:46:29.573Z</time></trkpt><trkpt lat="46.25932087961383" lon="12.29999910850751"><ele>440.0</ele><time>2026-04-19T13:46:30.573Z</time></trkpt><trkpt lat="46.25911460480671" lon="12.299936831004391"><ele>438.3333333333333</ele><time>2026-04-19T13:46:31.573Z</time></trkpt><trkpt lat="46.258899750425584" lon="12.299894314465977"><ele>436.66666666666663</ele><time>2026-04-19T13:46:32.573Z</time></trkpt><trkpt lat="46.25869422950881" lon="12.299861305126832"><ele>435.0</ele><time>2026-04-19T13:46:33.573Z</time></trkpt><trkpt lat="46.25848036919757" lon="12.299799246808876"><ele>443.0</ele><time>2026-04-19T13:46:34.573Z</time></trkpt><trkpt lat="46.2582492824238" lon="12.299739892261355"><ele>451.0</ele><time>2026-04-19T13:46:35.573Z</time></trkpt><trkpt lat="46.25801984470302" lon="12.299662240737444"><ele>451.0</ele><time>2026-04-19T13:46:36.573Z</time></trkpt><trkpt lat="46.257789635561" lon="12.299623808994813"><ele>451.0</ele><time>2026-04-19T13:46:37.573Z</time></trkpt><trkpt lat="46.25757435951643" lon="12.299525224951994"><ele>451.0</ele><time>2026-04-19T13:46:38.573Z</time></trkpt><trkpt lat="46.257360275202124" lon="12.299406026014422"><ele>451.0</ele><time>2026-04-19T13:46:39.573Z</time></trkpt><trkpt lat="46.25714440455601" lon="12.29928795551718"><ele>444.0</ele><time>2026-04-19T13:46:40.573Z</time></trkpt><trkpt lat="46.25693181926806" lon="12.299140545377771"><ele>437.0</ele><time>2026-04-19T13:46:41.573Z</time></trkpt><trkpt lat="46.256703992875664" lon="12.299056104753685"><ele>437.0</ele><time>2026-04-19T13:46:42.573Z</time></trkpt><trkpt lat="46.2564812007463" lon="12.2989588326743"><ele>437.0</ele><time>2026-04-19T13:46:43.573Z</time></trkpt><trkpt lat="46.25625837735867" lon="12.298877968957962"><ele>440.66666666666663</ele><time>2026-04-19T13:46:44.573Z</time></trkpt><trkpt lat="46.25604526750937" lon="12.298801803346393"><ele>444.33333333333337</ele><time>2026-04-19T13:46:45.573Z</time></trkpt><trkpt lat="46.25583961405887" lon="12.298731939456664"><ele>448.0</ele><time>2026-04-19T13:46:46.573Z</time></trkpt><trkpt lat="46.2556346379432" lon="12.298678584939326"><ele>449.5</ele><time>2026-04-19T13:46:47.573Z</time></trkpt><trkpt lat="46.255402009897374" lon="12.298646628648157"><ele>451.0</ele><time>2026-04-19T13:46:48.573Z</time></trkpt><trkpt lat="46.255158127049405" lon="12.29863457871099"><ele>451.0</ele><time>2026-04-19T13:46:49.573Z</time></trkpt><trkpt lat="46.254918920532816" lon="12.298633903767415"><ele>451.0</ele><time>2026-04-19T13:46:50.573Z</time></trkpt><trkpt lat="46.25468203617694" lon="12.298632973525356"><ele>448.5</ele><time>2026-04-19T13:46:51.573Z</time></trkpt><trkpt lat="46.25444806999758" lon="12.298633951975757"><ele>446.0</ele><time>2026-04-19T13:46:52.573Z</time></trkpt><trkpt lat="46.2542089448406" lon="12.298635144860365"><ele>446.0</ele><time>2026-04-19T13:46:53.573Z</time></trkpt><trkpt lat="46.25397348868366" lon="12.298606287385894"><ele>446.0</ele><time>2026-04-19T13:46:54.573Z</time></trkpt><trkpt lat="46.253736880402144" lon="12.2986227031794"><ele>447.5</ele><time>2026-04-19T13:46:55.573Z</time></trkpt><trkpt lat="46.25348531107806" lon="12.298616256355533"><ele>449.0</ele><time>2026-04-19T13:46:56.573Z</time></trkpt><trkpt lat="46.253218747753834" lon="12.298589635184651"><ele>450.5</ele><time>2026-04-19T13:46:57.573Z</time></trkpt><trkpt lat="46.25294838638969" lon="12.298605552215475"><ele>452.0</ele><time>2026-04-19T13:46:58.573Z</time></trkpt><trkpt lat="46.25269261459377" lon="12.298584135473568"><ele>452.0</ele><time>2026-04-19T13:46:59.573Z</time></trkpt><trkpt lat="46.252439011875445" lon="12.298531144370527"><ele>452.0</ele><time>2026-04-19T13:47:00.573Z</time></trkpt><trkpt lat="46.252190835989126" lon="12.298517777192908"><ele>447.5</ele><time>2026-04-19T13:47:01.573Z</time></trkpt><trkpt lat="46.25193955778043" lon="12.298472447654985"><ele>443.0</ele><time>2026-04-19T13:47:02.573Z</time></trkpt><trkpt lat="46.251690541763075" lon="12.298438497398774"><ele>440.0</ele><time>2026-04-19T13:47:03.573Z</time></trkpt><trkpt lat="46.25144452946696" lon="12.29840515579823"><ele>437.0</ele><time>2026-04-19T13:47:04.573Z</time></trkpt><trkpt lat="46.25121696991478" lon="12.298376646632164"><ele>437.0</ele><time>2026-04-19T13:47:05.573Z</time></trkpt><trkpt lat="46.25100392348988" lon="12.298346698287421"><ele>437.0</ele><time>2026-04-19T13:47:06.573Z</time></trkpt><trkpt lat="46.250795857800654" lon="12.298310049560143"><ele>437.0</ele><time>2026-04-19T13:47:07.573Z</time></trkpt><trkpt lat="46.250589179430136" lon="12.298298986685623"><ele>437.66666666666663</ele><time>2026-04-19T13:47:08.573Z</time></trkpt><trkpt lat="46.25037962911184" lon="12.298300024541426"><ele>438.33333333333337</ele><time>2026-04-19T13:47:09.573Z</time></trkpt><trkpt lat="46.250168859590936" lon="12.298320353617896"><ele>439.0</ele><time>2026-04-19T13:47:10.573Z</time></trkpt><trkpt lat="46.249955348342894" lon="12.298357007313939"><ele>437.33333333333337</ele><time>2026-04-19T13:47:11.573Z</time></trkpt><trkpt lat="46.249737256874724" lon="12.298405322372535"><ele>435.66666666666663</ele><time>2026-04-19T13:47:12.573Z</time></trkpt><trkpt lat="46.24951985851936" lon="12.29843833952969"><ele>434.0</ele><time>2026-04-19T13:47:13.573Z</time></trkpt><trkpt lat="46.24929696616771" lon="12.298481611782972"><ele>434.0</ele><time>2026-04-19T13:47:14.573Z</time></trkpt><trkpt lat="46.24907334731546" lon="12.298527005002542"><ele>434.0</ele><time>2026-04-19T13:47:15.573Z</time></trkpt><trkpt lat="46.24885581170391" lon="12.29857735362433"><ele>434.0</ele><time>2026-04-19T13:47:16.573Z</time></trkpt><trkpt lat="46.24864301893308" lon="12.298620003082135"><ele>434.0</ele><time>2026-04-19T13:47:17.573Z</time></trkpt><trkpt lat="46.24843448542456" lon="12.298666584459742"><ele>434.0</ele><time>2026-04-19T13:47:18.573Z</time></trkpt><trkpt lat="46.24822849632101" lon="12.29871834278902"><ele>434.0</ele><time>2026-04-19T13:47:19.573Z</time></trkpt><trkpt lat="46.248019257618566" lon="12.298784404911903"><ele>434.0</ele><time>2026-04-19T13:47:20.573Z</time></trkpt><trkpt lat="46.24781420379004" lon="12.298861153323154"><ele>434.0</ele><time>2026-04-19T13:47:21.573Z</time></trkpt><trkpt lat="46.24761440819255" lon="12.298940602768793"><ele>434.0</ele><time>2026-04-19T13:47:22.573Z</time></trkpt><trkpt lat="46.24742815159419" lon="12.29900982437774"><ele>432.66666666666663</ele><time>2026-04-19T13:47:23.573Z</time></trkpt><trkpt lat="46.24724685766019" lon="12.29905909922249"><ele>431.33333333333337</ele><time>2026-04-19T13:47:24.573Z</time></trkpt><trkpt lat="46.247066345093074" lon="12.299074220124899"><ele>430.0</ele><time>2026-04-19T13:47:25.573Z</time></trkpt><trkpt lat="46.24688154540861" lon="12.299058785543755"><ele>430.0</ele><time>2026-04-19T13:47:26.573Z</time></trkpt><trkpt lat="46.246699411420984" lon="12.299025742263314"><ele>430.0</ele><time>2026-04-19T13:47:27.573Z</time></trkpt><trkpt lat="46.24652056059125" lon="12.298976750772692"><ele>430.0</ele><time>2026-04-19T13:47:28.574Z</time></trkpt><trkpt lat="46.24634627677956" lon="12.298916602262704"><ele>431.33333333333337</ele><time>2026-04-19T13:47:29.574Z</time></trkpt><trkpt lat="46.24616061258925" lon="12.298813374120678"><ele>432.66666666666663</ele><time>2026-04-19T13:47:30.574Z</time></trkpt><trkpt lat="46.24600008119294" lon="12.298705620691507"><ele>434.0</ele><time>2026-04-19T13:47:31.574Z</time></trkpt><trkpt lat="46.24585183113352" lon="12.298576656315554"><ele>434.0</ele><time>2026-04-19T13:47:32.574Z</time></trkpt><trkpt lat="46.245716074225065" lon="12.298435361533299"><ele>434.0</ele><time>2026-04-19T13:47:33.574Z</time></trkpt><trkpt lat="46.245592864940306" lon="12.29826447397324"><ele>434.0</ele><time>2026-04-19T13:47:34.574Z</time></trkpt><trkpt lat="46.2454455133412" lon="12.298118437787053"><ele>434.0</ele><time>2026-04-19T13:47:35.574Z</time></trkpt><trkpt lat="46.245310856292804" lon="12.29794920338387"><ele>434.0</ele><time>2026-04-19T13:47:36.574Z</time></trkpt><trkpt lat="46.24517131724892" lon="12.297787877862346"><ele>434.0</ele><time>2026-04-19T13:47:37.574Z</time></trkpt><trkpt lat="46.2450182169434" lon="12.29762749621152"><ele>434.0</ele><time>2026-04-19T13:47:38.574Z</time></trkpt><trkpt lat="46.24485952988355" lon="12.297460586994266"><ele>434.0</ele><time>2026-04-19T13:47:39.574Z</time></trkpt><trkpt lat="46.24468634611542" lon="12.297269570747341"><ele>434.0</ele><time>2026-04-19T13:47:40.574Z</time></trkpt><trkpt lat="46.24449078177892" lon="12.29708720131961"><ele>436.5</ele><time>2026-04-19T13:47:41.574Z</time></trkpt><trkpt lat="46.24428906775236" lon="12.29688140721147"><ele>439.0</ele><time>2026-04-19T13:47:42.574Z</time></trkpt><trkpt lat="46.24409325842509" lon="12.29666620504133"><ele>440.0</ele><time>2026-04-19T13:47:43.574Z</time></trkpt><trkpt lat="46.24388607416608" lon="12.296457897723439"><ele>441.0</ele><time>2026-04-19T13:47:44.574Z</time></trkpt><trkpt lat="46.24369967729365" lon="12.296296223104656"><ele>441.0</ele><time>2026-04-19T13:47:45.574Z</time></trkpt><trkpt lat="46.24352913387981" lon="12.296108986322782"><ele>441.0</ele><time>2026-04-19T13:47:46.574Z</time></trkpt><trkpt lat="46.24337776307577" lon="12.295944931713374"><ele>441.0</ele><time>2026-04-19T13:47:47.574Z</time></trkpt><trkpt lat="46.24325239382644" lon="12.295808118276916"><ele>441.0</ele><time>2026-04-19T13:47:48.574Z</time></trkpt><trkpt lat="46.24314082276551" lon="12.295658285836938"><ele>441.0</ele><time>2026-04-19T13:47:49.574Z</time></trkpt><trkpt lat="46.24304539542326" lon="12.29553809942201"><ele>441.0</ele><time>2026-04-19T13:47:50.574Z</time></trkpt><trkpt lat="46.2429384537658" lon="12.295431341132497"><ele>441.0</ele><time>2026-04-19T13:47:51.574Z</time></trkpt><trkpt lat="46.24284313916816" lon="12.295315365468278"><ele>441.75</ele><time>2026-04-19T13:47:52.574Z</time></trkpt><trkpt lat="46.24273989213733" lon="12.295197696944813"><ele>442.5</ele><time>2026-04-19T13:47:53.574Z</time></trkpt><trkpt lat="46.2426375763828" lon="12.295065935516648"><ele>443.25</ele><time>2026-04-19T13:47:54.574Z</time></trkpt><trkpt lat="46.24251422837006" lon="12.294935755549128"><ele>444.0</ele><time>2026-04-19T13:47:55.574Z</time></trkpt><trkpt lat="46.242369379637005" lon="12.29480072478928"><ele>451.0</ele><time>2026-04-19T13:47:56.574Z</time></trkpt><trkpt lat="46.24217921640266" lon="12.294668745882449"><ele>458.0</ele><time>2026-04-19T13:47:57.574Z</time></trkpt><trkpt lat="46.24184002864863" lon="12.294569284161996"><ele>458.0</ele><time>2026-04-19T13:47:58.574Z</time></trkpt><trkpt lat="46.24167520118864" lon="12.294528831026485"><ele>458.0</ele><time>2026-04-19T13:47:59.574Z</time></trkpt><trkpt lat="46.24151000703653" lon="12.294507758751537"><ele>458.0</ele><time>2026-04-19T13:48:00.574Z</time></trkpt><trkpt lat="46.24134357774595" lon="12.294532433364633"><ele>454.3333333333333</ele><time>2026-04-19T13:48:01.574Z</time></trkpt><trkpt lat="46.24117500588117" lon="12.294573874735459"><ele>450.66666666666663</ele><time>2026-04-19T13:48:02.574Z</time></trkpt><trkpt lat="46.2410074796157" lon="12.294656704526824"><ele>447.0</ele><time>2026-04-19T13:48:03.574Z</time></trkpt><trkpt lat="46.24084116786924" lon="12.294778746610834"><ele>443.66666666666663</ele><time>2026-04-19T13:48:04.574Z</time></trkpt><trkpt lat="46.24067323981915" lon="12.294920784084033"><ele>440.3333333333333</ele><time>2026-04-19T13:48:05.574Z</time></trkpt><trkpt lat="46.24051509130031" lon="12.295054486334616"><ele>437.0</ele><time>2026-04-19T13:48:06.574Z</time></trkpt><trkpt lat="46.24034953318804" lon="12.2951844943023"><ele>437.0</ele><time>2026-04-19T13:48:07.574Z</time></trkpt><trkpt lat="46.240177718907994" lon="12.295292895044023"><ele>437.0</ele><time>2026-04-19T13:48:08.574Z</time></trkpt><trkpt lat="46.240011796677656" lon="12.295386018467845"><ele>437.0</ele><time>2026-04-19T13:48:09.574Z</time></trkpt><trkpt lat="46.239842643867775" lon="12.295462946330275"><ele>437.3333333333333</ele><time>2026-04-19T13:48:10.574Z</time></trkpt><trkpt lat="46.239664351398226" lon="12.295501895384826"><ele>437.66666666666663</ele><time>2026-04-19T13:48:11.574Z</time></trkpt><trkpt lat="46.239479073850816" lon="12.29558134192354"><ele>438.0</ele><time>2026-04-19T13:48:12.574Z</time></trkpt><trkpt lat="46.23927684095022" lon="12.2956183973749"><ele>436.66666666666663</ele><time>2026-04-19T13:48:13.574Z</time></trkpt><trkpt lat="46.23907300303391" lon="12.295624075608986"><ele>435.3333333333333</ele><time>2026-04-19T13:48:14.574Z</time></trkpt><trkpt lat="46.23886459209671" lon="12.29561457937219"><ele>434.0</ele><time>2026-04-19T13:48:15.574Z</time></trkpt><trkpt lat="46.238656709843575" lon="12.295535528772483"><ele>434.0</ele><time>2026-04-19T13:48:16.574Z</time></trkpt><trkpt lat="46.238443465153736" lon="12.295478721742874"><ele>434.0</ele><time>2026-04-19T13:48:17.574Z</time></trkpt><trkpt lat="46.23822104147387" lon="12.2954036245053"><ele>434.0</ele><time>2026-04-19T13:48:18.574Z</time></trkpt><trkpt lat="46.23798598328838" lon="12.295321432406583"><ele>436.0</ele><time>2026-04-19T13:48:19.574Z</time></trkpt><trkpt lat="46.237751129407705" lon="12.29523770258625"><ele>438.0</ele><time>2026-04-19T13:48:20.574Z</time></trkpt><trkpt lat="46.23751112746948" lon="12.295163810130578"><ele>437.0</ele><time>2026-04-19T13:48:21.574Z</time></trkpt><trkpt lat="46.23729679330911" lon="12.295089652634697"><ele>436.0</ele><time>2026-04-19T13:48:22.574Z</time></trkpt><trkpt lat="46.23709193102929" lon="12.295016652124385"><ele>435.0</ele><time>2026-04-19T13:48:23.574Z</time></trkpt><trkpt lat="46.23689415028349" lon="12.294945008717535"><ele>435.0</ele><time>2026-04-19T13:48:24.574Z</time></trkpt><trkpt lat="46.236683804114065" lon="12.294873708667334"><ele>435.0</ele><time>2026-04-19T13:48:25.574Z</time></trkpt><trkpt lat="46.23645180349047" lon="12.294807027945977"><ele>437.0</ele><time>2026-04-19T13:48:26.574Z</time></trkpt><trkpt lat="46.236273345994896" lon="12.294721961870689"><ele>439.0</ele><time>2026-04-19T13:48:27.574Z</time></trkpt><trkpt lat="46.23607414649682" lon="12.29464722717099"><ele>441.0</ele><time>2026-04-19T13:48:28.574Z</time></trkpt><trkpt lat="46.23586709535217" lon="12.294567409283259"><ele>441.0</ele><time>2026-04-19T13:48:29.574Z</time></trkpt><trkpt lat="46.235668351162566" lon="12.294487953569952"><ele>441.0</ele><time>2026-04-19T13:48:30.574Z</time></trkpt><trkpt lat="46.235453709934276" lon="12.294410104270131"><ele>441.0</ele><time>2026-04-19T13:48:31.574Z</time></trkpt><trkpt lat="46.235245293516215" lon="12.294333199339269"><ele>441.0</ele><time>2026-04-19T13:48:32.574Z</time></trkpt><trkpt lat="46.235036024027494" lon="12.294251330292738"><ele>441.0</ele><time>2026-04-19T13:48:33.574Z</time></trkpt><trkpt lat="46.23481810218293" lon="12.294158789195631"><ele>441.0</ele><time>2026-04-19T13:48:34.574Z</time></trkpt><trkpt lat="46.234599931208884" lon="12.294048523681194"><ele>445.5</ele><time>2026-04-19T13:48:35.574Z</time></trkpt><trkpt lat="46.234386270789535" lon="12.293931301368518"><ele>450.0</ele><time>2026-04-19T13:48:36.574Z</time></trkpt><trkpt lat="46.23417705792271" lon="12.293791383415591"><ele>442.0</ele><time>2026-04-19T13:48:37.574Z</time></trkpt><trkpt lat="46.233960391852115" lon="12.293624321042316"><ele>434.0</ele><time>2026-04-19T13:48:38.574Z</time></trkpt><trkpt lat="46.23375465324352" lon="12.293418796178033"><ele>434.0</ele><time>2026-04-19T13:48:39.574Z</time></trkpt><trkpt lat="46.23356526532311" lon="12.293228461305082"><ele>434.0</ele><time>2026-04-19T13:48:40.574Z</time></trkpt><trkpt lat="46.23339192471696" lon="12.293046392692924"><ele>434.0</ele><time>2026-04-19T13:48:41.574Z</time></trkpt><trkpt lat="46.23321757450587" lon="12.29287886111242"><ele>433.3333333333333</ele><time>2026-04-19T13:48:42.574Z</time></trkpt><trkpt lat="46.23304267649045" lon="12.292699772717251"><ele>432.66666666666663</ele><time>2026-04-19T13:48:43.574Z</time></trkpt><trkpt lat="46.23286400076995" lon="12.292531902859695"><ele>432.0</ele><time>2026-04-19T13:48:44.574Z</time></trkpt><trkpt lat="46.2326973168952" lon="12.29232993114582"><ele>431.0</ele><time>2026-04-19T13:48:45.574Z</time></trkpt><trkpt lat="46.23252649582953" lon="12.29214356451186"><ele>430.0</ele><time>2026-04-19T13:48:46.574Z</time></trkpt><trkpt lat="46.232362800405554" lon="12.291920155436554"><ele>429.0</ele><time>2026-04-19T13:48:47.574Z</time></trkpt><trkpt lat="46.23220277306188" lon="12.291685250067534"><ele>429.0</ele><time>2026-04-19T13:48:48.574Z</time></trkpt><trkpt lat="46.23204678294654" lon="12.29143797949114"><ele>429.0</ele><time>2026-04-19T13:48:49.574Z</time></trkpt><trkpt lat="46.23188524339564" lon="12.291191836432803"><ele>431.66666666666663</ele><time>2026-04-19T13:48:50.574Z</time></trkpt><trkpt lat="46.23172198182755" lon="12.290974467815992"><ele>434.3333333333333</ele><time>2026-04-19T13:48:51.574Z</time></trkpt><trkpt lat="46.231541694803134" lon="12.290776938701972"><ele>437.0</ele><time>2026-04-19T13:48:52.574Z</time></trkpt><trkpt lat="46.23134245149742" lon="12.290586838092127"><ele>437.0</ele><time>2026-04-19T13:48:53.574Z</time></trkpt><trkpt lat="46.23113693947779" lon="12.290395703752166"><ele>437.0</ele><time>2026-04-19T13:48:54.574Z</time></trkpt><trkpt lat="46.23094419068477" lon="12.290208951391449"><ele>437.0</ele><time>2026-04-19T13:48:55.574Z</time></trkpt><trkpt lat="46.2307497398507" lon="12.290044782764049"><ele>437.0</ele><time>2026-04-19T13:48:56.574Z</time></trkpt><trkpt lat="46.2305399925276" lon="12.289888251124063"><ele>436.0</ele><time>2026-04-19T13:48:57.574Z</time></trkpt><trkpt lat="46.23031148084889" lon="12.289761352851121"><ele>435.0</ele><time>2026-04-19T13:48:58.574Z</time></trkpt><trkpt lat="46.23006129343551" lon="12.289643520394268"><ele>435.0</ele><time>2026-04-19T13:48:59.574Z</time></trkpt><trkpt lat="46.2298122467017" lon="12.289518904723051"><ele>435.0</ele><time>2026-04-19T13:49:00.574Z</time></trkpt><trkpt lat="46.22958529065757" lon="12.289410193611124"><ele>434.5</ele><time>2026-04-19T13:49:01.574Z</time></trkpt><trkpt lat="46.22935593642487" lon="12.28929119169081"><ele>434.0</ele><time>2026-04-19T13:49:02.574Z</time></trkpt><trkpt lat="46.22913235126228" lon="12.289165038346487"><ele>433.5</ele><time>2026-04-19T13:49:03.574Z</time></trkpt><trkpt lat="46.228906643480705" lon="12.289043519909562"><ele>433.0</ele><time>2026-04-19T13:49:04.574Z</time></trkpt><trkpt lat="46.22870513230467" lon="12.288932153123541"><ele>434.0</ele><time>2026-04-19T13:49:05.574Z</time></trkpt><trkpt lat="46.22845948709461" lon="12.288817007947934"><ele>435.0</ele><time>2026-04-19T13:49:06.574Z</time></trkpt><trkpt lat="46.22824006265338" lon="12.288720974264146"><ele>434.33333333333337</ele><time>2026-04-19T13:49:07.574Z</time></trkpt><trkpt lat="46.22803592204953" lon="12.28864148103684"><ele>433.6666666666667</ele><time>2026-04-19T13:49:08.574Z</time></trkpt><trkpt lat="46.227842563658854" lon="12.288574406546566"><ele>433.0</ele><time>2026-04-19T13:49:09.574Z</time></trkpt><trkpt lat="46.22766515798656" lon="12.288507919146461"><ele>433.0</ele><time>2026-04-19T13:49:10.574Z</time></trkpt><trkpt lat="46.22750088233063" lon="12.288442113092358"><ele>433.0</ele><time>2026-04-19T13:49:11.574Z</time></trkpt><trkpt lat="46.227356754982765" lon="12.288387534143144"><ele>433.0</ele><time>2026-04-19T13:49:12.574Z</time></trkpt><trkpt lat="46.227212831781216" lon="12.28834075310827"><ele>430.5</ele><time>2026-04-19T13:49:13.574Z</time></trkpt><trkpt lat="46.227072780757624" lon="12.288291334362672"><ele>428.0</ele><time>2026-04-19T13:49:14.574Z</time></trkpt><trkpt lat="46.22693561954489" lon="12.28823494340482"><ele>425.5</ele><time>2026-04-19T13:49:15.574Z</time></trkpt><trkpt lat="46.22680222371362" lon="12.288166649310297"><ele>423.0</ele><time>2026-04-19T13:49:16.574Z</time></trkpt><trkpt lat="46.22667016490024" lon="12.28810555798918"><ele>425.33333333333337</ele><time>2026-04-19T13:49:17.574Z</time></trkpt><trkpt lat="46.22651952869752" lon="12.288029405350718"><ele>427.6666666666667</ele><time>2026-04-19T13:49:18.574Z</time></trkpt><trkpt lat="46.22636007145549" lon="12.28793858465273"><ele>430.0</ele><time>2026-04-19T13:49:19.574Z</time></trkpt><trkpt lat="46.226191583541635" lon="12.287842872692554"><ele>430.0</ele><time>2026-04-19T13:49:20.574Z</time></trkpt><trkpt lat="46.226027655195224" lon="12.287754989893447"><ele>430.0</ele><time>2026-04-19T13:49:21.574Z</time></trkpt><trkpt lat="46.225877727323414" lon="12.287666356003989"><ele>430.0</ele><time>2026-04-19T13:49:22.574Z</time></trkpt><trkpt lat="46.225744817484355" lon="12.287585007833544"><ele>427.5</ele><time>2026-04-19T13:49:23.574Z</time></trkpt><trkpt lat="46.22562580340378" lon="12.28750902935313"><ele>425.0</ele><time>2026-04-19T13:49:24.574Z</time></trkpt><trkpt lat="46.22552703594876" lon="12.287432799039726"><ele>422.5</ele><time>2026-04-19T13:49:25.574Z</time></trkpt><trkpt lat="46.225431077242014" lon="12.287353663038154"><ele>420.0</ele><time>2026-04-19T13:49:26.574Z</time></trkpt><trkpt lat="46.225347922843405" lon="12.28727660775555"><ele>422.0</ele><time>2026-04-19T13:49:27.574Z</time></trkpt><trkpt lat="46.225274701139185" lon="12.287205633403941"><ele>424.0</ele><time>2026-04-19T13:49:28.574Z</time></trkpt><trkpt lat="46.22521641361459" lon="12.28714798142263"><ele>426.0</ele><time>2026-04-19T13:49:29.574Z</time></trkpt><trkpt lat="46.22515463562339" lon="12.287096569015135"><ele>428.0</ele><time>2026-04-19T13:49:30.574Z</time></trkpt><trkpt lat="46.225096433372215" lon="12.287049174233323"><ele>430.0</ele><time>2026-04-19T13:49:31.574Z</time></trkpt><trkpt lat="46.22504186829612" lon="12.286985876544799"><ele>432.0</ele><time>2026-04-19T13:49:32.574Z</time></trkpt><trkpt lat="46.22499868483277" lon="12.286900438360782"><ele>434.0</ele><time>2026-04-19T13:49:33.574Z</time></trkpt><trkpt lat="46.22496627924802" lon="12.286808250672003"><ele>433.99999999999994</ele><time>2026-04-19T13:49:34.575Z</time></trkpt><trkpt lat="46.224928239519144" lon="12.286718464575793"><ele>434.0</ele><time>2026-04-19T13:49:35.575Z</time></trkpt><trkpt lat="46.224856519684" lon="12.2866664985043"><ele>434.0</ele><time>2026-04-19T13:49:36.575Z</time></trkpt><trkpt lat="46.224773838393766" lon="12.286645113419556"><ele>434.0</ele><time>2026-04-19T13:49:37.575Z</time></trkpt><trkpt lat="46.224691679713146" lon="12.2866740500693"><ele>433.99999999999994</ele><time>2026-04-19T13:49:38.575Z</time></trkpt><trkpt lat="46.22459997582108" lon="12.286738832034603"><ele>434.0</ele><time>2026-04-19T13:49:39.575Z</time></trkpt><trkpt lat="46.22449907713278" lon="12.28678326528544"><ele>431.5</ele><time>2026-04-19T13:49:40.575Z</time></trkpt><trkpt lat="46.224373113456735" lon="12.286788098578041"><ele>429.0</ele><time>2026-04-19T13:49:41.575Z</time></trkpt><trkpt lat="46.22422609266187" lon="12.286786176233724"><ele>426.5</ele><time>2026-04-19T13:49:42.575Z</time></trkpt><trkpt lat="46.22408700654935" lon="12.286654964412785"><ele>424.0</ele><time>2026-04-19T13:49:43.575Z</time></trkpt><trkpt lat="46.2239483888729" lon="12.286610220753873"><ele>421.33333333333337</ele><time>2026-04-19T13:49:44.575Z</time></trkpt><trkpt lat="46.223823942006796" lon="12.286542623564474"><ele>418.66666666666663</ele><time>2026-04-19T13:49:45.575Z</time></trkpt><trkpt lat="46.223680389473124" lon="12.286478630568185"><ele>416.0</ele><time>2026-04-19T13:49:46.575Z</time></trkpt><trkpt lat="46.22351612138657" lon="12.286408637855079"><ele>416.0</ele><time>2026-04-19T13:49:47.575Z</time></trkpt><trkpt lat="46.223339509708936" lon="12.286311906166071"><ele>416.0</ele><time>2026-04-19T13:49:48.575Z</time></trkpt><trkpt lat="46.22316156688296" lon="12.2862510154865"><ele>416.0</ele><time>2026-04-19T13:49:49.575Z</time></trkpt><trkpt lat="46.22298069761416" lon="12.28621891720031"><ele>416.3333333333333</ele><time>2026-04-19T13:49:50.575Z</time></trkpt><trkpt lat="46.22279634575083" lon="12.286165715096276"><ele>416.66666666666663</ele><time>2026-04-19T13:49:51.575Z</time></trkpt><trkpt lat="46.22261066578771" lon="12.286124651457344"><ele>417.0</ele><time>2026-04-19T13:49:52.575Z</time></trkpt><trkpt lat="46.22241029301691" lon="12.286060149926104"><ele>418.5</ele><time>2026-04-19T13:49:53.575Z</time></trkpt><trkpt lat="46.22218188135699" lon="12.286020710375166"><ele>420.0</ele><time>2026-04-19T13:49:54.575Z</time></trkpt><trkpt lat="46.22192462238943" lon="12.285998619006197"><ele>420.0</ele><time>2026-04-19T13:49:55.575Z</time></trkpt><trkpt lat="46.221661289698915" lon="12.285983790088713"><ele>420.0</ele><time>2026-04-19T13:49:56.575Z</time></trkpt><trkpt lat="46.22141650312787" lon="12.286010241885535"><ele>421.5</ele><time>2026-04-19T13:49:57.575Z</time></trkpt><trkpt lat="46.22116493060147" lon="12.286020293199769"><ele>423.0</ele><time>2026-04-19T13:49:58.575Z</time></trkpt><trkpt lat="46.22091789202826" lon="12.286047409959323"><ele>423.0</ele><time>2026-04-19T13:49:59.575Z</time></trkpt><trkpt lat="46.22068895196385" lon="12.286086296427136"><ele>423.0</ele><time>2026-04-19T13:50:00.575Z</time></trkpt><trkpt lat="46.22047520064298" lon="12.286134644640946"><ele>423.0</ele><time>2026-04-19T13:50:01.575Z</time></trkpt><trkpt lat="46.220275520782536" lon="12.286176807870122"><ele>423.66666666666663</ele><time>2026-04-19T13:50:02.575Z</time></trkpt><trkpt lat="46.22008349706003" lon="12.286225641126109"><ele>424.3333333333333</ele><time>2026-04-19T13:50:03.575Z</time></trkpt><trkpt lat="46.219896066935895" lon="12.286286539570602"><ele>425.0</ele><time>2026-04-19T13:50:04.575Z</time></trkpt><trkpt lat="46.219698572180526" lon="12.286361273841132"><ele>418.3333333333333</ele><time>2026-04-19T13:50:05.575Z</time></trkpt><trkpt lat="46.219491357963065" lon="12.286456978034288"><ele>411.66666666666663</ele><time>2026-04-19T13:50:06.575Z</time></trkpt><trkpt lat="46.219277914885794" lon="12.286556418611243"><ele>405.0</ele><time>2026-04-19T13:50:07.575Z</time></trkpt><trkpt lat="46.21906670122895" lon="12.286673858611369"><ele>408.66666666666663</ele><time>2026-04-19T13:50:08.575Z</time></trkpt><trkpt lat="46.21886116116591" lon="12.286801653046338"><ele>412.3333333333333</ele><time>2026-04-19T13:50:09.575Z</time></trkpt><trkpt lat="46.21865156675998" lon="12.286917980799348"><ele>416.0</ele><time>2026-04-19T13:50:10.575Z</time></trkpt><trkpt lat="46.21843537659799" lon="12.287042300061856"><ele>416.0</ele><time>2026-04-19T13:50:11.575Z</time></trkpt><trkpt lat="46.21821876751847" lon="12.28716728421112"><ele>416.0</ele><time>2026-04-19T13:50:12.575Z</time></trkpt><trkpt lat="46.218000616494415" lon="12.287289615967087"><ele>412.0</ele><time>2026-04-19T13:50:13.575Z</time></trkpt><trkpt lat="46.217788890361824" lon="12.287414628878484"><ele>408.0</ele><time>2026-04-19T13:50:14.575Z</time></trkpt><trkpt lat="46.21757808914742" lon="12.28752141437818"><ele>408.0</ele><time>2026-04-19T13:50:15.575Z</time></trkpt><trkpt lat="46.21736667040973" lon="12.287646501575436"><ele>408.0</ele><time>2026-04-19T13:50:16.575Z</time></trkpt><trkpt lat="46.21716580281479" lon="12.287755321113616"><ele>408.0</ele><time>2026-04-19T13:50:17.575Z</time></trkpt><trkpt lat="46.21697282442863" lon="12.28786196515542"><ele>406.66666666666663</ele><time>2026-04-19T13:50:18.575Z</time></trkpt><trkpt lat="46.21678837764638" lon="12.287963453080865"><ele>405.3333333333333</ele><time>2026-04-19T13:50:19.575Z</time></trkpt><trkpt lat="46.216609707626255" lon="12.288053340442122"><ele>404.0</ele><time>2026-04-19T13:50:20.575Z</time></trkpt><trkpt lat="46.21641914580483" lon="12.288099363767632"><ele>404.0</ele><time>2026-04-19T13:50:21.575Z</time></trkpt><trkpt lat="46.21623660079383" lon="12.288154691483244"><ele>404.0</ele><time>2026-04-19T13:50:22.575Z</time></trkpt><trkpt lat="46.2160553552142" lon="12.288198888456433"><ele>404.0</ele><time>2026-04-19T13:50:23.575Z</time></trkpt><trkpt lat="46.21586527586571" lon="12.288233046661272"><ele>404.0</ele><time>2026-04-19T13:50:24.575Z</time></trkpt><trkpt lat="46.215691878487355" lon="12.288274199171298"><ele>404.0</ele><time>2026-04-19T13:50:25.575Z</time></trkpt><trkpt lat="46.21551241901772" lon="12.288252220941201"><ele>404.0</ele><time>2026-04-19T13:50:26.575Z</time></trkpt><trkpt lat="46.215329164260034" lon="12.288241619329883"><ele>404.66666666666663</ele><time>2026-04-19T13:50:27.575Z</time></trkpt><trkpt lat="46.215150630611305" lon="12.288243084516475"><ele>405.33333333333337</ele><time>2026-04-19T13:50:28.575Z</time></trkpt><trkpt lat="46.21498378013094" lon="12.288212652690092"><ele>406.0</ele><time>2026-04-19T13:50:29.575Z</time></trkpt><trkpt lat="46.2148278536206" lon="12.288173692084092"><ele>404.33333333333337</ele><time>2026-04-19T13:50:30.575Z</time></trkpt><trkpt lat="46.2146687415146" lon="12.28812674694753"><ele>402.66666666666663</ele><time>2026-04-19T13:50:31.575Z</time></trkpt><trkpt lat="46.214513260063825" lon="12.28807959276098"><ele>401.0</ele><time>2026-04-19T13:50:32.575Z</time></trkpt><trkpt lat="46.214362143108765" lon="12.288012310565534"><ele>405.66666666666663</ele><time>2026-04-19T13:50:33.575Z</time></trkpt><trkpt lat="46.21422004829522" lon="12.287955418759147"><ele>410.33333333333337</ele><time>2026-04-19T13:50:34.575Z</time></trkpt><trkpt lat="46.21407354715535" lon="12.287879758557631"><ele>415.0</ele><time>2026-04-19T13:50:35.575Z</time></trkpt><trkpt lat="46.21392817693689" lon="12.287839450274246"><ele>415.0</ele><time>2026-04-19T13:50:36.575Z</time></trkpt><trkpt lat="46.21380123683852" lon="12.287770818722699"><ele>415.0</ele><time>2026-04-19T13:50:37.575Z</time></trkpt><trkpt lat="46.213661666681986" lon="12.287713781264305"><ele>415.0</ele><time>2026-04-19T13:50:38.575Z</time></trkpt><trkpt lat="46.213524071005835" lon="12.287681876081338"><ele>415.0</ele><time>2026-04-19T13:50:39.575Z</time></trkpt><trkpt lat="46.21339102362619" lon="12.287621277609025"><ele>415.0</ele><time>2026-04-19T13:50:40.575Z</time></trkpt><trkpt lat="46.21324810969353" lon="12.287543132538634"><ele>415.0</ele><time>2026-04-19T13:50:41.575Z</time></trkpt><trkpt lat="46.213093923418725" lon="12.287479340769133"><ele>415.0</ele><time>2026-04-19T13:50:42.575Z</time></trkpt><trkpt lat="46.212917288851045" lon="12.287406331486512"><ele>417.33333333333337</ele><time>2026-04-19T13:50:43.575Z</time></trkpt><trkpt lat="46.21272167091021" lon="12.287325778915678"><ele>419.66666666666663</ele><time>2026-04-19T13:50:44.575Z</time></trkpt><trkpt lat="46.21249354559809" lon="12.2872309721712"><ele>422.0</ele><time>2026-04-19T13:50:45.575Z</time></trkpt><trkpt lat="46.21223474037969" lon="12.287123100960393"><ele>422.0</ele><time>2026-04-19T13:50:46.575Z</time></trkpt><trkpt lat="46.21195404757517" lon="12.287007323058878"><ele>422.0</ele><time>2026-04-19T13:50:47.575Z</time></trkpt><trkpt lat="46.21165807959004" lon="12.286886097873868"><ele>415.5</ele><time>2026-04-19T13:50:48.575Z</time></trkpt><trkpt lat="46.21138712967517" lon="12.286775119813942"><ele>409.0</ele><time>2026-04-19T13:50:49.575Z</time></trkpt><trkpt lat="46.211123803635495" lon="12.286685840733599"><ele>409.0</ele><time>2026-04-19T13:50:51.575Z</time></trkpt><trkpt lat="46.21091288718322" lon="12.286596459224832"><ele>409.0</ele><time>2026-04-19T13:50:52.575Z</time></trkpt><trkpt lat="46.21071096901979" lon="12.286502634949857"><ele>409.0</ele><time>2026-04-19T13:50:53.575Z</time></trkpt><trkpt lat="46.2105090934417" lon="12.286417242499269"><ele>410.33333333333337</ele><time>2026-04-19T13:50:54.575Z</time></trkpt><trkpt lat="46.21030747730298" lon="12.286331747386482"><ele>411.66666666666663</ele><time>2026-04-19T13:50:55.575Z</time></trkpt><trkpt lat="46.21011718918747" lon="12.286258421368734"><ele>413.0</ele><time>2026-04-19T13:50:56.575Z</time></trkpt><trkpt lat="46.20993181683075" lon="12.286185111527923"><ele>410.66666666666663</ele><time>2026-04-19T13:50:57.575Z</time></trkpt><trkpt lat="46.209741249018975" lon="12.28610682052841"><ele>408.33333333333337</ele><time>2026-04-19T13:50:58.575Z</time></trkpt><trkpt lat="46.209549050210555" lon="12.28602820950326"><ele>406.0</ele><time>2026-04-19T13:50:59.575Z</time></trkpt><trkpt lat="46.209350540672425" lon="12.285944883718738"><ele>406.0</ele><time>2026-04-19T13:51:00.575Z</time></trkpt><trkpt lat="46.20916447062415" lon="12.28586767637274"><ele>406.0</ele><time>2026-04-19T13:51:01.575Z</time></trkpt><trkpt lat="46.20898720416686" lon="12.285801274493398"><ele>406.0</ele><time>2026-04-19T13:51:02.575Z</time></trkpt><trkpt lat="46.20881906785659" lon="12.285740478045492"><ele>407.0</ele><time>2026-04-19T13:51:03.575Z</time></trkpt><trkpt lat="46.2086324616333" lon="12.285686885951806"><ele>408.0</ele><time>2026-04-19T13:51:04.575Z</time></trkpt><trkpt lat="46.20844421598472" lon="12.285644813392066"><ele>409.0</ele><time>2026-04-19T13:51:05.575Z</time></trkpt><trkpt lat="46.20824647782315" lon="12.285614735534253"><ele>409.33333333333337</ele><time>2026-04-19T13:51:06.575Z</time></trkpt><trkpt lat="46.208034457071484" lon="12.285595958195904"><ele>409.66666666666663</ele><time>2026-04-19T13:51:07.575Z</time></trkpt><trkpt lat="46.20781531301999" lon="12.28557924947231"><ele>410.0</ele><time>2026-04-19T13:51:08.575Z</time></trkpt><trkpt lat="46.20758333375496" lon="12.28556203620302"><ele>410.0</ele><time>2026-04-19T13:51:09.575Z</time></trkpt><trkpt lat="46.20734089210699" lon="12.285546501105731"><ele>410.0</ele><time>2026-04-19T13:51:10.575Z</time></trkpt><trkpt lat="46.20709938808333" lon="12.285545014667472"><ele>416.0</ele><time>2026-04-19T13:51:11.575Z</time></trkpt><trkpt lat="46.20687332657484" lon="12.285554851530248"><ele>422.0</ele><time>2026-04-19T13:51:12.575Z</time></trkpt><trkpt lat="46.20663939511104" lon="12.285588428706978"><ele>417.5</ele><time>2026-04-19T13:51:13.575Z</time></trkpt><trkpt lat="46.20641403612835" lon="12.285603319993756"><ele>413.0</ele><time>2026-04-19T13:51:14.575Z</time></trkpt><trkpt lat="46.206190100062685" lon="12.285629951432327"><ele>413.0</ele><time>2026-04-19T13:51:15.575Z</time></trkpt><trkpt lat="46.20596192045492" lon="12.285662525771665"><ele>413.0</ele><time>2026-04-19T13:51:16.575Z</time></trkpt><trkpt lat="46.20572867906686" lon="12.285692803421428"><ele>414.5</ele><time>2026-04-19T13:51:17.575Z</time></trkpt><trkpt lat="46.20549132185729" lon="12.285720937491197"><ele>416.0</ele><time>2026-04-19T13:51:18.575Z</time></trkpt><trkpt lat="46.20525807272636" lon="12.285751645245927"><ele>416.0</ele><time>2026-04-19T13:51:19.575Z</time></trkpt><trkpt lat="46.205029078344744" lon="12.285757034375585"><ele>416.0</ele><time>2026-04-19T13:51:20.575Z</time></trkpt><trkpt lat="46.20479967994652" lon="12.285783965967955"><ele>415.5</ele><time>2026-04-19T13:51:21.575Z</time></trkpt><trkpt lat="46.204563569422014" lon="12.285829268840493"><ele>415.0</ele><time>2026-04-19T13:51:22.575Z</time></trkpt><trkpt lat="46.20432328321358" lon="12.285861189656101"><ele>415.0</ele><time>2026-04-19T13:51:23.575Z</time></trkpt><trkpt lat="46.20407313954636" lon="12.285868885368222"><ele>415.0</ele><time>2026-04-19T13:51:24.575Z</time></trkpt><trkpt lat="46.20382251014183" lon="12.285896927853758"><ele>416.5</ele><time>2026-04-19T13:51:25.575Z</time></trkpt><trkpt lat="46.20357695179486" lon="12.285950427752224"><ele>418.0</ele><time>2026-04-19T13:51:26.575Z</time></trkpt><trkpt lat="46.203340585978964" lon="12.285979432770672"><ele>418.5</ele><time>2026-04-19T13:51:27.575Z</time></trkpt><trkpt lat="46.20310361792444" lon="12.286022119026782"><ele>419.0</ele><time>2026-04-19T13:51:28.575Z</time></trkpt><trkpt lat="46.20286495000457" lon="12.286078072798526"><ele>419.0</ele><time>2026-04-19T13:51:29.575Z</time></trkpt><trkpt lat="46.202645145415566" lon="12.286130534801586"><ele>419.0</ele><time>2026-04-19T13:51:30.575Z</time></trkpt><trkpt lat="46.202439213431916" lon="12.286186856636178"><ele>419.0</ele><time>2026-04-19T13:51:31.575Z</time></trkpt><trkpt lat="46.20223757291105" lon="12.286245158716502"><ele>419.3333333333333</ele><time>2026-04-19T13:51:32.575Z</time></trkpt><trkpt lat="46.20203427626927" lon="12.286296711768609"><ele>419.66666666666663</ele><time>2026-04-19T13:51:33.575Z</time></trkpt><trkpt lat="46.20182545329693" lon="12.286344431106288"><ele>420.0</ele><time>2026-04-19T13:51:34.575Z</time></trkpt><trkpt lat="46.20162071208316" lon="12.286363615954786"><ele>419.5</ele><time>2026-04-19T13:51:35.575Z</time></trkpt><trkpt lat="46.20139935556929" lon="12.286385303081172"><ele>419.0</ele><time>2026-04-19T13:51:36.575Z</time></trkpt><trkpt lat="46.20116745744068" lon="12.286414303676091"><ele>419.0</ele><time>2026-04-19T13:51:37.575Z</time></trkpt><trkpt lat="46.20093021071929" lon="12.28642472716588"><ele>419.0</ele><time>2026-04-19T13:51:38.575Z</time></trkpt><trkpt lat="46.200688598343305" lon="12.286444262949727"><ele>414.5</ele><time>2026-04-19T13:51:39.575Z</time></trkpt><trkpt lat="46.20042684439728" lon="12.286466970618472"><ele>410.0</ele><time>2026-04-19T13:51:40.576Z</time></trkpt><trkpt lat="46.200155776677526" lon="12.286492569296348"><ele>410.0</ele><time>2026-04-19T13:51:41.577Z</time></trkpt><trkpt lat="46.1998723496891" lon="12.286520336504015"><ele>410.0</ele><time>2026-04-19T13:51:42.577Z</time></trkpt><trkpt lat="46.199583072725844" lon="12.286512335107322"><ele>410.5</ele><time>2026-04-19T13:51:43.577Z</time></trkpt><trkpt lat="46.19931138047703" lon="12.286531037296621"><ele>411.0</ele><time>2026-04-19T13:51:44.577Z</time></trkpt><trkpt lat="46.199064895379635" lon="12.286547590818412"><ele>408.5</ele><time>2026-04-19T13:51:45.577Z</time></trkpt><trkpt lat="46.198821315196064" lon="12.286563949236157"><ele>406.0</ele><time>2026-04-19T13:51:46.577Z</time></trkpt><trkpt lat="46.19858502513501" lon="12.28659885078003"><ele>406.0</ele><time>2026-04-19T13:51:47.577Z</time></trkpt><trkpt lat="46.198353960126845" lon="12.286611853517048"><ele>406.0</ele><time>2026-04-19T13:51:48.577Z</time></trkpt><trkpt lat="46.19812639079518" lon="12.286627583938818"><ele>406.0</ele><time>2026-04-19T13:51:49.577Z</time></trkpt><trkpt lat="46.19790878500949" lon="12.2866484025623"><ele>406.0</ele><time>2026-04-19T13:51:50.577Z</time></trkpt><trkpt lat="46.197696396094415" lon="12.28666630633482"><ele>406.0</ele><time>2026-04-19T13:51:51.577Z</time></trkpt><trkpt lat="46.1974933245539" lon="12.286682110410723"><ele>407.0</ele><time>2026-04-19T13:51:52.577Z</time></trkpt><trkpt lat="46.19730332180751" lon="12.286694687344422"><ele>408.0</ele><time>2026-04-19T13:51:53.577Z</time></trkpt><trkpt lat="46.19711243746401" lon="12.286695314940793"><ele>409.0</ele><time>2026-04-19T13:51:54.577Z</time></trkpt><trkpt lat="46.19692262430562" lon="12.286695754611552"><ele>409.0</ele><time>2026-04-19T13:51:55.577Z</time></trkpt><trkpt lat="46.19673462691302" lon="12.286718885790814"><ele>409.0</ele><time>2026-04-19T13:51:56.577Z</time></trkpt><trkpt lat="46.196549352979375" lon="12.286734750553995"><ele>409.0</ele><time>2026-04-19T13:51:57.577Z</time></trkpt><trkpt lat="46.19637035139266" lon="12.286751322802859"><ele>410.33333333333337</ele><time>2026-04-19T13:51:58.577Z</time></trkpt><trkpt lat="46.19619399221149" lon="12.28675819603964"><ele>411.66666666666663</ele><time>2026-04-19T13:51:59.577Z</time></trkpt><trkpt lat="46.19601213253954" lon="12.286772363587959"><ele>413.0</ele><time>2026-04-19T13:52:00.577Z</time></trkpt><trkpt lat="46.19582468170655" lon="12.286787249436335"><ele>413.0</ele><time>2026-04-19T13:52:01.577Z</time></trkpt><trkpt lat="46.19563517000125" lon="12.286797089779714"><ele>413.0</ele><time>2026-04-19T13:52:02.577Z</time></trkpt><trkpt lat="46.19544995106967" lon="12.286801566251564"><ele>413.0</ele><time>2026-04-19T13:52:03.577Z</time></trkpt><trkpt lat="46.195265788353545" lon="12.286812591995522"><ele>413.0</ele><time>2026-04-19T13:52:04.577Z</time></trkpt><trkpt lat="46.19509039358927" lon="12.286815638262885"><ele>413.0</ele><time>2026-04-19T13:52:05.577Z</time></trkpt><trkpt lat="46.1949259317564" lon="12.286810943862887"><ele>413.0</ele><time>2026-04-19T13:52:06.577Z</time></trkpt><trkpt lat="46.19477234743012" lon="12.286795830159223"><ele>412.25</ele><time>2026-04-19T13:52:07.577Z</time></trkpt><trkpt lat="46.19462780258856" lon="12.286783393961622"><ele>411.5</ele><time>2026-04-19T13:52:08.577Z</time></trkpt><trkpt lat="46.19449215747488" lon="12.28677799435717"><ele>410.75</ele><time>2026-04-19T13:52:09.577Z</time></trkpt><trkpt lat="46.19436281140336" lon="12.28677897789355"><ele>410.0</ele><time>2026-04-19T13:52:10.577Z</time></trkpt><trkpt lat="46.19424113204817" lon="12.28676626854336"><ele>410.0</ele><time>2026-04-19T13:52:11.577Z</time></trkpt><trkpt lat="46.19413263469539" lon="12.286702382921256"><ele>410.0</ele><time>2026-04-19T13:52:12.577Z</time></trkpt><trkpt lat="46.1940261427111" lon="12.286647081569956"><ele>410.0</ele><time>2026-04-19T13:52:13.577Z</time></trkpt><trkpt lat="46.19389060885201" lon="12.286687198824602"><ele>410.0</ele><time>2026-04-19T13:52:14.577Z</time></trkpt><trkpt lat="46.193733002479085" lon="12.286752370054032"><ele>410.0</ele><time>2026-04-19T13:52:15.577Z</time></trkpt><trkpt lat="46.19354982370462" lon="12.286770251965525"><ele>410.0</ele><time>2026-04-19T13:52:16.577Z</time></trkpt><trkpt lat="46.193341197191195" lon="12.286749860365385"><ele>410.0</ele><time>2026-04-19T13:52:17.577Z</time></trkpt><trkpt lat="46.19311754660484" lon="12.286727537526215"><ele>410.0</ele><time>2026-04-19T13:52:18.577Z</time></trkpt><trkpt lat="46.19291047072176" lon="12.28671660092555"><ele>410.0</ele><time>2026-04-19T13:52:19.577Z</time></trkpt><trkpt lat="46.19272942708308" lon="12.286703328517028"><ele>410.0</ele><time>2026-04-19T13:52:20.577Z</time></trkpt><trkpt lat="46.19255745941641" lon="12.286688338912013"><ele>410.0</ele><time>2026-04-19T13:52:21.577Z</time></trkpt><trkpt lat="46.192393759062384" lon="12.286678318256394"><ele>410.0</ele><time>2026-04-19T13:52:22.577Z</time></trkpt><trkpt lat="46.19222746021125" lon="12.28666746527668"><ele>410.0</ele><time>2026-04-19T13:52:23.577Z</time></trkpt><trkpt lat="46.19205728712431" lon="12.286656272454142"><ele>409.66666666666663</ele><time>2026-04-19T13:52:24.577Z</time></trkpt><trkpt lat="46.191881366141686" lon="12.286652105965684"><ele>409.33333333333337</ele><time>2026-04-19T13:52:25.577Z</time></trkpt><trkpt lat="46.19169719912396" lon="12.286649252159538"><ele>409.0</ele><time>2026-04-19T13:52:26.577Z</time></trkpt><trkpt lat="46.19151005107738" lon="12.28663815272484"><ele>408.6666666666667</ele><time>2026-04-19T13:52:27.577Z</time></trkpt><trkpt lat="46.19132646385961" lon="12.286624647721448"><ele>408.33333333333337</ele><time>2026-04-19T13:52:28.577Z</time></trkpt><trkpt lat="46.19115008190022" lon="12.28661408522607"><ele>408.0</ele><time>2026-04-19T13:52:29.577Z</time></trkpt><trkpt lat="46.19096812428627" lon="12.28661380402191"><ele>408.0</ele><time>2026-04-19T13:52:30.577Z</time></trkpt><trkpt lat="46.190786478961236" lon="12.286616692624722"><ele>408.0</ele><time>2026-04-19T13:52:31.577Z</time></trkpt><trkpt lat="46.19057947284726" lon="12.286595991554087"><ele>408.0</ele><time>2026-04-19T13:52:32.577Z</time></trkpt><trkpt lat="46.19037940716223" lon="12.286587056402487"><ele>407.66666666666663</ele><time>2026-04-19T13:52:33.577Z</time></trkpt><trkpt lat="46.19017396088728" lon="12.286573148688616"><ele>407.3333333333333</ele><time>2026-04-19T13:52:34.577Z</time></trkpt><trkpt lat="46.18996906646282" lon="12.286561090091284"><ele>407.0</ele><time>2026-04-19T13:52:35.577Z</time></trkpt><trkpt lat="46.189762398343696" lon="12.28655118209085"><ele>406.66666666666663</ele><time>2026-04-19T13:52:36.577Z</time></trkpt><trkpt lat="46.18955897681024" lon="12.286538671312591"><ele>406.33333333333337</ele><time>2026-04-19T13:52:37.577Z</time></trkpt><trkpt lat="46.189352406969626" lon="12.28652523027863"><ele>406.0</ele><time>2026-04-19T13:52:38.577Z</time></trkpt><trkpt lat="46.18914233632429" lon="12.286500858425809"><ele>406.0</ele><time>2026-04-19T13:52:39.577Z</time></trkpt><trkpt lat="46.188929572722756" lon="12.286464280530563"><ele>406.0</ele><time>2026-04-19T13:52:40.577Z</time></trkpt><trkpt lat="46.188712077609864" lon="12.286406937455446"><ele>406.0</ele><time>2026-04-19T13:52:41.577Z</time></trkpt><trkpt lat="46.18849209114943" lon="12.286339557482357"><ele>405.6666666666667</ele><time>2026-04-19T13:52:42.577Z</time></trkpt><trkpt lat="46.1882693954282" lon="12.286268910788493"><ele>405.33333333333337</ele><time>2026-04-19T13:52:43.577Z</time></trkpt><trkpt lat="46.188052764470484" lon="12.286202790819287"><ele>405.0</ele><time>2026-04-19T13:52:44.577Z</time></trkpt><trkpt lat="46.18785429411194" lon="12.286143051754415"><ele>405.0</ele><time>2026-04-19T13:52:45.577Z</time></trkpt><trkpt lat="46.18767481681311" lon="12.286086572143393"><ele>405.0</ele><time>2026-04-19T13:52:46.577Z</time></trkpt><trkpt lat="46.18750406108366" lon="12.2860384853778"><ele>405.0</ele><time>2026-04-19T13:52:47.577Z</time></trkpt><trkpt lat="46.18734038599276" lon="12.285991365494008"><ele>404.66666666666663</ele><time>2026-04-19T13:52:48.577Z</time></trkpt><trkpt lat="46.18718411120687" lon="12.285941875244884"><ele>404.3333333333333</ele><time>2026-04-19T13:52:49.577Z</time></trkpt><trkpt lat="46.187035278994216" lon="12.285887985570922"><ele>404.0</ele><time>2026-04-19T13:52:50.577Z</time></trkpt><trkpt lat="46.186890110102624" lon="12.285845720947018"><ele>404.0</ele><time>2026-04-19T13:52:51.577Z</time></trkpt><trkpt lat="46.18673653473716" lon="12.285807509627157"><ele>404.0</ele><time>2026-04-19T13:52:52.577Z</time></trkpt><trkpt lat="46.18657433950855" lon="12.285759957847757"><ele>404.0</ele><time>2026-04-19T13:52:53.577Z</time></trkpt><trkpt lat="46.18640749011868" lon="12.285713819074779"><ele>403.66666666666663</ele><time>2026-04-19T13:52:54.577Z</time></trkpt><trkpt lat="46.1862355088389" lon="12.285660127081009"><ele>403.33333333333337</ele><time>2026-04-19T13:52:55.577Z</time></trkpt><trkpt lat="46.18606310872101" lon="12.285603779856729"><ele>403.0</ele><time>2026-04-19T13:52:56.577Z</time></trkpt><trkpt lat="46.18588823850404" lon="12.285556638316054"><ele>403.0</ele><time>2026-04-19T13:52:57.577Z</time></trkpt><trkpt lat="46.18570869842272" lon="12.28550444658305"><ele>403.0</ele><time>2026-04-19T13:52:58.577Z</time></trkpt><trkpt lat="46.185530746001916" lon="12.28544712789321"><ele>403.0</ele><time>2026-04-19T13:52:59.577Z</time></trkpt><trkpt lat="46.18534805721313" lon="12.285390745109817"><ele>402.6666666666667</ele><time>2026-04-19T13:53:00.577Z</time></trkpt><trkpt lat="46.18516612390895" lon="12.285338306833575"><ele>402.33333333333337</ele><time>2026-04-19T13:53:01.577Z</time></trkpt><trkpt lat="46.184986351271604" lon="12.285286124943559"><ele>402.0</ele><time>2026-04-19T13:53:02.577Z</time></trkpt><trkpt lat="46.18481193773291" lon="12.285231868669584"><ele>402.0</ele><time>2026-04-19T13:53:03.577Z</time></trkpt><trkpt lat="46.18463540098748" lon="12.285180392861648"><ele>402.0</ele><time>2026-04-19T13:53:04.577Z</time></trkpt><trkpt lat="46.184458319739925" lon="12.285126818640824"><ele>402.0</ele><time>2026-04-19T13:53:05.577Z</time></trkpt><trkpt lat="46.18428127983896" lon="12.285073618418362"><ele>402.0</ele><time>2026-04-19T13:53:06.577Z</time></trkpt><trkpt lat="46.18410569295906" lon="12.2850214660937"><ele>402.0</ele><time>2026-04-19T13:53:07.577Z</time></trkpt><trkpt lat="46.18393096667981" lon="12.284971383978558"><ele>402.0</ele><time>2026-04-19T13:53:08.577Z</time></trkpt><trkpt lat="46.183755707292114" lon="12.284916554690447"><ele>402.66666666666663</ele><time>2026-04-19T13:53:09.577Z</time></trkpt><trkpt lat="46.18358110192551" lon="12.284863012968337"><ele>403.3333333333333</ele><time>2026-04-19T13:53:10.577Z</time></trkpt><trkpt lat="46.18340481628638" lon="12.284810840377073"><ele>404.0</ele><time>2026-04-19T13:53:11.577Z</time></trkpt><trkpt lat="46.183227356645496" lon="12.284754947666448"><ele>403.0</ele><time>2026-04-19T13:53:12.577Z</time></trkpt><trkpt lat="46.183053274751394" lon="12.284703490229765"><ele>402.0</ele><time>2026-04-19T13:53:13.577Z</time></trkpt><trkpt lat="46.1828810438584" lon="12.284652979254782"><ele>401.0</ele><time>2026-04-19T13:53:14.577Z</time></trkpt><trkpt lat="46.18270658429533" lon="12.284599448879431"><ele>401.0</ele><time>2026-04-19T13:53:15.577Z</time></trkpt><trkpt lat="46.182530549232034" lon="12.284546041726724"><ele>401.0</ele><time>2026-04-19T13:53:16.577Z</time></trkpt><trkpt lat="46.18235294694095" lon="12.284491569766967"><ele>401.0</ele><time>2026-04-19T13:53:17.577Z</time></trkpt><trkpt lat="46.18218164382458" lon="12.284440728006246"><ele>400.66666666666663</ele><time>2026-04-19T13:53:18.577Z</time></trkpt><trkpt lat="46.18201558555932" lon="12.284393436152884"><ele>400.33333333333337</ele><time>2026-04-19T13:53:19.577Z</time></trkpt><trkpt lat="46.18184742354643" lon="12.284337615577856"><ele>400.0</ele><time>2026-04-19T13:53:20.577Z</time></trkpt><trkpt lat="46.18168492669477" lon="12.28428830122317"><ele>400.0</ele><time>2026-04-19T13:53:21.577Z</time></trkpt><trkpt lat="46.181524310196856" lon="12.284237600945296"><ele>400.0</ele><time>2026-04-19T13:53:22.577Z</time></trkpt><trkpt lat="46.18136274670533" lon="12.284197189775565"><ele>400.0</ele><time>2026-04-19T13:53:23.577Z</time></trkpt><trkpt lat="46.18120875349684" lon="12.284151653437721"><ele>400.33333333333337</ele><time>2026-04-19T13:53:24.577Z</time></trkpt><trkpt lat="46.18107469914686" lon="12.284100533988697"><ele>400.66666666666663</ele><time>2026-04-19T13:53:25.577Z</time></trkpt><trkpt lat="46.18096363286368" lon="12.28404004396828"><ele>401.0</ele><time>2026-04-19T13:53:26.577Z</time></trkpt><trkpt lat="46.18076743794762" lon="12.284021011906768"><ele>401.0</ele><time>2026-04-19T13:53:27.577Z</time></trkpt><trkpt lat="46.18063101284072" lon="12.283984240343246"><ele>401.0</ele><time>2026-04-19T13:53:28.577Z</time></trkpt><trkpt lat="46.18050649322551" lon="12.28394395948921"><ele>401.0</ele><time>2026-04-19T13:53:29.577Z</time></trkpt><trkpt lat="46.1803853818004" lon="12.283906179111924"><ele>401.0</ele><time>2026-04-19T13:53:30.577Z</time></trkpt><trkpt lat="46.18026150034688" lon="12.283872549455204"><ele>401.0</ele><time>2026-04-19T13:53:31.577Z</time></trkpt><trkpt lat="46.180145785939885" lon="12.283837329454846"><ele>401.0</ele><time>2026-04-19T13:53:32.577Z</time></trkpt><trkpt lat="46.1800355514297" lon="12.283805522694637"><ele>401.0</ele><time>2026-04-19T13:53:33.577Z</time></trkpt><trkpt lat="46.17994213103655" lon="12.283773545269147"><ele>401.0</ele><time>2026-04-19T13:53:34.577Z</time></trkpt><trkpt lat="46.17986157968899" lon="12.283734211869932"><ele>401.0</ele><time>2026-04-19T13:53:35.577Z</time></trkpt><trkpt lat="46.179798262360386" lon="12.283685318961258"><ele>400.99999999999994</ele><time>2026-04-19T13:53:36.577Z</time></trkpt><trkpt lat="46.17974849576733" lon="12.2835880939122"><ele>401.0</ele><time>2026-04-19T13:53:37.577Z</time></trkpt><trkpt lat="46.179733711407515" lon="12.283453994624551"><ele>401.0</ele><time>2026-04-19T13:53:38.577Z</time></trkpt><trkpt lat="46.17969710572157" lon="12.283349987624788"><ele>401.0</ele><time>2026-04-19T13:53:39.577Z</time></trkpt><trkpt lat="46.17962440560884" lon="12.283297033503576"><ele>400.99999999999994</ele><time>2026-04-19T13:53:40.577Z</time></trkpt><trkpt lat="46.179533275314476" lon="12.283309167411579"><ele>401.0</ele><time>2026-04-19T13:53:41.577Z</time></trkpt><trkpt lat="46.17945958096478" lon="12.283369953578875"><ele>401.0</ele><time>2026-04-19T13:53:42.577Z</time></trkpt><trkpt lat="46.179410392218465" lon="12.283468965575304"><ele>401.0</ele><time>2026-04-19T13:53:43.577Z</time></trkpt><trkpt lat="46.179369966384385" lon="12.2835805493241"><ele>401.0</ele><time>2026-04-19T13:53:44.577Z</time></trkpt><trkpt lat="46.179281154202464" lon="12.283622670295177"><ele>401.0</ele><time>2026-04-19T13:53:45.577Z</time></trkpt><trkpt lat="46.179159616571404" lon="12.283600444821605"><ele>401.0</ele><time>2026-04-19T13:53:46.577Z</time></trkpt><trkpt lat="46.1790367972903" lon="12.28360756639144"><ele>400.5</ele><time>2026-04-19T13:53:47.577Z</time></trkpt><trkpt lat="46.17891793356948" lon="12.283593658569322"><ele>400.0</ele><time>2026-04-19T13:53:48.577Z</time></trkpt><trkpt lat="46.17878703973408" lon="12.283570755276717"><ele>399.5</ele><time>2026-04-19T13:53:49.577Z</time></trkpt><trkpt lat="46.17866781968771" lon="12.283547055499456"><ele>399.0</ele><time>2026-04-19T13:53:50.577Z</time></trkpt><trkpt lat="46.178549984137184" lon="12.283530774814686"><ele>399.0</ele><time>2026-04-19T13:53:51.577Z</time></trkpt><trkpt lat="46.17841929073762" lon="12.28351768624424"><ele>399.0</ele><time>2026-04-19T13:53:52.577Z</time></trkpt><trkpt lat="46.178287191370316" lon="12.283504402753618"><ele>399.0</ele><time>2026-04-19T13:53:53.577Z</time></trkpt><trkpt lat="46.178160684159145" lon="12.283498007616329"><ele>399.0</ele><time>2026-04-19T13:53:54.577Z</time></trkpt><trkpt lat="46.17802744546425" lon="12.283487054306839"><ele>399.0</ele><time>2026-04-19T13:53:55.577Z</time></trkpt><trkpt lat="46.17788813917569" lon="12.28348012354665"><ele>399.0</ele><time>2026-04-19T13:53:56.577Z</time></trkpt><trkpt lat="46.17773477264684" lon="12.2834668019031"><ele>399.0</ele><time>2026-04-19T13:53:57.577Z</time></trkpt><trkpt lat="46.17756119098506" lon="12.283452531464167"><ele>399.0</ele><time>2026-04-19T13:53:58.577Z</time></trkpt><trkpt lat="46.177425227595734" lon="12.283437238504039"><ele>399.0</ele><time>2026-04-19T13:53:59.577Z</time></trkpt><trkpt lat="46.17726916511924" lon="12.283412036094852"><ele>399.0</ele><time>2026-04-19T13:54:00.577Z</time></trkpt><trkpt lat="46.177114432578286" lon="12.283392863734283"><ele>399.0</ele><time>2026-04-19T13:54:01.577Z</time></trkpt><trkpt lat="46.176954674754256" lon="12.283380832118192"><ele>398.66666666666663</ele><time>2026-04-19T13:54:02.577Z</time></trkpt><trkpt lat="46.176787386807625" lon="12.283370619324193"><ele>398.3333333333333</ele><time>2026-04-19T13:54:03.577Z</time></trkpt><trkpt lat="46.17662970040615" lon="12.283347566117941"><ele>398.0</ele><time>2026-04-19T13:54:04.577Z</time></trkpt><trkpt lat="46.17647582172487" lon="12.283321480418856"><ele>398.0</ele><time>2026-04-19T13:54:05.577Z</time></trkpt><trkpt lat="46.176326986482316" lon="12.283319467399009"><ele>398.0</ele><time>2026-04-19T13:54:06.577Z</time></trkpt><trkpt lat="46.17617477162411" lon="12.283344391214529"><ele>398.0</ele><time>2026-04-19T13:54:07.577Z</time></trkpt><trkpt lat="46.1760162790776" lon="12.283381346615156"><ele>398.0</ele><time>2026-04-19T13:54:08.577Z</time></trkpt><trkpt lat="46.17585924040268" lon="12.283424202931602"><ele>398.0</ele><time>2026-04-19T13:54:09.577Z</time></trkpt><trkpt lat="46.17570963173836" lon="12.283482976605187"><ele>398.0</ele><time>2026-04-19T13:54:10.577Z</time></trkpt><trkpt lat="46.17556941961585" lon="12.283531073495107"><ele>398.5</ele><time>2026-04-19T13:54:11.577Z</time></trkpt><trkpt lat="46.17542780253818" lon="12.283569813138476"><ele>399.0</ele><time>2026-04-19T13:54:12.577Z</time></trkpt><trkpt lat="46.17528749439362" lon="12.283617767648533"><ele>399.5</ele><time>2026-04-19T13:54:13.577Z</time></trkpt><trkpt lat="46.17513728772248" lon="12.283652809669308"><ele>400.0</ele><time>2026-04-19T13:54:14.577Z</time></trkpt><trkpt lat="46.174990268433625" lon="12.283663810423247"><ele>399.33333333333337</ele><time>2026-04-19T13:54:15.577Z</time></trkpt><trkpt lat="46.174834563275475" lon="12.283651610903602"><ele>398.66666666666663</ele><time>2026-04-19T13:54:16.577Z</time></trkpt><trkpt lat="46.17468174862484" lon="12.283631959059711"><ele>398.0</ele><time>2026-04-19T13:54:17.577Z</time></trkpt><trkpt lat="46.17454130344818" lon="12.28360938437601"><ele>398.0</ele><time>2026-04-19T13:54:18.577Z</time></trkpt><trkpt lat="46.174402412551075" lon="12.28360729542101"><ele>398.0</ele><time>2026-04-19T13:54:19.577Z</time></trkpt><trkpt lat="46.17427628619404" lon="12.283595053788806"><ele>398.0</ele><time>2026-04-19T13:54:20.577Z</time></trkpt><trkpt lat="46.174153680420474" lon="12.283612487932414"><ele>398.0</ele><time>2026-04-19T13:54:21.577Z</time></trkpt><trkpt lat="46.17402725723838" lon="12.283651453795946"><ele>395.5</ele><time>2026-04-19T13:54:22.577Z</time></trkpt><trkpt lat="46.173897931068154" lon="12.283709848642111"><ele>393.0</ele><time>2026-04-19T13:54:23.577Z</time></trkpt><trkpt lat="46.173767811841806" lon="12.283841959846033"><ele>390.5</ele><time>2026-04-19T13:54:24.577Z</time></trkpt><trkpt lat="46.173652252336616" lon="12.283945654062668"><ele>388.0</ele><time>2026-04-19T13:54:25.577Z</time></trkpt><trkpt lat="46.17354312541721" lon="12.284042265123224"><ele>388.0</ele><time>2026-04-19T13:54:26.577Z</time></trkpt><trkpt lat="46.17344960101159" lon="12.284103624928088"><ele>388.0</ele><time>2026-04-19T13:54:27.577Z</time></trkpt><trkpt lat="46.17336864460473" lon="12.28412243181866"><ele>388.0</ele><time>2026-04-19T13:54:28.577Z</time></trkpt><trkpt lat="46.17328015093228" lon="12.284127899712377"><ele>388.0</ele><time>2026-04-19T13:54:29.577Z</time></trkpt><trkpt lat="46.17318756256361" lon="12.284026139318199"><ele>388.0</ele><time>2026-04-19T13:54:30.577Z</time></trkpt><trkpt lat="46.17310694292953" lon="12.283903426791234"><ele>385.79999999999995</ele><time>2026-04-19T13:54:31.577Z</time></trkpt><trkpt lat="46.17304834762598" lon="12.283750612519837"><ele>383.6</ele><time>2026-04-19T13:54:32.577Z</time></trkpt><trkpt lat="46.17300380228049" lon="12.283608524573674"><ele>381.4</ele><time>2026-04-19T13:54:33.577Z</time></trkpt><trkpt lat="46.17297246617969" lon="12.283473348572636"><ele>379.20000000000005</ele><time>2026-04-19T13:54:34.577Z</time></trkpt><trkpt lat="46.17293231834219" lon="12.283375004633042"><ele>377.0</ele><time>2026-04-19T13:54:35.577Z</time></trkpt><trkpt lat="46.17286439389793" lon="12.28332334197366"><ele>377.0</ele><time>2026-04-19T13:54:36.577Z</time></trkpt><trkpt lat="46.17278080574566" lon="12.283333888601582"><ele>377.0</ele><time>2026-04-19T13:54:37.577Z</time></trkpt><trkpt lat="46.17269454167415" lon="12.283371574012103"><ele>377.0</ele><time>2026-04-19T13:54:38.577Z</time></trkpt><trkpt lat="46.17259889720311" lon="12.283405101350334"><ele>377.0</ele><time>2026-04-19T13:54:39.577Z</time></trkpt><trkpt lat="46.172497252334324" lon="12.283417140241742"><ele>377.0</ele><time>2026-04-19T13:54:40.577Z</time></trkpt><trkpt lat="46.17241514178892" lon="12.283429556930418"><ele>380.0</ele><time>2026-04-19T13:54:41.577Z</time></trkpt><trkpt lat="46.17231147291601" lon="12.283429944009272"><ele>383.0</ele><time>2026-04-19T13:54:43.577Z</time></trkpt><trkpt lat="46.172233074644446" lon="12.28338602911425"><ele>386.0</ele><time>2026-04-19T13:54:45.577Z</time></trkpt><trkpt lat="46.17216612417738" lon="12.283223896671016"><ele>389.0</ele><time>2026-04-19T13:54:47.577Z</time></trkpt><trkpt lat="46.17211460527606" lon="12.283142044569596"><ele>392.0</ele><time>2026-04-19T13:54:48.577Z</time></trkpt><trkpt lat="46.17205006116074" lon="12.283096397585423"><ele>392.3333333333333</ele><time>2026-04-19T13:54:49.577Z</time></trkpt><trkpt lat="46.17198161227018" lon="12.283105643180825"><ele>392.66666666666663</ele><time>2026-04-19T13:54:50.577Z</time></trkpt><trkpt lat="46.171890090916875" lon="12.283217517870085"><ele>393.0</ele><time>2026-04-19T13:54:52.577Z</time></trkpt><trkpt lat="46.17188329647442" lon="12.283309817562525"><ele>393.33333333333337</ele><time>2026-04-19T13:54:53.577Z</time></trkpt><trkpt lat="46.17191555388569" lon="12.283411348894395"><ele>393.6666666666667</ele><time>2026-04-19T13:54:54.577Z</time></trkpt><trkpt lat="46.17198162632581" lon="12.28349340735341"><ele>394.0</ele><time>2026-04-19T13:54:55.577Z</time></trkpt><trkpt lat="46.172072453438076" lon="12.283566082580762"><ele>394.0</ele><time>2026-04-19T13:54:56.577Z</time></trkpt><trkpt lat="46.172149130627915" lon="12.283622674659645"><ele>394.0</ele><time>2026-04-19T13:54:57.577Z</time></trkpt><trkpt lat="46.172176966941706" lon="12.28379461185053"><ele>394.0</ele><time>2026-04-19T13:54:58.577Z</time></trkpt><trkpt lat="46.17218703338293" lon="12.283945792735734"><ele>394.0</ele><time>2026-04-19T13:54:59.577Z</time></trkpt><trkpt lat="46.17218998515637" lon="12.284138558221528"><ele>394.0</ele><time>2026-04-19T13:55:00.577Z</time></trkpt><trkpt lat="46.17220156980297" lon="12.284372187216691"><ele>394.6666666666667</ele><time>2026-04-19T13:55:01.577Z</time></trkpt><trkpt lat="46.17222723874383" lon="12.284638483869507"><ele>395.33333333333337</ele><time>2026-04-19T13:55:02.577Z</time></trkpt><trkpt lat="46.172257600332166" lon="12.284877343131242"><ele>396.0</ele><time>2026-04-19T13:55:03.577Z</time></trkpt><trkpt lat="46.17227406786226" lon="12.285105991142157"><ele>396.33333333333337</ele><time>2026-04-19T13:55:04.577Z</time></trkpt><trkpt lat="46.17228709720643" lon="12.285354513163135"><ele>396.6666666666667</ele><time>2026-04-19T13:55:05.577Z</time></trkpt><trkpt lat="46.17230439657122" lon="12.285643288981808"><ele>397.0</ele><time>2026-04-19T13:55:06.577Z</time></trkpt><trkpt lat="46.17232064498679" lon="12.285938358440475"><ele>399.0</ele><time>2026-04-19T13:55:07.577Z</time></trkpt><trkpt lat="46.17234114969094" lon="12.286209677390069"><ele>401.0</ele><time>2026-04-19T13:55:08.577Z</time></trkpt><trkpt lat="46.17237059251932" lon="12.286498327086678"><ele>403.0</ele><time>2026-04-19T13:55:09.577Z</time></trkpt><trkpt lat="46.17238957280529" lon="12.28678677965787"><ele>400.0</ele><time>2026-04-19T13:55:10.577Z</time></trkpt><trkpt lat="46.17241045279266" lon="12.28705633367541"><ele>397.0</ele><time>2026-04-19T13:55:11.577Z</time></trkpt><trkpt lat="46.172434080463766" lon="12.287308710688661"><ele>394.0</ele><time>2026-04-19T13:55:12.577Z</time></trkpt><trkpt lat="46.172459604571706" lon="12.287550699510309"><ele>394.0</ele><time>2026-04-19T13:55:13.577Z</time></trkpt><trkpt lat="46.172483949102926" lon="12.2878015321946"><ele>394.0</ele><time>2026-04-19T13:55:14.577Z</time></trkpt><trkpt lat="46.172505998446944" lon="12.28806106613703"><ele>394.0</ele><time>2026-04-19T13:55:15.577Z</time></trkpt><trkpt lat="46.17252137074851" lon="12.288332326297368"><ele>394.6666666666667</ele><time>2026-04-19T13:55:16.577Z</time></trkpt><trkpt lat="46.17254557588217" lon="12.288603611306174"><ele>395.33333333333337</ele><time>2026-04-19T13:55:17.577Z</time></trkpt><trkpt lat="46.1725694777521" lon="12.288887421909113"><ele>396.0</ele><time>2026-04-19T13:55:18.577Z</time></trkpt><trkpt lat="46.17259863062188" lon="12.289176284562533"><ele>397.33333333333337</ele><time>2026-04-19T13:55:19.577Z</time></trkpt><trkpt lat="46.17262079208562" lon="12.289476150104894"><ele>398.6666666666667</ele><time>2026-04-19T13:55:20.577Z</time></trkpt><trkpt lat="46.172644751764295" lon="12.289767792757907"><ele>400.0</ele><time>2026-04-19T13:55:21.577Z</time></trkpt><trkpt lat="46.17266362560206" lon="12.290056999794453"><ele>400.33333333333337</ele><time>2026-04-19T13:55:22.577Z</time></trkpt><trkpt lat="46.17267917690992" lon="12.290350240381997"><ele>400.66666666666663</ele><time>2026-04-19T13:55:23.577Z</time></trkpt><trkpt lat="46.172705328334374" lon="12.290639379390115"><ele>401.0</ele><time>2026-04-19T13:55:24.577Z</time></trkpt><trkpt lat="46.172745224681165" lon="12.290929497680096"><ele>401.66666666666663</ele><time>2026-04-19T13:55:25.577Z</time></trkpt><trkpt lat="46.17279697247036" lon="12.291210475211237"><ele>402.33333333333337</ele><time>2026-04-19T13:55:26.577Z</time></trkpt><trkpt lat="46.172867784859854" lon="12.291487238241574"><ele>403.0</ele><time>2026-04-19T13:55:27.577Z</time></trkpt><trkpt lat="46.172954950282815" lon="12.291750981688715"><ele>403.33333333333337</ele><time>2026-04-19T13:55:28.577Z</time></trkpt><trkpt lat="46.173049513946225" lon="12.292009772154074"><ele>403.66666666666663</ele><time>2026-04-19T13:55:29.577Z</time></trkpt><trkpt lat="46.173156924009504" lon="12.29226171246654"><ele>404.0</ele><time>2026-04-19T13:55:30.577Z</time></trkpt><trkpt lat="46.17327548224158" lon="12.292498982022302"><ele>405.0</ele><time>2026-04-19T13:55:31.577Z</time></trkpt><trkpt lat="46.17339853996629" lon="12.292723244278537"><ele>406.0</ele><time>2026-04-19T13:55:32.577Z</time></trkpt><trkpt lat="46.17350944637808" lon="12.292940745563875"><ele>407.0</ele><time>2026-04-19T13:55:33.577Z</time></trkpt><trkpt lat="46.173603144037756" lon="12.293154036407946"><ele>407.0</ele><time>2026-04-19T13:55:34.577Z</time></trkpt><trkpt lat="46.17369970275268" lon="12.293339468750036"><ele>407.0</ele><time>2026-04-19T13:55:35.577Z</time></trkpt><trkpt lat="46.17380615160566" lon="12.29352608244801"><ele>407.0</ele><time>2026-04-19T13:55:36.577Z</time></trkpt><trkpt lat="46.17393954009276" lon="12.293692948127365"><ele>405.66666666666663</ele><time>2026-04-19T13:55:37.577Z</time></trkpt><trkpt lat="46.174092286744006" lon="12.293850645312096"><ele>404.33333333333337</ele><time>2026-04-19T13:55:38.577Z</time></trkpt><trkpt lat="46.17426002279446" lon="12.294001741228625"><ele>403.0</ele><time>2026-04-19T13:55:39.577Z</time></trkpt><trkpt lat="46.17443823833435" lon="12.294140219496155"><ele>403.0</ele><time>2026-04-19T13:55:40.577Z</time></trkpt><trkpt lat="46.1746125286088" lon="12.294260582055644"><ele>403.0</ele><time>2026-04-19T13:55:41.577Z</time></trkpt><trkpt lat="46.17477336447906" lon="12.294368913138616"><ele>403.0</ele><time>2026-04-19T13:55:42.577Z</time></trkpt><trkpt lat="46.17492088228255" lon="12.294475124873294"><ele>402.6666666666667</ele><time>2026-04-19T13:55:43.577Z</time></trkpt><trkpt lat="46.17505640221365" lon="12.294593305433473"><ele>402.33333333333337</ele><time>2026-04-19T13:55:44.577Z</time></trkpt><trkpt lat="46.175183350264206" lon="12.294735406939644"><ele>402.0</ele><time>2026-04-19T13:55:45.577Z</time></trkpt><trkpt lat="46.17527033733895" lon="12.294952204974347"><ele>404.66666666666663</ele><time>2026-04-19T13:55:46.577Z</time></trkpt><trkpt lat="46.17535812251647" lon="12.295163598123615"><ele>407.3333333333333</ele><time>2026-04-19T13:55:47.577Z</time></trkpt><trkpt lat="46.175405867412934" lon="12.295400050633436"><ele>410.0</ele><time>2026-04-19T13:55:48.577Z</time></trkpt><trkpt lat="46.17541408837929" lon="12.295650233608669"><ele>412.3333333333333</ele><time>2026-04-19T13:55:49.577Z</time></trkpt><trkpt lat="46.17541519471999" lon="12.295897297503572"><ele>414.66666666666663</ele><time>2026-04-19T13:55:50.577Z</time></trkpt><trkpt lat="46.175367169294425" lon="12.296126744846253"><ele>417.0</ele><time>2026-04-19T13:55:51.577Z</time></trkpt><trkpt lat="46.17529476586581" lon="12.296341862116938"><ele>414.0</ele><time>2026-04-19T13:55:52.578Z</time></trkpt><trkpt lat="46.17519270165927" lon="12.296558847322192"><ele>411.0</ele><time>2026-04-19T13:55:53.578Z</time></trkpt><trkpt lat="46.17505341345542" lon="12.29673820875265"><ele>408.0</ele><time>2026-04-19T13:55:54.578Z</time></trkpt><trkpt lat="46.17492572426837" lon="12.296895498981495"><ele>408.66666666666663</ele><time>2026-04-19T13:55:55.578Z</time></trkpt><trkpt lat="46.174798441984294" lon="12.297048216937002"><ele>409.3333333333333</ele><time>2026-04-19T13:55:56.578Z</time></trkpt><trkpt lat="46.174653364338724" lon="12.297243222796483"><ele>410.0</ele><time>2026-04-19T13:55:57.578Z</time></trkpt><trkpt lat="46.17448784547013" lon="12.297472189051687"><ele>410.0</ele><time>2026-04-19T13:55:58.578Z</time></trkpt><trkpt lat="46.1743241834154" lon="12.297708842935469"><ele>410.0</ele><time>2026-04-19T13:55:59.578Z</time></trkpt><trkpt lat="46.1741961115357" lon="12.297910528747469"><ele>410.0</ele><time>2026-04-19T13:56:00.578Z</time></trkpt><trkpt lat="46.17408754121112" lon="12.298136143550431"><ele>411.0</ele><time>2026-04-19T13:56:01.578Z</time></trkpt><trkpt lat="46.1739911332177" lon="12.298381510275288"><ele>412.0</ele><time>2026-04-19T13:56:02.578Z</time></trkpt><trkpt lat="46.17391310142889" lon="12.29862502505707"><ele>413.0</ele><time>2026-04-19T13:56:03.578Z</time></trkpt><trkpt lat="46.173856584706435" lon="12.298874283899004"><ele>412.0</ele><time>2026-04-19T13:56:04.578Z</time></trkpt><trkpt lat="46.173820840744" lon="12.299110561651668"><ele>411.0</ele><time>2026-04-19T13:56:05.578Z</time></trkpt><trkpt lat="46.17378828177903" lon="12.29933824032178"><ele>410.0</ele><time>2026-04-19T13:56:06.578Z</time></trkpt><trkpt lat="46.17375475280524" lon="12.29956964293308"><ele>408.0</ele><time>2026-04-19T13:56:07.578Z</time></trkpt><trkpt lat="46.173727279498735" lon="12.299771786518004"><ele>406.0</ele><time>2026-04-19T13:56:08.578Z</time></trkpt><trkpt lat="46.17370399002363" lon="12.299959576899191"><ele>404.0</ele><time>2026-04-19T13:56:09.578Z</time></trkpt><trkpt lat="46.17367130283833" lon="12.300146354684866"><ele>402.0</ele><time>2026-04-19T13:56:10.578Z</time></trkpt><trkpt lat="46.173678069872025" lon="12.300322341844621"><ele>402.0</ele><time>2026-04-19T13:56:11.578Z</time></trkpt><trkpt lat="46.173730570672426" lon="12.300498140125645"><ele>402.0</ele><time>2026-04-19T13:56:12.578Z</time></trkpt><trkpt lat="46.17381186244535" lon="12.300662260204328"><ele>402.0</ele><time>2026-04-19T13:56:13.578Z</time></trkpt><trkpt lat="46.17389328953664" lon="12.300807266043561"><ele>402.0</ele><time>2026-04-19T13:56:14.578Z</time></trkpt><trkpt lat="46.17396331165656" lon="12.300965008794172"><ele>402.75</ele><time>2026-04-19T13:56:15.578Z</time></trkpt><trkpt lat="46.174000652218275" lon="12.301139411364485"><ele>403.5</ele><time>2026-04-19T13:56:16.578Z</time></trkpt><trkpt lat="46.17400997631457" lon="12.301352448544378"><ele>404.25</ele><time>2026-04-19T13:56:17.578Z</time></trkpt><trkpt lat="46.173984299555826" lon="12.301565288191014"><ele>405.0</ele><time>2026-04-19T13:56:18.578Z</time></trkpt><trkpt lat="46.17397399918333" lon="12.301765336063506"><ele>406.0</ele><time>2026-04-19T13:56:19.578Z</time></trkpt><trkpt lat="46.17397447919391" lon="12.30197935717547"><ele>407.0</ele><time>2026-04-19T13:56:20.578Z</time></trkpt><trkpt lat="46.17396472007857" lon="12.302178088962574"><ele>408.0</ele><time>2026-04-19T13:56:21.578Z</time></trkpt><trkpt lat="46.173953265333125" lon="12.302366802351127"><ele>409.0</ele><time>2026-04-19T13:56:22.578Z</time></trkpt><trkpt lat="46.17394024398749" lon="12.302567374014522"><ele>409.25</ele><time>2026-04-19T13:56:23.578Z</time></trkpt><trkpt lat="46.17396184492867" lon="12.302775536551588"><ele>409.5</ele><time>2026-04-19T13:56:24.578Z</time></trkpt><trkpt lat="46.17395201940984" lon="12.302952970163403"><ele>409.75</ele><time>2026-04-19T13:56:25.578Z</time></trkpt><trkpt lat="46.173941990927524" lon="12.303136825217162"><ele>410.0</ele><time>2026-04-19T13:56:26.578Z</time></trkpt><trkpt lat="46.17392287749817" lon="12.303337962974279"><ele>409.5</ele><time>2026-04-19T13:56:27.578Z</time></trkpt><trkpt lat="46.17386930175526" lon="12.303538014076347"><ele>409.0</ele><time>2026-04-19T13:56:28.578Z</time></trkpt><trkpt lat="46.17380659244103" lon="12.303729336028054"><ele>408.5</ele><time>2026-04-19T13:56:29.578Z</time></trkpt><trkpt lat="46.173735168556014" lon="12.303843553945152"><ele>408.0</ele><time>2026-04-19T13:56:30.578Z</time></trkpt><trkpt lat="46.17363523198587" lon="12.303983278616204"><ele>408.25</ele><time>2026-04-19T13:56:31.578Z</time></trkpt><trkpt lat="46.17352179606099" lon="12.304089081985445"><ele>408.5</ele><time>2026-04-19T13:56:32.578Z</time></trkpt><trkpt lat="46.173395802534806" lon="12.304175437992619"><ele>408.75</ele><time>2026-04-19T13:56:33.578Z</time></trkpt><trkpt lat="46.17325419486533" lon="12.304279371460979"><ele>409.0</ele><time>2026-04-19T13:56:34.578Z</time></trkpt><trkpt lat="46.173155458245745" lon="12.30442238823855"><ele>409.0</ele><time>2026-04-19T13:56:35.578Z</time></trkpt><trkpt lat="46.173054365785454" lon="12.304560862378544"><ele>409.0</ele><time>2026-04-19T13:56:36.578Z</time></trkpt><trkpt lat="46.1729683652137" lon="12.304746148892987"><ele>409.0</ele><time>2026-04-19T13:56:37.578Z</time></trkpt><trkpt lat="46.172882607356215" lon="12.304961170852287"><ele>406.33333333333337</ele><time>2026-04-19T13:56:38.578Z</time></trkpt><trkpt lat="46.172786799957336" lon="12.30520262498895"><ele>403.66666666666663</ele><time>2026-04-19T13:56:39.578Z</time></trkpt><trkpt lat="46.172685859674104" lon="12.305481203512674"><ele>401.0</ele><time>2026-04-19T13:56:40.578Z</time></trkpt><trkpt lat="46.17257424497084" lon="12.305736404060795"><ele>398.66666666666663</ele><time>2026-04-19T13:56:41.578Z</time></trkpt><trkpt lat="46.17247444697172" lon="12.30597511922583"><ele>396.33333333333337</ele><time>2026-04-19T13:56:42.578Z</time></trkpt><trkpt lat="46.17236166964571" lon="12.306166608247505"><ele>394.0</ele><time>2026-04-19T13:56:43.578Z</time></trkpt><trkpt lat="46.17225536039063" lon="12.306351521895452"><ele>396.6666666666667</ele><time>2026-04-19T13:56:44.578Z</time></trkpt><trkpt lat="46.172145393753645" lon="12.306556951033208"><ele>399.33333333333337</ele><time>2026-04-19T13:56:45.578Z</time></trkpt><trkpt lat="46.17198497525363" lon="12.306757727557644"><ele>402.0</ele><time>2026-04-19T13:56:46.578Z</time></trkpt><trkpt lat="46.17182314214894" lon="12.306983390354569"><ele>406.0</ele><time>2026-04-19T13:56:47.578Z</time></trkpt><trkpt lat="46.17164769589116" lon="12.307261432318775"><ele>410.0</ele><time>2026-04-19T13:56:48.578Z</time></trkpt><trkpt lat="46.171461360583265" lon="12.307548254266607"><ele>410.0</ele><time>2026-04-19T13:56:49.578Z</time></trkpt><trkpt lat="46.171287497200886" lon="12.307816269865764"><ele>410.0</ele><time>2026-04-19T13:56:50.578Z</time></trkpt><trkpt lat="46.17114282416134" lon="12.308068850712031"><ele>406.66666666666663</ele><time>2026-04-19T13:56:51.578Z</time></trkpt><trkpt lat="46.171017905636674" lon="12.308304135227015"><ele>403.33333333333337</ele><time>2026-04-19T13:56:52.578Z</time></trkpt><trkpt lat="46.170912391802894" lon="12.308518246696904"><ele>400.0</ele><time>2026-04-19T13:56:53.578Z</time></trkpt><trkpt lat="46.170799119304405" lon="12.308715546897282"><ele>402.33333333333337</ele><time>2026-04-19T13:56:54.578Z</time></trkpt><trkpt lat="46.17067751979525" lon="12.308910061131634"><ele>404.66666666666663</ele><time>2026-04-19T13:56:55.578Z</time></trkpt><trkpt lat="46.170528297792934" lon="12.309103335640357"><ele>407.0</ele><time>2026-04-19T13:56:56.578Z</time></trkpt><trkpt lat="46.17037538291885" lon="12.309305358398104"><ele>407.0</ele><time>2026-04-19T13:56:57.578Z</time></trkpt><trkpt lat="46.17023701440044" lon="12.30950996845473"><ele>407.0</ele><time>2026-04-19T13:56:58.578Z</time></trkpt><trkpt lat="46.17011745447153" lon="12.309701908449233"><ele>407.0</ele><time>2026-04-19T13:56:59.578Z</time></trkpt><trkpt lat="46.17000509330191" lon="12.309887633014371"><ele>408.3333333333333</ele><time>2026-04-19T13:57:00.578Z</time></trkpt><trkpt lat="46.169894818462595" lon="12.310068212359424"><ele>409.66666666666663</ele><time>2026-04-19T13:57:01.578Z</time></trkpt><trkpt lat="46.16978474700952" lon="12.310247234526143"><ele>411.0</ele><time>2026-04-19T13:57:02.578Z</time></trkpt><trkpt lat="46.169682358593604" lon="12.31042293205442"><ele>411.0</ele><time>2026-04-19T13:57:03.578Z</time></trkpt><trkpt lat="46.16961549244107" lon="12.310557368898152"><ele>411.0</ele><time>2026-04-19T13:57:04.578Z</time></trkpt><trkpt lat="46.16956575859328" lon="12.310708890674992"><ele>411.0</ele><time>2026-04-19T13:57:05.578Z</time></trkpt><trkpt lat="46.16949338119987" lon="12.310832476433283"><ele>411.0</ele><time>2026-04-19T13:57:06.578Z</time></trkpt><trkpt lat="46.16941107224452" lon="12.310946616189243"><ele>408.0</ele><time>2026-04-19T13:57:07.578Z</time></trkpt><trkpt lat="46.169327775756074" lon="12.311049219013652"><ele>405.0</ele><time>2026-04-19T13:57:08.578Z</time></trkpt><trkpt lat="46.169243200855625" lon="12.31114653927262"><ele>402.0</ele><time>2026-04-19T13:57:09.578Z</time></trkpt><trkpt lat="46.16915974669296" lon="12.31123862310036"><ele>399.0</ele><time>2026-04-19T13:57:10.578Z</time></trkpt><trkpt lat="46.169064018616325" lon="12.311332361610518"><ele>396.0</ele><time>2026-04-19T13:57:11.578Z</time></trkpt><trkpt lat="46.16896712787817" lon="12.311425321057241"><ele>395.5</ele><time>2026-04-19T13:57:12.578Z</time></trkpt><trkpt lat="46.168873565079586" lon="12.31151716433321"><ele>395.0</ele><time>2026-04-19T13:57:13.578Z</time></trkpt><trkpt lat="46.168771945449876" lon="12.31159178306915"><ele>394.5</ele><time>2026-04-19T13:57:14.578Z</time></trkpt><trkpt lat="46.168657312707836" lon="12.31166415460937"><ele>394.0</ele><time>2026-04-19T13:57:15.578Z</time></trkpt><trkpt lat="46.16851777269872" lon="12.31174787545241"><ele>394.0</ele><time>2026-04-19T13:57:16.578Z</time></trkpt><trkpt lat="46.16834469887876" lon="12.311857673822802"><ele>394.0</ele><time>2026-04-19T13:57:17.578Z</time></trkpt><trkpt lat="46.168151493247116" lon="12.311971701844847"><ele>394.0</ele><time>2026-04-19T13:57:18.578Z</time></trkpt><trkpt lat="46.167967451890476" lon="12.312079925242047"><ele>394.33333333333337</ele><time>2026-04-19T13:57:19.578Z</time></trkpt><trkpt lat="46.167786303550436" lon="12.312190881113278"><ele>394.66666666666663</ele><time>2026-04-19T13:57:20.578Z</time></trkpt><trkpt lat="46.16759948252214" lon="12.312306202687992"><ele>395.0</ele><time>2026-04-19T13:57:21.578Z</time></trkpt><trkpt lat="46.167405664659725" lon="12.312431472770909"><ele>395.3333333333333</ele><time>2026-04-19T13:57:22.578Z</time></trkpt><trkpt lat="46.16719492355124" lon="12.31254849154925"><ele>395.66666666666663</ele><time>2026-04-19T13:57:23.578Z</time></trkpt><trkpt lat="46.166992000223026" lon="12.312677502405379"><ele>396.0</ele><time>2026-04-19T13:57:24.578Z</time></trkpt><trkpt lat="46.16679603827108" lon="12.31279447428866"><ele>396.0</ele><time>2026-04-19T13:57:25.578Z</time></trkpt><trkpt lat="46.166597424463184" lon="12.3128884148043"><ele>396.0</ele><time>2026-04-19T13:57:26.578Z</time></trkpt><trkpt lat="46.16640680485036" lon="12.313001385397587"><ele>396.0</ele><time>2026-04-19T13:57:27.578Z</time></trkpt><trkpt lat="46.16622564888136" lon="12.313199796984767"><ele>399.5</ele><time>2026-04-19T13:57:28.578Z</time></trkpt><trkpt lat="46.1660213301313" lon="12.31340931558191"><ele>403.0</ele><time>2026-04-19T13:57:29.578Z</time></trkpt><trkpt lat="46.1658267317887" lon="12.31365374865074"><ele>398.0</ele><time>2026-04-19T13:57:30.578Z</time></trkpt><trkpt lat="46.16564690966472" lon="12.313942871857604"><ele>393.0</ele><time>2026-04-19T13:57:31.578Z</time></trkpt><trkpt lat="46.16549429146252" lon="12.31424651744184"><ele>393.0</ele><time>2026-04-19T13:57:32.578Z</time></trkpt><trkpt lat="46.16534105992018" lon="12.314506828531792"><ele>393.0</ele><time>2026-04-19T13:57:33.578Z</time></trkpt><trkpt lat="46.16519982790183" lon="12.314742041534103"><ele>392.33333333333337</ele><time>2026-04-19T13:57:34.578Z</time></trkpt><trkpt lat="46.16505957375845" lon="12.314970549141393"><ele>391.6666666666667</ele><time>2026-04-19T13:57:35.578Z</time></trkpt><trkpt lat="46.164923968831964" lon="12.315175974030865"><ele>391.0</ele><time>2026-04-19T13:57:36.578Z</time></trkpt><trkpt lat="46.164783567395844" lon="12.315347183755614"><ele>392.33333333333337</ele><time>2026-04-19T13:57:37.578Z</time></trkpt><trkpt lat="46.1646556843048" lon="12.315517025066738"><ele>393.66666666666663</ele><time>2026-04-19T13:57:38.578Z</time></trkpt><trkpt lat="46.16453923135028" lon="12.315723595108583"><ele>395.0</ele><time>2026-04-19T13:57:39.578Z</time></trkpt><trkpt lat="46.164437293006976" lon="12.31590267678624"><ele>395.0</ele><time>2026-04-19T13:57:40.578Z</time></trkpt><trkpt lat="46.16433733788676" lon="12.316072000023471"><ele>395.0</ele><time>2026-04-19T13:57:41.578Z</time></trkpt><trkpt lat="46.16423872388235" lon="12.31625004786201"><ele>395.0</ele><time>2026-04-19T13:57:42.578Z</time></trkpt><trkpt lat="46.16414340136635" lon="12.31641185017482"><ele>395.66666666666663</ele><time>2026-04-19T13:57:43.578Z</time></trkpt><trkpt lat="46.164044666988126" lon="12.316585912364664"><ele>396.33333333333337</ele><time>2026-04-19T13:57:44.578Z</time></trkpt><trkpt lat="46.16394245991721" lon="12.316764397736586"><ele>397.0</ele><time>2026-04-19T13:57:45.578Z</time></trkpt><trkpt lat="46.16383108704141" lon="12.316950655926835"><ele>398.0</ele><time>2026-04-19T13:57:46.578Z</time></trkpt><trkpt lat="46.16370984170346" lon="12.317156807269354"><ele>399.0</ele><time>2026-04-19T13:57:47.578Z</time></trkpt><trkpt lat="46.16358175154775" lon="12.31737224991276"><ele>400.0</ele><time>2026-04-19T13:57:48.578Z</time></trkpt><trkpt lat="46.163438748254045" lon="12.317583917461397"><ele>400.0</ele><time>2026-04-19T13:57:49.578Z</time></trkpt><trkpt lat="46.163282999351665" lon="12.317790449130964"><ele>400.0</ele><time>2026-04-19T13:57:50.578Z</time></trkpt><trkpt lat="46.16313099387218" lon="12.31798014376224"><ele>400.0</ele><time>2026-04-19T13:57:51.578Z</time></trkpt><trkpt lat="46.16296387929278" lon="12.318170415603158"><ele>400.0</ele><time>2026-04-19T13:57:52.578Z</time></trkpt><trkpt lat="46.162800358407296" lon="12.318342840287277"><ele>400.0</ele><time>2026-04-19T13:57:53.578Z</time></trkpt><trkpt lat="46.16264684173991" lon="12.318494414853362"><ele>400.0</ele><time>2026-04-19T13:57:54.578Z</time></trkpt><trkpt lat="46.16250910554145" lon="12.318645221120457"><ele>400.0</ele><time>2026-04-19T13:57:55.578Z</time></trkpt><trkpt lat="46.162375503368146" lon="12.318788665371631"><ele>400.0</ele><time>2026-04-19T13:57:56.578Z</time></trkpt><trkpt lat="46.16225325492448" lon="12.318912342249943"><ele>400.0</ele><time>2026-04-19T13:57:57.578Z</time></trkpt><trkpt lat="46.16213217694908" lon="12.319046099347954"><ele>400.0</ele><time>2026-04-19T13:57:58.579Z</time></trkpt><trkpt lat="46.16201450746406" lon="12.319171258929494"><ele>400.0</ele><time>2026-04-19T13:57:59.579Z</time></trkpt><trkpt lat="46.16190235185222" lon="12.319289909573135"><ele>400.0</ele><time>2026-04-19T13:58:00.579Z</time></trkpt><trkpt lat="46.161797646688626" lon="12.319398275796098"><ele>400.0</ele><time>2026-04-19T13:58:01.579Z</time></trkpt><trkpt lat="46.16169449881818" lon="12.319504189678073"><ele>400.0</ele><time>2026-04-19T13:58:02.579Z</time></trkpt><trkpt lat="46.16158631253283" lon="12.319590209391139"><ele>400.0</ele><time>2026-04-19T13:58:03.579Z</time></trkpt><trkpt lat="46.161463376254765" lon="12.319663994783417"><ele>400.0</ele><time>2026-04-19T13:58:04.579Z</time></trkpt><trkpt lat="46.16132886154798" lon="12.319699849496029"><ele>400.0</ele><time>2026-04-19T13:58:05.579Z</time></trkpt><trkpt lat="46.16117591761591" lon="12.319706649317252"><ele>398.0</ele><time>2026-04-19T13:58:06.579Z</time></trkpt><trkpt lat="46.161027976574694" lon="12.319672450923328"><ele>396.0</ele><time>2026-04-19T13:58:07.579Z</time></trkpt><trkpt lat="46.16089835258028" lon="12.319555650095214"><ele>394.0</ele><time>2026-04-19T13:58:08.579Z</time></trkpt><trkpt lat="46.16076000421114" lon="12.319453580790249"><ele>391.33333333333337</ele><time>2026-04-19T13:58:09.579Z</time></trkpt><trkpt lat="46.16064477041728" lon="12.319324289995297"><ele>388.66666666666663</ele><time>2026-04-19T13:58:10.579Z</time></trkpt><trkpt lat="46.16051852859453" lon="12.319184986290868"><ele>386.0</ele><time>2026-04-19T13:58:11.579Z</time></trkpt><trkpt lat="46.16038189409856" lon="12.319034645778391"><ele>388.3333333333333</ele><time>2026-04-19T13:58:12.579Z</time></trkpt><trkpt lat="46.160236062627355" lon="12.318879670824938"><ele>390.66666666666663</ele><time>2026-04-19T13:58:13.579Z</time></trkpt><trkpt lat="46.16010060561101" lon="12.318744688401345"><ele>393.0</ele><time>2026-04-19T13:58:14.579Z</time></trkpt><trkpt lat="46.159960347471035" lon="12.318625751014794"><ele>390.0</ele><time>2026-04-19T13:58:15.579Z</time></trkpt><trkpt lat="46.15980227185553" lon="12.318511099084128"><ele>387.0</ele><time>2026-04-19T13:58:16.579Z</time></trkpt><trkpt lat="46.15962858805179" lon="12.318410723017397"><ele>384.0</ele><time>2026-04-19T13:58:17.579Z</time></trkpt><trkpt lat="46.159439719030644" lon="12.318309113759256"><ele>384.0</ele><time>2026-04-19T13:58:18.579Z</time></trkpt><trkpt lat="46.15924296723311" lon="12.318224488446003"><ele>384.0</ele><time>2026-04-19T13:58:19.579Z</time></trkpt><trkpt lat="46.15903358095585" lon="12.31815702782412"><ele>384.0</ele><time>2026-04-19T13:58:20.579Z</time></trkpt><trkpt lat="46.15882613814252" lon="12.318110024914755"><ele>383.3333333333333</ele><time>2026-04-19T13:58:21.579Z</time></trkpt><trkpt lat="46.158636020786524" lon="12.318093835454079"><ele>382.66666666666663</ele><time>2026-04-19T13:58:22.579Z</time></trkpt><trkpt lat="46.158452122355094" lon="12.318100763495524"><ele>382.0</ele><time>2026-04-19T13:58:23.579Z</time></trkpt><trkpt lat="46.158274986378075" lon="12.318116382072471"><ele>382.3333333333333</ele><time>2026-04-19T13:58:24.579Z</time></trkpt><trkpt lat="46.15810420086713" lon="12.318134850569603"><ele>382.6666666666667</ele><time>2026-04-19T13:58:25.579Z</time></trkpt><trkpt lat="46.15793058298088" lon="12.318157511462998"><ele>383.0</ele><time>2026-04-19T13:58:26.579Z</time></trkpt><trkpt lat="46.15775441203487" lon="12.318183220792768"><ele>383.0</ele><time>2026-04-19T13:58:27.579Z</time></trkpt><trkpt lat="46.15758011807746" lon="12.318210889026501"><ele>383.0</ele><time>2026-04-19T13:58:28.579Z</time></trkpt><trkpt lat="46.15740045060801" lon="12.318246389333796"><ele>383.0</ele><time>2026-04-19T13:58:29.579Z</time></trkpt><trkpt lat="46.15721253009845" lon="12.318293732090835"><ele>385.33333333333337</ele><time>2026-04-19T13:58:30.579Z</time></trkpt><trkpt lat="46.157021015010976" lon="12.318354945569576"><ele>387.6666666666667</ele><time>2026-04-19T13:58:31.579Z</time></trkpt><trkpt lat="46.15682915509288" lon="12.318422763805854"><ele>390.0</ele><time>2026-04-19T13:58:32.579Z</time></trkpt><trkpt lat="46.15663751103094" lon="12.318477569239993"><ele>391.0</ele><time>2026-04-19T13:58:33.579Z</time></trkpt><trkpt lat="46.156443943059486" lon="12.318543111491069"><ele>392.0</ele><time>2026-04-19T13:58:34.579Z</time></trkpt><trkpt lat="46.15625952267599" lon="12.318595096817461"><ele>393.0</ele><time>2026-04-19T13:58:35.579Z</time></trkpt><trkpt lat="46.15606788977184" lon="12.318666872568487"><ele>393.0</ele><time>2026-04-19T13:58:36.579Z</time></trkpt><trkpt lat="46.155854810916736" lon="12.318731540394356"><ele>393.0</ele><time>2026-04-19T13:58:37.579Z</time></trkpt><trkpt lat="46.1556458733242" lon="12.318795200080956"><ele>393.0</ele><time>2026-04-19T13:58:38.579Z</time></trkpt><trkpt lat="46.155458637249836" lon="12.318852212670004"><ele>390.0</ele><time>2026-04-19T13:58:39.579Z</time></trkpt><trkpt lat="46.15528665366009" lon="12.318905246256303"><ele>387.0</ele><time>2026-04-19T13:58:40.579Z</time></trkpt><trkpt lat="46.155122601315306" lon="12.318956731202922"><ele>384.0</ele><time>2026-04-19T13:58:41.579Z</time></trkpt><trkpt lat="46.154964849306715" lon="12.319006165670816"><ele>385.33333333333337</ele><time>2026-04-19T13:58:42.579Z</time></trkpt><trkpt lat="46.15480674663266" lon="12.31905441216337"><ele>386.6666666666667</ele><time>2026-04-19T13:58:43.579Z</time></trkpt><trkpt lat="46.15463024040328" lon="12.319106443657148"><ele>388.0</ele><time>2026-04-19T13:58:44.579Z</time></trkpt><trkpt lat="46.154442489613444" lon="12.319153984009317"><ele>388.0</ele><time>2026-04-19T13:58:45.579Z</time></trkpt><trkpt lat="46.154250162636224" lon="12.319194036914283"><ele>388.0</ele><time>2026-04-19T13:58:46.579Z</time></trkpt><trkpt lat="46.15404935914422" lon="12.31926604121124"><ele>388.0</ele><time>2026-04-19T13:58:47.579Z</time></trkpt><trkpt lat="46.15383759960109" lon="12.319297040797437"><ele>389.0</ele><time>2026-04-19T13:58:48.579Z</time></trkpt><trkpt lat="46.15364392658644" lon="12.319317536730772"><ele>390.0</ele><time>2026-04-19T13:58:49.579Z</time></trkpt><trkpt lat="46.153462131431404" lon="12.319332799778923"><ele>391.0</ele><time>2026-04-19T13:58:50.579Z</time></trkpt><trkpt lat="46.15328431410273" lon="12.31930563791036"><ele>391.0</ele><time>2026-04-19T13:58:51.579Z</time></trkpt><trkpt lat="46.15312643703785" lon="12.319308866117026"><ele>391.0</ele><time>2026-04-19T13:58:52.579Z</time></trkpt><trkpt lat="46.152955310080664" lon="12.319311991423547"><ele>391.0</ele><time>2026-04-19T13:58:53.579Z</time></trkpt><trkpt lat="46.15276133198351" lon="12.319315287461803"><ele>391.0</ele><time>2026-04-19T13:58:54.579Z</time></trkpt><trkpt lat="46.15254334409537" lon="12.319316545528896"><ele>391.0</ele><time>2026-04-19T13:58:55.579Z</time></trkpt><trkpt lat="46.15229553808498" lon="12.319374638307076"><ele>391.33333333333337</ele><time>2026-04-19T13:58:56.579Z</time></trkpt><trkpt lat="46.152082353392146" lon="12.319364859236995"><ele>391.66666666666663</ele><time>2026-04-19T13:58:57.579Z</time></trkpt><trkpt lat="46.151874438921624" lon="12.319350024323345"><ele>392.0</ele><time>2026-04-19T13:58:58.579Z</time></trkpt><trkpt lat="46.15165764388058" lon="12.319339729886705"><ele>390.66666666666663</ele><time>2026-04-19T13:58:59.579Z</time></trkpt><trkpt lat="46.1514434075236" lon="12.319315397752085"><ele>389.33333333333337</ele><time>2026-04-19T13:59:00.579Z</time></trkpt><trkpt lat="46.15122419950403" lon="12.319229764385419"><ele>388.0</ele><time>2026-04-19T13:59:01.579Z</time></trkpt><trkpt lat="46.15099902059535" lon="12.31912474211357"><ele>388.0</ele><time>2026-04-19T13:59:02.579Z</time></trkpt><trkpt lat="46.1508112596941" lon="12.31903580588171"><ele>388.0</ele><time>2026-04-19T13:59:03.579Z</time></trkpt><trkpt lat="46.150660584146294" lon="12.318995425317846"><ele>388.0</ele><time>2026-04-19T13:59:04.579Z</time></trkpt><trkpt lat="46.150497796345434" lon="12.318997074545946"><ele>388.6666666666667</ele><time>2026-04-19T13:59:05.579Z</time></trkpt><trkpt lat="46.15030122090765" lon="12.319031849316291"><ele>389.33333333333337</ele><time>2026-04-19T13:59:06.579Z</time></trkpt><trkpt lat="46.15008814765621" lon="12.319078587770042"><ele>390.0</ele><time>2026-04-19T13:59:07.579Z</time></trkpt><trkpt lat="46.14984934685054" lon="12.319130984843929"><ele>390.0</ele><time>2026-04-19T13:59:08.579Z</time></trkpt><trkpt lat="46.149589812411676" lon="12.31918422365531"><ele>390.0</ele><time>2026-04-19T13:59:09.579Z</time></trkpt><trkpt lat="46.149307705230775" lon="12.319240913251837"><ele>390.0</ele><time>2026-04-19T13:59:10.579Z</time></trkpt><trkpt lat="46.1490815895672" lon="12.319272163807979"><ele>390.0</ele><time>2026-04-19T13:59:11.579Z</time></trkpt><trkpt lat="46.148803500981096" lon="12.319225032156302"><ele>390.5</ele><time>2026-04-19T13:59:12.579Z</time></trkpt><trkpt lat="46.14851126589305" lon="12.319170885989832"><ele>391.0</ele><time>2026-04-19T13:59:13.579Z</time></trkpt><trkpt lat="46.14824116639056" lon="12.31914953866657"><ele>391.5</ele><time>2026-04-19T13:59:14.579Z</time></trkpt><trkpt lat="46.14799286086684" lon="12.3190996268273"><ele>392.0</ele><time>2026-04-19T13:59:15.579Z</time></trkpt><trkpt lat="46.14774983710783" lon="12.31908014254433"><ele>392.0</ele><time>2026-04-19T13:59:16.579Z</time></trkpt><trkpt lat="46.14749820317121" lon="12.319083526374213"><ele>392.0</ele><time>2026-04-19T13:59:17.579Z</time></trkpt><trkpt lat="46.147230889316596" lon="12.319126999577842"><ele>393.0</ele><time>2026-04-19T13:59:18.579Z</time></trkpt><trkpt lat="46.146952907701994" lon="12.319191303188225"><ele>394.0</ele><time>2026-04-19T13:59:19.579Z</time></trkpt><trkpt lat="46.14666794337135" lon="12.31925659780982"><ele>393.5</ele><time>2026-04-19T13:59:20.579Z</time></trkpt><trkpt lat="46.146423284565905" lon="12.319304658983151"><ele>393.0</ele><time>2026-04-19T13:59:21.579Z</time></trkpt><trkpt lat="46.14621495315919" lon="12.319353572706826"><ele>393.0</ele><time>2026-04-19T13:59:22.579Z</time></trkpt><trkpt lat="46.14603109519356" lon="12.319388665240197"><ele>393.0</ele><time>2026-04-19T13:59:23.579Z</time></trkpt><trkpt lat="46.145851481836395" lon="12.31942937983683"><ele>393.0</ele><time>2026-04-19T13:59:24.579Z</time></trkpt><trkpt lat="46.14566744874254" lon="12.319410551509067"><ele>390.66666666666663</ele><time>2026-04-19T13:59:25.579Z</time></trkpt><trkpt lat="46.14547833707511" lon="12.319373716605064"><ele>388.3333333333333</ele><time>2026-04-19T13:59:26.579Z</time></trkpt><trkpt lat="46.14529254410452" lon="12.319303568080834"><ele>386.0</ele><time>2026-04-19T13:59:27.579Z</time></trkpt><trkpt lat="46.145103991199704" lon="12.319200699721762"><ele>386.0</ele><time>2026-04-19T13:59:28.579Z</time></trkpt><trkpt lat="46.144915883451034" lon="12.319054009968008"><ele>386.0</ele><time>2026-04-19T13:59:29.579Z</time></trkpt><trkpt lat="46.144733274782666" lon="12.318867281377091"><ele>386.0</ele><time>2026-04-19T13:59:30.579Z</time></trkpt><trkpt lat="46.144561121225045" lon="12.318678862701955"><ele>386.0</ele><time>2026-04-19T13:59:31.579Z</time></trkpt><trkpt lat="46.14439169522231" lon="12.318521635867707"><ele>386.0</ele><time>2026-04-19T13:59:32.579Z</time></trkpt><trkpt lat="46.14420835703348" lon="12.318404879183502"><ele>386.0</ele><time>2026-04-19T13:59:33.579Z</time></trkpt><trkpt lat="46.14401016031198" lon="12.31830886158582"><ele>386.0</ele><time>2026-04-19T13:59:34.579Z</time></trkpt><trkpt lat="46.14379798631292" lon="12.318219613857703"><ele>386.0</ele><time>2026-04-19T13:59:35.579Z</time></trkpt><trkpt lat="46.143571112069964" lon="12.318147965292557"><ele>386.0</ele><time>2026-04-19T13:59:36.579Z</time></trkpt><trkpt lat="46.143367018646316" lon="12.318084447835853"><ele>386.0</ele><time>2026-04-19T13:59:37.579Z</time></trkpt><trkpt lat="46.14317822135165" lon="12.317984243130171"><ele>386.0</ele><time>2026-04-19T13:59:38.579Z</time></trkpt><trkpt lat="46.14300803855577" lon="12.317818924777697"><ele>385.5</ele><time>2026-04-19T13:59:39.579Z</time></trkpt><trkpt lat="46.14282605828686" lon="12.317630936959148"><ele>385.0</ele><time>2026-04-19T13:59:40.579Z</time></trkpt><trkpt lat="46.14262924905684" lon="12.317445468535707"><ele>385.0</ele><time>2026-04-19T13:59:41.579Z</time></trkpt><trkpt lat="46.14241532580309" lon="12.317287591761783"><ele>385.0</ele><time>2026-04-19T13:59:42.579Z</time></trkpt><trkpt lat="46.14220358284518" lon="12.317120702342853"><ele>385.33333333333337</ele><time>2026-04-19T13:59:43.579Z</time></trkpt><trkpt lat="46.142002360953825" lon="12.316998042153145"><ele>385.66666666666663</ele><time>2026-04-19T13:59:44.579Z</time></trkpt><trkpt lat="46.14178714160708" lon="12.316879481921081"><ele>386.0</ele><time>2026-04-19T13:59:45.579Z</time></trkpt><trkpt lat="46.14156915909643" lon="12.316766504364155"><ele>385.5</ele><time>2026-04-19T13:59:46.579Z</time></trkpt><trkpt lat="46.141336876540564" lon="12.316664546613445"><ele>385.0</ele><time>2026-04-19T13:59:47.579Z</time></trkpt><trkpt lat="46.141095971887594" lon="12.316578251958237"><ele>385.0</ele><time>2026-04-19T13:59:48.579Z</time></trkpt><trkpt lat="46.14087629727779" lon="12.316492471921777"><ele>385.0</ele><time>2026-04-19T13:59:49.579Z</time></trkpt><trkpt lat="46.140672008156315" lon="12.31640892857431"><ele>385.0</ele><time>2026-04-19T13:59:50.579Z</time></trkpt><trkpt lat="46.14048604630385" lon="12.316346945442763"><ele>387.33333333333337</ele><time>2026-04-19T13:59:51.579Z</time></trkpt><trkpt lat="46.14029761901586" lon="12.316320246877439"><ele>389.66666666666663</ele><time>2026-04-19T13:59:52.579Z</time></trkpt><trkpt lat="46.140101844264926" lon="12.316320062727021"><ele>392.0</ele><time>2026-04-19T13:59:53.579Z</time></trkpt><trkpt lat="46.13989197278651" lon="12.316335671929112"><ele>392.5</ele><time>2026-04-19T13:59:54.579Z</time></trkpt><trkpt lat="46.1396618356513" lon="12.316369486599577"><ele>393.0</ele><time>2026-04-19T13:59:55.579Z</time></trkpt><trkpt lat="46.139426395840474" lon="12.316421237087237"><ele>391.0</ele><time>2026-04-19T13:59:56.579Z</time></trkpt><trkpt lat="46.13916624457667" lon="12.316540213395635"><ele>389.0</ele><time>2026-04-19T13:59:57.579Z</time></trkpt><trkpt lat="46.13892247621274" lon="12.316644769291436"><ele>389.0</ele><time>2026-04-19T13:59:58.579Z</time></trkpt><trkpt lat="46.13870781525305" lon="12.31674942529569"><ele>389.0</ele><time>2026-04-19T13:59:59.579Z</time></trkpt><trkpt lat="46.13850893797352" lon="12.31684429693923"><ele>389.0</ele><time>2026-04-19T14:00:00.579Z</time></trkpt><trkpt lat="46.138331003066064" lon="12.316905838302336"><ele>389.3333333333333</ele><time>2026-04-19T14:00:01.579Z</time></trkpt><trkpt lat="46.13814797720527" lon="12.316957284432112"><ele>389.66666666666663</ele><time>2026-04-19T14:00:02.579Z</time></trkpt><trkpt lat="46.137965479314154" lon="12.317015226937427"><ele>390.0</ele><time>2026-04-19T14:00:03.579Z</time></trkpt><trkpt lat="46.13776208932936" lon="12.31703705011635"><ele>390.0</ele><time>2026-04-19T14:00:04.581Z</time></trkpt><trkpt lat="46.137534737785536" lon="12.317019826659253"><ele>390.0</ele><time>2026-04-19T14:00:05.581Z</time></trkpt><trkpt lat="46.13729602146412" lon="12.31697116800224"><ele>389.5</ele><time>2026-04-19T14:00:06.581Z</time></trkpt><trkpt lat="46.137039177502906" lon="12.31691617316382"><ele>389.0</ele><time>2026-04-19T14:00:07.581Z</time></trkpt><trkpt lat="46.13677068270755" lon="12.316871830152643"><ele>388.5</ele><time>2026-04-19T14:00:08.581Z</time></trkpt><trkpt lat="46.13650081051775" lon="12.316834529015052"><ele>388.0</ele><time>2026-04-19T14:00:09.581Z</time></trkpt><trkpt lat="46.13626532335844" lon="12.316812852652921"><ele>388.0</ele><time>2026-04-19T14:00:10.581Z</time></trkpt><trkpt lat="46.136053303289565" lon="12.3167947574612"><ele>388.0</ele><time>2026-04-19T14:00:11.581Z</time></trkpt><trkpt lat="46.13585168591226" lon="12.316791763230684"><ele>388.0</ele><time>2026-04-19T14:00:12.581Z</time></trkpt><trkpt lat="46.13566332434217" lon="12.316790151122158"><ele>387.33333333333337</ele><time>2026-04-19T14:00:13.581Z</time></trkpt><trkpt lat="46.13548546355798" lon="12.316780014911236"><ele>386.66666666666663</ele><time>2026-04-19T14:00:14.581Z</time></trkpt><trkpt lat="46.13531826369047" lon="12.316769486534596"><ele>386.0</ele><time>2026-04-19T14:00:15.581Z</time></trkpt><trkpt lat="46.135143928648695" lon="12.316761269956455"><ele>386.0</ele><time>2026-04-19T14:00:16.581Z</time></trkpt><trkpt lat="46.134965816142575" lon="12.316744889661104"><ele>386.0</ele><time>2026-04-19T14:00:17.581Z</time></trkpt><trkpt lat="46.13477909302434" lon="12.316734642407159"><ele>386.0</ele><time>2026-04-19T14:00:18.581Z</time></trkpt><trkpt lat="46.134589429157096" lon="12.316735754796039"><ele>387.0</ele><time>2026-04-19T14:00:19.581Z</time></trkpt><trkpt lat="46.134388677064265" lon="12.31674253675251"><ele>388.0</ele><time>2026-04-19T14:00:20.581Z</time></trkpt><trkpt lat="46.13417994566294" lon="12.316763882012548"><ele>389.0</ele><time>2026-04-19T14:00:21.581Z</time></trkpt><trkpt lat="46.13397165125938" lon="12.316806337456224"><ele>391.66666666666663</ele><time>2026-04-19T14:00:22.581Z</time></trkpt><trkpt lat="46.13378286449497" lon="12.316865043563295"><ele>394.33333333333337</ele><time>2026-04-19T14:00:23.581Z</time></trkpt><trkpt lat="46.133610354385624" lon="12.31692904209334"><ele>397.0</ele><time>2026-04-19T14:00:24.581Z</time></trkpt><trkpt lat="46.133450693963454" lon="12.316984096089266"><ele>397.0</ele><time>2026-04-19T14:00:25.581Z</time></trkpt><trkpt lat="46.133310734710975" lon="12.317020430811546"><ele>397.0</ele><time>2026-04-19T14:00:26.581Z</time></trkpt><trkpt lat="46.13318394410104" lon="12.317053054535188"><ele>397.0</ele><time>2026-04-19T14:00:27.581Z</time></trkpt><trkpt lat="46.13306546912485" lon="12.317082915496586"><ele>397.0</ele><time>2026-04-19T14:00:28.581Z</time></trkpt><trkpt lat="46.13295451881881" lon="12.317108139846841"><ele>397.33333333333337</ele><time>2026-04-19T14:00:29.581Z</time></trkpt><trkpt lat="46.13285962596333" lon="12.317117089441378"><ele>397.6666666666667</ele><time>2026-04-19T14:00:30.581Z</time></trkpt><trkpt lat="46.13277557551677" lon="12.317105684424678"><ele>398.0</ele><time>2026-04-19T14:00:31.581Z</time></trkpt><trkpt lat="46.1326924207443" lon="12.317120565680195"><ele>398.33333333333337</ele><time>2026-04-19T14:00:32.581Z</time></trkpt><trkpt lat="46.13261761588149" lon="12.31714915560399"><ele>398.6666666666667</ele><time>2026-04-19T14:00:33.581Z</time></trkpt><trkpt lat="46.13255028853767" lon="12.317122951175014"><ele>399.0</ele><time>2026-04-19T14:00:34.581Z</time></trkpt><trkpt lat="46.13244503482026" lon="12.317116972691062"><ele>399.75</ele><time>2026-04-19T14:00:36.581Z</time></trkpt><trkpt lat="46.13237013512315" lon="12.317111598714193"><ele>400.5</ele><time>2026-04-19T14:00:39.581Z</time></trkpt><trkpt lat="46.132436504167245" lon="12.317358318836039"><ele>401.25</ele><time>2026-04-19T14:00:42.581Z</time></trkpt><trkpt lat="46.13244659243296" lon="12.31753604001236"><ele>402.0</ele><time>2026-04-19T14:00:49.581Z</time></trkpt><trkpt lat="46.13247736592069" lon="12.31768625117461"><ele>398.8</ele><time>2026-04-19T14:00:50.581Z</time></trkpt><trkpt lat="46.13248054370904" lon="12.317811532047886"><ele>395.6</ele><time>2026-04-19T14:00:51.581Z</time></trkpt><trkpt lat="46.13247305556959" lon="12.317928511602274"><ele>392.40000000000003</ele><time>2026-04-19T14:00:52.581Z</time></trkpt><trkpt lat="46.13247787243039" lon="12.318067478443904"><ele>389.20000000000005</ele><time>2026-04-19T14:00:53.581Z</time></trkpt><trkpt lat="46.13248366706815" lon="12.318252761357513"><ele>386.0</ele><time>2026-04-19T14:00:54.581Z</time></trkpt><trkpt lat="46.13249424598852" lon="12.318504111350387"><ele>384.0</ele><time>2026-04-19T14:00:55.581Z</time></trkpt><trkpt lat="46.132509965448804" lon="12.31880320768733"><ele>382.0</ele><time>2026-04-19T14:00:56.581Z</time></trkpt><trkpt lat="46.132519547987435" lon="12.319063212492916"><ele>380.0</ele><time>2026-04-19T14:00:57.581Z</time></trkpt><trkpt lat="46.13252696508281" lon="12.319281031851457"><ele>379.6666666666667</ele><time>2026-04-19T14:00:58.581Z</time></trkpt><trkpt lat="46.132534056907" lon="12.31949795883753"><ele>379.3333333333333</ele><time>2026-04-19T14:00:59.581Z</time></trkpt><trkpt lat="46.13254311157848" lon="12.319744301837913"><ele>379.0</ele><time>2026-04-19T14:01:00.581Z</time></trkpt><trkpt lat="46.13255454044623" lon="12.320007770010974"><ele>379.0</ele><time>2026-04-19T14:01:01.581Z</time></trkpt><trkpt lat="46.13256172542429" lon="12.32024103057999"><ele>379.0</ele><time>2026-04-19T14:01:02.581Z</time></trkpt><trkpt lat="46.132565222098066" lon="12.320487826087922"><ele>379.0</ele><time>2026-04-19T14:01:03.581Z</time></trkpt><trkpt lat="46.13256775002971" lon="12.320751584986716"><ele>379.0</ele><time>2026-04-19T14:01:04.581Z</time></trkpt><trkpt lat="46.13256777784895" lon="12.321027794571531"><ele>379.0</ele><time>2026-04-19T14:01:05.581Z</time></trkpt><trkpt lat="46.132552229766084" lon="12.321326554029516"><ele>379.0</ele><time>2026-04-19T14:01:06.581Z</time></trkpt><trkpt lat="46.13253792780571" lon="12.32164395390233"><ele>379.0</ele><time>2026-04-19T14:01:07.581Z</time></trkpt><trkpt lat="46.13252982826767" lon="12.321946940659888"><ele>379.0</ele><time>2026-04-19T14:01:08.581Z</time></trkpt><trkpt lat="46.13252428359371" lon="12.322220428833507"><ele>379.0</ele><time>2026-04-19T14:01:09.581Z</time></trkpt><trkpt lat="46.132513462279995" lon="12.322479492506558"><ele>379.0</ele><time>2026-04-19T14:01:10.581Z</time></trkpt><trkpt lat="46.132504590743" lon="12.3227227410482"><ele>379.0</ele><time>2026-04-19T14:01:11.581Z</time></trkpt><trkpt lat="46.13249701556428" lon="12.322954732511866"><ele>379.0</ele><time>2026-04-19T14:01:12.581Z</time></trkpt><trkpt lat="46.13249062936851" lon="12.32319579811625"><ele>379.66666666666663</ele><time>2026-04-19T14:01:13.581Z</time></trkpt><trkpt lat="46.1324830114152" lon="12.32343291527955"><ele>380.3333333333333</ele><time>2026-04-19T14:01:14.581Z</time></trkpt><trkpt lat="46.13247474801927" lon="12.323668681135175"><ele>381.0</ele><time>2026-04-19T14:01:15.581Z</time></trkpt><trkpt lat="46.1324688849563" lon="12.323899008618334"><ele>381.0</ele><time>2026-04-19T14:01:16.581Z</time></trkpt><trkpt lat="46.132460581840874" lon="12.324120290172452"><ele>381.0</ele><time>2026-04-19T14:01:17.581Z</time></trkpt><trkpt lat="46.13245634890474" lon="12.32432043384351"><ele>381.0</ele><time>2026-04-19T14:01:18.581Z</time></trkpt><trkpt lat="46.132448436710575" lon="12.324520390220718"><ele>381.0</ele><time>2026-04-19T14:01:19.581Z</time></trkpt><trkpt lat="46.132433852568184" lon="12.324735421418415"><ele>381.0</ele><time>2026-04-19T14:01:20.581Z</time></trkpt><trkpt lat="46.13242489892616" lon="12.324944193044036"><ele>381.0</ele><time>2026-04-19T14:01:21.581Z</time></trkpt><trkpt lat="46.13242032534515" lon="12.325156074065841"><ele>381.0</ele><time>2026-04-19T14:01:22.581Z</time></trkpt><trkpt lat="46.13242042864988" lon="12.3253609761063"><ele>381.0</ele><time>2026-04-19T14:01:23.581Z</time></trkpt><trkpt lat="46.13241614412085" lon="12.325550098149904"><ele>381.0</ele><time>2026-04-19T14:01:24.581Z</time></trkpt><trkpt lat="46.132408283289536" lon="12.325736143440542"><ele>381.0</ele><time>2026-04-19T14:01:25.581Z</time></trkpt><trkpt lat="46.132400667809584" lon="12.325928996583036"><ele>381.0</ele><time>2026-04-19T14:01:26.581Z</time></trkpt><trkpt lat="46.13239374627634" lon="12.326123071573827"><ele>381.0</ele><time>2026-04-19T14:01:27.581Z</time></trkpt><trkpt lat="46.132385594595235" lon="12.326312600956108"><ele>381.0</ele><time>2026-04-19T14:01:28.581Z</time></trkpt><trkpt lat="46.13237508587627" lon="12.326505899886232"><ele>381.0</ele><time>2026-04-19T14:01:29.581Z</time></trkpt><trkpt lat="46.1323743822439" lon="12.326696403441254"><ele>381.0</ele><time>2026-04-19T14:01:30.581Z</time></trkpt><trkpt lat="46.13237066994541" lon="12.32688272687292"><ele>381.0</ele><time>2026-04-19T14:01:31.581Z</time></trkpt><trkpt lat="46.13236327650768" lon="12.327067510276155"><ele>381.25</ele><time>2026-04-19T14:01:32.581Z</time></trkpt><trkpt lat="46.132361759469035" lon="12.327265014576959"><ele>381.5</ele><time>2026-04-19T14:01:33.581Z</time></trkpt><trkpt lat="46.132358152560414" lon="12.327465901021146"><ele>381.75</ele><time>2026-04-19T14:01:34.581Z</time></trkpt><trkpt lat="46.132361635270925" lon="12.327685164123027"><ele>382.0</ele><time>2026-04-19T14:01:35.581Z</time></trkpt><trkpt lat="46.132350835981704" lon="12.327942374432155"><ele>382.5</ele><time>2026-04-19T14:01:36.581Z</time></trkpt><trkpt lat="46.13236609103501" lon="12.328096828035862"><ele>383.0</ele><time>2026-04-19T14:01:37.581Z</time></trkpt><trkpt lat="46.13236797613696" lon="12.32828798283784"><ele>383.5</ele><time>2026-04-19T14:01:38.581Z</time></trkpt><trkpt lat="46.13236140128072" lon="12.328496189337242"><ele>384.0</ele><time>2026-04-19T14:01:39.581Z</time></trkpt><trkpt lat="46.13236535988674" lon="12.328703692988302"><ele>384.0</ele><time>2026-04-19T14:01:40.581Z</time></trkpt><trkpt lat="46.13238532602361" lon="12.328885814305421"><ele>384.0</ele><time>2026-04-19T14:01:41.581Z</time></trkpt><trkpt lat="46.13237178978721" lon="12.329040737378174"><ele>384.0</ele><time>2026-04-19T14:01:42.581Z</time></trkpt><trkpt lat="46.132374251466516" lon="12.329169476603743"><ele>384.0</ele><time>2026-04-19T14:01:43.581Z</time></trkpt><trkpt lat="46.132376095162584" lon="12.329271027454325"><ele>384.0</ele><time>2026-04-19T14:01:44.581Z</time></trkpt><trkpt lat="46.13237779293064" lon="12.329364540354259"><ele>384.0</ele><time>2026-04-19T14:01:45.581Z</time></trkpt><trkpt lat="46.132379511385906" lon="12.329459192862423"><ele>384.0</ele><time>2026-04-19T14:01:46.581Z</time></trkpt><trkpt lat="46.13238151195314" lon="12.329569384152876"><ele>384.0</ele><time>2026-04-19T14:01:47.581Z</time></trkpt><trkpt lat="46.132383964960574" lon="12.32970449591107"><ele>384.0</ele><time>2026-04-19T14:01:48.581Z</time></trkpt><trkpt lat="46.13238702599192" lon="12.329863509709272"><ele>384.0</ele><time>2026-04-19T14:01:49.581Z</time></trkpt><trkpt lat="46.13240521755723" lon="12.330038716115011"><ele>384.0</ele><time>2026-04-19T14:01:50.581Z</time></trkpt><trkpt lat="46.13239058283849" lon="12.330230532425487"><ele>384.0</ele><time>2026-04-19T14:01:51.581Z</time></trkpt><trkpt lat="46.132393329124426" lon="12.33043410356169"><ele>384.0</ele><time>2026-04-19T14:01:52.581Z</time></trkpt><trkpt lat="46.13235680264321" lon="12.33064150266355"><ele>384.0</ele><time>2026-04-19T14:01:53.581Z</time></trkpt><trkpt lat="46.132307243980655" lon="12.330863458392475"><ele>384.66666666666663</ele><time>2026-04-19T14:01:54.581Z</time></trkpt><trkpt lat="46.13225563079605" lon="12.331090890542189"><ele>385.3333333333333</ele><time>2026-04-19T14:01:55.581Z</time></trkpt><trkpt lat="46.13221089153066" lon="12.331295407866453"><ele>386.0</ele><time>2026-04-19T14:01:56.581Z</time></trkpt><trkpt lat="46.13216729648503" lon="12.331495067109017"><ele>386.0</ele><time>2026-04-19T14:01:57.581Z</time></trkpt><trkpt lat="46.13213332425793" lon="12.331707612574625"><ele>386.0</ele><time>2026-04-19T14:01:58.581Z</time></trkpt><trkpt lat="46.132079713535816" lon="12.331919410000808"><ele>386.0</ele><time>2026-04-19T14:01:59.581Z</time></trkpt><trkpt lat="46.13202957560741" lon="12.332135636388598"><ele>386.0</ele><time>2026-04-19T14:02:00.581Z</time></trkpt><trkpt lat="46.131976455083176" lon="12.33236115385645"><ele>386.0</ele><time>2026-04-19T14:02:01.581Z</time></trkpt><trkpt lat="46.13193476065432" lon="12.33258482087763"><ele>386.0</ele><time>2026-04-19T14:02:02.581Z</time></trkpt><trkpt lat="46.13190325404683" lon="12.332802939206594"><ele>386.0</ele><time>2026-04-19T14:02:03.581Z</time></trkpt><trkpt lat="46.131896025622964" lon="12.333027046696856"><ele>386.0</ele><time>2026-04-19T14:02:04.581Z</time></trkpt><trkpt lat="46.1319104691824" lon="12.333279577773903"><ele>386.0</ele><time>2026-04-19T14:02:05.581Z</time></trkpt><trkpt lat="46.13195312314864" lon="12.33356266651605"><ele>386.66666666666663</ele><time>2026-04-19T14:02:06.581Z</time></trkpt><trkpt lat="46.13201254260167" lon="12.333848211119188"><ele>387.33333333333337</ele><time>2026-04-19T14:02:07.581Z</time></trkpt><trkpt lat="46.13205421419497" lon="12.334091772278256"><ele>388.0</ele><time>2026-04-19T14:02:08.581Z</time></trkpt><trkpt lat="46.13208557597373" lon="12.334347245670575"><ele>388.0</ele><time>2026-04-19T14:02:09.581Z</time></trkpt><trkpt lat="46.13212563101374" lon="12.334609859028253"><ele>388.0</ele><time>2026-04-19T14:02:10.582Z</time></trkpt><trkpt lat="46.132167197297925" lon="12.334871042113596"><ele>388.0</ele><time>2026-04-19T14:02:11.582Z</time></trkpt><trkpt lat="46.13220932361871" lon="12.335128490656167"><ele>388.0</ele><time>2026-04-19T14:02:12.582Z</time></trkpt><trkpt lat="46.13225086878006" lon="12.335383302665798"><ele>388.0</ele><time>2026-04-19T14:02:13.582Z</time></trkpt><trkpt lat="46.13228966987028" lon="12.335644927828312"><ele>388.0</ele><time>2026-04-19T14:02:14.582Z</time></trkpt><trkpt lat="46.13232713511327" lon="12.335908973513037"><ele>388.0</ele><time>2026-04-19T14:02:15.582Z</time></trkpt><trkpt lat="46.13236045180243" lon="12.336165552461255"><ele>388.0</ele><time>2026-04-19T14:02:16.582Z</time></trkpt><trkpt lat="46.13239632988237" lon="12.336428075068165"><ele>388.0</ele><time>2026-04-19T14:02:17.582Z</time></trkpt><trkpt lat="46.13243254430402" lon="12.336678681418011"><ele>389.33333333333337</ele><time>2026-04-19T14:02:18.582Z</time></trkpt><trkpt lat="46.13244549666078" lon="12.336908387319232"><ele>390.66666666666663</ele><time>2026-04-19T14:02:19.582Z</time></trkpt><trkpt lat="46.13244186812674" lon="12.3371411543548"><ele>392.0</ele><time>2026-04-19T14:02:20.582Z</time></trkpt><trkpt lat="46.13247536146953" lon="12.337361158823862"><ele>392.0</ele><time>2026-04-19T14:02:21.582Z</time></trkpt><trkpt lat="46.13248553157318" lon="12.337572312997198"><ele>392.0</ele><time>2026-04-19T14:02:22.582Z</time></trkpt><trkpt lat="46.132495498783655" lon="12.337779537165003"><ele>392.0</ele><time>2026-04-19T14:02:23.582Z</time></trkpt><trkpt lat="46.1325029979517" lon="12.337952724351565"><ele>392.0</ele><time>2026-04-19T14:02:24.582Z</time></trkpt><trkpt lat="46.132585322118" lon="12.338553942357821"><ele>392.0</ele><time>2026-04-19T14:02:25.582Z</time></trkpt><trkpt lat="46.132572482689866" lon="12.338804004417273"><ele>392.0</ele><time>2026-04-19T14:02:26.582Z</time></trkpt><trkpt lat="46.13255274332102" lon="12.339046783807715"><ele>392.0</ele><time>2026-04-19T14:02:27.582Z</time></trkpt><trkpt lat="46.132514277093925" lon="12.339299162371397"><ele>392.3333333333333</ele><time>2026-04-19T14:02:28.582Z</time></trkpt><trkpt lat="46.1324670205153" lon="12.33956225865153"><ele>392.66666666666663</ele><time>2026-04-19T14:02:29.582Z</time></trkpt><trkpt lat="46.13244373705979" lon="12.339860415906644"><ele>393.0</ele><time>2026-04-19T14:02:30.582Z</time></trkpt><trkpt lat="46.132381442670514" lon="12.340162787526431"><ele>393.66666666666663</ele><time>2026-04-19T14:02:31.582Z</time></trkpt><trkpt lat="46.13231442223337" lon="12.340452221569544"><ele>394.3333333333333</ele><time>2026-04-19T14:02:32.582Z</time></trkpt><trkpt lat="46.13227007450504" lon="12.34070542439139"><ele>395.0</ele><time>2026-04-19T14:02:33.582Z</time></trkpt><trkpt lat="46.13221456473474" lon="12.340940018293587"><ele>395.0</ele><time>2026-04-19T14:02:34.582Z</time></trkpt><trkpt lat="46.132164358261925" lon="12.341156667083172"><ele>395.0</ele><time>2026-04-19T14:02:35.582Z</time></trkpt><trkpt lat="46.13213056437088" lon="12.341346815011308"><ele>395.0</ele><time>2026-04-19T14:02:36.582Z</time></trkpt><trkpt lat="46.13212621304428" lon="12.341543917879376"><ele>395.0</ele><time>2026-04-19T14:02:37.582Z</time></trkpt><trkpt lat="46.132151459628226" lon="12.341773336322477"><ele>394.75</ele><time>2026-04-19T14:02:38.582Z</time></trkpt><trkpt lat="46.13219919684546" lon="12.341981679611735"><ele>394.5</ele><time>2026-04-19T14:02:39.582Z</time></trkpt><trkpt lat="46.13225267708653" lon="12.342164240158185"><ele>394.25</ele><time>2026-04-19T14:02:40.582Z</time></trkpt><trkpt lat="46.132288583804815" lon="12.342337019819606"><ele>394.0</ele><time>2026-04-19T14:02:41.582Z</time></trkpt><trkpt lat="46.13227750703741" lon="12.342514936112515"><ele>393.6</ele><time>2026-04-19T14:02:42.582Z</time></trkpt><trkpt lat="46.13225970153422" lon="12.342663905061524"><ele>393.2</ele><time>2026-04-19T14:02:43.582Z</time></trkpt><trkpt lat="46.13222682904569" lon="12.342793693252469"><ele>392.8</ele><time>2026-04-19T14:02:44.582Z</time></trkpt><trkpt lat="46.13213323685206" lon="12.34287560282182"><ele>392.40000000000003</ele><time>2026-04-19T14:02:45.582Z</time></trkpt><trkpt lat="46.13209488818951" lon="12.342975784922801"><ele>392.0</ele><time>2026-04-19T14:02:46.582Z</time></trkpt><trkpt lat="46.132041209899455" lon="12.343068112238306"><ele>391.8</ele><time>2026-04-19T14:02:47.582Z</time></trkpt><trkpt lat="46.13186792334335" lon="12.3431227961675"><ele>391.6</ele><time>2026-04-19T14:02:49.582Z</time></trkpt><trkpt lat="46.13179160374499" lon="12.34317462362568"><ele>391.40000000000003</ele><time>2026-04-19T14:02:50.582Z</time></trkpt><trkpt lat="46.13171820367925" lon="12.34320192467796"><ele>391.20000000000005</ele><time>2026-04-19T14:02:51.582Z</time></trkpt><trkpt lat="46.131637187424175" lon="12.343236704247628"><ele>391.0</ele><time>2026-04-19T14:02:52.582Z</time></trkpt><trkpt lat="46.131570200376764" lon="12.34334564481166"><ele>390.8</ele><time>2026-04-19T14:02:53.582Z</time></trkpt><trkpt lat="46.13149566996261" lon="12.343432620603858"><ele>390.6</ele><time>2026-04-19T14:02:54.582Z</time></trkpt><trkpt lat="46.131432886333464" lon="12.343534719695363"><ele>390.4</ele><time>2026-04-19T14:02:55.582Z</time></trkpt><trkpt lat="46.13137219966051" lon="12.343654807698252"><ele>390.2</ele><time>2026-04-19T14:02:56.582Z</time></trkpt><trkpt lat="46.13130891117457" lon="12.343789326706906"><ele>390.0</ele><time>2026-04-19T14:02:57.582Z</time></trkpt><trkpt lat="46.13123879437527" lon="12.343942015044002"><ele>390.0</ele><time>2026-04-19T14:02:58.582Z</time></trkpt><trkpt lat="46.13116083481453" lon="12.344090248310192"><ele>390.0</ele><time>2026-04-19T14:02:59.582Z</time></trkpt><trkpt lat="46.13108460418937" lon="12.344249861763615"><ele>390.0</ele><time>2026-04-19T14:03:00.582Z</time></trkpt><trkpt lat="46.13100642481373" lon="12.344422370039227"><ele>390.0</ele><time>2026-04-19T14:03:01.582Z</time></trkpt><trkpt lat="46.13092549628633" lon="12.344583779778873"><ele>390.0</ele><time>2026-04-19T14:03:02.582Z</time></trkpt><trkpt lat="46.130848645702905" lon="12.344727674438165"><ele>390.0</ele><time>2026-04-19T14:03:03.582Z</time></trkpt><trkpt lat="46.130778175447375" lon="12.344875332971418"><ele>390.0</ele><time>2026-04-19T14:03:04.582Z</time></trkpt><trkpt lat="46.13069712366584" lon="12.345031147202098"><ele>390.0</ele><time>2026-04-19T14:03:05.582Z</time></trkpt><trkpt lat="46.13061482306551" lon="12.345193328656894"><ele>390.25</ele><time>2026-04-19T14:03:06.582Z</time></trkpt><trkpt lat="46.130533394858084" lon="12.3453683073066"><ele>390.5</ele><time>2026-04-19T14:03:07.582Z</time></trkpt><trkpt lat="46.130454146813484" lon="12.34553271192406"><ele>390.75</ele><time>2026-04-19T14:03:08.582Z</time></trkpt><trkpt lat="46.13037767195185" lon="12.345681034273234"><ele>391.0</ele><time>2026-04-19T14:03:09.582Z</time></trkpt><trkpt lat="46.13030220562153" lon="12.345826632013118"><ele>391.5</ele><time>2026-04-19T14:03:10.582Z</time></trkpt><trkpt lat="46.130221303585465" lon="12.34597822715787"><ele>392.0</ele><time>2026-04-19T14:03:11.582Z</time></trkpt><trkpt lat="46.1301414085812" lon="12.346131384293159"><ele>392.5</ele><time>2026-04-19T14:03:12.582Z</time></trkpt><trkpt lat="46.130064300236675" lon="12.34628732345258"><ele>393.0</ele><time>2026-04-19T14:03:13.582Z</time></trkpt><trkpt lat="46.12998155076612" lon="12.346451292375926"><ele>393.0</ele><time>2026-04-19T14:03:14.582Z</time></trkpt><trkpt lat="46.129894803654196" lon="12.34661763600492"><ele>393.0</ele><time>2026-04-19T14:03:15.582Z</time></trkpt><trkpt lat="46.12980846965374" lon="12.346790906990568"><ele>393.0</ele><time>2026-04-19T14:03:16.582Z</time></trkpt><trkpt lat="46.12972749197524" lon="12.346959525504037"><ele>393.0</ele><time>2026-04-19T14:03:17.582Z</time></trkpt><trkpt lat="46.12964541320146" lon="12.347108364450174"><ele>393.25</ele><time>2026-04-19T14:03:18.582Z</time></trkpt><trkpt lat="46.12956440343161" lon="12.34726019953464"><ele>393.5</ele><time>2026-04-19T14:03:19.582Z</time></trkpt><trkpt lat="46.12948321326755" lon="12.347408953446573"><ele>393.75</ele><time>2026-04-19T14:03:20.582Z</time></trkpt><trkpt lat="46.12939481134209" lon="12.34756714010187"><ele>394.0</ele><time>2026-04-19T14:03:21.582Z</time></trkpt><trkpt lat="46.129302361165344" lon="12.34772915210827"><ele>394.0</ele><time>2026-04-19T14:03:22.582Z</time></trkpt><trkpt lat="46.12920215906323" lon="12.347895986320848"><ele>394.0</ele><time>2026-04-19T14:03:23.582Z</time></trkpt><trkpt lat="46.12910158846645" lon="12.348062723054024"><ele>394.0</ele><time>2026-04-19T14:03:24.582Z</time></trkpt><trkpt lat="46.12900135869806" lon="12.348236306629026"><ele>394.0</ele><time>2026-04-19T14:03:25.582Z</time></trkpt><trkpt lat="46.12890237213704" lon="12.348410886393928"><ele>394.0</ele><time>2026-04-19T14:03:26.582Z</time></trkpt><trkpt lat="46.128796560512086" lon="12.34858230657671"><ele>394.0</ele><time>2026-04-19T14:03:27.582Z</time></trkpt><trkpt lat="46.12868500668022" lon="12.348758720761914"><ele>394.33333333333337</ele><time>2026-04-19T14:03:28.582Z</time></trkpt><trkpt lat="46.12857402111355" lon="12.348939812539975"><ele>394.66666666666663</ele><time>2026-04-19T14:03:29.582Z</time></trkpt><trkpt lat="46.128455947571545" lon="12.349122785821997"><ele>395.0</ele><time>2026-04-19T14:03:30.582Z</time></trkpt><trkpt lat="46.12833299942861" lon="12.349299989410682"><ele>394.66666666666663</ele><time>2026-04-19T14:03:31.582Z</time></trkpt><trkpt lat="46.12821038394287" lon="12.349469262615823"><ele>394.33333333333337</ele><time>2026-04-19T14:03:32.582Z</time></trkpt><trkpt lat="46.12810015080696" lon="12.34963628956154"><ele>394.0</ele><time>2026-04-19T14:03:33.582Z</time></trkpt><trkpt lat="46.12799446595175" lon="12.349790396515713"><ele>394.6666666666667</ele><time>2026-04-19T14:03:34.582Z</time></trkpt><trkpt lat="46.12789217850317" lon="12.349945708033513"><ele>395.33333333333337</ele><time>2026-04-19T14:03:35.582Z</time></trkpt><trkpt lat="46.127786707602354" lon="12.35010175845065"><ele>396.0</ele><time>2026-04-19T14:03:36.582Z</time></trkpt><trkpt lat="46.12768041801634" lon="12.350257848954177"><ele>396.0</ele><time>2026-04-19T14:03:37.582Z</time></trkpt><trkpt lat="46.12757075395207" lon="12.350412762006489"><ele>396.0</ele><time>2026-04-19T14:03:38.582Z</time></trkpt><trkpt lat="46.12746139567776" lon="12.350569017462803"><ele>396.0</ele><time>2026-04-19T14:03:39.582Z</time></trkpt><trkpt lat="46.12735126408411" lon="12.350724259411376"><ele>396.25</ele><time>2026-04-19T14:03:40.582Z</time></trkpt><trkpt lat="46.12724467562407" lon="12.350874908102524"><ele>396.5</ele><time>2026-04-19T14:03:41.582Z</time></trkpt><trkpt lat="46.127138263617695" lon="12.351025924009381"><ele>396.75</ele><time>2026-04-19T14:03:42.582Z</time></trkpt><trkpt lat="46.12702871384634" lon="12.35117292561725"><ele>397.0</ele><time>2026-04-19T14:03:43.582Z</time></trkpt><trkpt lat="46.12692040435036" lon="12.351322890301628"><ele>397.33333333333337</ele><time>2026-04-19T14:03:44.582Z</time></trkpt><trkpt lat="46.12681106851611" lon="12.351475194295345"><ele>397.66666666666663</ele><time>2026-04-19T14:03:45.582Z</time></trkpt><trkpt lat="46.12670151142555" lon="12.35164051847905"><ele>398.0</ele><time>2026-04-19T14:03:46.582Z</time></trkpt><trkpt lat="46.12659069674232" lon="12.351792027073861"><ele>397.5</ele><time>2026-04-19T14:03:47.582Z</time></trkpt><trkpt lat="46.12649125457048" lon="12.351928785604231"><ele>397.0</ele><time>2026-04-19T14:03:48.582Z</time></trkpt><trkpt lat="46.12639610685872" lon="12.352056552261013"><ele>396.5</ele><time>2026-04-19T14:03:49.582Z</time></trkpt><trkpt lat="46.12629128953952" lon="12.352202328321637"><ele>396.0</ele><time>2026-04-19T14:03:50.582Z</time></trkpt><trkpt lat="46.12618251243254" lon="12.352359940479447"><ele>396.0</ele><time>2026-04-19T14:03:51.582Z</time></trkpt><trkpt lat="46.126061103219435" lon="12.352517391524357"><ele>396.0</ele><time>2026-04-19T14:03:52.582Z</time></trkpt><trkpt lat="46.125927833662956" lon="12.352684863870298"><ele>396.0</ele><time>2026-04-19T14:03:53.582Z</time></trkpt><trkpt lat="46.12579717761377" lon="12.352848428000732"><ele>396.0</ele><time>2026-04-19T14:03:54.582Z</time></trkpt><trkpt lat="46.125678616205136" lon="12.352988649547735"><ele>396.0</ele><time>2026-04-19T14:03:55.582Z</time></trkpt><trkpt lat="46.12556780358512" lon="12.353118093603145"><ele>396.0</ele><time>2026-04-19T14:03:56.582Z</time></trkpt><trkpt lat="46.12545496303921" lon="12.353240055043685"><ele>396.0</ele><time>2026-04-19T14:03:57.582Z</time></trkpt><trkpt lat="46.12533647871886" lon="12.353367424163935"><ele>396.0</ele><time>2026-04-19T14:03:58.582Z</time></trkpt><trkpt lat="46.12521548781371" lon="12.353504907240117"><ele>396.0</ele><time>2026-04-19T14:03:59.582Z</time></trkpt><trkpt lat="46.125100404325" lon="12.353638784364687"><ele>396.0</ele><time>2026-04-19T14:04:00.582Z</time></trkpt><trkpt lat="46.12498641635573" lon="12.353772685872956"><ele>396.0</ele><time>2026-04-19T14:04:01.582Z</time></trkpt><trkpt lat="46.12487011609229" lon="12.353909053924863"><ele>396.0</ele><time>2026-04-19T14:04:02.582Z</time></trkpt><trkpt lat="46.1247501499797" lon="12.354049531149402"><ele>396.0</ele><time>2026-04-19T14:04:03.582Z</time></trkpt><trkpt lat="46.124630889644706" lon="12.35419036299672"><ele>396.0</ele><time>2026-04-19T14:04:04.582Z</time></trkpt><trkpt lat="46.12451295395189" lon="12.354335804313676"><ele>396.0</ele><time>2026-04-19T14:04:05.582Z</time></trkpt><trkpt lat="46.12438954764696" lon="12.354481174601975"><ele>396.0</ele><time>2026-04-19T14:04:06.582Z</time></trkpt><trkpt lat="46.12427129221869" lon="12.354635135398443"><ele>396.0</ele><time>2026-04-19T14:04:07.582Z</time></trkpt><trkpt lat="46.12414877446157" lon="12.354786005998832"><ele>395.66666666666663</ele><time>2026-04-19T14:04:08.582Z</time></trkpt><trkpt lat="46.12401978761231" lon="12.354933592071404"><ele>395.3333333333333</ele><time>2026-04-19T14:04:09.582Z</time></trkpt><trkpt lat="46.12389301766757" lon="12.355081331662822"><ele>395.0</ele><time>2026-04-19T14:04:10.582Z</time></trkpt><trkpt lat="46.12376258604944" lon="12.35521784264957"><ele>395.0</ele><time>2026-04-19T14:04:11.582Z</time></trkpt><trkpt lat="46.12363981726213" lon="12.355348368490473"><ele>395.0</ele><time>2026-04-19T14:04:12.582Z</time></trkpt><trkpt lat="46.12351430269062" lon="12.35547009308543"><ele>395.0</ele><time>2026-04-19T14:04:13.582Z</time></trkpt><trkpt lat="46.1233825450389" lon="12.355576580505979"><ele>395.0</ele><time>2026-04-19T14:04:14.582Z</time></trkpt><trkpt lat="46.12325339639046" lon="12.355657226321636"><ele>395.0</ele><time>2026-04-19T14:04:15.582Z</time></trkpt><trkpt lat="46.12312680789997" lon="12.355718750800383"><ele>395.0</ele><time>2026-04-19T14:04:16.583Z</time></trkpt><trkpt lat="46.12299451245335" lon="12.3557773760265"><ele>395.0</ele><time>2026-04-19T14:04:17.583Z</time></trkpt><trkpt lat="46.12285098487106" lon="12.355849197026584"><ele>395.0</ele><time>2026-04-19T14:04:18.583Z</time></trkpt><trkpt lat="46.122701247215794" lon="12.35589643225259"><ele>395.0</ele><time>2026-04-19T14:04:19.583Z</time></trkpt><trkpt lat="46.12254276754333" lon="12.355941657784149"><ele>395.0</ele><time>2026-04-19T14:04:20.583Z</time></trkpt><trkpt lat="46.122378235861625" lon="12.356000138231938"><ele>395.0</ele><time>2026-04-19T14:04:21.583Z</time></trkpt><trkpt lat="46.122197623632594" lon="12.356097466170024"><ele>395.0</ele><time>2026-04-19T14:04:22.583Z</time></trkpt><trkpt lat="46.12200354220856" lon="12.356176255874185"><ele>395.0</ele><time>2026-04-19T14:04:23.583Z</time></trkpt><trkpt lat="46.12181262055596" lon="12.356237705952344"><ele>395.0</ele><time>2026-04-19T14:04:24.583Z</time></trkpt><trkpt lat="46.12162936931754" lon="12.356308956019651"><ele>395.0</ele><time>2026-04-19T14:04:25.583Z</time></trkpt><trkpt lat="46.12146055199633" lon="12.356375102731967"><ele>395.0</ele><time>2026-04-19T14:04:26.583Z</time></trkpt><trkpt lat="46.12129375910203" lon="12.356427928807411"><ele>395.5</ele><time>2026-04-19T14:04:27.583Z</time></trkpt><trkpt lat="46.12113435947321" lon="12.356478875806829"><ele>396.0</ele><time>2026-04-19T14:04:28.583Z</time></trkpt><trkpt lat="46.12099749431971" lon="12.35653082600258"><ele>396.5</ele><time>2026-04-19T14:04:29.583Z</time></trkpt><trkpt lat="46.120873303178826" lon="12.35658311994627"><ele>397.0</ele><time>2026-04-19T14:04:30.583Z</time></trkpt><trkpt lat="46.120756090078515" lon="12.356639334673506"><ele>398.0</ele><time>2026-04-19T14:04:31.583Z</time></trkpt><trkpt lat="46.12064755260309" lon="12.356694242175255"><ele>399.0</ele><time>2026-04-19T14:04:32.583Z</time></trkpt><trkpt lat="46.120548064198736" lon="12.356751509802196"><ele>400.0</ele><time>2026-04-19T14:04:33.583Z</time></trkpt><trkpt lat="46.1204551746519" lon="12.356810364609391"><ele>401.0</ele><time>2026-04-19T14:04:34.583Z</time></trkpt><trkpt lat="46.12036487796745" lon="12.356821948574245"><ele>402.0</ele><time>2026-04-19T14:04:35.583Z</time></trkpt><trkpt lat="46.120273534359924" lon="12.356802214422721"><ele>402.0</ele><time>2026-04-19T14:04:36.583Z</time></trkpt><trkpt lat="46.120178250623304" lon="12.356811831013717"><ele>402.0</ele><time>2026-04-19T14:04:37.583Z</time></trkpt><trkpt lat="46.120080474968184" lon="12.356885482852599"><ele>402.0</ele><time>2026-04-19T14:04:38.583Z</time></trkpt><trkpt lat="46.119976721325465" lon="12.356995162525516"><ele>402.0</ele><time>2026-04-19T14:04:39.583Z</time></trkpt><trkpt lat="46.1198435792856" lon="12.35706313965304"><ele>400.0</ele><time>2026-04-19T14:04:40.583Z</time></trkpt><trkpt lat="46.119687593857286" lon="12.357056072330717"><ele>398.0</ele><time>2026-04-19T14:04:41.583Z</time></trkpt><trkpt lat="46.11951294219054" lon="12.357120565839192"><ele>396.0</ele><time>2026-04-19T14:04:42.583Z</time></trkpt><trkpt lat="46.11934958801697" lon="12.357174356638895"><ele>397.0</ele><time>2026-04-19T14:04:43.583Z</time></trkpt><trkpt lat="46.11920071164788" lon="12.357239150319627"><ele>398.0</ele><time>2026-04-19T14:04:44.583Z</time></trkpt><trkpt lat="46.119041257484454" lon="12.357306109095708"><ele>399.0</ele><time>2026-04-19T14:04:45.583Z</time></trkpt><trkpt lat="46.118874144553224" lon="12.357364853095255"><ele>399.0</ele><time>2026-04-19T14:04:46.583Z</time></trkpt><trkpt lat="46.11869862128009" lon="12.357428146809635"><ele>399.0</ele><time>2026-04-19T14:04:47.583Z</time></trkpt><trkpt lat="46.11851515024661" lon="12.35749824274066"><ele>399.0</ele><time>2026-04-19T14:04:48.583Z</time></trkpt><trkpt lat="46.11831625203823" lon="12.357585543994434"><ele>398.33333333333337</ele><time>2026-04-19T14:04:49.583Z</time></trkpt><trkpt lat="46.11813271344717" lon="12.357662459694364"><ele>397.6666666666667</ele><time>2026-04-19T14:04:50.583Z</time></trkpt><trkpt lat="46.1179688766151" lon="12.357721925094916"><ele>397.0</ele><time>2026-04-19T14:04:51.583Z</time></trkpt><trkpt lat="46.11781086398219" lon="12.357780111989044"><ele>397.0</ele><time>2026-04-19T14:04:52.583Z</time></trkpt><trkpt lat="46.11765373283151" lon="12.357826867524713"><ele>397.0</ele><time>2026-04-19T14:04:53.583Z</time></trkpt><trkpt lat="46.1174893369045" lon="12.357854832103941"><ele>397.0</ele><time>2026-04-19T14:04:54.583Z</time></trkpt><trkpt lat="46.1173263657977" lon="12.357874582839797"><ele>397.5</ele><time>2026-04-19T14:04:55.583Z</time></trkpt><trkpt lat="46.117175328524645" lon="12.357849862304162"><ele>398.0</ele><time>2026-04-19T14:04:56.583Z</time></trkpt><trkpt lat="46.11703464357497" lon="12.35782283889069"><ele>398.5</ele><time>2026-04-19T14:04:57.583Z</time></trkpt><trkpt lat="46.116900528025546" lon="12.357783255412746"><ele>399.0</ele><time>2026-04-19T14:04:58.583Z</time></trkpt><trkpt lat="46.11676628362412" lon="12.357750999868564"><ele>399.0</ele><time>2026-04-19T14:04:59.583Z</time></trkpt><trkpt lat="46.11666317589857" lon="12.357689185148319"><ele>399.0</ele><time>2026-04-19T14:05:00.583Z</time></trkpt><trkpt lat="46.11650897512207" lon="12.357601503166762"><ele>399.0</ele><time>2026-04-19T14:05:01.583Z</time></trkpt><trkpt lat="46.116385406139926" lon="12.357506588536786"><ele>399.0</ele><time>2026-04-19T14:05:02.583Z</time></trkpt><trkpt lat="46.116259572304834" lon="12.357398559109424"><ele>398.25</ele><time>2026-04-19T14:05:03.583Z</time></trkpt><trkpt lat="46.116132144489065" lon="12.357289806058205"><ele>397.5</ele><time>2026-04-19T14:05:04.583Z</time></trkpt><trkpt lat="46.1159992648314" lon="12.357176400161528"><ele>396.75</ele><time>2026-04-19T14:05:05.583Z</time></trkpt><trkpt lat="46.11587395422273" lon="12.35706987714183"><ele>396.0</ele><time>2026-04-19T14:05:06.583Z</time></trkpt><trkpt lat="46.115757995694814" lon="12.356972360028957"><ele>398.75</ele><time>2026-04-19T14:05:07.583Z</time></trkpt><trkpt lat="46.11564516546421" lon="12.356877473745826"><ele>401.5</ele><time>2026-04-19T14:05:08.583Z</time></trkpt><trkpt lat="46.11553580180263" lon="12.356785502750899"><ele>404.25</ele><time>2026-04-19T14:05:09.583Z</time></trkpt><trkpt lat="46.11542618704167" lon="12.356716239301948"><ele>407.0</ele><time>2026-04-19T14:05:10.583Z</time></trkpt><trkpt lat="46.115329147499224" lon="12.356624436018798"><ele>407.0</ele><time>2026-04-19T14:05:11.583Z</time></trkpt><trkpt lat="46.11522638598777" lon="12.356536262945683"><ele>407.0</ele><time>2026-04-19T14:05:12.583Z</time></trkpt><trkpt lat="46.11512005782554" lon="12.356438107906191"><ele>407.0</ele><time>2026-04-19T14:05:13.583Z</time></trkpt><trkpt lat="46.1150103018421" lon="12.356342819638902"><ele>407.0</ele><time>2026-04-19T14:05:14.583Z</time></trkpt><trkpt lat="46.11490035107419" lon="12.35624140007714"><ele>406.25</ele><time>2026-04-19T14:05:15.583Z</time></trkpt><trkpt lat="46.11477776401022" lon="12.356144301573895"><ele>405.5</ele><time>2026-04-19T14:05:16.583Z</time></trkpt><trkpt lat="46.1146476629897" lon="12.356043013405273"><ele>404.75</ele><time>2026-04-19T14:05:17.583Z</time></trkpt><trkpt lat="46.11451764604748" lon="12.355941693558986"><ele>404.0</ele><time>2026-04-19T14:05:18.583Z</time></trkpt><trkpt lat="46.11439288862795" lon="12.355836521791522"><ele>404.0</ele><time>2026-04-19T14:05:19.583Z</time></trkpt><trkpt lat="46.11427996255448" lon="12.355727359550984"><ele>404.0</ele><time>2026-04-19T14:05:20.583Z</time></trkpt><trkpt lat="46.11416616739168" lon="12.355621381290932"><ele>404.0</ele><time>2026-04-19T14:05:21.583Z</time></trkpt><trkpt lat="46.11404110288327" lon="12.355519288733015"><ele>404.0</ele><time>2026-04-19T14:05:22.583Z</time></trkpt><trkpt lat="46.113927830080456" lon="12.35543177546072"><ele>404.0</ele><time>2026-04-19T14:05:23.583Z</time></trkpt><trkpt lat="46.113816453706434" lon="12.355341091233216"><ele>404.0</ele><time>2026-04-19T14:05:24.583Z</time></trkpt><trkpt lat="46.11370008867444" lon="12.355248542536705"><ele>404.0</ele><time>2026-04-19T14:05:25.583Z</time></trkpt><trkpt lat="46.11357397100605" lon="12.355139500037694"><ele>404.0</ele><time>2026-04-19T14:05:26.583Z</time></trkpt><trkpt lat="46.11346838036745" lon="12.355026653747698"><ele>404.0</ele><time>2026-04-19T14:05:27.583Z</time></trkpt><trkpt lat="46.11335785007078" lon="12.354932978362722"><ele>404.0</ele><time>2026-04-19T14:05:28.583Z</time></trkpt><trkpt lat="46.113255221563655" lon="12.354845999698199"><ele>404.0</ele><time>2026-04-19T14:05:29.583Z</time></trkpt><trkpt lat="46.113146899537504" lon="12.354753182594745"><ele>404.0</ele><time>2026-04-19T14:05:30.583Z</time></trkpt><trkpt lat="46.11303038496322" lon="12.354653315897519"><ele>403.25</ele><time>2026-04-19T14:05:31.583Z</time></trkpt><trkpt lat="46.1129165307762" lon="12.354557579086185"><ele>402.5</ele><time>2026-04-19T14:05:32.583Z</time></trkpt><trkpt lat="46.11279844521861" lon="12.354458284072841"><ele>401.75</ele><time>2026-04-19T14:05:33.583Z</time></trkpt><trkpt lat="46.11268347010895" lon="12.354358171385003"><ele>401.0</ele><time>2026-04-19T14:05:34.583Z</time></trkpt><trkpt lat="46.11255400444585" lon="12.354288239602768"><ele>401.0</ele><time>2026-04-19T14:05:35.583Z</time></trkpt><trkpt lat="46.112438721342905" lon="12.354207892014678"><ele>401.0</ele><time>2026-04-19T14:05:36.583Z</time></trkpt><trkpt lat="46.1123253040832" lon="12.354156208223337"><ele>401.0</ele><time>2026-04-19T14:05:37.583Z</time></trkpt><trkpt lat="46.11221020948868" lon="12.35412417346194"><ele>401.0</ele><time>2026-04-19T14:05:38.583Z</time></trkpt><trkpt lat="46.112080505786054" lon="12.35410345472234"><ele>401.75</ele><time>2026-04-19T14:05:39.583Z</time></trkpt><trkpt lat="46.11196438061232" lon="12.354094156993362"><ele>402.5</ele><time>2026-04-19T14:05:40.583Z</time></trkpt><trkpt lat="46.11184800016037" lon="12.354103634758582"><ele>403.25</ele><time>2026-04-19T14:05:41.583Z</time></trkpt><trkpt lat="46.11173653336771" lon="12.35413444836927"><ele>404.0</ele><time>2026-04-19T14:05:42.583Z</time></trkpt><trkpt lat="46.11162646597168" lon="12.35416527296769"><ele>402.25</ele><time>2026-04-19T14:05:43.583Z</time></trkpt><trkpt lat="46.11151418645632" lon="12.354209424774455"><ele>400.5</ele><time>2026-04-19T14:05:44.583Z</time></trkpt><trkpt lat="46.11140273630196" lon="12.354234894294994"><ele>398.75</ele><time>2026-04-19T14:05:45.583Z</time></trkpt><trkpt lat="46.11129673901057" lon="12.354304958259828"><ele>397.0</ele><time>2026-04-19T14:05:46.583Z</time></trkpt><trkpt lat="46.1112042030908" lon="12.354379832600683"><ele>397.0</ele><time>2026-04-19T14:05:47.583Z</time></trkpt><trkpt lat="46.11111664338946" lon="12.354453852760328"><ele>397.0</ele><time>2026-04-19T14:05:48.583Z</time></trkpt><trkpt lat="46.11103510879271" lon="12.354524582216474"><ele>397.0</ele><time>2026-04-19T14:05:49.583Z</time></trkpt><trkpt lat="46.11095448944047" lon="12.35458912731146"><ele>397.0</ele><time>2026-04-19T14:05:50.583Z</time></trkpt><trkpt lat="46.11087601927608" lon="12.35464472881575"><ele>397.0</ele><time>2026-04-19T14:05:51.583Z</time></trkpt><trkpt lat="46.11080144846835" lon="12.354695007758213"><ele>398.50000000000006</ele><time>2026-04-19T14:05:52.583Z</time></trkpt><trkpt lat="46.11072743090504" lon="12.354740598751135"><ele>400.0</ele><time>2026-04-19T14:05:53.583Z</time></trkpt><trkpt lat="46.1106573749783" lon="12.354777110637663"><ele>401.5</ele><time>2026-04-19T14:05:54.583Z</time></trkpt><trkpt lat="46.110592491714755" lon="12.354805598285488"><ele>403.0</ele><time>2026-04-19T14:05:55.583Z</time></trkpt><trkpt lat="46.11053071212996" lon="12.354826135997085"><ele>404.50000000000006</ele><time>2026-04-19T14:05:56.583Z</time></trkpt><trkpt lat="46.11040254267156" lon="12.354869446789461"><ele>406.0</ele><time>2026-04-19T14:05:58.583Z</time></trkpt><trkpt lat="46.11033065110229" lon="12.35484075504643"><ele>406.00000000000006</ele><time>2026-04-19T14:05:59.583Z</time></trkpt><trkpt lat="46.11023059747676" lon="12.354818432845457"><ele>406.0</ele><time>2026-04-19T14:06:00.583Z</time></trkpt><trkpt lat="46.11014526988635" lon="12.354805685855249"><ele>406.0</ele><time>2026-04-19T14:06:01.583Z</time></trkpt><trkpt lat="46.1100639767053" lon="12.35476029905655"><ele>406.0</ele><time>2026-04-19T14:06:02.583Z</time></trkpt><trkpt lat="46.109996931595624" lon="12.354693640878942"><ele>406.00000000000006</ele><time>2026-04-19T14:06:03.583Z</time></trkpt><trkpt lat="46.109926907909525" lon="12.354649716106715"><ele>406.0</ele><time>2026-04-19T14:06:04.583Z</time></trkpt><trkpt lat="46.109846870547415" lon="12.3546191168457"><ele>404.4</ele><time>2026-04-19T14:06:05.583Z</time></trkpt><trkpt lat="46.10975803424325" lon="12.354562851378564"><ele>402.8</ele><time>2026-04-19T14:06:06.583Z</time></trkpt><trkpt lat="46.10966718212805" lon="12.354500910932423"><ele>401.2</ele><time>2026-04-19T14:06:07.583Z</time></trkpt><trkpt lat="46.109565453921256" lon="12.354445198943672"><ele>399.59999999999997</ele><time>2026-04-19T14:06:08.583Z</time></trkpt><trkpt lat="46.10948846163528" lon="12.35440928114337"><ele>398.0</ele><time>2026-04-19T14:06:09.583Z</time></trkpt><trkpt lat="46.10941484910524" lon="12.3543694124427"><ele>398.0</ele><time>2026-04-19T14:06:10.583Z</time></trkpt><trkpt lat="46.10934069912159" lon="12.354340313669082"><ele>398.0</ele><time>2026-04-19T14:06:11.583Z</time></trkpt><trkpt lat="46.109247621001515" lon="12.354306228868724"><ele>398.0</ele><time>2026-04-19T14:06:12.583Z</time></trkpt><trkpt lat="46.10913635722024" lon="12.354271071034459"><ele>398.0</ele><time>2026-04-19T14:06:13.583Z</time></trkpt><trkpt lat="46.10901172651862" lon="12.35424616266787"><ele>398.0</ele><time>2026-04-19T14:06:14.583Z</time></trkpt><trkpt lat="46.10888592944288" lon="12.354228311419561"><ele>398.79999999999995</ele><time>2026-04-19T14:06:15.583Z</time></trkpt><trkpt lat="46.10878284438433" lon="12.35421216574157"><ele>399.6</ele><time>2026-04-19T14:06:16.583Z</time></trkpt><trkpt lat="46.10868446847409" lon="12.354184732067635"><ele>400.4</ele><time>2026-04-19T14:06:17.583Z</time></trkpt><trkpt lat="46.10859132263027" lon="12.354151385172292"><ele>401.20000000000005</ele><time>2026-04-19T14:06:18.583Z</time></trkpt><trkpt lat="46.108496531102226" lon="12.354109140959855"><ele>402.0</ele><time>2026-04-19T14:06:19.583Z</time></trkpt><trkpt lat="46.10840615716209" lon="12.354056239229108"><ele>402.0</ele><time>2026-04-19T14:06:20.583Z</time></trkpt><trkpt lat="46.10832947659017" lon="12.353995806620743"><ele>402.0</ele><time>2026-04-19T14:06:21.583Z</time></trkpt><trkpt lat="46.10825747309466" lon="12.35393128309128"><ele>402.0</ele><time>2026-04-19T14:06:22.584Z</time></trkpt><trkpt lat="46.10819797274839" lon="12.353871264865784"><ele>402.0</ele><time>2026-04-19T14:06:23.584Z</time></trkpt><trkpt lat="46.10813621130334" lon="12.353818735239596"><ele>402.0</ele><time>2026-04-19T14:06:24.584Z</time></trkpt><trkpt lat="46.108068862516696" lon="12.353768625302601"><ele>402.0</ele><time>2026-04-19T14:06:25.584Z</time></trkpt><trkpt lat="46.10799662748433" lon="12.353731725095635"><ele>400.1428571428571</ele><time>2026-04-19T14:06:26.584Z</time></trkpt><trkpt lat="46.10791507547505" lon="12.353700968150852"><ele>398.28571428571433</ele><time>2026-04-19T14:06:27.584Z</time></trkpt><trkpt lat="46.10783876325015" lon="12.353683238018796"><ele>396.42857142857144</ele><time>2026-04-19T14:06:28.584Z</time></trkpt><trkpt lat="46.10776543762703" lon="12.353679816434168"><ele>394.57142857142856</ele><time>2026-04-19T14:06:29.584Z</time></trkpt><trkpt lat="46.10769643765315" lon="12.353682687687765"><ele>392.71428571428567</ele><time>2026-04-19T14:06:30.584Z</time></trkpt><trkpt lat="46.10763163870812" lon="12.353693010582747"><ele>390.8571428571429</ele><time>2026-04-19T14:06:31.584Z</time></trkpt><trkpt lat="46.107563373072956" lon="12.35370770181817"><ele>389.0</ele><time>2026-04-19T14:06:32.584Z</time></trkpt><trkpt lat="46.107470778120906" lon="12.353730344402473"><ele>389.16666666666663</ele><time>2026-04-19T14:06:34.584Z</time></trkpt><trkpt lat="46.10740791027669" lon="12.353754944995641"><ele>389.3333333333333</ele><time>2026-04-19T14:06:37.584Z</time></trkpt><trkpt lat="46.10733761584712" lon="12.353781958911476"><ele>389.5</ele><time>2026-04-19T14:06:41.584Z</time></trkpt><trkpt lat="46.10727789415745" lon="12.35373321290027"><ele>389.66666666666663</ele><time>2026-04-19T14:06:47.584Z</time></trkpt><trkpt lat="46.107267965786136" lon="12.353642838953855"><ele>389.8333333333333</ele><time>2026-04-19T14:06:50.584Z</time></trkpt><trkpt lat="46.10736160730423" lon="12.353599305693207"><ele>390.0</ele><time>2026-04-19T14:08:07.584Z</time></trkpt><trkpt lat="46.10731898944439" lon="12.353487390099449"><ele>390.0</ele><time>2026-04-19T14:08:49.585Z</time></trkpt><trkpt lat="46.107361525291914" lon="12.353560937659044"><ele>390.0</ele><time>2026-04-19T14:09:00.585Z</time></trkpt><trkpt lat="46.10731039164912" lon="12.353492630843398"><ele>390.0</ele><time>2026-04-19T14:09:13.585Z</time></trkpt><trkpt lat="46.1072957167441" lon="12.353401998903077"><ele>390.0</ele><time>2026-04-19T14:09:22.585Z</time></trkpt><trkpt lat="46.107343088631545" lon="12.35333186800111"><ele>390.0</ele><time>2026-04-19T14:09:30.585Z</time></trkpt><trkpt lat="46.10728869742346" lon="12.353402137174522"><ele>390.0</ele><time>2026-04-19T14:22:58.588Z</time></trkpt><trkpt lat="46.10733059905256" lon="12.353318067272763"><ele>390.0</ele><time>2026-04-19T14:23:51.589Z</time></trkpt><trkpt lat="46.10739993855728" lon="12.353311958022738"><ele>390.0</ele><time>2026-04-19T14:24:00.589Z</time></trkpt><trkpt lat="46.107442541446055" lon="12.353392234235967"><ele>390.0</ele><time>2026-04-19T14:57:27.594Z</time></trkpt><trkpt lat="46.10748939391107" lon="12.353459015321269"><ele>390.0</ele><time>2026-04-19T14:57:39.594Z</time></trkpt><trkpt lat="46.10745302567458" lon="12.353536781646351"><ele>390.0</ele><time>2026-04-19T14:57:51.594Z</time></trkpt><trkpt lat="46.107390604049776" lon="12.353568678028738"><ele>390.0</ele><time>2026-04-19T14:57:57.594Z</time></trkpt><trkpt lat="46.107327454522796" lon="12.353553896830853"><ele>390.0</ele><time>2026-04-19T14:58:09.594Z</time></trkpt><trkpt lat="46.10727969186118" lon="12.353484768189041"><ele>390.0</ele><time>2026-04-19T14:58:16.594Z</time></trkpt><trkpt lat="46.107295842119406" lon="12.353386187893856"><ele>390.0</ele><time>2026-04-19T14:58:25.594Z</time></trkpt><trkpt lat="46.10737341835943" lon="12.353335821294825"><ele>390.0</ele><time>2026-04-19T14:58:49.594Z</time></trkpt><trkpt lat="46.107319562233194" lon="12.353388690910307"><ele>390.0</ele><time>2026-04-19T14:59:22.593Z</time></trkpt><trkpt lat="46.10726402343486" lon="12.353444665056493"><ele>390.0</ele><time>2026-04-19T14:59:30.593Z</time></trkpt><trkpt lat="46.10733684890322" lon="12.353541567677349"><ele>390.0</ele><time>2026-04-19T14:59:48.593Z</time></trkpt><trkpt lat="46.10723969479286" lon="12.353737829333394"><ele>391.2</ele><time>2026-04-19T15:01:55.593Z</time></trkpt><trkpt lat="46.10722042162358" lon="12.353983031028752"><ele>392.4</ele><time>2026-04-19T15:02:08.593Z</time></trkpt><trkpt lat="46.1071633054786" lon="12.35403736036472"><ele>393.6</ele><time>2026-04-19T15:02:09.593Z</time></trkpt><trkpt lat="46.10709995080887" lon="12.354069452833471"><ele>394.8</ele><time>2026-04-19T15:02:10.593Z</time></trkpt><trkpt lat="46.10701189821102" lon="12.354084283334377"><ele>396.0</ele><time>2026-04-19T15:02:11.593Z</time></trkpt><trkpt lat="46.10689176031006" lon="12.354129730760842"><ele>396.0</ele><time>2026-04-19T15:02:12.593Z</time></trkpt><trkpt lat="46.10678125288271" lon="12.354198930854045"><ele>396.0</ele><time>2026-04-19T15:02:13.593Z</time></trkpt><trkpt lat="46.10668689363984" lon="12.354248170039853"><ele>396.0</ele><time>2026-04-19T15:02:14.593Z</time></trkpt><trkpt lat="46.10658948486133" lon="12.354271638368344"><ele>396.0</ele><time>2026-04-19T15:02:15.593Z</time></trkpt><trkpt lat="46.10649287976289" lon="12.354262745433676"><ele>396.0</ele><time>2026-04-19T15:02:16.593Z</time></trkpt><trkpt lat="46.10638491519205" lon="12.354241466047611"><ele>398.25</ele><time>2026-04-19T15:02:17.593Z</time></trkpt><trkpt lat="46.10627850549251" lon="12.354197815076033"><ele>400.5</ele><time>2026-04-19T15:02:18.593Z</time></trkpt><trkpt lat="46.10616880206173" lon="12.35414322846852"><ele>402.75</ele><time>2026-04-19T15:02:19.593Z</time></trkpt><trkpt lat="46.106056097116536" lon="12.3540647260808"><ele>405.0</ele><time>2026-04-19T15:02:20.593Z</time></trkpt><trkpt lat="46.10593549285545" lon="12.353995116308692"><ele>405.0</ele><time>2026-04-19T15:02:21.593Z</time></trkpt><trkpt lat="46.10580839043639" lon="12.353931098877553"><ele>405.0</ele><time>2026-04-19T15:02:22.593Z</time></trkpt><trkpt lat="46.105702153933784" lon="12.353894116736942"><ele>405.0</ele><time>2026-04-19T15:02:23.593Z</time></trkpt><trkpt lat="46.105604309480725" lon="12.35385466347917"><ele>405.0</ele><time>2026-04-19T15:02:24.593Z</time></trkpt><trkpt lat="46.105501150971406" lon="12.353801655256722"><ele>405.0</ele><time>2026-04-19T15:02:25.593Z</time></trkpt><trkpt lat="46.105388325555175" lon="12.35375687063552"><ele>405.0</ele><time>2026-04-19T15:02:26.593Z</time></trkpt><trkpt lat="46.10527403984312" lon="12.35369628002456"><ele>405.0</ele><time>2026-04-19T15:02:27.593Z</time></trkpt><trkpt lat="46.10515792177311" lon="12.353629012444465"><ele>405.0</ele><time>2026-04-19T15:02:28.593Z</time></trkpt><trkpt lat="46.10505090003339" lon="12.353521378814158"><ele>405.0</ele><time>2026-04-19T15:02:29.593Z</time></trkpt><trkpt lat="46.10492523828066" lon="12.353424696282264"><ele>405.0</ele><time>2026-04-19T15:02:30.593Z</time></trkpt><trkpt lat="46.104807363432" lon="12.353299218607836"><ele>405.0</ele><time>2026-04-19T15:02:31.593Z</time></trkpt><trkpt lat="46.10469162484402" lon="12.353107384811215"><ele>405.33333333333337</ele><time>2026-04-19T15:02:32.593Z</time></trkpt><trkpt lat="46.10456155240888" lon="12.352943845867138"><ele>405.6666666666667</ele><time>2026-04-19T15:02:33.593Z</time></trkpt><trkpt lat="46.10445792011297" lon="12.352784994173874"><ele>406.0</ele><time>2026-04-19T15:02:34.593Z</time></trkpt><trkpt lat="46.104351805912486" lon="12.35263429170025"><ele>406.0</ele><time>2026-04-19T15:02:35.593Z</time></trkpt><trkpt lat="46.1042395791654" lon="12.352459102771059"><ele>406.0</ele><time>2026-04-19T15:02:36.593Z</time></trkpt><trkpt lat="46.10412726998877" lon="12.352293489168938"><ele>406.0</ele><time>2026-04-19T15:02:37.593Z</time></trkpt><trkpt lat="46.104028754058426" lon="12.352120886761805"><ele>410.6666666666667</ele><time>2026-04-19T15:02:38.593Z</time></trkpt><trkpt lat="46.103917851075245" lon="12.351955240454338"><ele>415.33333333333337</ele><time>2026-04-19T15:02:39.593Z</time></trkpt><trkpt lat="46.10380503052125" lon="12.351797124448803"><ele>420.0</ele><time>2026-04-19T15:02:40.593Z</time></trkpt><trkpt lat="46.10370011571949" lon="12.351628125127455"><ele>420.0</ele><time>2026-04-19T15:02:41.593Z</time></trkpt><trkpt lat="46.10358115980853" lon="12.351461459662554"><ele>420.0</ele><time>2026-04-19T15:02:42.593Z</time></trkpt><trkpt lat="46.103473889272045" lon="12.351296373228717"><ele>420.0</ele><time>2026-04-19T15:02:43.593Z</time></trkpt><trkpt lat="46.103363342191514" lon="12.351145196603659"><ele>422.0</ele><time>2026-04-19T15:02:44.593Z</time></trkpt><trkpt lat="46.10326925899049" lon="12.351019431756079"><ele>424.0</ele><time>2026-04-19T15:02:45.593Z</time></trkpt><trkpt lat="46.10316178717402" lon="12.350892690107639"><ele>426.0</ele><time>2026-04-19T15:02:46.593Z</time></trkpt><trkpt lat="46.10305317442877" lon="12.350745785836969"><ele>428.0</ele><time>2026-04-19T15:02:47.593Z</time></trkpt><trkpt lat="46.10292908390126" lon="12.350606173640495"><ele>423.25</ele><time>2026-04-19T15:02:48.593Z</time></trkpt><trkpt lat="46.10283029982264" lon="12.350474340721114"><ele>418.5</ele><time>2026-04-19T15:02:49.593Z</time></trkpt><trkpt lat="46.10273563851161" lon="12.350353106099929"><ele>413.75</ele><time>2026-04-19T15:02:50.593Z</time></trkpt><trkpt lat="46.10264314270099" lon="12.35024244371797"><ele>409.0</ele><time>2026-04-19T15:02:51.593Z</time></trkpt><trkpt lat="46.102548145442675" lon="12.350122255047808"><ele>409.0</ele><time>2026-04-19T15:02:52.593Z</time></trkpt><trkpt lat="46.102446337817085" lon="12.350006427546674"><ele>409.0</ele><time>2026-04-19T15:02:53.593Z</time></trkpt><trkpt lat="46.10233896900926" lon="12.349893212827206"><ele>409.0</ele><time>2026-04-19T15:02:54.593Z</time></trkpt><trkpt lat="46.10223964015991" lon="12.34976438603167"><ele>409.0</ele><time>2026-04-19T15:02:55.593Z</time></trkpt><trkpt lat="46.10214225633944" lon="12.349628861758635"><ele>411.25</ele><time>2026-04-19T15:02:56.593Z</time></trkpt><trkpt lat="46.10203596369183" lon="12.34949143225908"><ele>413.5</ele><time>2026-04-19T15:02:57.593Z</time></trkpt><trkpt lat="46.10192042284591" lon="12.34935268126666"><ele>415.75</ele><time>2026-04-19T15:02:58.593Z</time></trkpt><trkpt lat="46.10180874109167" lon="12.349212586256453"><ele>418.0</ele><time>2026-04-19T15:02:59.593Z</time></trkpt><trkpt lat="46.101691315861544" lon="12.349071179489439"><ele>421.0</ele><time>2026-04-19T15:03:00.593Z</time></trkpt><trkpt lat="46.101569600092255" lon="12.348928741888072"><ele>424.0</ele><time>2026-04-19T15:03:01.593Z</time></trkpt><trkpt lat="46.10144645908538" lon="12.348785327973909"><ele>427.0</ele><time>2026-04-19T15:03:02.593Z</time></trkpt><trkpt lat="46.1013244919992" lon="12.348637773569404"><ele>427.0</ele><time>2026-04-19T15:03:03.593Z</time></trkpt><trkpt lat="46.101198567081944" lon="12.348495779782443"><ele>427.0</ele><time>2026-04-19T15:03:04.593Z</time></trkpt><trkpt lat="46.1010674034892" lon="12.348355768600817"><ele>427.0</ele><time>2026-04-19T15:03:05.593Z</time></trkpt><trkpt lat="46.10091296899412" lon="12.348220691364896"><ele>427.0</ele><time>2026-04-19T15:03:06.593Z</time></trkpt><trkpt lat="46.100751815947945" lon="12.348084447866844"><ele>427.0</ele><time>2026-04-19T15:03:07.593Z</time></trkpt><trkpt lat="46.10058827869612" lon="12.347950208614893"><ele>427.0</ele><time>2026-04-19T15:03:08.594Z</time></trkpt><trkpt lat="46.10043084043225" lon="12.347793944342929"><ele>428.0</ele><time>2026-04-19T15:03:09.594Z</time></trkpt><trkpt lat="46.10027572859919" lon="12.347634033744312"><ele>429.0</ele><time>2026-04-19T15:03:10.594Z</time></trkpt><trkpt lat="46.10012439935416" lon="12.347481305486712"><ele>430.0</ele><time>2026-04-19T15:03:11.594Z</time></trkpt><trkpt lat="46.09998132440168" lon="12.34732729707257"><ele>429.0</ele><time>2026-04-19T15:03:12.594Z</time></trkpt><trkpt lat="46.09983788554654" lon="12.347183553567703"><ele>428.0</ele><time>2026-04-19T15:03:13.594Z</time></trkpt><trkpt lat="46.09970607997491" lon="12.347047756822999"><ele>427.0</ele><time>2026-04-19T15:03:14.594Z</time></trkpt><trkpt lat="46.09957280937147" lon="12.346905361520218"><ele>427.0</ele><time>2026-04-19T15:03:15.594Z</time></trkpt><trkpt lat="46.099442985522984" lon="12.346766263197365"><ele>427.0</ele><time>2026-04-19T15:03:16.594Z</time></trkpt><trkpt lat="46.09931072708364" lon="12.346628008629756"><ele>427.0</ele><time>2026-04-19T15:03:17.594Z</time></trkpt><trkpt lat="46.099177767855615" lon="12.346507804185174"><ele>430.6666666666667</ele><time>2026-04-19T15:03:18.594Z</time></trkpt><trkpt lat="46.09903566185747" lon="12.346402589857096"><ele>434.33333333333337</ele><time>2026-04-19T15:03:19.594Z</time></trkpt><trkpt lat="46.098874836455536" lon="12.346329207283103"><ele>438.0</ele><time>2026-04-19T15:03:20.594Z</time></trkpt><trkpt lat="46.098701504411814" lon="12.346284232085411"><ele>436.33333333333337</ele><time>2026-04-19T15:03:21.594Z</time></trkpt><trkpt lat="46.098505704033265" lon="12.346261848579603"><ele>434.6666666666667</ele><time>2026-04-19T15:03:22.594Z</time></trkpt><trkpt lat="46.09831744722249" lon="12.346242208801248"><ele>433.0</ele><time>2026-04-19T15:03:23.594Z</time></trkpt><trkpt lat="46.098159296058945" lon="12.346188696352522"><ele>433.0</ele><time>2026-04-19T15:03:24.594Z</time></trkpt><trkpt lat="46.09801624579116" lon="12.34617762987548"><ele>433.0</ele><time>2026-04-19T15:03:25.594Z</time></trkpt><trkpt lat="46.097886745015956" lon="12.346116196812815"><ele>433.0</ele><time>2026-04-19T15:03:26.594Z</time></trkpt><trkpt lat="46.09776022577514" lon="12.346026191965887"><ele>433.0</ele><time>2026-04-19T15:03:27.594Z</time></trkpt><trkpt lat="46.09763238607208" lon="12.345899053885846"><ele>433.0</ele><time>2026-04-19T15:03:28.594Z</time></trkpt><trkpt lat="46.09751594009699" lon="12.345713175973424"><ele>433.0</ele><time>2026-04-19T15:03:29.594Z</time></trkpt><trkpt lat="46.097369434703126" lon="12.345536832059752"><ele>433.0</ele><time>2026-04-19T15:03:30.594Z</time></trkpt><trkpt lat="46.09722707203429" lon="12.345330118299772"><ele>438.33333333333337</ele><time>2026-04-19T15:03:31.594Z</time></trkpt><trkpt lat="46.09707878579395" lon="12.345121921886818"><ele>443.66666666666663</ele><time>2026-04-19T15:03:32.594Z</time></trkpt><trkpt lat="46.096931827627174" lon="12.344920215923898"><ele>449.0</ele><time>2026-04-19T15:03:33.594Z</time></trkpt><trkpt lat="46.09676880905094" lon="12.344712498673816"><ele>453.0</ele><time>2026-04-19T15:03:34.594Z</time></trkpt><trkpt lat="46.09662066634939" lon="12.344526047112328"><ele>457.0</ele><time>2026-04-19T15:03:35.594Z</time></trkpt><trkpt lat="46.09647389080389" lon="12.344332479017984"><ele>461.0</ele><time>2026-04-19T15:03:36.594Z</time></trkpt><trkpt lat="46.096335187667755" lon="12.344141716868219"><ele>461.0</ele><time>2026-04-19T15:03:37.594Z</time></trkpt><trkpt lat="46.09619506692033" lon="12.343950023897664"><ele>461.0</ele><time>2026-04-19T15:03:38.594Z</time></trkpt><trkpt lat="46.09604117650598" lon="12.343745187396708"><ele>461.0</ele><time>2026-04-19T15:03:39.594Z</time></trkpt><trkpt lat="46.095882156060604" lon="12.343526275441262"><ele>466.0</ele><time>2026-04-19T15:03:40.594Z</time></trkpt><trkpt lat="46.095736545035614" lon="12.34333218088055"><ele>471.0</ele><time>2026-04-19T15:03:41.594Z</time></trkpt><trkpt lat="46.09560016882755" lon="12.343144414461305"><ele>476.0</ele><time>2026-04-19T15:03:42.594Z</time></trkpt><trkpt lat="46.09547283916068" lon="12.342965827280276"><ele>463.3333333333333</ele><time>2026-04-19T15:03:43.594Z</time></trkpt><trkpt lat="46.09534684928675" lon="12.342784214908994"><ele>450.66666666666663</ele><time>2026-04-19T15:03:44.594Z</time></trkpt><trkpt lat="46.09522310171457" lon="12.34259976524152"><ele>438.0</ele><time>2026-04-19T15:03:45.594Z</time></trkpt><trkpt lat="46.09509197105602" lon="12.34242558353272"><ele>438.0</ele><time>2026-04-19T15:03:46.594Z</time></trkpt><trkpt lat="46.09496546962412" lon="12.342256088886227"><ele>438.0</ele><time>2026-04-19T15:03:47.594Z</time></trkpt><trkpt lat="46.09483332665259" lon="12.342100061844382"><ele>438.0</ele><time>2026-04-19T15:03:48.594Z</time></trkpt><trkpt lat="46.09470604312408" lon="12.341947174126886"><ele>438.0</ele><time>2026-04-19T15:03:49.594Z</time></trkpt><trkpt lat="46.09455735557788" lon="12.341859653993115"><ele>438.0</ele><time>2026-04-19T15:03:50.594Z</time></trkpt><trkpt lat="46.0944080525837" lon="12.341770563590533"><ele>438.0</ele><time>2026-04-19T15:03:51.594Z</time></trkpt><trkpt lat="46.094251974031515" lon="12.34169139705854"><ele>438.0</ele><time>2026-04-19T15:03:52.594Z</time></trkpt><trkpt lat="46.09409960292421" lon="12.341589725917974"><ele>438.0</ele><time>2026-04-19T15:03:53.594Z</time></trkpt><trkpt lat="46.093924648959934" lon="12.341518670037294"><ele>438.0</ele><time>2026-04-19T15:03:54.594Z</time></trkpt><trkpt lat="46.09376580359866" lon="12.341426397450407"><ele>436.0</ele><time>2026-04-19T15:03:55.594Z</time></trkpt><trkpt lat="46.09361621567644" lon="12.341323970426945"><ele>434.0</ele><time>2026-04-19T15:03:56.594Z</time></trkpt><trkpt lat="46.09347914662427" lon="12.341218113933843"><ele>432.0</ele><time>2026-04-19T15:03:57.594Z</time></trkpt><trkpt lat="46.09335462405344" lon="12.341111193892129"><ele>437.75</ele><time>2026-04-19T15:03:58.594Z</time></trkpt><trkpt lat="46.09323630562337" lon="12.340998877422447"><ele>443.5</ele><time>2026-04-19T15:03:59.61Z</time></trkpt><trkpt lat="46.09312140462679" lon="12.34088700301436"><ele>449.25</ele><time>2026-04-19T15:04:00.606Z</time></trkpt><trkpt lat="46.09299086382807" lon="12.340800998949463"><ele>455.0</ele><time>2026-04-19T15:04:01.61Z</time></trkpt><trkpt lat="46.09285249965097" lon="12.340729794382865"><ele>455.0</ele><time>2026-04-19T15:04:02.594Z</time></trkpt><trkpt lat="46.092704403682674" lon="12.340726062547011"><ele>455.0</ele><time>2026-04-19T15:04:03.594Z</time></trkpt><trkpt lat="46.092550236686144" lon="12.340698775277742"><ele>455.0</ele><time>2026-04-19T15:04:04.594Z</time></trkpt><trkpt lat="46.09239580957095" lon="12.34066200031411"><ele>448.25</ele><time>2026-04-19T15:04:05.611Z</time></trkpt><trkpt lat="46.09225600635094" lon="12.340642977542732"><ele>441.5</ele><time>2026-04-19T15:04:06.606Z</time></trkpt><trkpt lat="46.09212747260945" lon="12.340629242903214"><ele>434.75</ele><time>2026-04-19T15:04:07.61Z</time></trkpt><trkpt lat="46.09201617814595" lon="12.340616404275382"><ele>428.0</ele><time>2026-04-19T15:04:08.594Z</time></trkpt><trkpt lat="46.09189078744373" lon="12.340737126261113"><ele>428.0</ele><time>2026-04-19T15:04:09.594Z</time></trkpt><trkpt lat="46.091791014809544" lon="12.340847262228332"><ele>428.0</ele><time>2026-04-19T15:04:10.594Z</time></trkpt><trkpt lat="46.091695746506694" lon="12.340973232963965"><ele>428.0</ele><time>2026-04-19T15:04:11.594Z</time></trkpt><trkpt lat="46.09159650107778" lon="12.341138970969782"><ele>428.0</ele><time>2026-04-19T15:04:12.594Z</time></trkpt><trkpt lat="46.09148679481755" lon="12.341330268367468"><ele>429.3333333333333</ele><time>2026-04-19T15:04:13.594Z</time></trkpt><trkpt lat="46.09136969716878" lon="12.341546521072678"><ele>430.66666666666663</ele><time>2026-04-19T15:04:14.594Z</time></trkpt><trkpt lat="46.09124352072309" lon="12.341727707199619"><ele>432.0</ele><time>2026-04-19T15:04:15.594Z</time></trkpt><trkpt lat="46.091137809758514" lon="12.341906265737268"><ele>432.0</ele><time>2026-04-19T15:04:16.594Z</time></trkpt><trkpt lat="46.0910409506684" lon="12.342069872530972"><ele>432.0</ele><time>2026-04-19T15:04:17.594Z</time></trkpt><trkpt lat="46.09094752931361" lon="12.342224806802632"><ele>432.0</ele><time>2026-04-19T15:04:18.608Z</time></trkpt><trkpt lat="46.09085676071496" lon="12.342351625469405"><ele>432.0</ele><time>2026-04-19T15:04:19.605Z</time></trkpt><trkpt lat="46.09075151371986" lon="12.342456231641894"><ele>432.66666666666663</ele><time>2026-04-19T15:04:20.606Z</time></trkpt><trkpt lat="46.090634967101366" lon="12.342540615620067"><ele>433.3333333333333</ele><time>2026-04-19T15:04:21.612Z</time></trkpt><trkpt lat="46.09037349470527" lon="12.342609660711458"><ele>434.0</ele><time>2026-04-19T15:04:23.594Z</time></trkpt><trkpt lat="46.09024768611176" lon="12.34275077284256"><ele>434.0</ele><time>2026-04-19T15:04:24.594Z</time></trkpt><trkpt lat="46.090067196969514" lon="12.342843550037067"><ele>434.0</ele><time>2026-04-19T15:04:25.594Z</time></trkpt><trkpt lat="46.089805131585706" lon="12.34297624191597"><ele>439.25</ele><time>2026-04-19T15:04:26.594Z</time></trkpt><trkpt lat="46.08962962774685" lon="12.343077035230499"><ele>444.5</ele><time>2026-04-19T15:04:27.594Z</time></trkpt><trkpt lat="46.08949560332937" lon="12.343140395269153"><ele>449.75</ele><time>2026-04-19T15:04:28.594Z</time></trkpt><trkpt lat="46.08940921662967" lon="12.343161442870455"><ele>455.0</ele><time>2026-04-19T15:04:29.594Z</time></trkpt><trkpt lat="46.08930650405419" lon="12.343150857639998"><ele>455.0</ele><time>2026-04-19T15:04:30.594Z</time></trkpt><trkpt lat="46.089206677185096" lon="12.343080593633774"><ele>455.0</ele><time>2026-04-19T15:04:31.594Z</time></trkpt><trkpt lat="46.08912999778917" lon="12.342952873126986"><ele>455.0</ele><time>2026-04-19T15:04:32.594Z</time></trkpt><trkpt lat="46.08907158471104" lon="12.342783960478872"><ele>455.0</ele><time>2026-04-19T15:04:33.594Z</time></trkpt><trkpt lat="46.08906627343966" lon="12.342555097882045"><ele>455.66666666666663</ele><time>2026-04-19T15:04:34.594Z</time></trkpt><trkpt lat="46.089084069738" lon="12.342314310046287"><ele>456.33333333333337</ele><time>2026-04-19T15:04:35.594Z</time></trkpt><trkpt lat="46.08909503322802" lon="12.342052440505466"><ele>457.0</ele><time>2026-04-19T15:04:36.594Z</time></trkpt><trkpt lat="46.089069602467106" lon="12.341758562542"><ele>470.0</ele><time>2026-04-19T15:04:37.594Z</time></trkpt><trkpt lat="46.0890296598049" lon="12.341459302032835"><ele>483.0</ele><time>2026-04-19T15:04:38.594Z</time></trkpt><trkpt lat="46.08897419739445" lon="12.34114961767615"><ele>496.0</ele><time>2026-04-19T15:04:39.594Z</time></trkpt><trkpt lat="46.08893130689063" lon="12.340874207562718"><ele>496.0</ele><time>2026-04-19T15:04:40.594Z</time></trkpt><trkpt lat="46.08889298386387" lon="12.340649844238836"><ele>496.0</ele><time>2026-04-19T15:04:41.594Z</time></trkpt><trkpt lat="46.088834637498394" lon="12.340445745462649"><ele>496.0</ele><time>2026-04-19T15:04:42.594Z</time></trkpt><trkpt lat="46.08875589929889" lon="12.3402582213882"><ele>489.33333333333337</ele><time>2026-04-19T15:04:43.594Z</time></trkpt><trkpt lat="46.08864404510841" lon="12.340074235269627"><ele>482.66666666666663</ele><time>2026-04-19T15:04:44.594Z</time></trkpt><trkpt lat="46.088502871440156" lon="12.33990178698882"><ele>476.0</ele><time>2026-04-19T15:04:45.594Z</time></trkpt><trkpt lat="46.0883493926651" lon="12.33971903455082"><ele>476.66666666666663</ele><time>2026-04-19T15:04:46.594Z</time></trkpt><trkpt lat="46.08819097861853" lon="12.339510368139099"><ele>477.33333333333337</ele><time>2026-04-19T15:04:47.594Z</time></trkpt><trkpt lat="46.08803005945001" lon="12.339267523075753"><ele>478.0</ele><time>2026-04-19T15:04:48.594Z</time></trkpt><trkpt lat="46.08786419600965" lon="12.3389849242257"><ele>470.0</ele><time>2026-04-19T15:04:49.594Z</time></trkpt><trkpt lat="46.087723698778014" lon="12.338706726579156"><ele>462.0</ele><time>2026-04-19T15:04:50.594Z</time></trkpt><trkpt lat="46.08759363816585" lon="12.338458250986735"><ele>462.0</ele><time>2026-04-19T15:04:51.594Z</time></trkpt><trkpt lat="46.087469883585385" lon="12.33823855802703"><ele>462.0</ele><time>2026-04-19T15:04:52.594Z</time></trkpt><trkpt lat="46.087353247987636" lon="12.338044492420556"><ele>462.0</ele><time>2026-04-19T15:04:53.594Z</time></trkpt><trkpt lat="46.08723493194482" lon="12.337875769960188"><ele>461.66666666666663</ele><time>2026-04-19T15:04:54.594Z</time></trkpt><trkpt lat="46.08710483975977" lon="12.337746615335254"><ele>461.3333333333333</ele><time>2026-04-19T15:04:55.594Z</time></trkpt><trkpt lat="46.08695983876524" lon="12.337637820503035"><ele>461.0</ele><time>2026-04-19T15:04:56.594Z</time></trkpt><trkpt lat="46.08682009441361" lon="12.33755907776245"><ele>461.0</ele><time>2026-04-19T15:04:57.594Z</time></trkpt><trkpt lat="46.08668465542844" lon="12.337511715590178"><ele>461.0</ele><time>2026-04-19T15:04:58.594Z</time></trkpt><trkpt lat="46.086545412106744" lon="12.337482645283957"><ele>461.0</ele><time>2026-04-19T15:04:59.594Z</time></trkpt><trkpt lat="46.08641916715249" lon="12.337470785623664"><ele>461.0</ele><time>2026-04-19T15:05:00.594Z</time></trkpt><trkpt lat="46.086304023322" lon="12.337461341396935"><ele>461.20000000000005</ele><time>2026-04-19T15:05:01.594Z</time></trkpt><trkpt lat="46.086195306749346" lon="12.337435992634255"><ele>461.40000000000003</ele><time>2026-04-19T15:05:02.594Z</time></trkpt><trkpt lat="46.086095891636674" lon="12.337404040574391"><ele>461.6</ele><time>2026-04-19T15:05:03.594Z</time></trkpt><trkpt lat="46.08599812236911" lon="12.337376010870392"><ele>461.8</ele><time>2026-04-19T15:05:04.594Z</time></trkpt><trkpt lat="46.08588263383708" lon="12.337379322750001"><ele>462.0</ele><time>2026-04-19T15:05:05.594Z</time></trkpt><trkpt lat="46.085762093339696" lon="12.337407521933459"><ele>467.25</ele><time>2026-04-19T15:05:06.594Z</time></trkpt><trkpt lat="46.085633233518095" lon="12.337462055542185"><ele>472.5</ele><time>2026-04-19T15:05:07.594Z</time></trkpt><trkpt lat="46.08550645546373" lon="12.337505319656332"><ele>477.75</ele><time>2026-04-19T15:05:08.594Z</time></trkpt><trkpt lat="46.08537161571544" lon="12.337510450694307"><ele>483.0</ele><time>2026-04-19T15:05:09.594Z</time></trkpt><trkpt lat="46.08523925990038" lon="12.337458765320136"><ele>483.0</ele><time>2026-04-19T15:05:10.594Z</time></trkpt><trkpt lat="46.085125253683074" lon="12.337364078092198"><ele>483.0</ele><time>2026-04-19T15:05:11.594Z</time></trkpt><trkpt lat="46.085017374686096" lon="12.33722014741153"><ele>483.0</ele><time>2026-04-19T15:05:12.594Z</time></trkpt><trkpt lat="46.084903719217884" lon="12.337037767692077"><ele>483.0</ele><time>2026-04-19T15:05:13.594Z</time></trkpt><trkpt lat="46.084782557498976" lon="12.336821589249986"><ele>484.0</ele><time>2026-04-19T15:05:14.595Z</time></trkpt><trkpt lat="46.08464967621309" lon="12.336606331486427"><ele>485.0</ele><time>2026-04-19T15:05:15.595Z</time></trkpt><trkpt lat="46.08454211365419" lon="12.336418294011208"><ele>486.0</ele><time>2026-04-19T15:05:16.595Z</time></trkpt><trkpt lat="46.08443470045977" lon="12.336266754837506"><ele>485.5</ele><time>2026-04-19T15:05:17.595Z</time></trkpt><trkpt lat="46.08432922763231" lon="12.336136131351237"><ele>485.0</ele><time>2026-04-19T15:05:18.595Z</time></trkpt><trkpt lat="46.08420707834214" lon="12.33601572150908"><ele>484.5</ele><time>2026-04-19T15:05:19.595Z</time></trkpt><trkpt lat="46.084067741711074" lon="12.335915110081142"><ele>484.0</ele><time>2026-04-19T15:05:20.595Z</time></trkpt><trkpt lat="46.08390842746935" lon="12.335841327040066"><ele>484.0</ele><time>2026-04-19T15:05:21.595Z</time></trkpt><trkpt lat="46.08372216775922" lon="12.335801555120316"><ele>484.0</ele><time>2026-04-19T15:05:22.595Z</time></trkpt><trkpt lat="46.08351810009971" lon="12.335775466785625"><ele>484.0</ele><time>2026-04-19T15:05:23.595Z</time></trkpt><trkpt lat="46.08329988709432" lon="12.335758102148255"><ele>486.0</ele><time>2026-04-19T15:05:24.595Z</time></trkpt><trkpt lat="46.08308238545756" lon="12.335745950206594"><ele>488.0</ele><time>2026-04-19T15:05:25.595Z</time></trkpt><trkpt lat="46.08288025171602" lon="12.33575705646103"><ele>490.0</ele><time>2026-04-19T15:05:26.595Z</time></trkpt><trkpt lat="46.08269636920978" lon="12.335786963085006"><ele>490.0</ele><time>2026-04-19T15:05:27.595Z</time></trkpt><trkpt lat="46.08252819075016" lon="12.335835807617878"><ele>490.0</ele><time>2026-04-19T15:05:28.595Z</time></trkpt><trkpt lat="46.08235983072491" lon="12.335889695305113"><ele>490.0</ele><time>2026-04-19T15:05:29.595Z</time></trkpt><trkpt lat="46.082187693671024" lon="12.335945476991622"><ele>492.0</ele><time>2026-04-19T15:05:30.595Z</time></trkpt><trkpt lat="46.082015172157334" lon="12.336006110847753"><ele>494.0</ele><time>2026-04-19T15:05:31.595Z</time></trkpt><trkpt lat="46.081842743200326" lon="12.336067456860487"><ele>496.0</ele><time>2026-04-19T15:05:32.595Z</time></trkpt><trkpt lat="46.081660318984234" lon="12.336129744782745"><ele>498.33333333333337</ele><time>2026-04-19T15:05:33.595Z</time></trkpt><trkpt lat="46.08146830829953" lon="12.336195123155521"><ele>500.66666666666663</ele><time>2026-04-19T15:05:34.595Z</time></trkpt><trkpt lat="46.08127809781449" lon="12.336265711934788"><ele>503.0</ele><time>2026-04-19T15:05:35.595Z</time></trkpt><trkpt lat="46.08109883002532" lon="12.336330669377896"><ele>499.66666666666663</ele><time>2026-04-19T15:05:36.595Z</time></trkpt><trkpt lat="46.08092495584585" lon="12.336393796525774"><ele>496.33333333333337</ele><time>2026-04-19T15:05:37.595Z</time></trkpt><trkpt lat="46.080764616765876" lon="12.336452252184465"><ele>493.0</ele><time>2026-04-19T15:05:38.595Z</time></trkpt><trkpt lat="46.080606776810384" lon="12.336519057788463"><ele>493.0</ele><time>2026-04-19T15:05:39.595Z</time></trkpt><trkpt lat="46.08045668203214" lon="12.33657887127922"><ele>493.0</ele><time>2026-04-19T15:05:40.595Z</time></trkpt><trkpt lat="46.08030418407607" lon="12.336614342745444"><ele>493.0</ele><time>2026-04-19T15:05:41.595Z</time></trkpt><trkpt lat="46.0801636889535" lon="12.336663812641834"><ele>493.0</ele><time>2026-04-19T15:05:42.595Z</time></trkpt><trkpt lat="46.080035714196455" lon="12.336693253604677"><ele>493.0</ele><time>2026-04-19T15:05:43.595Z</time></trkpt><trkpt lat="46.079909197558955" lon="12.336697451138752"><ele>493.0</ele><time>2026-04-19T15:05:44.595Z</time></trkpt><trkpt lat="46.079788749004116" lon="12.336672370060194"><ele>493.0</ele><time>2026-04-19T15:05:45.595Z</time></trkpt><trkpt lat="46.07968629822881" lon="12.336617149952096"><ele>490.0</ele><time>2026-04-19T15:05:46.595Z</time></trkpt><trkpt lat="46.07961395130769" lon="12.336535318482081"><ele>487.0</ele><time>2026-04-19T15:05:47.595Z</time></trkpt><trkpt lat="46.07954525873186" lon="12.336412603365716"><ele>484.0</ele><time>2026-04-19T15:05:48.595Z</time></trkpt><trkpt lat="46.079498336538144" lon="12.336257384341412"><ele>481.0</ele><time>2026-04-19T15:05:49.595Z</time></trkpt><trkpt lat="46.07944518028462" lon="12.336039104483373"><ele>480.0</ele><time>2026-04-19T15:05:50.595Z</time></trkpt><trkpt lat="46.07937095946409" lon="12.335769647732477"><ele>479.0</ele><time>2026-04-19T15:05:51.595Z</time></trkpt><trkpt lat="46.07931209979169" lon="12.335521690370365"><ele>478.0</ele><time>2026-04-19T15:05:52.595Z</time></trkpt><trkpt lat="46.07926296729874" lon="12.335291534517957"><ele>480.33333333333337</ele><time>2026-04-19T15:05:53.595Z</time></trkpt><trkpt lat="46.079208201229896" lon="12.335068686509157"><ele>482.66666666666663</ele><time>2026-04-19T15:05:54.595Z</time></trkpt><trkpt lat="46.079161259403406" lon="12.334866196566885"><ele>485.0</ele><time>2026-04-19T15:05:55.595Z</time></trkpt><trkpt lat="46.07910866500357" lon="12.334671607740608"><ele>482.75</ele><time>2026-04-19T15:05:56.595Z</time></trkpt><trkpt lat="46.07904331445637" lon="12.334483110338098"><ele>480.5</ele><time>2026-04-19T15:05:57.595Z</time></trkpt><trkpt lat="46.07897512196646" lon="12.334317133420102"><ele>478.25</ele><time>2026-04-19T15:05:58.595Z</time></trkpt><trkpt lat="46.078907108364966" lon="12.33415835185151"><ele>476.0</ele><time>2026-04-19T15:05:59.595Z</time></trkpt><trkpt lat="46.07883982563482" lon="12.334032440174942"><ele>476.0</ele><time>2026-04-19T15:06:00.595Z</time></trkpt><trkpt lat="46.07876559840714" lon="12.33393517000346"><ele>476.0</ele><time>2026-04-19T15:06:01.595Z</time></trkpt><trkpt lat="46.078677887471464" lon="12.333863936172351"><ele>476.0</ele><time>2026-04-19T15:06:02.595Z</time></trkpt><trkpt lat="46.0785824758734" lon="12.333828643184708"><ele>476.0</ele><time>2026-04-19T15:06:03.595Z</time></trkpt><trkpt lat="46.07847645419719" lon="12.333832264216621"><ele>476.0</ele><time>2026-04-19T15:06:04.595Z</time></trkpt><trkpt lat="46.078369504326815" lon="12.33386983896506"><ele>476.0</ele><time>2026-04-19T15:06:05.595Z</time></trkpt><trkpt lat="46.0782737062157" lon="12.333941531111865"><ele>476.0</ele><time>2026-04-19T15:06:06.595Z</time></trkpt><trkpt lat="46.078189521663155" lon="12.334052741525799"><ele>476.0</ele><time>2026-04-19T15:06:07.595Z</time></trkpt><trkpt lat="46.07812135666529" lon="12.334202009714271"><ele>476.0</ele><time>2026-04-19T15:06:08.595Z</time></trkpt><trkpt lat="46.078057294698105" lon="12.334345223776433"><ele>473.0</ele><time>2026-04-19T15:06:09.595Z</time></trkpt><trkpt lat="46.07798612318423" lon="12.334482458531998"><ele>470.0</ele><time>2026-04-19T15:06:10.595Z</time></trkpt><trkpt lat="46.07791803484031" lon="12.334608751850137"><ele>467.0</ele><time>2026-04-19T15:06:11.595Z</time></trkpt><trkpt lat="46.077861620110106" lon="12.33472954499896"><ele>464.0</ele><time>2026-04-19T15:06:12.595Z</time></trkpt><trkpt lat="46.07780145902331" lon="12.334830251811637"><ele>461.0</ele><time>2026-04-19T15:06:13.595Z</time></trkpt><trkpt lat="46.07777141819601" lon="12.334965684317146"><ele>461.0</ele><time>2026-04-19T15:06:14.595Z</time></trkpt><trkpt lat="46.07776676642066" lon="12.335115211101522"><ele>461.0</ele><time>2026-04-19T15:06:15.595Z</time></trkpt><trkpt lat="46.077803381801004" lon="12.335267532687244"><ele>461.0</ele><time>2026-04-19T15:06:16.595Z</time></trkpt><trkpt lat="46.077879496618266" lon="12.335421245303326"><ele>461.0</ele><time>2026-04-19T15:06:17.595Z</time></trkpt><trkpt lat="46.077981847062546" lon="12.335585470343492"><ele>461.25</ele><time>2026-04-19T15:06:18.595Z</time></trkpt><trkpt lat="46.0780768588181" lon="12.335717593320677"><ele>461.5</ele><time>2026-04-19T15:06:19.595Z</time></trkpt><trkpt lat="46.078153224444826" lon="12.335858626866022"><ele>461.75</ele><time>2026-04-19T15:06:20.595Z</time></trkpt><trkpt lat="46.078234902758744" lon="12.33597488531978"><ele>462.0</ele><time>2026-04-19T15:06:21.595Z</time></trkpt><trkpt lat="46.07829681410596" lon="12.33610242869935"><ele>462.40000000000003</ele><time>2026-04-19T15:06:22.595Z</time></trkpt><trkpt lat="46.07834461967169" lon="12.336232493564678"><ele>462.80000000000007</ele><time>2026-04-19T15:06:23.595Z</time></trkpt><trkpt lat="46.078359208938174" lon="12.336366572726668"><ele>463.2</ele><time>2026-04-19T15:06:24.595Z</time></trkpt><trkpt lat="46.078335598435196" lon="12.336517646425396"><ele>463.6</ele><time>2026-04-19T15:06:25.595Z</time></trkpt><trkpt lat="46.078284277450244" lon="12.336641592318198"><ele>464.0</ele><time>2026-04-19T15:06:26.595Z</time></trkpt><trkpt lat="46.078214710618596" lon="12.33674026712156"><ele>461.79999999999995</ele><time>2026-04-19T15:06:27.595Z</time></trkpt><trkpt lat="46.0781284376353" lon="12.336783436901861"><ele>459.59999999999997</ele><time>2026-04-19T15:06:28.595Z</time></trkpt><trkpt lat="46.078024414738394" lon="12.336794649084657"><ele>457.4</ele><time>2026-04-19T15:06:29.595Z</time></trkpt><trkpt lat="46.07792076400646" lon="12.336769069518079"><ele>455.2</ele><time>2026-04-19T15:06:30.595Z</time></trkpt><trkpt lat="46.077814330243875" lon="12.33669938743461"><ele>453.0</ele><time>2026-04-19T15:06:31.595Z</time></trkpt><trkpt lat="46.077691062143195" lon="12.336602914044"><ele>453.0</ele><time>2026-04-19T15:06:32.595Z</time></trkpt><trkpt lat="46.07757229521192" lon="12.336516521281425"><ele>453.0</ele><time>2026-04-19T15:06:33.595Z</time></trkpt><trkpt lat="46.0774642428519" lon="12.336444909278047"><ele>453.0</ele><time>2026-04-19T15:06:34.595Z</time></trkpt><trkpt lat="46.07735728185307" lon="12.336377041686841"><ele>453.0</ele><time>2026-04-19T15:06:35.595Z</time></trkpt><trkpt lat="46.07725769511167" lon="12.336313319205546"><ele>451.2</ele><time>2026-04-19T15:06:36.595Z</time></trkpt><trkpt lat="46.07717601925642" lon="12.336245165012347"><ele>449.4</ele><time>2026-04-19T15:06:37.595Z</time></trkpt><trkpt lat="46.07708085695838" lon="12.33619153671717"><ele>447.59999999999997</ele><time>2026-04-19T15:06:38.595Z</time></trkpt><trkpt lat="46.077006959972" lon="12.336090068501498"><ele>445.79999999999995</ele><time>2026-04-19T15:06:39.595Z</time></trkpt><trkpt lat="46.0769526628057" lon="12.335945670983778"><ele>444.0</ele><time>2026-04-19T15:06:40.595Z</time></trkpt><trkpt lat="46.07692590996595" lon="12.335781485715753"><ele>444.0</ele><time>2026-04-19T15:06:41.595Z</time></trkpt><trkpt lat="46.07692400071006" lon="12.33559064743699"><ele>444.0</ele><time>2026-04-19T15:06:42.595Z</time></trkpt><trkpt lat="46.076933721334605" lon="12.335382128149432"><ele>444.0</ele><time>2026-04-19T15:06:43.595Z</time></trkpt><trkpt lat="46.07694144620055" lon="12.335196995560242"><ele>444.0</ele><time>2026-04-19T15:06:44.595Z</time></trkpt><trkpt lat="46.0769510471233" lon="12.33501664466474"><ele>443.75</ele><time>2026-04-19T15:06:45.595Z</time></trkpt><trkpt lat="46.07695605880826" lon="12.334839888827904"><ele>443.5</ele><time>2026-04-19T15:06:46.595Z</time></trkpt><trkpt lat="46.076945347174274" lon="12.334669773457486"><ele>443.25</ele><time>2026-04-19T15:06:47.595Z</time></trkpt><trkpt lat="46.0769097829782" lon="12.334510862938938"><ele>443.0</ele><time>2026-04-19T15:06:48.595Z</time></trkpt><trkpt lat="46.07687270761216" lon="12.334357563696122"><ele>442.4</ele><time>2026-04-19T15:06:49.595Z</time></trkpt><trkpt lat="46.0768356023479" lon="12.334207879492208"><ele>441.79999999999995</ele><time>2026-04-19T15:06:50.595Z</time></trkpt><trkpt lat="46.076791933156514" lon="12.334090482015283"><ele>441.2</ele><time>2026-04-19T15:06:51.595Z</time></trkpt><trkpt lat="46.07675013381949" lon="12.333976145190553"><ele>440.6</ele><time>2026-04-19T15:06:52.595Z</time></trkpt><trkpt lat="46.07668105824651" lon="12.33388973669499"><ele>440.0</ele><time>2026-04-19T15:06:53.595Z</time></trkpt><trkpt lat="46.07660385386315" lon="12.333838269927968"><ele>436.5</ele><time>2026-04-19T15:06:54.595Z</time></trkpt><trkpt lat="46.076510903939976" lon="12.333809627963383"><ele>433.0</ele><time>2026-04-19T15:06:55.595Z</time></trkpt><trkpt lat="46.076411557387054" lon="12.333858584060392"><ele>429.5</ele><time>2026-04-19T15:06:56.595Z</time></trkpt><trkpt lat="46.07631919021448" lon="12.334004028785579"><ele>426.0</ele><time>2026-04-19T15:06:57.595Z</time></trkpt><trkpt lat="46.076227765481285" lon="12.33416899049812"><ele>426.0</ele><time>2026-04-19T15:06:58.595Z</time></trkpt><trkpt lat="46.07611357658724" lon="12.334374367799198"><ele>426.0</ele><time>2026-04-19T15:06:59.595Z</time></trkpt><trkpt lat="46.07596911817889" lon="12.334622126914601"><ele>426.0</ele><time>2026-04-19T15:07:00.595Z</time></trkpt><trkpt lat="46.07583775589531" lon="12.334887270840829"><ele>417.5</ele><time>2026-04-19T15:07:01.595Z</time></trkpt><trkpt lat="46.07570560200536" lon="12.33516050255447"><ele>409.0</ele><time>2026-04-19T15:07:02.595Z</time></trkpt><trkpt lat="46.07558262035815" lon="12.335423921849259"><ele>412.33333333333337</ele><time>2026-04-19T15:07:03.595Z</time></trkpt><trkpt lat="46.07546516124102" lon="12.335663337055147"><ele>415.66666666666663</ele><time>2026-04-19T15:07:04.595Z</time></trkpt><trkpt lat="46.07535243134323" lon="12.335899754340273"><ele>419.0</ele><time>2026-04-19T15:07:05.595Z</time></trkpt><trkpt lat="46.07523919289517" lon="12.336117636179573"><ele>419.0</ele><time>2026-04-19T15:07:06.595Z</time></trkpt><trkpt lat="46.075131717872054" lon="12.336327161823405"><ele>419.0</ele><time>2026-04-19T15:07:07.595Z</time></trkpt><trkpt lat="46.07502907307373" lon="12.336531336416353"><ele>419.0</ele><time>2026-04-19T15:07:08.595Z</time></trkpt><trkpt lat="46.07493169723374" lon="12.336741745006796"><ele>415.3333333333333</ele><time>2026-04-19T15:07:09.595Z</time></trkpt><trkpt lat="46.07485084389045" lon="12.336956387804076"><ele>411.66666666666663</ele><time>2026-04-19T15:07:10.595Z</time></trkpt><trkpt lat="46.074801475685284" lon="12.337170367243568"><ele>408.0</ele><time>2026-04-19T15:07:11.595Z</time></trkpt><trkpt lat="46.07476540094251" lon="12.337361232329096"><ele>408.0</ele><time>2026-04-19T15:07:12.595Z</time></trkpt><trkpt lat="46.074744829768704" lon="12.33753705592394"><ele>408.0</ele><time>2026-04-19T15:07:13.595Z</time></trkpt><trkpt lat="46.07473429953738" lon="12.337690702075662"><ele>408.0</ele><time>2026-04-19T15:07:14.595Z</time></trkpt><trkpt lat="46.074707058030455" lon="12.337818873167176"><ele>408.0</ele><time>2026-04-19T15:07:15.595Z</time></trkpt><trkpt lat="46.07465277455939" lon="12.337920999054173"><ele>408.0</ele><time>2026-04-19T15:07:16.595Z</time></trkpt><trkpt lat="46.07450499136236" lon="12.337973047262265"><ele>410.0</ele><time>2026-04-19T15:07:17.595Z</time></trkpt><trkpt lat="46.07435865345773" lon="12.338085987152322"><ele>412.0</ele><time>2026-04-19T15:07:18.595Z</time></trkpt><trkpt lat="46.07423479538999" lon="12.338166692811788"><ele>414.0</ele><time>2026-04-19T15:07:19.595Z</time></trkpt><trkpt lat="46.07413243053187" lon="12.338317186918275"><ele>416.0</ele><time>2026-04-19T15:07:20.595Z</time></trkpt><trkpt lat="46.07403391643779" lon="12.338475133325908"><ele>411.3333333333333</ele><time>2026-04-19T15:07:21.595Z</time></trkpt><trkpt lat="46.07395588753076" lon="12.338654807177644"><ele>406.66666666666663</ele><time>2026-04-19T15:07:22.595Z</time></trkpt><trkpt lat="46.073888007153954" lon="12.33888982370242"><ele>402.0</ele><time>2026-04-19T15:07:23.595Z</time></trkpt><trkpt lat="46.073790652134335" lon="12.33916384684509"><ele>402.0</ele><time>2026-04-19T15:07:24.595Z</time></trkpt><trkpt lat="46.073696258033706" lon="12.339366523829849"><ele>402.0</ele><time>2026-04-19T15:07:25.595Z</time></trkpt><trkpt lat="46.07360805511821" lon="12.339558051647666"><ele>402.0</ele><time>2026-04-19T15:07:26.595Z</time></trkpt><trkpt lat="46.07353391928509" lon="12.339775033469726"><ele>403.0</ele><time>2026-04-19T15:07:27.595Z</time></trkpt><trkpt lat="46.073479967207966" lon="12.339982569491863"><ele>404.0</ele><time>2026-04-19T15:07:28.595Z</time></trkpt><trkpt lat="46.07343060671067" lon="12.340183076834604"><ele>405.0</ele><time>2026-04-19T15:07:29.595Z</time></trkpt><trkpt lat="46.07339418387741" lon="12.340377154199413"><ele>406.0</ele><time>2026-04-19T15:07:30.595Z</time></trkpt><trkpt lat="46.07336695950081" lon="12.340558562465496"><ele>407.25</ele><time>2026-04-19T15:07:31.595Z</time></trkpt><trkpt lat="46.073307569908614" lon="12.340711413560216"><ele>408.5</ele><time>2026-04-19T15:07:32.595Z</time></trkpt><trkpt lat="46.07320587405913" lon="12.340809941084611"><ele>409.75</ele><time>2026-04-19T15:07:33.595Z</time></trkpt><trkpt lat="46.07307227745257" lon="12.340900799462649"><ele>411.0</ele><time>2026-04-19T15:07:34.595Z</time></trkpt><trkpt lat="46.072909480257934" lon="12.341017045839012"><ele>411.66666666666663</ele><time>2026-04-19T15:07:35.595Z</time></trkpt><trkpt lat="46.07275567947275" lon="12.341193018456066"><ele>412.3333333333333</ele><time>2026-04-19T15:07:36.595Z</time></trkpt><trkpt lat="46.07263099754887" lon="12.341334753224515"><ele>413.0</ele><time>2026-04-19T15:07:37.595Z</time></trkpt><trkpt lat="46.07251399894989" lon="12.341442620646285"><ele>412.0</ele><time>2026-04-19T15:07:38.595Z</time></trkpt><trkpt lat="46.07237720742482" lon="12.341477586511111"><ele>411.0</ele><time>2026-04-19T15:07:39.595Z</time></trkpt><trkpt lat="46.072228444182784" lon="12.3415082645106"><ele>410.0</ele><time>2026-04-19T15:07:40.595Z</time></trkpt><trkpt lat="46.07209338447932" lon="12.341550659012022"><ele>409.0</ele><time>2026-04-19T15:07:41.595Z</time></trkpt><trkpt lat="46.07197743654076" lon="12.341553056098821"><ele>409.0</ele><time>2026-04-19T15:07:42.595Z</time></trkpt><trkpt lat="46.071867718708205" lon="12.341512902077872"><ele>409.0</ele><time>2026-04-19T15:07:43.595Z</time></trkpt><trkpt lat="46.07175171640469" lon="12.341427845687566"><ele>409.0</ele><time>2026-04-19T15:07:44.595Z</time></trkpt><trkpt lat="46.071620678728024" lon="12.341316474041385"><ele>409.0</ele><time>2026-04-19T15:07:45.595Z</time></trkpt><trkpt lat="46.071467391861404" lon="12.341193465491907"><ele>405.75</ele><time>2026-04-19T15:07:46.595Z</time></trkpt><trkpt lat="46.071340827730126" lon="12.341083521841822"><ele>402.5</ele><time>2026-04-19T15:07:47.595Z</time></trkpt><trkpt lat="46.071209721778416" lon="12.340990213873525"><ele>399.25</ele><time>2026-04-19T15:07:48.595Z</time></trkpt><trkpt lat="46.071076118453156" lon="12.340946574882333"><ele>396.0</ele><time>2026-04-19T15:07:49.595Z</time></trkpt><trkpt lat="46.070930777673205" lon="12.340910439483917"><ele>396.0</ele><time>2026-04-19T15:07:50.595Z</time></trkpt><trkpt lat="46.07079269893914" lon="12.340887550263034"><ele>396.0</ele><time>2026-04-19T15:07:51.595Z</time></trkpt><trkpt lat="46.070676985356" lon="12.340825661603361"><ele>396.0</ele><time>2026-04-19T15:07:52.595Z</time></trkpt><trkpt lat="46.070556320713784" lon="12.340730668443234"><ele>396.0</ele><time>2026-04-19T15:07:53.595Z</time></trkpt><trkpt lat="46.07045022247292" lon="12.340581246729599"><ele>396.33333333333337</ele><time>2026-04-19T15:07:54.595Z</time></trkpt><trkpt lat="46.07034389877025" lon="12.340378826598618"><ele>396.6666666666667</ele><time>2026-04-19T15:07:55.595Z</time></trkpt><trkpt lat="46.07022406250647" lon="12.3401671678128"><ele>397.0</ele><time>2026-04-19T15:07:56.595Z</time></trkpt><trkpt lat="46.07011472570671" lon="12.340005003805038"><ele>397.0</ele><time>2026-04-19T15:07:57.595Z</time></trkpt><trkpt lat="46.0700211308731" lon="12.339827329929111"><ele>397.0</ele><time>2026-04-19T15:07:58.595Z</time></trkpt><trkpt lat="46.06995873899912" lon="12.339646347340164"><ele>397.0</ele><time>2026-04-19T15:07:59.595Z</time></trkpt><trkpt lat="46.06990218564438" lon="12.339444382459336"><ele>397.0</ele><time>2026-04-19T15:08:00.595Z</time></trkpt><trkpt lat="46.06983620073519" lon="12.339244370233047"><ele>395.25</ele><time>2026-04-19T15:08:01.595Z</time></trkpt><trkpt lat="46.06976461330779" lon="12.339068407191105"><ele>393.5</ele><time>2026-04-19T15:08:02.595Z</time></trkpt><trkpt lat="46.06968881970477" lon="12.338897814456379"><ele>391.75</ele><time>2026-04-19T15:08:03.595Z</time></trkpt><trkpt lat="46.06958098221455" lon="12.338732554133788"><ele>390.0</ele><time>2026-04-19T15:08:04.595Z</time></trkpt><trkpt lat="46.06944913634568" lon="12.338576568037256"><ele>390.0</ele><time>2026-04-19T15:08:05.595Z</time></trkpt><trkpt lat="46.06930099033581" lon="12.338429194255454"><ele>390.0</ele><time>2026-04-19T15:08:06.595Z</time></trkpt><trkpt lat="46.06916895894083" lon="12.338244957871275"><ele>390.0</ele><time>2026-04-19T15:08:07.595Z</time></trkpt><trkpt lat="46.06905787194118" lon="12.338021642335814"><ele>390.66666666666663</ele><time>2026-04-19T15:08:08.595Z</time></trkpt><trkpt lat="46.06895223927405" lon="12.337815390771619"><ele>391.3333333333333</ele><time>2026-04-19T15:08:09.595Z</time></trkpt><trkpt lat="46.068849121517935" lon="12.3376258890833"><ele>392.0</ele><time>2026-04-19T15:08:10.595Z</time></trkpt><trkpt lat="46.06873084252641" lon="12.337458294310096"><ele>392.0</ele><time>2026-04-19T15:08:11.595Z</time></trkpt><trkpt lat="46.068606163761395" lon="12.33730731569665"><ele>392.0</ele><time>2026-04-19T15:08:12.595Z</time></trkpt><trkpt lat="46.068483857453586" lon="12.337176274646872"><ele>392.0</ele><time>2026-04-19T15:08:13.595Z</time></trkpt><trkpt lat="46.06836021976016" lon="12.337056496411718"><ele>385.66666666666663</ele><time>2026-04-19T15:08:14.595Z</time></trkpt><trkpt lat="46.068229149702645" lon="12.336946215988421"><ele>379.3333333333333</ele><time>2026-04-19T15:08:15.595Z</time></trkpt><trkpt lat="46.06806978992322" lon="12.336856562703806"><ele>373.0</ele><time>2026-04-19T15:08:16.595Z</time></trkpt><trkpt lat="46.06788576159579" lon="12.3367748104805"><ele>373.0</ele><time>2026-04-19T15:08:17.595Z</time></trkpt><trkpt lat="46.06768361814721" lon="12.336694532744085"><ele>373.0</ele><time>2026-04-19T15:08:18.595Z</time></trkpt><trkpt lat="46.067483917739686" lon="12.33662165795765"><ele>373.0</ele><time>2026-04-19T15:08:19.595Z</time></trkpt><trkpt lat="46.067293013982" lon="12.336548335094902"><ele>371.0</ele><time>2026-04-19T15:08:20.595Z</time></trkpt><trkpt lat="46.06711552320777" lon="12.336461798727097"><ele>369.0</ele><time>2026-04-19T15:08:21.595Z</time></trkpt><trkpt lat="46.066941421215056" lon="12.33634765989288"><ele>367.0</ele><time>2026-04-19T15:08:22.595Z</time></trkpt><trkpt lat="46.06676775274381" lon="12.336226346512492"><ele>372.66666666666663</ele><time>2026-04-19T15:08:23.595Z</time></trkpt><trkpt lat="46.06660823890289" lon="12.336087741255652"><ele>378.3333333333333</ele><time>2026-04-19T15:08:24.595Z</time></trkpt><trkpt lat="46.06645184783509" lon="12.335971777709599"><ele>384.0</ele><time>2026-04-19T15:08:25.595Z</time></trkpt><trkpt lat="46.06630324377242" lon="12.335844463750073"><ele>384.0</ele><time>2026-04-19T15:08:26.595Z</time></trkpt><trkpt lat="46.066165070198736" lon="12.33568637167689"><ele>384.0</ele><time>2026-04-19T15:08:27.595Z</time></trkpt><trkpt lat="46.066026691405185" lon="12.33549977773697"><ele>384.0</ele><time>2026-04-19T15:08:28.595Z</time></trkpt><trkpt lat="46.065885645886944" lon="12.335291648269909"><ele>380.6666666666667</ele><time>2026-04-19T15:08:29.595Z</time></trkpt><trkpt lat="46.06574139684055" lon="12.335048515672895"><ele>377.33333333333337</ele><time>2026-04-19T15:08:30.595Z</time></trkpt><trkpt lat="46.06560406521845" lon="12.334821109935858"><ele>374.0</ele><time>2026-04-19T15:08:31.595Z</time></trkpt><trkpt lat="46.0654735724342" lon="12.334605102841511"><ele>374.0</ele><time>2026-04-19T15:08:32.595Z</time></trkpt><trkpt lat="46.065350074405444" lon="12.334399584793568"><ele>374.0</ele><time>2026-04-19T15:08:33.595Z</time></trkpt><trkpt lat="46.06522638136288" lon="12.334196617812042"><ele>374.0</ele><time>2026-04-19T15:08:34.595Z</time></trkpt><trkpt lat="46.06510438897208" lon="12.333980989414805"><ele>375.33333333333337</ele><time>2026-04-19T15:08:35.595Z</time></trkpt><trkpt lat="46.065003737192214" lon="12.333748971588303"><ele>376.6666666666667</ele><time>2026-04-19T15:08:36.595Z</time></trkpt><trkpt lat="46.06491537402389" lon="12.333518136995998"><ele>378.0</ele><time>2026-04-19T15:08:37.595Z</time></trkpt><trkpt lat="46.06481693549957" lon="12.33329511410454"><ele>378.0</ele><time>2026-04-19T15:08:38.595Z</time></trkpt><trkpt lat="46.064697477529" lon="12.333079833697733"><ele>378.0</ele><time>2026-04-19T15:08:39.595Z</time></trkpt><trkpt lat="46.06454812175367" lon="12.332872639958312"><ele>378.0</ele><time>2026-04-19T15:08:40.595Z</time></trkpt><trkpt lat="46.06437855916188" lon="12.332661522919013"><ele>371.5</ele><time>2026-04-19T15:08:41.595Z</time></trkpt><trkpt lat="46.06419231474106" lon="12.332428147900847"><ele>365.0</ele><time>2026-04-19T15:08:42.595Z</time></trkpt><trkpt lat="46.06400565915671" lon="12.33217537283745"><ele>365.0</ele><time>2026-04-19T15:08:43.595Z</time></trkpt><trkpt lat="46.06383301568992" lon="12.331927658829725"><ele>365.0</ele><time>2026-04-19T15:08:44.595Z</time></trkpt><trkpt lat="46.06367211824926" lon="12.331680197647863"><ele>365.0</ele><time>2026-04-19T15:08:45.595Z</time></trkpt><trkpt lat="46.06351922018916" lon="12.331446477162537"><ele>365.0</ele><time>2026-04-19T15:08:46.595Z</time></trkpt><trkpt lat="46.06336890949956" lon="12.331223104925856"><ele>365.0</ele><time>2026-04-19T15:08:47.595Z</time></trkpt><trkpt lat="46.06322275128907" lon="12.331008840084635"><ele>366.6666666666667</ele><time>2026-04-19T15:08:48.595Z</time></trkpt><trkpt lat="46.063084343340975" lon="12.330807496875655"><ele>368.3333333333333</ele><time>2026-04-19T15:08:49.595Z</time></trkpt><trkpt lat="46.06294439857066" lon="12.33061054701414"><ele>370.0</ele><time>2026-04-19T15:08:50.595Z</time></trkpt><trkpt lat="46.062808265781236" lon="12.330412045141975"><ele>370.66666666666663</ele><time>2026-04-19T15:08:51.595Z</time></trkpt><trkpt lat="46.06265703866971" lon="12.330213327705593"><ele>371.3333333333333</ele><time>2026-04-19T15:08:52.595Z</time></trkpt><trkpt lat="46.062514372798574" lon="12.330004842587845"><ele>372.0</ele><time>2026-04-19T15:08:53.595Z</time></trkpt><trkpt lat="46.062376315163206" lon="12.329784091959059"><ele>361.6666666666667</ele><time>2026-04-19T15:08:54.595Z</time></trkpt><trkpt lat="46.062243808483814" lon="12.329554241919785"><ele>351.33333333333337</ele><time>2026-04-19T15:08:55.595Z</time></trkpt><trkpt lat="46.06211167053986" lon="12.329324509582438"><ele>341.0</ele><time>2026-04-19T15:08:56.595Z</time></trkpt><trkpt lat="46.06197818605912" lon="12.329112747173248"><ele>341.0</ele><time>2026-04-19T15:08:57.595Z</time></trkpt><trkpt lat="46.06183714482486" lon="12.328904304790862"><ele>341.0</ele><time>2026-04-19T15:08:58.595Z</time></trkpt><trkpt lat="46.061671919643" lon="12.328699675086218"><ele>341.0</ele><time>2026-04-19T15:08:59.595Z</time></trkpt><trkpt lat="46.06149987159653" lon="12.328517531958234"><ele>343.33333333333337</ele><time>2026-04-19T15:09:00.595Z</time></trkpt><trkpt lat="46.061327321819626" lon="12.32835768990538"><ele>345.6666666666667</ele><time>2026-04-19T15:09:01.595Z</time></trkpt><trkpt lat="46.06115626131599" lon="12.3282042852712"><ele>348.0</ele><time>2026-04-19T15:09:02.595Z</time></trkpt><trkpt lat="46.060989810899336" lon="12.32804357466324"><ele>348.3333333333333</ele><time>2026-04-19T15:09:03.595Z</time></trkpt><trkpt lat="46.060839338829176" lon="12.327864844943768"><ele>348.66666666666663</ele><time>2026-04-19T15:09:04.595Z</time></trkpt><trkpt lat="46.06070590291988" lon="12.327676631651983"><ele>349.0</ele><time>2026-04-19T15:09:05.595Z</time></trkpt><trkpt lat="46.06058351710865" lon="12.327483705029831"><ele>349.0</ele><time>2026-04-19T15:09:06.595Z</time></trkpt><trkpt lat="46.060473627331994" lon="12.327279733835928"><ele>349.0</ele><time>2026-04-19T15:09:07.595Z</time></trkpt><trkpt lat="46.06036469686047" lon="12.327089940104665"><ele>349.0</ele><time>2026-04-19T15:09:08.595Z</time></trkpt><trkpt lat="46.06024573294196" lon="12.326915692828853"><ele>351.0</ele><time>2026-04-19T15:09:09.595Z</time></trkpt><trkpt lat="46.060116420152234" lon="12.326773403093329"><ele>353.0</ele><time>2026-04-19T15:09:10.595Z</time></trkpt><trkpt lat="46.05998151716043" lon="12.32665269607777"><ele>355.0</ele><time>2026-04-19T15:09:11.595Z</time></trkpt><trkpt lat="46.05984766261622" lon="12.326543477378026"><ele>355.0</ele><time>2026-04-19T15:09:12.595Z</time></trkpt><trkpt lat="46.059723458343676" lon="12.3264272641723"><ele>355.0</ele><time>2026-04-19T15:09:13.595Z</time></trkpt><trkpt lat="46.05961515319078" lon="12.326299740561454"><ele>355.0</ele><time>2026-04-19T15:09:14.595Z</time></trkpt><trkpt lat="46.05950988850527" lon="12.326165174093026"><ele>355.0</ele><time>2026-04-19T15:09:15.595Z</time></trkpt><trkpt lat="46.05940393887687" lon="12.326024514870383"><ele>352.3333333333333</ele><time>2026-04-19T15:09:16.595Z</time></trkpt><trkpt lat="46.05927632249027" lon="12.325867449451358"><ele>349.6666666666667</ele><time>2026-04-19T15:09:17.595Z</time></trkpt><trkpt lat="46.0591136136472" lon="12.325721310764939"><ele>347.0</ele><time>2026-04-19T15:09:18.595Z</time></trkpt><trkpt lat="46.058931163011955" lon="12.325569092510555"><ele>334.6666666666667</ele><time>2026-04-19T15:09:19.595Z</time></trkpt><trkpt lat="46.05875795558356" lon="12.325401600523026"><ele>322.3333333333333</ele><time>2026-04-19T15:09:20.595Z</time></trkpt><trkpt lat="46.05859501325444" lon="12.325267366730605"><ele>310.0</ele><time>2026-04-19T15:09:21.595Z</time></trkpt><trkpt lat="46.05843225125756" lon="12.32515538796254"><ele>310.0</ele><time>2026-04-19T15:09:22.595Z</time></trkpt><trkpt lat="46.05829078115858" lon="12.325014717298998"><ele>310.0</ele><time>2026-04-19T15:09:23.595Z</time></trkpt><trkpt lat="46.05814748283659" lon="12.324895183480276"><ele>310.0</ele><time>2026-04-19T15:09:24.595Z</time></trkpt><trkpt lat="46.05801316688104" lon="12.324763558424168"><ele>310.3333333333333</ele><time>2026-04-19T15:09:25.595Z</time></trkpt><trkpt lat="46.05788476020476" lon="12.32460815543711"><ele>310.6666666666667</ele><time>2026-04-19T15:09:26.596Z</time></trkpt><trkpt lat="46.05776684407803" lon="12.324430666995147"><ele>311.0</ele><time>2026-04-19T15:09:27.596Z</time></trkpt><trkpt lat="46.05763515388135" lon="12.324254865578856"><ele>311.0</ele><time>2026-04-19T15:09:28.596Z</time></trkpt><trkpt lat="46.05748915711025" lon="12.32410598496851"><ele>311.0</ele><time>2026-04-19T15:09:29.596Z</time></trkpt><trkpt lat="46.05735337229096" lon="12.323974149795983"><ele>311.0</ele><time>2026-04-19T15:09:30.596Z</time></trkpt><trkpt lat="46.05722182662834" lon="12.323843413831957"><ele>313.5</ele><time>2026-04-19T15:09:31.596Z</time></trkpt><trkpt lat="46.057098634860466" lon="12.323735022869503"><ele>316.0</ele><time>2026-04-19T15:09:32.596Z</time></trkpt><trkpt lat="46.05701299233016" lon="12.32361239805176"><ele>318.5</ele><time>2026-04-19T15:09:33.596Z</time></trkpt><trkpt lat="46.05691152890609" lon="12.32349485642324"><ele>321.0</ele><time>2026-04-19T15:09:34.596Z</time></trkpt><trkpt lat="46.05684491148924" lon="12.323352040029572"><ele>321.0</ele><time>2026-04-19T15:09:35.596Z</time></trkpt><trkpt lat="46.056804965459094" lon="12.323182355227566"><ele>321.0</ele><time>2026-04-19T15:09:36.596Z</time></trkpt><trkpt lat="46.05678066965776" lon="12.323014071728279"><ele>321.0</ele><time>2026-04-19T15:09:37.596Z</time></trkpt><trkpt lat="46.05676722794294" lon="12.322829769352403"><ele>321.0</ele><time>2026-04-19T15:09:38.596Z</time></trkpt><trkpt lat="46.056738147485135" lon="12.322671569879752"><ele>322.5</ele><time>2026-04-19T15:09:39.596Z</time></trkpt><trkpt lat="46.056677606644406" lon="12.322539560399173"><ele>324.0</ele><time>2026-04-19T15:09:40.596Z</time></trkpt><trkpt lat="46.0566057123052" lon="12.322419781189188"><ele>325.5</ele><time>2026-04-19T15:09:41.596Z</time></trkpt><trkpt lat="46.05650131529214" lon="12.322300598615666"><ele>327.0</ele><time>2026-04-19T15:09:42.596Z</time></trkpt><trkpt lat="46.056378815004514" lon="12.322172505773972"><ele>317.3333333333333</ele><time>2026-04-19T15:09:43.596Z</time></trkpt><trkpt lat="46.05624413062203" lon="12.32200011750889"><ele>307.66666666666663</ele><time>2026-04-19T15:09:44.596Z</time></trkpt><trkpt lat="46.056103197075686" lon="12.321820044383362"><ele>298.0</ele><time>2026-04-19T15:09:45.596Z</time></trkpt><trkpt lat="46.055975623471255" lon="12.321661650137072"><ele>298.0</ele><time>2026-04-19T15:09:46.596Z</time></trkpt><trkpt lat="46.05585271954372" lon="12.321526462525249"><ele>298.0</ele><time>2026-04-19T15:09:47.596Z</time></trkpt><trkpt lat="46.05574323502303" lon="12.321413176741553"><ele>298.0</ele><time>2026-04-19T15:09:48.596Z</time></trkpt><trkpt lat="46.05563806066269" lon="12.321309316721077"><ele>298.0</ele><time>2026-04-19T15:09:49.596Z</time></trkpt><trkpt lat="46.05553416054893" lon="12.321205885952175"><ele>297.0</ele><time>2026-04-19T15:09:50.596Z</time></trkpt><trkpt lat="46.055411438790564" lon="12.321119085120129"><ele>296.0</ele><time>2026-04-19T15:09:51.596Z</time></trkpt><trkpt lat="46.05530231990515" lon="12.321062378458597"><ele>295.0</ele><time>2026-04-19T15:09:52.596Z</time></trkpt><trkpt lat="46.05519441928587" lon="12.321018398273369"><ele>294.0</ele><time>2026-04-19T15:09:53.596Z</time></trkpt><trkpt lat="46.05508174843164" lon="12.320973684869672"><ele>294.0</ele><time>2026-04-19T15:09:54.596Z</time></trkpt><trkpt lat="46.05496434218416" lon="12.320891179431575"><ele>294.0</ele><time>2026-04-19T15:09:55.596Z</time></trkpt><trkpt lat="46.05486174930661" lon="12.320784468823542"><ele>294.0</ele><time>2026-04-19T15:09:56.596Z</time></trkpt><trkpt lat="46.0547661562119" lon="12.320664577213895"><ele>294.0</ele><time>2026-04-19T15:09:57.596Z</time></trkpt><trkpt lat="46.05467116030597" lon="12.320553586450625"><ele>296.5</ele><time>2026-04-19T15:09:58.596Z</time></trkpt><trkpt lat="46.05457728205087" lon="12.320425947329127"><ele>299.0</ele><time>2026-04-19T15:09:59.596Z</time></trkpt><trkpt lat="46.05448086129649" lon="12.320287646937004"><ele>301.5</ele><time>2026-04-19T15:10:00.596Z</time></trkpt><trkpt lat="46.05439743013039" lon="12.320122017194096"><ele>304.0</ele><time>2026-04-19T15:10:01.596Z</time></trkpt><trkpt lat="46.054329394911925" lon="12.31996195443027"><ele>304.0</ele><time>2026-04-19T15:10:02.596Z</time></trkpt><trkpt lat="46.05427094846004" lon="12.319785751434281"><ele>304.0</ele><time>2026-04-19T15:10:03.596Z</time></trkpt><trkpt lat="46.0542235919406" lon="12.319601588761483"><ele>304.0</ele><time>2026-04-19T15:10:04.596Z</time></trkpt><trkpt lat="46.0541973785817" lon="12.319402047203472"><ele>304.0</ele><time>2026-04-19T15:10:05.596Z</time></trkpt><trkpt lat="46.054179088970514" lon="12.319204781682679"><ele>305.25</ele><time>2026-04-19T15:10:06.596Z</time></trkpt><trkpt lat="46.05416980934571" lon="12.31900667858045"><ele>306.5</ele><time>2026-04-19T15:10:07.596Z</time></trkpt><trkpt lat="46.05415229392938" lon="12.318826369790724"><ele>307.75</ele><time>2026-04-19T15:10:08.596Z</time></trkpt><trkpt lat="46.05412217085863" lon="12.31864248161879"><ele>309.0</ele><time>2026-04-19T15:10:09.596Z</time></trkpt><trkpt lat="46.05407679586815" lon="12.318444832280727"><ele>309.0</ele><time>2026-04-19T15:10:10.596Z</time></trkpt><trkpt lat="46.05401639372562" lon="12.318267204261613"><ele>309.0</ele><time>2026-04-19T15:10:11.596Z</time></trkpt><trkpt lat="46.053963786020645" lon="12.318099344469147"><ele>309.0</ele><time>2026-04-19T15:10:12.596Z</time></trkpt><trkpt lat="46.05391148296634" lon="12.317931592270497"><ele>309.0</ele><time>2026-04-19T15:10:13.596Z</time></trkpt><trkpt lat="46.05385733015427" lon="12.317772182778638"><ele>306.4</ele><time>2026-04-19T15:10:14.596Z</time></trkpt><trkpt lat="46.05381426291917" lon="12.31761800048026"><ele>303.79999999999995</ele><time>2026-04-19T15:10:15.596Z</time></trkpt><trkpt lat="46.05376889807737" lon="12.317498897039897"><ele>301.20000000000005</ele><time>2026-04-19T15:10:16.596Z</time></trkpt><trkpt lat="46.05372274622775" lon="12.317380880314083"><ele>298.6</ele><time>2026-04-19T15:10:17.596Z</time></trkpt><trkpt lat="46.053660325269355" lon="12.317255996607072"><ele>296.0</ele><time>2026-04-19T15:10:18.596Z</time></trkpt><trkpt lat="46.05355572371214" lon="12.317134515288387"><ele>295.0</ele><time>2026-04-19T15:10:19.596Z</time></trkpt><trkpt lat="46.05343583501457" lon="12.316977054702734"><ele>294.0</ele><time>2026-04-19T15:10:20.596Z</time></trkpt><trkpt lat="46.053270001703915" lon="12.316801310558361"><ele>293.0</ele><time>2026-04-19T15:10:21.596Z</time></trkpt><trkpt lat="46.05309267939359" lon="12.316615249237334"><ele>289.0</ele><time>2026-04-19T15:10:22.596Z</time></trkpt><trkpt lat="46.05288758199903" lon="12.316400354745126"><ele>285.0</ele><time>2026-04-19T15:10:23.596Z</time></trkpt><trkpt lat="46.05265727608882" lon="12.316159996436834"><ele>288.5</ele><time>2026-04-19T15:10:24.596Z</time></trkpt><trkpt lat="46.0524108232349" lon="12.315902786568437"><ele>292.0</ele><time>2026-04-19T15:10:25.596Z</time></trkpt><trkpt lat="46.05216797426112" lon="12.315649317615152"><ele>289.0</ele><time>2026-04-19T15:10:26.596Z</time></trkpt><trkpt lat="46.051910297702506" lon="12.315379308126037"><ele>286.0</ele><time>2026-04-19T15:10:27.596Z</time></trkpt><trkpt lat="46.051637426250764" lon="12.315093305519525"><ele>287.0</ele><time>2026-04-19T15:10:28.596Z</time></trkpt><trkpt lat="46.05139032778127" lon="12.314834316464689"><ele>288.0</ele><time>2026-04-19T15:10:29.596Z</time></trkpt><trkpt lat="46.05116490826686" lon="12.314598048577178"><ele>288.0</ele><time>2026-04-19T15:10:30.596Z</time></trkpt><trkpt lat="46.05094518733228" lon="12.314393183597124"><ele>288.0</ele><time>2026-04-19T15:10:31.596Z</time></trkpt><trkpt lat="46.050738761049104" lon="12.314181010630218"><ele>289.5</ele><time>2026-04-19T15:10:32.596Z</time></trkpt><trkpt lat="46.05053507700451" lon="12.313968340875011"><ele>291.0</ele><time>2026-04-19T15:10:33.596Z</time></trkpt><trkpt lat="46.050335691907115" lon="12.313759723789474"><ele>291.0</ele><time>2026-04-19T15:10:34.596Z</time></trkpt><trkpt lat="46.05015625685913" lon="12.313569525361713"><ele>291.0</ele><time>2026-04-19T15:10:35.596Z</time></trkpt><trkpt lat="46.04999479477491" lon="12.313387812841675"><ele>291.0</ele><time>2026-04-19T15:10:36.596Z</time></trkpt><trkpt lat="46.04983926697326" lon="12.313215047747263"><ele>290.6666666666667</ele><time>2026-04-19T15:10:37.596Z</time></trkpt><trkpt lat="46.049684443288946" lon="12.31303800827532"><ele>290.33333333333337</ele><time>2026-04-19T15:10:38.596Z</time></trkpt><trkpt lat="46.04953034712212" lon="12.31283743663078"><ele>290.0</ele><time>2026-04-19T15:10:39.596Z</time></trkpt><trkpt lat="46.0493687480549" lon="12.312630664989047"><ele>290.0</ele><time>2026-04-19T15:10:40.596Z</time></trkpt><trkpt lat="46.049208308377686" lon="12.312395616358515"><ele>290.0</ele><time>2026-04-19T15:10:41.596Z</time></trkpt><trkpt lat="46.04903526956676" lon="12.312143501800865"><ele>290.0</ele><time>2026-04-19T15:10:42.596Z</time></trkpt><trkpt lat="46.048891967592816" lon="12.311899220994892"><ele>290.0</ele><time>2026-04-19T15:10:43.596Z</time></trkpt><trkpt lat="46.04874352611364" lon="12.311683416599418"><ele>290.0</ele><time>2026-04-19T15:10:44.596Z</time></trkpt><trkpt lat="46.04860772184644" lon="12.311485911064977"><ele>290.25</ele><time>2026-04-19T15:10:45.596Z</time></trkpt><trkpt lat="46.04848710526404" lon="12.31131049362148"><ele>290.5</ele><time>2026-04-19T15:10:46.596Z</time></trkpt><trkpt lat="46.0483769849654" lon="12.311150815973352"><ele>290.75</ele><time>2026-04-19T15:10:47.596Z</time></trkpt><trkpt lat="46.04829155398297" lon="12.311026989058288"><ele>291.0</ele><time>2026-04-19T15:10:48.596Z</time></trkpt><trkpt lat="46.048203125207706" lon="12.310918146822726"><ele>291.0</ele><time>2026-04-19T15:10:49.596Z</time></trkpt><trkpt lat="46.04812677255267" lon="12.31082065218405"><ele>291.0</ele><time>2026-04-19T15:10:50.596Z</time></trkpt><trkpt lat="46.0480621759175" lon="12.310714824286544"><ele>291.0</ele><time>2026-04-19T15:10:51.596Z</time></trkpt><trkpt lat="46.04799744159821" lon="12.310604611938468"><ele>291.0</ele><time>2026-04-19T15:10:52.596Z</time></trkpt><trkpt lat="46.04794363689583" lon="12.310524039071646"><ele>291.0</ele><time>2026-04-19T15:10:53.596Z</time></trkpt><trkpt lat="46.04784911477583" lon="12.310467726236167"><ele>291.0</ele><time>2026-04-19T15:10:55.596Z</time></trkpt><trkpt lat="46.04791132319936" lon="12.310505106699505"><ele>291.0</ele><time>2026-04-19T15:10:58.596Z</time></trkpt><trkpt lat="46.04788155516304" lon="12.310727908090712"><ele>291.0</ele><time>2026-04-19T15:10:59.596Z</time></trkpt><trkpt lat="46.04793408069158" lon="12.310807215955942"><ele>291.0</ele><time>2026-04-19T15:11:00.596Z</time></trkpt><trkpt lat="46.048012418198944" lon="12.31084582249881"><ele>291.0</ele><time>2026-04-19T15:11:02.596Z</time></trkpt><trkpt lat="46.047940179988515" lon="12.310827534065798"><ele>291.0</ele><time>2026-04-19T15:13:57.598Z</time></trkpt><trkpt lat="46.04799906961733" lon="12.310882720869799"><ele>291.0</ele><time>2026-04-19T15:21:24.6Z</time></trkpt><trkpt lat="46.04805345073641" lon="12.310823993226336"><ele>291.0</ele><time>2026-04-19T15:24:33.602Z</time></trkpt><trkpt lat="46.048081696635066" lon="12.310905815116714"><ele>291.0</ele><time>2026-04-19T15:28:41.602Z</time></trkpt><trkpt lat="46.048082532962184" lon="12.310716542498065"><ele>291.0</ele><time>2026-04-19T15:28:44.602Z</time></trkpt><trkpt lat="46.04799179095146" lon="12.310590749712818"><ele>290.75</ele><time>2026-04-19T15:28:45.602Z</time></trkpt><trkpt lat="46.047899103849375" lon="12.31044594041314"><ele>290.5</ele><time>2026-04-19T15:28:46.602Z</time></trkpt><trkpt lat="46.04779959658016" lon="12.310292690708017"><ele>290.25</ele><time>2026-04-19T15:28:47.602Z</time></trkpt><trkpt lat="46.047685616959185" lon="12.310120213906412"><ele>290.0</ele><time>2026-04-19T15:28:48.602Z</time></trkpt><trkpt lat="46.047578497598515" lon="12.309946633727714"><ele>290.0</ele><time>2026-04-19T15:28:49.602Z</time></trkpt><trkpt lat="46.04746242533557" lon="12.309779545753527"><ele>290.0</ele><time>2026-04-19T15:28:50.602Z</time></trkpt><trkpt lat="46.047363796587774" lon="12.30960510874803"><ele>290.0</ele><time>2026-04-19T15:28:51.602Z</time></trkpt><trkpt lat="46.04722612956673" lon="12.309462865611094"><ele>291.25</ele><time>2026-04-19T15:28:52.602Z</time></trkpt><trkpt lat="46.04711332444982" lon="12.309306357353833"><ele>292.5</ele><time>2026-04-19T15:28:53.602Z</time></trkpt><trkpt lat="46.047006595760465" lon="12.309186112695215"><ele>293.75</ele><time>2026-04-19T15:28:54.602Z</time></trkpt><trkpt lat="46.04690158950493" lon="12.309068271455796"><ele>295.0</ele><time>2026-04-19T15:28:55.602Z</time></trkpt><trkpt lat="46.04681080319588" lon="12.308982984063467"><ele>295.0</ele><time>2026-04-19T15:28:56.602Z</time></trkpt><trkpt lat="46.04671150567347" lon="12.308910872775977"><ele>295.0</ele><time>2026-04-19T15:28:57.602Z</time></trkpt><trkpt lat="46.04661009205133" lon="12.308886402266204"><ele>295.0</ele><time>2026-04-19T15:28:58.602Z</time></trkpt><trkpt lat="46.0464972866248" lon="12.308852059196427"><ele>295.0</ele><time>2026-04-19T15:28:59.602Z</time></trkpt><trkpt lat="46.04638426893901" lon="12.30880328810364"><ele>295.0</ele><time>2026-04-19T15:29:00.602Z</time></trkpt><trkpt lat="46.04625911126221" lon="12.308769971774465"><ele>293.75</ele><time>2026-04-19T15:29:01.602Z</time></trkpt><trkpt lat="46.04612524352712" lon="12.308718382027905"><ele>292.5</ele><time>2026-04-19T15:29:02.602Z</time></trkpt><trkpt lat="46.04597559138282" lon="12.308643942843092"><ele>291.25</ele><time>2026-04-19T15:29:03.602Z</time></trkpt><trkpt lat="46.045845995939985" lon="12.308601629051147"><ele>290.0</ele><time>2026-04-19T15:29:04.602Z</time></trkpt><trkpt lat="46.0457074341523" lon="12.308556983273537"><ele>287.75</ele><time>2026-04-19T15:29:05.602Z</time></trkpt><trkpt lat="46.04557074733515" lon="12.308499271595227"><ele>285.5</ele><time>2026-04-19T15:29:06.602Z</time></trkpt><trkpt lat="46.0454601639018" lon="12.308436743653996"><ele>283.25</ele><time>2026-04-19T15:29:07.602Z</time></trkpt><trkpt lat="46.045355119274284" lon="12.30834539939852"><ele>281.0</ele><time>2026-04-19T15:29:08.602Z</time></trkpt><trkpt lat="46.0452621891649" lon="12.308254772468686"><ele>281.0</ele><time>2026-04-19T15:29:09.602Z</time></trkpt><trkpt lat="46.045183600015655" lon="12.308098527962628"><ele>281.0</ele><time>2026-04-19T15:29:10.602Z</time></trkpt><trkpt lat="46.04512727997523" lon="12.307939920977013"><ele>281.0</ele><time>2026-04-19T15:29:11.602Z</time></trkpt><trkpt lat="46.0450684100981" lon="12.30774046209019"><ele>281.0</ele><time>2026-04-19T15:29:12.602Z</time></trkpt><trkpt lat="46.04503632125077" lon="12.307526445178112"><ele>281.25</ele><time>2026-04-19T15:29:13.602Z</time></trkpt><trkpt lat="46.044998776987754" lon="12.307336850254195"><ele>281.5</ele><time>2026-04-19T15:29:14.602Z</time></trkpt><trkpt lat="46.04493627032413" lon="12.307171454797238"><ele>281.75</ele><time>2026-04-19T15:29:15.602Z</time></trkpt><trkpt lat="46.044875624055216" lon="12.307013098361324"><ele>282.0</ele><time>2026-04-19T15:29:16.602Z</time></trkpt><trkpt lat="46.04481233291276" lon="12.306867311800195"><ele>281.0</ele><time>2026-04-19T15:29:17.602Z</time></trkpt><trkpt lat="46.044671145654874" lon="12.30676507954798"><ele>280.0</ele><time>2026-04-19T15:29:18.602Z</time></trkpt><trkpt lat="46.044550493469714" lon="12.306685261959315"><ele>279.0</ele><time>2026-04-19T15:29:19.602Z</time></trkpt><trkpt lat="46.044403711159056" lon="12.306668766177852"><ele>278.0</ele><time>2026-04-19T15:29:20.602Z</time></trkpt><trkpt lat="46.04424870431345" lon="12.306670685433948"><ele>277.33333333333337</ele><time>2026-04-19T15:29:21.602Z</time></trkpt><trkpt lat="46.04409522420891" lon="12.306697033630867"><ele>276.6666666666667</ele><time>2026-04-19T15:29:22.602Z</time></trkpt><trkpt lat="46.04393390614763" lon="12.306735460924758"><ele>276.0</ele><time>2026-04-19T15:29:23.602Z</time></trkpt><trkpt lat="46.04378415804488" lon="12.306772433962132"><ele>276.0</ele><time>2026-04-19T15:29:24.602Z</time></trkpt><trkpt lat="46.04363116616029" lon="12.30679578100732"><ele>276.0</ele><time>2026-04-19T15:29:25.602Z</time></trkpt><trkpt lat="46.04348526162564" lon="12.306816679355792"><ele>276.0</ele><time>2026-04-19T15:29:26.602Z</time></trkpt><trkpt lat="46.04334164575282" lon="12.306831575550413"><ele>276.0</ele><time>2026-04-19T15:29:27.602Z</time></trkpt><trkpt lat="46.04319777601051" lon="12.306829341975208"><ele>273.25</ele><time>2026-04-19T15:29:28.602Z</time></trkpt><trkpt lat="46.04307140423461" lon="12.306821337831124"><ele>270.5</ele><time>2026-04-19T15:29:29.602Z</time></trkpt><trkpt lat="46.042954197705164" lon="12.3068106476413"><ele>267.75</ele><time>2026-04-19T15:29:30.602Z</time></trkpt><trkpt lat="46.0428329625259" lon="12.306820070614991"><ele>265.0</ele><time>2026-04-19T15:29:31.602Z</time></trkpt><trkpt lat="46.0427302045044" lon="12.306870618333447"><ele>265.0</ele><time>2026-04-19T15:29:32.602Z</time></trkpt><trkpt lat="46.04264254884814" lon="12.306937685163769"><ele>265.0</ele><time>2026-04-19T15:29:33.602Z</time></trkpt><trkpt lat="46.04255627147634" lon="12.30703031768204"><ele>265.0</ele><time>2026-04-19T15:29:34.602Z</time></trkpt><trkpt lat="46.04248584524594" lon="12.307160524711286"><ele>265.0</ele><time>2026-04-19T15:29:35.602Z</time></trkpt><trkpt lat="46.04243076055477" lon="12.30731617801563"><ele>265.0</ele><time>2026-04-19T15:29:36.602Z</time></trkpt><trkpt lat="46.042395693834514" lon="12.307472820431784"><ele>261.6</ele><time>2026-04-19T15:29:37.602Z</time></trkpt><trkpt lat="46.04239052632547" lon="12.307641744681206"><ele>258.2</ele><time>2026-04-19T15:29:38.602Z</time></trkpt><trkpt lat="46.042401627542446" lon="12.307797543104043"><ele>254.8</ele><time>2026-04-19T15:29:39.602Z</time></trkpt><trkpt lat="46.04241636623317" lon="12.307941141573988"><ele>251.4</ele><time>2026-04-19T15:29:40.602Z</time></trkpt><trkpt lat="46.0424302292402" lon="12.30808574291274"><ele>248.0</ele><time>2026-04-19T15:29:41.602Z</time></trkpt><trkpt lat="46.04241611857063" lon="12.308227281478533"><ele>248.0</ele><time>2026-04-19T15:29:42.602Z</time></trkpt><trkpt lat="46.04238417808374" lon="12.308357016820093"><ele>248.0</ele><time>2026-04-19T15:29:43.602Z</time></trkpt><trkpt lat="46.04233853464396" lon="12.308485109916568"><ele>248.0</ele><time>2026-04-19T15:29:44.602Z</time></trkpt><trkpt lat="46.042268113428065" lon="12.30860788880056"><ele>248.0</ele><time>2026-04-19T15:29:45.602Z</time></trkpt><trkpt lat="46.04217871583123" lon="12.308708476396571"><ele>248.0</ele><time>2026-04-19T15:29:46.602Z</time></trkpt><trkpt lat="46.042067296420925" lon="12.308760663366591"><ele>248.0</ele><time>2026-04-19T15:29:47.602Z</time></trkpt><trkpt lat="46.041945999482955" lon="12.308774382454091"><ele>248.0</ele><time>2026-04-19T15:29:48.602Z</time></trkpt><trkpt lat="46.041816546303146" lon="12.308713973427665"><ele>248.0</ele><time>2026-04-19T15:29:49.602Z</time></trkpt><trkpt lat="46.04169781870408" lon="12.308653994926757"><ele>248.0</ele><time>2026-04-19T15:29:50.602Z</time></trkpt><trkpt lat="46.041579320666585" lon="12.308606275129463"><ele>245.75</ele><time>2026-04-19T15:29:51.602Z</time></trkpt><trkpt lat="46.04146975556299" lon="12.308547993195921"><ele>243.5</ele><time>2026-04-19T15:29:52.602Z</time></trkpt><trkpt lat="46.04135155840322" lon="12.308489797860732"><ele>241.25</ele><time>2026-04-19T15:29:53.602Z</time></trkpt><trkpt lat="46.04124070931745" lon="12.308431767420803"><ele>239.0</ele><time>2026-04-19T15:29:54.602Z</time></trkpt><trkpt lat="46.04112778874664" lon="12.308372479058363"><ele>239.0</ele><time>2026-04-19T15:29:55.602Z</time></trkpt><trkpt lat="46.041028779802744" lon="12.308328778927052"><ele>238.99999999999997</ele><time>2026-04-19T15:29:56.602Z</time></trkpt><trkpt lat="46.040924554880064" lon="12.308294437722697"><ele>238.99999999999997</ele><time>2026-04-19T15:29:57.602Z</time></trkpt><trkpt lat="46.04082278907175" lon="12.308297280870987"><ele>239.0</ele><time>2026-04-19T15:29:58.602Z</time></trkpt><trkpt lat="46.040735039110636" lon="12.308337890890389"><ele>239.0</ele><time>2026-04-19T15:29:59.602Z</time></trkpt><trkpt lat="46.04063041902479" lon="12.308438135545487"><ele>234.25</ele><time>2026-04-19T15:30:00.602Z</time></trkpt><trkpt lat="46.04054427209116" lon="12.308546090097376"><ele>229.5</ele><time>2026-04-19T15:30:01.602Z</time></trkpt><trkpt lat="46.04045444742836" lon="12.308647999758163"><ele>224.75</ele><time>2026-04-19T15:30:02.602Z</time></trkpt><trkpt lat="46.04035848953541" lon="12.30874111431714"><ele>220.0</ele><time>2026-04-19T15:30:03.602Z</time></trkpt><trkpt lat="46.04026402287353" lon="12.308827720741816"><ele>218.0</ele><time>2026-04-19T15:30:04.602Z</time></trkpt><trkpt lat="46.04015852309075" lon="12.308920164346508"><ele>216.0</ele><time>2026-04-19T15:30:05.602Z</time></trkpt><trkpt lat="46.04003541970918" lon="12.30903702380041"><ele>214.0</ele><time>2026-04-19T15:30:06.602Z</time></trkpt><trkpt lat="46.03989315347888" lon="12.309180881649713"><ele>212.0</ele><time>2026-04-19T15:30:07.602Z</time></trkpt><trkpt lat="46.039732295307324" lon="12.309338708755885"><ele>212.0</ele><time>2026-04-19T15:30:08.602Z</time></trkpt><trkpt lat="46.0395950324073" lon="12.30947988689656"><ele>212.0</ele><time>2026-04-19T15:30:09.602Z</time></trkpt><trkpt lat="46.039465597524405" lon="12.309602008757585"><ele>212.0</ele><time>2026-04-19T15:30:10.602Z</time></trkpt><trkpt lat="46.03934421049545" lon="12.309713697548272"><ele>216.0</ele><time>2026-04-19T15:30:11.602Z</time></trkpt><trkpt lat="46.03922249204311" lon="12.309822172997553"><ele>220.0</ele><time>2026-04-19T15:30:12.602Z</time></trkpt><trkpt lat="46.03909109698213" lon="12.309911211564852"><ele>224.0</ele><time>2026-04-19T15:30:13.602Z</time></trkpt><trkpt lat="46.03895076906168" lon="12.309971992612931"><ele>228.0</ele><time>2026-04-19T15:30:14.602Z</time></trkpt><trkpt lat="46.03881697045275" lon="12.310018506548797"><ele>228.0</ele><time>2026-04-19T15:30:15.602Z</time></trkpt><trkpt lat="46.03866916902625" lon="12.310037097531968"><ele>228.0</ele><time>2026-04-19T15:30:16.602Z</time></trkpt><trkpt lat="46.038507019444594" lon="12.310017688762715"><ele>228.0</ele><time>2026-04-19T15:30:17.602Z</time></trkpt><trkpt lat="46.038351330284655" lon="12.30997682483842"><ele>234.0</ele><time>2026-04-19T15:30:18.602Z</time></trkpt><trkpt lat="46.03820661711043" lon="12.309903049332922"><ele>240.0</ele><time>2026-04-19T15:30:19.602Z</time></trkpt><trkpt lat="46.038053267933186" lon="12.309791381957806"><ele>246.0</ele><time>2026-04-19T15:30:20.602Z</time></trkpt><trkpt lat="46.03792162574421" lon="12.309667809232085"><ele>234.0</ele><time>2026-04-19T15:30:21.602Z</time></trkpt><trkpt lat="46.0377998291917" lon="12.309537518155858"><ele>222.0</ele><time>2026-04-19T15:30:22.602Z</time></trkpt><trkpt lat="46.03767602135157" lon="12.309407680096406"><ele>210.0</ele><time>2026-04-19T15:30:23.602Z</time></trkpt><trkpt lat="46.037535495211735" lon="12.309246955235066"><ele>217.33333333333331</ele><time>2026-04-19T15:30:24.602Z</time></trkpt><trkpt lat="46.03740300936517" lon="12.309130403736468"><ele>224.66666666666666</ele><time>2026-04-19T15:30:25.602Z</time></trkpt><trkpt lat="46.03725975921368" lon="12.309049221473252"><ele>232.0</ele><time>2026-04-19T15:30:26.603Z</time></trkpt><trkpt lat="46.037104541246045" lon="12.308978339571803"><ele>224.0</ele><time>2026-04-19T15:30:27.603Z</time></trkpt><trkpt lat="46.036934217841925" lon="12.308894028637608"><ele>216.0</ele><time>2026-04-19T15:30:28.603Z</time></trkpt><trkpt lat="46.03676124320593" lon="12.308814840082178"><ele>208.0</ele><time>2026-04-19T15:30:29.603Z</time></trkpt><trkpt lat="46.03659676720255" lon="12.308768740307825"><ele>208.0</ele><time>2026-04-19T15:30:30.603Z</time></trkpt><trkpt lat="46.03641879307955" lon="12.308713289870646"><ele>208.0</ele><time>2026-04-19T15:30:31.603Z</time></trkpt><trkpt lat="46.036252477065815" lon="12.308666253984736"><ele>208.0</ele><time>2026-04-19T15:30:32.603Z</time></trkpt><trkpt lat="46.036093081119944" lon="12.308585209108347"><ele>208.0</ele><time>2026-04-19T15:30:33.603Z</time></trkpt><trkpt lat="46.03594507545569" lon="12.30849175220311"><ele>208.0</ele><time>2026-04-19T15:30:34.603Z</time></trkpt><trkpt lat="46.035803046571864" lon="12.308381020353341"><ele>208.0</ele><time>2026-04-19T15:30:35.603Z</time></trkpt><trkpt lat="46.03567550870639" lon="12.308232176435324"><ele>204.0</ele><time>2026-04-19T15:30:36.603Z</time></trkpt><trkpt lat="46.03553392935272" lon="12.308054478227014"><ele>200.0</ele><time>2026-04-19T15:30:37.603Z</time></trkpt><trkpt lat="46.035345027046766" lon="12.30788043583169"><ele>196.0</ele><time>2026-04-19T15:30:38.603Z</time></trkpt><trkpt lat="46.035198528392534" lon="12.307709309072676"><ele>196.0</ele><time>2026-04-19T15:30:39.603Z</time></trkpt><trkpt lat="46.03506146319885" lon="12.307528993062554"><ele>196.0</ele><time>2026-04-19T15:30:40.603Z</time></trkpt><trkpt lat="46.034923576057615" lon="12.307297803682971"><ele>196.0</ele><time>2026-04-19T15:30:41.603Z</time></trkpt><trkpt lat="46.03478006937325" lon="12.307086642077511"><ele>195.66666666666666</ele><time>2026-04-19T15:30:42.603Z</time></trkpt><trkpt lat="46.03464528983275" lon="12.306887975201027"><ele>195.33333333333331</ele><time>2026-04-19T15:30:43.603Z</time></trkpt><trkpt lat="46.03450186298926" lon="12.306674888496557"><ele>195.0</ele><time>2026-04-19T15:30:44.603Z</time></trkpt><trkpt lat="46.03435817727064" lon="12.306464596011464"><ele>193.33333333333334</ele><time>2026-04-19T15:30:45.603Z</time></trkpt><trkpt lat="46.03421748450226" lon="12.306299956198336"><ele>191.66666666666669</ele><time>2026-04-19T15:30:46.603Z</time></trkpt><trkpt lat="46.03406268286867" lon="12.30612781328155"><ele>190.0</ele><time>2026-04-19T15:30:47.603Z</time></trkpt><trkpt lat="46.033902673483425" lon="12.305963077296584"><ele>189.66666666666669</ele><time>2026-04-19T15:30:48.603Z</time></trkpt><trkpt lat="46.03374820718959" lon="12.305799766677566"><ele>189.33333333333334</ele><time>2026-04-19T15:30:49.603Z</time></trkpt><trkpt lat="46.03361064223129" lon="12.30565622262294"><ele>189.0</ele><time>2026-04-19T15:30:50.603Z</time></trkpt><trkpt lat="46.033478603507795" lon="12.305518156994953"><ele>189.25</ele><time>2026-04-19T15:30:51.603Z</time></trkpt><trkpt lat="46.033348770441826" lon="12.305380808512862"><ele>189.5</ele><time>2026-04-19T15:30:52.603Z</time></trkpt><trkpt lat="46.0332392253415" lon="12.30523826556549"><ele>189.75</ele><time>2026-04-19T15:30:53.603Z</time></trkpt><trkpt lat="46.03312686781193" lon="12.30511898676212"><ele>190.0</ele><time>2026-04-19T15:30:54.603Z</time></trkpt><trkpt lat="46.0330281201096" lon="12.305014156153131"><ele>190.0</ele><time>2026-04-19T15:30:55.603Z</time></trkpt><trkpt lat="46.032941217565956" lon="12.30492212546779"><ele>190.0</ele><time>2026-04-19T15:30:56.603Z</time></trkpt><trkpt lat="46.032862877465014" lon="12.304839411036962"><ele>190.0</ele><time>2026-04-19T15:30:57.603Z</time></trkpt><trkpt lat="46.03277589001274" lon="12.30474682740863"><ele>190.0</ele><time>2026-04-19T15:30:58.603Z</time></trkpt><trkpt lat="46.03269766603632" lon="12.304662854490898"><ele>190.0</ele><time>2026-04-19T15:30:59.603Z</time></trkpt><trkpt lat="46.03262463243446" lon="12.304585527465768"><ele>189.0</ele><time>2026-04-19T15:31:00.603Z</time></trkpt><trkpt lat="46.03253926547802" lon="12.30452101244892"><ele>188.0</ele><time>2026-04-19T15:31:01.603Z</time></trkpt><trkpt lat="46.0324460881888" lon="12.304424952201382"><ele>187.0</ele><time>2026-04-19T15:31:02.603Z</time></trkpt><trkpt lat="46.032353991963646" lon="12.304319215266213"><ele>186.0</ele><time>2026-04-19T15:31:03.603Z</time></trkpt><trkpt lat="46.03225554981638" lon="12.304215765063441"><ele>186.75</ele><time>2026-04-19T15:31:04.603Z</time></trkpt><trkpt lat="46.03215658769302" lon="12.304104116546071"><ele>187.5</ele><time>2026-04-19T15:31:05.603Z</time></trkpt><trkpt lat="46.03205982656505" lon="12.30396894129941"><ele>188.25</ele><time>2026-04-19T15:31:06.603Z</time></trkpt><trkpt lat="46.03196778795745" lon="12.303819494134977"><ele>189.0</ele><time>2026-04-19T15:31:07.603Z</time></trkpt><trkpt lat="46.03187526654042" lon="12.303643204585834"><ele>189.0</ele><time>2026-04-19T15:31:08.603Z</time></trkpt><trkpt lat="46.03177940434049" lon="12.303431752527178"><ele>189.0</ele><time>2026-04-19T15:31:09.603Z</time></trkpt><trkpt lat="46.03169031791448" lon="12.303238854354246"><ele>189.0</ele><time>2026-04-19T15:31:10.603Z</time></trkpt><trkpt lat="46.0316234505415" lon="12.30307527021219"><ele>191.5</ele><time>2026-04-19T15:31:11.603Z</time></trkpt><trkpt lat="46.031550423715466" lon="12.302922369264145"><ele>194.0</ele><time>2026-04-19T15:31:12.603Z</time></trkpt><trkpt lat="46.03148647971363" lon="12.302762265371378"><ele>196.5</ele><time>2026-04-19T15:31:13.603Z</time></trkpt><trkpt lat="46.03141689233604" lon="12.302614855754411"><ele>199.0</ele><time>2026-04-19T15:31:14.603Z</time></trkpt><trkpt lat="46.03134100285963" lon="12.302443297866116"><ele>199.0</ele><time>2026-04-19T15:31:15.603Z</time></trkpt><trkpt lat="46.03126686515984" lon="12.30227471640945"><ele>199.0</ele><time>2026-04-19T15:31:16.603Z</time></trkpt><trkpt lat="46.03117699822723" lon="12.302133100797365"><ele>199.0</ele><time>2026-04-19T15:31:17.603Z</time></trkpt><trkpt lat="46.031077699915414" lon="12.302021709596497"><ele>199.0</ele><time>2026-04-19T15:31:18.603Z</time></trkpt><trkpt lat="46.03096190436762" lon="12.301933058640905"><ele>195.0</ele><time>2026-04-19T15:31:19.603Z</time></trkpt><trkpt lat="46.030845152272974" lon="12.301855995427898"><ele>191.0</ele><time>2026-04-19T15:31:20.603Z</time></trkpt><trkpt lat="46.030740195148596" lon="12.301820089588192"><ele>187.0</ele><time>2026-04-19T15:31:21.603Z</time></trkpt><trkpt lat="46.03062940265868" lon="12.301833959483059"><ele>183.0</ele><time>2026-04-19T15:31:22.603Z</time></trkpt><trkpt lat="46.03053469196555" lon="12.301898400877912"><ele>183.5</ele><time>2026-04-19T15:31:23.603Z</time></trkpt><trkpt lat="46.030446774694155" lon="12.30202119135373"><ele>184.0</ele><time>2026-04-19T15:31:24.603Z</time></trkpt><trkpt lat="46.03036643205029" lon="12.30219604002543"><ele>184.5</ele><time>2026-04-19T15:31:25.603Z</time></trkpt><trkpt lat="46.030282160299066" lon="12.302385243382506"><ele>185.0</ele><time>2026-04-19T15:31:26.603Z</time></trkpt><trkpt lat="46.030180222584654" lon="12.302539940940955"><ele>185.0</ele><time>2026-04-19T15:31:27.603Z</time></trkpt><trkpt lat="46.03008602000795" lon="12.3026987451621"><ele>185.0</ele><time>2026-04-19T15:31:28.603Z</time></trkpt><trkpt lat="46.02999669070728" lon="12.302876349222034"><ele>185.0</ele><time>2026-04-19T15:31:29.603Z</time></trkpt><trkpt lat="46.029931898706764" lon="12.30307659320327"><ele>182.25</ele><time>2026-04-19T15:31:30.603Z</time></trkpt><trkpt lat="46.029871608504116" lon="12.303269468087453"><ele>179.5</ele><time>2026-04-19T15:31:31.603Z</time></trkpt><trkpt lat="46.029816189109525" lon="12.303447106431568"><ele>176.75</ele><time>2026-04-19T15:31:32.603Z</time></trkpt><trkpt lat="46.02976036375985" lon="12.303580635918523"><ele>174.0</ele><time>2026-04-19T15:31:33.603Z</time></trkpt><trkpt lat="46.02970330483373" lon="12.30371390368049"><ele>174.0</ele><time>2026-04-19T15:31:34.603Z</time></trkpt><trkpt lat="46.029621816055766" lon="12.30382374113044"><ele>174.0</ele><time>2026-04-19T15:31:35.603Z</time></trkpt><trkpt lat="46.029518850130756" lon="12.303881958067803"><ele>174.0</ele><time>2026-04-19T15:31:36.603Z</time></trkpt><trkpt lat="46.02941632260656" lon="12.303901252143785"><ele>174.0</ele><time>2026-04-19T15:31:37.603Z</time></trkpt><trkpt lat="46.02930493515594" lon="12.30387270324561"><ele>174.0</ele><time>2026-04-19T15:31:38.603Z</time></trkpt><trkpt lat="46.02918299371237" lon="12.303797898223241"><ele>174.66666666666666</ele><time>2026-04-19T15:31:39.603Z</time></trkpt><trkpt lat="46.02905577734732" lon="12.303661786131181"><ele>175.33333333333331</ele><time>2026-04-19T15:31:40.603Z</time></trkpt><trkpt lat="46.028954962519634" lon="12.303505607508907"><ele>176.0</ele><time>2026-04-19T15:31:41.603Z</time></trkpt><trkpt lat="46.028877093802244" lon="12.303330223373752"><ele>176.0</ele><time>2026-04-19T15:31:42.603Z</time></trkpt><trkpt lat="46.02883772935605" lon="12.303131013768219"><ele>176.0</ele><time>2026-04-19T15:31:43.603Z</time></trkpt><trkpt lat="46.028814876677984" lon="12.302897904683725"><ele>176.0</ele><time>2026-04-19T15:31:44.603Z</time></trkpt><trkpt lat="46.02879898941226" lon="12.30261550275434"><ele>172.33333333333331</ele><time>2026-04-19T15:31:45.603Z</time></trkpt><trkpt lat="46.02881488071606" lon="12.302366315338068"><ele>168.66666666666666</ele><time>2026-04-19T15:31:46.603Z</time></trkpt><trkpt lat="46.02880306488523" lon="12.30211334836939"><ele>165.0</ele><time>2026-04-19T15:31:47.603Z</time></trkpt><trkpt lat="46.02875582043267" lon="12.301844329704355"><ele>165.0</ele><time>2026-04-19T15:31:48.603Z</time></trkpt><trkpt lat="46.028694127277184" lon="12.301637605892118"><ele>165.0</ele><time>2026-04-19T15:31:49.603Z</time></trkpt><trkpt lat="46.02862806019258" lon="12.30144785652739"><ele>165.0</ele><time>2026-04-19T15:31:50.603Z</time></trkpt><trkpt lat="46.02853403985078" lon="12.301257638423111"><ele>165.66666666666666</ele><time>2026-04-19T15:31:51.603Z</time></trkpt><trkpt lat="46.02842331337602" lon="12.301074833163309"><ele>166.33333333333331</ele><time>2026-04-19T15:31:52.603Z</time></trkpt><trkpt lat="46.02829584923577" lon="12.300890939174637"><ele>167.0</ele><time>2026-04-19T15:31:53.603Z</time></trkpt><trkpt lat="46.0281540724463" lon="12.300702229535428"><ele>166.0</ele><time>2026-04-19T15:31:54.603Z</time></trkpt><trkpt lat="46.02800365233045" lon="12.300506074739193"><ele>165.0</ele><time>2026-04-19T15:31:55.603Z</time></trkpt><trkpt lat="46.02787196615914" lon="12.300322569781523"><ele>164.0</ele><time>2026-04-19T15:31:56.603Z</time></trkpt><trkpt lat="46.02773660859275" lon="12.300127164159388"><ele>164.0</ele><time>2026-04-19T15:31:57.603Z</time></trkpt><trkpt lat="46.02759329744523" lon="12.299928238128743"><ele>164.0</ele><time>2026-04-19T15:31:58.603Z</time></trkpt><trkpt lat="46.02743923596446" lon="12.299743375838785"><ele>164.0</ele><time>2026-04-19T15:31:59.603Z</time></trkpt><trkpt lat="46.02731911521893" lon="12.299552120802435"><ele>164.33333333333331</ele><time>2026-04-19T15:32:00.603Z</time></trkpt><trkpt lat="46.02720287405703" lon="12.299386801477944"><ele>164.66666666666666</ele><time>2026-04-19T15:32:01.603Z</time></trkpt><trkpt lat="46.02709459724457" lon="12.299232881186597"><ele>165.0</ele><time>2026-04-19T15:32:02.603Z</time></trkpt><trkpt lat="46.02696645599408" lon="12.299107866425585"><ele>165.0</ele><time>2026-04-19T15:32:03.603Z</time></trkpt><trkpt lat="46.02686624197359" lon="12.298960255784548"><ele>165.0</ele><time>2026-04-19T15:32:04.603Z</time></trkpt><trkpt lat="46.02676756108141" lon="12.298829741625264"><ele>165.0</ele><time>2026-04-19T15:32:05.603Z</time></trkpt><trkpt lat="46.02667571477173" lon="12.29867434057644"><ele>165.0</ele><time>2026-04-19T15:32:06.603Z</time></trkpt><trkpt lat="46.02658476698277" lon="12.298524521926543"><ele>164.75</ele><time>2026-04-19T15:32:07.603Z</time></trkpt><trkpt lat="46.026488746729555" lon="12.298380467764215"><ele>164.5</ele><time>2026-04-19T15:32:08.603Z</time></trkpt><trkpt lat="46.0264020584525" lon="12.298247371456004"><ele>164.25</ele><time>2026-04-19T15:32:09.603Z</time></trkpt><trkpt lat="46.02630822987999" lon="12.298126942193853"><ele>164.0</ele><time>2026-04-19T15:32:10.603Z</time></trkpt><trkpt lat="46.02621763119961" lon="12.297995024269863"><ele>164.5</ele><time>2026-04-19T15:32:11.603Z</time></trkpt><trkpt lat="46.02614299719256" lon="12.297863317659358"><ele>165.0</ele><time>2026-04-19T15:32:12.603Z</time></trkpt><trkpt lat="46.02607359867595" lon="12.297723023258857"><ele>165.5</ele><time>2026-04-19T15:32:13.603Z</time></trkpt><trkpt lat="46.02601799087319" lon="12.297576315911387"><ele>166.0</ele><time>2026-04-19T15:32:14.603Z</time></trkpt><trkpt lat="46.025967228230876" lon="12.297425827436546"><ele>166.0</ele><time>2026-04-19T15:32:15.603Z</time></trkpt><trkpt lat="46.025908897996196" lon="12.297284151064893"><ele>166.0</ele><time>2026-04-19T15:32:16.603Z</time></trkpt><trkpt lat="46.02586488689359" lon="12.29714662196336"><ele>166.0</ele><time>2026-04-19T15:32:17.603Z</time></trkpt><trkpt lat="46.02576620400177" lon="12.297054156335134"><ele>166.0</ele><time>2026-04-19T15:32:18.603Z</time></trkpt><trkpt lat="46.02569566783997" lon="12.29692114741704"><ele>166.25</ele><time>2026-04-19T15:32:19.603Z</time></trkpt><trkpt lat="46.02561805708488" lon="12.296796785679247"><ele>166.5</ele><time>2026-04-19T15:32:20.603Z</time></trkpt><trkpt lat="46.02551667621833" lon="12.296680147176142"><ele>166.75</ele><time>2026-04-19T15:32:21.603Z</time></trkpt><trkpt lat="46.025418291843806" lon="12.296538468147453"><ele>167.0</ele><time>2026-04-19T15:32:22.603Z</time></trkpt><trkpt lat="46.02532114091544" lon="12.296402392478058"><ele>167.0</ele><time>2026-04-19T15:32:23.603Z</time></trkpt><trkpt lat="46.02522405083229" lon="12.29626599580333"><ele>167.0</ele><time>2026-04-19T15:32:24.603Z</time></trkpt><trkpt lat="46.0250734129415" lon="12.296114544010267"><ele>167.0</ele><time>2026-04-19T15:32:25.603Z</time></trkpt><trkpt lat="46.02491186902888" lon="12.295946956939801"><ele>166.0</ele><time>2026-04-19T15:32:26.603Z</time></trkpt><trkpt lat="46.02476143287071" lon="12.295798332508687"><ele>165.0</ele><time>2026-04-19T15:32:27.603Z</time></trkpt><trkpt lat="46.02460996837001" lon="12.295681173650753"><ele>164.0</ele><time>2026-04-19T15:32:28.603Z</time></trkpt><trkpt lat="46.024473354474615" lon="12.29556411528207"><ele>164.25</ele><time>2026-04-19T15:32:29.603Z</time></trkpt><trkpt lat="46.02436120081732" lon="12.295451006048403"><ele>164.5</ele><time>2026-04-19T15:32:30.603Z</time></trkpt><trkpt lat="46.024243747931884" lon="12.295341788913644"><ele>164.75</ele><time>2026-04-19T15:32:31.603Z</time></trkpt><trkpt lat="46.02411834446404" lon="12.295234468352168"><ele>165.0</ele><time>2026-04-19T15:32:32.604Z</time></trkpt><trkpt lat="46.02398919148392" lon="12.295132695349842"><ele>165.0</ele><time>2026-04-19T15:32:33.604Z</time></trkpt><trkpt lat="46.023864511916805" lon="12.295043593936573"><ele>165.0</ele><time>2026-04-19T15:32:34.604Z</time></trkpt><trkpt lat="46.0237390760465" lon="12.294999263766616"><ele>165.0</ele><time>2026-04-19T15:32:35.604Z</time></trkpt><trkpt lat="46.02362181581568" lon="12.294953470906925"><ele>165.0</ele><time>2026-04-19T15:32:36.604Z</time></trkpt><trkpt lat="46.023512423248" lon="12.29491076262183"><ele>165.0</ele><time>2026-04-19T15:32:37.604Z</time></trkpt><trkpt lat="46.0234191416294" lon="12.294832211618013"><ele>165.0</ele><time>2026-04-19T15:32:38.604Z</time></trkpt><trkpt lat="46.02333594593723" lon="12.294766455616987"><ele>165.0</ele><time>2026-04-19T15:32:39.604Z</time></trkpt><trkpt lat="46.02325691393286" lon="12.294678098796371"><ele>165.0</ele><time>2026-04-19T15:32:40.604Z</time></trkpt><trkpt lat="46.02316794135178" lon="12.294565854601798"><ele>165.0</ele><time>2026-04-19T15:32:41.604Z</time></trkpt><trkpt lat="46.02307809438279" lon="12.294440276506695"><ele>164.5</ele><time>2026-04-19T15:32:42.604Z</time></trkpt><trkpt lat="46.02298515152237" lon="12.294308328143082"><ele>164.0</ele><time>2026-04-19T15:32:43.604Z</time></trkpt><trkpt lat="46.02287509219713" lon="12.294179675291874"><ele>163.5</ele><time>2026-04-19T15:32:44.604Z</time></trkpt><trkpt lat="46.02277922279107" lon="12.294043049881768"><ele>163.0</ele><time>2026-04-19T15:32:45.604Z</time></trkpt><trkpt lat="46.022674318528395" lon="12.29387603666042"><ele>164.0</ele><time>2026-04-19T15:32:46.604Z</time></trkpt><trkpt lat="46.02255517364773" lon="12.293697399888178"><ele>165.0</ele><time>2026-04-19T15:32:47.604Z</time></trkpt><trkpt lat="46.022422435432595" lon="12.293510596701786"><ele>166.0</ele><time>2026-04-19T15:32:48.604Z</time></trkpt><trkpt lat="46.02228531161149" lon="12.293324020133884"><ele>166.0</ele><time>2026-04-19T15:32:49.604Z</time></trkpt><trkpt lat="46.02215928426758" lon="12.293147507565527"><ele>166.0</ele><time>2026-04-19T15:32:50.604Z</time></trkpt><trkpt lat="46.02203835292126" lon="12.292985121412878"><ele>166.0</ele><time>2026-04-19T15:32:51.604Z</time></trkpt><trkpt lat="46.02192274153118" lon="12.292832031733694"><ele>165.66666666666669</ele><time>2026-04-19T15:32:52.604Z</time></trkpt><trkpt lat="46.02182543073499" lon="12.292667125710544"><ele>165.33333333333334</ele><time>2026-04-19T15:32:53.604Z</time></trkpt><trkpt lat="46.02170964574387" lon="12.292521757801913"><ele>165.0</ele><time>2026-04-19T15:32:54.604Z</time></trkpt><trkpt lat="46.02159933811184" lon="12.29237123226857"><ele>166.25</ele><time>2026-04-19T15:32:55.604Z</time></trkpt><trkpt lat="46.021486698146035" lon="12.292234855927557"><ele>167.5</ele><time>2026-04-19T15:32:56.604Z</time></trkpt><trkpt lat="46.02137717848796" lon="12.29208980619883"><ele>168.75</ele><time>2026-04-19T15:32:57.604Z</time></trkpt><trkpt lat="46.02127895329961" lon="12.29193770927662"><ele>170.0</ele><time>2026-04-19T15:32:58.604Z</time></trkpt><trkpt lat="46.02117929855556" lon="12.291788451454625"><ele>170.0</ele><time>2026-04-19T15:32:59.604Z</time></trkpt><trkpt lat="46.02109083358875" lon="12.291634560486688"><ele>170.0</ele><time>2026-04-19T15:33:00.604Z</time></trkpt><trkpt lat="46.02101131875498" lon="12.291481189209021"><ele>170.0</ele><time>2026-04-19T15:33:01.604Z</time></trkpt><trkpt lat="46.02095016075598" lon="12.291316992432675"><ele>170.0</ele><time>2026-04-19T15:33:02.604Z</time></trkpt><trkpt lat="46.020910078802274" lon="12.29115344956501"><ele>172.33333333333331</ele><time>2026-04-19T15:33:03.604Z</time></trkpt><trkpt lat="46.02088784030696" lon="12.290973414586846"><ele>174.66666666666666</ele><time>2026-04-19T15:33:04.604Z</time></trkpt><trkpt lat="46.02088507973418" lon="12.290750302979536"><ele>177.0</ele><time>2026-04-19T15:33:05.604Z</time></trkpt><trkpt lat="46.02089046438254" lon="12.290490772194744"><ele>178.66666666666666</ele><time>2026-04-19T15:33:06.604Z</time></trkpt><trkpt lat="46.02090780217458" lon="12.29026505987398"><ele>180.33333333333331</ele><time>2026-04-19T15:33:07.604Z</time></trkpt><trkpt lat="46.020889289417376" lon="12.290053175739827"><ele>182.0</ele><time>2026-04-19T15:33:08.604Z</time></trkpt><trkpt lat="46.020837387204914" lon="12.289842270862675"><ele>184.0</ele><time>2026-04-19T15:33:09.604Z</time></trkpt><trkpt lat="46.02075585626907" lon="12.289645777633037"><ele>186.0</ele><time>2026-04-19T15:33:10.604Z</time></trkpt><trkpt lat="46.020641602784615" lon="12.289475675212172"><ele>188.0</ele><time>2026-04-19T15:33:11.604Z</time></trkpt><trkpt lat="46.02052016926846" lon="12.289288978317888"><ele>188.0</ele><time>2026-04-19T15:33:12.604Z</time></trkpt><trkpt lat="46.02036534721698" lon="12.289102103930768"><ele>188.0</ele><time>2026-04-19T15:33:13.604Z</time></trkpt><trkpt lat="46.02019834880898" lon="12.28890365044089"><ele>188.0</ele><time>2026-04-19T15:33:14.604Z</time></trkpt><trkpt lat="46.01997958724423" lon="12.288726782936479"><ele>186.66666666666666</ele><time>2026-04-19T15:33:15.604Z</time></trkpt><trkpt lat="46.0197949373372" lon="12.288577808852013"><ele>185.33333333333334</ele><time>2026-04-19T15:33:16.604Z</time></trkpt><trkpt lat="46.01962925478317" lon="12.288433918013341"><ele>184.0</ele><time>2026-04-19T15:33:17.604Z</time></trkpt><trkpt lat="46.01947374524034" lon="12.288291587370816"><ele>184.0</ele><time>2026-04-19T15:33:18.604Z</time></trkpt><trkpt lat="46.01932027559979" lon="12.288141438754534"><ele>184.0</ele><time>2026-04-19T15:33:19.604Z</time></trkpt><trkpt lat="46.019202025263816" lon="12.287975301784531"><ele>184.0</ele><time>2026-04-19T15:33:20.604Z</time></trkpt><trkpt lat="46.019098384440184" lon="12.287802955683686"><ele>184.33333333333334</ele><time>2026-04-19T15:33:21.604Z</time></trkpt><trkpt lat="46.018979928209504" lon="12.287626812587275"><ele>184.66666666666666</ele><time>2026-04-19T15:33:22.604Z</time></trkpt><trkpt lat="46.01889287465595" lon="12.287450548091664"><ele>185.0</ele><time>2026-04-19T15:33:23.604Z</time></trkpt><trkpt lat="46.018829031245104" lon="12.287267779240523"><ele>185.5</ele><time>2026-04-19T15:33:24.604Z</time></trkpt><trkpt lat="46.0187900329637" lon="12.28708995706102"><ele>186.0</ele><time>2026-04-19T15:33:25.604Z</time></trkpt><trkpt lat="46.01877798207438" lon="12.28691088137396"><ele>186.5</ele><time>2026-04-19T15:33:26.604Z</time></trkpt><trkpt lat="46.018783065639624" lon="12.28673423743774"><ele>187.0</ele><time>2026-04-19T15:33:27.604Z</time></trkpt><trkpt lat="46.01877246224957" lon="12.286569533600137"><ele>188.16666666666669</ele><time>2026-04-19T15:33:28.604Z</time></trkpt><trkpt lat="46.01875796415827" lon="12.286417016573775"><ele>189.33333333333334</ele><time>2026-04-19T15:33:29.604Z</time></trkpt><trkpt lat="46.01872340008452" lon="12.286289220317492"><ele>190.5</ele><time>2026-04-19T15:33:30.604Z</time></trkpt><trkpt lat="46.018705240561346" lon="12.28617667162385"><ele>191.66666666666669</ele><time>2026-04-19T15:33:31.604Z</time></trkpt><trkpt lat="46.0186796649853" lon="12.286077735878298"><ele>192.83333333333334</ele><time>2026-04-19T15:33:32.604Z</time></trkpt><trkpt lat="46.01865869018362" lon="12.285991405745811"><ele>194.0</ele><time>2026-04-19T15:33:33.604Z</time></trkpt><trkpt lat="46.01862759775714" lon="12.285826591412222"><ele>194.00000000000003</ele><time>2026-04-19T15:33:35.604Z</time></trkpt><trkpt lat="46.0186079641184" lon="12.285723913716005"><ele>194.0</ele><time>2026-04-19T15:33:36.604Z</time></trkpt><trkpt lat="46.018563028618686" lon="12.285606437662693"><ele>194.0</ele><time>2026-04-19T15:33:37.604Z</time></trkpt><trkpt lat="46.018535055745424" lon="12.2854797713227"><ele>194.0</ele><time>2026-04-19T15:33:38.604Z</time></trkpt><trkpt lat="46.01850465603792" lon="12.285361167668936"><ele>194.00000000000003</ele><time>2026-04-19T15:33:39.604Z</time></trkpt><trkpt lat="46.01847878876587" lon="12.28526115369473"><ele>194.0</ele><time>2026-04-19T15:33:40.604Z</time></trkpt><trkpt lat="46.01844475408236" lon="12.285173996325677"><ele>194.2</ele><time>2026-04-19T15:33:41.604Z</time></trkpt><trkpt lat="46.018389917287514" lon="12.28510384266897"><ele>194.39999999999998</ele><time>2026-04-19T15:33:44.604Z</time></trkpt><trkpt lat="46.018291993596264" lon="12.284960361643694"><ele>194.6</ele><time>2026-04-19T15:33:47.604Z</time></trkpt><trkpt lat="46.01819976412457" lon="12.284883506656746"><ele>194.8</ele><time>2026-04-19T15:33:48.604Z</time></trkpt><trkpt lat="46.01812001518156" lon="12.284819587769896"><ele>195.0</ele><time>2026-04-19T15:33:49.604Z</time></trkpt><trkpt lat="46.01806151557451" lon="12.28471989402985"><ele>197.0</ele><time>2026-04-19T15:33:50.604Z</time></trkpt><trkpt lat="46.017967228432646" lon="12.284684227657287"><ele>199.0</ele><time>2026-04-19T15:33:51.604Z</time></trkpt><trkpt lat="46.0178508108253" lon="12.284664041780394"><ele>201.0</ele><time>2026-04-19T15:33:52.604Z</time></trkpt><trkpt lat="46.01774183499158" lon="12.284673551781037"><ele>203.0</ele><time>2026-04-19T15:33:53.604Z</time></trkpt><trkpt lat="46.01762377035611" lon="12.284701258286507"><ele>205.0</ele><time>2026-04-19T15:33:54.604Z</time></trkpt><trkpt lat="46.01749426710351" lon="12.284744250058251"><ele>201.5</ele><time>2026-04-19T15:33:55.604Z</time></trkpt><trkpt lat="46.01736202451297" lon="12.284799259509974"><ele>198.0</ele><time>2026-04-19T15:33:56.604Z</time></trkpt><trkpt lat="46.01724288301857" lon="12.28483417079955"><ele>194.5</ele><time>2026-04-19T15:33:57.604Z</time></trkpt><trkpt lat="46.017131656515936" lon="12.284850616047756"><ele>191.0</ele><time>2026-04-19T15:33:58.604Z</time></trkpt><trkpt lat="46.01701168718747" lon="12.284833300771345"><ele>191.0</ele><time>2026-04-19T15:33:59.604Z</time></trkpt><trkpt lat="46.01688772630654" lon="12.284779049694714"><ele>191.0</ele><time>2026-04-19T15:34:00.604Z</time></trkpt><trkpt lat="46.01676554351574" lon="12.28467096124285"><ele>191.0</ele><time>2026-04-19T15:34:01.604Z</time></trkpt><trkpt lat="46.01661867610101" lon="12.28453055134159"><ele>191.0</ele><time>2026-04-19T15:34:02.604Z</time></trkpt><trkpt lat="46.01644703672868" lon="12.284326269118276"><ele>191.0</ele><time>2026-04-19T15:34:03.604Z</time></trkpt><trkpt lat="46.01629039834038" lon="12.284109990609222"><ele>191.0</ele><time>2026-04-19T15:34:04.604Z</time></trkpt><trkpt lat="46.01613383761696" lon="12.283919378928061"><ele>191.0</ele><time>2026-04-19T15:34:05.604Z</time></trkpt><trkpt lat="46.015991205607214" lon="12.283729762767392"><ele>191.0</ele><time>2026-04-19T15:34:06.604Z</time></trkpt><trkpt lat="46.01583793965515" lon="12.28352790566065"><ele>191.0</ele><time>2026-04-19T15:34:07.604Z</time></trkpt><trkpt lat="46.01567982228276" lon="12.283315286823395"><ele>191.0</ele><time>2026-04-19T15:34:08.604Z</time></trkpt><trkpt lat="46.01549856341539" lon="12.283070135290297"><ele>190.5</ele><time>2026-04-19T15:34:09.604Z</time></trkpt><trkpt lat="46.01531449488576" lon="12.282800577918442"><ele>190.0</ele><time>2026-04-19T15:34:10.604Z</time></trkpt><trkpt lat="46.01513650291687" lon="12.282536276120982"><ele>190.0</ele><time>2026-04-19T15:34:11.604Z</time></trkpt><trkpt lat="46.01499618708911" lon="12.282293685619248"><ele>190.0</ele><time>2026-04-19T15:34:12.604Z</time></trkpt><trkpt lat="46.01486194609376" lon="12.282085254110942"><ele>190.0</ele><time>2026-04-19T15:34:13.604Z</time></trkpt><trkpt lat="46.01473702770886" lon="12.281885931803611"><ele>190.66666666666669</ele><time>2026-04-19T15:34:14.604Z</time></trkpt><trkpt lat="46.01461409760443" lon="12.281692950103121"><ele>191.33333333333334</ele><time>2026-04-19T15:34:15.604Z</time></trkpt><trkpt lat="46.01449034264609" lon="12.281503919559066"><ele>192.0</ele><time>2026-04-19T15:34:16.604Z</time></trkpt><trkpt lat="46.014367080522234" lon="12.281322556958525"><ele>193.66666666666669</ele><time>2026-04-19T15:34:17.604Z</time></trkpt><trkpt lat="46.01424262980195" lon="12.281145769597252"><ele>195.33333333333334</ele><time>2026-04-19T15:34:18.604Z</time></trkpt><trkpt lat="46.0141186334264" lon="12.280978833288044"><ele>197.0</ele><time>2026-04-19T15:34:19.604Z</time></trkpt><trkpt lat="46.013984450949025" lon="12.280790777434602"><ele>197.0</ele><time>2026-04-19T15:34:20.604Z</time></trkpt><trkpt lat="46.01383951147701" lon="12.280605741461907"><ele>197.0</ele><time>2026-04-19T15:34:21.604Z</time></trkpt><trkpt lat="46.01370149367286" lon="12.280434612497995"><ele>197.0</ele><time>2026-04-19T15:34:22.604Z</time></trkpt><trkpt lat="46.01356023725394" lon="12.280271316228102"><ele>198.0</ele><time>2026-04-19T15:34:23.604Z</time></trkpt><trkpt lat="46.01340125741403" lon="12.280078276850624"><ele>199.0</ele><time>2026-04-19T15:34:24.604Z</time></trkpt><trkpt lat="46.01323596766611" lon="12.279875869463261"><ele>200.0</ele><time>2026-04-19T15:34:25.604Z</time></trkpt><trkpt lat="46.01308606994342" lon="12.279676873452225"><ele>202.5</ele><time>2026-04-19T15:34:26.604Z</time></trkpt><trkpt lat="46.01291130372376" lon="12.279468868739436"><ele>205.0</ele><time>2026-04-19T15:34:27.604Z</time></trkpt><trkpt lat="46.012720144604366" lon="12.279259785749984"><ele>205.0</ele><time>2026-04-19T15:34:28.604Z</time></trkpt><trkpt lat="46.01252006632442" lon="12.27905268965954"><ele>205.0</ele><time>2026-04-19T15:34:29.604Z</time></trkpt><trkpt lat="46.01230756423242" lon="12.278837206107033"><ele>204.0</ele><time>2026-04-19T15:34:30.604Z</time></trkpt><trkpt lat="46.01207889372188" lon="12.278620937586549"><ele>203.0</ele><time>2026-04-19T15:34:31.604Z</time></trkpt><trkpt lat="46.01183910610937" lon="12.278415356637185"><ele>200.0</ele><time>2026-04-19T15:34:32.604Z</time></trkpt><trkpt lat="46.011583040413825" lon="12.278221175736594"><ele>197.0</ele><time>2026-04-19T15:34:33.604Z</time></trkpt><trkpt lat="46.01133985038281" lon="12.278023948449619"><ele>197.0</ele><time>2026-04-19T15:34:34.604Z</time></trkpt><trkpt lat="46.011104810399665" lon="12.277820989361004"><ele>197.0</ele><time>2026-04-19T15:34:35.604Z</time></trkpt><trkpt lat="46.0108531751684" lon="12.277647557810614"><ele>191.0</ele><time>2026-04-19T15:34:36.604Z</time></trkpt><trkpt lat="46.0106079243064" lon="12.277482531418508"><ele>185.0</ele><time>2026-04-19T15:34:37.604Z</time></trkpt><trkpt lat="46.01035415194638" lon="12.277322320906832"><ele>185.0</ele><time>2026-04-19T15:34:38.605Z</time></trkpt><trkpt lat="46.01008169399904" lon="12.277142234395004"><ele>185.0</ele><time>2026-04-19T15:34:39.605Z</time></trkpt><trkpt lat="46.009814455624216" lon="12.276988772302985"><ele>183.5</ele><time>2026-04-19T15:34:40.605Z</time></trkpt><trkpt lat="46.00954600239713" lon="12.276840931305008"><ele>182.0</ele><time>2026-04-19T15:34:41.605Z</time></trkpt><trkpt lat="46.00927819169844" lon="12.276689657801521"><ele>180.5</ele><time>2026-04-19T15:34:42.605Z</time></trkpt><trkpt lat="46.00901884974292" lon="12.276538896331944"><ele>179.0</ele><time>2026-04-19T15:34:43.605Z</time></trkpt><trkpt lat="46.008736737750446" lon="12.276403290555603"><ele>179.0</ele><time>2026-04-19T15:34:44.605Z</time></trkpt><trkpt lat="46.008443419670094" lon="12.276271251066193"><ele>179.0</ele><time>2026-04-19T15:34:45.605Z</time></trkpt><trkpt lat="46.00814841885268" lon="12.276150515270794"><ele>179.5</ele><time>2026-04-19T15:34:46.605Z</time></trkpt><trkpt lat="46.00785727640292" lon="12.276041848097359"><ele>180.0</ele><time>2026-04-19T15:34:47.605Z</time></trkpt><trkpt lat="46.00756862929436" lon="12.275954194772735"><ele>179.0</ele><time>2026-04-19T15:34:48.605Z</time></trkpt><trkpt lat="46.00727216739509" lon="12.275852563454952"><ele>178.0</ele><time>2026-04-19T15:34:49.605Z</time></trkpt><trkpt lat="46.00698000796776" lon="12.275764551449813"><ele>178.0</ele><time>2026-04-19T15:34:50.605Z</time></trkpt><trkpt lat="46.00668777482394" lon="12.275682313277098"><ele>178.0</ele><time>2026-04-19T15:34:51.605Z</time></trkpt><trkpt lat="46.006399502154856" lon="12.275601484368265"><ele>178.0</ele><time>2026-04-19T15:34:52.605Z</time></trkpt><trkpt lat="46.00610829775853" lon="12.275517170057428"><ele>178.0</ele><time>2026-04-19T15:34:53.605Z</time></trkpt><trkpt lat="46.00582395685151" lon="12.275434800170826"><ele>178.0</ele><time>2026-04-19T15:34:54.605Z</time></trkpt><trkpt lat="46.00553513617032" lon="12.27535405351347"><ele>178.0</ele><time>2026-04-19T15:34:55.605Z</time></trkpt><trkpt lat="46.00524681661276" lon="12.275273567547833"><ele>184.0</ele><time>2026-04-19T15:34:56.605Z</time></trkpt><trkpt lat="46.00496002415679" lon="12.275191620678688"><ele>190.0</ele><time>2026-04-19T15:34:57.605Z</time></trkpt><trkpt lat="46.00466703192305" lon="12.275106129685515"><ele>190.0</ele><time>2026-04-19T15:34:58.605Z</time></trkpt><trkpt lat="46.00436794342824" lon="12.27502304170645"><ele>190.0</ele><time>2026-04-19T15:34:59.605Z</time></trkpt><trkpt lat="46.00406949984556" lon="12.274938725411166"><ele>190.0</ele><time>2026-04-19T15:35:00.605Z</time></trkpt><trkpt lat="46.00377359292823" lon="12.27485088398986"><ele>190.0</ele><time>2026-04-19T15:35:01.605Z</time></trkpt><trkpt lat="46.003477602760505" lon="12.274769484321846"><ele>193.5</ele><time>2026-04-19T15:35:02.605Z</time></trkpt><trkpt lat="46.00317600760405" lon="12.27468296485417"><ele>197.0</ele><time>2026-04-19T15:35:03.605Z</time></trkpt><trkpt lat="46.00287585016809" lon="12.274588516641039"><ele>197.0</ele><time>2026-04-19T15:35:04.605Z</time></trkpt><trkpt lat="46.00257387773108" lon="12.274488529341953"><ele>197.0</ele><time>2026-04-19T15:35:05.605Z</time></trkpt><trkpt lat="46.002278911196505" lon="12.274391770146957"><ele>204.5</ele><time>2026-04-19T15:35:06.605Z</time></trkpt><trkpt lat="46.002004151368766" lon="12.274318938338237"><ele>212.0</ele><time>2026-04-19T15:35:07.605Z</time></trkpt><trkpt lat="46.001726505677524" lon="12.274246433435454"><ele>229.0</ele><time>2026-04-19T15:35:08.605Z</time></trkpt><trkpt lat="46.001448383985675" lon="12.274174661556854"><ele>246.0</ele><time>2026-04-19T15:35:09.605Z</time></trkpt><trkpt lat="46.00116102925556" lon="12.274118039335793"><ele>246.0</ele><time>2026-04-19T15:35:10.605Z</time></trkpt><trkpt lat="46.00086510036425" lon="12.274064953777753"><ele>246.0</ele><time>2026-04-19T15:35:11.605Z</time></trkpt><trkpt lat="46.000567664231774" lon="12.274014043789553"><ele>248.0</ele><time>2026-04-19T15:35:12.605Z</time></trkpt><trkpt lat="46.00026286488018" lon="12.27396337929916"><ele>250.0</ele><time>2026-04-19T15:35:13.616Z</time></trkpt><trkpt lat="45.99995725076214" lon="12.273918564642942"><ele>250.0</ele><time>2026-04-19T15:35:14.618Z</time></trkpt><trkpt lat="45.99964619616187" lon="12.273879384948934"><ele>250.0</ele><time>2026-04-19T15:35:15.619Z</time></trkpt><trkpt lat="45.99933217223225" lon="12.27384978639616"><ele>250.0</ele><time>2026-04-19T15:35:16.623Z</time></trkpt><trkpt lat="45.98354571968874" lon="12.27578007617246"><ele>249.66666666666666</ele><time>2026-04-19T15:36:10.605Z</time></trkpt><trkpt lat="45.983227495881316" lon="12.27586484507267"><ele>249.33333333333331</ele><time>2026-04-19T15:36:11.605Z</time></trkpt><trkpt lat="45.98316386844127" lon="12.276019567333616"><ele>249.0</ele><time>2026-04-19T15:36:12.605Z</time></trkpt><trkpt lat="45.982850146732694" lon="12.276259960425937"><ele>249.0</ele><time>2026-04-19T15:36:13.605Z</time></trkpt><trkpt lat="45.98261991556982" lon="12.27641939894982"><ele>249.0</ele><time>2026-04-19T15:36:14.605Z</time></trkpt><trkpt lat="45.9824141244879" lon="12.276661931530523"><ele>245.0</ele><time>2026-04-19T15:36:15.605Z</time></trkpt><trkpt lat="45.982200791791314" lon="12.276819629341034"><ele>241.0</ele><time>2026-04-19T15:36:16.605Z</time></trkpt><trkpt lat="45.9820069598554" lon="12.277109014399574"><ele>244.0</ele><time>2026-04-19T15:36:17.605Z</time></trkpt><trkpt lat="45.981806326035006" lon="12.277321061923493"><ele>247.0</ele><time>2026-04-19T15:36:18.605Z</time></trkpt><trkpt lat="45.98161111525715" lon="12.277624999884369"><ele>240.0</ele><time>2026-04-19T15:36:19.605Z</time></trkpt><trkpt lat="45.98138476449708" lon="12.27793694450642"><ele>233.0</ele><time>2026-04-19T15:36:20.605Z</time></trkpt><trkpt lat="45.98117271430673" lon="12.278303630956144"><ele>233.0</ele><time>2026-04-19T15:36:21.605Z</time></trkpt><trkpt lat="45.980966877171106" lon="12.278614605454427"><ele>233.0</ele><time>2026-04-19T15:36:22.605Z</time></trkpt><trkpt lat="45.9807564873637" lon="12.278910251398463"><ele>230.0</ele><time>2026-04-19T15:36:23.605Z</time></trkpt><trkpt lat="45.980561711116295" lon="12.279217825872909"><ele>227.0</ele><time>2026-04-19T15:36:24.605Z</time></trkpt><trkpt lat="45.98036739967082" lon="12.27949619377126"><ele>227.0</ele><time>2026-04-19T15:36:25.605Z</time></trkpt><trkpt lat="45.98019948984942" lon="12.279758054943118"><ele>227.0</ele><time>2026-04-19T15:36:26.605Z</time></trkpt><trkpt lat="45.980014938977796" lon="12.280040529782019"><ele>226.0</ele><time>2026-04-19T15:36:27.605Z</time></trkpt><trkpt lat="45.97983045314493" lon="12.280324424127555"><ele>225.0</ele><time>2026-04-19T15:36:28.605Z</time></trkpt><trkpt lat="45.97965348611575" lon="12.280611253876481"><ele>225.0</ele><time>2026-04-19T15:36:29.605Z</time></trkpt><trkpt lat="45.979475179707606" lon="12.280868263839436"><ele>225.0</ele><time>2026-04-19T15:36:30.605Z</time></trkpt><trkpt lat="45.97929645070215" lon="12.281108453052433"><ele>212.0</ele><time>2026-04-19T15:36:31.605Z</time></trkpt><trkpt lat="45.97907926964385" lon="12.28133028893"><ele>199.0</ele><time>2026-04-19T15:36:32.605Z</time></trkpt><trkpt lat="45.97889968636746" lon="12.28156123847696"><ele>198.33333333333331</ele><time>2026-04-19T15:36:33.605Z</time></trkpt><trkpt lat="45.978724139776666" lon="12.281754054061345"><ele>197.66666666666669</ele><time>2026-04-19T15:36:34.605Z</time></trkpt><trkpt lat="45.978532189590524" lon="12.281919528795946"><ele>197.0</ele><time>2026-04-19T15:36:35.605Z</time></trkpt><trkpt lat="45.97831907093356" lon="12.282044892567441"><ele>193.0</ele><time>2026-04-19T15:36:36.605Z</time></trkpt><trkpt lat="45.9781046552768" lon="12.282198171555734"><ele>189.0</ele><time>2026-04-19T15:36:37.605Z</time></trkpt><trkpt lat="45.9778663196185" lon="12.282292502938253"><ele>186.5</ele><time>2026-04-19T15:36:38.605Z</time></trkpt><trkpt lat="45.97762438844661" lon="12.282384516140919"><ele>184.0</ele><time>2026-04-19T15:36:39.605Z</time></trkpt><trkpt lat="45.977379596147856" lon="12.282468316830467"><ele>182.5</ele><time>2026-04-19T15:36:40.605Z</time></trkpt><trkpt lat="45.97712630749652" lon="12.282533782112798"><ele>181.0</ele><time>2026-04-19T15:36:41.605Z</time></trkpt><trkpt lat="45.97685095846762" lon="12.282565629597368"><ele>188.5</ele><time>2026-04-19T15:36:42.605Z</time></trkpt><trkpt lat="45.97655035843184" lon="12.282561925457633"><ele>196.0</ele><time>2026-04-19T15:36:43.605Z</time></trkpt><trkpt lat="45.97624100632283" lon="12.282545308709318"><ele>196.0</ele><time>2026-04-19T15:36:44.606Z</time></trkpt><trkpt lat="45.97590896425983" lon="12.282533614556502"><ele>196.0</ele><time>2026-04-19T15:36:45.606Z</time></trkpt><trkpt lat="45.975597006678505" lon="12.282540801683862"><ele>196.5</ele><time>2026-04-19T15:36:46.606Z</time></trkpt><trkpt lat="45.975292937965165" lon="12.28256072258769"><ele>197.0</ele><time>2026-04-19T15:36:47.606Z</time></trkpt><trkpt lat="45.975002334287595" lon="12.282577519912573"><ele>197.0</ele><time>2026-04-19T15:36:48.606Z</time></trkpt><trkpt lat="45.97473358118812" lon="12.282609075725718"><ele>197.0</ele><time>2026-04-19T15:36:49.606Z</time></trkpt><trkpt lat="45.97448537062739" lon="12.282705121738198"><ele>197.0</ele><time>2026-04-19T15:36:50.606Z</time></trkpt><trkpt lat="45.97425283217491" lon="12.282771834215744"><ele>197.0</ele><time>2026-04-19T15:36:51.606Z</time></trkpt><trkpt lat="45.97401847548095" lon="12.28291118275923"><ele>193.0</ele><time>2026-04-19T15:36:52.606Z</time></trkpt><trkpt lat="45.97376972279806" lon="12.28303943418536"><ele>189.0</ele><time>2026-04-19T15:36:53.606Z</time></trkpt><trkpt lat="45.97355045278339" lon="12.283204179666347"><ele>179.0</ele><time>2026-04-19T15:36:54.606Z</time></trkpt><trkpt lat="45.97333459019481" lon="12.283393606159727"><ele>169.0</ele><time>2026-04-19T15:36:55.606Z</time></trkpt><trkpt lat="45.97312554634612" lon="12.28362184868928"><ele>169.0</ele><time>2026-04-19T15:36:56.606Z</time></trkpt><trkpt lat="45.97291028788468" lon="12.283860820412757"><ele>169.0</ele><time>2026-04-19T15:36:57.606Z</time></trkpt><trkpt lat="45.9727068340252" lon="12.284143028282852"><ele>173.0</ele><time>2026-04-19T15:36:58.606Z</time></trkpt><trkpt lat="45.97250754495925" lon="12.284424812364573"><ele>177.0</ele><time>2026-04-19T15:36:59.606Z</time></trkpt><trkpt lat="45.9723191294801" lon="12.284689898542192"><ele>174.5</ele><time>2026-04-19T15:37:00.606Z</time></trkpt><trkpt lat="45.972126834207415" lon="12.284951472487283"><ele>172.0</ele><time>2026-04-19T15:37:01.606Z</time></trkpt><trkpt lat="45.97192668937084" lon="12.285207554663627"><ele>172.0</ele><time>2026-04-19T15:37:02.606Z</time></trkpt><trkpt lat="45.97172884250718" lon="12.285464429658251"><ele>172.0</ele><time>2026-04-19T15:37:03.606Z</time></trkpt><trkpt lat="45.971526969358855" lon="12.285695081271946"><ele>175.5</ele><time>2026-04-19T15:37:04.606Z</time></trkpt><trkpt lat="45.97132067192545" lon="12.285905280306347"><ele>179.0</ele><time>2026-04-19T15:37:05.606Z</time></trkpt><trkpt lat="45.97111031440615" lon="12.286095254322191"><ele>179.0</ele><time>2026-04-19T15:37:06.606Z</time></trkpt><trkpt lat="45.97089541572133" lon="12.286247852039095"><ele>179.0</ele><time>2026-04-19T15:37:07.606Z</time></trkpt><trkpt lat="45.970689561026674" lon="12.286385243178474"><ele>174.0</ele><time>2026-04-19T15:37:08.606Z</time></trkpt><trkpt lat="45.97046483639486" lon="12.286520634607477"><ele>169.0</ele><time>2026-04-19T15:37:09.606Z</time></trkpt><trkpt lat="45.97023486413129" lon="12.28662182045183"><ele>166.5</ele><time>2026-04-19T15:37:10.606Z</time></trkpt><trkpt lat="45.96998752482269" lon="12.286681686223227"><ele>164.0</ele><time>2026-04-19T15:37:11.606Z</time></trkpt><trkpt lat="45.969750380508025" lon="12.286730449771428"><ele>164.0</ele><time>2026-04-19T15:37:12.606Z</time></trkpt><trkpt lat="45.96950905587533" lon="12.286764549909941"><ele>164.0</ele><time>2026-04-19T15:37:13.606Z</time></trkpt><trkpt lat="45.96926371120695" lon="12.286759402090162"><ele>160.0</ele><time>2026-04-19T15:37:14.606Z</time></trkpt><trkpt lat="45.9689682581372" lon="12.286597000218292"><ele>156.0</ele><time>2026-04-19T15:37:15.606Z</time></trkpt><trkpt lat="45.968673002906655" lon="12.286536058873184"><ele>156.0</ele><time>2026-04-19T15:37:16.606Z</time></trkpt><trkpt lat="45.96837928603464" lon="12.286459524513706"><ele>156.0</ele><time>2026-04-19T15:37:17.606Z</time></trkpt><trkpt lat="45.96809457588591" lon="12.286383522975754"><ele>158.0</ele><time>2026-04-19T15:37:18.606Z</time></trkpt><trkpt lat="45.9678003669688" lon="12.286304985930697"><ele>160.0</ele><time>2026-04-19T15:37:19.606Z</time></trkpt><trkpt lat="45.967479223945354" lon="12.286219258940084"><ele>160.0</ele><time>2026-04-19T15:37:20.606Z</time></trkpt><trkpt lat="45.96718314011619" lon="12.286140809537187"><ele>160.0</ele><time>2026-04-19T15:37:21.606Z</time></trkpt><trkpt lat="45.96689487589495" lon="12.28606676541935"><ele>156.5</ele><time>2026-04-19T15:37:22.606Z</time></trkpt><trkpt lat="45.96662502837335" lon="12.285999606498423"><ele>153.0</ele><time>2026-04-19T15:37:23.606Z</time></trkpt><trkpt lat="45.96634706977281" lon="12.28593042976958"><ele>153.0</ele><time>2026-04-19T15:37:24.606Z</time></trkpt><trkpt lat="45.96606821489394" lon="12.285861031081842"><ele>153.0</ele><time>2026-04-19T15:37:25.606Z</time></trkpt><trkpt lat="45.96578610609732" lon="12.285785086759853"><ele>149.0</ele><time>2026-04-19T15:37:26.606Z</time></trkpt><trkpt lat="45.96548865121316" lon="12.285780339559258"><ele>145.0</ele><time>2026-04-19T15:37:27.606Z</time></trkpt><trkpt lat="45.965204866550756" lon="12.285777863767782"><ele>142.0</ele><time>2026-04-19T15:37:28.606Z</time></trkpt><trkpt lat="45.96491689466194" lon="12.285796723388124"><ele>139.0</ele><time>2026-04-19T15:37:29.606Z</time></trkpt><trkpt lat="45.96462997930331" lon="12.285806777989036"><ele>139.0</ele><time>2026-04-19T15:37:30.606Z</time></trkpt><trkpt lat="45.96433188740779" lon="12.285848260824007"><ele>139.0</ele><time>2026-04-19T15:37:31.606Z</time></trkpt><trkpt lat="45.964047266199245" lon="12.285902924550813"><ele>139.5</ele><time>2026-04-19T15:37:32.606Z</time></trkpt><trkpt lat="45.96375657037321" lon="12.285966295215799"><ele>140.0</ele><time>2026-04-19T15:37:33.606Z</time></trkpt><trkpt lat="45.96347291515759" lon="12.286061881907585"><ele>139.0</ele><time>2026-04-19T15:37:34.606Z</time></trkpt><trkpt lat="45.96317848701194" lon="12.286172430567389"><ele>138.0</ele><time>2026-04-19T15:37:35.606Z</time></trkpt><trkpt lat="45.962884486964455" lon="12.28629656747893"><ele>138.0</ele><time>2026-04-19T15:37:36.606Z</time></trkpt><trkpt lat="45.96259583186244" lon="12.286438036098687"><ele>138.0</ele><time>2026-04-19T15:37:37.606Z</time></trkpt><trkpt lat="45.962308339223604" lon="12.286599591586127"><ele>140.0</ele><time>2026-04-19T15:37:38.606Z</time></trkpt><trkpt lat="45.96203610334052" lon="12.286783808069"><ele>142.0</ele><time>2026-04-19T15:37:39.606Z</time></trkpt><trkpt lat="45.96176462629462" lon="12.286973606824047"><ele>144.0</ele><time>2026-04-19T15:37:40.606Z</time></trkpt><trkpt lat="45.961495352176534" lon="12.28722337264166"><ele>146.0</ele><time>2026-04-19T15:37:41.606Z</time></trkpt><trkpt lat="45.961232924937136" lon="12.287431016566797"><ele>149.0</ele><time>2026-04-19T15:37:42.606Z</time></trkpt><trkpt lat="45.96098543484664" lon="12.28766923236985"><ele>152.0</ele><time>2026-04-19T15:37:43.606Z</time></trkpt><trkpt lat="45.96074232021056" lon="12.287922842292357"><ele>154.5</ele><time>2026-04-19T15:37:44.606Z</time></trkpt><trkpt lat="45.96049312779948" lon="12.288189051343133"><ele>157.0</ele><time>2026-04-19T15:37:45.606Z</time></trkpt><trkpt lat="45.96024525058659" lon="12.28846389604097"><ele>154.5</ele><time>2026-04-19T15:37:46.606Z</time></trkpt><trkpt lat="45.96000132676313" lon="12.288724097692786"><ele>152.0</ele><time>2026-04-19T15:37:47.606Z</time></trkpt><trkpt lat="45.95975108233365" lon="12.288969201968394"><ele>152.0</ele><time>2026-04-19T15:37:48.606Z</time></trkpt><trkpt lat="45.95949484972653" lon="12.28916682221946"><ele>152.0</ele><time>2026-04-19T15:37:49.606Z</time></trkpt><trkpt lat="45.95925652482192" lon="12.289418530562388"><ele>152.5</ele><time>2026-04-19T15:37:50.606Z</time></trkpt><trkpt lat="45.959007545287996" lon="12.289646439687841"><ele>153.0</ele><time>2026-04-19T15:37:51.606Z</time></trkpt><trkpt lat="45.95875993415685" lon="12.28987024763109"><ele>152.5</ele><time>2026-04-19T15:37:52.606Z</time></trkpt><trkpt lat="45.95852183390411" lon="12.290096027745856"><ele>152.0</ele><time>2026-04-19T15:37:53.606Z</time></trkpt><trkpt lat="45.95828418593017" lon="12.290324126662814"><ele>152.0</ele><time>2026-04-19T15:37:54.606Z</time></trkpt><trkpt lat="45.9580425346819" lon="12.290554676641419"><ele>152.0</ele><time>2026-04-19T15:37:55.606Z</time></trkpt><trkpt lat="45.95780260070725" lon="12.290798588535825"><ele>152.0</ele><time>2026-04-19T15:37:56.606Z</time></trkpt><trkpt lat="45.957575031213345" lon="12.29102627280209"><ele>152.0</ele><time>2026-04-19T15:37:57.606Z</time></trkpt><trkpt lat="45.957325363358684" lon="12.291210161253682"><ele>152.5</ele><time>2026-04-19T15:37:58.606Z</time></trkpt><trkpt lat="45.95707459387093" lon="12.291391219679683"><ele>153.0</ele><time>2026-04-19T15:37:59.606Z</time></trkpt><trkpt lat="45.956827813598856" lon="12.291546786832237"><ele>150.0</ele><time>2026-04-19T15:38:00.606Z</time></trkpt><trkpt lat="45.956556545308985" lon="12.291681543355736"><ele>147.0</ele><time>2026-04-19T15:38:01.606Z</time></trkpt><trkpt lat="45.956279380568226" lon="12.291799331925004"><ele>147.0</ele><time>2026-04-19T15:38:02.606Z</time></trkpt><trkpt lat="45.956006145380826" lon="12.291903699951094"><ele>147.0</ele><time>2026-04-19T15:38:03.606Z</time></trkpt><trkpt lat="45.95573944546158" lon="12.292003526031486"><ele>148.5</ele><time>2026-04-19T15:38:04.606Z</time></trkpt><trkpt lat="45.955484837204274" lon="12.292121299172909"><ele>150.0</ele><time>2026-04-19T15:38:05.606Z</time></trkpt><trkpt lat="45.95524085854762" lon="12.292238453804519"><ele>144.5</ele><time>2026-04-19T15:38:06.606Z</time></trkpt><trkpt lat="45.954993133063574" lon="12.292348745375756"><ele>139.0</ele><time>2026-04-19T15:38:07.606Z</time></trkpt><trkpt lat="45.9547485268679" lon="12.29245124043029"><ele>139.0</ele><time>2026-04-19T15:38:08.606Z</time></trkpt><trkpt lat="45.954511565516086" lon="12.292564074987023"><ele>139.0</ele><time>2026-04-19T15:38:09.606Z</time></trkpt><trkpt lat="45.95427494297157" lon="12.292701643524719"><ele>138.5</ele><time>2026-04-19T15:38:10.606Z</time></trkpt><trkpt lat="45.95404196169081" lon="12.292826874462119"><ele>138.0</ele><time>2026-04-19T15:38:11.606Z</time></trkpt><trkpt lat="45.953808594099264" lon="12.29295940470579"><ele>134.0</ele><time>2026-04-19T15:38:12.606Z</time></trkpt><trkpt lat="45.9535793486733" lon="12.29309536880047"><ele>130.0</ele><time>2026-04-19T15:38:13.606Z</time></trkpt><trkpt lat="45.95333903158091" lon="12.293265267338235"><ele>130.0</ele><time>2026-04-19T15:38:14.606Z</time></trkpt><trkpt lat="45.95309765370277" lon="12.293445496696107"><ele>130.0</ele><time>2026-04-19T15:38:15.606Z</time></trkpt><trkpt lat="45.95285153391375" lon="12.293636526484002"><ele>130.0</ele><time>2026-04-19T15:38:16.606Z</time></trkpt><trkpt lat="45.95260122990757" lon="12.293844812272768"><ele>130.0</ele><time>2026-04-19T15:38:17.606Z</time></trkpt><trkpt lat="45.95236550664308" lon="12.294073710981948"><ele>127.0</ele><time>2026-04-19T15:38:18.606Z</time></trkpt><trkpt lat="45.95212658330588" lon="12.294291731360714"><ele>124.0</ele><time>2026-04-19T15:38:19.606Z</time></trkpt><trkpt lat="45.951887250585244" lon="12.294526447084607"><ele>123.0</ele><time>2026-04-19T15:38:20.606Z</time></trkpt><trkpt lat="45.951650291676486" lon="12.294740435274395"><ele>122.0</ele><time>2026-04-19T15:38:21.606Z</time></trkpt><trkpt lat="45.951430474369566" lon="12.295010001437934"><ele>122.0</ele><time>2026-04-19T15:38:22.606Z</time></trkpt><trkpt lat="45.95120872284194" lon="12.295273409836023"><ele>122.0</ele><time>2026-04-19T15:38:23.606Z</time></trkpt><trkpt lat="45.95098448108156" lon="12.295547141062498"><ele>121.0</ele><time>2026-04-19T15:38:24.606Z</time></trkpt><trkpt lat="45.95075852440176" lon="12.295805909740617"><ele>120.0</ele><time>2026-04-19T15:38:25.606Z</time></trkpt><trkpt lat="45.950547249390596" lon="12.296085347368358"><ele>120.0</ele><time>2026-04-19T15:38:26.606Z</time></trkpt><trkpt lat="45.9503304431792" lon="12.29634236811438"><ele>120.0</ele><time>2026-04-19T15:38:27.606Z</time></trkpt><trkpt lat="45.95011825736687" lon="12.296598385558765"><ele>119.0</ele><time>2026-04-19T15:38:28.606Z</time></trkpt><trkpt lat="45.94990669892949" lon="12.29682894749518"><ele>118.0</ele><time>2026-04-19T15:38:29.606Z</time></trkpt><trkpt lat="45.94968812550686" lon="12.297072235849214"><ele>112.5</ele><time>2026-04-19T15:38:30.606Z</time></trkpt><trkpt lat="45.949450327145684" lon="12.297302197803162"><ele>107.0</ele><time>2026-04-19T15:38:31.606Z</time></trkpt><trkpt lat="45.9492093003207" lon="12.297539186821423"><ele>112.0</ele><time>2026-04-19T15:38:32.606Z</time></trkpt><trkpt lat="45.94894674945201" lon="12.297732853009753"><ele>117.0</ele><time>2026-04-19T15:38:33.606Z</time></trkpt><trkpt lat="45.9486838107747" lon="12.297938492359359"><ele>113.0</ele><time>2026-04-19T15:38:34.606Z</time></trkpt><trkpt lat="45.94841401696217" lon="12.298134401505354"><ele>109.0</ele><time>2026-04-19T15:38:35.606Z</time></trkpt><trkpt lat="45.948139731679746" lon="12.29832239332837"><ele>108.5</ele><time>2026-04-19T15:38:36.606Z</time></trkpt><trkpt lat="45.947859396949305" lon="12.298496807529084"><ele>108.0</ele><time>2026-04-19T15:38:37.606Z</time></trkpt><trkpt lat="45.947574980181656" lon="12.298671257325248"><ele>106.5</ele><time>2026-04-19T15:38:38.606Z</time></trkpt><trkpt lat="45.947288497887165" lon="12.2988460109192"><ele>105.0</ele><time>2026-04-19T15:38:39.606Z</time></trkpt><trkpt lat="45.947007556552215" lon="12.29901385587468"><ele>105.0</ele><time>2026-04-19T15:38:40.606Z</time></trkpt><trkpt lat="45.94673015516568" lon="12.2991843078368"><ele>105.0</ele><time>2026-04-19T15:38:41.606Z</time></trkpt><trkpt lat="45.94644616187546" lon="12.299360265314927"><ele>107.5</ele><time>2026-04-19T15:38:42.606Z</time></trkpt><trkpt lat="45.94616010311942" lon="12.299541271352636"><ele>110.0</ele><time>2026-04-19T15:38:43.606Z</time></trkpt><trkpt lat="45.94587245393081" lon="12.29973232449142"><ele>107.0</ele><time>2026-04-19T15:38:44.606Z</time></trkpt><trkpt lat="45.94558651717661" lon="12.299931714816113"><ele>104.0</ele><time>2026-04-19T15:38:45.606Z</time></trkpt><trkpt lat="45.945302823400795" lon="12.300153469238726"><ele>103.5</ele><time>2026-04-19T15:38:46.606Z</time></trkpt><trkpt lat="45.94501085632603" lon="12.300397939663615"><ele>103.0</ele><time>2026-04-19T15:38:47.606Z</time></trkpt><trkpt lat="45.94471687467652" lon="12.300655467448594"><ele>103.0</ele><time>2026-04-19T15:38:48.606Z</time></trkpt><trkpt lat="45.94443107308939" lon="12.300912265225652"><ele>103.0</ele><time>2026-04-19T15:38:49.606Z</time></trkpt><trkpt lat="45.94415502330141" lon="12.301187631778758"><ele>104.0</ele><time>2026-04-19T15:38:50.607Z</time></trkpt><trkpt lat="45.94387975934771" lon="12.301460213016558"><ele>105.0</ele><time>2026-04-19T15:38:51.607Z</time></trkpt><trkpt lat="45.94361611607135" lon="12.30173798359562"><ele>104.0</ele><time>2026-04-19T15:38:52.607Z</time></trkpt><trkpt lat="45.9433506281229" lon="12.302020673476374"><ele>103.0</ele><time>2026-04-19T15:38:53.607Z</time></trkpt><trkpt lat="45.943092267322676" lon="12.302314141263894"><ele>103.0</ele><time>2026-04-19T15:38:54.607Z</time></trkpt><trkpt lat="45.9428375653226" lon="12.30261992475685"><ele>103.0</ele><time>2026-04-19T15:38:55.607Z</time></trkpt><trkpt lat="45.94258752615601" lon="12.302933049530738"><ele>102.0</ele><time>2026-04-19T15:38:56.607Z</time></trkpt><trkpt lat="45.942341645994766" lon="12.303251129287817"><ele>101.0</ele><time>2026-04-19T15:38:57.607Z</time></trkpt><trkpt lat="45.94210323228023" lon="12.303589369616965"><ele>99.5</ele><time>2026-04-19T15:38:58.607Z</time></trkpt><trkpt lat="45.941868552831764" lon="12.303923050991749"><ele>98.0</ele><time>2026-04-19T15:38:59.607Z</time></trkpt><trkpt lat="45.94164121703758" lon="12.304268186789706"><ele>98.0</ele><time>2026-04-19T15:39:00.607Z</time></trkpt><trkpt lat="45.94141021846613" lon="12.304595467912598"><ele>98.0</ele><time>2026-04-19T15:39:01.607Z</time></trkpt><trkpt lat="45.941179778078954" lon="12.30490736269059"><ele>98.0</ele><time>2026-04-19T15:39:02.607Z</time></trkpt><trkpt lat="45.940958319455355" lon="12.305235009314321"><ele>98.0</ele><time>2026-04-19T15:39:03.607Z</time></trkpt><trkpt lat="45.940738314646026" lon="12.305564639579858"><ele>96.0</ele><time>2026-04-19T15:39:04.607Z</time></trkpt><trkpt lat="45.940514242758894" lon="12.305883053366705"><ele>94.0</ele><time>2026-04-19T15:39:05.607Z</time></trkpt><trkpt lat="45.94029435367062" lon="12.306203461817402"><ele>94.0</ele><time>2026-04-19T15:39:06.607Z</time></trkpt><trkpt lat="45.94007564133954" lon="12.306518718731398"><ele>94.0</ele><time>2026-04-19T15:39:07.607Z</time></trkpt><trkpt lat="45.939851543752845" lon="12.306813578895367"><ele>94.0</ele><time>2026-04-19T15:39:08.607Z</time></trkpt><trkpt lat="45.93963400118826" lon="12.307124658210276"><ele>94.0</ele><time>2026-04-19T15:39:09.607Z</time></trkpt><trkpt lat="45.93941745668549" lon="12.307440643486206"><ele>95.5</ele><time>2026-04-19T15:39:10.607Z</time></trkpt><trkpt lat="45.93919982222568" lon="12.307750786174363"><ele>97.0</ele><time>2026-04-19T15:39:11.607Z</time></trkpt><trkpt lat="45.93897587214175" lon="12.30805402848344"><ele>95.0</ele><time>2026-04-19T15:39:12.607Z</time></trkpt><trkpt lat="45.938749827549074" lon="12.308352532727568"><ele>93.0</ele><time>2026-04-19T15:39:13.607Z</time></trkpt><trkpt lat="45.93852176535878" lon="12.308650763331231"><ele>91.5</ele><time>2026-04-19T15:39:14.607Z</time></trkpt><trkpt lat="45.93829053970968" lon="12.308941071871722"><ele>90.0</ele><time>2026-04-19T15:39:15.607Z</time></trkpt><trkpt lat="45.93805827395367" lon="12.309226612883268"><ele>90.0</ele><time>2026-04-19T15:39:16.607Z</time></trkpt><trkpt lat="45.93782192581869" lon="12.309508128532583"><ele>90.0</ele><time>2026-04-19T15:39:17.607Z</time></trkpt><trkpt lat="45.93758515834606" lon="12.30978778596988"><ele>90.5</ele><time>2026-04-19T15:39:18.607Z</time></trkpt><trkpt lat="45.93734429573056" lon="12.310055801285959"><ele>91.0</ele><time>2026-04-19T15:39:19.607Z</time></trkpt><trkpt lat="45.937102838457434" lon="12.310324522706932"><ele>89.5</ele><time>2026-04-19T15:39:20.607Z</time></trkpt><trkpt lat="45.93686017689614" lon="12.310592182854233"><ele>88.0</ele><time>2026-04-19T15:39:21.607Z</time></trkpt><trkpt lat="45.936624194191644" lon="12.310849813200335"><ele>91.0</ele><time>2026-04-19T15:39:22.607Z</time></trkpt><trkpt lat="45.93640557632727" lon="12.311102282297508"><ele>94.0</ele><time>2026-04-19T15:39:23.607Z</time></trkpt><trkpt lat="45.936195925830525" lon="12.311343009723712"><ele>94.5</ele><time>2026-04-19T15:39:24.607Z</time></trkpt><trkpt lat="45.93598484607899" lon="12.311567504562616"><ele>95.0</ele><time>2026-04-19T15:39:25.607Z</time></trkpt><trkpt lat="45.93576222479282" lon="12.31178832194126"><ele>95.0</ele><time>2026-04-19T15:39:26.607Z</time></trkpt><trkpt lat="45.9355271094562" lon="12.311991589741567"><ele>95.0</ele><time>2026-04-19T15:39:27.607Z</time></trkpt><trkpt lat="45.935278830183734" lon="12.312163391835064"><ele>91.5</ele><time>2026-04-19T15:39:28.607Z</time></trkpt><trkpt lat="45.93502867206457" lon="12.312324235477222"><ele>88.0</ele><time>2026-04-19T15:39:29.607Z</time></trkpt><trkpt lat="45.93477335983214" lon="12.312460219880297"><ele>88.0</ele><time>2026-04-19T15:39:30.607Z</time></trkpt><trkpt lat="45.9345089683296" lon="12.312578336507052"><ele>88.0</ele><time>2026-04-19T15:39:31.607Z</time></trkpt><trkpt lat="45.93424399063058" lon="12.312681268863658"><ele>89.0</ele><time>2026-04-19T15:39:32.607Z</time></trkpt><trkpt lat="45.93397238390796" lon="12.312759762333496"><ele>90.0</ele><time>2026-04-19T15:39:33.607Z</time></trkpt><trkpt lat="45.93369752041786" lon="12.312834436779847"><ele>90.0</ele><time>2026-04-19T15:39:34.607Z</time></trkpt><trkpt lat="45.93341369989495" lon="12.312880944832845"><ele>90.0</ele><time>2026-04-19T15:39:35.607Z</time></trkpt><trkpt lat="45.933127770269934" lon="12.312910117886993"><ele>91.0</ele><time>2026-04-19T15:39:36.607Z</time></trkpt><trkpt lat="45.93282984497513" lon="12.312931333428612"><ele>92.0</ele><time>2026-04-19T15:39:37.607Z</time></trkpt><trkpt lat="45.93250908927945" lon="12.312920264331822"><ele>90.0</ele><time>2026-04-19T15:39:38.607Z</time></trkpt><trkpt lat="45.93218990402919" lon="12.312920499036974"><ele>88.0</ele><time>2026-04-19T15:39:39.607Z</time></trkpt><trkpt lat="45.93185643196767" lon="12.312900329705846"><ele>88.5</ele><time>2026-04-19T15:39:40.607Z</time></trkpt><trkpt lat="45.93152553677586" lon="12.312875784808034"><ele>89.0</ele><time>2026-04-19T15:39:41.607Z</time></trkpt><trkpt lat="45.9311977745051" lon="12.312873099183468"><ele>88.0</ele><time>2026-04-19T15:39:42.607Z</time></trkpt><trkpt lat="45.930874157996215" lon="12.312865732385497"><ele>87.0</ele><time>2026-04-19T15:39:43.607Z</time></trkpt><trkpt lat="45.93055423953079" lon="12.312850901097985"><ele>87.0</ele><time>2026-04-19T15:39:44.607Z</time></trkpt><trkpt lat="45.93024359296581" lon="12.312847653728324"><ele>87.0</ele><time>2026-04-19T15:39:45.607Z</time></trkpt><trkpt lat="45.92993543241198" lon="12.312838779648086"><ele>86.5</ele><time>2026-04-19T15:39:46.607Z</time></trkpt><trkpt lat="45.92962593581546" lon="12.312833850569568"><ele>86.0</ele><time>2026-04-19T15:39:47.607Z</time></trkpt><trkpt lat="45.929321847640374" lon="12.312838506955044"><ele>86.5</ele><time>2026-04-19T15:39:48.607Z</time></trkpt><trkpt lat="45.929026017046276" lon="12.312829600962834"><ele>87.0</ele><time>2026-04-19T15:39:49.607Z</time></trkpt><trkpt lat="45.92873678786064" lon="12.31281031125473"><ele>87.0</ele><time>2026-04-19T15:39:50.607Z</time></trkpt><trkpt lat="45.92845058151283" lon="12.312804111886509"><ele>87.0</ele><time>2026-04-19T15:39:51.607Z</time></trkpt><trkpt lat="45.92817337103369" lon="12.312799051642669"><ele>86.0</ele><time>2026-04-19T15:39:52.607Z</time></trkpt><trkpt lat="45.92789729902198" lon="12.312790181690092"><ele>85.0</ele><time>2026-04-19T15:39:53.607Z</time></trkpt><trkpt lat="45.927626750766066" lon="12.31278301687927"><ele>85.5</ele><time>2026-04-19T15:39:54.607Z</time></trkpt><trkpt lat="45.92735392587098" lon="12.312781739900494"><ele>86.0</ele><time>2026-04-19T15:39:55.607Z</time></trkpt><trkpt lat="45.927087481017075" lon="12.312806381416866"><ele>86.0</ele><time>2026-04-19T15:39:56.607Z</time></trkpt><trkpt lat="45.926828465620716" lon="12.31284355330631"><ele>86.0</ele><time>2026-04-19T15:39:57.607Z</time></trkpt><trkpt lat="45.926567766356314" lon="12.312903806401788"><ele>86.0</ele><time>2026-04-19T15:39:58.607Z</time></trkpt><trkpt lat="45.9263056084619" lon="12.31301131771468"><ele>86.0</ele><time>2026-04-19T15:39:59.607Z</time></trkpt><trkpt lat="45.92604088345686" lon="12.31311713127117"><ele>84.5</ele><time>2026-04-19T15:40:00.607Z</time></trkpt><trkpt lat="45.92578374080877" lon="12.313226865819177"><ele>83.0</ele><time>2026-04-19T15:40:01.607Z</time></trkpt><trkpt lat="45.925528689003336" lon="12.313364071913435"><ele>83.0</ele><time>2026-04-19T15:40:02.607Z</time></trkpt><trkpt lat="45.92527668535624" lon="12.313505933272205"><ele>83.0</ele><time>2026-04-19T15:40:03.607Z</time></trkpt><trkpt lat="45.92502810086711" lon="12.313677609723799"><ele>82.5</ele><time>2026-04-19T15:40:04.607Z</time></trkpt><trkpt lat="45.924789526391905" lon="12.313870520227011"><ele>82.0</ele><time>2026-04-19T15:40:05.607Z</time></trkpt><trkpt lat="45.92455925346451" lon="12.314074677748124"><ele>82.0</ele><time>2026-04-19T15:40:06.607Z</time></trkpt><trkpt lat="45.92432910250874" lon="12.314309582542712"><ele>82.0</ele><time>2026-04-19T15:40:07.607Z</time></trkpt><trkpt lat="45.92410607313702" lon="12.314554287031473"><ele>81.5</ele><time>2026-04-19T15:40:08.607Z</time></trkpt><trkpt lat="45.923893062501065" lon="12.314813131360163"><ele>81.0</ele><time>2026-04-19T15:40:09.607Z</time></trkpt><trkpt lat="45.92369668756193" lon="12.315071397256295"><ele>81.0</ele><time>2026-04-19T15:40:10.607Z</time></trkpt><trkpt lat="45.923519164022736" lon="12.315344561402311"><ele>81.0</ele><time>2026-04-19T15:40:11.607Z</time></trkpt><trkpt lat="45.92334490135309" lon="12.315629453918746"><ele>80.5</ele><time>2026-04-19T15:40:12.607Z</time></trkpt><trkpt lat="45.9231770287195" lon="12.315922756185811"><ele>80.0</ele><time>2026-04-19T15:40:13.607Z</time></trkpt><trkpt lat="45.9230207606462" lon="12.31623036397618"><ele>79.5</ele><time>2026-04-19T15:40:14.607Z</time></trkpt><trkpt lat="45.92287309747808" lon="12.316555477329667"><ele>79.0</ele><time>2026-04-19T15:40:15.607Z</time></trkpt><trkpt lat="45.922736320158535" lon="12.316898156069875"><ele>79.0</ele><time>2026-04-19T15:40:16.607Z</time></trkpt><trkpt lat="45.92260931707471" lon="12.317246327869194"><ele>79.0</ele><time>2026-04-19T15:40:17.607Z</time></trkpt><trkpt lat="45.92249276012083" lon="12.317613283181808"><ele>80.0</ele><time>2026-04-19T15:40:18.607Z</time></trkpt><trkpt lat="45.92237837505605" lon="12.317990398832642"><ele>81.0</ele><time>2026-04-19T15:40:19.607Z</time></trkpt><trkpt lat="45.92227764430965" lon="12.318380406059694"><ele>81.0</ele><time>2026-04-19T15:40:20.607Z</time></trkpt><trkpt lat="45.92218937183303" lon="12.318782765457748"><ele>81.0</ele><time>2026-04-19T15:40:21.607Z</time></trkpt><trkpt lat="45.9220926215062" lon="12.319175190900987"><ele>81.0</ele><time>2026-04-19T15:40:22.607Z</time></trkpt><trkpt lat="45.92200106408544" lon="12.319570882320006"><ele>81.0</ele><time>2026-04-19T15:40:23.607Z</time></trkpt><trkpt lat="45.9219071472584" lon="12.319962073701"><ele>80.5</ele><time>2026-04-19T15:40:24.607Z</time></trkpt><trkpt lat="45.921816712986974" lon="12.320351242088954"><ele>80.0</ele><time>2026-04-19T15:40:25.607Z</time></trkpt><trkpt lat="45.921721402175045" lon="12.320750619421789"><ele>80.0</ele><time>2026-04-19T15:40:26.607Z</time></trkpt><trkpt lat="45.921623070893254" lon="12.321144483801119"><ele>80.0</ele><time>2026-04-19T15:40:27.607Z</time></trkpt><trkpt lat="45.921514587610744" lon="12.3215343755381"><ele>79.5</ele><time>2026-04-19T15:40:28.607Z</time></trkpt><trkpt lat="45.921407905987564" lon="12.321930855735749"><ele>79.0</ele><time>2026-04-19T15:40:29.607Z</time></trkpt><trkpt lat="45.921290464655364" lon="12.322319643103107"><ele>78.0</ele><time>2026-04-19T15:40:30.607Z</time></trkpt><trkpt lat="45.92116276120422" lon="12.322698787825917"><ele>77.0</ele><time>2026-04-19T15:40:31.607Z</time></trkpt><trkpt lat="45.92103152308072" lon="12.323084998263612"><ele>77.0</ele><time>2026-04-19T15:40:32.607Z</time></trkpt><trkpt lat="45.920891849605354" lon="12.323461710156707"><ele>77.0</ele><time>2026-04-19T15:40:33.607Z</time></trkpt><trkpt lat="45.92075819527924" lon="12.32385793253749"><ele>76.5</ele><time>2026-04-19T15:40:34.607Z</time></trkpt><trkpt lat="45.92062159625836" lon="12.324233102951402"><ele>76.0</ele><time>2026-04-19T15:40:35.607Z</time></trkpt><trkpt lat="45.920479967713455" lon="12.32460039979781"><ele>76.0</ele><time>2026-04-19T15:40:36.607Z</time></trkpt><trkpt lat="45.920335006175264" lon="12.324964469102555"><ele>76.0</ele><time>2026-04-19T15:40:37.607Z</time></trkpt><trkpt lat="45.92018887007841" lon="12.325319812671674"><ele>78.0</ele><time>2026-04-19T15:40:38.607Z</time></trkpt><trkpt lat="45.92003786282431" lon="12.32566510459731"><ele>80.0</ele><time>2026-04-19T15:40:39.607Z</time></trkpt><trkpt lat="45.91988074934426" lon="12.3260092170554"><ele>80.0</ele><time>2026-04-19T15:40:40.607Z</time></trkpt><trkpt lat="45.919722019786235" lon="12.326351875965107"><ele>80.0</ele><time>2026-04-19T15:40:41.607Z</time></trkpt><trkpt lat="45.9195543800466" lon="12.326690041615915"><ele>82.5</ele><time>2026-04-19T15:40:42.607Z</time></trkpt><trkpt lat="45.91938167348914" lon="12.327021228935452"><ele>85.0</ele><time>2026-04-19T15:40:43.607Z</time></trkpt><trkpt lat="45.91921004477492" lon="12.327350347371496"><ele>87.5</ele><time>2026-04-19T15:40:44.607Z</time></trkpt><trkpt lat="45.9190351126215" lon="12.327670014807836"><ele>90.0</ele><time>2026-04-19T15:40:45.607Z</time></trkpt><trkpt lat="45.91885749145023" lon="12.327985962605464"><ele>91.5</ele><time>2026-04-19T15:40:46.607Z</time></trkpt><trkpt lat="45.91867197516925" lon="12.328291221052298"><ele>93.0</ele><time>2026-04-19T15:40:47.607Z</time></trkpt><trkpt lat="45.91848796523749" lon="12.328593615325474"><ele>90.0</ele><time>2026-04-19T15:40:48.607Z</time></trkpt><trkpt lat="45.918299200420044" lon="12.328907053302933"><ele>87.0</ele><time>2026-04-19T15:40:49.607Z</time></trkpt><trkpt lat="45.9181059787622" lon="12.32923218622294"><ele>87.0</ele><time>2026-04-19T15:40:50.607Z</time></trkpt><trkpt lat="45.91789895165702" lon="12.329567731767868"><ele>87.0</ele><time>2026-04-19T15:40:51.607Z</time></trkpt><trkpt lat="45.91769039579743" lon="12.329883843469222"><ele>88.5</ele><time>2026-04-19T15:40:52.607Z</time></trkpt><trkpt lat="45.91748029433052" lon="12.330192579790403"><ele>90.0</ele><time>2026-04-19T15:40:53.607Z</time></trkpt><trkpt lat="45.91726737256077" lon="12.330492932236314"><ele>91.0</ele><time>2026-04-19T15:40:54.607Z</time></trkpt><trkpt lat="45.9170459340762" lon="12.330792697145279"><ele>92.0</ele><time>2026-04-19T15:40:55.607Z</time></trkpt><trkpt lat="45.916821402732644" lon="12.33108840250608"><ele>93.0</ele><time>2026-04-19T15:40:56.608Z</time></trkpt><trkpt lat="45.91659584099147" lon="12.331377075405895"><ele>94.0</ele><time>2026-04-19T15:40:57.608Z</time></trkpt><trkpt lat="45.91636144663834" lon="12.331655609777577"><ele>94.0</ele><time>2026-04-19T15:40:58.608Z</time></trkpt><trkpt lat="45.916122724340454" lon="12.331931410092272"><ele>94.0</ele><time>2026-04-19T15:40:59.608Z</time></trkpt><trkpt lat="45.91587518161942" lon="12.332200939532335"><ele>93.5</ele><time>2026-04-19T15:41:00.608Z</time></trkpt><trkpt lat="45.91562166902332" lon="12.332473494279547"><ele>93.0</ele><time>2026-04-19T15:41:01.608Z</time></trkpt><trkpt lat="45.91536864467581" lon="12.332748254440771"><ele>93.0</ele><time>2026-04-19T15:41:02.608Z</time></trkpt><trkpt lat="45.915112984187914" lon="12.333005543478517"><ele>93.0</ele><time>2026-04-19T15:41:03.608Z</time></trkpt><trkpt lat="45.9148611689159" lon="12.33323778676779"><ele>90.0</ele><time>2026-04-19T15:41:04.608Z</time></trkpt><trkpt lat="45.91461154140905" lon="12.333484568889498"><ele>87.0</ele><time>2026-04-19T15:41:05.608Z</time></trkpt><trkpt lat="45.9143553907182" lon="12.333712462164705"><ele>83.5</ele><time>2026-04-19T15:41:06.608Z</time></trkpt><trkpt lat="45.91409783091992" lon="12.333945880094932"><ele>80.0</ele><time>2026-04-19T15:41:07.608Z</time></trkpt><trkpt lat="45.913833472352216" lon="12.334181152826567"><ele>80.0</ele><time>2026-04-19T15:41:08.608Z</time></trkpt><trkpt lat="45.913575455401" lon="12.334405717952473"><ele>80.0</ele><time>2026-04-19T15:41:09.608Z</time></trkpt><trkpt lat="45.91331977491106" lon="12.33462899729233"><ele>77.0</ele><time>2026-04-19T15:41:10.608Z</time></trkpt><trkpt lat="45.91305722876083" lon="12.33485367540611"><ele>74.0</ele><time>2026-04-19T15:41:11.608Z</time></trkpt><trkpt lat="45.91279943118296" lon="12.335089314550702"><ele>73.5</ele><time>2026-04-19T15:41:12.608Z</time></trkpt><trkpt lat="45.91254107228424" lon="12.335338152391566"><ele>73.0</ele><time>2026-04-19T15:41:13.608Z</time></trkpt><trkpt lat="45.91228603174616" lon="12.335592326468841"><ele>70.0</ele><time>2026-04-19T15:41:14.608Z</time></trkpt><trkpt lat="45.912034288935175" lon="12.335857135085547"><ele>67.0</ele><time>2026-04-19T15:41:15.608Z</time></trkpt><trkpt lat="45.91178736785992" lon="12.336118490951565"><ele>67.0</ele><time>2026-04-19T15:41:16.608Z</time></trkpt><trkpt lat="45.91154534239647" lon="12.336388646954383"><ele>67.0</ele><time>2026-04-19T15:41:17.608Z</time></trkpt><trkpt lat="45.91131195632296" lon="12.33665967870034"><ele>67.0</ele><time>2026-04-19T15:41:18.608Z</time></trkpt><trkpt lat="45.911079889187214" lon="12.336939941933018"><ele>67.0</ele><time>2026-04-19T15:41:19.608Z</time></trkpt><trkpt lat="45.910849228398355" lon="12.337213975931553"><ele>66.5</ele><time>2026-04-19T15:41:20.608Z</time></trkpt><trkpt lat="45.91062950743214" lon="12.337498546044907"><ele>66.0</ele><time>2026-04-19T15:41:21.608Z</time></trkpt><trkpt lat="45.910409798536726" lon="12.337788186725474"><ele>66.0</ele><time>2026-04-19T15:41:22.608Z</time></trkpt><trkpt lat="45.9101956439452" lon="12.338086700954456"><ele>66.0</ele><time>2026-04-19T15:41:23.608Z</time></trkpt><trkpt lat="45.909986912574595" lon="12.338396259759639"><ele>66.0</ele><time>2026-04-19T15:41:24.608Z</time></trkpt><trkpt lat="45.909778891590086" lon="12.338706790656818"><ele>66.0</ele><time>2026-04-19T15:41:25.608Z</time></trkpt><trkpt lat="45.9095788525677" lon="12.339017970372268"><ele>64.0</ele><time>2026-04-19T15:41:26.608Z</time></trkpt><trkpt lat="45.9093760621696" lon="12.339334027596259"><ele>62.0</ele><time>2026-04-19T15:41:27.608Z</time></trkpt><trkpt lat="45.909177624611615" lon="12.33967727481124"><ele>61.5</ele><time>2026-04-19T15:41:28.608Z</time></trkpt><trkpt lat="45.90897686197053" lon="12.340000159106202"><ele>61.0</ele><time>2026-04-19T15:41:29.608Z</time></trkpt><trkpt lat="45.908784579815396" lon="12.34032399937116"><ele>61.5</ele><time>2026-04-19T15:41:30.608Z</time></trkpt><trkpt lat="45.90859731430804" lon="12.340640208578506"><ele>62.0</ele><time>2026-04-19T15:41:31.608Z</time></trkpt><trkpt lat="45.908411469479326" lon="12.340962076298677"><ele>62.5</ele><time>2026-04-19T15:41:32.608Z</time></trkpt><trkpt lat="45.90822034322784" lon="12.34128687713883"><ele>63.0</ele><time>2026-04-19T15:41:33.608Z</time></trkpt><trkpt lat="45.908031263991354" lon="12.341595767560602"><ele>63.0</ele><time>2026-04-19T15:41:34.608Z</time></trkpt><trkpt lat="45.907845795717726" lon="12.341895324477791"><ele>63.0</ele><time>2026-04-19T15:41:35.608Z</time></trkpt><trkpt lat="45.90764643165843" lon="12.342174783301166"><ele>60.5</ele><time>2026-04-19T15:41:36.608Z</time></trkpt><trkpt lat="45.90744234413084" lon="12.342447503322273"><ele>58.0</ele><time>2026-04-19T15:41:37.608Z</time></trkpt><trkpt lat="45.90723586782493" lon="12.342713321977898"><ele>58.0</ele><time>2026-04-19T15:41:38.608Z</time></trkpt><trkpt lat="45.907017640594475" lon="12.34295912027866"><ele>58.0</ele><time>2026-04-19T15:41:39.608Z</time></trkpt><trkpt lat="45.90678860888391" lon="12.343196193726092"><ele>59.0</ele><time>2026-04-19T15:41:40.608Z</time></trkpt><trkpt lat="45.906550409138504" lon="12.343411175737407"><ele>60.0</ele><time>2026-04-19T15:41:41.608Z</time></trkpt><trkpt lat="45.906315305018516" lon="12.34361572166262"><ele>60.0</ele><time>2026-04-19T15:41:42.608Z</time></trkpt><trkpt lat="45.906076820894754" lon="12.343813807407793"><ele>60.0</ele><time>2026-04-19T15:41:43.608Z</time></trkpt><trkpt lat="45.905833080616105" lon="12.34400364328784"><ele>58.0</ele><time>2026-04-19T15:41:44.608Z</time></trkpt><trkpt lat="45.9055841657837" lon="12.344164547839434"><ele>56.0</ele><time>2026-04-19T15:41:45.608Z</time></trkpt><trkpt lat="45.90532449501815" lon="12.344312648008612"><ele>57.0</ele><time>2026-04-19T15:41:46.608Z</time></trkpt><trkpt lat="45.90506441758257" lon="12.344448405947245"><ele>58.0</ele><time>2026-04-19T15:41:47.608Z</time></trkpt><trkpt lat="45.90479209914098" lon="12.344550382433848"><ele>58.0</ele><time>2026-04-19T15:41:48.608Z</time></trkpt><trkpt lat="45.90452239282421" lon="12.344658065402935"><ele>58.0</ele><time>2026-04-19T15:41:49.608Z</time></trkpt><trkpt lat="45.90424974819497" lon="12.34475138634036"><ele>57.0</ele><time>2026-04-19T15:41:50.608Z</time></trkpt><trkpt lat="45.9039763857024" lon="12.344836571257744"><ele>56.0</ele><time>2026-04-19T15:41:51.608Z</time></trkpt><trkpt lat="45.903696111514336" lon="12.344904992952594"><ele>56.0</ele><time>2026-04-19T15:41:52.608Z</time></trkpt><trkpt lat="45.903417334200796" lon="12.344958923617819"><ele>56.0</ele><time>2026-04-19T15:41:53.608Z</time></trkpt><trkpt lat="45.90313144055624" lon="12.344992703340502"><ele>58.0</ele><time>2026-04-19T15:41:54.608Z</time></trkpt><trkpt lat="45.902854012085186" lon="12.345007245707272"><ele>60.0</ele><time>2026-04-19T15:41:55.608Z</time></trkpt><trkpt lat="45.9025780560242" lon="12.345014455983385"><ele>60.5</ele><time>2026-04-19T15:41:56.608Z</time></trkpt><trkpt lat="45.90229587858021" lon="12.344994910067477"><ele>61.0</ele><time>2026-04-19T15:41:57.608Z</time></trkpt><trkpt lat="45.90200576131446" lon="12.344953721427045"><ele>59.0</ele><time>2026-04-19T15:41:58.608Z</time></trkpt><trkpt lat="45.90171046057536" lon="12.34491729671383"><ele>57.0</ele><time>2026-04-19T15:41:59.608Z</time></trkpt><trkpt lat="45.90140805761267" lon="12.344840893037595"><ele>57.0</ele><time>2026-04-19T15:42:00.608Z</time></trkpt><trkpt lat="45.901098837100406" lon="12.344755567697067"><ele>57.0</ele><time>2026-04-19T15:42:01.608Z</time></trkpt><trkpt lat="45.90079194172239" lon="12.344665737590741"><ele>57.5</ele><time>2026-04-19T15:42:02.608Z</time></trkpt><trkpt lat="45.90048500064742" lon="12.344569749685744"><ele>58.0</ele><time>2026-04-19T15:42:03.608Z</time></trkpt><trkpt lat="45.90017663942035" lon="12.344469698371414"><ele>57.5</ele><time>2026-04-19T15:42:04.608Z</time></trkpt><trkpt lat="45.899869975520616" lon="12.34437348452721"><ele>57.0</ele><time>2026-04-19T15:42:05.608Z</time></trkpt><trkpt lat="45.89956705662307" lon="12.34428250462159"><ele>57.0</ele><time>2026-04-19T15:42:06.608Z</time></trkpt><trkpt lat="45.89925909268383" lon="12.344184586649172"><ele>57.0</ele><time>2026-04-19T15:42:07.608Z</time></trkpt><trkpt lat="45.898951668035124" lon="12.34409160022493"><ele>57.0</ele><time>2026-04-19T15:42:08.608Z</time></trkpt><trkpt lat="45.89864514320712" lon="12.343997778775192"><ele>57.0</ele><time>2026-04-19T15:42:09.608Z</time></trkpt><trkpt lat="45.898343253342084" lon="12.343915076092548"><ele>59.0</ele><time>2026-04-19T15:42:10.608Z</time></trkpt><trkpt lat="45.89804228707663" lon="12.34382962225068"><ele>61.0</ele><time>2026-04-19T15:42:11.608Z</time></trkpt><trkpt lat="45.89774624071943" lon="12.343746461461063"><ele>58.5</ele><time>2026-04-19T15:42:12.608Z</time></trkpt><trkpt lat="45.89744400342242" lon="12.343660593447057"><ele>56.0</ele><time>2026-04-19T15:42:13.608Z</time></trkpt><trkpt lat="45.89714048528448" lon="12.34357536765394"><ele>56.0</ele><time>2026-04-19T15:42:14.608Z</time></trkpt><trkpt lat="45.89683837147623" lon="12.343482155093174"><ele>56.0</ele><time>2026-04-19T15:42:15.608Z</time></trkpt><trkpt lat="45.89653463987365" lon="12.343392961880197"><ele>56.0</ele><time>2026-04-19T15:42:16.608Z</time></trkpt><trkpt lat="45.89622818540112" lon="12.343302947788168"><ele>56.0</ele><time>2026-04-19T15:42:17.608Z</time></trkpt><trkpt lat="45.895924303475894" lon="12.343212985817512"><ele>55.0</ele><time>2026-04-19T15:42:18.608Z</time></trkpt><trkpt lat="45.895612415267664" lon="12.343122170523102"><ele>54.0</ele><time>2026-04-19T15:42:19.608Z</time></trkpt><trkpt lat="45.89531350239054" lon="12.34301832196032"><ele>53.0</ele><time>2026-04-19T15:42:20.608Z</time></trkpt><trkpt lat="45.89500450847546" lon="12.34293334218109"><ele>52.0</ele><time>2026-04-19T15:42:21.608Z</time></trkpt><trkpt lat="45.89470033589139" lon="12.342825302133315"><ele>52.0</ele><time>2026-04-19T15:42:22.608Z</time></trkpt><trkpt lat="45.894388595353284" lon="12.342727981051834"><ele>52.0</ele><time>2026-04-19T15:42:23.608Z</time></trkpt><trkpt lat="45.89408321100501" lon="12.342640693255827"><ele>49.5</ele><time>2026-04-19T15:42:24.608Z</time></trkpt><trkpt lat="45.89377928961974" lon="12.342540471269297"><ele>47.0</ele><time>2026-04-19T15:42:25.608Z</time></trkpt><trkpt lat="45.89347172807225" lon="12.342451308181602"><ele>49.0</ele><time>2026-04-19T15:42:26.608Z</time></trkpt><trkpt lat="45.893164130883875" lon="12.342352290848261"><ele>51.0</ele><time>2026-04-19T15:42:27.608Z</time></trkpt><trkpt lat="45.89284925035218" lon="12.342251810007003"><ele>51.0</ele><time>2026-04-19T15:42:28.608Z</time></trkpt><trkpt lat="45.89254245302482" lon="12.342161580446957"><ele>51.0</ele><time>2026-04-19T15:42:29.608Z</time></trkpt><trkpt lat="45.892242082671466" lon="12.342073921613236"><ele>51.0</ele><time>2026-04-19T15:42:30.608Z</time></trkpt><trkpt lat="45.89194133542086" lon="12.341984310387137"><ele>51.0</ele><time>2026-04-19T15:42:31.608Z</time></trkpt><trkpt lat="45.891636815700004" lon="12.341889782969401"><ele>49.5</ele><time>2026-04-19T15:42:32.608Z</time></trkpt><trkpt lat="45.89133372822469" lon="12.341793548928438"><ele>48.0</ele><time>2026-04-19T15:42:33.608Z</time></trkpt><trkpt lat="45.89103813424276" lon="12.341699309148948"><ele>49.5</ele><time>2026-04-19T15:42:34.608Z</time></trkpt><trkpt lat="45.89073929854755" lon="12.341613875894394"><ele>51.0</ele><time>2026-04-19T15:42:35.608Z</time></trkpt><trkpt lat="45.89044795921727" lon="12.341515845809896"><ele>51.0</ele><time>2026-04-19T15:42:36.608Z</time></trkpt><trkpt lat="45.89015488062046" lon="12.341432782918679"><ele>51.0</ele><time>2026-04-19T15:42:37.608Z</time></trkpt><trkpt lat="45.889864757289615" lon="12.341358413465791"><ele>50.0</ele><time>2026-04-19T15:42:38.608Z</time></trkpt><trkpt lat="45.88958289567543" lon="12.3412814578991"><ele>49.0</ele><time>2026-04-19T15:42:39.608Z</time></trkpt><trkpt lat="45.88932123136465" lon="12.341186604739583"><ele>49.0</ele><time>2026-04-19T15:42:40.608Z</time></trkpt><trkpt lat="45.889051393203374" lon="12.341120299473506"><ele>49.0</ele><time>2026-04-19T15:42:41.608Z</time></trkpt><trkpt lat="45.88877843390984" lon="12.341047970813213"><ele>49.0</ele><time>2026-04-19T15:42:42.608Z</time></trkpt><trkpt lat="45.88849776583851" lon="12.340978986369617"><ele>49.0</ele><time>2026-04-19T15:42:43.608Z</time></trkpt><trkpt lat="45.88820622168728" lon="12.340915049648974"><ele>49.5</ele><time>2026-04-19T15:42:44.608Z</time></trkpt><trkpt lat="45.887900217283836" lon="12.340859469255667"><ele>50.0</ele><time>2026-04-19T15:42:45.608Z</time></trkpt><trkpt lat="45.887601866188824" lon="12.340809997986279"><ele>49.0</ele><time>2026-04-19T15:42:46.608Z</time></trkpt><trkpt lat="45.8873033791741" lon="12.340768537622449"><ele>48.0</ele><time>2026-04-19T15:42:47.608Z</time></trkpt><trkpt lat="45.887001458501246" lon="12.34072381912672"><ele>48.5</ele><time>2026-04-19T15:42:48.608Z</time></trkpt><trkpt lat="45.88669972313689" lon="12.3406928552434"><ele>49.0</ele><time>2026-04-19T15:42:49.608Z</time></trkpt><trkpt lat="45.886403029923976" lon="12.340668561076399"><ele>49.0</ele><time>2026-04-19T15:42:50.608Z</time></trkpt><trkpt lat="45.886107633130365" lon="12.34064501127861"><ele>49.0</ele><time>2026-04-19T15:42:51.608Z</time></trkpt><trkpt lat="45.88580820026528" lon="12.340625318739619"><ele>50.0</ele><time>2026-04-19T15:42:52.608Z</time></trkpt><trkpt lat="45.88549970881158" lon="12.340628356702771"><ele>51.0</ele><time>2026-04-19T15:42:53.608Z</time></trkpt><trkpt lat="45.88518379929932" lon="12.340647398741975"><ele>50.0</ele><time>2026-04-19T15:42:54.608Z</time></trkpt><trkpt lat="45.88487025457261" lon="12.34066348607165"><ele>49.0</ele><time>2026-04-19T15:42:55.608Z</time></trkpt><trkpt lat="45.88455359931823" lon="12.340690223672766"><ele>47.5</ele><time>2026-04-19T15:42:56.608Z</time></trkpt><trkpt lat="45.88424163016959" lon="12.34071011742681"><ele>46.0</ele><time>2026-04-19T15:42:57.608Z</time></trkpt><trkpt lat="45.883927091661846" lon="12.340741409796872"><ele>46.0</ele><time>2026-04-19T15:42:58.608Z</time></trkpt><trkpt lat="45.88361550993822" lon="12.340796097103542"><ele>46.0</ele><time>2026-04-19T15:42:59.608Z</time></trkpt><trkpt lat="45.88331210848035" lon="12.340867742378697"><ele>46.0</ele><time>2026-04-19T15:43:00.608Z</time></trkpt><trkpt lat="45.88299866734972" lon="12.340938747890158"><ele>46.0</ele><time>2026-04-19T15:43:01.608Z</time></trkpt><trkpt lat="45.88266811501602" lon="12.341014614417432"><ele>45.0</ele><time>2026-04-19T15:43:02.609Z</time></trkpt><trkpt lat="45.88231113925345" lon="12.340945168890613"><ele>44.0</ele><time>2026-04-19T15:43:03.609Z</time></trkpt><trkpt lat="45.88197699823098" lon="12.341051797154536"><ele>44.0</ele><time>2026-04-19T15:43:04.609Z</time></trkpt><trkpt lat="45.8816418669679" lon="12.341165508406808"><ele>44.0</ele><time>2026-04-19T15:43:05.609Z</time></trkpt><trkpt lat="45.88133048684741" lon="12.341389812640424"><ele>43.5</ele><time>2026-04-19T15:43:06.609Z</time></trkpt><trkpt lat="45.880997899568364" lon="12.341501100454407"><ele>43.0</ele><time>2026-04-19T15:43:07.609Z</time></trkpt><trkpt lat="45.8806719014286" lon="12.341594926540157"><ele>43.0</ele><time>2026-04-19T15:43:08.609Z</time></trkpt><trkpt lat="45.88034667009974" lon="12.341689436670356"><ele>43.0</ele><time>2026-04-19T15:43:09.609Z</time></trkpt><trkpt lat="45.88003058567688" lon="12.341802655542512"><ele>43.0</ele><time>2026-04-19T15:43:10.609Z</time></trkpt><trkpt lat="45.87972045636317" lon="12.341917053395226"><ele>43.0</ele><time>2026-04-19T15:43:11.609Z</time></trkpt><trkpt lat="45.87940590600572" lon="12.342016780190034"><ele>43.5</ele><time>2026-04-19T15:43:12.609Z</time></trkpt><trkpt lat="45.8790885176862" lon="12.342116095829255"><ele>44.0</ele><time>2026-04-19T15:43:13.609Z</time></trkpt><trkpt lat="45.87877400467339" lon="12.34222697646538"><ele>44.0</ele><time>2026-04-19T15:43:14.609Z</time></trkpt><trkpt lat="45.87846218714991" lon="12.34233659765291"><ele>44.0</ele><time>2026-04-19T15:43:15.609Z</time></trkpt><trkpt lat="45.87815581847475" lon="12.342443296094169"><ele>43.5</ele><time>2026-04-19T15:43:16.609Z</time></trkpt><trkpt lat="45.87784675937757" lon="12.342542607186777"><ele>43.0</ele><time>2026-04-19T15:43:17.609Z</time></trkpt><trkpt lat="45.87754417082712" lon="12.34263375892482"><ele>43.0</ele><time>2026-04-19T15:43:18.609Z</time></trkpt><trkpt lat="45.87724834730321" lon="12.342720841513566"><ele>43.0</ele><time>2026-04-19T15:43:19.609Z</time></trkpt><trkpt lat="45.87694737739894" lon="12.342813406939747"><ele>43.0</ele><time>2026-04-19T15:43:20.609Z</time></trkpt><trkpt lat="45.87664703838922" lon="12.342891469400143"><ele>43.0</ele><time>2026-04-19T15:43:21.609Z</time></trkpt><trkpt lat="45.876350559391696" lon="12.34295395743735"><ele>43.0</ele><time>2026-04-19T15:43:22.609Z</time></trkpt><trkpt lat="45.876051320318425" lon="12.34301282092521"><ele>43.0</ele><time>2026-04-19T15:43:23.609Z</time></trkpt><trkpt lat="45.87575154119533" lon="12.343054719101737"><ele>42.5</ele><time>2026-04-19T15:43:24.609Z</time></trkpt><trkpt lat="45.875446191670896" lon="12.343052361273672"><ele>42.0</ele><time>2026-04-19T15:43:25.609Z</time></trkpt><trkpt lat="45.875144794138976" lon="12.343077317648333"><ele>41.5</ele><time>2026-04-19T15:43:26.609Z</time></trkpt><trkpt lat="45.87484359945669" lon="12.343101383541274"><ele>41.0</ele><time>2026-04-19T15:43:27.609Z</time></trkpt><trkpt lat="45.874541458058744" lon="12.343116873177333"><ele>41.5</ele><time>2026-04-19T15:43:28.609Z</time></trkpt><trkpt lat="45.8742378359419" lon="12.343118353097239"><ele>42.0</ele><time>2026-04-19T15:43:29.609Z</time></trkpt><trkpt lat="45.873927911365584" lon="12.343107551658912"><ele>42.0</ele><time>2026-04-19T15:43:30.609Z</time></trkpt><trkpt lat="45.873619273994535" lon="12.343077678618316"><ele>42.0</ele><time>2026-04-19T15:43:31.609Z</time></trkpt><trkpt lat="45.87331244728689" lon="12.343047226573042"><ele>41.5</ele><time>2026-04-19T15:43:32.609Z</time></trkpt><trkpt lat="45.8730086984687" lon="12.343011916430644"><ele>41.0</ele><time>2026-04-19T15:43:33.609Z</time></trkpt><trkpt lat="45.87270520300279" lon="12.342956329675696"><ele>41.5</ele><time>2026-04-19T15:43:34.609Z</time></trkpt><trkpt lat="45.8724055959971" lon="12.342894258782508"><ele>42.0</ele><time>2026-04-19T15:43:35.609Z</time></trkpt><trkpt lat="45.872106966951776" lon="12.342830634550857"><ele>42.0</ele><time>2026-04-19T15:43:36.609Z</time></trkpt><trkpt lat="45.87181354794811" lon="12.342762448214271"><ele>42.0</ele><time>2026-04-19T15:43:37.609Z</time></trkpt><trkpt lat="45.87152984617957" lon="12.34269865603966"><ele>41.0</ele><time>2026-04-19T15:43:38.609Z</time></trkpt><trkpt lat="45.871252700513" lon="12.342633336110087"><ele>40.0</ele><time>2026-04-19T15:43:39.609Z</time></trkpt><trkpt lat="45.870979524633256" lon="12.342570179734361"><ele>40.0</ele><time>2026-04-19T15:43:40.609Z</time></trkpt><trkpt lat="45.87070948706152" lon="12.342518172504237"><ele>40.0</ele><time>2026-04-19T15:43:41.609Z</time></trkpt><trkpt lat="45.87044485841619" lon="12.342442528416555"><ele>40.0</ele><time>2026-04-19T15:43:42.609Z</time></trkpt><trkpt lat="45.87017930796922" lon="12.342381272234826"><ele>40.0</ele><time>2026-04-19T15:43:43.609Z</time></trkpt><trkpt lat="45.86990019149113" lon="12.342298813639571"><ele>40.0</ele><time>2026-04-19T15:43:44.609Z</time></trkpt><trkpt lat="45.869608827425644" lon="12.342243093752137"><ele>40.0</ele><time>2026-04-19T15:43:45.609Z</time></trkpt><trkpt lat="45.86930737372674" lon="12.34217372610236"><ele>39.5</ele><time>2026-04-19T15:43:46.609Z</time></trkpt><trkpt lat="45.86899664177497" lon="12.34210968515983"><ele>39.0</ele><time>2026-04-19T15:43:47.609Z</time></trkpt><trkpt lat="45.86867951948913" lon="12.342044635215695"><ele>40.5</ele><time>2026-04-19T15:43:48.609Z</time></trkpt><trkpt lat="45.868367349828695" lon="12.341969980873314"><ele>42.0</ele><time>2026-04-19T15:43:49.609Z</time></trkpt><trkpt lat="45.86805321922725" lon="12.341894649076819"><ele>42.0</ele><time>2026-04-19T15:43:50.609Z</time></trkpt><trkpt lat="45.8677313110588" lon="12.341821318974933"><ele>42.0</ele><time>2026-04-19T15:43:51.609Z</time></trkpt><trkpt lat="45.86740607320315" lon="12.341742467903892"><ele>41.0</ele><time>2026-04-19T15:43:52.609Z</time></trkpt><trkpt lat="45.867073720911286" lon="12.341657261535472"><ele>40.0</ele><time>2026-04-19T15:43:53.609Z</time></trkpt><trkpt lat="45.86673387438438" lon="12.341566897805727"><ele>40.0</ele><time>2026-04-19T15:43:54.609Z</time></trkpt><trkpt lat="45.86639441892966" lon="12.341474833227016"><ele>40.0</ele><time>2026-04-19T15:43:55.609Z</time></trkpt><trkpt lat="45.866052396908685" lon="12.341401564510797"><ele>40.0</ele><time>2026-04-19T15:43:56.609Z</time></trkpt><trkpt lat="45.86570902071782" lon="12.34131682976821"><ele>40.0</ele><time>2026-04-19T15:43:57.609Z</time></trkpt><trkpt lat="45.86537058776129" lon="12.341228973733399"><ele>39.5</ele><time>2026-04-19T15:43:58.609Z</time></trkpt><trkpt lat="45.86503446289411" lon="12.341140381838015"><ele>39.0</ele><time>2026-04-19T15:43:59.609Z</time></trkpt><trkpt lat="45.86470083162935" lon="12.341061603808836"><ele>39.0</ele><time>2026-04-19T15:44:00.609Z</time></trkpt><trkpt lat="45.864373727072405" lon="12.34098956797013"><ele>39.0</ele><time>2026-04-19T15:44:01.609Z</time></trkpt><trkpt lat="45.86405741833401" lon="12.340909546337235"><ele>39.0</ele><time>2026-04-19T15:44:02.609Z</time></trkpt><trkpt lat="45.863742050004596" lon="12.340827460707986"><ele>39.0</ele><time>2026-04-19T15:44:03.609Z</time></trkpt><trkpt lat="45.8634336292358" lon="12.340748884585093"><ele>39.0</ele><time>2026-04-19T15:44:04.609Z</time></trkpt><trkpt lat="45.86313635161551" lon="12.340659901322597"><ele>39.0</ele><time>2026-04-19T15:44:05.609Z</time></trkpt><trkpt lat="45.86283805827352" lon="12.34057256972142"><ele>40.0</ele><time>2026-04-19T15:44:06.609Z</time></trkpt><trkpt lat="45.86255036870304" lon="12.34045855320616"><ele>41.0</ele><time>2026-04-19T15:44:07.609Z</time></trkpt><trkpt lat="45.86226974311803" lon="12.340328358278667"><ele>41.0</ele><time>2026-04-19T15:44:08.609Z</time></trkpt><trkpt lat="45.86199635948387" lon="12.34016802621254"><ele>41.0</ele><time>2026-04-19T15:44:09.609Z</time></trkpt><trkpt lat="45.86172732854" lon="12.340034860366604"><ele>40.0</ele><time>2026-04-19T15:44:10.609Z</time></trkpt><trkpt lat="45.86146632874966" lon="12.3399096299009"><ele>39.0</ele><time>2026-04-19T15:44:11.609Z</time></trkpt><trkpt lat="45.861201967039115" lon="12.339739270824543"><ele>38.5</ele><time>2026-04-19T15:44:12.609Z</time></trkpt><trkpt lat="45.86093587302501" lon="12.339559995898647"><ele>38.0</ele><time>2026-04-19T15:44:13.609Z</time></trkpt><trkpt lat="45.86067481293827" lon="12.339356891914663"><ele>38.0</ele><time>2026-04-19T15:44:14.609Z</time></trkpt><trkpt lat="45.86042105128996" lon="12.339135791745711"><ele>38.0</ele><time>2026-04-19T15:44:15.609Z</time></trkpt><trkpt lat="45.86016795326541" lon="12.33891275578464"><ele>39.0</ele><time>2026-04-19T15:44:16.609Z</time></trkpt><trkpt lat="45.85991571466703" lon="12.33866773577529"><ele>40.0</ele><time>2026-04-19T15:44:17.609Z</time></trkpt><trkpt lat="45.85966509001074" lon="12.338398755695616"><ele>40.0</ele><time>2026-04-19T15:44:18.609Z</time></trkpt><trkpt lat="45.85942174474956" lon="12.338124790731731"><ele>40.0</ele><time>2026-04-19T15:44:19.609Z</time></trkpt><trkpt lat="45.859178581794815" lon="12.337829428774853"><ele>40.0</ele><time>2026-04-19T15:44:20.609Z</time></trkpt><trkpt lat="45.85894140432692" lon="12.337521827025407"><ele>40.0</ele><time>2026-04-19T15:44:21.609Z</time></trkpt><trkpt lat="45.85871146525807" lon="12.33720664298486"><ele>39.5</ele><time>2026-04-19T15:44:22.609Z</time></trkpt><trkpt lat="45.858490693032955" lon="12.33686460274532"><ele>39.0</ele><time>2026-04-19T15:44:23.609Z</time></trkpt><trkpt lat="45.858270890791836" lon="12.336518822595679"><ele>38.5</ele><time>2026-04-19T15:44:24.609Z</time></trkpt><trkpt lat="45.85806587876588" lon="12.33615911988625"><ele>38.0</ele><time>2026-04-19T15:44:25.609Z</time></trkpt><trkpt lat="45.857852585618005" lon="12.335796274684718"><ele>39.0</ele><time>2026-04-19T15:44:26.609Z</time></trkpt><trkpt lat="45.85763676665924" lon="12.33543664299174"><ele>40.0</ele><time>2026-04-19T15:44:27.609Z</time></trkpt><trkpt lat="45.857414591754214" lon="12.335096491382808"><ele>40.0</ele><time>2026-04-19T15:44:28.609Z</time></trkpt><trkpt lat="45.85719113201108" lon="12.334749276460997"><ele>40.0</ele><time>2026-04-19T15:44:29.609Z</time></trkpt><trkpt lat="45.85697077427651" lon="12.334397361665287"><ele>39.5</ele><time>2026-04-19T15:44:30.609Z</time></trkpt><trkpt lat="45.85674847171356" lon="12.334041805254039"><ele>39.0</ele><time>2026-04-19T15:44:31.609Z</time></trkpt><trkpt lat="45.85652175090042" lon="12.333689074825747"><ele>39.0</ele><time>2026-04-19T15:44:32.609Z</time></trkpt><trkpt lat="45.85629020665991" lon="12.333339173812103"><ele>39.0</ele><time>2026-04-19T15:44:33.609Z</time></trkpt><trkpt lat="45.856056689387025" lon="12.332999618615988"><ele>39.0</ele><time>2026-04-19T15:44:34.609Z</time></trkpt><trkpt lat="45.85580990352761" lon="12.332676696928964"><ele>39.0</ele><time>2026-04-19T15:44:35.609Z</time></trkpt><trkpt lat="45.85557010595597" lon="12.332350635709638"><ele>39.0</ele><time>2026-04-19T15:44:36.609Z</time></trkpt><trkpt lat="45.85532638964256" lon="12.332040361658118"><ele>39.0</ele><time>2026-04-19T15:44:37.609Z</time></trkpt><trkpt lat="45.85507462982466" lon="12.331733005642578"><ele>39.0</ele><time>2026-04-19T15:44:38.609Z</time></trkpt><trkpt lat="45.85481668466222" lon="12.331428520551869"><ele>39.0</ele><time>2026-04-19T15:44:39.609Z</time></trkpt><trkpt lat="45.85456031094907" lon="12.33113153167731"><ele>39.5</ele><time>2026-04-19T15:44:40.609Z</time></trkpt><trkpt lat="45.85429521775889" lon="12.330839032168525"><ele>40.0</ele><time>2026-04-19T15:44:41.609Z</time></trkpt><trkpt lat="45.854025267032995" lon="12.330555320142807"><ele>41.0</ele><time>2026-04-19T15:44:42.609Z</time></trkpt><trkpt lat="45.85374745607153" lon="12.330277440966785"><ele>42.0</ele><time>2026-04-19T15:44:43.609Z</time></trkpt><trkpt lat="45.853468581864675" lon="12.329993375165326"><ele>39.5</ele><time>2026-04-19T15:44:44.609Z</time></trkpt><trkpt lat="45.85318752113443" lon="12.32970377176501"><ele>37.0</ele><time>2026-04-19T15:44:45.609Z</time></trkpt><trkpt lat="45.85289939344266" lon="12.32940681168382"><ele>37.0</ele><time>2026-04-19T15:44:46.609Z</time></trkpt><trkpt lat="45.85262394127286" lon="12.329110173712314"><ele>37.0</ele><time>2026-04-19T15:44:47.609Z</time></trkpt><trkpt lat="45.852343124883966" lon="12.328814063845494"><ele>36.5</ele><time>2026-04-19T15:44:48.609Z</time></trkpt><trkpt lat="45.85206923373446" lon="12.32851821450989"><ele>36.0</ele><time>2026-04-19T15:44:49.609Z</time></trkpt><trkpt lat="45.85178044520268" lon="12.32822563556552"><ele>36.5</ele><time>2026-04-19T15:44:50.609Z</time></trkpt><trkpt lat="45.85150213575973" lon="12.327937771470532"><ele>37.0</ele><time>2026-04-19T15:44:51.609Z</time></trkpt><trkpt lat="45.851224762850556" lon="12.327646601057818"><ele>38.0</ele><time>2026-04-19T15:44:52.609Z</time></trkpt><trkpt lat="45.85093617900195" lon="12.327357695699256"><ele>39.0</ele><time>2026-04-19T15:44:53.609Z</time></trkpt><trkpt lat="45.85065368927803" lon="12.327066251652209"><ele>39.5</ele><time>2026-04-19T15:44:54.609Z</time></trkpt><trkpt lat="45.8503703660899" lon="12.3267719631019"><ele>40.0</ele><time>2026-04-19T15:44:55.609Z</time></trkpt><trkpt lat="45.85009474486742" lon="12.326487298401103"><ele>41.0</ele><time>2026-04-19T15:44:56.609Z</time></trkpt><trkpt lat="45.84981871970058" lon="12.326196865047228"><ele>42.0</ele><time>2026-04-19T15:44:57.609Z</time></trkpt><trkpt lat="45.84954420649719" lon="12.325916081111576"><ele>42.0</ele><time>2026-04-19T15:44:58.609Z</time></trkpt><trkpt lat="45.84927063801024" lon="12.325635719824414"><ele>42.0</ele><time>2026-04-19T15:44:59.609Z</time></trkpt><trkpt lat="45.84899604618584" lon="12.325354363509804"><ele>42.0</ele><time>2026-04-19T15:45:00.609Z</time></trkpt><trkpt lat="45.84872307382299" lon="12.325078065770077"><ele>42.0</ele><time>2026-04-19T15:45:01.609Z</time></trkpt><trkpt lat="45.84845682184502" lon="12.324802304093495"><ele>41.0</ele><time>2026-04-19T15:45:02.609Z</time></trkpt><trkpt lat="45.84818679892216" lon="12.324529288352949"><ele>40.0</ele><time>2026-04-19T15:45:03.609Z</time></trkpt><trkpt lat="45.8479229698266" lon="12.324252333426756"><ele>40.0</ele><time>2026-04-19T15:45:04.609Z</time></trkpt><trkpt lat="45.84766861545282" lon="12.323984341099443"><ele>40.0</ele><time>2026-04-19T15:45:05.609Z</time></trkpt><trkpt lat="45.84740928449397" lon="12.323722028050035"><ele>40.0</ele><time>2026-04-19T15:45:06.609Z</time></trkpt><trkpt lat="45.84714908420206" lon="12.323461637035315"><ele>40.0</ele><time>2026-04-19T15:45:07.609Z</time></trkpt><trkpt lat="45.846883866390854" lon="12.323202489280865"><ele>40.0</ele><time>2026-04-19T15:45:08.61Z</time></trkpt><trkpt lat="45.8466198976368" lon="12.322946354297676"><ele>40.0</ele><time>2026-04-19T15:45:09.61Z</time></trkpt><trkpt lat="45.84636071346631" lon="12.32268088699385"><ele>40.0</ele><time>2026-04-19T15:45:10.61Z</time></trkpt><trkpt lat="45.84610275267349" lon="12.322416567450867"><ele>40.0</ele><time>2026-04-19T15:45:11.61Z</time></trkpt><trkpt lat="45.845844998140116" lon="12.322152195625083"><ele>41.5</ele><time>2026-04-19T15:45:12.61Z</time></trkpt><trkpt lat="45.845584154217825" lon="12.321878986600248"><ele>43.0</ele><time>2026-04-19T15:45:13.61Z</time></trkpt><trkpt lat="45.84532866956003" lon="12.32161612554662"><ele>44.0</ele><time>2026-04-19T15:45:14.61Z</time></trkpt><trkpt lat="45.845070542545024" lon="12.32136156285773"><ele>45.0</ele><time>2026-04-19T15:45:15.61Z</time></trkpt><trkpt lat="45.844806149168576" lon="12.321112221664961"><ele>45.0</ele><time>2026-04-19T15:45:16.61Z</time></trkpt><trkpt lat="45.844537780120675" lon="12.320875414529706"><ele>45.0</ele><time>2026-04-19T15:45:17.61Z</time></trkpt><trkpt lat="45.844269549915225" lon="12.320642533431148"><ele>44.5</ele><time>2026-04-19T15:45:18.61Z</time></trkpt><trkpt lat="45.843998986125385" lon="12.320418002007713"><ele>44.0</ele><time>2026-04-19T15:45:19.61Z</time></trkpt><trkpt lat="45.84372089540471" lon="12.320202224981424"><ele>44.0</ele><time>2026-04-19T15:45:20.61Z</time></trkpt><trkpt lat="45.8434362178006" lon="12.319993081011978"><ele>44.0</ele><time>2026-04-19T15:45:21.61Z</time></trkpt><trkpt lat="45.843155956491735" lon="12.319783316321152"><ele>44.0</ele><time>2026-04-19T15:45:22.61Z</time></trkpt><trkpt lat="45.842868536859534" lon="12.31957699995735"><ele>44.0</ele><time>2026-04-19T15:45:23.61Z</time></trkpt><trkpt lat="45.84257648876302" lon="12.31938873227056"><ele>42.5</ele><time>2026-04-19T15:45:24.61Z</time></trkpt><trkpt lat="45.842286077610105" lon="12.319202267996987"><ele>41.0</ele><time>2026-04-19T15:45:25.61Z</time></trkpt><trkpt lat="45.841991243626374" lon="12.319022838248724"><ele>43.0</ele><time>2026-04-19T15:45:26.61Z</time></trkpt><trkpt lat="45.841692248228554" lon="12.318853935084778"><ele>45.0</ele><time>2026-04-19T15:45:27.61Z</time></trkpt><trkpt lat="45.84138988328142" lon="12.318691214479061"><ele>45.0</ele><time>2026-04-19T15:45:28.61Z</time></trkpt><trkpt lat="45.841087716726975" lon="12.318528587988876"><ele>45.0</ele><time>2026-04-19T15:45:29.61Z</time></trkpt><trkpt lat="45.84079030912497" lon="12.318376110599536"><ele>44.5</ele><time>2026-04-19T15:45:30.61Z</time></trkpt><trkpt lat="45.84048652237275" lon="12.31822737039498"><ele>44.0</ele><time>2026-04-19T15:45:31.61Z</time></trkpt><trkpt lat="45.840175645585795" lon="12.318088551866973"><ele>44.0</ele><time>2026-04-19T15:45:32.61Z</time></trkpt><trkpt lat="45.839863485387106" lon="12.317955191403193"><ele>44.0</ele><time>2026-04-19T15:45:33.61Z</time></trkpt><trkpt lat="45.839553686937116" lon="12.317832013589804"><ele>44.5</ele><time>2026-04-19T15:45:34.61Z</time></trkpt><trkpt lat="45.8392402423933" lon="12.317724090485159"><ele>45.0</ele><time>2026-04-19T15:45:35.61Z</time></trkpt><trkpt lat="45.83892472487192" lon="12.31762154550726"><ele>45.0</ele><time>2026-04-19T15:45:36.61Z</time></trkpt><trkpt lat="45.83860629633568" lon="12.317521123465093"><ele>45.0</ele><time>2026-04-19T15:45:37.61Z</time></trkpt><trkpt lat="45.8382896048739" lon="12.31744568490813"><ele>45.0</ele><time>2026-04-19T15:45:38.61Z</time></trkpt><trkpt lat="45.837971387791356" lon="12.3173625044144"><ele>45.0</ele><time>2026-04-19T15:45:39.61Z</time></trkpt><trkpt lat="45.83765025479778" lon="12.317285686939774"><ele>44.5</ele><time>2026-04-19T15:45:40.61Z</time></trkpt><trkpt lat="45.8373142679741" lon="12.317234296790776"><ele>44.0</ele><time>2026-04-19T15:45:41.61Z</time></trkpt><trkpt lat="45.83697300834734" lon="12.31718369296928"><ele>44.0</ele><time>2026-04-19T15:45:42.61Z</time></trkpt><trkpt lat="45.83662051938929" lon="12.317133660500597"><ele>44.0</ele><time>2026-04-19T15:45:43.61Z</time></trkpt><trkpt lat="45.8362654636937" lon="12.317075368219554"><ele>44.5</ele><time>2026-04-19T15:45:44.61Z</time></trkpt><trkpt lat="45.83590420811761" lon="12.317009760517566"><ele>45.0</ele><time>2026-04-19T15:45:45.61Z</time></trkpt><trkpt lat="45.8355449643439" lon="12.316958019596079"><ele>45.0</ele><time>2026-04-19T15:45:46.61Z</time></trkpt><trkpt lat="45.83519646252673" lon="12.316908721166705"><ele>45.0</ele><time>2026-04-19T15:45:47.61Z</time></trkpt><trkpt lat="45.83485113500039" lon="12.31686242118972"><ele>45.0</ele><time>2026-04-19T15:45:48.61Z</time></trkpt><trkpt lat="45.83450981051941" lon="12.316810708926626"><ele>45.0</ele><time>2026-04-19T15:45:49.61Z</time></trkpt><trkpt lat="45.834176955384784" lon="12.316764599053064"><ele>44.5</ele><time>2026-04-19T15:45:50.61Z</time></trkpt><trkpt lat="45.83384596783521" lon="12.31671240050559"><ele>44.0</ele><time>2026-04-19T15:45:51.61Z</time></trkpt><trkpt lat="45.83351549144659" lon="12.316661540801533"><ele>44.0</ele><time>2026-04-19T15:45:52.61Z</time></trkpt><trkpt lat="45.83318404183623" lon="12.316600988989446"><ele>44.0</ele><time>2026-04-19T15:45:53.61Z</time></trkpt><trkpt lat="45.83285966470375" lon="12.316554812789022"><ele>43.5</ele><time>2026-04-19T15:45:54.61Z</time></trkpt><trkpt lat="45.83253788398532" lon="12.31648400587531"><ele>43.0</ele><time>2026-04-19T15:45:55.61Z</time></trkpt><trkpt lat="45.83221541756622" lon="12.316419234484774"><ele>43.0</ele><time>2026-04-19T15:45:56.61Z</time></trkpt><trkpt lat="45.831889698593095" lon="12.316357601576257"><ele>43.0</ele><time>2026-04-19T15:45:57.61Z</time></trkpt><trkpt lat="45.831564429726534" lon="12.316297284517834"><ele>43.0</ele><time>2026-04-19T15:45:58.61Z</time></trkpt><trkpt lat="45.831238395715715" lon="12.316230397612888"><ele>43.0</ele><time>2026-04-19T15:45:59.61Z</time></trkpt><trkpt lat="45.83090534783778" lon="12.31616825604875"><ele>43.5</ele><time>2026-04-19T15:46:00.61Z</time></trkpt><trkpt lat="45.83057296284737" lon="12.316115196312284"><ele>44.0</ele><time>2026-04-19T15:46:01.61Z</time></trkpt><trkpt lat="45.830237392629" lon="12.31605793855249"><ele>44.5</ele><time>2026-04-19T15:46:02.61Z</time></trkpt><trkpt lat="45.82989616845509" lon="12.31600202101545"><ele>45.0</ele><time>2026-04-19T15:46:03.61Z</time></trkpt><trkpt lat="45.829556048160335" lon="12.315942566056695"><ele>46.0</ele><time>2026-04-19T15:46:04.61Z</time></trkpt><trkpt lat="45.82921605671783" lon="12.315884020180109"><ele>47.0</ele><time>2026-04-19T15:46:05.61Z</time></trkpt><trkpt lat="45.828877024553506" lon="12.315822521435452"><ele>47.0</ele><time>2026-04-19T15:46:06.61Z</time></trkpt><trkpt lat="45.828544266248734" lon="12.315770179046968"><ele>47.0</ele><time>2026-04-19T15:46:07.61Z</time></trkpt><trkpt lat="45.828205603559596" lon="12.315713001936436"><ele>47.0</ele><time>2026-04-19T15:46:08.61Z</time></trkpt><trkpt lat="45.827866730931326" lon="12.315655084884556"><ele>47.0</ele><time>2026-04-19T15:46:09.61Z</time></trkpt><trkpt lat="45.82753177834038" lon="12.315593724094457"><ele>46.5</ele><time>2026-04-19T15:46:10.61Z</time></trkpt><trkpt lat="45.827200850750984" lon="12.315552932676127"><ele>46.0</ele><time>2026-04-19T15:46:11.61Z</time></trkpt><trkpt lat="45.826866807322126" lon="12.315497731157928"><ele>45.0</ele><time>2026-04-19T15:46:12.61Z</time></trkpt><trkpt lat="45.826532497183116" lon="12.315448547044076"><ele>44.0</ele><time>2026-04-19T15:46:13.61Z</time></trkpt><trkpt lat="45.826204975729766" lon="12.31541025074091"><ele>43.5</ele><time>2026-04-19T15:46:14.61Z</time></trkpt><trkpt lat="45.8258773404646" lon="12.315344674300297"><ele>43.0</ele><time>2026-04-19T15:46:15.61Z</time></trkpt><trkpt lat="45.82555490760464" lon="12.315300533135137"><ele>43.0</ele><time>2026-04-19T15:46:16.61Z</time></trkpt><trkpt lat="45.82523016423845" lon="12.315254112565894"><ele>43.0</ele><time>2026-04-19T15:46:17.61Z</time></trkpt><trkpt lat="45.82490641246113" lon="12.315209629021876"><ele>44.5</ele><time>2026-04-19T15:46:18.61Z</time></trkpt><trkpt lat="45.82458089707615" lon="12.315164386910157"><ele>46.0</ele><time>2026-04-19T15:46:19.61Z</time></trkpt><trkpt lat="45.824257341177514" lon="12.315110445386019"><ele>46.0</ele><time>2026-04-19T15:46:20.61Z</time></trkpt><trkpt lat="45.82393714764812" lon="12.315064752532471"><ele>46.0</ele><time>2026-04-19T15:46:21.61Z</time></trkpt><trkpt lat="45.82362008549994" lon="12.31501603787725"><ele>46.0</ele><time>2026-04-19T15:46:22.61Z</time></trkpt><trkpt lat="45.82330202427585" lon="12.314958856052419"><ele>46.0</ele><time>2026-04-19T15:46:23.61Z</time></trkpt><trkpt lat="45.82298984236566" lon="12.314900931841231"><ele>46.0</ele><time>2026-04-19T15:46:24.61Z</time></trkpt><trkpt lat="45.822681540812454" lon="12.314856515006634"><ele>46.0</ele><time>2026-04-19T15:46:25.61Z</time></trkpt><trkpt lat="45.82238244242757" lon="12.314790733003047"><ele>46.5</ele><time>2026-04-19T15:46:26.61Z</time></trkpt><trkpt lat="45.82207638544277" lon="12.314722102879477"><ele>47.0</ele><time>2026-04-19T15:46:27.61Z</time></trkpt><trkpt lat="45.821779135816676" lon="12.314659465554294"><ele>47.0</ele><time>2026-04-19T15:46:28.61Z</time></trkpt><trkpt lat="45.82148151504826" lon="12.314583127686015"><ele>47.0</ele><time>2026-04-19T15:46:29.61Z</time></trkpt><trkpt lat="45.82118263553283" lon="12.314488851918535"><ele>46.5</ele><time>2026-04-19T15:46:30.61Z</time></trkpt><trkpt lat="45.82088591078259" lon="12.314387689141174"><ele>46.0</ele><time>2026-04-19T15:46:31.61Z</time></trkpt><trkpt lat="45.82058832193732" lon="12.314271610931417"><ele>46.0</ele><time>2026-04-19T15:46:32.61Z</time></trkpt><trkpt lat="45.82029299494976" lon="12.314151619885946"><ele>46.0</ele><time>2026-04-19T15:46:33.61Z</time></trkpt><trkpt lat="45.819990445869834" lon="12.31402582772787"><ele>46.5</ele><time>2026-04-19T15:46:34.61Z</time></trkpt><trkpt lat="45.819689585075174" lon="12.313878760231143"><ele>47.0</ele><time>2026-04-19T15:46:35.61Z</time></trkpt><trkpt lat="45.8193863291644" lon="12.313715120662986"><ele>47.0</ele><time>2026-04-19T15:46:36.61Z</time></trkpt><trkpt lat="45.819089779178555" lon="12.313558324349353"><ele>47.0</ele><time>2026-04-19T15:46:37.61Z</time></trkpt><trkpt lat="45.8187938615745" lon="12.313391070476193"><ele>47.0</ele><time>2026-04-19T15:46:38.61Z</time></trkpt><trkpt lat="45.81849817053281" lon="12.31321592254415"><ele>47.0</ele><time>2026-04-19T15:46:39.61Z</time></trkpt><trkpt lat="45.81821008608722" lon="12.313012954752791"><ele>47.5</ele><time>2026-04-19T15:46:40.61Z</time></trkpt><trkpt lat="45.81791954719535" lon="12.312806951423848"><ele>48.0</ele><time>2026-04-19T15:46:41.61Z</time></trkpt><trkpt lat="45.81762192056503" lon="12.312590378013823"><ele>48.5</ele><time>2026-04-19T15:46:42.61Z</time></trkpt><trkpt lat="45.81732109780637" lon="12.31235832578595"><ele>49.0</ele><time>2026-04-19T15:46:43.61Z</time></trkpt><trkpt lat="45.81701776918162" lon="12.312108982420943"><ele>48.0</ele><time>2026-04-19T15:46:44.61Z</time></trkpt><trkpt lat="45.816709806695506" lon="12.311824263924683"><ele>47.0</ele><time>2026-04-19T15:46:45.61Z</time></trkpt><trkpt lat="45.8163953370703" lon="12.311546704980955"><ele>47.0</ele><time>2026-04-19T15:46:46.61Z</time></trkpt><trkpt lat="45.81607143893542" lon="12.311246826239486"><ele>47.0</ele><time>2026-04-19T15:46:47.61Z</time></trkpt><trkpt lat="45.815757989714676" lon="12.310946738567637"><ele>47.0</ele><time>2026-04-19T15:46:48.61Z</time></trkpt><trkpt lat="45.815453216118016" lon="12.310663841807841"><ele>47.0</ele><time>2026-04-19T15:46:49.61Z</time></trkpt><trkpt lat="45.81514869758296" lon="12.310375312513615"><ele>46.5</ele><time>2026-04-19T15:46:50.61Z</time></trkpt><trkpt lat="45.81484069711113" lon="12.310094894540915"><ele>46.0</ele><time>2026-04-19T15:46:51.61Z</time></trkpt><trkpt lat="45.814532395625584" lon="12.30981474078822"><ele>47.5</ele><time>2026-04-19T15:46:52.61Z</time></trkpt><trkpt lat="45.81422468084147" lon="12.309540006020086"><ele>49.0</ele><time>2026-04-19T15:46:53.61Z</time></trkpt><trkpt lat="45.81391867010626" lon="12.309253828666074"><ele>49.0</ele><time>2026-04-19T15:46:54.61Z</time></trkpt><trkpt lat="45.81361548189661" lon="12.308971101987284"><ele>49.0</ele><time>2026-04-19T15:46:55.61Z</time></trkpt><trkpt lat="45.813306098370745" lon="12.308694828911293"><ele>47.5</ele><time>2026-04-19T15:46:56.61Z</time></trkpt><trkpt lat="45.813004284995024" lon="12.308417136012551"><ele>46.0</ele><time>2026-04-19T15:46:57.61Z</time></trkpt><trkpt lat="45.812713658265665" lon="12.308148214124559"><ele>47.0</ele><time>2026-04-19T15:46:58.61Z</time></trkpt><trkpt lat="45.81242400612342" lon="12.307885605995436"><ele>48.0</ele><time>2026-04-19T15:46:59.61Z</time></trkpt><trkpt lat="45.812139289862536" lon="12.307635769508027"><ele>48.0</ele><time>2026-04-19T15:47:00.61Z</time></trkpt><trkpt lat="45.811850937476706" lon="12.307379932443238"><ele>48.0</ele><time>2026-04-19T15:47:01.61Z</time></trkpt><trkpt lat="45.811556328415705" lon="12.307140144746858"><ele>47.5</ele><time>2026-04-19T15:47:02.61Z</time></trkpt><trkpt lat="45.811268259161466" lon="12.30689000279209"><ele>47.0</ele><time>2026-04-19T15:47:03.61Z</time></trkpt><trkpt lat="45.81096771210923" lon="12.306648301069664"><ele>48.5</ele><time>2026-04-19T15:47:04.61Z</time></trkpt><trkpt lat="45.81066509521808" lon="12.306405158071916"><ele>50.0</ele><time>2026-04-19T15:47:05.61Z</time></trkpt><trkpt lat="45.81036374058099" lon="12.306161788060768"><ele>49.5</ele><time>2026-04-19T15:47:06.61Z</time></trkpt><trkpt lat="45.81006300255915" lon="12.305926433750697"><ele>49.0</ele><time>2026-04-19T15:47:07.61Z</time></trkpt><trkpt lat="45.80975170323531" lon="12.305695879530118"><ele>48.0</ele><time>2026-04-19T15:47:08.61Z</time></trkpt><trkpt lat="45.80943796569612" lon="12.305465134585475"><ele>47.0</ele><time>2026-04-19T15:47:09.61Z</time></trkpt><trkpt lat="45.809128705823206" lon="12.305234040598569"><ele>47.0</ele><time>2026-04-19T15:47:10.61Z</time></trkpt><trkpt lat="45.80882889528198" lon="12.305007796270514"><ele>47.0</ele><time>2026-04-19T15:47:11.61Z</time></trkpt><trkpt lat="45.808520463629186" lon="12.304788531030091"><ele>48.0</ele><time>2026-04-19T15:47:12.61Z</time></trkpt><trkpt lat="45.80821650955507" lon="12.30457580178253"><ele>49.0</ele><time>2026-04-19T15:47:13.61Z</time></trkpt><trkpt lat="45.80791459381406" lon="12.304361575568544"><ele>48.5</ele><time>2026-04-19T15:47:14.611Z</time></trkpt><trkpt lat="45.80762231723793" lon="12.304160584781414"><ele>48.0</ele><time>2026-04-19T15:47:15.611Z</time></trkpt><trkpt lat="45.807320197683566" lon="12.303970015275386"><ele>47.5</ele><time>2026-04-19T15:47:16.611Z</time></trkpt><trkpt lat="45.807015918732496" lon="12.303792085934377"><ele>47.0</ele><time>2026-04-19T15:47:17.611Z</time></trkpt><trkpt lat="45.80674363677723" lon="12.303596072914985"><ele>47.0</ele><time>2026-04-19T15:47:18.611Z</time></trkpt><trkpt lat="45.806449414971354" lon="12.303417753819819"><ele>47.0</ele><time>2026-04-19T15:47:19.611Z</time></trkpt><trkpt lat="45.80615131970307" lon="12.303242043950132"><ele>47.5</ele><time>2026-04-19T15:47:20.612Z</time></trkpt><trkpt lat="45.805844869951244" lon="12.303060459640532"><ele>48.0</ele><time>2026-04-19T15:47:21.612Z</time></trkpt><trkpt lat="45.805541446873555" lon="12.302876022718428"><ele>48.0</ele><time>2026-04-19T15:47:22.612Z</time></trkpt><trkpt lat="45.8052316006822" lon="12.302678104047551"><ele>48.0</ele><time>2026-04-19T15:47:23.612Z</time></trkpt><trkpt lat="45.80491896893824" lon="12.302487708064652"><ele>48.0</ele><time>2026-04-19T15:47:24.612Z</time></trkpt><trkpt lat="45.804610472497785" lon="12.302289565187289"><ele>48.0</ele><time>2026-04-19T15:47:25.612Z</time></trkpt><trkpt lat="45.80429434699012" lon="12.302097359765499"><ele>48.5</ele><time>2026-04-19T15:47:26.612Z</time></trkpt><trkpt lat="45.80398430503116" lon="12.301890815859764"><ele>49.0</ele><time>2026-04-19T15:47:27.612Z</time></trkpt><trkpt lat="45.803677844601715" lon="12.30169623464171"><ele>48.5</ele><time>2026-04-19T15:47:28.612Z</time></trkpt><trkpt lat="45.80336842755369" lon="12.301508660247498"><ele>48.0</ele><time>2026-04-19T15:47:29.612Z</time></trkpt><trkpt lat="45.80306657355764" lon="12.301312529969021"><ele>47.5</ele><time>2026-04-19T15:47:30.612Z</time></trkpt><trkpt lat="45.80276869356023" lon="12.301109394269345"><ele>47.0</ele><time>2026-04-19T15:47:31.612Z</time></trkpt><trkpt lat="45.80247474756673" lon="12.300918621246593"><ele>47.0</ele><time>2026-04-19T15:47:32.612Z</time></trkpt><trkpt lat="45.802178091801345" lon="12.300724473905353"><ele>47.0</ele><time>2026-04-19T15:47:33.612Z</time></trkpt><trkpt lat="45.801883472636575" lon="12.300530199509266"><ele>48.0</ele><time>2026-04-19T15:47:34.612Z</time></trkpt><trkpt lat="45.80158635167785" lon="12.30034244473955"><ele>49.0</ele><time>2026-04-19T15:47:35.612Z</time></trkpt><trkpt lat="45.801297434336604" lon="12.30015452476138"><ele>49.0</ele><time>2026-04-19T15:47:36.612Z</time></trkpt><trkpt lat="45.80101322843286" lon="12.299974691816427"><ele>49.0</ele><time>2026-04-19T15:47:37.612Z</time></trkpt><trkpt lat="45.80072968886892" lon="12.299796622081793"><ele>48.5</ele><time>2026-04-19T15:47:38.612Z</time></trkpt><trkpt lat="45.80044923832643" lon="12.299624476616069"><ele>48.0</ele><time>2026-04-19T15:47:39.612Z</time></trkpt><trkpt lat="45.80017217766753" lon="12.299448808804454"><ele>49.0</ele><time>2026-04-19T15:47:40.612Z</time></trkpt><trkpt lat="45.79989598679812" lon="12.299269381672028"><ele>50.0</ele><time>2026-04-19T15:47:41.612Z</time></trkpt><trkpt lat="45.79961678757201" lon="12.29909115724638"><ele>50.5</ele><time>2026-04-19T15:47:42.612Z</time></trkpt><trkpt lat="45.79933289308497" lon="12.298916706160725"><ele>51.0</ele><time>2026-04-19T15:47:43.612Z</time></trkpt><trkpt lat="45.79905376753544" lon="12.298739590975105"><ele>51.0</ele><time>2026-04-19T15:47:44.612Z</time></trkpt><trkpt lat="45.79877758021401" lon="12.298556583158817"><ele>51.0</ele><time>2026-04-19T15:47:45.612Z</time></trkpt><trkpt lat="45.79849695552069" lon="12.298379233297712"><ele>52.0</ele><time>2026-04-19T15:47:46.612Z</time></trkpt><trkpt lat="45.7982137980864" lon="12.298194634060959"><ele>53.0</ele><time>2026-04-19T15:47:47.612Z</time></trkpt><trkpt lat="45.797930604229634" lon="12.298013925886153"><ele>51.5</ele><time>2026-04-19T15:47:48.612Z</time></trkpt><trkpt lat="45.79764163673872" lon="12.297832660145955"><ele>50.0</ele><time>2026-04-19T15:47:49.612Z</time></trkpt><trkpt lat="45.79735676486729" lon="12.297653856723825"><ele>50.0</ele><time>2026-04-19T15:47:50.612Z</time></trkpt><trkpt lat="45.79707463125324" lon="12.297473369483034"><ele>50.0</ele><time>2026-04-19T15:47:51.612Z</time></trkpt><trkpt lat="45.79678890081302" lon="12.297300931747884"><ele>50.0</ele><time>2026-04-19T15:47:52.612Z</time></trkpt><trkpt lat="45.79651260105255" lon="12.297122699431334"><ele>50.0</ele><time>2026-04-19T15:47:53.612Z</time></trkpt><trkpt lat="45.79623831709548" lon="12.296943639563557"><ele>49.5</ele><time>2026-04-19T15:47:54.612Z</time></trkpt><trkpt lat="45.79596588323737" lon="12.296750831709751"><ele>49.0</ele><time>2026-04-19T15:47:55.612Z</time></trkpt><trkpt lat="45.795689856098605" lon="12.296573602078885"><ele>48.5</ele><time>2026-04-19T15:47:56.612Z</time></trkpt><trkpt lat="45.795414912773204" lon="12.296405807790787"><ele>48.0</ele><time>2026-04-19T15:47:57.612Z</time></trkpt><trkpt lat="45.79513679304893" lon="12.296230567281452"><ele>49.5</ele><time>2026-04-19T15:47:58.612Z</time></trkpt><trkpt lat="45.79485712379673" lon="12.296052304121416"><ele>51.0</ele><time>2026-04-19T15:47:59.612Z</time></trkpt><trkpt lat="45.79457746983024" lon="12.295882076264174"><ele>51.0</ele><time>2026-04-19T15:48:00.612Z</time></trkpt><trkpt lat="45.794296301599196" lon="12.295699411013938"><ele>51.0</ele><time>2026-04-19T15:48:01.612Z</time></trkpt><trkpt lat="45.794014917464345" lon="12.295522099250684"><ele>50.5</ele><time>2026-04-19T15:48:02.612Z</time></trkpt><trkpt lat="45.79373806330323" lon="12.29534124132329"><ele>50.0</ele><time>2026-04-19T15:48:03.612Z</time></trkpt><trkpt lat="45.793461985366925" lon="12.295161953125504"><ele>48.5</ele><time>2026-04-19T15:48:04.612Z</time></trkpt><trkpt lat="45.79318330341416" lon="12.294986611503896"><ele>47.0</ele><time>2026-04-19T15:48:05.612Z</time></trkpt><trkpt lat="45.79290404807702" lon="12.294811690314182"><ele>45.5</ele><time>2026-04-19T15:48:06.612Z</time></trkpt><trkpt lat="45.79262542708662" lon="12.294635982482555"><ele>44.0</ele><time>2026-04-19T15:48:07.612Z</time></trkpt><trkpt lat="45.79235025669363" lon="12.294458819775308"><ele>44.0</ele><time>2026-04-19T15:48:08.612Z</time></trkpt><trkpt lat="45.792070762091015" lon="12.2942856497668"><ele>44.0</ele><time>2026-04-19T15:48:09.612Z</time></trkpt><trkpt lat="45.791792277577024" lon="12.29410149173612"><ele>44.5</ele><time>2026-04-19T15:48:10.612Z</time></trkpt><trkpt lat="45.791507990849965" lon="12.293909887020478"><ele>45.0</ele><time>2026-04-19T15:48:11.612Z</time></trkpt><trkpt lat="45.791222933183164" lon="12.293727050692835"><ele>45.5</ele><time>2026-04-19T15:48:12.612Z</time></trkpt><trkpt lat="45.79093970863849" lon="12.293544804030862"><ele>46.0</ele><time>2026-04-19T15:48:13.612Z</time></trkpt><trkpt lat="45.79065584752193" lon="12.293367489456077"><ele>46.0</ele><time>2026-04-19T15:48:14.612Z</time></trkpt><trkpt lat="45.790368480062135" lon="12.293187238124498"><ele>46.0</ele><time>2026-04-19T15:48:15.612Z</time></trkpt><trkpt lat="45.79007615140607" lon="12.293008185618913"><ele>45.5</ele><time>2026-04-19T15:48:16.612Z</time></trkpt><trkpt lat="45.78978785107506" lon="12.292824935095963"><ele>45.0</ele><time>2026-04-19T15:48:17.612Z</time></trkpt><trkpt lat="45.78949772871037" lon="12.29264506912557"><ele>46.5</ele><time>2026-04-19T15:48:18.612Z</time></trkpt><trkpt lat="45.78921084822749" lon="12.292466223804645"><ele>48.0</ele><time>2026-04-19T15:48:19.612Z</time></trkpt><trkpt lat="45.78892673871933" lon="12.292288614228777"><ele>47.5</ele><time>2026-04-19T15:48:20.612Z</time></trkpt><trkpt lat="45.78865105797574" lon="12.29211656268293"><ele>47.0</ele><time>2026-04-19T15:48:21.612Z</time></trkpt><trkpt lat="45.788372328319085" lon="12.291934390369734"><ele>47.0</ele><time>2026-04-19T15:48:22.612Z</time></trkpt><trkpt lat="45.7881004470366" lon="12.291758344237241"><ele>47.0</ele><time>2026-04-19T15:48:23.612Z</time></trkpt><trkpt lat="45.78783188364885" lon="12.291583838585261"><ele>48.5</ele><time>2026-04-19T15:48:24.612Z</time></trkpt><trkpt lat="45.78756664196073" lon="12.291411614414024"><ele>50.0</ele><time>2026-04-19T15:48:25.612Z</time></trkpt><trkpt lat="45.78729406966279" lon="12.2912389367362"><ele>50.0</ele><time>2026-04-19T15:48:26.612Z</time></trkpt><trkpt lat="45.787013663614566" lon="12.29106739941015"><ele>50.0</ele><time>2026-04-19T15:48:27.612Z</time></trkpt><trkpt lat="45.786733335368" lon="12.290885920406675"><ele>51.0</ele><time>2026-04-19T15:48:28.612Z</time></trkpt><trkpt lat="45.78643852380052" lon="12.290696036829905"><ele>52.0</ele><time>2026-04-19T15:48:29.612Z</time></trkpt><trkpt lat="45.786131208415966" lon="12.290506710010023"><ele>50.5</ele><time>2026-04-19T15:48:30.612Z</time></trkpt><trkpt lat="45.78581464011049" lon="12.290304297132002"><ele>49.0</ele><time>2026-04-19T15:48:31.612Z</time></trkpt><trkpt lat="45.78549502522379" lon="12.29009997375686"><ele>49.0</ele><time>2026-04-19T15:48:32.612Z</time></trkpt><trkpt lat="45.78518066814659" lon="12.289901447832275"><ele>49.0</ele><time>2026-04-19T15:48:33.612Z</time></trkpt><trkpt lat="45.78486711876651" lon="12.289707087180302"><ele>49.5</ele><time>2026-04-19T15:48:34.612Z</time></trkpt><trkpt lat="45.78455520519271" lon="12.289511004469974"><ele>50.0</ele><time>2026-04-19T15:48:35.612Z</time></trkpt><trkpt lat="45.784252799953016" lon="12.289316961080237"><ele>50.0</ele><time>2026-04-19T15:48:36.612Z</time></trkpt><trkpt lat="45.78393932163782" lon="12.289127423295254"><ele>50.0</ele><time>2026-04-19T15:48:37.612Z</time></trkpt><trkpt lat="45.78362693848528" lon="12.288960209416965"><ele>49.5</ele><time>2026-04-19T15:48:38.612Z</time></trkpt><trkpt lat="45.78331277918296" lon="12.288787109059736"><ele>49.0</ele><time>2026-04-19T15:48:39.612Z</time></trkpt><trkpt lat="45.783001548263776" lon="12.28863517933916"><ele>49.0</ele><time>2026-04-19T15:48:40.612Z</time></trkpt><trkpt lat="45.78268312918267" lon="12.288500867148983"><ele>49.0</ele><time>2026-04-19T15:48:41.612Z</time></trkpt><trkpt lat="45.78236472848115" lon="12.288378215384935"><ele>48.5</ele><time>2026-04-19T15:48:42.612Z</time></trkpt><trkpt lat="45.78204452101512" lon="12.288272734497685"><ele>48.0</ele><time>2026-04-19T15:48:43.612Z</time></trkpt><trkpt lat="45.78172325678953" lon="12.288170469771343"><ele>47.0</ele><time>2026-04-19T15:48:44.612Z</time></trkpt><trkpt lat="45.78139861332089" lon="12.288076989393849"><ele>46.0</ele><time>2026-04-19T15:48:45.612Z</time></trkpt><trkpt lat="45.7810570829133" lon="12.287993002604772"><ele>45.5</ele><time>2026-04-19T15:48:46.612Z</time></trkpt><trkpt lat="45.78070895781278" lon="12.287911395168033"><ele>45.0</ele><time>2026-04-19T15:48:47.612Z</time></trkpt><trkpt lat="45.78035276019883" lon="12.287840913566244"><ele>45.5</ele><time>2026-04-19T15:48:48.612Z</time></trkpt><trkpt lat="45.78000039919683" lon="12.28778018518835"><ele>46.0</ele><time>2026-04-19T15:48:49.612Z</time></trkpt><trkpt lat="45.779644804058236" lon="12.287712827613458"><ele>45.0</ele><time>2026-04-19T15:48:50.612Z</time></trkpt><trkpt lat="45.77928090714986" lon="12.287647315084717"><ele>44.0</ele><time>2026-04-19T15:48:51.612Z</time></trkpt><trkpt lat="45.77892346234523" lon="12.287562909605958"><ele>44.0</ele><time>2026-04-19T15:48:52.612Z</time></trkpt><trkpt lat="45.77856672811494" lon="12.287491423247854"><ele>44.0</ele><time>2026-04-19T15:48:53.612Z</time></trkpt><trkpt lat="45.77821277905178" lon="12.28742567590105"><ele>44.0</ele><time>2026-04-19T15:48:54.612Z</time></trkpt><trkpt lat="45.77786392856712" lon="12.287362699878349"><ele>44.0</ele><time>2026-04-19T15:48:55.612Z</time></trkpt><trkpt lat="45.777520564892185" lon="12.287294434397092"><ele>43.5</ele><time>2026-04-19T15:48:56.612Z</time></trkpt><trkpt lat="45.7771812565703" lon="12.287229667043505"><ele>43.0</ele><time>2026-04-19T15:48:57.612Z</time></trkpt><trkpt lat="45.77684475172086" lon="12.287159856929716"><ele>45.5</ele><time>2026-04-19T15:48:58.612Z</time></trkpt><trkpt lat="45.776512099963725" lon="12.287081686885434"><ele>48.0</ele><time>2026-04-19T15:48:59.612Z</time></trkpt><trkpt lat="45.776186912668976" lon="12.287003931606218"><ele>47.5</ele><time>2026-04-19T15:49:00.612Z</time></trkpt><trkpt lat="45.775865108700955" lon="12.286923559628947"><ele>47.0</ele><time>2026-04-19T15:49:01.612Z</time></trkpt><trkpt lat="45.77553771492326" lon="12.286831860359342"><ele>47.0</ele><time>2026-04-19T15:49:02.612Z</time></trkpt><trkpt lat="45.77520693441607" lon="12.286726052080297"><ele>47.0</ele><time>2026-04-19T15:49:03.612Z</time></trkpt><trkpt lat="45.77487283095654" lon="12.28660251958157"><ele>46.0</ele><time>2026-04-19T15:49:04.612Z</time></trkpt><trkpt lat="45.77453495764736" lon="12.286478338975899"><ele>45.0</ele><time>2026-04-19T15:49:05.612Z</time></trkpt><trkpt lat="45.77419285172081" lon="12.28633930346966"><ele>45.0</ele><time>2026-04-19T15:49:06.612Z</time></trkpt><trkpt lat="45.77384916976557" lon="12.286193167895787"><ele>45.0</ele><time>2026-04-19T15:49:07.612Z</time></trkpt><trkpt lat="45.77350810922819" lon="12.28604272638712"><ele>45.5</ele><time>2026-04-19T15:49:08.612Z</time></trkpt><trkpt lat="45.77315410789875" lon="12.285868284271107"><ele>46.0</ele><time>2026-04-19T15:49:09.612Z</time></trkpt><trkpt lat="45.77279333435565" lon="12.285686813172175"><ele>45.0</ele><time>2026-04-19T15:49:10.612Z</time></trkpt><trkpt lat="45.7724260604415" lon="12.28549214210549"><ele>44.0</ele><time>2026-04-19T15:49:11.612Z</time></trkpt><trkpt lat="45.77206230325295" lon="12.28529010421776"><ele>44.5</ele><time>2026-04-19T15:49:12.612Z</time></trkpt><trkpt lat="45.77169994525714" lon="12.285098333258382"><ele>45.0</ele><time>2026-04-19T15:49:13.612Z</time></trkpt><trkpt lat="45.7713413654484" lon="12.284897475142744"><ele>44.5</ele><time>2026-04-19T15:49:14.612Z</time></trkpt><trkpt lat="45.77098555038728" lon="12.284708929255993"><ele>44.0</ele><time>2026-04-19T15:49:15.612Z</time></trkpt><trkpt lat="45.77064168562025" lon="12.284520360336849"><ele>44.0</ele><time>2026-04-19T15:49:16.612Z</time></trkpt><trkpt lat="45.77029912508235" lon="12.284337428845783"><ele>44.0</ele><time>2026-04-19T15:49:17.612Z</time></trkpt><trkpt lat="45.76996272673206" lon="12.284152390490352"><ele>44.0</ele><time>2026-04-19T15:49:18.612Z</time></trkpt><trkpt lat="45.76964118885475" lon="12.283976621172632"><ele>44.0</ele><time>2026-04-19T15:49:19.612Z</time></trkpt><trkpt lat="45.769322096255976" lon="12.283808698470695"><ele>44.0</ele><time>2026-04-19T15:49:20.613Z</time></trkpt><trkpt lat="45.769009915593145" lon="12.28364200030787"><ele>44.0</ele><time>2026-04-19T15:49:21.613Z</time></trkpt><trkpt lat="45.76871459510916" lon="12.283501377235318"><ele>41.5</ele><time>2026-04-19T15:49:22.613Z</time></trkpt><trkpt lat="45.76841158629089" lon="12.283344319695326"><ele>39.0</ele><time>2026-04-19T15:49:23.613Z</time></trkpt><trkpt lat="45.76810519814452" lon="12.283194836466501"><ele>40.5</ele><time>2026-04-19T15:49:24.613Z</time></trkpt><trkpt lat="45.767798065364076" lon="12.28305074903856"><ele>42.0</ele><time>2026-04-19T15:49:25.613Z</time></trkpt><trkpt lat="45.76750154775486" lon="12.282907334452359"><ele>42.0</ele><time>2026-04-19T15:49:26.613Z</time></trkpt><trkpt lat="45.76721097960897" lon="12.282773419066986"><ele>42.0</ele><time>2026-04-19T15:49:27.613Z</time></trkpt><trkpt lat="45.76691868409589" lon="12.282635410264318"><ele>41.5</ele><time>2026-04-19T15:49:28.613Z</time></trkpt><trkpt lat="45.766633151822006" lon="12.282502971057434"><ele>41.0</ele><time>2026-04-19T15:49:29.613Z</time></trkpt><trkpt lat="45.76634936110257" lon="12.282375891217567"><ele>41.5</ele><time>2026-04-19T15:49:30.613Z</time></trkpt><trkpt lat="45.766065503006075" lon="12.282241026083415"><ele>42.0</ele><time>2026-04-19T15:49:31.613Z</time></trkpt><trkpt lat="45.76578139602405" lon="12.282121243500212"><ele>42.0</ele><time>2026-04-19T15:49:32.613Z</time></trkpt><trkpt lat="45.76549343930612" lon="12.282001354918677"><ele>42.0</ele><time>2026-04-19T15:49:33.613Z</time></trkpt><trkpt lat="45.76520622261502" lon="12.281865599239001"><ele>42.0</ele><time>2026-04-19T15:49:34.613Z</time></trkpt><trkpt lat="45.764924183417406" lon="12.281742841404817"><ele>42.0</ele><time>2026-04-19T15:49:35.613Z</time></trkpt><trkpt lat="45.764648049559575" lon="12.281634290373248"><ele>42.0</ele><time>2026-04-19T15:49:36.613Z</time></trkpt><trkpt lat="45.76436562333776" lon="12.281509086633196"><ele>42.0</ele><time>2026-04-19T15:49:37.613Z</time></trkpt><trkpt lat="45.7640941697922" lon="12.281387260023353"><ele>42.5</ele><time>2026-04-19T15:49:38.613Z</time></trkpt><trkpt lat="45.763838280190804" lon="12.281292469124166"><ele>43.0</ele><time>2026-04-19T15:49:39.613Z</time></trkpt><trkpt lat="45.76358830348291" lon="12.281189117201542"><ele>42.5</ele><time>2026-04-19T15:49:40.613Z</time></trkpt><trkpt lat="45.76333995347629" lon="12.28107558079247"><ele>42.0</ele><time>2026-04-19T15:49:41.613Z</time></trkpt><trkpt lat="45.763088702682886" lon="12.280963517127288"><ele>42.0</ele><time>2026-04-19T15:49:42.613Z</time></trkpt><trkpt lat="45.76283421830222" lon="12.280853465321332"><ele>42.0</ele><time>2026-04-19T15:49:43.613Z</time></trkpt><trkpt lat="45.762575500543534" lon="12.280742135073316"><ele>42.0</ele><time>2026-04-19T15:49:44.613Z</time></trkpt><trkpt lat="45.76232385448937" lon="12.28063941068207"><ele>42.0</ele><time>2026-04-19T15:49:45.613Z</time></trkpt><trkpt lat="45.762069000233325" lon="12.280535536745422"><ele>41.0</ele><time>2026-04-19T15:49:46.613Z</time></trkpt><trkpt lat="45.76181580208749" lon="12.280431805391649"><ele>40.0</ele><time>2026-04-19T15:49:47.613Z</time></trkpt><trkpt lat="45.76156342018298" lon="12.280310993281855"><ele>40.0</ele><time>2026-04-19T15:49:48.613Z</time></trkpt><trkpt lat="45.76131299449957" lon="12.280212596023903"><ele>40.0</ele><time>2026-04-19T15:49:49.613Z</time></trkpt><trkpt lat="45.76106684500735" lon="12.2801190108861"><ele>41.5</ele><time>2026-04-19T15:49:50.613Z</time></trkpt><trkpt lat="45.76082162190204" lon="12.280020807232125"><ele>43.0</ele><time>2026-04-19T15:49:51.613Z</time></trkpt><trkpt lat="45.760576053877635" lon="12.27991690154414"><ele>43.0</ele><time>2026-04-19T15:49:52.613Z</time></trkpt><trkpt lat="45.76033515938731" lon="12.2798209037117"><ele>43.0</ele><time>2026-04-19T15:49:53.613Z</time></trkpt><trkpt lat="45.76009159662446" lon="12.27969607823845"><ele>43.0</ele><time>2026-04-19T15:49:54.613Z</time></trkpt><trkpt lat="45.75983379916579" lon="12.279574459411155"><ele>43.0</ele><time>2026-04-19T15:49:55.613Z</time></trkpt><trkpt lat="45.759569136259294" lon="12.279463516700863"><ele>43.0</ele><time>2026-04-19T15:49:56.613Z</time></trkpt><trkpt lat="45.75929236871204" lon="12.279352373215408"><ele>43.0</ele><time>2026-04-19T15:49:57.613Z</time></trkpt><trkpt lat="45.759019809968684" lon="12.279241791739794"><ele>43.0</ele><time>2026-04-19T15:49:58.613Z</time></trkpt><trkpt lat="45.75873663871662" lon="12.279113158462879"><ele>43.0</ele><time>2026-04-19T15:49:59.613Z</time></trkpt><trkpt lat="45.75845007418604" lon="12.278991184412824"><ele>43.5</ele><time>2026-04-19T15:50:00.613Z</time></trkpt><trkpt lat="45.75816374340148" lon="12.278892777181671"><ele>44.0</ele><time>2026-04-19T15:50:01.613Z</time></trkpt><trkpt lat="45.757880451212564" lon="12.278795410111316"><ele>43.5</ele><time>2026-04-19T15:50:02.613Z</time></trkpt><trkpt lat="45.757606571515204" lon="12.278719593766379"><ele>43.0</ele><time>2026-04-19T15:50:03.613Z</time></trkpt><trkpt lat="45.7573386729974" lon="12.278636679825345"><ele>43.0</ele><time>2026-04-19T15:50:04.613Z</time></trkpt><trkpt lat="45.75707416505091" lon="12.278576413973834"><ele>43.0</ele><time>2026-04-19T15:50:05.613Z</time></trkpt><trkpt lat="45.75681552687587" lon="12.278523832361312"><ele>42.5</ele><time>2026-04-19T15:50:06.613Z</time></trkpt><trkpt lat="45.75655843572594" lon="12.278475452795806"><ele>42.0</ele><time>2026-04-19T15:50:07.613Z</time></trkpt><trkpt lat="45.75629478258112" lon="12.278434967566843"><ele>41.5</ele><time>2026-04-19T15:50:08.613Z</time></trkpt><trkpt lat="45.756028762435015" lon="12.278411995361589"><ele>41.0</ele><time>2026-04-19T15:50:09.613Z</time></trkpt><trkpt lat="45.755766168661765" lon="12.278390067313264"><ele>41.0</ele><time>2026-04-19T15:50:10.613Z</time></trkpt><trkpt lat="45.75549547946083" lon="12.278354416245138"><ele>41.0</ele><time>2026-04-19T15:50:11.613Z</time></trkpt><trkpt lat="45.755229250636965" lon="12.278329109238278"><ele>40.0</ele><time>2026-04-19T15:50:12.613Z</time></trkpt><trkpt lat="45.75496709113445" lon="12.278294800801078"><ele>39.0</ele><time>2026-04-19T15:50:13.613Z</time></trkpt><trkpt lat="45.75471044107522" lon="12.278269753690218"><ele>39.0</ele><time>2026-04-19T15:50:14.613Z</time></trkpt><trkpt lat="45.75446142515073" lon="12.27826749651289"><ele>39.0</ele><time>2026-04-19T15:50:15.613Z</time></trkpt><trkpt lat="45.75421372482654" lon="12.278286571838649"><ele>39.0</ele><time>2026-04-19T15:50:16.613Z</time></trkpt><trkpt lat="45.75396967669591" lon="12.278313777439653"><ele>39.0</ele><time>2026-04-19T15:50:17.613Z</time></trkpt><trkpt lat="45.753730416732495" lon="12.278347775332605"><ele>39.0</ele><time>2026-04-19T15:50:18.613Z</time></trkpt><trkpt lat="45.753489566989565" lon="12.27838416177921"><ele>39.0</ele><time>2026-04-19T15:50:19.613Z</time></trkpt><trkpt lat="45.75325198586413" lon="12.278418318973491"><ele>39.0</ele><time>2026-04-19T15:50:20.613Z</time></trkpt><trkpt lat="45.753032475987226" lon="12.27844800999369"><ele>39.0</ele><time>2026-04-19T15:50:21.613Z</time></trkpt><trkpt lat="45.752820160594" lon="12.278482971201287"><ele>39.0</ele><time>2026-04-19T15:50:22.613Z</time></trkpt><trkpt lat="45.752616090119844" lon="12.278512973416197"><ele>38.666666666666664</ele><time>2026-04-19T15:50:23.613Z</time></trkpt><trkpt lat="45.752414147246654" lon="12.278522574719492"><ele>38.33333333333333</ele><time>2026-04-19T15:50:24.613Z</time></trkpt><trkpt lat="45.75220037634625" lon="12.278507925727334"><ele>38.0</ele><time>2026-04-19T15:50:25.613Z</time></trkpt><trkpt lat="45.751978159890605" lon="12.278485906043352"><ele>37.33333333333333</ele><time>2026-04-19T15:50:26.613Z</time></trkpt><trkpt lat="45.75176385082619" lon="12.278454218129555"><ele>36.666666666666664</ele><time>2026-04-19T15:50:27.613Z</time></trkpt><trkpt lat="45.75155053425579" lon="12.278385962059671"><ele>36.0</ele><time>2026-04-19T15:50:28.613Z</time></trkpt><trkpt lat="45.75134636485407" lon="12.278296987333093"><ele>36.0</ele><time>2026-04-19T15:50:29.613Z</time></trkpt><trkpt lat="45.75115932746498" lon="12.278174606922152"><ele>36.0</ele><time>2026-04-19T15:50:30.613Z</time></trkpt><trkpt lat="45.75097559125121" lon="12.278038839119986"><ele>36.0</ele><time>2026-04-19T15:50:31.613Z</time></trkpt><trkpt lat="45.75080927319179" lon="12.277882772031958"><ele>37.0</ele><time>2026-04-19T15:50:32.613Z</time></trkpt><trkpt lat="45.750650572321774" lon="12.277700105455482"><ele>38.0</ele><time>2026-04-19T15:50:33.613Z</time></trkpt><trkpt lat="45.75050177196145" lon="12.27751738149352"><ele>39.0</ele><time>2026-04-19T15:50:34.613Z</time></trkpt><trkpt lat="45.75036398006865" lon="12.277297223211244"><ele>39.0</ele><time>2026-04-19T15:50:35.613Z</time></trkpt><trkpt lat="45.75023965235392" lon="12.277061742225637"><ele>39.0</ele><time>2026-04-19T15:50:36.613Z</time></trkpt><trkpt lat="45.75012893930537" lon="12.276803310941306"><ele>39.0</ele><time>2026-04-19T15:50:37.613Z</time></trkpt><trkpt lat="45.75002904753505" lon="12.276512095414578"><ele>38.0</ele><time>2026-04-19T15:50:38.613Z</time></trkpt><trkpt lat="45.749941212541906" lon="12.276196065118405"><ele>37.0</ele><time>2026-04-19T15:50:39.613Z</time></trkpt><trkpt lat="45.74985797920193" lon="12.275846754534212"><ele>37.0</ele><time>2026-04-19T15:50:40.613Z</time></trkpt><trkpt lat="45.74977661313079" lon="12.27548416138954"><ele>37.0</ele><time>2026-04-19T15:50:41.613Z</time></trkpt><trkpt lat="45.749707419453095" lon="12.275091380892844"><ele>37.5</ele><time>2026-04-19T15:50:42.613Z</time></trkpt><trkpt lat="45.74963885667581" lon="12.274699286314263"><ele>38.0</ele><time>2026-04-19T15:50:43.613Z</time></trkpt><trkpt lat="45.7495830258689" lon="12.274316812630897"><ele>38.0</ele><time>2026-04-19T15:50:44.613Z</time></trkpt><trkpt lat="45.749516568853544" lon="12.273946299806664"><ele>38.0</ele><time>2026-04-19T15:50:45.613Z</time></trkpt><trkpt lat="45.74946732561435" lon="12.273585448314176"><ele>38.0</ele><time>2026-04-19T15:50:46.613Z</time></trkpt><trkpt lat="45.749427162632415" lon="12.27324139430709"><ele>38.0</ele><time>2026-04-19T15:50:47.613Z</time></trkpt><trkpt lat="45.74938373851032" lon="12.272887197640019"><ele>38.5</ele><time>2026-04-19T15:50:48.613Z</time></trkpt><trkpt lat="45.749348207262855" lon="12.272520169217069"><ele>39.0</ele><time>2026-04-19T15:50:49.613Z</time></trkpt><trkpt lat="45.7493110826228" lon="12.272135586097873"><ele>39.0</ele><time>2026-04-19T15:50:50.613Z</time></trkpt><trkpt lat="45.74929681736215" lon="12.271739248695662"><ele>39.0</ele><time>2026-04-19T15:50:51.613Z</time></trkpt><trkpt lat="45.74928413448928" lon="12.271344319355704"><ele>38.5</ele><time>2026-04-19T15:50:52.613Z</time></trkpt><trkpt lat="45.74928678540631" lon="12.270927699305398"><ele>38.0</ele><time>2026-04-19T15:50:53.613Z</time></trkpt><trkpt lat="45.749294267296" lon="12.270492254186184"><ele>37.5</ele><time>2026-04-19T15:50:54.613Z</time></trkpt><trkpt lat="45.74931493351551" lon="12.270034566949413"><ele>37.0</ele><time>2026-04-19T15:50:55.613Z</time></trkpt><trkpt lat="45.74938818598068" lon="12.269576975281836"><ele>35.5</ele><time>2026-04-19T15:50:56.613Z</time></trkpt><trkpt lat="45.74937442177748" lon="12.269080924600765"><ele>34.0</ele><time>2026-04-19T15:50:57.613Z</time></trkpt><trkpt lat="45.749393628048644" lon="12.268596594205393"><ele>33.0</ele><time>2026-04-19T15:50:58.613Z</time></trkpt><trkpt lat="45.74941713591988" lon="12.268122887686609"><ele>32.0</ele><time>2026-04-19T15:50:59.613Z</time></trkpt><trkpt lat="45.749443974435636" lon="12.267652703439325"><ele>34.0</ele><time>2026-04-19T15:51:00.613Z</time></trkpt><trkpt lat="45.749460207746246" lon="12.267199329418169"><ele>36.0</ele><time>2026-04-19T15:51:01.613Z</time></trkpt><trkpt lat="45.74950193007671" lon="12.266745220154805"><ele>36.0</ele><time>2026-04-19T15:51:02.613Z</time></trkpt><trkpt lat="45.749540390892335" lon="12.26628504446741"><ele>36.0</ele><time>2026-04-19T15:51:03.613Z</time></trkpt><trkpt lat="45.74955076156303" lon="12.26581923124743"><ele>37.0</ele><time>2026-04-19T15:51:04.613Z</time></trkpt><trkpt lat="45.74958139049903" lon="12.265358838097864"><ele>38.0</ele><time>2026-04-19T15:51:05.613Z</time></trkpt><trkpt lat="45.749626816556145" lon="12.264902695060536"><ele>38.5</ele><time>2026-04-19T15:51:06.613Z</time></trkpt><trkpt lat="45.74967107662097" lon="12.2644529041633"><ele>39.0</ele><time>2026-04-19T15:51:07.613Z</time></trkpt><trkpt lat="45.749731230670946" lon="12.26400395591269"><ele>39.0</ele><time>2026-04-19T15:51:08.613Z</time></trkpt><trkpt lat="45.749784271210714" lon="12.263550478203529"><ele>39.0</ele><time>2026-04-19T15:51:09.613Z</time></trkpt><trkpt lat="45.74983350784006" lon="12.263097484439227"><ele>39.0</ele><time>2026-04-19T15:51:10.613Z</time></trkpt><trkpt lat="45.74989345399837" lon="12.262659646632486"><ele>39.0</ele><time>2026-04-19T15:51:11.613Z</time></trkpt><trkpt lat="45.74994585050025" lon="12.262251280445927"><ele>40.0</ele><time>2026-04-19T15:51:12.613Z</time></trkpt><trkpt lat="45.75001402083371" lon="12.261867271550445"><ele>41.0</ele><time>2026-04-19T15:51:13.613Z</time></trkpt><trkpt lat="45.75008285695409" lon="12.261507087806546"><ele>41.0</ele><time>2026-04-19T15:51:14.613Z</time></trkpt><trkpt lat="45.75014610770572" lon="12.261163839901826"><ele>41.0</ele><time>2026-04-19T15:51:15.613Z</time></trkpt><trkpt lat="45.75021503036933" lon="12.26083851902613"><ele>40.5</ele><time>2026-04-19T15:51:16.613Z</time></trkpt><trkpt lat="45.75027437718334" lon="12.260523649165082"><ele>40.0</ele><time>2026-04-19T15:51:17.613Z</time></trkpt><trkpt lat="45.7503323460299" lon="12.260210500082302"><ele>40.0</ele><time>2026-04-19T15:51:18.613Z</time></trkpt><trkpt lat="45.750407782487656" lon="12.259913216663163"><ele>40.0</ele><time>2026-04-19T15:51:19.613Z</time></trkpt><trkpt lat="45.750491465626546" lon="12.25963916011247"><ele>40.0</ele><time>2026-04-19T15:51:20.613Z</time></trkpt><trkpt lat="45.7505508760884" lon="12.259368450309688"><ele>40.0</ele><time>2026-04-19T15:51:21.613Z</time></trkpt><trkpt lat="45.75061518396094" lon="12.259105819974726"><ele>40.0</ele><time>2026-04-19T15:51:22.613Z</time></trkpt><trkpt lat="45.75067273724031" lon="12.258852591284613"><ele>40.0</ele><time>2026-04-19T15:51:23.613Z</time></trkpt><trkpt lat="45.75072885637308" lon="12.258614083610963"><ele>40.0</ele><time>2026-04-19T15:51:24.613Z</time></trkpt><trkpt lat="45.75077668617903" lon="12.25838583109729"><ele>40.0</ele><time>2026-04-19T15:51:25.613Z</time></trkpt><trkpt lat="45.75082302736815" lon="12.258168056928163"><ele>40.0</ele><time>2026-04-19T15:51:26.614Z</time></trkpt><trkpt lat="45.75087977142266" lon="12.257988138438002"><ele>40.0</ele><time>2026-04-19T15:51:27.614Z</time></trkpt><trkpt lat="45.75094334739296" lon="12.25779943956703"><ele>40.0</ele><time>2026-04-19T15:51:28.614Z</time></trkpt><trkpt lat="45.75099048884307" lon="12.257588954109808"><ele>40.0</ele><time>2026-04-19T15:51:29.614Z</time></trkpt><trkpt lat="45.751040272157816" lon="12.25739484456528"><ele>40.0</ele><time>2026-04-19T15:51:30.614Z</time></trkpt><trkpt lat="45.75108698299254" lon="12.257212715167542"><ele>39.8</ele><time>2026-04-19T15:51:31.614Z</time></trkpt><trkpt lat="45.751131030750756" lon="12.257040969343585"><ele>39.6</ele><time>2026-04-19T15:51:32.614Z</time></trkpt><trkpt lat="45.75117317896958" lon="12.256876630176471"><ele>39.4</ele><time>2026-04-19T15:51:33.614Z</time></trkpt><trkpt lat="45.75120882803529" lon="12.256737631581656"><ele>39.2</ele><time>2026-04-19T15:51:34.614Z</time></trkpt><trkpt lat="45.75123694344264" lon="12.256628007098351"><ele>39.0</ele><time>2026-04-19T15:51:35.614Z</time></trkpt><trkpt lat="45.75125998500419" lon="12.256538166330575"><ele>39.0</ele><time>2026-04-19T15:51:36.614Z</time></trkpt><trkpt lat="45.75129792267514" lon="12.256390244175538"><ele>39.0</ele><time>2026-04-19T15:51:38.614Z</time></trkpt><trkpt lat="45.75132161013029" lon="12.25630541161774"><ele>39.0</ele><time>2026-04-19T15:51:40.614Z</time></trkpt><trkpt lat="45.75132267029531" lon="12.256158543424817"><ele>39.0</ele><time>2026-04-19T15:52:10.614Z</time></trkpt><trkpt lat="45.75135686265237" lon="12.256036394712217"><ele>39.0</ele><time>2026-04-19T15:52:11.614Z</time></trkpt><trkpt lat="45.75142425831081" lon="12.255849595831211"><ele>39.666666666666664</ele><time>2026-04-19T15:52:12.614Z</time></trkpt><trkpt lat="45.7514973046647" lon="12.255572836118898"><ele>40.33333333333333</ele><time>2026-04-19T15:52:13.614Z</time></trkpt><trkpt lat="45.75157936063401" lon="12.255301243258824"><ele>41.0</ele><time>2026-04-19T15:52:14.614Z</time></trkpt><trkpt lat="45.75165620472317" lon="12.254995388738394"><ele>40.5</ele><time>2026-04-19T15:52:15.614Z</time></trkpt><trkpt lat="45.75173576066954" lon="12.254583786476816"><ele>40.0</ele><time>2026-04-19T15:52:16.614Z</time></trkpt><trkpt lat="45.75179735698284" lon="12.254191644460397"><ele>40.0</ele><time>2026-04-19T15:52:17.614Z</time></trkpt><trkpt lat="45.751857830941624" lon="12.253791771438985"><ele>40.0</ele><time>2026-04-19T15:52:18.614Z</time></trkpt><trkpt lat="45.75191306269827" lon="12.25342453914115"><ele>41.0</ele><time>2026-04-19T15:52:19.614Z</time></trkpt><trkpt lat="45.75196501840819" lon="12.253049982005392"><ele>42.0</ele><time>2026-04-19T15:52:20.614Z</time></trkpt><trkpt lat="45.752018430965265" lon="12.252677361611441"><ele>42.0</ele><time>2026-04-19T15:52:21.627Z</time></trkpt><trkpt lat="45.75207340568355" lon="12.2523421971103"><ele>42.0</ele><time>2026-04-19T15:52:22.627Z</time></trkpt><trkpt lat="45.75209801688001" lon="12.251982681939934"><ele>42.5</ele><time>2026-04-19T15:52:23.628Z</time></trkpt><trkpt lat="45.75212762958111" lon="12.251640777685585"><ele>43.0</ele><time>2026-04-19T15:52:24.625Z</time></trkpt><trkpt lat="45.75215558545035" lon="12.251261504437478"><ele>42.0</ele><time>2026-04-19T15:52:25.63Z</time></trkpt><trkpt lat="45.75216122907191" lon="12.248831084009492"><ele>42.0</ele><time>2026-04-19T15:52:30.614Z</time></trkpt><trkpt lat="45.75217052608835" lon="12.24839830634742"><ele>42.0</ele><time>2026-04-19T15:52:31.614Z</time></trkpt><trkpt lat="45.75220000046178" lon="12.247976466941497"><ele>42.0</ele><time>2026-04-19T15:52:32.614Z</time></trkpt><trkpt lat="45.75218822553416" lon="12.247543934909848"><ele>42.0</ele><time>2026-04-19T15:52:33.614Z</time></trkpt><trkpt lat="45.752231729982846" lon="12.247092566790577"><ele>42.0</ele><time>2026-04-19T15:52:34.614Z</time></trkpt><trkpt lat="45.75222966061746" lon="12.246705818878867"><ele>42.0</ele><time>2026-04-19T15:52:35.614Z</time></trkpt><trkpt lat="45.75224154511331" lon="12.246299132742427"><ele>42.5</ele><time>2026-04-19T15:52:36.614Z</time></trkpt><trkpt lat="45.75226410496027" lon="12.245889064358062"><ele>43.0</ele><time>2026-04-19T15:52:37.614Z</time></trkpt><trkpt lat="45.75230545307367" lon="12.245444920423893"><ele>42.0</ele><time>2026-04-19T15:52:38.614Z</time></trkpt><trkpt lat="45.75236354370649" lon="12.245040929304007"><ele>41.0</ele><time>2026-04-19T15:52:39.614Z</time></trkpt><trkpt lat="45.75238996355002" lon="12.244649952653866"><ele>41.0</ele><time>2026-04-19T15:52:40.614Z</time></trkpt><trkpt lat="45.75242586735004" lon="12.244287273063405"><ele>41.0</ele><time>2026-04-19T15:52:41.614Z</time></trkpt><trkpt lat="45.752482187872474" lon="12.243881658408307"><ele>41.5</ele><time>2026-04-19T15:52:42.614Z</time></trkpt><trkpt lat="45.75254252123526" lon="12.243469058675595"><ele>42.0</ele><time>2026-04-19T15:52:43.614Z</time></trkpt><trkpt lat="45.75262625289805" lon="12.243046810027687"><ele>42.0</ele><time>2026-04-19T15:52:44.614Z</time></trkpt><trkpt lat="45.752713380790425" lon="12.242613056845782"><ele>42.0</ele><time>2026-04-19T15:52:45.614Z</time></trkpt><trkpt lat="45.752807019004095" lon="12.24216463807622"><ele>42.0</ele><time>2026-04-19T15:52:46.614Z</time></trkpt><trkpt lat="45.752909213076954" lon="12.24170690022592"><ele>42.0</ele><time>2026-04-19T15:52:47.614Z</time></trkpt><trkpt lat="45.75301982391605" lon="12.241252428609354"><ele>41.5</ele><time>2026-04-19T15:52:48.614Z</time></trkpt><trkpt lat="45.75313736249926" lon="12.240807890656578"><ele>41.0</ele><time>2026-04-19T15:52:49.614Z</time></trkpt><trkpt lat="45.7532642898788" lon="12.240354458808534"><ele>37.5</ele><time>2026-04-19T15:52:50.614Z</time></trkpt><trkpt lat="45.753406299411886" lon="12.239920993253406"><ele>34.0</ele><time>2026-04-19T15:52:51.614Z</time></trkpt><trkpt lat="45.75354770431532" lon="12.239507667272285"><ele>32.5</ele><time>2026-04-19T15:52:52.614Z</time></trkpt><trkpt lat="45.75369456367247" lon="12.239078827394556"><ele>31.0</ele><time>2026-04-19T15:52:53.614Z</time></trkpt><trkpt lat="45.753852154303964" lon="12.238687109342187"><ele>35.0</ele><time>2026-04-19T15:52:54.614Z</time></trkpt><trkpt lat="45.75402130644074" lon="12.238284154452256"><ele>39.0</ele><time>2026-04-19T15:52:55.614Z</time></trkpt><trkpt lat="45.7541989096791" lon="12.237875773062168"><ele>40.5</ele><time>2026-04-19T15:52:56.614Z</time></trkpt><trkpt lat="45.7543928242832" lon="12.237463708102398"><ele>42.0</ele><time>2026-04-19T15:52:57.614Z</time></trkpt><trkpt lat="45.75458786866927" lon="12.237054607822074"><ele>42.0</ele><time>2026-04-19T15:52:58.614Z</time></trkpt><trkpt lat="45.7547843269105" lon="12.236654962910295"><ele>42.0</ele><time>2026-04-19T15:52:59.614Z</time></trkpt><trkpt lat="45.75496934730981" lon="12.236255685567816"><ele>42.5</ele><time>2026-04-19T15:53:00.614Z</time></trkpt><trkpt lat="45.75515349437433" lon="12.235863004430675"><ele>43.0</ele><time>2026-04-19T15:53:01.627Z</time></trkpt><trkpt lat="45.75533368580888" lon="12.235480718633195"><ele>44.0</ele><time>2026-04-19T15:53:02.632Z</time></trkpt><trkpt lat="45.755509785350334" lon="12.23510178432156"><ele>45.0</ele><time>2026-04-19T15:53:03.631Z</time></trkpt><trkpt lat="45.75568194954776" lon="12.234721414838775"><ele>45.0</ele><time>2026-04-19T15:53:04.626Z</time></trkpt><trkpt lat="45.755853735229955" lon="12.234334918756886"><ele>45.0</ele><time>2026-04-19T15:53:05.627Z</time></trkpt><trkpt lat="45.75602667853444" lon="12.233947932687071"><ele>45.0</ele><time>2026-04-19T15:53:06.626Z</time></trkpt><trkpt lat="45.75645628389507" lon="12.233195984747477"><ele>46.0</ele><time>2026-04-19T15:53:08.614Z</time></trkpt><trkpt lat="45.756635978203064" lon="12.232811793527166"><ele>47.0</ele><time>2026-04-19T15:53:09.614Z</time></trkpt><trkpt lat="45.756808158003246" lon="12.232415311572383"><ele>47.0</ele><time>2026-04-19T15:53:10.614Z</time></trkpt><trkpt lat="45.75697493759519" lon="12.23204363638803"><ele>47.0</ele><time>2026-04-19T15:53:11.614Z</time></trkpt><trkpt lat="45.757156505423396" lon="12.231645510061362"><ele>47.0</ele><time>2026-04-19T15:53:12.614Z</time></trkpt><trkpt lat="45.75734155079501" lon="12.231248786336872"><ele>47.0</ele><time>2026-04-19T15:53:13.614Z</time></trkpt><trkpt lat="45.757533566125915" lon="12.230861785520831"><ele>47.0</ele><time>2026-04-19T15:53:14.614Z</time></trkpt><trkpt lat="45.75773393979147" lon="12.230468454029896"><ele>47.0</ele><time>2026-04-19T15:53:15.614Z</time></trkpt><trkpt lat="45.757926567153824" lon="12.230082306448159"><ele>47.5</ele><time>2026-04-19T15:53:16.614Z</time></trkpt><trkpt lat="45.75813383788867" lon="12.229701665236062"><ele>48.0</ele><time>2026-04-19T15:53:17.614Z</time></trkpt><trkpt lat="45.75833699287331" lon="12.229317890706929"><ele>49.0</ele><time>2026-04-19T15:53:18.614Z</time></trkpt><trkpt lat="45.75853647318643" lon="12.22894573528422"><ele>50.0</ele><time>2026-04-19T15:53:19.614Z</time></trkpt><trkpt lat="45.758742153836835" lon="12.22858369260693"><ele>50.0</ele><time>2026-04-19T15:53:20.614Z</time></trkpt><trkpt lat="45.75894569474458" lon="12.228211224830009"><ele>50.0</ele><time>2026-04-19T15:53:21.614Z</time></trkpt><trkpt lat="45.75915356719093" lon="12.227838111306546"><ele>50.0</ele><time>2026-04-19T15:53:22.614Z</time></trkpt><trkpt lat="45.75936888326151" lon="12.227463982111786"><ele>50.0</ele><time>2026-04-19T15:53:23.614Z</time></trkpt><trkpt lat="45.75958763431466" lon="12.227093188675157"><ele>50.0</ele><time>2026-04-19T15:53:24.614Z</time></trkpt><trkpt lat="45.75980175978868" lon="12.226730486606614"><ele>50.0</ele><time>2026-04-19T15:53:25.614Z</time></trkpt><trkpt lat="45.76002457540796" lon="12.22636941516409"><ele>51.0</ele><time>2026-04-19T15:53:26.614Z</time></trkpt><trkpt lat="45.76024989385518" lon="12.226013395055336"><ele>52.0</ele><time>2026-04-19T15:53:27.614Z</time></trkpt><trkpt lat="45.76046530323876" lon="12.225658980786722"><ele>51.0</ele><time>2026-04-19T15:53:28.614Z</time></trkpt><trkpt lat="45.7606785448088" lon="12.225314293727875"><ele>50.0</ele><time>2026-04-19T15:53:29.614Z</time></trkpt><trkpt lat="45.76088130462839" lon="12.224961800171961"><ele>49.5</ele><time>2026-04-19T15:53:30.614Z</time></trkpt><trkpt lat="45.76109423923716" lon="12.224621441245079"><ele>49.0</ele><time>2026-04-19T15:53:31.614Z</time></trkpt><trkpt lat="45.761303952705155" lon="12.22427764387517"><ele>49.5</ele><time>2026-04-19T15:53:32.615Z</time></trkpt><trkpt lat="45.76151587304763" lon="12.223948625313165"><ele>50.0</ele><time>2026-04-19T15:53:33.615Z</time></trkpt><trkpt lat="45.76172413050063" lon="12.223604301869958"><ele>50.0</ele><time>2026-04-19T15:53:34.615Z</time></trkpt><trkpt lat="45.76193104941315" lon="12.223268468273279"><ele>50.0</ele><time>2026-04-19T15:53:35.615Z</time></trkpt><trkpt lat="45.76212546167618" lon="12.22292130662373"><ele>50.0</ele><time>2026-04-19T15:53:36.615Z</time></trkpt><trkpt lat="45.76231342525835" lon="12.22257679862294"><ele>50.0</ele><time>2026-04-19T15:53:37.615Z</time></trkpt><trkpt lat="45.76249532829122" lon="12.222242199708743"><ele>50.0</ele><time>2026-04-19T15:53:38.615Z</time></trkpt><trkpt lat="45.76265841727025" lon="12.221867178154335"><ele>50.0</ele><time>2026-04-19T15:53:39.615Z</time></trkpt><trkpt lat="45.76281254063777" lon="12.221492501611074"><ele>50.5</ele><time>2026-04-19T15:53:40.615Z</time></trkpt><trkpt lat="45.76295178766408" lon="12.221108588460542"><ele>51.0</ele><time>2026-04-19T15:53:41.615Z</time></trkpt><trkpt lat="45.76309163607927" lon="12.22072758039309"><ele>51.0</ele><time>2026-04-19T15:53:42.615Z</time></trkpt><trkpt lat="45.763223400491015" lon="12.220316595102645"><ele>51.0</ele><time>2026-04-19T15:53:43.615Z</time></trkpt><trkpt lat="45.76334766482882" lon="12.21988787058196"><ele>51.0</ele><time>2026-04-19T15:53:44.615Z</time></trkpt><trkpt lat="45.76346244100111" lon="12.219441751260115"><ele>51.0</ele><time>2026-04-19T15:53:45.615Z</time></trkpt><trkpt lat="45.76356097690533" lon="12.218996944925149"><ele>51.0</ele><time>2026-04-19T15:53:46.615Z</time></trkpt><trkpt lat="45.76365346006675" lon="12.218544489091748"><ele>51.0</ele><time>2026-04-19T15:53:47.615Z</time></trkpt><trkpt lat="45.76373816264224" lon="12.218084769860734"><ele>50.5</ele><time>2026-04-19T15:53:48.615Z</time></trkpt><trkpt lat="45.763812476444954" lon="12.217616167475015"><ele>50.0</ele><time>2026-04-19T15:53:49.615Z</time></trkpt><trkpt lat="45.76386683117199" lon="12.217149480685777"><ele>51.0</ele><time>2026-04-19T15:53:50.615Z</time></trkpt><trkpt lat="45.763916925043596" lon="12.21666721130461"><ele>52.0</ele><time>2026-04-19T15:53:51.615Z</time></trkpt><trkpt lat="45.76396315475615" lon="12.216174612856397"><ele>52.0</ele><time>2026-04-19T15:53:52.615Z</time></trkpt><trkpt lat="45.76401734320491" lon="12.215664797846394"><ele>52.0</ele><time>2026-04-19T15:53:53.615Z</time></trkpt><trkpt lat="45.764070808823185" lon="12.215159475744679"><ele>50.5</ele><time>2026-04-19T15:53:54.615Z</time></trkpt><trkpt lat="45.764134518401605" lon="12.214656624213719"><ele>49.0</ele><time>2026-04-19T15:53:55.615Z</time></trkpt><trkpt lat="45.764192066891624" lon="12.214165783017224"><ele>49.0</ele><time>2026-04-19T15:53:56.615Z</time></trkpt><trkpt lat="45.764255827021884" lon="12.213687649301136"><ele>49.0</ele><time>2026-04-19T15:53:57.615Z</time></trkpt><trkpt lat="45.7643109951446" lon="12.213208040233386"><ele>50.0</ele><time>2026-04-19T15:53:58.615Z</time></trkpt><trkpt lat="45.76437281198964" lon="12.212723914096212"><ele>51.0</ele><time>2026-04-19T15:53:59.615Z</time></trkpt><trkpt lat="45.76442011765094" lon="12.21223964732872"><ele>51.0</ele><time>2026-04-19T15:54:00.615Z</time></trkpt><trkpt lat="45.76448177427811" lon="12.211764049301179"><ele>51.0</ele><time>2026-04-19T15:54:01.615Z</time></trkpt><trkpt lat="45.76453556915112" lon="12.211276079260369"><ele>51.5</ele><time>2026-04-19T15:54:02.615Z</time></trkpt><trkpt lat="45.76458559690479" lon="12.210792147002222"><ele>52.0</ele><time>2026-04-19T15:54:03.615Z</time></trkpt><trkpt lat="45.764638025567315" lon="12.21030249116418"><ele>52.5</ele><time>2026-04-19T15:54:04.615Z</time></trkpt><trkpt lat="45.76469677117738" lon="12.209814515856728"><ele>53.0</ele><time>2026-04-19T15:54:05.615Z</time></trkpt><trkpt lat="45.764755539622044" lon="12.209322647404926"><ele>53.5</ele><time>2026-04-19T15:54:06.615Z</time></trkpt><trkpt lat="45.76481639497609" lon="12.208835396135003"><ele>54.0</ele><time>2026-04-19T15:54:07.615Z</time></trkpt><trkpt lat="45.76487405713403" lon="12.208340372442384"><ele>53.5</ele><time>2026-04-19T15:54:08.615Z</time></trkpt><trkpt lat="45.76492351168063" lon="12.20784241658636"><ele>53.0</ele><time>2026-04-19T15:54:09.615Z</time></trkpt><trkpt lat="45.764969199290974" lon="12.207348277410883"><ele>52.5</ele><time>2026-04-19T15:54:10.615Z</time></trkpt><trkpt lat="45.7650494794753" lon="12.206865368403575"><ele>52.0</ele><time>2026-04-19T15:54:11.615Z</time></trkpt><trkpt lat="45.76511256590886" lon="12.206377997267492"><ele>52.0</ele><time>2026-04-19T15:54:12.615Z</time></trkpt><trkpt lat="45.76516183721555" lon="12.205892276366336"><ele>52.0</ele><time>2026-04-19T15:54:13.615Z</time></trkpt><trkpt lat="45.76522385600244" lon="12.20541419644877"><ele>52.5</ele><time>2026-04-19T15:54:14.615Z</time></trkpt><trkpt lat="45.76529257293946" lon="12.204934270483909"><ele>53.0</ele><time>2026-04-19T15:54:15.615Z</time></trkpt><trkpt lat="45.76534813729554" lon="12.204457632723134"><ele>53.5</ele><time>2026-04-19T15:54:16.615Z</time></trkpt><trkpt lat="45.765403968007256" lon="12.203988420648"><ele>54.0</ele><time>2026-04-19T15:54:17.615Z</time></trkpt><trkpt lat="45.76546560921573" lon="12.203527510316304"><ele>55.0</ele><time>2026-04-19T15:54:18.615Z</time></trkpt><trkpt lat="45.76551266740531" lon="12.203066907506384"><ele>56.0</ele><time>2026-04-19T15:54:19.615Z</time></trkpt><trkpt lat="45.76557093417174" lon="12.202609334717195"><ele>56.5</ele><time>2026-04-19T15:54:20.615Z</time></trkpt><trkpt lat="45.76562184760337" lon="12.202141366098497"><ele>57.0</ele><time>2026-04-19T15:54:21.615Z</time></trkpt><trkpt lat="45.765677556511534" lon="12.20167357507338"><ele>56.0</ele><time>2026-04-19T15:54:22.615Z</time></trkpt><trkpt lat="45.76573560755296" lon="12.201210211940387"><ele>55.0</ele><time>2026-04-19T15:54:23.615Z</time></trkpt><trkpt lat="45.76579248383263" lon="12.200770390278665"><ele>56.0</ele><time>2026-04-19T15:54:24.615Z</time></trkpt><trkpt lat="45.76584749631169" lon="12.200317718830272"><ele>57.0</ele><time>2026-04-19T15:54:25.615Z</time></trkpt><trkpt lat="45.765908553194365" lon="12.19987291534758"><ele>57.5</ele><time>2026-04-19T15:54:26.615Z</time></trkpt><trkpt lat="45.76595612097018" lon="12.199435975991427"><ele>58.0</ele><time>2026-04-19T15:54:27.615Z</time></trkpt><trkpt lat="45.76599460126146" lon="12.198997359350152"><ele>58.0</ele><time>2026-04-19T15:54:28.615Z</time></trkpt><trkpt lat="45.766017963618886" lon="12.198547614854808"><ele>58.0</ele><time>2026-04-19T15:54:29.615Z</time></trkpt><trkpt lat="45.76603115551609" lon="12.198108690242279"><ele>58.0</ele><time>2026-04-19T15:54:30.615Z</time></trkpt><trkpt lat="45.766023046342326" lon="12.197664404546762"><ele>58.0</ele><time>2026-04-19T15:54:31.615Z</time></trkpt><trkpt lat="45.76600376999692" lon="12.19722222468805"><ele>58.5</ele><time>2026-04-19T15:54:32.615Z</time></trkpt><trkpt lat="45.76597678202585" lon="12.19677222176627"><ele>59.0</ele><time>2026-04-19T15:54:33.615Z</time></trkpt><trkpt lat="45.76596045242005" lon="12.19631478067831"><ele>59.5</ele><time>2026-04-19T15:54:34.615Z</time></trkpt><trkpt lat="45.76592233750717" lon="12.195858520992967"><ele>60.0</ele><time>2026-04-19T15:54:35.615Z</time></trkpt><trkpt lat="45.76587291645142" lon="12.195400637148515"><ele>60.5</ele><time>2026-04-19T15:54:36.615Z</time></trkpt><trkpt lat="45.765802776112224" lon="12.194942427328648"><ele>61.0</ele><time>2026-04-19T15:54:37.615Z</time></trkpt><trkpt lat="45.765721011809404" lon="12.194489370547814"><ele>61.0</ele><time>2026-04-19T15:54:38.615Z</time></trkpt><trkpt lat="45.76562496637292" lon="12.194040896735462"><ele>61.0</ele><time>2026-04-19T15:54:39.615Z</time></trkpt><trkpt lat="45.76552246659705" lon="12.193586813212757"><ele>60.5</ele><time>2026-04-19T15:54:40.615Z</time></trkpt><trkpt lat="45.765409882606754" lon="12.193121030226058"><ele>60.0</ele><time>2026-04-19T15:54:41.615Z</time></trkpt><trkpt lat="45.765292842447614" lon="12.19267587014314"><ele>59.5</ele><time>2026-04-19T15:54:42.615Z</time></trkpt><trkpt lat="45.76518201117349" lon="12.192226799875165"><ele>59.0</ele><time>2026-04-19T15:54:43.615Z</time></trkpt><trkpt lat="45.765071567571106" lon="12.191793375087258"><ele>59.0</ele><time>2026-04-19T15:54:44.615Z</time></trkpt><trkpt lat="45.76496761949473" lon="12.191370844843535"><ele>59.0</ele><time>2026-04-19T15:54:45.615Z</time></trkpt><trkpt lat="45.76487635968062" lon="12.190948069384458"><ele>60.0</ele><time>2026-04-19T15:54:46.615Z</time></trkpt><trkpt lat="45.76478706774312" lon="12.190526585288678"><ele>61.0</ele><time>2026-04-19T15:54:47.615Z</time></trkpt><trkpt lat="45.764703273953984" lon="12.190103083929491"><ele>62.0</ele><time>2026-04-19T15:54:48.615Z</time></trkpt><trkpt lat="45.76462723522308" lon="12.189671553962613"><ele>63.0</ele><time>2026-04-19T15:54:49.615Z</time></trkpt><trkpt lat="45.764546060779765" lon="12.189226635467987"><ele>63.0</ele><time>2026-04-19T15:54:50.615Z</time></trkpt><trkpt lat="45.76448248834538" lon="12.188765653070341"><ele>63.0</ele><time>2026-04-19T15:54:51.615Z</time></trkpt><trkpt lat="45.76442566190108" lon="12.188294775357756"><ele>63.0</ele><time>2026-04-19T15:54:52.615Z</time></trkpt><trkpt lat="45.76437152544941" lon="12.187836491108737"><ele>63.0</ele><time>2026-04-19T15:54:53.615Z</time></trkpt><trkpt lat="45.76432556233462" lon="12.187364022989362"><ele>63.5</ele><time>2026-04-19T15:54:54.615Z</time></trkpt><trkpt lat="45.764294707103666" lon="12.18689704867357"><ele>64.0</ele><time>2026-04-19T15:54:55.615Z</time></trkpt><trkpt lat="45.76428408142177" lon="12.18642038560751"><ele>64.0</ele><time>2026-04-19T15:54:56.615Z</time></trkpt><trkpt lat="45.76429530202311" lon="12.185946689472605"><ele>64.0</ele><time>2026-04-19T15:54:57.615Z</time></trkpt><trkpt lat="45.76429984154084" lon="12.18547192807419"><ele>63.0</ele><time>2026-04-19T15:54:58.615Z</time></trkpt><trkpt lat="45.76431508867726" lon="12.185000224458111"><ele>62.0</ele><time>2026-04-19T15:54:59.615Z</time></trkpt><trkpt lat="45.76434500797903" lon="12.184535183079072"><ele>63.0</ele><time>2026-04-19T15:55:00.615Z</time></trkpt><trkpt lat="45.764392376789154" lon="12.1840808321243"><ele>64.0</ele><time>2026-04-19T15:55:01.615Z</time></trkpt><trkpt lat="45.764456114753365" lon="12.18362037312828"><ele>65.5</ele><time>2026-04-19T15:55:02.615Z</time></trkpt><trkpt lat="45.76453377734666" lon="12.183169826562054"><ele>67.0</ele><time>2026-04-19T15:55:03.615Z</time></trkpt><trkpt lat="45.76460999042998" lon="12.182705969621953"><ele>66.0</ele><time>2026-04-19T15:55:04.615Z</time></trkpt><trkpt lat="45.76470619900853" lon="12.182250395355325"><ele>65.0</ele><time>2026-04-19T15:55:05.615Z</time></trkpt><trkpt lat="45.76480219371013" lon="12.181791477253837"><ele>64.0</ele><time>2026-04-19T15:55:06.615Z</time></trkpt><trkpt lat="45.764894647147955" lon="12.181331547047536"><ele>63.0</ele><time>2026-04-19T15:55:07.615Z</time></trkpt><trkpt lat="45.76497498063098" lon="12.1808775244617"><ele>64.0</ele><time>2026-04-19T15:55:08.615Z</time></trkpt><trkpt lat="45.765061342685584" lon="12.18040730239461"><ele>65.0</ele><time>2026-04-19T15:55:09.615Z</time></trkpt><trkpt lat="45.76515064035218" lon="12.1799211169026"><ele>65.0</ele><time>2026-04-19T15:55:10.615Z</time></trkpt><trkpt lat="45.76523461167779" lon="12.179443362276192"><ele>65.0</ele><time>2026-04-19T15:55:11.615Z</time></trkpt><trkpt lat="45.765316694000234" lon="12.178971671310642"><ele>65.0</ele><time>2026-04-19T15:55:12.615Z</time></trkpt><trkpt lat="45.76540061347301" lon="12.178513297786205"><ele>65.0</ele><time>2026-04-19T15:55:13.615Z</time></trkpt><trkpt lat="45.76548475334738" lon="12.178053057417317"><ele>65.0</ele><time>2026-04-19T15:55:14.634Z</time></trkpt><trkpt lat="45.7655686231723" lon="12.177608824613376"><ele>65.0</ele><time>2026-04-19T15:55:15.633Z</time></trkpt><trkpt lat="45.76565591684844" lon="12.177174485612241"><ele>65.5</ele><time>2026-04-19T15:55:16.628Z</time></trkpt><trkpt lat="45.765745313264745" lon="12.176742161758003"><ele>66.0</ele><time>2026-04-19T15:55:17.633Z</time></trkpt><trkpt lat="45.766054526945354" lon="12.17548239045979"><ele>66.0</ele><time>2026-04-19T15:55:20.615Z</time></trkpt><trkpt lat="45.766086502309825" lon="12.174986693739221"><ele>66.0</ele><time>2026-04-19T15:55:21.615Z</time></trkpt><trkpt lat="45.76618317278043" lon="12.174538420656143"><ele>65.5</ele><time>2026-04-19T15:55:22.615Z</time></trkpt><trkpt lat="45.76628937111491" lon="12.174187143026687"><ele>65.0</ele><time>2026-04-19T15:55:23.615Z</time></trkpt><trkpt lat="45.766371153874054" lon="12.173695907898857"><ele>65.5</ele><time>2026-04-19T15:55:24.615Z</time></trkpt><trkpt lat="45.766445574548364" lon="12.173245538728116"><ele>66.0</ele><time>2026-04-19T15:55:25.615Z</time></trkpt><trkpt lat="45.766527267379715" lon="12.172829541556128"><ele>66.0</ele><time>2026-04-19T15:55:26.615Z</time></trkpt><trkpt lat="45.76659843176483" lon="12.172381582292717"><ele>66.0</ele><time>2026-04-19T15:55:27.615Z</time></trkpt><trkpt lat="45.76666904969764" lon="12.171939668899048"><ele>67.0</ele><time>2026-04-19T15:55:28.615Z</time></trkpt><trkpt lat="45.76673378566846" lon="12.171492146869697"><ele>68.0</ele><time>2026-04-19T15:55:29.615Z</time></trkpt><trkpt lat="45.766785346506055" lon="12.171048261921886"><ele>68.5</ele><time>2026-04-19T15:55:30.615Z</time></trkpt><trkpt lat="45.76681296357362" lon="12.170591899904093"><ele>69.0</ele><time>2026-04-19T15:55:31.615Z</time></trkpt><trkpt lat="45.766827454582824" lon="12.170127759806926"><ele>69.5</ele><time>2026-04-19T15:55:32.615Z</time></trkpt><trkpt lat="45.76682705868495" lon="12.169652503990578"><ele>70.0</ele><time>2026-04-19T15:55:33.615Z</time></trkpt><trkpt lat="45.76681731478027" lon="12.1691811093834"><ele>69.0</ele><time>2026-04-19T15:55:34.615Z</time></trkpt><trkpt lat="45.766807610637436" lon="12.168696737606776"><ele>68.0</ele><time>2026-04-19T15:55:35.615Z</time></trkpt><trkpt lat="45.766779134152046" lon="12.168210679921275"><ele>67.0</ele><time>2026-04-19T15:55:36.615Z</time></trkpt><trkpt lat="45.76673944507644" lon="12.167723101406398"><ele>66.0</ele><time>2026-04-19T15:55:37.615Z</time></trkpt><trkpt lat="45.76668816333023" lon="12.167239985181308"><ele>66.0</ele><time>2026-04-19T15:55:38.616Z</time></trkpt><trkpt lat="45.766621947719344" lon="12.166761468652194"><ele>66.0</ele><time>2026-04-19T15:55:39.616Z</time></trkpt><trkpt lat="45.76652879370395" lon="12.166270923018292"><ele>66.5</ele><time>2026-04-19T15:55:40.616Z</time></trkpt><trkpt lat="45.76643581138569" lon="12.16578853948929"><ele>67.0</ele><time>2026-04-19T15:55:41.616Z</time></trkpt><trkpt lat="45.76635332957576" lon="12.16530517868089"><ele>68.0</ele><time>2026-04-19T15:55:42.616Z</time></trkpt><trkpt lat="45.766274601031675" lon="12.164812930043968"><ele>69.0</ele><time>2026-04-19T15:55:43.616Z</time></trkpt><trkpt lat="45.76619617833889" lon="12.164335911060538"><ele>69.5</ele><time>2026-04-19T15:55:44.616Z</time></trkpt><trkpt lat="45.76611960065331" lon="12.163858836789334"><ele>70.0</ele><time>2026-04-19T15:55:45.616Z</time></trkpt><trkpt lat="45.766050209912635" lon="12.163383577024218"><ele>71.0</ele><time>2026-04-19T15:55:46.616Z</time></trkpt><trkpt lat="45.76598688370227" lon="12.162908499924754"><ele>72.0</ele><time>2026-04-19T15:55:47.616Z</time></trkpt><trkpt lat="45.76592881749439" lon="12.162433179299388"><ele>71.0</ele><time>2026-04-19T15:55:48.616Z</time></trkpt><trkpt lat="45.76588751522596" lon="12.161944300877302"><ele>70.0</ele><time>2026-04-19T15:55:49.616Z</time></trkpt><trkpt lat="45.76585496183432" lon="12.161463401658974"><ele>70.0</ele><time>2026-04-19T15:55:50.616Z</time></trkpt><trkpt lat="45.76582894050204" lon="12.160971280726862"><ele>70.0</ele><time>2026-04-19T15:55:51.616Z</time></trkpt><trkpt lat="45.765802128890485" lon="12.160489533321199"><ele>70.5</ele><time>2026-04-19T15:55:52.616Z</time></trkpt><trkpt lat="45.76578499555474" lon="12.159980764096254"><ele>71.0</ele><time>2026-04-19T15:55:53.616Z</time></trkpt><trkpt lat="45.76578495170018" lon="12.159478848102312"><ele>70.5</ele><time>2026-04-19T15:55:54.616Z</time></trkpt><trkpt lat="45.76576122742307" lon="12.158983964841923"><ele>70.0</ele><time>2026-04-19T15:55:55.616Z</time></trkpt><trkpt lat="45.76573524020725" lon="12.158504957036222"><ele>70.5</ele><time>2026-04-19T15:55:56.616Z</time></trkpt><trkpt lat="45.76571106838428" lon="12.15802655063733"><ele>71.0</ele><time>2026-04-19T15:55:57.616Z</time></trkpt><trkpt lat="45.765673848247225" lon="12.157549306176923"><ele>71.5</ele><time>2026-04-19T15:55:58.616Z</time></trkpt><trkpt lat="45.76562467451706" lon="12.157069459614007"><ele>72.0</ele><time>2026-04-19T15:55:59.616Z</time></trkpt><trkpt lat="45.76556510644199" lon="12.156583208938683"><ele>72.5</ele><time>2026-04-19T15:56:00.616Z</time></trkpt><trkpt lat="45.76561008286676" lon="12.156136862343645"><ele>73.0</ele><time>2026-04-19T15:56:01.616Z</time></trkpt><trkpt lat="45.765590269005905" lon="12.155641435765869"><ele>73.0</ele><time>2026-04-19T15:56:02.616Z</time></trkpt><trkpt lat="45.76553847031713" lon="12.155136709792469"><ele>73.0</ele><time>2026-04-19T15:56:03.616Z</time></trkpt><trkpt lat="45.76546281947961" lon="12.154629439172416"><ele>73.0</ele><time>2026-04-19T15:56:04.616Z</time></trkpt><trkpt lat="45.76538587372692" lon="12.154106934467844"><ele>73.0</ele><time>2026-04-19T15:56:05.616Z</time></trkpt><trkpt lat="45.7653036797704" lon="12.15358920547499"><ele>72.5</ele><time>2026-04-19T15:56:06.616Z</time></trkpt><trkpt lat="45.7652328694183" lon="12.153079340844462"><ele>72.0</ele><time>2026-04-19T15:56:07.616Z</time></trkpt><trkpt lat="45.76514693151663" lon="12.152557390763153"><ele>72.5</ele><time>2026-04-19T15:56:08.616Z</time></trkpt><trkpt lat="45.7650588627516" lon="12.152040376065067"><ele>73.0</ele><time>2026-04-19T15:56:09.616Z</time></trkpt><trkpt lat="45.764972009918665" lon="12.151531103187128"><ele>72.5</ele><time>2026-04-19T15:56:10.616Z</time></trkpt><trkpt lat="45.7648875524486" lon="12.15103760760175"><ele>72.0</ele><time>2026-04-19T15:56:11.616Z</time></trkpt><trkpt lat="45.76480900038448" lon="12.150556361826263"><ele>72.0</ele><time>2026-04-19T15:56:12.616Z</time></trkpt><trkpt lat="45.76473326121436" lon="12.150084604212342"><ele>72.0</ele><time>2026-04-19T15:56:13.616Z</time></trkpt><trkpt lat="45.76466202255849" lon="12.149611713129294"><ele>72.0</ele><time>2026-04-19T15:56:14.616Z</time></trkpt><trkpt lat="45.76462246354941" lon="12.149142072774126"><ele>72.0</ele><time>2026-04-19T15:56:15.616Z</time></trkpt><trkpt lat="45.764630604952316" lon="12.148663913670118"><ele>73.5</ele><time>2026-04-19T15:56:16.616Z</time></trkpt><trkpt lat="45.764616867997034" lon="12.148200539543748"><ele>75.0</ele><time>2026-04-19T15:56:17.616Z</time></trkpt><trkpt lat="45.76459588473038" lon="12.1477388679841"><ele>74.5</ele><time>2026-04-19T15:56:18.616Z</time></trkpt><trkpt lat="45.7645835576767" lon="12.14728561274374"><ele>74.0</ele><time>2026-04-19T15:56:19.616Z</time></trkpt><trkpt lat="45.76457216074454" lon="12.14681431734532"><ele>73.0</ele><time>2026-04-19T15:56:20.616Z</time></trkpt><trkpt lat="45.76456526225428" lon="12.146352545196775"><ele>72.0</ele><time>2026-04-19T15:56:21.616Z</time></trkpt><trkpt lat="45.76457145616989" lon="12.145889930382712"><ele>72.0</ele><time>2026-04-19T15:56:22.616Z</time></trkpt><trkpt lat="45.76457303305551" lon="12.145421316043269"><ele>72.0</ele><time>2026-04-19T15:56:23.616Z</time></trkpt><trkpt lat="45.76459353536572" lon="12.144963931596763"><ele>73.0</ele><time>2026-04-19T15:56:24.616Z</time></trkpt><trkpt lat="45.76462725591126" lon="12.14450649272554"><ele>74.0</ele><time>2026-04-19T15:56:25.616Z</time></trkpt><trkpt lat="45.764670383807456" lon="12.144047436827407"><ele>74.5</ele><time>2026-04-19T15:56:26.616Z</time></trkpt><trkpt lat="45.764709491222085" lon="12.143588795279289"><ele>75.0</ele><time>2026-04-19T15:56:27.616Z</time></trkpt><trkpt lat="45.764753231004896" lon="12.143127223449529"><ele>75.0</ele><time>2026-04-19T15:56:28.616Z</time></trkpt><trkpt lat="45.76482303165024" lon="12.142658142386734"><ele>75.0</ele><time>2026-04-19T15:56:29.616Z</time></trkpt><trkpt lat="45.76489120192059" lon="12.142201104226555"><ele>75.0</ele><time>2026-04-19T15:56:30.616Z</time></trkpt><trkpt lat="45.764962998241764" lon="12.14174179146169"><ele>75.0</ele><time>2026-04-19T15:56:31.616Z</time></trkpt><trkpt lat="45.7650329288653" lon="12.141270785446022"><ele>75.0</ele><time>2026-04-19T15:56:32.616Z</time></trkpt><trkpt lat="45.76507498792063" lon="12.140794729241005"><ele>75.0</ele><time>2026-04-19T15:56:33.616Z</time></trkpt><trkpt lat="45.7651147077423" lon="12.140323929749394"><ele>74.0</ele><time>2026-04-19T15:56:34.616Z</time></trkpt><trkpt lat="45.765154833576226" lon="12.139853887216686"><ele>73.0</ele><time>2026-04-19T15:56:35.616Z</time></trkpt><trkpt lat="45.76517901232171" lon="12.13938557976986"><ele>73.0</ele><time>2026-04-19T15:56:36.616Z</time></trkpt><trkpt lat="45.76518371803987" lon="12.138917610451207"><ele>73.0</ele><time>2026-04-19T15:56:37.616Z</time></trkpt><trkpt lat="45.76518014263726" lon="12.138449334464362"><ele>73.5</ele><time>2026-04-19T15:56:38.616Z</time></trkpt><trkpt lat="45.76516488047447" lon="12.13798034372392"><ele>74.0</ele><time>2026-04-19T15:56:39.616Z</time></trkpt><trkpt lat="45.76514787954083" lon="12.137511394530314"><ele>74.5</ele><time>2026-04-19T15:56:40.616Z</time></trkpt><trkpt lat="45.765128358943514" lon="12.13704688039651"><ele>75.0</ele><time>2026-04-19T15:56:41.616Z</time></trkpt><trkpt lat="45.765083960425855" lon="12.136562404054983"><ele>75.0</ele><time>2026-04-19T15:56:42.616Z</time></trkpt><trkpt lat="45.76503744101499" lon="12.136070133992224"><ele>75.0</ele><time>2026-04-19T15:56:43.616Z</time></trkpt><trkpt lat="45.76497476755077" lon="12.13559192772075"><ele>75.0</ele><time>2026-04-19T15:56:44.616Z</time></trkpt><trkpt lat="45.76491444109841" lon="12.135120594352076"><ele>75.0</ele><time>2026-04-19T15:56:45.616Z</time></trkpt><trkpt lat="45.76484626435027" lon="12.134652404135483"><ele>75.5</ele><time>2026-04-19T15:56:46.616Z</time></trkpt><trkpt lat="45.76476938897403" lon="12.134181464017008"><ele>76.0</ele><time>2026-04-19T15:56:47.616Z</time></trkpt><trkpt lat="45.76468021876435" lon="12.133706467014202"><ele>76.5</ele><time>2026-04-19T15:56:48.616Z</time></trkpt><trkpt lat="45.76458322377298" lon="12.133241917128396"><ele>77.0</ele><time>2026-04-19T15:56:49.616Z</time></trkpt><trkpt lat="45.76447984752149" lon="12.132787743739364"><ele>77.0</ele><time>2026-04-19T15:56:50.616Z</time></trkpt><trkpt lat="45.76437204646696" lon="12.132332088885335"><ele>77.0</ele><time>2026-04-19T15:56:51.616Z</time></trkpt><trkpt lat="45.764270617764566" lon="12.131885468476792"><ele>78.0</ele><time>2026-04-19T15:56:52.616Z</time></trkpt><trkpt lat="45.76416554270679" lon="12.131437558808896"><ele>79.0</ele><time>2026-04-19T15:56:53.616Z</time></trkpt><trkpt lat="45.7640785536275" lon="12.130991375178972"><ele>78.5</ele><time>2026-04-19T15:56:54.616Z</time></trkpt><trkpt lat="45.76397357289218" lon="12.13055929925859"><ele>78.0</ele><time>2026-04-19T15:56:55.616Z</time></trkpt><trkpt lat="45.76386475352082" lon="12.130133242215253"><ele>77.0</ele><time>2026-04-19T15:56:56.616Z</time></trkpt><trkpt lat="45.763750422544405" lon="12.12967604912075"><ele>76.0</ele><time>2026-04-19T15:56:57.616Z</time></trkpt><trkpt lat="45.76365876267827" lon="12.129224557291083"><ele>76.5</ele><time>2026-04-19T15:56:58.616Z</time></trkpt><trkpt lat="45.76356209491567" lon="12.128753923434898"><ele>77.0</ele><time>2026-04-19T15:56:59.616Z</time></trkpt><trkpt lat="45.76346299499012" lon="12.128290987477914"><ele>76.5</ele><time>2026-04-19T15:57:00.616Z</time></trkpt><trkpt lat="45.76340779315956" lon="12.127822405519849"><ele>76.0</ele><time>2026-04-19T15:57:01.616Z</time></trkpt><trkpt lat="45.76334844941439" lon="12.127337630277136"><ele>76.0</ele><time>2026-04-19T15:57:02.616Z</time></trkpt><trkpt lat="45.76328837760161" lon="12.126861775364194"><ele>76.0</ele><time>2026-04-19T15:57:03.616Z</time></trkpt><trkpt lat="45.76323489518875" lon="12.126377935385474"><ele>77.5</ele><time>2026-04-19T15:57:04.616Z</time></trkpt><trkpt lat="45.7632008611728" lon="12.125887728370987"><ele>79.0</ele><time>2026-04-19T15:57:05.616Z</time></trkpt><trkpt lat="45.76314871178443" lon="12.125408376066456"><ele>79.0</ele><time>2026-04-19T15:57:06.616Z</time></trkpt><trkpt lat="45.7631214258797" lon="12.124917422403803"><ele>79.0</ele><time>2026-04-19T15:57:07.616Z</time></trkpt><trkpt lat="45.76310714064789" lon="12.124424199838494"><ele>80.0</ele><time>2026-04-19T15:57:08.616Z</time></trkpt><trkpt lat="45.7631040977511" lon="12.123929068987199"><ele>81.0</ele><time>2026-04-19T15:57:09.616Z</time></trkpt><trkpt lat="45.76310676686562" lon="12.123432277529135"><ele>81.5</ele><time>2026-04-19T15:57:10.616Z</time></trkpt><trkpt lat="45.76312052460428" lon="12.122928070255139"><ele>82.0</ele><time>2026-04-19T15:57:11.616Z</time></trkpt><trkpt lat="45.76313929953064" lon="12.122425040522153"><ele>81.0</ele><time>2026-04-19T15:57:12.616Z</time></trkpt><trkpt lat="45.763174782844075" lon="12.12191977101827"><ele>80.0</ele><time>2026-04-19T15:57:13.616Z</time></trkpt><trkpt lat="45.763226846671344" lon="12.121416611939114"><ele>80.0</ele><time>2026-04-19T15:57:14.616Z</time></trkpt><trkpt lat="45.76328615070874" lon="12.120912746798014"><ele>80.0</ele><time>2026-04-19T15:57:15.616Z</time></trkpt><trkpt lat="45.76335691361425" lon="12.12041468352099"><ele>80.0</ele><time>2026-04-19T15:57:16.616Z</time></trkpt><trkpt lat="45.7634175151245" lon="12.119908691266096"><ele>80.0</ele><time>2026-04-19T15:57:17.616Z</time></trkpt><trkpt lat="45.76347262964478" lon="12.119394992199481"><ele>82.0</ele><time>2026-04-19T15:57:18.616Z</time></trkpt><trkpt lat="45.763540015190394" lon="12.118879189719836"><ele>84.0</ele><time>2026-04-19T15:57:19.616Z</time></trkpt><trkpt lat="45.763605740532086" lon="12.118377892364622"><ele>83.5</ele><time>2026-04-19T15:57:20.616Z</time></trkpt><trkpt lat="45.7636623648368" lon="12.117892779674957"><ele>83.0</ele><time>2026-04-19T15:57:21.616Z</time></trkpt><trkpt lat="45.76371442373049" lon="12.117413474836875"><ele>83.0</ele><time>2026-04-19T15:57:22.616Z</time></trkpt><trkpt lat="45.763751497564485" lon="12.116956511575598"><ele>83.0</ele><time>2026-04-19T15:57:23.616Z</time></trkpt><trkpt lat="45.763782562232876" lon="12.116478913747732"><ele>83.0</ele><time>2026-04-19T15:57:24.616Z</time></trkpt><trkpt lat="45.76379351664243" lon="12.116022984633311"><ele>83.0</ele><time>2026-04-19T15:57:25.616Z</time></trkpt><trkpt lat="45.76380094856144" lon="12.115556083424872"><ele>83.5</ele><time>2026-04-19T15:57:26.616Z</time></trkpt><trkpt lat="45.76379276689632" lon="12.115080255584994"><ele>84.0</ele><time>2026-04-19T15:57:27.616Z</time></trkpt><trkpt lat="45.76375341908832" lon="12.114590471918405"><ele>84.0</ele><time>2026-04-19T15:57:28.616Z</time></trkpt><trkpt lat="45.76371688701873" lon="12.114098047961262"><ele>84.0</ele><time>2026-04-19T15:57:29.616Z</time></trkpt><trkpt lat="45.76363969842644" lon="12.113600546467536"><ele>85.0</ele><time>2026-04-19T15:57:30.616Z</time></trkpt><trkpt lat="45.76357391215957" lon="12.11309864049794"><ele>86.0</ele><time>2026-04-19T15:57:31.616Z</time></trkpt><trkpt lat="45.7635168452046" lon="12.11258356466995"><ele>86.5</ele><time>2026-04-19T15:57:32.616Z</time></trkpt><trkpt lat="45.763478274252286" lon="12.112079235038573"><ele>87.0</ele><time>2026-04-19T15:57:33.616Z</time></trkpt><trkpt lat="45.763435066393136" lon="12.111582986488653"><ele>87.0</ele><time>2026-04-19T15:57:34.616Z</time></trkpt><trkpt lat="45.76337009947295" lon="12.111087924677072"><ele>87.0</ele><time>2026-04-19T15:57:35.616Z</time></trkpt><trkpt lat="45.76332230199178" lon="12.110592179799836"><ele>87.0</ele><time>2026-04-19T15:57:36.616Z</time></trkpt><trkpt lat="45.76327389235507" lon="12.110104883853536"><ele>87.0</ele><time>2026-04-19T15:57:37.616Z</time></trkpt><trkpt lat="45.76322462666507" lon="12.109622064290196"><ele>87.0</ele><time>2026-04-19T15:57:38.616Z</time></trkpt><trkpt lat="45.76317779797078" lon="12.109136995206283"><ele>87.0</ele><time>2026-04-19T15:57:39.616Z</time></trkpt><trkpt lat="45.76313675998292" lon="12.10864193207471"><ele>86.0</ele><time>2026-04-19T15:57:40.616Z</time></trkpt><trkpt lat="45.76309084053545" lon="12.108152571019646"><ele>85.0</ele><time>2026-04-19T15:57:41.616Z</time></trkpt><trkpt lat="45.76304043247828" lon="12.10766904641486"><ele>84.5</ele><time>2026-04-19T15:57:42.616Z</time></trkpt><trkpt lat="45.76299110645643" lon="12.107193087026308"><ele>84.0</ele><time>2026-04-19T15:57:43.616Z</time></trkpt><trkpt lat="45.76294471115564" lon="12.106721262806312"><ele>83.0</ele><time>2026-04-19T15:57:44.617Z</time></trkpt><trkpt lat="45.762897467143986" lon="12.106263128730598"><ele>82.0</ele><time>2026-04-19T15:57:45.617Z</time></trkpt><trkpt lat="45.76285635847764" lon="12.105824414024095"><ele>81.5</ele><time>2026-04-19T15:57:46.617Z</time></trkpt><trkpt lat="45.762803352394236" lon="12.105392723325888"><ele>81.0</ele><time>2026-04-19T15:57:47.617Z</time></trkpt><trkpt lat="45.76275272816118" lon="12.10495150305878"><ele>81.5</ele><time>2026-04-19T15:57:48.617Z</time></trkpt><trkpt lat="45.76271523449312" lon="12.104505395026784"><ele>82.0</ele><time>2026-04-19T15:57:49.617Z</time></trkpt><trkpt lat="45.762669330393166" lon="12.104052589008848"><ele>82.5</ele><time>2026-04-19T15:57:50.617Z</time></trkpt><trkpt lat="45.762634211240325" lon="12.103590484937326"><ele>83.0</ele><time>2026-04-19T15:57:51.617Z</time></trkpt><trkpt lat="45.762583767184054" lon="12.103125880876087"><ele>84.0</ele><time>2026-04-19T15:57:52.617Z</time></trkpt><trkpt lat="45.76253978808782" lon="12.10265766517316"><ele>85.0</ele><time>2026-04-19T15:57:53.617Z</time></trkpt><trkpt lat="45.762493842637895" lon="12.102184440199288"><ele>85.5</ele><time>2026-04-19T15:57:54.617Z</time></trkpt><trkpt lat="45.762451729704296" lon="12.10171494416199"><ele>86.0</ele><time>2026-04-19T15:57:55.617Z</time></trkpt><trkpt lat="45.76240654143593" lon="12.101243291732509"><ele>86.0</ele><time>2026-04-19T15:57:56.617Z</time></trkpt><trkpt lat="45.76236407951386" lon="12.100753105138542"><ele>86.0</ele><time>2026-04-19T15:57:57.617Z</time></trkpt><trkpt lat="45.76231023926828" lon="12.100247995239638"><ele>88.0</ele><time>2026-04-19T15:57:58.617Z</time></trkpt><trkpt lat="45.76225008827606" lon="12.099741126489443"><ele>90.0</ele><time>2026-04-19T15:57:59.617Z</time></trkpt><trkpt lat="45.762198535836184" lon="12.099247491075438"><ele>90.0</ele><time>2026-04-19T15:58:00.617Z</time></trkpt><trkpt lat="45.76215076288962" lon="12.098761714807592"><ele>90.0</ele><time>2026-04-19T15:58:01.617Z</time></trkpt><trkpt lat="45.76210094591868" lon="12.098288291136289"><ele>89.5</ele><time>2026-04-19T15:58:02.617Z</time></trkpt><trkpt lat="45.76205606081379" lon="12.097821182268051"><ele>89.0</ele><time>2026-04-19T15:58:03.617Z</time></trkpt><trkpt lat="45.76202245748142" lon="12.097354649474642"><ele>89.0</ele><time>2026-04-19T15:58:04.617Z</time></trkpt><trkpt lat="45.761999200579346" lon="12.09690251123848"><ele>89.0</ele><time>2026-04-19T15:58:05.617Z</time></trkpt><trkpt lat="45.76196663088282" lon="12.096454305289688"><ele>89.0</ele><time>2026-04-19T15:58:06.617Z</time></trkpt><trkpt lat="45.76191614048504" lon="12.096009693697425"><ele>89.0</ele><time>2026-04-19T15:58:07.617Z</time></trkpt><trkpt lat="45.761863411437794" lon="12.095567815951675"><ele>89.0</ele><time>2026-04-19T15:58:08.617Z</time></trkpt><trkpt lat="45.761803964978775" lon="12.09512491939317"><ele>89.0</ele><time>2026-04-19T15:58:09.617Z</time></trkpt><trkpt lat="45.76172576166143" lon="12.094704707067743"><ele>89.0</ele><time>2026-04-19T15:58:10.617Z</time></trkpt><trkpt lat="45.76164842208027" lon="12.094280378780416"><ele>89.0</ele><time>2026-04-19T15:58:11.617Z</time></trkpt><trkpt lat="45.761567209985664" lon="12.093863357625802"><ele>89.0</ele><time>2026-04-19T15:58:12.617Z</time></trkpt><trkpt lat="45.76148343231992" lon="12.09344605301518"><ele>89.0</ele><time>2026-04-19T15:58:13.617Z</time></trkpt><trkpt lat="45.761396357931254" lon="12.093034965341229"><ele>89.0</ele><time>2026-04-19T15:58:14.617Z</time></trkpt><trkpt lat="45.76129473189625" lon="12.092626433609537"><ele>89.0</ele><time>2026-04-19T15:58:15.617Z</time></trkpt><trkpt lat="45.76118688969298" lon="12.092225690656113"><ele>89.0</ele><time>2026-04-19T15:58:16.617Z</time></trkpt><trkpt lat="45.761076034318094" lon="12.091818538183341"><ele>89.0</ele><time>2026-04-19T15:58:17.617Z</time></trkpt><trkpt lat="45.760951742258705" lon="12.091409160747277"><ele>90.0</ele><time>2026-04-19T15:58:18.617Z</time></trkpt><trkpt lat="45.76081663310124" lon="12.090995193334257"><ele>91.0</ele><time>2026-04-19T15:58:19.617Z</time></trkpt><trkpt lat="45.76067243490535" lon="12.090571191243344"><ele>91.0</ele><time>2026-04-19T15:58:20.617Z</time></trkpt><trkpt lat="45.76051976921346" lon="12.090138650800663"><ele>91.0</ele><time>2026-04-19T15:58:21.617Z</time></trkpt><trkpt lat="45.76032693977818" lon="12.089716432672752"><ele>91.0</ele><time>2026-04-19T15:58:22.617Z</time></trkpt><trkpt lat="45.760146992512524" lon="12.089262116908559"><ele>91.0</ele><time>2026-04-19T15:58:23.617Z</time></trkpt><trkpt lat="45.75995871126023" lon="12.08878416026568"><ele>91.0</ele><time>2026-04-19T15:58:24.617Z</time></trkpt><trkpt lat="45.759770516611255" lon="12.088312173432593"><ele>91.0</ele><time>2026-04-19T15:58:25.617Z</time></trkpt><trkpt lat="45.75959053486139" lon="12.087865669846678"><ele>91.0</ele><time>2026-04-19T15:58:26.617Z</time></trkpt><trkpt lat="45.75940893537824" lon="12.087418903838625"><ele>91.0</ele><time>2026-04-19T15:58:27.617Z</time></trkpt><trkpt lat="45.75923705569532" lon="12.086983482670163"><ele>88.5</ele><time>2026-04-19T15:58:28.617Z</time></trkpt><trkpt lat="45.75906914020601" lon="12.086529930174391"><ele>86.0</ele><time>2026-04-19T15:58:29.617Z</time></trkpt><trkpt lat="45.758901247718086" lon="12.086102857897501"><ele>87.0</ele><time>2026-04-19T15:58:30.617Z</time></trkpt><trkpt lat="45.75873370263271" lon="12.085679334332497"><ele>88.0</ele><time>2026-04-19T15:58:31.617Z</time></trkpt><trkpt lat="45.75856368119896" lon="12.085271347324595"><ele>88.5</ele><time>2026-04-19T15:58:32.617Z</time></trkpt><trkpt lat="45.7583935114851" lon="12.084872025123861"><ele>89.0</ele><time>2026-04-19T15:58:33.617Z</time></trkpt><trkpt lat="45.75822302097852" lon="12.084475298969622"><ele>87.5</ele><time>2026-04-19T15:58:34.617Z</time></trkpt><trkpt lat="45.758051534059106" lon="12.084078572049709"><ele>86.0</ele><time>2026-04-19T15:58:35.617Z</time></trkpt><trkpt lat="45.757873548497315" lon="12.083679132549141"><ele>86.0</ele><time>2026-04-19T15:58:36.617Z</time></trkpt><trkpt lat="45.75773007180476" lon="12.08327137086769"><ele>86.0</ele><time>2026-04-19T15:58:37.617Z</time></trkpt><trkpt lat="45.75758280058036" lon="12.082876999895909"><ele>87.5</ele><time>2026-04-19T15:58:38.617Z</time></trkpt><trkpt lat="45.757431768479364" lon="12.08247006338521"><ele>89.0</ele><time>2026-04-19T15:58:39.617Z</time></trkpt><trkpt lat="45.75727299484349" lon="12.082056785765188"><ele>89.0</ele><time>2026-04-19T15:58:40.617Z</time></trkpt><trkpt lat="45.75710718219332" lon="12.081637034853939"><ele>89.0</ele><time>2026-04-19T15:58:41.617Z</time></trkpt><trkpt lat="45.75694661480706" lon="12.08121491936654"><ele>87.5</ele><time>2026-04-19T15:58:42.617Z</time></trkpt><trkpt lat="45.75678427113732" lon="12.080782575820978"><ele>86.0</ele><time>2026-04-19T15:58:43.617Z</time></trkpt><trkpt lat="45.75662307800343" lon="12.080344173883491"><ele>86.5</ele><time>2026-04-19T15:58:44.617Z</time></trkpt><trkpt lat="45.75646090500898" lon="12.079916268666535"><ele>87.0</ele><time>2026-04-19T15:58:45.617Z</time></trkpt><trkpt lat="45.75630638288087" lon="12.079483432967095"><ele>87.0</ele><time>2026-04-19T15:58:46.617Z</time></trkpt><trkpt lat="45.756142578742505" lon="12.07906228946522"><ele>87.0</ele><time>2026-04-19T15:58:47.617Z</time></trkpt><trkpt lat="45.7559709007242" lon="12.07864647114115"><ele>87.0</ele><time>2026-04-19T15:58:48.617Z</time></trkpt><trkpt lat="45.755801611500395" lon="12.07823291889334"><ele>87.0</ele><time>2026-04-19T15:58:49.617Z</time></trkpt><trkpt lat="45.755606907126186" lon="12.077816676206917"><ele>87.5</ele><time>2026-04-19T15:58:50.617Z</time></trkpt><trkpt lat="45.75543079470846" lon="12.077407118101789"><ele>88.0</ele><time>2026-04-19T15:58:51.617Z</time></trkpt><trkpt lat="45.755225135459696" lon="12.07700829117965"><ele>87.0</ele><time>2026-04-19T15:58:52.617Z</time></trkpt><trkpt lat="45.75501829454522" lon="12.076615650398287"><ele>86.0</ele><time>2026-04-19T15:58:53.617Z</time></trkpt><trkpt lat="45.75480185411461" lon="12.076230707081837"><ele>86.0</ele><time>2026-04-19T15:58:54.617Z</time></trkpt><trkpt lat="45.75458404125176" lon="12.075851579422963"><ele>86.0</ele><time>2026-04-19T15:58:55.617Z</time></trkpt><trkpt lat="45.75436608747961" lon="12.075483082690582"><ele>86.5</ele><time>2026-04-19T15:58:56.617Z</time></trkpt><trkpt lat="45.75413965166706" lon="12.075125623019673"><ele>87.0</ele><time>2026-04-19T15:58:57.617Z</time></trkpt><trkpt lat="45.75390522330063" lon="12.074780793352572"><ele>87.5</ele><time>2026-04-19T15:58:58.617Z</time></trkpt><trkpt lat="45.75364509916348" lon="12.074447746897949"><ele>88.0</ele><time>2026-04-19T15:58:59.617Z</time></trkpt><trkpt lat="45.753391337325304" lon="12.074113855858315"><ele>87.0</ele><time>2026-04-19T15:59:00.617Z</time></trkpt><trkpt lat="45.75312853368796" lon="12.0738019579018"><ele>86.0</ele><time>2026-04-19T15:59:01.617Z</time></trkpt><trkpt lat="45.752865603596454" lon="12.07348738513416"><ele>85.0</ele><time>2026-04-19T15:59:02.617Z</time></trkpt><trkpt lat="45.75259667539137" lon="12.073179694365505"><ele>84.0</ele><time>2026-04-19T15:59:03.617Z</time></trkpt><trkpt lat="45.75229902137433" lon="12.072873767070858"><ele>84.0</ele><time>2026-04-19T15:59:04.617Z</time></trkpt><trkpt lat="45.75199162928957" lon="12.072569593326547"><ele>84.0</ele><time>2026-04-19T15:59:05.617Z</time></trkpt><trkpt lat="45.75167184966895" lon="12.072283381872435"><ele>84.0</ele><time>2026-04-19T15:59:06.617Z</time></trkpt><trkpt lat="45.751372617063936" lon="12.071996598877401"><ele>84.0</ele><time>2026-04-19T15:59:07.617Z</time></trkpt><trkpt lat="45.75106879366963" lon="12.071720612860062"><ele>84.0</ele><time>2026-04-19T15:59:08.617Z</time></trkpt><trkpt lat="45.75076204457847" lon="12.071452467940148"><ele>84.0</ele><time>2026-04-19T15:59:09.617Z</time></trkpt><trkpt lat="45.75045307455489" lon="12.071192356340665"><ele>84.0</ele><time>2026-04-19T15:59:10.617Z</time></trkpt><trkpt lat="45.75014833507564" lon="12.070945031623616"><ele>84.0</ele><time>2026-04-19T15:59:11.617Z</time></trkpt><trkpt lat="45.74983948334962" lon="12.0707173117119"><ele>84.0</ele><time>2026-04-19T15:59:12.617Z</time></trkpt><trkpt lat="45.7495420560982" lon="12.070481012193449"><ele>84.0</ele><time>2026-04-19T15:59:13.617Z</time></trkpt><trkpt lat="45.74924573869539" lon="12.07025355646209"><ele>84.0</ele><time>2026-04-19T15:59:14.617Z</time></trkpt><trkpt lat="45.748967230403004" lon="12.070012722232836"><ele>84.0</ele><time>2026-04-19T15:59:15.617Z</time></trkpt><trkpt lat="45.748681711354216" lon="12.069780010435762"><ele>82.5</ele><time>2026-04-19T15:59:16.617Z</time></trkpt><trkpt lat="45.74838462938646" lon="12.069552856125398"><ele>81.0</ele><time>2026-04-19T15:59:17.617Z</time></trkpt><trkpt lat="45.74810562103183" lon="12.069316405938736"><ele>81.5</ele><time>2026-04-19T15:59:18.617Z</time></trkpt><trkpt lat="45.747825963206836" lon="12.069083483408068"><ele>82.0</ele><time>2026-04-19T15:59:19.617Z</time></trkpt><trkpt lat="45.747549585634346" lon="12.068837794723159"><ele>82.0</ele><time>2026-04-19T15:59:20.617Z</time></trkpt><trkpt lat="45.74728593556852" lon="12.068581302071594"><ele>82.0</ele><time>2026-04-19T15:59:21.617Z</time></trkpt><trkpt lat="45.74703196533224" lon="12.068316873114714"><ele>81.5</ele><time>2026-04-19T15:59:22.617Z</time></trkpt><trkpt lat="45.746774114846644" lon="12.06803682342332"><ele>81.0</ele><time>2026-04-19T15:59:23.617Z</time></trkpt><trkpt lat="45.74652283189244" lon="12.067761726354382"><ele>81.0</ele><time>2026-04-19T15:59:24.617Z</time></trkpt><trkpt lat="45.74626632604802" lon="12.06747961626175"><ele>81.0</ele><time>2026-04-19T15:59:25.617Z</time></trkpt><trkpt lat="45.746028508368234" lon="12.067184754177095"><ele>81.0</ele><time>2026-04-19T15:59:26.617Z</time></trkpt><trkpt lat="45.74578690521264" lon="12.066882373626639"><ele>81.0</ele><time>2026-04-19T15:59:27.617Z</time></trkpt><trkpt lat="45.74555875128822" lon="12.066561045352094"><ele>81.0</ele><time>2026-04-19T15:59:28.617Z</time></trkpt><trkpt lat="45.74533829263034" lon="12.06622798347985"><ele>81.0</ele><time>2026-04-19T15:59:29.617Z</time></trkpt><trkpt lat="45.74512508899241" lon="12.065873969163853"><ele>81.0</ele><time>2026-04-19T15:59:30.617Z</time></trkpt><trkpt lat="45.744916220990525" lon="12.065518241298609"><ele>81.0</ele><time>2026-04-19T15:59:31.617Z</time></trkpt><trkpt lat="45.744708606521215" lon="12.065164539875944"><ele>81.0</ele><time>2026-04-19T15:59:32.617Z</time></trkpt><trkpt lat="45.74450039783537" lon="12.064798367738874"><ele>81.0</ele><time>2026-04-19T15:59:33.633Z</time></trkpt><trkpt lat="45.74430244120171" lon="12.064428877729373"><ele>80.0</ele><time>2026-04-19T15:59:34.63Z</time></trkpt><trkpt lat="45.74410509689391" lon="12.064048443138276"><ele>79.0</ele><time>2026-04-19T15:59:35.629Z</time></trkpt><trkpt lat="45.74391635460634" lon="12.06365696993055"><ele>79.5</ele><time>2026-04-19T15:59:36.636Z</time></trkpt><trkpt lat="45.74373109678462" lon="12.06326066255866"><ele>80.0</ele><time>2026-04-19T15:59:37.632Z</time></trkpt><trkpt lat="45.74354563758539" lon="12.062862046759149"><ele>79.0</ele><time>2026-04-19T15:59:38.63Z</time></trkpt><trkpt lat="45.74217225340562" lon="12.058692388878"><ele>79.0</ele><time>2026-04-19T15:59:49.569Z</time></trkpt><trkpt lat="45.74196640406338" lon="12.055956618871592"><ele>78.0</ele><time>2026-04-19T15:59:53.617Z</time></trkpt><trkpt lat="45.74186476626815" lon="12.055456067011718"><ele>77.0</ele><time>2026-04-19T15:59:54.617Z</time></trkpt><trkpt lat="45.741772595962345" lon="12.054891502927246"><ele>77.0</ele><time>2026-04-19T15:59:55.617Z</time></trkpt><trkpt lat="45.741642272349914" lon="12.054417329023615"><ele>77.0</ele><time>2026-04-19T15:59:56.617Z</time></trkpt><trkpt lat="45.741556377995195" lon="12.05393637859659"><ele>76.5</ele><time>2026-04-19T15:59:57.617Z</time></trkpt><trkpt lat="45.74144677671325" lon="12.053484199062153"><ele>76.0</ele><time>2026-04-19T15:59:58.617Z</time></trkpt><trkpt lat="45.74133811141579" lon="12.05302354334409"><ele>76.0</ele><time>2026-04-19T15:59:59.618Z</time></trkpt><trkpt lat="45.74121989163393" lon="12.052570676023228"><ele>76.0</ele><time>2026-04-19T16:00:00.618Z</time></trkpt><trkpt lat="45.74110671787604" lon="12.052126505730708"><ele>76.5</ele><time>2026-04-19T16:00:01.618Z</time></trkpt><trkpt lat="45.741005446692085" lon="12.05168540185901"><ele>77.0</ele><time>2026-04-19T16:00:02.618Z</time></trkpt><trkpt lat="45.7409057175968" lon="12.051233829223907"><ele>76.0</ele><time>2026-04-19T16:00:03.618Z</time></trkpt><trkpt lat="45.74081064160322" lon="12.050786343609262"><ele>75.0</ele><time>2026-04-19T16:00:04.618Z</time></trkpt><trkpt lat="45.740718781701226" lon="12.050334080955965"><ele>75.5</ele><time>2026-04-19T16:00:05.618Z</time></trkpt><trkpt lat="45.740623610378854" lon="12.04988258512264"><ele>76.0</ele><time>2026-04-19T16:00:06.618Z</time></trkpt><trkpt lat="45.74053137650006" lon="12.049421710809556"><ele>76.0</ele><time>2026-04-19T16:00:07.618Z</time></trkpt><trkpt lat="45.74043161926319" lon="12.048969311954927"><ele>76.0</ele><time>2026-04-19T16:00:08.618Z</time></trkpt><trkpt lat="45.74032575901998" lon="12.048523747272965"><ele>76.0</ele><time>2026-04-19T16:00:09.618Z</time></trkpt><trkpt lat="45.74022303192324" lon="12.048079770920882"><ele>76.0</ele><time>2026-04-19T16:00:10.618Z</time></trkpt><trkpt lat="45.74010902073797" lon="12.047639165297102"><ele>76.0</ele><time>2026-04-19T16:00:11.618Z</time></trkpt><trkpt lat="45.73998328910847" lon="12.04720687633571"><ele>76.0</ele><time>2026-04-19T16:00:12.618Z</time></trkpt><trkpt lat="45.73985935291526" lon="12.046786522651168"><ele>76.0</ele><time>2026-04-19T16:00:13.618Z</time></trkpt><trkpt lat="45.73972450630039" lon="12.046377956338594"><ele>76.0</ele><time>2026-04-19T16:00:14.618Z</time></trkpt><trkpt lat="45.739570571757824" lon="12.045968557119995"><ele>76.5</ele><time>2026-04-19T16:00:15.618Z</time></trkpt><trkpt lat="45.73940653729627" lon="12.045554522329095"><ele>77.0</ele><time>2026-04-19T16:00:16.618Z</time></trkpt><trkpt lat="45.739237562401584" lon="12.045140786006872"><ele>74.5</ele><time>2026-04-19T16:00:17.618Z</time></trkpt><trkpt lat="45.73906986902809" lon="12.044722727213736"><ele>72.0</ele><time>2026-04-19T16:00:18.618Z</time></trkpt><trkpt lat="45.73889087867067" lon="12.044308116057103"><ele>72.5</ele><time>2026-04-19T16:00:19.618Z</time></trkpt><trkpt lat="45.73869541840592" lon="12.043893842030302"><ele>73.0</ele><time>2026-04-19T16:00:20.618Z</time></trkpt><trkpt lat="45.738499811653554" lon="12.04348821871605"><ele>73.0</ele><time>2026-04-19T16:00:21.618Z</time></trkpt><trkpt lat="45.7382878270997" lon="12.043093424754593"><ele>73.0</ele><time>2026-04-19T16:00:22.618Z</time></trkpt><trkpt lat="45.73806997480389" lon="12.042702512585521"><ele>73.0</ele><time>2026-04-19T16:00:23.618Z</time></trkpt><trkpt lat="45.73786969098974" lon="12.04232034413213"><ele>73.0</ele><time>2026-04-19T16:00:24.618Z</time></trkpt><trkpt lat="45.73765918851205" lon="12.041935026741088"><ele>72.5</ele><time>2026-04-19T16:00:25.618Z</time></trkpt><trkpt lat="45.73743870960855" lon="12.041562405062594"><ele>72.0</ele><time>2026-04-19T16:00:26.618Z</time></trkpt><trkpt lat="45.73723462682665" lon="12.041182508368113"><ele>72.0</ele><time>2026-04-19T16:00:27.618Z</time></trkpt><trkpt lat="45.737040649085024" lon="12.040800601800221"><ele>72.0</ele><time>2026-04-19T16:00:28.618Z</time></trkpt><trkpt lat="45.73683852454435" lon="12.04042128586733"><ele>72.0</ele><time>2026-04-19T16:00:29.618Z</time></trkpt><trkpt lat="45.73665228244938" lon="12.040041476729511"><ele>72.0</ele><time>2026-04-19T16:00:30.618Z</time></trkpt><trkpt lat="45.73645973915353" lon="12.039657904524994"><ele>72.0</ele><time>2026-04-19T16:00:31.618Z</time></trkpt><trkpt lat="45.73625403158375" lon="12.039282565942258"><ele>72.0</ele><time>2026-04-19T16:00:32.618Z</time></trkpt><trkpt lat="45.736052087067" lon="12.038903909763501"><ele>72.0</ele><time>2026-04-19T16:00:33.618Z</time></trkpt><trkpt lat="45.73583259071592" lon="12.038527859063123"><ele>72.0</ele><time>2026-04-19T16:00:34.618Z</time></trkpt><trkpt lat="45.735625620745395" lon="12.038144915061318"><ele>72.0</ele><time>2026-04-19T16:00:35.618Z</time></trkpt><trkpt lat="45.73541959560925" lon="12.037761695215277"><ele>72.0</ele><time>2026-04-19T16:00:36.618Z</time></trkpt><trkpt lat="45.7352125963602" lon="12.037370609715465"><ele>72.0</ele><time>2026-04-19T16:00:37.618Z</time></trkpt><trkpt lat="45.73499036732897" lon="12.036969650808393"><ele>72.0</ele><time>2026-04-19T16:00:38.618Z</time></trkpt><trkpt lat="45.73478819900627" lon="12.036564980932674"><ele>71.5</ele><time>2026-04-19T16:00:39.618Z</time></trkpt><trkpt lat="45.73457304856577" lon="12.03616940174718"><ele>71.0</ele><time>2026-04-19T16:00:40.618Z</time></trkpt><trkpt lat="45.734370230894086" lon="12.035777515637482"><ele>71.0</ele><time>2026-04-19T16:00:41.618Z</time></trkpt><trkpt lat="45.734146136288636" lon="12.035396625493958"><ele>71.0</ele><time>2026-04-19T16:00:42.618Z</time></trkpt><trkpt lat="45.73393554622239" lon="12.035012367260034"><ele>71.5</ele><time>2026-04-19T16:00:43.618Z</time></trkpt><trkpt lat="45.73373293690905" lon="12.034632292654106"><ele>72.0</ele><time>2026-04-19T16:00:44.618Z</time></trkpt><trkpt lat="45.73352059540404" lon="12.034253053003017"><ele>71.5</ele><time>2026-04-19T16:00:45.618Z</time></trkpt><trkpt lat="45.73331691867163" lon="12.033889841616796"><ele>71.0</ele><time>2026-04-19T16:00:46.618Z</time></trkpt><trkpt lat="45.73312190739405" lon="12.033511064402871"><ele>71.0</ele><time>2026-04-19T16:00:47.618Z</time></trkpt><trkpt lat="45.73294103705393" lon="12.033119813571924"><ele>71.0</ele><time>2026-04-19T16:00:48.618Z</time></trkpt><trkpt lat="45.732750806408276" lon="12.032730857470519"><ele>70.5</ele><time>2026-04-19T16:00:49.618Z</time></trkpt><trkpt lat="45.73256882585736" lon="12.032326182541977"><ele>70.0</ele><time>2026-04-19T16:00:50.618Z</time></trkpt><trkpt lat="45.73240009357406" lon="12.0319080003084"><ele>70.0</ele><time>2026-04-19T16:00:51.618Z</time></trkpt><trkpt lat="45.73222407622696" lon="12.031491686526653"><ele>70.0</ele><time>2026-04-19T16:00:52.618Z</time></trkpt><trkpt lat="45.73206343384543" lon="12.031065329451696"><ele>69.5</ele><time>2026-04-19T16:00:53.618Z</time></trkpt><trkpt lat="45.73189000328646" lon="12.030630466158728"><ele>69.0</ele><time>2026-04-19T16:00:54.618Z</time></trkpt><trkpt lat="45.731745529905936" lon="12.030177509708672"><ele>69.0</ele><time>2026-04-19T16:00:55.618Z</time></trkpt><trkpt lat="45.731598771273184" lon="12.029729068919606"><ele>69.0</ele><time>2026-04-19T16:00:56.618Z</time></trkpt><trkpt lat="45.731447528078895" lon="12.029270834707324"><ele>70.0</ele><time>2026-04-19T16:00:57.618Z</time></trkpt><trkpt lat="45.731297783738434" lon="12.028835408573732"><ele>71.0</ele><time>2026-04-19T16:00:58.618Z</time></trkpt><trkpt lat="45.7311561533095" lon="12.028390307741518"><ele>70.5</ele><time>2026-04-19T16:00:59.618Z</time></trkpt><trkpt lat="45.731033344114834" lon="12.027939029650618"><ele>70.0</ele><time>2026-04-19T16:01:00.618Z</time></trkpt><trkpt lat="45.73093066504005" lon="12.02748625694565"><ele>70.0</ele><time>2026-04-19T16:01:01.618Z</time></trkpt><trkpt lat="45.73082407258033" lon="12.027035910777357"><ele>70.0</ele><time>2026-04-19T16:01:02.618Z</time></trkpt><trkpt lat="45.73069402793512" lon="12.026586007938379"><ele>70.0</ele><time>2026-04-19T16:01:03.618Z</time></trkpt><trkpt lat="45.73060371225008" lon="12.026145256022819"><ele>70.0</ele><time>2026-04-19T16:01:04.618Z</time></trkpt><trkpt lat="45.73052012974596" lon="12.025710739565753"><ele>70.0</ele><time>2026-04-19T16:01:05.618Z</time></trkpt><trkpt lat="45.730432443440684" lon="12.025277997339114"><ele>70.0</ele><time>2026-04-19T16:01:06.618Z</time></trkpt><trkpt lat="45.73033769788926" lon="12.024841291647194"><ele>70.0</ele><time>2026-04-19T16:01:07.618Z</time></trkpt><trkpt lat="45.73025795484003" lon="12.024400227840786"><ele>70.0</ele><time>2026-04-19T16:01:08.618Z</time></trkpt><trkpt lat="45.73018151243942" lon="12.02393920750981"><ele>70.0</ele><time>2026-04-19T16:01:09.618Z</time></trkpt><trkpt lat="45.73010580027478" lon="12.023483732977413"><ele>70.0</ele><time>2026-04-19T16:01:10.618Z</time></trkpt><trkpt lat="45.730038625896434" lon="12.023026008856434"><ele>70.0</ele><time>2026-04-19T16:01:11.618Z</time></trkpt><trkpt lat="45.729966219034026" lon="12.022558041788729"><ele>70.0</ele><time>2026-04-19T16:01:12.618Z</time></trkpt><trkpt lat="45.72990717670476" lon="12.02209155372694"><ele>69.5</ele><time>2026-04-19T16:01:13.618Z</time></trkpt><trkpt lat="45.72988530269419" lon="12.021611927109177"><ele>69.0</ele><time>2026-04-19T16:01:14.618Z</time></trkpt><trkpt lat="45.72984307911098" lon="12.021139612088566"><ele>70.5</ele><time>2026-04-19T16:01:15.618Z</time></trkpt><trkpt lat="45.729808760703385" lon="12.020667297933057"><ele>72.0</ele><time>2026-04-19T16:01:16.618Z</time></trkpt><trkpt lat="45.729786492009545" lon="12.020197998871861"><ele>71.5</ele><time>2026-04-19T16:01:17.618Z</time></trkpt><trkpt lat="45.729755358198986" lon="12.019734689566432"><ele>71.0</ele><time>2026-04-19T16:01:18.618Z</time></trkpt><trkpt lat="45.72973414600264" lon="12.019275760071938"><ele>71.0</ele><time>2026-04-19T16:01:19.618Z</time></trkpt><trkpt lat="45.729716420282394" lon="12.018816676744102"><ele>71.0</ele><time>2026-04-19T16:01:20.618Z</time></trkpt><trkpt lat="45.72970865557119" lon="12.018354049372137"><ele>71.0</ele><time>2026-04-19T16:01:21.618Z</time></trkpt><trkpt lat="45.72969498345451" lon="12.01789776560978"><ele>71.0</ele><time>2026-04-19T16:01:22.618Z</time></trkpt><trkpt lat="45.729681942545625" lon="12.017442594741944"><ele>71.0</ele><time>2026-04-19T16:01:23.618Z</time></trkpt><trkpt lat="45.72968745767737" lon="12.016986553008262"><ele>71.0</ele><time>2026-04-19T16:01:24.618Z</time></trkpt><trkpt lat="45.72968003957873" lon="12.016531068049298"><ele>71.0</ele><time>2026-04-19T16:01:25.618Z</time></trkpt><trkpt lat="45.72967297820882" lon="12.016079161372339"><ele>71.0</ele><time>2026-04-19T16:01:26.618Z</time></trkpt><trkpt lat="45.729671622610006" lon="12.015630903902792"><ele>71.0</ele><time>2026-04-19T16:01:27.618Z</time></trkpt><trkpt lat="45.72967330365376" lon="12.015192535609236"><ele>71.0</ele><time>2026-04-19T16:01:28.618Z</time></trkpt><trkpt lat="45.729671565887244" lon="12.014755567314594"><ele>70.5</ele><time>2026-04-19T16:01:29.618Z</time></trkpt><trkpt lat="45.729666335861126" lon="12.014316307484037"><ele>70.0</ele><time>2026-04-19T16:01:30.618Z</time></trkpt><trkpt lat="45.72966411561523" lon="12.013865746870204"><ele>70.0</ele><time>2026-04-19T16:01:31.618Z</time></trkpt><trkpt lat="45.729664873917486" lon="12.013406029923795"><ele>70.0</ele><time>2026-04-19T16:01:32.618Z</time></trkpt><trkpt lat="45.72965651633031" lon="12.012961744320934"><ele>70.0</ele><time>2026-04-19T16:01:33.618Z</time></trkpt><trkpt lat="45.729627604959845" lon="12.012512143958723"><ele>70.0</ele><time>2026-04-19T16:01:34.618Z</time></trkpt><trkpt lat="45.72961421306196" lon="12.01204727177017"><ele>70.5</ele><time>2026-04-19T16:01:35.618Z</time></trkpt><trkpt lat="45.72961491691354" lon="12.011581694836169"><ele>71.0</ele><time>2026-04-19T16:01:36.618Z</time></trkpt><trkpt lat="45.72960258323163" lon="12.0111019331693"><ele>71.0</ele><time>2026-04-19T16:01:37.618Z</time></trkpt><trkpt lat="45.72958843628514" lon="12.010603645333621"><ele>71.0</ele><time>2026-04-19T16:01:38.618Z</time></trkpt><trkpt lat="45.72958019568946" lon="12.010098716470488"><ele>71.0</ele><time>2026-04-19T16:01:39.618Z</time></trkpt><trkpt lat="45.72956009243909" lon="12.009595744112007"><ele>71.0</ele><time>2026-04-19T16:01:40.618Z</time></trkpt><trkpt lat="45.729564773293156" lon="12.009091165326755"><ele>71.0</ele><time>2026-04-19T16:01:41.618Z</time></trkpt><trkpt lat="45.729558601602996" lon="12.008602910616794"><ele>71.0</ele><time>2026-04-19T16:01:42.618Z</time></trkpt><trkpt lat="45.729550552659795" lon="12.008113987744109"><ele>71.0</ele><time>2026-04-19T16:01:43.618Z</time></trkpt><trkpt lat="45.72953336298466" lon="12.007625210940175"><ele>71.0</ele><time>2026-04-19T16:01:44.618Z</time></trkpt><trkpt lat="45.729516270235756" lon="12.007134693894233"><ele>71.0</ele><time>2026-04-19T16:01:45.618Z</time></trkpt><trkpt lat="45.729516785705805" lon="12.006652973856633"><ele>71.0</ele><time>2026-04-19T16:01:46.618Z</time></trkpt><trkpt lat="45.72949357238162" lon="12.006166165622206"><ele>71.5</ele><time>2026-04-19T16:01:47.618Z</time></trkpt><trkpt lat="45.72948179699695" lon="12.005686197207869"><ele>72.0</ele><time>2026-04-19T16:01:48.618Z</time></trkpt><trkpt lat="45.729469197526996" lon="12.005214942388244"><ele>72.0</ele><time>2026-04-19T16:01:49.618Z</time></trkpt><trkpt lat="45.72945387815743" lon="12.004744667380596"><ele>72.0</ele><time>2026-04-19T16:01:50.618Z</time></trkpt><trkpt lat="45.729437025990876" lon="12.004271709038639"><ele>72.0</ele><time>2026-04-19T16:01:51.618Z</time></trkpt><trkpt lat="45.72942674385121" lon="12.003795559703995"><ele>72.0</ele><time>2026-04-19T16:01:52.618Z</time></trkpt><trkpt lat="45.72941927838127" lon="12.003325164228652"><ele>72.0</ele><time>2026-04-19T16:01:53.618Z</time></trkpt><trkpt lat="45.729397485998234" lon="12.002842483444418"><ele>72.0</ele><time>2026-04-19T16:01:54.618Z</time></trkpt><trkpt lat="45.72936298581908" lon="12.002366787784835"><ele>71.5</ele><time>2026-04-19T16:01:55.618Z</time></trkpt><trkpt lat="45.72933707713014" lon="12.00189072562735"><ele>71.0</ele><time>2026-04-19T16:01:56.618Z</time></trkpt><trkpt lat="45.7293033634394" lon="12.001416516296514"><ele>71.0</ele><time>2026-04-19T16:01:57.618Z</time></trkpt><trkpt lat="45.72924712816113" lon="12.000953198382113"><ele>71.0</ele><time>2026-04-19T16:01:58.618Z</time></trkpt><trkpt lat="45.729186630167014" lon="12.000487910385514"><ele>71.0</ele><time>2026-04-19T16:01:59.618Z</time></trkpt><trkpt lat="45.72912482190108" lon="12.0000215005897"><ele>71.0</ele><time>2026-04-19T16:02:00.618Z</time></trkpt><trkpt lat="45.72905646411656" lon="11.99955533614489"><ele>70.0</ele><time>2026-04-19T16:02:01.618Z</time></trkpt><trkpt lat="45.72897918930996" lon="11.999091485279145"><ele>69.0</ele><time>2026-04-19T16:02:02.618Z</time></trkpt><trkpt lat="45.728861494619736" lon="11.998629798666437"><ele>70.0</ele><time>2026-04-19T16:02:03.618Z</time></trkpt><trkpt lat="45.728765145457196" lon="11.998169684108598"><ele>71.0</ele><time>2026-04-19T16:02:04.618Z</time></trkpt><trkpt lat="45.72866597622575" lon="11.997714687534845"><ele>71.0</ele><time>2026-04-19T16:02:05.619Z</time></trkpt><trkpt lat="45.72859141076649" lon="11.997252582275895"><ele>71.0</ele><time>2026-04-19T16:02:06.619Z</time></trkpt><trkpt lat="45.728514693722474" lon="11.996785977458172"><ele>70.5</ele><time>2026-04-19T16:02:07.619Z</time></trkpt><trkpt lat="45.728443181581405" lon="11.996324103158866"><ele>70.0</ele><time>2026-04-19T16:02:08.619Z</time></trkpt><trkpt lat="45.728357457451814" lon="11.99586171331492"><ele>70.5</ele><time>2026-04-19T16:02:09.619Z</time></trkpt><trkpt lat="45.728282083962114" lon="11.995406012197266"><ele>71.0</ele><time>2026-04-19T16:02:10.619Z</time></trkpt><trkpt lat="45.728236451545" lon="11.99494055746434"><ele>71.0</ele><time>2026-04-19T16:02:11.619Z</time></trkpt><trkpt lat="45.72818908231384" lon="11.994473367025313"><ele>71.0</ele><time>2026-04-19T16:02:12.619Z</time></trkpt><trkpt lat="45.72815019249028" lon="11.993988542880004"><ele>71.0</ele><time>2026-04-19T16:02:13.619Z</time></trkpt><trkpt lat="45.72811798190955" lon="11.993501632583868"><ele>71.0</ele><time>2026-04-19T16:02:14.619Z</time></trkpt><trkpt lat="45.72809377484196" lon="11.99301101527787"><ele>71.5</ele><time>2026-04-19T16:02:15.619Z</time></trkpt><trkpt lat="45.72807178444547" lon="11.992531818876706"><ele>72.0</ele><time>2026-04-19T16:02:16.619Z</time></trkpt><trkpt lat="45.728067060132474" lon="11.992045127663244"><ele>72.5</ele><time>2026-04-19T16:02:17.619Z</time></trkpt><trkpt lat="45.72807644528639" lon="11.991561828125207"><ele>73.0</ele><time>2026-04-19T16:02:18.619Z</time></trkpt><trkpt lat="45.728097907756364" lon="11.991087384570834"><ele>72.0</ele><time>2026-04-19T16:02:19.619Z</time></trkpt><trkpt lat="45.72811012239144" lon="11.990621257522243"><ele>71.0</ele><time>2026-04-19T16:02:20.619Z</time></trkpt><trkpt lat="45.72813588671585" lon="11.990148841310722"><ele>71.0</ele><time>2026-04-19T16:02:21.619Z</time></trkpt><trkpt lat="45.72816679535324" lon="11.989672974346972"><ele>71.0</ele><time>2026-04-19T16:02:22.619Z</time></trkpt><trkpt lat="45.72823698042702" lon="11.989192925871091"><ele>71.5</ele><time>2026-04-19T16:02:23.619Z</time></trkpt><trkpt lat="45.72833642163451" lon="11.98872297773239"><ele>72.0</ele><time>2026-04-19T16:02:24.619Z</time></trkpt><trkpt lat="45.728431010405394" lon="11.988236600059045"><ele>71.0</ele><time>2026-04-19T16:02:25.619Z</time></trkpt><trkpt lat="45.72853299178731" lon="11.98774484450455"><ele>70.0</ele><time>2026-04-19T16:02:26.619Z</time></trkpt><trkpt lat="45.728642798456754" lon="11.98724382637193"><ele>70.0</ele><time>2026-04-19T16:02:27.619Z</time></trkpt><trkpt lat="45.72875560697015" lon="11.986729797662196"><ele>70.0</ele><time>2026-04-19T16:02:28.619Z</time></trkpt><trkpt lat="45.72884763181685" lon="11.986219221087127"><ele>70.5</ele><time>2026-04-19T16:02:29.619Z</time></trkpt><trkpt lat="45.72895826123108" lon="11.985710691494152"><ele>71.0</ele><time>2026-04-19T16:02:30.619Z</time></trkpt><trkpt lat="45.729066623175605" lon="11.98520389751199"><ele>71.0</ele><time>2026-04-19T16:02:31.619Z</time></trkpt><trkpt lat="45.729174205904364" lon="11.984699659171113"><ele>71.0</ele><time>2026-04-19T16:02:32.619Z</time></trkpt><trkpt lat="45.7292768645987" lon="11.984199557459766"><ele>71.0</ele><time>2026-04-19T16:02:33.619Z</time></trkpt><trkpt lat="45.72939022097407" lon="11.98369845581227"><ele>71.0</ele><time>2026-04-19T16:02:34.619Z</time></trkpt><trkpt lat="45.72949872608272" lon="11.983207490807377"><ele>72.0</ele><time>2026-04-19T16:02:35.619Z</time></trkpt><trkpt lat="45.72960888505629" lon="11.98272901236215"><ele>73.0</ele><time>2026-04-19T16:02:36.619Z</time></trkpt><trkpt lat="45.72971526881819" lon="11.982250135715125"><ele>73.0</ele><time>2026-04-19T16:02:37.619Z</time></trkpt><trkpt lat="45.72979633879078" lon="11.98177111523847"><ele>73.0</ele><time>2026-04-19T16:02:38.619Z</time></trkpt><trkpt lat="45.729889242000255" lon="11.981294198698475"><ele>73.0</ele><time>2026-04-19T16:02:39.619Z</time></trkpt><trkpt lat="45.72997735968641" lon="11.980821173982234"><ele>73.0</ele><time>2026-04-19T16:02:40.619Z</time></trkpt><trkpt lat="45.73005776561561" lon="11.980357736798798"><ele>73.5</ele><time>2026-04-19T16:02:41.619Z</time></trkpt><trkpt lat="45.73011851735292" lon="11.979896913107524"><ele>74.0</ele><time>2026-04-19T16:02:42.619Z</time></trkpt><trkpt lat="45.730166041088125" lon="11.979435847940826"><ele>75.5</ele><time>2026-04-19T16:02:43.619Z</time></trkpt><trkpt lat="45.7301933198565" lon="11.978972469222338"><ele>77.0</ele><time>2026-04-19T16:02:44.619Z</time></trkpt><trkpt lat="45.7302179395153" lon="11.978489116617835"><ele>77.5</ele><time>2026-04-19T16:02:45.619Z</time></trkpt><trkpt lat="45.7302309098591" lon="11.978001061606257"><ele>78.0</ele><time>2026-04-19T16:02:46.619Z</time></trkpt><trkpt lat="45.730237746520814" lon="11.977513338005306"><ele>76.0</ele><time>2026-04-19T16:02:47.619Z</time></trkpt><trkpt lat="45.73025191008105" lon="11.977039115167988"><ele>74.0</ele><time>2026-04-19T16:02:48.619Z</time></trkpt><trkpt lat="45.73026448273789" lon="11.976566361666936"><ele>74.0</ele><time>2026-04-19T16:02:49.619Z</time></trkpt><trkpt lat="45.73027487600524" lon="11.97611382674247"><ele>74.0</ele><time>2026-04-19T16:02:50.619Z</time></trkpt><trkpt lat="45.73027336180709" lon="11.975658572792025"><ele>74.0</ele><time>2026-04-19T16:02:51.619Z</time></trkpt><trkpt lat="45.73029573403013" lon="11.975211008243997"><ele>74.0</ele><time>2026-04-19T16:02:52.619Z</time></trkpt><trkpt lat="45.73030143871429" lon="11.974749896043551"><ele>74.0</ele><time>2026-04-19T16:02:53.619Z</time></trkpt><trkpt lat="45.73031329580304" lon="11.974290060092724"><ele>74.0</ele><time>2026-04-19T16:02:54.619Z</time></trkpt><trkpt lat="45.73032411219922" lon="11.973814386193759"><ele>74.0</ele><time>2026-04-19T16:02:55.619Z</time></trkpt><trkpt lat="45.73032341173458" lon="11.973358345692898"><ele>74.0</ele><time>2026-04-19T16:02:56.619Z</time></trkpt><trkpt lat="45.730326334024625" lon="11.972900232046976"><ele>74.0</ele><time>2026-04-19T16:02:57.619Z</time></trkpt><trkpt lat="45.73034172932956" lon="11.972439030578968"><ele>74.0</ele><time>2026-04-19T16:02:58.619Z</time></trkpt><trkpt lat="45.73035625342577" lon="11.971979819756674"><ele>73.5</ele><time>2026-04-19T16:02:59.619Z</time></trkpt><trkpt lat="45.7303771013708" lon="11.971516528198467"><ele>73.0</ele><time>2026-04-19T16:03:00.619Z</time></trkpt><trkpt lat="45.73038238735562" lon="11.97106403949364"><ele>73.5</ele><time>2026-04-19T16:03:01.619Z</time></trkpt><trkpt lat="45.73040924498597" lon="11.970610665638212"><ele>74.0</ele><time>2026-04-19T16:03:02.619Z</time></trkpt><trkpt lat="45.7304512314724" lon="11.97016099583289"><ele>73.5</ele><time>2026-04-19T16:03:03.619Z</time></trkpt><trkpt lat="45.730502948027436" lon="11.96970758863445"><ele>73.0</ele><time>2026-04-19T16:03:04.619Z</time></trkpt><trkpt lat="45.73055508586077" lon="11.96924442721987"><ele>72.0</ele><time>2026-04-19T16:03:05.619Z</time></trkpt><trkpt lat="45.730623151" lon="11.96878747698004"><ele>71.0</ele><time>2026-04-19T16:03:06.619Z</time></trkpt><trkpt lat="45.730666957827346" lon="11.968349663404528"><ele>71.0</ele><time>2026-04-19T16:03:07.619Z</time></trkpt><trkpt lat="45.730745776735134" lon="11.967890836402812"><ele>71.0</ele><time>2026-04-19T16:03:08.619Z</time></trkpt><trkpt lat="45.73083597334998" lon="11.967422486141038"><ele>71.0</ele><time>2026-04-19T16:03:09.619Z</time></trkpt><trkpt lat="45.73093794891533" lon="11.96694316561235"><ele>71.0</ele><time>2026-04-19T16:03:10.619Z</time></trkpt><trkpt lat="45.731043981897976" lon="11.96645134783547"><ele>70.5</ele><time>2026-04-19T16:03:11.619Z</time></trkpt><trkpt lat="45.73114643459011" lon="11.965966121883728"><ele>70.0</ele><time>2026-04-19T16:03:12.619Z</time></trkpt><trkpt lat="45.731231904542994" lon="11.965505145029212"><ele>70.0</ele><time>2026-04-19T16:03:13.619Z</time></trkpt><trkpt lat="45.731310709814615" lon="11.965067161054252"><ele>70.0</ele><time>2026-04-19T16:03:14.619Z</time></trkpt><trkpt lat="45.731401199441095" lon="11.964633200665729"><ele>70.0</ele><time>2026-04-19T16:03:15.619Z</time></trkpt><trkpt lat="45.73151630064422" lon="11.96422303765255"><ele>70.0</ele><time>2026-04-19T16:03:16.619Z</time></trkpt><trkpt lat="45.73161177190042" lon="11.963808730032516"><ele>70.5</ele><time>2026-04-19T16:03:17.619Z</time></trkpt><trkpt lat="45.73170062997351" lon="11.963378000579947"><ele>71.0</ele><time>2026-04-19T16:03:18.619Z</time></trkpt><trkpt lat="45.73179504895042" lon="11.962942371321919"><ele>71.0</ele><time>2026-04-19T16:03:19.619Z</time></trkpt><trkpt lat="45.731874187032695" lon="11.962486929201727"><ele>71.0</ele><time>2026-04-19T16:03:20.619Z</time></trkpt><trkpt lat="45.73195026702786" lon="11.96202451500539"><ele>71.5</ele><time>2026-04-19T16:03:21.619Z</time></trkpt><trkpt lat="45.732034424872836" lon="11.96156390058257"><ele>72.0</ele><time>2026-04-19T16:03:22.619Z</time></trkpt><trkpt lat="45.73211534341839" lon="11.961117668972776"><ele>72.0</ele><time>2026-04-19T16:03:23.619Z</time></trkpt><trkpt lat="45.73221266309803" lon="11.96067663553991"><ele>72.0</ele><time>2026-04-19T16:03:24.619Z</time></trkpt><trkpt lat="45.73230960738911" lon="11.960245502115656"><ele>72.5</ele><time>2026-04-19T16:03:25.619Z</time></trkpt><trkpt lat="45.73241165821197" lon="11.95980974132094"><ele>73.0</ele><time>2026-04-19T16:03:26.619Z</time></trkpt><trkpt lat="45.73251723409651" lon="11.959382968036438"><ele>73.0</ele><time>2026-04-19T16:03:27.619Z</time></trkpt><trkpt lat="45.73263215219494" lon="11.95897123685842"><ele>73.0</ele><time>2026-04-19T16:03:28.619Z</time></trkpt><trkpt lat="45.73276133332076" lon="11.958563465005847"><ele>72.0</ele><time>2026-04-19T16:03:29.619Z</time></trkpt><trkpt lat="45.73290240887382" lon="11.958164976881969"><ele>71.0</ele><time>2026-04-19T16:03:30.619Z</time></trkpt><trkpt lat="45.73305174508107" lon="11.95776779576398"><ele>71.5</ele><time>2026-04-19T16:03:31.619Z</time></trkpt><trkpt lat="45.73321068376673" lon="11.957368179730008"><ele>72.0</ele><time>2026-04-19T16:03:32.637Z</time></trkpt><trkpt lat="45.733375348075064" lon="11.956991049997008"><ele>72.5</ele><time>2026-04-19T16:03:33.635Z</time></trkpt><trkpt lat="45.73354421294336" lon="11.956617166229826"><ele>73.0</ele><time>2026-04-19T16:03:34.632Z</time></trkpt><trkpt lat="45.73372048321644" lon="11.956243644924939"><ele>73.0</ele><time>2026-04-19T16:03:35.634Z</time></trkpt><trkpt lat="45.73389668283561" lon="11.95587693128575"><ele>73.0</ele><time>2026-04-19T16:03:36.619Z</time></trkpt><trkpt lat="45.734105956759436" lon="11.955506907764653"><ele>73.0</ele><time>2026-04-19T16:03:37.619Z</time></trkpt><trkpt lat="45.73431254516323" lon="11.955140904283184"><ele>73.0</ele><time>2026-04-19T16:03:38.619Z</time></trkpt><trkpt lat="45.734515278501405" lon="11.954785162828127"><ele>73.0</ele><time>2026-04-19T16:03:39.619Z</time></trkpt><trkpt lat="45.734741839678826" lon="11.954425008376957"><ele>73.0</ele><time>2026-04-19T16:03:40.619Z</time></trkpt><trkpt lat="45.73496127873442" lon="11.95406926873183"><ele>73.0</ele><time>2026-04-19T16:03:41.619Z</time></trkpt><trkpt lat="45.735197254728405" lon="11.953707398061072"><ele>73.0</ele><time>2026-04-19T16:03:42.619Z</time></trkpt><trkpt lat="45.73543242517559" lon="11.953348468687519"><ele>74.0</ele><time>2026-04-19T16:03:43.619Z</time></trkpt><trkpt lat="45.73567967117623" lon="11.95296480871271"><ele>75.0</ele><time>2026-04-19T16:03:44.619Z</time></trkpt><trkpt lat="45.735927349477514" lon="11.95257379564269"><ele>74.5</ele><time>2026-04-19T16:03:45.619Z</time></trkpt><trkpt lat="45.736176798435714" lon="11.95219068613994"><ele>74.0</ele><time>2026-04-19T16:03:46.619Z</time></trkpt><trkpt lat="45.736423214026985" lon="11.951838063334389"><ele>74.5</ele><time>2026-04-19T16:03:47.619Z</time></trkpt><trkpt lat="45.73662359390542" lon="11.95148333084667"><ele>75.0</ele><time>2026-04-19T16:03:48.619Z</time></trkpt><trkpt lat="45.73683579034081" lon="11.951143975269208"><ele>74.5</ele><time>2026-04-19T16:03:49.632Z</time></trkpt><trkpt lat="45.73704285129227" lon="11.950814488713283"><ele>74.0</ele><time>2026-04-19T16:03:50.632Z</time></trkpt><trkpt lat="45.73724496802989" lon="11.950495494871646"><ele>74.0</ele><time>2026-04-19T16:03:51.619Z</time></trkpt><trkpt lat="45.73743918422534" lon="11.950188411278218"><ele>74.0</ele><time>2026-04-19T16:03:52.619Z</time></trkpt><trkpt lat="45.737656068483304" lon="11.949893337182337"><ele>75.0</ele><time>2026-04-19T16:03:53.619Z</time></trkpt><trkpt lat="45.73784714380824" lon="11.949553253297678"><ele>76.0</ele><time>2026-04-19T16:03:54.619Z</time></trkpt><trkpt lat="45.73803909088512" lon="11.949211677982824"><ele>76.0</ele><time>2026-04-19T16:03:55.619Z</time></trkpt><trkpt lat="45.738232949130804" lon="11.948862936598701"><ele>76.0</ele><time>2026-04-19T16:03:56.619Z</time></trkpt><trkpt lat="45.738414390023095" lon="11.948528649661679"><ele>75.0</ele><time>2026-04-19T16:03:57.619Z</time></trkpt><trkpt lat="45.73859388264484" lon="11.948166720871768"><ele>74.0</ele><time>2026-04-19T16:03:58.619Z</time></trkpt><trkpt lat="45.73877266848498" lon="11.947829636230837"><ele>74.0</ele><time>2026-04-19T16:03:59.619Z</time></trkpt><trkpt lat="45.738931989462245" lon="11.947462321419184"><ele>74.0</ele><time>2026-04-19T16:04:00.619Z</time></trkpt><trkpt lat="45.7390861074961" lon="11.947084529068292"><ele>73.5</ele><time>2026-04-19T16:04:01.619Z</time></trkpt><trkpt lat="45.73922984220841" lon="11.946693492837513"><ele>73.0</ele><time>2026-04-19T16:04:02.619Z</time></trkpt><trkpt lat="45.739386861736904" lon="11.946328031741814"><ele>74.0</ele><time>2026-04-19T16:04:03.619Z</time></trkpt><trkpt lat="45.739528527531355" lon="11.945942381254111"><ele>75.0</ele><time>2026-04-19T16:04:04.619Z</time></trkpt><trkpt lat="45.739665842734105" lon="11.945539106306777"><ele>75.0</ele><time>2026-04-19T16:04:05.619Z</time></trkpt><trkpt lat="45.739791632271604" lon="11.945124030395116"><ele>75.0</ele><time>2026-04-19T16:04:06.619Z</time></trkpt><trkpt lat="45.739911733136886" lon="11.94472151890383"><ele>75.0</ele><time>2026-04-19T16:04:07.619Z</time></trkpt><trkpt lat="45.740019185372155" lon="11.944289330304295"><ele>75.0</ele><time>2026-04-19T16:04:08.619Z</time></trkpt><trkpt lat="45.740130642357286" lon="11.943851463108318"><ele>75.0</ele><time>2026-04-19T16:04:09.619Z</time></trkpt><trkpt lat="45.74023544938752" lon="11.94341104972585"><ele>75.0</ele><time>2026-04-19T16:04:10.619Z</time></trkpt><trkpt lat="45.74035896426918" lon="11.942970716321813"><ele>75.5</ele><time>2026-04-19T16:04:11.62Z</time></trkpt><trkpt lat="45.740476275656405" lon="11.94252554039282"><ele>76.0</ele><time>2026-04-19T16:04:12.62Z</time></trkpt><trkpt lat="45.74059799085218" lon="11.942073761099346"><ele>75.5</ele><time>2026-04-19T16:04:13.62Z</time></trkpt><trkpt lat="45.74072507729678" lon="11.941616327383585"><ele>75.0</ele><time>2026-04-19T16:04:14.62Z</time></trkpt><trkpt lat="45.740856601016326" lon="11.94114296957058"><ele>75.5</ele><time>2026-04-19T16:04:15.62Z</time></trkpt><trkpt lat="45.74100562462895" lon="11.940671232866436"><ele>76.0</ele><time>2026-04-19T16:04:16.62Z</time></trkpt><trkpt lat="45.741137719675784" lon="11.940172787330203"><ele>76.0</ele><time>2026-04-19T16:04:17.62Z</time></trkpt><trkpt lat="45.741276708685675" lon="11.939670728352693"><ele>76.0</ele><time>2026-04-19T16:04:18.62Z</time></trkpt><trkpt lat="45.7414088042325" lon="11.939161043338284"><ele>75.5</ele><time>2026-04-19T16:04:19.62Z</time></trkpt><trkpt lat="45.74155531451651" lon="11.938659600852109"><ele>75.0</ele><time>2026-04-19T16:04:20.62Z</time></trkpt><trkpt lat="45.74168543541701" lon="11.938155889848957"><ele>74.0</ele><time>2026-04-19T16:04:21.62Z</time></trkpt><trkpt lat="45.74181384781291" lon="11.93765171947035"><ele>73.0</ele><time>2026-04-19T16:04:22.62Z</time></trkpt><trkpt lat="45.74194093637063" lon="11.937165774336604"><ele>73.5</ele><time>2026-04-19T16:04:23.62Z</time></trkpt><trkpt lat="45.74206463384859" lon="11.93669141590301"><ele>74.0</ele><time>2026-04-19T16:04:24.62Z</time></trkpt><trkpt lat="45.742197185407576" lon="11.936226213969219"><ele>74.5</ele><time>2026-04-19T16:04:25.62Z</time></trkpt><trkpt lat="45.7423394429788" lon="11.935750779284641"><ele>75.0</ele><time>2026-04-19T16:04:26.62Z</time></trkpt><trkpt lat="45.74247843661807" lon="11.935293050557046"><ele>75.0</ele><time>2026-04-19T16:04:27.62Z</time></trkpt><trkpt lat="45.7426095531784" lon="11.934850353746645"><ele>75.0</ele><time>2026-04-19T16:04:28.62Z</time></trkpt><trkpt lat="45.742739813071594" lon="11.934414725629573"><ele>75.0</ele><time>2026-04-19T16:04:29.62Z</time></trkpt><trkpt lat="45.74285950908139" lon="11.933980229578358"><ele>75.0</ele><time>2026-04-19T16:04:30.62Z</time></trkpt><trkpt lat="45.74297968129292" lon="11.933547663953595"><ele>75.0</ele><time>2026-04-19T16:04:31.635Z</time></trkpt><trkpt lat="45.74309808315762" lon="11.933122105539127"><ele>75.0</ele><time>2026-04-19T16:04:32.638Z</time></trkpt><trkpt lat="45.74321587245633" lon="11.932706032084946"><ele>74.0</ele><time>2026-04-19T16:04:33.62Z</time></trkpt><trkpt lat="45.743320339609035" lon="11.932313659423698"><ele>73.0</ele><time>2026-04-19T16:04:34.62Z</time></trkpt><trkpt lat="45.74341860831949" lon="11.93189673263219"><ele>74.0</ele><time>2026-04-19T16:04:35.62Z</time></trkpt><trkpt lat="45.74349476851866" lon="11.931462584431392"><ele>75.0</ele><time>2026-04-19T16:04:36.62Z</time></trkpt><trkpt lat="45.74358933495657" lon="11.93102807488508"><ele>74.5</ele><time>2026-04-19T16:04:37.62Z</time></trkpt><trkpt lat="45.743657979600854" lon="11.930587869796508"><ele>74.0</ele><time>2026-04-19T16:04:38.62Z</time></trkpt><trkpt lat="45.743734086107715" lon="11.930139004454308"><ele>74.0</ele><time>2026-04-19T16:04:39.62Z</time></trkpt><trkpt lat="45.74380661831101" lon="11.929676135953885"><ele>74.0</ele><time>2026-04-19T16:04:40.62Z</time></trkpt><trkpt lat="45.74387210722429" lon="11.929201809367866"><ele>74.5</ele><time>2026-04-19T16:04:41.62Z</time></trkpt><trkpt lat="45.743943152767535" lon="11.928722859908634"><ele>75.0</ele><time>2026-04-19T16:04:42.62Z</time></trkpt><trkpt lat="45.74401738171117" lon="11.928226587077122"><ele>75.5</ele><time>2026-04-19T16:04:43.62Z</time></trkpt><trkpt lat="45.744094345171256" lon="11.927726101897477"><ele>76.0</ele><time>2026-04-19T16:04:44.62Z</time></trkpt><trkpt lat="45.74417225569336" lon="11.927216455236263"><ele>74.5</ele><time>2026-04-19T16:04:45.62Z</time></trkpt><trkpt lat="45.744248388154425" lon="11.926713459159405"><ele>73.0</ele><time>2026-04-19T16:04:46.62Z</time></trkpt><trkpt lat="45.74432566168637" lon="11.926213702090202"><ele>73.0</ele><time>2026-04-19T16:04:47.62Z</time></trkpt><trkpt lat="45.744405869560296" lon="11.925716923591423"><ele>73.0</ele><time>2026-04-19T16:04:48.62Z</time></trkpt><trkpt lat="45.744476843442555" lon="11.925232773108654"><ele>73.5</ele><time>2026-04-19T16:04:49.62Z</time></trkpt><trkpt lat="45.74454543733373" lon="11.924742664946507"><ele>74.0</ele><time>2026-04-19T16:04:50.62Z</time></trkpt><trkpt lat="45.74461770795227" lon="11.92426382820604"><ele>74.0</ele><time>2026-04-19T16:04:51.62Z</time></trkpt><trkpt lat="45.744679722761454" lon="11.92379280804529"><ele>74.0</ele><time>2026-04-19T16:04:52.62Z</time></trkpt><trkpt lat="45.74475024092212" lon="11.923322246425915"><ele>73.5</ele><time>2026-04-19T16:04:53.62Z</time></trkpt><trkpt lat="45.74482050013972" lon="11.922870400836562"><ele>73.0</ele><time>2026-04-19T16:04:54.62Z</time></trkpt><trkpt lat="45.744889478481554" lon="11.922428513672106"><ele>73.0</ele><time>2026-04-19T16:04:55.62Z</time></trkpt><trkpt lat="45.744961305146305" lon="11.921987372774552"><ele>73.0</ele><time>2026-04-19T16:04:56.62Z</time></trkpt><trkpt lat="45.74501663306562" lon="11.921555286512122"><ele>73.0</ele><time>2026-04-19T16:04:57.62Z</time></trkpt><trkpt lat="45.745084872502126" lon="11.921128201057005"><ele>73.0</ele><time>2026-04-19T16:04:58.62Z</time></trkpt><trkpt lat="45.74521159009203" lon="11.920730235761043"><ele>72.5</ele><time>2026-04-19T16:04:59.62Z</time></trkpt><trkpt lat="45.745315611438876" lon="11.920323830676951"><ele>72.0</ele><time>2026-04-19T16:05:00.62Z</time></trkpt><trkpt lat="45.745409630492574" lon="11.919905447929402"><ele>73.0</ele><time>2026-04-19T16:05:01.62Z</time></trkpt><trkpt lat="45.74551396034858" lon="11.919473687682101"><ele>74.0</ele><time>2026-04-19T16:05:02.62Z</time></trkpt><trkpt lat="45.74564978871942" lon="11.919037334812728"><ele>74.0</ele><time>2026-04-19T16:05:03.62Z</time></trkpt><trkpt lat="45.74578823730103" lon="11.918604384274952"><ele>74.0</ele><time>2026-04-19T16:05:04.62Z</time></trkpt><trkpt lat="45.745936695590906" lon="11.918158078789824"><ele>73.5</ele><time>2026-04-19T16:05:05.62Z</time></trkpt><trkpt lat="45.74610301359452" lon="11.91772809339745"><ele>73.0</ele><time>2026-04-19T16:05:06.62Z</time></trkpt><trkpt lat="45.74627722072859" lon="11.917318850360815"><ele>72.5</ele><time>2026-04-19T16:05:07.62Z</time></trkpt><trkpt lat="45.746456036307585" lon="11.916868483756756"><ele>72.0</ele><time>2026-04-19T16:05:08.62Z</time></trkpt><trkpt lat="45.74664171235259" lon="11.916418527469732"><ele>71.5</ele><time>2026-04-19T16:05:09.62Z</time></trkpt><trkpt lat="45.746837913295586" lon="11.915985863342845"><ele>71.0</ele><time>2026-04-19T16:05:10.62Z</time></trkpt><trkpt lat="45.7470155928178" lon="11.915547385063071"><ele>71.0</ele><time>2026-04-19T16:05:11.62Z</time></trkpt><trkpt lat="45.74718629439127" lon="11.915117663185377"><ele>71.0</ele><time>2026-04-19T16:05:12.62Z</time></trkpt><trkpt lat="45.74736316050218" lon="11.914703311233554"><ele>71.5</ele><time>2026-04-19T16:05:13.62Z</time></trkpt><trkpt lat="45.74754040201418" lon="11.914314113428212"><ele>72.0</ele><time>2026-04-19T16:05:14.62Z</time></trkpt><trkpt lat="45.74768975201351" lon="11.913921390048255"><ele>72.0</ele><time>2026-04-19T16:05:15.62Z</time></trkpt><trkpt lat="45.74783463731817" lon="11.913537282904054"><ele>72.0</ele><time>2026-04-19T16:05:16.62Z</time></trkpt><trkpt lat="45.747972625604156" lon="11.913170964023356"><ele>72.0</ele><time>2026-04-19T16:05:17.636Z</time></trkpt><trkpt lat="45.74810935429593" lon="11.912809428350032"><ele>72.0</ele><time>2026-04-19T16:05:18.638Z</time></trkpt><trkpt lat="45.74824496488099" lon="11.912448294760244"><ele>71.5</ele><time>2026-04-19T16:05:19.633Z</time></trkpt><trkpt lat="45.74837884363192" lon="11.912079647322598"><ele>71.0</ele><time>2026-04-19T16:05:20.639Z</time></trkpt><trkpt lat="45.74851620498351" lon="11.911719457841583"><ele>72.0</ele><time>2026-04-19T16:05:21.635Z</time></trkpt><trkpt lat="45.74977192566334" lon="11.90776515753186"><ele>72.0</ele><time>2026-04-19T16:05:31.62Z</time></trkpt><trkpt lat="45.749899849550424" lon="11.907346005885557"><ele>72.0</ele><time>2026-04-19T16:05:32.62Z</time></trkpt><trkpt lat="45.75007431390688" lon="11.906741986615636"><ele>71.5</ele><time>2026-04-19T16:05:33.62Z</time></trkpt><trkpt lat="45.75019983483004" lon="11.906250900844991"><ele>71.0</ele><time>2026-04-19T16:05:34.62Z</time></trkpt><trkpt lat="45.75031101597982" lon="11.90577086424284"><ele>71.0</ele><time>2026-04-19T16:05:35.62Z</time></trkpt><trkpt lat="45.75038697429865" lon="11.905300255195188"><ele>71.0</ele><time>2026-04-19T16:05:36.62Z</time></trkpt><trkpt lat="45.75050467430318" lon="11.904851237550757"><ele>71.5</ele><time>2026-04-19T16:05:37.62Z</time></trkpt><trkpt lat="45.75060929122514" lon="11.90442560982995"><ele>72.0</ele><time>2026-04-19T16:05:38.62Z</time></trkpt><trkpt lat="45.75070718971921" lon="11.904015387917768"><ele>72.0</ele><time>2026-04-19T16:05:39.62Z</time></trkpt><trkpt lat="45.75081459754534" lon="11.903596662820355"><ele>72.0</ele><time>2026-04-19T16:05:40.62Z</time></trkpt><trkpt lat="45.75091262915366" lon="11.903181808625119"><ele>71.5</ele><time>2026-04-19T16:05:41.62Z</time></trkpt><trkpt lat="45.751008667232064" lon="11.902797964624284"><ele>71.0</ele><time>2026-04-19T16:05:42.62Z</time></trkpt><trkpt lat="45.751099706945226" lon="11.902443384879643"><ele>71.0</ele><time>2026-04-19T16:05:43.62Z</time></trkpt><trkpt lat="45.751182705319785" lon="11.902095863641252"><ele>71.0</ele><time>2026-04-19T16:05:44.62Z</time></trkpt><trkpt lat="45.751269862678534" lon="11.90176407360614"><ele>71.5</ele><time>2026-04-19T16:05:45.62Z</time></trkpt><trkpt lat="45.75135547865856" lon="11.901425212963316"><ele>72.0</ele><time>2026-04-19T16:05:46.62Z</time></trkpt><trkpt lat="45.75144537718863" lon="11.901104322034156"><ele>71.5</ele><time>2026-04-19T16:05:47.62Z</time></trkpt><trkpt lat="45.751525294688676" lon="11.900795169002107"><ele>71.0</ele><time>2026-04-19T16:05:48.62Z</time></trkpt><trkpt lat="45.75161974537189" lon="11.900506002065104"><ele>71.0</ele><time>2026-04-19T16:05:49.62Z</time></trkpt><trkpt lat="45.75170090736675" lon="11.90019301447539"><ele>71.0</ele><time>2026-04-19T16:05:50.62Z</time></trkpt><trkpt lat="45.75179899281726" lon="11.89989811986798"><ele>71.33333333333334</ele><time>2026-04-19T16:05:51.62Z</time></trkpt><trkpt lat="45.75187756363369" lon="11.899605261996735"><ele>71.66666666666667</ele><time>2026-04-19T16:05:52.62Z</time></trkpt><trkpt lat="45.751954268461205" lon="11.899333062006441"><ele>72.0</ele><time>2026-04-19T16:05:53.62Z</time></trkpt><trkpt lat="45.75204366582844" lon="11.899073495328684"><ele>72.33333333333333</ele><time>2026-04-19T16:05:54.62Z</time></trkpt><trkpt lat="45.75211749263924" lon="11.89881876684402"><ele>72.66666666666666</ele><time>2026-04-19T16:05:55.62Z</time></trkpt><trkpt lat="45.752196248183814" lon="11.898581169877355"><ele>73.0</ele><time>2026-04-19T16:05:56.62Z</time></trkpt><trkpt lat="45.75226586407883" lon="11.898366637117471"><ele>72.5</ele><time>2026-04-19T16:05:57.62Z</time></trkpt><trkpt lat="45.75233394262822" lon="11.89816765489513"><ele>72.0</ele><time>2026-04-19T16:05:58.62Z</time></trkpt><trkpt lat="45.75239205063579" lon="11.89797178769421"><ele>71.5</ele><time>2026-04-19T16:05:59.62Z</time></trkpt><trkpt lat="45.75245893775626" lon="11.897789237587247"><ele>71.0</ele><time>2026-04-19T16:06:00.62Z</time></trkpt><trkpt lat="45.752509116716546" lon="11.897624817742617"><ele>71.0</ele><time>2026-04-19T16:06:01.62Z</time></trkpt><trkpt lat="45.752558746086024" lon="11.897486628207337"><ele>71.0</ele><time>2026-04-19T16:06:02.62Z</time></trkpt><trkpt lat="45.75260087628869" lon="11.897385909575913"><ele>71.0</ele><time>2026-04-19T16:06:03.62Z</time></trkpt><trkpt lat="45.752640154256845" lon="11.897303261876461"><ele>71.0</ele><time>2026-04-19T16:06:04.62Z</time></trkpt><trkpt lat="45.752688292221606" lon="11.897167523138565"><ele>71.0</ele><time>2026-04-19T16:06:06.62Z</time></trkpt><trkpt lat="45.752725602763014" lon="11.89707793584479"><ele>71.0</ele><time>2026-04-19T16:06:08.62Z</time></trkpt><trkpt lat="45.75268321615364" lon="11.896901421639479"><ele>71.16666666666667</ele><time>2026-04-19T16:06:11.62Z</time></trkpt><trkpt lat="45.75272264173563" lon="11.896755843870041"><ele>71.33333333333334</ele><time>2026-04-19T16:06:22.621Z</time></trkpt><trkpt lat="45.75275155299008" lon="11.89664249724946"><ele>71.5</ele><time>2026-04-19T16:06:23.621Z</time></trkpt><trkpt lat="45.75277400535566" lon="11.896539988123324"><ele>71.66666666666667</ele><time>2026-04-19T16:06:24.621Z</time></trkpt><trkpt lat="45.75278685688703" lon="11.89642836229089"><ele>71.83333333333333</ele><time>2026-04-19T16:06:25.621Z</time></trkpt><trkpt lat="45.75280725293537" lon="11.896301558139053"><ele>72.0</ele><time>2026-04-19T16:06:26.621Z</time></trkpt><trkpt lat="45.752836337895225" lon="11.896177370125592"><ele>72.0</ele><time>2026-04-19T16:06:27.621Z</time></trkpt><trkpt lat="45.75287596658152" lon="11.896075286325932"><ele>72.0</ele><time>2026-04-19T16:06:28.621Z</time></trkpt><trkpt lat="45.752888573078856" lon="11.895970850593399"><ele>72.0</ele><time>2026-04-19T16:06:29.621Z</time></trkpt><trkpt lat="45.75293821569625" lon="11.895844588436102"><ele>72.0</ele><time>2026-04-19T16:06:31.622Z</time></trkpt><trkpt lat="45.7529448470212" lon="11.895753313925448"><ele>72.0</ele><time>2026-04-19T16:06:33.621Z</time></trkpt><trkpt lat="45.752969141620014" lon="11.895665886288555"><ele>72.0</ele><time>2026-04-19T16:06:36.622Z</time></trkpt><trkpt lat="45.75306191789881" lon="11.89572720397589"><ele>72.0</ele><time>2026-04-19T16:06:37.622Z</time></trkpt><trkpt lat="45.752959261435336" lon="11.89570225682521"><ele>72.0</ele><time>2026-04-19T16:06:43.622Z</time></trkpt><trkpt lat="45.75305409991071" lon="11.895737694001168"><ele>72.0</ele><time>2026-04-19T16:07:07.621Z</time></trkpt><trkpt lat="45.7530194107367" lon="11.8958339374542"><ele>72.0</ele><time>2026-04-19T16:07:34.621Z</time></trkpt><trkpt lat="45.75302336379362" lon="11.895929670939276"><ele>72.0</ele><time>2026-04-19T16:07:50.622Z</time></trkpt><trkpt lat="45.753030713765824" lon="11.896034753315393"><ele>72.0</ele><time>2026-04-19T16:07:58.621Z</time></trkpt><trkpt lat="45.752969552242355" lon="11.896010459120554"><ele>72.0</ele><time>2026-04-19T16:08:13.622Z</time></trkpt><trkpt lat="45.75289852260615" lon="11.896047320486474"><ele>72.0</ele><time>2026-04-19T16:08:25.623Z</time></trkpt><trkpt lat="45.752899064908156" lon="11.896196631381407"><ele>72.0</ele><time>2026-04-19T16:08:46.623Z</time></trkpt><trkpt lat="45.752902482678884" lon="11.89601171762859"><ele>72.0</ele><time>2026-04-19T16:09:16.623Z</time></trkpt><trkpt lat="45.752960708360554" lon="11.895971831182678"><ele>72.0</ele><time>2026-04-19T16:13:53.625Z</time></trkpt><trkpt lat="45.7530294795338" lon="11.895996457131155"><ele>72.0</ele><time>2026-04-19T16:15:15.626Z</time></trkpt><trkpt lat="45.75297963391021" lon="11.89589315144151"><ele>72.0</ele><time>2026-04-19T16:15:37.626Z</time></trkpt><trkpt lat="45.75297208857946" lon="11.895738936747499"><ele>72.0</ele><time>2026-04-19T16:15:39.626Z</time></trkpt><trkpt lat="45.75291891144622" lon="11.895626997698015"><ele>72.0</ele><time>2026-04-19T16:15:40.626Z</time></trkpt><trkpt lat="45.75291385910009" lon="11.89545135521694"><ele>72.0</ele><time>2026-04-19T16:15:41.626Z</time></trkpt><trkpt lat="45.752931986663874" lon="11.895269419268642"><ele>72.0</ele><time>2026-04-19T16:15:42.626Z</time></trkpt><trkpt lat="45.75295858681508" lon="11.895135751567523"><ele>72.0</ele><time>2026-04-19T16:15:43.626Z</time></trkpt><trkpt lat="45.75299905735235" lon="11.89503023213858"><ele>72.0</ele><time>2026-04-19T16:15:44.626Z</time></trkpt><trkpt lat="45.75304936814401" lon="11.894916857547644"><ele>72.0</ele><time>2026-04-19T16:15:45.626Z</time></trkpt><trkpt lat="45.753119384930685" lon="11.894756786610424"><ele>72.0</ele><time>2026-04-19T16:15:46.626Z</time></trkpt><trkpt lat="45.75319543441366" lon="11.894497142133888"><ele>72.0</ele><time>2026-04-19T16:15:47.626Z</time></trkpt><trkpt lat="45.75324742405285" lon="11.894204003962532"><ele>72.0</ele><time>2026-04-19T16:15:48.626Z</time></trkpt><trkpt lat="45.75328759968971" lon="11.893898445906363"><ele>72.0</ele><time>2026-04-19T16:15:49.626Z</time></trkpt><trkpt lat="45.75335082764462" lon="11.893628697157911"><ele>72.5</ele><time>2026-04-19T16:15:50.626Z</time></trkpt><trkpt lat="45.753442555561925" lon="11.893314002728495"><ele>73.0</ele><time>2026-04-19T16:15:51.626Z</time></trkpt><trkpt lat="45.75352354927633" lon="11.892949869238347"><ele>73.5</ele><time>2026-04-19T16:15:52.626Z</time></trkpt><trkpt lat="45.753620342419566" lon="11.892556601241616"><ele>74.0</ele><time>2026-04-19T16:15:53.626Z</time></trkpt><trkpt lat="45.75369509905914" lon="11.892184943933119"><ele>74.0</ele><time>2026-04-19T16:15:54.626Z</time></trkpt><trkpt lat="45.75376695757699" lon="11.891818783779161"><ele>74.0</ele><time>2026-04-19T16:15:55.626Z</time></trkpt><trkpt lat="45.753852263365005" lon="11.891431250346674"><ele>74.0</ele><time>2026-04-19T16:15:56.626Z</time></trkpt><trkpt lat="45.75393820440154" lon="11.891013731149185"><ele>74.0</ele><time>2026-04-19T16:15:57.626Z</time></trkpt><trkpt lat="45.75403065920933" lon="11.890585000834413"><ele>73.5</ele><time>2026-04-19T16:15:58.626Z</time></trkpt><trkpt lat="45.75412785698722" lon="11.890141721827108"><ele>73.0</ele><time>2026-04-19T16:15:59.626Z</time></trkpt><trkpt lat="45.75420544924645" lon="11.889722391669737"><ele>73.0</ele><time>2026-04-19T16:16:00.626Z</time></trkpt><trkpt lat="45.754286798245964" lon="11.88931457822672"><ele>73.0</ele><time>2026-04-19T16:16:01.626Z</time></trkpt><trkpt lat="45.75435598266965" lon="11.888905028160973"><ele>73.0</ele><time>2026-04-19T16:16:02.626Z</time></trkpt><trkpt lat="45.75441933264754" lon="11.888512165194632"><ele>73.0</ele><time>2026-04-19T16:16:03.626Z</time></trkpt><trkpt lat="45.75448031138629" lon="11.888113816754933"><ele>73.0</ele><time>2026-04-19T16:16:04.626Z</time></trkpt><trkpt lat="45.75453561750343" lon="11.887694865594614"><ele>73.0</ele><time>2026-04-19T16:16:05.626Z</time></trkpt><trkpt lat="45.754584161226354" lon="11.887271335454379"><ele>74.0</ele><time>2026-04-19T16:16:06.626Z</time></trkpt><trkpt lat="45.75464263545824" lon="11.886853421594454"><ele>75.0</ele><time>2026-04-19T16:16:07.626Z</time></trkpt><trkpt lat="45.754689705006825" lon="11.886470898058397"><ele>75.5</ele><time>2026-04-19T16:16:08.626Z</time></trkpt><trkpt lat="45.75474237494713" lon="11.886068651298688"><ele>76.0</ele><time>2026-04-19T16:16:09.626Z</time></trkpt><trkpt lat="45.75477471341528" lon="11.88566843691889"><ele>75.0</ele><time>2026-04-19T16:16:10.626Z</time></trkpt><trkpt lat="45.75480169972312" lon="11.885283758739613"><ele>74.0</ele><time>2026-04-19T16:16:11.626Z</time></trkpt><trkpt lat="45.75482895573617" lon="11.88492910651071"><ele>72.5</ele><time>2026-04-19T16:16:12.626Z</time></trkpt><trkpt lat="45.75485286992941" lon="11.884570057580772"><ele>71.0</ele><time>2026-04-19T16:16:13.626Z</time></trkpt><trkpt lat="45.754871755837726" lon="11.884204115566645"><ele>71.0</ele><time>2026-04-19T16:16:14.626Z</time></trkpt><trkpt lat="45.75488800240839" lon="11.883821787147896"><ele>71.0</ele><time>2026-04-19T16:16:15.626Z</time></trkpt><trkpt lat="45.75490629237905" lon="11.88342387494274"><ele>71.0</ele><time>2026-04-19T16:16:16.626Z</time></trkpt><trkpt lat="45.754932506968075" lon="11.883000181791378"><ele>71.0</ele><time>2026-04-19T16:16:17.626Z</time></trkpt><trkpt lat="45.754940392620334" lon="11.882578746587326"><ele>72.0</ele><time>2026-04-19T16:16:18.626Z</time></trkpt><trkpt lat="45.75494375351414" lon="11.882132162232672"><ele>73.0</ele><time>2026-04-19T16:16:19.626Z</time></trkpt><trkpt lat="45.7549470010647" lon="11.881667007920784"><ele>73.5</ele><time>2026-04-19T16:16:20.626Z</time></trkpt><trkpt lat="45.75494327068105" lon="11.881199690591696"><ele>74.0</ele><time>2026-04-19T16:16:21.626Z</time></trkpt><trkpt lat="45.75494066175322" lon="11.880718279582016"><ele>74.0</ele><time>2026-04-19T16:16:22.626Z</time></trkpt><trkpt lat="45.75492980951954" lon="11.880242649181744"><ele>74.0</ele><time>2026-04-19T16:16:23.626Z</time></trkpt><trkpt lat="45.754915252412076" lon="11.879763650466673"><ele>74.0</ele><time>2026-04-19T16:16:24.626Z</time></trkpt><trkpt lat="45.754892951642944" lon="11.879290399000332"><ele>74.0</ele><time>2026-04-19T16:16:25.626Z</time></trkpt><trkpt lat="45.75486395225309" lon="11.878811329457996"><ele>74.0</ele><time>2026-04-19T16:16:26.626Z</time></trkpt><trkpt lat="45.75482706796443" lon="11.878336408962367"><ele>74.0</ele><time>2026-04-19T16:16:27.626Z</time></trkpt><trkpt lat="45.75478907301006" lon="11.877859273561485"><ele>73.5</ele><time>2026-04-19T16:16:28.626Z</time></trkpt><trkpt lat="45.75474459255503" lon="11.87738098915161"><ele>73.0</ele><time>2026-04-19T16:16:29.626Z</time></trkpt><trkpt lat="45.75470154420951" lon="11.876898902472098"><ele>73.5</ele><time>2026-04-19T16:16:30.626Z</time></trkpt><trkpt lat="45.754648795144085" lon="11.87641743967688"><ele>74.0</ele><time>2026-04-19T16:16:31.626Z</time></trkpt><trkpt lat="45.75459190040182" lon="11.875937045766474"><ele>74.0</ele><time>2026-04-19T16:16:32.626Z</time></trkpt><trkpt lat="45.75452568311545" lon="11.875466094652548"><ele>74.0</ele><time>2026-04-19T16:16:33.626Z</time></trkpt><trkpt lat="45.7544588213228" lon="11.874999176487483"><ele>74.0</ele><time>2026-04-19T16:16:34.626Z</time></trkpt><trkpt lat="45.754390293063615" lon="11.874533669226137"><ele>74.0</ele><time>2026-04-19T16:16:35.626Z</time></trkpt><trkpt lat="45.754318205171444" lon="11.874073503746576"><ele>73.5</ele><time>2026-04-19T16:16:36.626Z</time></trkpt><trkpt lat="45.75423682501859" lon="11.873619598474166"><ele>73.0</ele><time>2026-04-19T16:16:37.626Z</time></trkpt><trkpt lat="45.75414894243567" lon="11.873166973374342"><ele>73.0</ele><time>2026-04-19T16:16:38.626Z</time></trkpt><trkpt lat="45.75405888127976" lon="11.87271891075587"><ele>73.0</ele><time>2026-04-19T16:16:39.626Z</time></trkpt><trkpt lat="45.753968644854126" lon="11.872274465996432"><ele>73.0</ele><time>2026-04-19T16:16:40.626Z</time></trkpt><trkpt lat="45.75387403385118" lon="11.871831895487192"><ele>73.0</ele><time>2026-04-19T16:16:41.626Z</time></trkpt><trkpt lat="45.75377793272323" lon="11.87139685543722"><ele>73.0</ele><time>2026-04-19T16:16:42.626Z</time></trkpt><trkpt lat="45.75367912244931" lon="11.870967540656997"><ele>73.0</ele><time>2026-04-19T16:16:43.626Z</time></trkpt><trkpt lat="45.753572428147784" lon="11.8705441593153"><ele>73.0</ele><time>2026-04-19T16:16:44.626Z</time></trkpt><trkpt lat="45.75346079603397" lon="11.870128394883304"><ele>73.0</ele><time>2026-04-19T16:16:45.626Z</time></trkpt><trkpt lat="45.75334575220408" lon="11.869715498754395"><ele>73.0</ele><time>2026-04-19T16:16:46.626Z</time></trkpt><trkpt lat="45.753228206087435" lon="11.869303966478283"><ele>73.0</ele><time>2026-04-19T16:16:47.627Z</time></trkpt><trkpt lat="45.753106355159595" lon="11.86889518915296"><ele>73.5</ele><time>2026-04-19T16:16:48.627Z</time></trkpt><trkpt lat="45.752988509075806" lon="11.868490390070146"><ele>74.0</ele><time>2026-04-19T16:16:49.627Z</time></trkpt><trkpt lat="45.75286677885192" lon="11.86808739581577"><ele>74.0</ele><time>2026-04-19T16:16:50.627Z</time></trkpt><trkpt lat="45.75273517883169" lon="11.867685272491823"><ele>74.0</ele><time>2026-04-19T16:16:51.627Z</time></trkpt><trkpt lat="45.752602895292846" lon="11.867288041532023"><ele>73.5</ele><time>2026-04-19T16:16:52.627Z</time></trkpt><trkpt lat="45.75246311550167" lon="11.86689566170861"><ele>73.0</ele><time>2026-04-19T16:16:53.627Z</time></trkpt><trkpt lat="45.75231658905612" lon="11.866503244301141"><ele>73.0</ele><time>2026-04-19T16:16:54.627Z</time></trkpt><trkpt lat="45.752165096007" lon="11.866118885318086"><ele>73.0</ele><time>2026-04-19T16:16:55.627Z</time></trkpt><trkpt lat="45.75200945131193" lon="11.865733133270568"><ele>73.5</ele><time>2026-04-19T16:16:56.627Z</time></trkpt><trkpt lat="45.7518507312627" lon="11.865342506097866"><ele>74.0</ele><time>2026-04-19T16:16:57.627Z</time></trkpt><trkpt lat="45.7517097600066" lon="11.86493770568698"><ele>74.5</ele><time>2026-04-19T16:16:58.627Z</time></trkpt><trkpt lat="45.751558491907424" lon="11.864533148727249"><ele>75.0</ele><time>2026-04-19T16:16:59.627Z</time></trkpt><trkpt lat="45.75141223952695" lon="11.864126822050993"><ele>75.0</ele><time>2026-04-19T16:17:00.627Z</time></trkpt><trkpt lat="45.75118898384949" lon="11.863763564148389"><ele>75.0</ele><time>2026-04-19T16:17:01.627Z</time></trkpt><trkpt lat="45.75102105961501" lon="11.863346370178432"><ele>74.0</ele><time>2026-04-19T16:17:02.627Z</time></trkpt><trkpt lat="45.750852653255336" lon="11.86293751672942"><ele>73.0</ele><time>2026-04-19T16:17:03.627Z</time></trkpt><trkpt lat="45.75067866961742" lon="11.862531974267885"><ele>73.0</ele><time>2026-04-19T16:17:04.627Z</time></trkpt><trkpt lat="45.750502385459754" lon="11.862125489328095"><ele>73.0</ele><time>2026-04-19T16:17:05.627Z</time></trkpt><trkpt lat="45.750323772337005" lon="11.86171478967773"><ele>73.5</ele><time>2026-04-19T16:17:06.627Z</time></trkpt><trkpt lat="45.75014398406738" lon="11.861302091186687"><ele>74.0</ele><time>2026-04-19T16:17:07.627Z</time></trkpt><trkpt lat="45.74995974850025" lon="11.86088632352804"><ele>74.5</ele><time>2026-04-19T16:17:08.627Z</time></trkpt><trkpt lat="45.749783152179155" lon="11.860468838631645"><ele>75.0</ele><time>2026-04-19T16:17:09.627Z</time></trkpt><trkpt lat="45.749602118687996" lon="11.86004738253518"><ele>75.0</ele><time>2026-04-19T16:17:10.627Z</time></trkpt><trkpt lat="45.749427253121034" lon="11.859625940296358"><ele>75.0</ele><time>2026-04-19T16:17:11.627Z</time></trkpt><trkpt lat="45.74925150722738" lon="11.859202313960166"><ele>74.5</ele><time>2026-04-19T16:17:12.627Z</time></trkpt><trkpt lat="45.74907002490894" lon="11.858787473529977"><ele>74.0</ele><time>2026-04-19T16:17:13.627Z</time></trkpt><trkpt lat="45.748891240439896" lon="11.858374594941683"><ele>74.0</ele><time>2026-04-19T16:17:14.627Z</time></trkpt><trkpt lat="45.748711035619465" lon="11.857964834037467"><ele>74.0</ele><time>2026-04-19T16:17:15.643Z</time></trkpt><trkpt lat="45.748537144088736" lon="11.85757277421525"><ele>75.0</ele><time>2026-04-19T16:17:16.645Z</time></trkpt><trkpt lat="45.74836888615859" lon="11.857191687475886"><ele>76.0</ele><time>2026-04-19T16:17:17.642Z</time></trkpt><trkpt lat="45.748202502621545" lon="11.856814332144406"><ele>76.0</ele><time>2026-04-19T16:17:18.642Z</time></trkpt><trkpt lat="45.748083768455075" lon="11.856355844076589"><ele>76.0</ele><time>2026-04-19T16:17:19.627Z</time></trkpt><trkpt lat="45.74792647528329" lon="11.855964860613119"><ele>76.0</ele><time>2026-04-19T16:17:20.627Z</time></trkpt><trkpt lat="45.74780717180884" lon="11.855619575784184"><ele>76.0</ele><time>2026-04-19T16:17:21.627Z</time></trkpt><trkpt lat="45.74765481796374" lon="11.855182001056123"><ele>76.5</ele><time>2026-04-19T16:17:22.627Z</time></trkpt><trkpt lat="45.747516602197294" lon="11.85475876457985"><ele>77.0</ele><time>2026-04-19T16:17:23.627Z</time></trkpt><trkpt lat="45.747383716973985" lon="11.854319727469603"><ele>76.0</ele><time>2026-04-19T16:17:24.627Z</time></trkpt><trkpt lat="45.74726876652752" lon="11.85391924493534"><ele>75.0</ele><time>2026-04-19T16:17:25.627Z</time></trkpt><trkpt lat="45.74715520843574" lon="11.85351100108817"><ele>76.5</ele><time>2026-04-19T16:17:26.627Z</time></trkpt><trkpt lat="45.74705025482949" lon="11.853097611662443"><ele>78.0</ele><time>2026-04-19T16:17:27.627Z</time></trkpt><trkpt lat="45.74695378264404" lon="11.852675193390493"><ele>77.5</ele><time>2026-04-19T16:17:28.627Z</time></trkpt><trkpt lat="45.74686640308532" lon="11.852240231284856"><ele>77.0</ele><time>2026-04-19T16:17:29.627Z</time></trkpt><trkpt lat="45.74678051301501" lon="11.851791111969451"><ele>77.0</ele><time>2026-04-19T16:17:30.627Z</time></trkpt><trkpt lat="45.74670164310129" lon="11.851334300019577"><ele>77.0</ele><time>2026-04-19T16:17:31.627Z</time></trkpt><trkpt lat="45.74663095968634" lon="11.850870339230154"><ele>77.0</ele><time>2026-04-19T16:17:32.627Z</time></trkpt><trkpt lat="45.746566847670586" lon="11.850405795253106"><ele>77.0</ele><time>2026-04-19T16:17:33.627Z</time></trkpt><trkpt lat="45.74651611806086" lon="11.849938979840307"><ele>77.5</ele><time>2026-04-19T16:17:34.627Z</time></trkpt><trkpt lat="45.74647051016381" lon="11.849472098545583"><ele>78.0</ele><time>2026-04-19T16:17:35.627Z</time></trkpt><trkpt lat="45.74643148954551" lon="11.849008699135446"><ele>78.5</ele><time>2026-04-19T16:17:36.627Z</time></trkpt><trkpt lat="45.74639677054076" lon="11.848539140833877"><ele>79.0</ele><time>2026-04-19T16:17:37.627Z</time></trkpt><trkpt lat="45.74637595821631" lon="11.848069884622953"><ele>79.0</ele><time>2026-04-19T16:17:38.627Z</time></trkpt><trkpt lat="45.746359612542726" lon="11.847588462312427"><ele>79.0</ele><time>2026-04-19T16:17:39.627Z</time></trkpt><trkpt lat="45.74634698554838" lon="11.847099581737126"><ele>79.0</ele><time>2026-04-19T16:17:40.627Z</time></trkpt><trkpt lat="45.74634713964192" lon="11.846602823657907"><ele>79.0</ele><time>2026-04-19T16:17:41.627Z</time></trkpt><trkpt lat="45.74635596537288" lon="11.846101930039532"><ele>79.0</ele><time>2026-04-19T16:17:42.627Z</time></trkpt><trkpt lat="45.74637658120801" lon="11.845596866536354"><ele>79.0</ele><time>2026-04-19T16:17:43.627Z</time></trkpt><trkpt lat="45.74640782724673" lon="11.845072047175258"><ele>79.0</ele><time>2026-04-19T16:17:44.627Z</time></trkpt><trkpt lat="45.7464477426847" lon="11.844531037803279"><ele>79.0</ele><time>2026-04-19T16:17:45.627Z</time></trkpt><trkpt lat="45.74648418764211" lon="11.843981350996103"><ele>80.0</ele><time>2026-04-19T16:17:46.627Z</time></trkpt><trkpt lat="45.74654232362006" lon="11.843437417531732"><ele>81.0</ele><time>2026-04-19T16:17:47.627Z</time></trkpt><trkpt lat="45.746585752311816" lon="11.842900615559971"><ele>81.5</ele><time>2026-04-19T16:17:48.627Z</time></trkpt><trkpt lat="45.74662108250827" lon="11.842382335929537"><ele>82.0</ele><time>2026-04-19T16:17:49.627Z</time></trkpt><trkpt lat="45.74666255954862" lon="11.84186586703906"><ele>81.0</ele><time>2026-04-19T16:17:50.627Z</time></trkpt><trkpt lat="45.74670724513313" lon="11.841343191465683"><ele>80.0</ele><time>2026-04-19T16:17:51.627Z</time></trkpt><trkpt lat="45.746739067615806" lon="11.84082968538708"><ele>80.0</ele><time>2026-04-19T16:17:52.627Z</time></trkpt><trkpt lat="45.74676852705486" lon="11.840327104116582"><ele>80.0</ele><time>2026-04-19T16:17:53.627Z</time></trkpt><trkpt lat="45.74679571769966" lon="11.83983647729085"><ele>80.5</ele><time>2026-04-19T16:17:54.627Z</time></trkpt><trkpt lat="45.74682614167087" lon="11.839354329840061"><ele>81.0</ele><time>2026-04-19T16:17:55.627Z</time></trkpt><trkpt lat="45.7468494360233" lon="11.838881658203903"><ele>82.0</ele><time>2026-04-19T16:17:56.627Z</time></trkpt><trkpt lat="45.74687556951069" lon="11.838414439260797"><ele>83.0</ele><time>2026-04-19T16:17:57.627Z</time></trkpt><trkpt lat="45.74689786460789" lon="11.837956442257388"><ele>83.5</ele><time>2026-04-19T16:17:58.627Z</time></trkpt><trkpt lat="45.74691450532201" lon="11.837498528373763"><ele>84.0</ele><time>2026-04-19T16:17:59.627Z</time></trkpt><trkpt lat="45.74692551974202" lon="11.837044944595958"><ele>83.5</ele><time>2026-04-19T16:18:00.627Z</time></trkpt><trkpt lat="45.74694303896736" lon="11.836593484310166"><ele>83.0</ele><time>2026-04-19T16:18:01.627Z</time></trkpt><trkpt lat="45.74695599241527" lon="11.836143090594405"><ele>83.5</ele><time>2026-04-19T16:18:02.627Z</time></trkpt><trkpt lat="45.74696703857814" lon="11.83569159055644"><ele>84.0</ele><time>2026-04-19T16:18:03.627Z</time></trkpt><trkpt lat="45.7469734350762" lon="11.835233914461353"><ele>83.5</ele><time>2026-04-19T16:18:04.627Z</time></trkpt><trkpt lat="45.74697754142203" lon="11.834772675969507"><ele>83.0</ele><time>2026-04-19T16:18:05.627Z</time></trkpt><trkpt lat="45.7469770103236" lon="11.834310892803304"><ele>83.5</ele><time>2026-04-19T16:18:06.627Z</time></trkpt><trkpt lat="45.74696504147003" lon="11.833857684497099"><ele>84.0</ele><time>2026-04-19T16:18:07.627Z</time></trkpt><trkpt lat="45.746964590111446" lon="11.833381134122337"><ele>84.0</ele><time>2026-04-19T16:18:08.627Z</time></trkpt><trkpt lat="45.74696151798321" lon="11.83290132192054"><ele>84.0</ele><time>2026-04-19T16:18:09.627Z</time></trkpt><trkpt lat="45.74695787349023" lon="11.832408021683051"><ele>84.0</ele><time>2026-04-19T16:18:10.627Z</time></trkpt><trkpt lat="45.74695046803627" lon="11.831915345238539"><ele>84.0</ele><time>2026-04-19T16:18:11.627Z</time></trkpt><trkpt lat="45.746938876852525" lon="11.831411727720388"><ele>83.5</ele><time>2026-04-19T16:18:12.627Z</time></trkpt><trkpt lat="45.746918328322145" lon="11.830900941942696"><ele>83.0</ele><time>2026-04-19T16:18:13.627Z</time></trkpt><trkpt lat="45.74688590058768" lon="11.830392438690318"><ele>83.5</ele><time>2026-04-19T16:18:14.627Z</time></trkpt><trkpt lat="45.746872860843666" lon="11.829880049447631"><ele>84.0</ele><time>2026-04-19T16:18:15.627Z</time></trkpt><trkpt lat="45.74684832234271" lon="11.829370703115366"><ele>84.0</ele><time>2026-04-19T16:18:16.627Z</time></trkpt><trkpt lat="45.74682573811058" lon="11.828857875139057"><ele>84.0</ele><time>2026-04-19T16:18:17.627Z</time></trkpt><trkpt lat="45.74679856870571" lon="11.828342111356667"><ele>84.5</ele><time>2026-04-19T16:18:18.627Z</time></trkpt><trkpt lat="45.74677371706163" lon="11.8278235705299"><ele>85.0</ele><time>2026-04-19T16:18:19.627Z</time></trkpt><trkpt lat="45.746740062082694" lon="11.827306395739702"><ele>84.5</ele><time>2026-04-19T16:18:20.627Z</time></trkpt><trkpt lat="45.746704280206" lon="11.826786458272627"><ele>84.0</ele><time>2026-04-19T16:18:21.627Z</time></trkpt><trkpt lat="45.74667726854568" lon="11.826263220368903"><ele>85.5</ele><time>2026-04-19T16:18:22.627Z</time></trkpt><trkpt lat="45.7466456144143" lon="11.825745682740907"><ele>87.0</ele><time>2026-04-19T16:18:23.627Z</time></trkpt><trkpt lat="45.74661320747643" lon="11.825222271347569"><ele>86.5</ele><time>2026-04-19T16:18:24.627Z</time></trkpt><trkpt lat="45.74658724762597" lon="11.824694216718614"><ele>86.0</ele><time>2026-04-19T16:18:25.627Z</time></trkpt><trkpt lat="45.7465523334092" lon="11.824170407041175"><ele>87.5</ele><time>2026-04-19T16:18:26.627Z</time></trkpt><trkpt lat="45.74651044766202" lon="11.82364350298008"><ele>89.0</ele><time>2026-04-19T16:18:27.627Z</time></trkpt><trkpt lat="45.74646576840207" lon="11.823116586777866"><ele>88.0</ele><time>2026-04-19T16:18:28.627Z</time></trkpt><trkpt lat="45.74642422764642" lon="11.822588758867214"><ele>87.0</ele><time>2026-04-19T16:18:29.627Z</time></trkpt><trkpt lat="45.74638551473627" lon="11.822056450420718"><ele>87.0</ele><time>2026-04-19T16:18:30.627Z</time></trkpt><trkpt lat="45.746340327953234" lon="11.821528839204875"><ele>87.0</ele><time>2026-04-19T16:18:31.627Z</time></trkpt><trkpt lat="45.74629518905579" lon="11.820999345883303"><ele>87.5</ele><time>2026-04-19T16:18:32.627Z</time></trkpt><trkpt lat="45.746250306199684" lon="11.820471802731513"><ele>88.0</ele><time>2026-04-19T16:18:33.627Z</time></trkpt><trkpt lat="45.746199628554685" lon="11.81995164601319"><ele>89.0</ele><time>2026-04-19T16:18:34.627Z</time></trkpt><trkpt lat="45.746142114858195" lon="11.819427168715688"><ele>90.0</ele><time>2026-04-19T16:18:35.627Z</time></trkpt><trkpt lat="45.746083950566515" lon="11.818907991320065"><ele>89.0</ele><time>2026-04-19T16:18:36.627Z</time></trkpt><trkpt lat="45.746019307857345" lon="11.818398268690695"><ele>88.0</ele><time>2026-04-19T16:18:37.627Z</time></trkpt><trkpt lat="45.745950352746156" lon="11.81789544589015"><ele>88.5</ele><time>2026-04-19T16:18:38.627Z</time></trkpt><trkpt lat="45.745878511082566" lon="11.817388488473366"><ele>89.0</ele><time>2026-04-19T16:18:39.627Z</time></trkpt><trkpt lat="45.74579833735946" lon="11.81688404162077"><ele>89.0</ele><time>2026-04-19T16:18:40.627Z</time></trkpt><trkpt lat="45.74571010839012" lon="11.816388284104264"><ele>89.0</ele><time>2026-04-19T16:18:41.627Z</time></trkpt><trkpt lat="45.74561985560288" lon="11.815900537751642"><ele>89.0</ele><time>2026-04-19T16:18:42.627Z</time></trkpt><trkpt lat="45.74552148030887" lon="11.81540196909325"><ele>89.0</ele><time>2026-04-19T16:18:43.627Z</time></trkpt><trkpt lat="45.745419841644484" lon="11.81490384682142"><ele>89.0</ele><time>2026-04-19T16:18:44.627Z</time></trkpt><trkpt lat="45.7453138281139" lon="11.814399482972691"><ele>89.0</ele><time>2026-04-19T16:18:45.627Z</time></trkpt><trkpt lat="45.74520270426605" lon="11.81389412879868"><ele>89.0</ele><time>2026-04-19T16:18:46.627Z</time></trkpt><trkpt lat="45.7450938686589" lon="11.813390951197608"><ele>89.0</ele><time>2026-04-19T16:18:47.627Z</time></trkpt><trkpt lat="45.744982845836255" lon="11.812881249086455"><ele>89.0</ele><time>2026-04-19T16:18:48.627Z</time></trkpt><trkpt lat="45.744870211360244" lon="11.812377450092088"><ele>89.0</ele><time>2026-04-19T16:18:49.642Z</time></trkpt><trkpt lat="45.7447614816501" lon="11.81190046925784"><ele>90.5</ele><time>2026-04-19T16:18:50.639Z</time></trkpt><trkpt lat="45.74465904297729" lon="11.811448197122315"><ele>92.0</ele><time>2026-04-19T16:18:51.645Z</time></trkpt><trkpt lat="45.74456399473986" lon="11.811024893980475"><ele>92.0</ele><time>2026-04-19T16:18:52.64Z</time></trkpt><trkpt lat="45.74446857824849" lon="11.810606844138935"><ele>92.0</ele><time>2026-04-19T16:18:53.638Z</time></trkpt><trkpt lat="45.74415915184258" lon="11.809186516340644"><ele>91.5</ele><time>2026-04-19T16:18:56.627Z</time></trkpt><trkpt lat="45.744062511009886" lon="11.808741355473773"><ele>91.0</ele><time>2026-04-19T16:18:57.627Z</time></trkpt><trkpt lat="45.74398651545973" lon="11.808310861104484"><ele>91.0</ele><time>2026-04-19T16:18:58.627Z</time></trkpt><trkpt lat="45.74396225146125" lon="11.807775384175635"><ele>91.0</ele><time>2026-04-19T16:18:59.627Z</time></trkpt><trkpt lat="45.74390535304778" lon="11.807268532442498"><ele>92.0</ele><time>2026-04-19T16:19:00.628Z</time></trkpt><trkpt lat="45.74384713327559" lon="11.806776226291284"><ele>93.0</ele><time>2026-04-19T16:19:01.628Z</time></trkpt><trkpt lat="45.7437968427669" lon="11.806301999670671"><ele>94.5</ele><time>2026-04-19T16:19:02.628Z</time></trkpt><trkpt lat="45.74381803166744" lon="11.805757867030286"><ele>96.0</ele><time>2026-04-19T16:19:03.628Z</time></trkpt><trkpt lat="45.743799137275445" lon="11.80520143193138"><ele>96.0</ele><time>2026-04-19T16:19:04.628Z</time></trkpt><trkpt lat="45.74377022169941" lon="11.804660995851842"><ele>96.0</ele><time>2026-04-19T16:19:05.628Z</time></trkpt><trkpt lat="45.743733930844826" lon="11.804142967181356"><ele>96.0</ele><time>2026-04-19T16:19:06.628Z</time></trkpt><trkpt lat="45.74369786630306" lon="11.803651774735998"><ele>96.0</ele><time>2026-04-19T16:19:07.628Z</time></trkpt><trkpt lat="45.74366652650765" lon="11.80316438644266"><ele>96.0</ele><time>2026-04-19T16:19:08.628Z</time></trkpt><trkpt lat="45.743614962950154" lon="11.802698881050214"><ele>96.0</ele><time>2026-04-19T16:19:09.628Z</time></trkpt><trkpt lat="45.74354638464318" lon="11.802243578726562"><ele>95.0</ele><time>2026-04-19T16:19:10.628Z</time></trkpt><trkpt lat="45.74346043764727" lon="11.801802944073714"><ele>94.0</ele><time>2026-04-19T16:19:11.628Z</time></trkpt><trkpt lat="45.74336087577037" lon="11.801356734120242"><ele>95.0</ele><time>2026-04-19T16:19:12.628Z</time></trkpt><trkpt lat="45.74325389418621" lon="11.800918063930876"><ele>96.0</ele><time>2026-04-19T16:19:13.628Z</time></trkpt><trkpt lat="45.74312614284034" lon="11.80049035385058"><ele>96.0</ele><time>2026-04-19T16:19:14.628Z</time></trkpt><trkpt lat="45.74299046152508" lon="11.800058959459369"><ele>96.0</ele><time>2026-04-19T16:19:15.628Z</time></trkpt><trkpt lat="45.742849177665995" lon="11.799634992080724"><ele>96.5</ele><time>2026-04-19T16:19:16.628Z</time></trkpt><trkpt lat="45.74269806713281" lon="11.799211876252375"><ele>97.0</ele><time>2026-04-19T16:19:17.628Z</time></trkpt><trkpt lat="45.74254774787539" lon="11.79878588427922"><ele>96.0</ele><time>2026-04-19T16:19:18.628Z</time></trkpt><trkpt lat="45.74240312094253" lon="11.798355194179399"><ele>95.0</ele><time>2026-04-19T16:19:19.628Z</time></trkpt><trkpt lat="45.74226202615536" lon="11.797921690682491"><ele>94.5</ele><time>2026-04-19T16:19:20.628Z</time></trkpt><trkpt lat="45.74212887602609" lon="11.7974914446244"><ele>94.0</ele><time>2026-04-19T16:19:21.628Z</time></trkpt><trkpt lat="45.74199843517191" lon="11.797056871494435"><ele>95.5</ele><time>2026-04-19T16:19:22.628Z</time></trkpt><trkpt lat="45.74187047658531" lon="11.796627279218526"><ele>97.0</ele><time>2026-04-19T16:19:23.628Z</time></trkpt><trkpt lat="45.74174857835389" lon="11.79620222644303"><ele>97.5</ele><time>2026-04-19T16:19:24.628Z</time></trkpt><trkpt lat="45.741648338637376" lon="11.795765211154045"><ele>98.0</ele><time>2026-04-19T16:19:25.628Z</time></trkpt><trkpt lat="45.74156688705252" lon="11.795318384251882"><ele>98.0</ele><time>2026-04-19T16:19:26.628Z</time></trkpt><trkpt lat="45.741495927561544" lon="11.794876270115783"><ele>98.0</ele><time>2026-04-19T16:19:27.628Z</time></trkpt><trkpt lat="45.74143996933367" lon="11.794435981761985"><ele>98.0</ele><time>2026-04-19T16:19:28.628Z</time></trkpt><trkpt lat="45.74138800384002" lon="11.79399472128169"><ele>98.0</ele><time>2026-04-19T16:19:29.628Z</time></trkpt><trkpt lat="45.741357781843746" lon="11.793559817029756"><ele>98.0</ele><time>2026-04-19T16:19:30.628Z</time></trkpt><trkpt lat="45.741335099953325" lon="11.793118539127361"><ele>98.0</ele><time>2026-04-19T16:19:31.628Z</time></trkpt><trkpt lat="45.74132551223223" lon="11.792683366708932"><ele>98.0</ele><time>2026-04-19T16:19:32.628Z</time></trkpt><trkpt lat="45.74132217920061" lon="11.792243239963636"><ele>98.0</ele><time>2026-04-19T16:19:33.628Z</time></trkpt><trkpt lat="45.741296765565046" lon="11.791790430410485"><ele>98.0</ele><time>2026-04-19T16:19:34.628Z</time></trkpt><trkpt lat="45.74129276180854" lon="11.791332101877922"><ele>98.0</ele><time>2026-04-19T16:19:35.628Z</time></trkpt><trkpt lat="45.741285347106626" lon="11.790865068648401"><ele>98.0</ele><time>2026-04-19T16:19:36.628Z</time></trkpt><trkpt lat="45.741287438292126" lon="11.79040419033271"><ele>98.0</ele><time>2026-04-19T16:19:37.628Z</time></trkpt><trkpt lat="45.741292001480616" lon="11.78994048402951"><ele>98.0</ele><time>2026-04-19T16:19:38.628Z</time></trkpt><trkpt lat="45.741293395497344" lon="11.789491556072969"><ele>98.0</ele><time>2026-04-19T16:19:39.628Z</time></trkpt><trkpt lat="45.74130206613906" lon="11.789035125526373"><ele>98.0</ele><time>2026-04-19T16:19:40.628Z</time></trkpt><trkpt lat="45.741302036950614" lon="11.788592781722834"><ele>98.0</ele><time>2026-04-19T16:19:41.628Z</time></trkpt><trkpt lat="45.74129428066983" lon="11.788155056417144"><ele>98.5</ele><time>2026-04-19T16:19:42.646Z</time></trkpt><trkpt lat="45.741278412216964" lon="11.787727347937835"><ele>99.0</ele><time>2026-04-19T16:19:43.643Z</time></trkpt><trkpt lat="45.74124910557142" lon="11.787299114383897"><ele>98.0</ele><time>2026-04-19T16:19:44.64Z</time></trkpt><trkpt lat="45.741216284461814" lon="11.7868668919149"><ele>97.0</ele><time>2026-04-19T16:19:45.642Z</time></trkpt><trkpt lat="45.74020637203542" lon="11.779187684889676"><ele>97.0</ele><time>2026-04-19T16:20:00.628Z</time></trkpt><trkpt lat="45.740132134030574" lon="11.778671259396905"><ele>97.0</ele><time>2026-04-19T16:20:01.628Z</time></trkpt><trkpt lat="45.74006617233302" lon="11.778141346023826"><ele>98.5</ele><time>2026-04-19T16:20:02.628Z</time></trkpt><trkpt lat="45.740001958102646" lon="11.777636544432568"><ele>100.0</ele><time>2026-04-19T16:20:03.628Z</time></trkpt><trkpt lat="45.73992815626147" lon="11.777149373388497"><ele>101.0</ele><time>2026-04-19T16:20:04.628Z</time></trkpt><trkpt lat="45.73986695292972" lon="11.77664005151901"><ele>102.0</ele><time>2026-04-19T16:20:05.628Z</time></trkpt><trkpt lat="45.73977580082088" lon="11.776169908417044"><ele>102.0</ele><time>2026-04-19T16:20:06.628Z</time></trkpt><trkpt lat="45.73971055245903" lon="11.775672120738614"><ele>102.0</ele><time>2026-04-19T16:20:07.628Z</time></trkpt><trkpt lat="45.73964320386622" lon="11.77517348191899"><ele>102.0</ele><time>2026-04-19T16:20:08.628Z</time></trkpt><trkpt lat="45.73957004542361" lon="11.774697156379958"><ele>102.0</ele><time>2026-04-19T16:20:09.628Z</time></trkpt><trkpt lat="45.73948572390717" lon="11.77419868195864"><ele>102.0</ele><time>2026-04-19T16:20:10.628Z</time></trkpt><trkpt lat="45.73940287580417" lon="11.773692405599633"><ele>102.0</ele><time>2026-04-19T16:20:11.628Z</time></trkpt><trkpt lat="45.73931205694727" lon="11.773186451364896"><ele>101.5</ele><time>2026-04-19T16:20:12.628Z</time></trkpt><trkpt lat="45.739223228536964" lon="11.772681088113794"><ele>101.0</ele><time>2026-04-19T16:20:13.628Z</time></trkpt><trkpt lat="45.739133349762604" lon="11.77216125735163"><ele>101.0</ele><time>2026-04-19T16:20:14.628Z</time></trkpt><trkpt lat="45.73905029182503" lon="11.771651247329181"><ele>101.0</ele><time>2026-04-19T16:20:15.628Z</time></trkpt><trkpt lat="45.73895932878316" lon="11.77114291793177"><ele>101.5</ele><time>2026-04-19T16:20:16.628Z</time></trkpt><trkpt lat="45.738862665052515" lon="11.770626996280708"><ele>102.0</ele><time>2026-04-19T16:20:17.628Z</time></trkpt><trkpt lat="45.7387686182903" lon="11.770113464927537"><ele>102.0</ele><time>2026-04-19T16:20:18.628Z</time></trkpt><trkpt lat="45.73867152967523" lon="11.769591359681318"><ele>102.0</ele><time>2026-04-19T16:20:19.628Z</time></trkpt><trkpt lat="45.73857919386405" lon="11.769071938402446"><ele>102.5</ele><time>2026-04-19T16:20:20.628Z</time></trkpt><trkpt lat="45.73848132820338" lon="11.768549244848606"><ele>103.0</ele><time>2026-04-19T16:20:21.628Z</time></trkpt><trkpt lat="45.73838083451162" lon="11.768033553480993"><ele>103.0</ele><time>2026-04-19T16:20:22.628Z</time></trkpt><trkpt lat="45.738286338796364" lon="11.767513806815787"><ele>103.0</ele><time>2026-04-19T16:20:23.628Z</time></trkpt><trkpt lat="45.73820549632525" lon="11.766985456707713"><ele>102.5</ele><time>2026-04-19T16:20:24.628Z</time></trkpt><trkpt lat="45.73811056080002" lon="11.766476544442085"><ele>102.0</ele><time>2026-04-19T16:20:25.628Z</time></trkpt><trkpt lat="45.738017169803875" lon="11.765972014473334"><ele>102.0</ele><time>2026-04-19T16:20:26.628Z</time></trkpt><trkpt lat="45.73792528851578" lon="11.765478851654171"><ele>102.0</ele><time>2026-04-19T16:20:27.628Z</time></trkpt><trkpt lat="45.73783215504963" lon="11.764990389074896"><ele>102.0</ele><time>2026-04-19T16:20:28.628Z</time></trkpt><trkpt lat="45.73774319192907" lon="11.76449530242594"><ele>102.0</ele><time>2026-04-19T16:20:29.628Z</time></trkpt><trkpt lat="45.737673859432014" lon="11.763999380256191"><ele>101.5</ele><time>2026-04-19T16:20:30.628Z</time></trkpt><trkpt lat="45.7375948856155" lon="11.763498503284353"><ele>101.0</ele><time>2026-04-19T16:20:31.628Z</time></trkpt><trkpt lat="45.73752567533086" lon="11.7629900575864"><ele>101.0</ele><time>2026-04-19T16:20:32.628Z</time></trkpt><trkpt lat="45.73745150587964" lon="11.762499508657047"><ele>101.0</ele><time>2026-04-19T16:20:33.628Z</time></trkpt><trkpt lat="45.73737089018933" lon="11.762018718059263"><ele>101.0</ele><time>2026-04-19T16:20:34.628Z</time></trkpt><trkpt lat="45.737297418187104" lon="11.761537089691682"><ele>101.0</ele><time>2026-04-19T16:20:35.628Z</time></trkpt><trkpt lat="45.73722955163553" lon="11.761047974270864"><ele>102.0</ele><time>2026-04-19T16:20:36.628Z</time></trkpt><trkpt lat="45.737159095401154" lon="11.760563019946623"><ele>103.0</ele><time>2026-04-19T16:20:37.628Z</time></trkpt><trkpt lat="45.73709345398531" lon="11.760073813052802"><ele>103.0</ele><time>2026-04-19T16:20:38.628Z</time></trkpt><trkpt lat="45.73702196947183" lon="11.759584707759732"><ele>103.0</ele><time>2026-04-19T16:20:39.628Z</time></trkpt><trkpt lat="45.736953234481504" lon="11.759108560521758"><ele>103.0</ele><time>2026-04-19T16:20:40.628Z</time></trkpt><trkpt lat="45.73688935099159" lon="11.758632155741797"><ele>103.0</ele><time>2026-04-19T16:20:41.628Z</time></trkpt><trkpt lat="45.736831050941795" lon="11.75816218185109"><ele>102.0</ele><time>2026-04-19T16:20:42.628Z</time></trkpt><trkpt lat="45.73676842357898" lon="11.757704533596844"><ele>101.0</ele><time>2026-04-19T16:20:43.628Z</time></trkpt><trkpt lat="45.73670667816362" lon="11.757246719366092"><ele>101.0</ele><time>2026-04-19T16:20:44.628Z</time></trkpt><trkpt lat="45.73664783660367" lon="11.75678714957678"><ele>101.0</ele><time>2026-04-19T16:20:45.628Z</time></trkpt><trkpt lat="45.73658608509729" lon="11.75633611291719"><ele>101.0</ele><time>2026-04-19T16:20:46.628Z</time></trkpt><trkpt lat="45.73653085585988" lon="11.755889208930457"><ele>101.0</ele><time>2026-04-19T16:20:47.628Z</time></trkpt><trkpt lat="45.736471573050515" lon="11.755437093013134"><ele>100.0</ele><time>2026-04-19T16:20:48.628Z</time></trkpt><trkpt lat="45.73641685878256" lon="11.754979003307191"><ele>99.0</ele><time>2026-04-19T16:20:49.628Z</time></trkpt><trkpt lat="45.736354900004784" lon="11.754512921401679"><ele>100.0</ele><time>2026-04-19T16:20:50.628Z</time></trkpt><trkpt lat="45.73629444113559" lon="11.754049167171727"><ele>101.0</ele><time>2026-04-19T16:20:51.628Z</time></trkpt><trkpt lat="45.73623995195341" lon="11.753581681535572"><ele>100.5</ele><time>2026-04-19T16:20:52.628Z</time></trkpt><trkpt lat="45.73617204384538" lon="11.753114137267392"><ele>100.0</ele><time>2026-04-19T16:20:53.628Z</time></trkpt><trkpt lat="45.736120406882186" lon="11.752653345240471"><ele>100.5</ele><time>2026-04-19T16:20:54.628Z</time></trkpt><trkpt lat="45.7360742663207" lon="11.752202368066195"><ele>101.0</ele><time>2026-04-19T16:20:55.628Z</time></trkpt><trkpt lat="45.736033241330794" lon="11.75174956086253"><ele>101.0</ele><time>2026-04-19T16:20:56.628Z</time></trkpt><trkpt lat="45.735999944556525" lon="11.751294706721641"><ele>101.0</ele><time>2026-04-19T16:20:57.628Z</time></trkpt><trkpt lat="45.73597986225312" lon="11.750834162110383"><ele>101.0</ele><time>2026-04-19T16:20:58.628Z</time></trkpt><trkpt lat="45.735967128297986" lon="11.750369130337452"><ele>101.0</ele><time>2026-04-19T16:20:59.628Z</time></trkpt><trkpt lat="45.73596505114179" lon="11.74990572464596"><ele>101.0</ele><time>2026-04-19T16:21:00.628Z</time></trkpt><trkpt lat="45.73596689816771" lon="11.749441861478324"><ele>101.0</ele><time>2026-04-19T16:21:01.628Z</time></trkpt><trkpt lat="45.735978374559785" lon="11.748976715351226"><ele>101.5</ele><time>2026-04-19T16:21:02.628Z</time></trkpt><trkpt lat="45.7360098855509" lon="11.748510740093066"><ele>102.0</ele><time>2026-04-19T16:21:03.628Z</time></trkpt><trkpt lat="45.73604103072815" lon="11.748022549640734"><ele>101.5</ele><time>2026-04-19T16:21:04.628Z</time></trkpt><trkpt lat="45.73607150459019" lon="11.747519880617734"><ele>101.0</ele><time>2026-04-19T16:21:05.628Z</time></trkpt><trkpt lat="45.73610385084829" lon="11.747004910198616"><ele>101.5</ele><time>2026-04-19T16:21:06.629Z</time></trkpt><trkpt lat="45.73613635347365" lon="11.746479970990174"><ele>102.0</ele><time>2026-04-19T16:21:07.629Z</time></trkpt><trkpt lat="45.73616522318959" lon="11.745947262091521"><ele>102.0</ele><time>2026-04-19T16:21:08.629Z</time></trkpt><trkpt lat="45.7362014309189" lon="11.745396090882904"><ele>102.0</ele><time>2026-04-19T16:21:09.629Z</time></trkpt><trkpt lat="45.73623335967839" lon="11.744845301829768"><ele>102.0</ele><time>2026-04-19T16:21:10.629Z</time></trkpt><trkpt lat="45.73626433703564" lon="11.744305441949583"><ele>102.0</ele><time>2026-04-19T16:21:11.629Z</time></trkpt><trkpt lat="45.73629219545111" lon="11.743781773332676"><ele>102.5</ele><time>2026-04-19T16:21:12.629Z</time></trkpt><trkpt lat="45.73632043605298" lon="11.743289585596425"><ele>103.0</ele><time>2026-04-19T16:21:13.629Z</time></trkpt><trkpt lat="45.73634834086875" lon="11.74279950647477"><ele>103.0</ele><time>2026-04-19T16:21:14.629Z</time></trkpt><trkpt lat="45.73637388649184" lon="11.742326423991317"><ele>103.0</ele><time>2026-04-19T16:21:15.629Z</time></trkpt><trkpt lat="45.73639509169925" lon="11.74187904683307"><ele>103.0</ele><time>2026-04-19T16:21:16.629Z</time></trkpt><trkpt lat="45.736419681803135" lon="11.741435986522498"><ele>103.0</ele><time>2026-04-19T16:21:17.629Z</time></trkpt><trkpt lat="45.73644707934673" lon="11.74100651516226"><ele>102.0</ele><time>2026-04-19T16:21:18.629Z</time></trkpt><trkpt lat="45.7364802017977" lon="11.740588024629616"><ele>101.0</ele><time>2026-04-19T16:21:19.629Z</time></trkpt><trkpt lat="45.73651944373519" lon="11.740164140732295"><ele>100.5</ele><time>2026-04-19T16:21:20.629Z</time></trkpt><trkpt lat="45.736555867519186" lon="11.739729029979607"><ele>100.0</ele><time>2026-04-19T16:21:21.629Z</time></trkpt><trkpt lat="45.7366208827271" lon="11.739272297157635"><ele>100.0</ele><time>2026-04-19T16:21:22.629Z</time></trkpt><trkpt lat="45.736681894732946" lon="11.738822739739978"><ele>100.0</ele><time>2026-04-19T16:21:23.629Z</time></trkpt><trkpt lat="45.736748665287" lon="11.738403573826353"><ele>100.5</ele><time>2026-04-19T16:21:24.629Z</time></trkpt><trkpt lat="45.73682887729746" lon="11.737984526028756"><ele>101.0</ele><time>2026-04-19T16:21:25.629Z</time></trkpt><trkpt lat="45.73692014361616" lon="11.737555098961007"><ele>101.5</ele><time>2026-04-19T16:21:26.629Z</time></trkpt><trkpt lat="45.73702880686414" lon="11.737111853317698"><ele>102.0</ele><time>2026-04-19T16:21:27.629Z</time></trkpt><trkpt lat="45.7371289974483" lon="11.736662621314167"><ele>101.5</ele><time>2026-04-19T16:21:28.629Z</time></trkpt><trkpt lat="45.7372291570581" lon="11.736209982228505"><ele>101.0</ele><time>2026-04-19T16:21:29.629Z</time></trkpt><trkpt lat="45.737322287168034" lon="11.735749454829916"><ele>101.0</ele><time>2026-04-19T16:21:30.629Z</time></trkpt><trkpt lat="45.73743639869187" lon="11.735282206206788"><ele>101.0</ele><time>2026-04-19T16:21:31.629Z</time></trkpt><trkpt lat="45.7375384976953" lon="11.734808390157765"><ele>101.5</ele><time>2026-04-19T16:21:32.629Z</time></trkpt><trkpt lat="45.73764274378816" lon="11.734335807618526"><ele>102.0</ele><time>2026-04-19T16:21:33.629Z</time></trkpt><trkpt lat="45.73774392154123" lon="11.733878830641709"><ele>101.0</ele><time>2026-04-19T16:21:34.629Z</time></trkpt><trkpt lat="45.7378486061528" lon="11.733419513591272"><ele>100.0</ele><time>2026-04-19T16:21:35.629Z</time></trkpt><trkpt lat="45.73795220857894" lon="11.732966851700855"><ele>99.5</ele><time>2026-04-19T16:21:36.629Z</time></trkpt><trkpt lat="45.73804487390176" lon="11.732536643256463"><ele>99.0</ele><time>2026-04-19T16:21:37.629Z</time></trkpt><trkpt lat="45.73815047634371" lon="11.732107889955108"><ele>99.5</ele><time>2026-04-19T16:21:38.629Z</time></trkpt><trkpt lat="45.73825421613538" lon="11.731666659276634"><ele>100.0</ele><time>2026-04-19T16:21:39.629Z</time></trkpt><trkpt lat="45.73834561111552" lon="11.731214327172422"><ele>99.0</ele><time>2026-04-19T16:21:40.629Z</time></trkpt><trkpt lat="45.73844274818965" lon="11.730766739930452"><ele>98.0</ele><time>2026-04-19T16:21:41.629Z</time></trkpt><trkpt lat="45.73852757749151" lon="11.730306611310096"><ele>97.5</ele><time>2026-04-19T16:21:42.629Z</time></trkpt><trkpt lat="45.73859838766294" lon="11.729855186678709"><ele>97.0</ele><time>2026-04-19T16:21:43.629Z</time></trkpt><trkpt lat="45.73867227066414" lon="11.729412786775686"><ele>96.5</ele><time>2026-04-19T16:21:44.629Z</time></trkpt><trkpt lat="45.73873706562624" lon="11.728970120391478"><ele>96.0</ele><time>2026-04-19T16:21:45.629Z</time></trkpt><trkpt lat="45.738788455458604" lon="11.728520527236915"><ele>95.5</ele><time>2026-04-19T16:21:46.629Z</time></trkpt><trkpt lat="45.738830220858816" lon="11.728069110201268"><ele>95.0</ele><time>2026-04-19T16:21:47.629Z</time></trkpt><trkpt lat="45.738867818671835" lon="11.727608062855568"><ele>96.5</ele><time>2026-04-19T16:21:48.629Z</time></trkpt><trkpt lat="45.73889326917839" lon="11.727150411432097"><ele>98.0</ele><time>2026-04-19T16:21:49.629Z</time></trkpt><trkpt lat="45.738907620741834" lon="11.726691401327702"><ele>98.0</ele><time>2026-04-19T16:21:50.629Z</time></trkpt><trkpt lat="45.738918528622285" lon="11.726231373964549"><ele>98.0</ele><time>2026-04-19T16:21:51.629Z</time></trkpt><trkpt lat="45.73891862995322" lon="11.725777805887732"><ele>98.0</ele><time>2026-04-19T16:21:52.629Z</time></trkpt><trkpt lat="45.738901442908606" lon="11.725329701466274"><ele>98.0</ele><time>2026-04-19T16:21:53.629Z</time></trkpt><trkpt lat="45.73887832678332" lon="11.72487492309961"><ele>98.0</ele><time>2026-04-19T16:21:54.629Z</time></trkpt><trkpt lat="45.73885302610295" lon="11.724440980047445"><ele>98.0</ele><time>2026-04-19T16:21:55.629Z</time></trkpt><trkpt lat="45.73882244917062" lon="11.724030819281126"><ele>97.0</ele><time>2026-04-19T16:21:56.629Z</time></trkpt><trkpt lat="45.738784620312536" lon="11.723597477459924"><ele>96.0</ele><time>2026-04-19T16:21:57.629Z</time></trkpt><trkpt lat="45.73874326402824" lon="11.723155598096875"><ele>95.5</ele><time>2026-04-19T16:21:58.629Z</time></trkpt><trkpt lat="45.73870427818757" lon="11.722705604286462"><ele>95.0</ele><time>2026-04-19T16:21:59.629Z</time></trkpt><trkpt lat="45.73866200579699" lon="11.722248166025418"><ele>95.5</ele><time>2026-04-19T16:22:00.629Z</time></trkpt><trkpt lat="45.73861729676196" lon="11.721780895239577"><ele>96.0</ele><time>2026-04-19T16:22:01.629Z</time></trkpt><trkpt lat="45.73857881012606" lon="11.721305137956207"><ele>95.0</ele><time>2026-04-19T16:22:02.629Z</time></trkpt><trkpt lat="45.73853849458834" lon="11.72082939222211"><ele>94.0</ele><time>2026-04-19T16:22:03.629Z</time></trkpt><trkpt lat="45.73849592939" lon="11.720355945060936"><ele>95.0</ele><time>2026-04-19T16:22:04.629Z</time></trkpt><trkpt lat="45.73845641241522" lon="11.719875359845721"><ele>96.0</ele><time>2026-04-19T16:22:05.629Z</time></trkpt><trkpt lat="45.73841202884151" lon="11.71940459472897"><ele>96.0</ele><time>2026-04-19T16:22:06.629Z</time></trkpt><trkpt lat="45.738367916997895" lon="11.71894157444543"><ele>96.0</ele><time>2026-04-19T16:22:07.629Z</time></trkpt><trkpt lat="45.73832612658891" lon="11.718484032439159"><ele>96.0</ele><time>2026-04-19T16:22:08.629Z</time></trkpt><trkpt lat="45.73828715984773" lon="11.718030380365882"><ele>96.0</ele><time>2026-04-19T16:22:09.629Z</time></trkpt><trkpt lat="45.73824627087797" lon="11.717578681719916"><ele>96.5</ele><time>2026-04-19T16:22:10.629Z</time></trkpt><trkpt lat="45.73820587474094" lon="11.717128590965917"><ele>97.0</ele><time>2026-04-19T16:22:11.629Z</time></trkpt><trkpt lat="45.73816397139852" lon="11.716678443236216"><ele>96.0</ele><time>2026-04-19T16:22:12.629Z</time></trkpt><trkpt lat="45.73811479693818" lon="11.716241173728715"><ele>95.0</ele><time>2026-04-19T16:22:13.629Z</time></trkpt><trkpt lat="45.738073350045646" lon="11.71580553613822"><ele>95.0</ele><time>2026-04-19T16:22:14.629Z</time></trkpt><trkpt lat="45.738032215651266" lon="11.715379705203299"><ele>95.0</ele><time>2026-04-19T16:22:15.629Z</time></trkpt><trkpt lat="45.73799692138304" lon="11.71495467143888"><ele>94.5</ele><time>2026-04-19T16:22:16.629Z</time></trkpt><trkpt lat="45.73796091362156" lon="11.71452508276615"><ele>94.0</ele><time>2026-04-19T16:22:17.629Z</time></trkpt><trkpt lat="45.73792509850551" lon="11.714093523190748"><ele>93.5</ele><time>2026-04-19T16:22:18.629Z</time></trkpt><trkpt lat="45.73788587924097" lon="11.713667892794312"><ele>93.0</ele><time>2026-04-19T16:22:19.629Z</time></trkpt><trkpt lat="45.73784994408739" lon="11.713242732764026"><ele>93.0</ele><time>2026-04-19T16:22:20.629Z</time></trkpt><trkpt lat="45.73781809635535" lon="11.712808750265033"><ele>93.0</ele><time>2026-04-19T16:22:21.629Z</time></trkpt><trkpt lat="45.73778972837739" lon="11.712364594435211"><ele>92.5</ele><time>2026-04-19T16:22:22.629Z</time></trkpt><trkpt lat="45.7377703717869" lon="11.711919567488355"><ele>92.0</ele><time>2026-04-19T16:22:23.629Z</time></trkpt><trkpt lat="45.73775949357804" lon="11.711473120439523"><ele>94.0</ele><time>2026-04-19T16:22:24.629Z</time></trkpt><trkpt lat="45.737757026401745" lon="11.71102667314823"><ele>96.0</ele><time>2026-04-19T16:22:25.629Z</time></trkpt><trkpt lat="45.73775777562449" lon="11.710584641351886"><ele>95.0</ele><time>2026-04-19T16:22:26.629Z</time></trkpt><trkpt lat="45.73777208261506" lon="11.71014337369024"><ele>94.0</ele><time>2026-04-19T16:22:27.629Z</time></trkpt><trkpt lat="45.73779676751733" lon="11.709700468422707"><ele>93.5</ele><time>2026-04-19T16:22:28.629Z</time></trkpt><trkpt lat="45.7378224885046" lon="11.70927035072396"><ele>93.0</ele><time>2026-04-19T16:22:29.629Z</time></trkpt><trkpt lat="45.73785542285524" lon="11.708834432174497"><ele>92.5</ele><time>2026-04-19T16:22:30.629Z</time></trkpt><trkpt lat="45.737887854633044" lon="11.708386969635233"><ele>92.0</ele><time>2026-04-19T16:22:31.629Z</time></trkpt><trkpt lat="45.73792141571063" lon="11.707930221473438"><ele>92.0</ele><time>2026-04-19T16:22:32.629Z</time></trkpt><trkpt lat="45.737956603206065" lon="11.707455515155031"><ele>92.0</ele><time>2026-04-19T16:22:33.629Z</time></trkpt><trkpt lat="45.73799250675668" lon="11.706982355580811"><ele>91.5</ele><time>2026-04-19T16:22:34.629Z</time></trkpt><trkpt lat="45.73803493127525" lon="11.706482937633764"><ele>91.0</ele><time>2026-04-19T16:22:35.629Z</time></trkpt><trkpt lat="45.73806714601667" lon="11.70598221010643"><ele>90.5</ele><time>2026-04-19T16:22:36.629Z</time></trkpt><trkpt lat="45.73809555051862" lon="11.705496574574902"><ele>90.0</ele><time>2026-04-19T16:22:37.629Z</time></trkpt><trkpt lat="45.7381378947915" lon="11.704999629454413"><ele>90.5</ele><time>2026-04-19T16:22:38.629Z</time></trkpt><trkpt lat="45.73817293596676" lon="11.7045120091316"><ele>91.0</ele><time>2026-04-19T16:22:39.629Z</time></trkpt><trkpt lat="45.73821014874452" lon="11.704029543983488"><ele>91.0</ele><time>2026-04-19T16:22:40.629Z</time></trkpt><trkpt lat="45.73824487894141" lon="11.703550771338623"><ele>91.0</ele><time>2026-04-19T16:22:41.629Z</time></trkpt><trkpt lat="45.738282692074584" lon="11.703073936174487"><ele>91.0</ele><time>2026-04-19T16:22:42.629Z</time></trkpt><trkpt lat="45.73832075724682" lon="11.702601602139474"><ele>91.0</ele><time>2026-04-19T16:22:43.629Z</time></trkpt><trkpt lat="45.73835428618008" lon="11.702131945507395"><ele>90.0</ele><time>2026-04-19T16:22:44.629Z</time></trkpt><trkpt lat="45.73839659701548" lon="11.701664775787465"><ele>89.0</ele><time>2026-04-19T16:22:45.629Z</time></trkpt><trkpt lat="45.73843241034968" lon="11.701209744394992"><ele>88.5</ele><time>2026-04-19T16:22:46.629Z</time></trkpt><trkpt lat="45.738457508063526" lon="11.700758957029143"><ele>88.0</ele><time>2026-04-19T16:22:47.629Z</time></trkpt><trkpt lat="45.7384951699021" lon="11.700297661919706"><ele>87.5</ele><time>2026-04-19T16:22:48.629Z</time></trkpt><trkpt lat="45.738522342771134" lon="11.699850950717785"><ele>87.0</ele><time>2026-04-19T16:22:49.629Z</time></trkpt><trkpt lat="45.738560456034875" lon="11.699401494827443"><ele>87.0</ele><time>2026-04-19T16:22:50.629Z</time></trkpt><trkpt lat="45.73856575126471" lon="11.698952132589273"><ele>87.0</ele><time>2026-04-19T16:22:51.629Z</time></trkpt><trkpt lat="45.73858547139793" lon="11.69850492407849"><ele>86.5</ele><time>2026-04-19T16:22:52.629Z</time></trkpt><trkpt lat="45.738612368039036" lon="11.69805374406354"><ele>86.0</ele><time>2026-04-19T16:22:53.629Z</time></trkpt><trkpt lat="45.73863377206227" lon="11.69760955422294"><ele>86.0</ele><time>2026-04-19T16:22:54.629Z</time></trkpt><trkpt lat="45.73865384563392" lon="11.697167243716219"><ele>86.0</ele><time>2026-04-19T16:22:55.629Z</time></trkpt><trkpt lat="45.738672447183326" lon="11.696732607553441"><ele>86.0</ele><time>2026-04-19T16:22:56.629Z</time></trkpt><trkpt lat="45.73868934079784" lon="11.696295393330194"><ele>86.0</ele><time>2026-04-19T16:22:57.629Z</time></trkpt><trkpt lat="45.73870136027562" lon="11.695863106741802"><ele>87.0</ele><time>2026-04-19T16:22:58.629Z</time></trkpt><trkpt lat="45.738714889114824" lon="11.695420153748985"><ele>88.0</ele><time>2026-04-19T16:22:59.629Z</time></trkpt><trkpt lat="45.73871356056407" lon="11.694985365000754"><ele>88.0</ele><time>2026-04-19T16:23:00.629Z</time></trkpt><trkpt lat="45.73872369279029" lon="11.69454009015477"><ele>88.0</ele><time>2026-04-19T16:23:01.629Z</time></trkpt><trkpt lat="45.73873069136771" lon="11.694083064109051"><ele>87.5</ele><time>2026-04-19T16:23:02.629Z</time></trkpt><trkpt lat="45.73873213525734" lon="11.693609723347839"><ele>87.0</ele><time>2026-04-19T16:23:03.629Z</time></trkpt><trkpt lat="45.738734451521054" lon="11.693167308479973"><ele>87.5</ele><time>2026-04-19T16:23:04.629Z</time></trkpt><trkpt lat="45.738729334460146" lon="11.692720157896161"><ele>88.0</ele><time>2026-04-19T16:23:05.629Z</time></trkpt><trkpt lat="45.73872616621866" lon="11.692283932707308"><ele>89.0</ele><time>2026-04-19T16:23:06.629Z</time></trkpt><trkpt lat="45.73872828421089" lon="11.691840107315759"><ele>90.0</ele><time>2026-04-19T16:23:07.629Z</time></trkpt><trkpt lat="45.73873237546928" lon="11.691392383245038"><ele>89.0</ele><time>2026-04-19T16:23:08.629Z</time></trkpt><trkpt lat="45.73872825230099" lon="11.690959797803936"><ele>88.0</ele><time>2026-04-19T16:23:09.629Z</time></trkpt><trkpt lat="45.73872737478522" lon="11.690520635596258"><ele>89.0</ele><time>2026-04-19T16:23:10.629Z</time></trkpt><trkpt lat="45.73872755343338" lon="11.690078820039062"><ele>90.0</ele><time>2026-04-19T16:23:11.629Z</time></trkpt><trkpt lat="45.738719150587" lon="11.689629989789198"><ele>89.0</ele><time>2026-04-19T16:23:12.63Z</time></trkpt><trkpt lat="45.73870549115693" lon="11.68918808092921"><ele>88.0</ele><time>2026-04-19T16:23:13.63Z</time></trkpt><trkpt lat="45.73870125322979" lon="11.688740166282114"><ele>88.0</ele><time>2026-04-19T16:23:14.63Z</time></trkpt><trkpt lat="45.738693053851236" lon="11.6883048783322"><ele>88.0</ele><time>2026-04-19T16:23:15.63Z</time></trkpt><trkpt lat="45.7386840802146" lon="11.687873448670034"><ele>88.0</ele><time>2026-04-19T16:23:16.63Z</time></trkpt><trkpt lat="45.738675965477675" lon="11.687450003206182"><ele>88.0</ele><time>2026-04-19T16:23:17.63Z</time></trkpt><trkpt lat="45.73866748952004" lon="11.687028034036887"><ele>88.0</ele><time>2026-04-19T16:23:18.63Z</time></trkpt><trkpt lat="45.73865467054794" lon="11.686616330809679"><ele>88.0</ele><time>2026-04-19T16:23:19.63Z</time></trkpt><trkpt lat="45.73863409324882" lon="11.686196045125719"><ele>88.0</ele><time>2026-04-19T16:23:20.63Z</time></trkpt><trkpt lat="45.73860198990969" lon="11.685776086815297"><ele>88.0</ele><time>2026-04-19T16:23:21.63Z</time></trkpt><trkpt lat="45.7385645003857" lon="11.685355644651725"><ele>87.5</ele><time>2026-04-19T16:23:22.63Z</time></trkpt><trkpt lat="45.738510190557506" lon="11.684942648584956"><ele>87.0</ele><time>2026-04-19T16:23:23.63Z</time></trkpt><trkpt lat="45.73844986418819" lon="11.684544926669266"><ele>87.0</ele><time>2026-04-19T16:23:24.63Z</time></trkpt><trkpt lat="45.73837975757329" lon="11.684154853590814"><ele>87.0</ele><time>2026-04-19T16:23:25.63Z</time></trkpt><trkpt lat="45.738298649988856" lon="11.683771094944532"><ele>87.5</ele><time>2026-04-19T16:23:26.63Z</time></trkpt><trkpt lat="45.738214504102984" lon="11.683396517147365"><ele>88.0</ele><time>2026-04-19T16:23:27.63Z</time></trkpt><trkpt lat="45.7381183294287" lon="11.683024160160471"><ele>88.0</ele><time>2026-04-19T16:23:28.63Z</time></trkpt><trkpt lat="45.73801506753031" lon="11.682657243660884"><ele>88.0</ele><time>2026-04-19T16:23:29.63Z</time></trkpt><trkpt lat="45.737911380483204" lon="11.682293723806296"><ele>88.0</ele><time>2026-04-19T16:23:30.63Z</time></trkpt><trkpt lat="45.73779618751332" lon="11.681935366717683"><ele>88.0</ele><time>2026-04-19T16:23:31.63Z</time></trkpt><trkpt lat="45.73766533596688" lon="11.681570752693045"><ele>87.5</ele><time>2026-04-19T16:23:32.63Z</time></trkpt><trkpt lat="45.73751752557941" lon="11.681206665034146"><ele>87.0</ele><time>2026-04-19T16:23:33.63Z</time></trkpt><trkpt lat="45.73736937217019" lon="11.680820099678794"><ele>87.0</ele><time>2026-04-19T16:23:34.63Z</time></trkpt><trkpt lat="45.73721525782615" lon="11.680423894694705"><ele>87.0</ele><time>2026-04-19T16:23:35.63Z</time></trkpt><trkpt lat="45.73706445527508" lon="11.680009278226699"><ele>87.0</ele><time>2026-04-19T16:23:36.63Z</time></trkpt><trkpt lat="45.736909023654555" lon="11.679593301592353"><ele>87.0</ele><time>2026-04-19T16:23:37.63Z</time></trkpt><trkpt lat="45.73675516082342" lon="11.679175376504215"><ele>87.0</ele><time>2026-04-19T16:23:38.63Z</time></trkpt><trkpt lat="45.736602630412094" lon="11.678766316916418"><ele>87.0</ele><time>2026-04-19T16:23:39.63Z</time></trkpt><trkpt lat="45.73644924208371" lon="11.678362457392321"><ele>87.0</ele><time>2026-04-19T16:23:40.63Z</time></trkpt><trkpt lat="45.736297220246314" lon="11.677963966213111"><ele>87.0</ele><time>2026-04-19T16:23:41.63Z</time></trkpt><trkpt lat="45.73614775200343" lon="11.67756849071961"><ele>87.0</ele><time>2026-04-19T16:23:42.63Z</time></trkpt><trkpt lat="45.73599676252154" lon="11.677175010700175"><ele>87.0</ele><time>2026-04-19T16:23:43.63Z</time></trkpt><trkpt lat="45.73585041120629" lon="11.676780877289845"><ele>87.0</ele><time>2026-04-19T16:23:44.63Z</time></trkpt><trkpt lat="45.735708993822186" lon="11.676395108009842"><ele>87.0</ele><time>2026-04-19T16:23:45.63Z</time></trkpt><trkpt lat="45.73557017897775" lon="11.676023320348387"><ele>87.5</ele><time>2026-04-19T16:23:46.63Z</time></trkpt><trkpt lat="45.73543289820443" lon="11.67565890460829"><ele>88.0</ele><time>2026-04-19T16:23:47.63Z</time></trkpt><trkpt lat="45.73529414045405" lon="11.675304061124114"><ele>88.0</ele><time>2026-04-19T16:23:48.63Z</time></trkpt><trkpt lat="45.73515790925046" lon="11.674969248523718"><ele>88.0</ele><time>2026-04-19T16:23:49.63Z</time></trkpt><trkpt lat="45.73501388346733" lon="11.674635828151265"><ele>87.0</ele><time>2026-04-19T16:23:50.63Z</time></trkpt><trkpt lat="45.734865239807" lon="11.674308105113065"><ele>86.0</ele><time>2026-04-19T16:23:51.63Z</time></trkpt><trkpt lat="45.734703346928" lon="11.67397377729959"><ele>86.0</ele><time>2026-04-19T16:23:52.63Z</time></trkpt><trkpt lat="45.73453183283446" lon="11.673635463914472"><ele>86.0</ele><time>2026-04-19T16:23:53.63Z</time></trkpt><trkpt lat="45.73434960092841" lon="11.673292220154728"><ele>87.0</ele><time>2026-04-19T16:23:54.63Z</time></trkpt><trkpt lat="45.734153041465476" lon="11.672947484745098"><ele>88.0</ele><time>2026-04-19T16:23:55.63Z</time></trkpt><trkpt lat="45.73394358838768" lon="11.672600240050095"><ele>88.0</ele><time>2026-04-19T16:23:56.63Z</time></trkpt><trkpt lat="45.73371730717778" lon="11.672248510438642"><ele>88.0</ele><time>2026-04-19T16:23:57.63Z</time></trkpt><trkpt lat="45.73347327502732" lon="11.671897473272473"><ele>88.0</ele><time>2026-04-19T16:23:58.63Z</time></trkpt><trkpt lat="45.73321845570967" lon="11.67154200126479"><ele>88.0</ele><time>2026-04-19T16:23:59.63Z</time></trkpt><trkpt lat="45.7329443249061" lon="11.671181407276944"><ele>87.5</ele><time>2026-04-19T16:24:00.63Z</time></trkpt><trkpt lat="45.73266563442241" lon="11.67082016996762"><ele>87.0</ele><time>2026-04-19T16:24:01.63Z</time></trkpt><trkpt lat="45.732395368403026" lon="11.670464746657196"><ele>86.5</ele><time>2026-04-19T16:24:02.63Z</time></trkpt><trkpt lat="45.732135440592806" lon="11.670126449632969"><ele>86.0</ele><time>2026-04-19T16:24:03.63Z</time></trkpt><trkpt lat="45.73188504341918" lon="11.669789122236914"><ele>86.0</ele><time>2026-04-19T16:24:04.63Z</time></trkpt><trkpt lat="45.73164347620326" lon="11.669456781648625"><ele>86.0</ele><time>2026-04-19T16:24:05.63Z</time></trkpt><trkpt lat="45.731410959203764" lon="11.669125987524588"><ele>86.0</ele><time>2026-04-19T16:24:06.63Z</time></trkpt><trkpt lat="45.73118414986647" lon="11.668812501975886"><ele>86.0</ele><time>2026-04-19T16:24:07.63Z</time></trkpt><trkpt lat="45.73096243544848" lon="11.668497889567725"><ele>85.5</ele><time>2026-04-19T16:24:08.63Z</time></trkpt><trkpt lat="45.73074636489089" lon="11.668165286942637"><ele>85.0</ele><time>2026-04-19T16:24:09.63Z</time></trkpt><trkpt lat="45.730530655349796" lon="11.66783107947431"><ele>85.0</ele><time>2026-04-19T16:24:10.63Z</time></trkpt><trkpt lat="45.730323887945055" lon="11.667489815706832"><ele>85.0</ele><time>2026-04-19T16:24:11.63Z</time></trkpt><trkpt lat="45.73012846611368" lon="11.667151351076237"><ele>85.5</ele><time>2026-04-19T16:24:12.63Z</time></trkpt><trkpt lat="45.729934434799624" lon="11.666797838985952"><ele>86.0</ele><time>2026-04-19T16:24:13.63Z</time></trkpt><trkpt lat="45.72974960828558" lon="11.666432303737974"><ele>86.0</ele><time>2026-04-19T16:24:14.63Z</time></trkpt><trkpt lat="45.72956092492499" lon="11.666071416979333"><ele>86.0</ele><time>2026-04-19T16:24:15.63Z</time></trkpt><trkpt lat="45.72937860778217" lon="11.665703097092543"><ele>86.0</ele><time>2026-04-19T16:24:16.63Z</time></trkpt><trkpt lat="45.729198438423424" lon="11.665326647560954"><ele>86.0</ele><time>2026-04-19T16:24:17.63Z</time></trkpt><trkpt lat="45.72902173166419" lon="11.664936048983552"><ele>86.0</ele><time>2026-04-19T16:24:18.648Z</time></trkpt><trkpt lat="45.72887955634657" lon="11.664530451940779"><ele>86.0</ele><time>2026-04-19T16:24:19.643Z</time></trkpt><trkpt lat="45.72870444851201" lon="11.664134964357244"><ele>86.0</ele><time>2026-04-19T16:24:20.643Z</time></trkpt><trkpt lat="45.72851751178625" lon="11.663763682904161"><ele>86.0</ele><time>2026-04-19T16:24:21.651Z</time></trkpt><trkpt lat="45.72833759714451" lon="11.662835972394479"><ele>86.5</ele><time>2026-04-19T16:24:23.63Z</time></trkpt><trkpt lat="45.72820492875259" lon="11.662422402275952"><ele>87.0</ele><time>2026-04-19T16:24:24.63Z</time></trkpt><trkpt lat="45.728108291786086" lon="11.661998115728283"><ele>86.0</ele><time>2026-04-19T16:24:25.63Z</time></trkpt><trkpt lat="45.72798411388858" lon="11.661597880791016"><ele>85.0</ele><time>2026-04-19T16:24:26.63Z</time></trkpt><trkpt lat="45.72788081953896" lon="11.66118326786235"><ele>85.0</ele><time>2026-04-19T16:24:27.63Z</time></trkpt><trkpt lat="45.72778165535025" lon="11.660746083607696"><ele>85.0</ele><time>2026-04-19T16:24:28.63Z</time></trkpt><trkpt lat="45.72769398007368" lon="11.660295125961861"><ele>85.5</ele><time>2026-04-19T16:24:29.63Z</time></trkpt><trkpt lat="45.7276122052073" lon="11.659837250258347"><ele>86.0</ele><time>2026-04-19T16:24:30.63Z</time></trkpt><trkpt lat="45.727538868974065" lon="11.659377901058315"><ele>86.0</ele><time>2026-04-19T16:24:31.63Z</time></trkpt><trkpt lat="45.727468288506856" lon="11.658917617067207"><ele>86.0</ele><time>2026-04-19T16:24:32.63Z</time></trkpt><trkpt lat="45.72742268830738" lon="11.658449359795943"><ele>85.5</ele><time>2026-04-19T16:24:33.63Z</time></trkpt><trkpt lat="45.72737703305069" lon="11.657985013300799"><ele>85.0</ele><time>2026-04-19T16:24:34.63Z</time></trkpt><trkpt lat="45.72734268997442" lon="11.65752720668027"><ele>86.0</ele><time>2026-04-19T16:24:35.63Z</time></trkpt><trkpt lat="45.72728870975533" lon="11.657077404920528"><ele>87.0</ele><time>2026-04-19T16:24:36.63Z</time></trkpt><trkpt lat="45.72724309045216" lon="11.656622417686345"><ele>87.5</ele><time>2026-04-19T16:24:37.642Z</time></trkpt><trkpt lat="45.72720409059171" lon="11.656156157351843"><ele>88.0</ele><time>2026-04-19T16:24:38.645Z</time></trkpt><trkpt lat="45.72718964017261" lon="11.655687403497069"><ele>88.0</ele><time>2026-04-19T16:24:39.643Z</time></trkpt><trkpt lat="45.72717178355774" lon="11.655221105081571"><ele>88.0</ele><time>2026-04-19T16:24:40.642Z</time></trkpt><trkpt lat="45.72686767579331" lon="11.650553977878555"><ele>83.0</ele><time>2026-04-19T16:24:52.989Z</time></trkpt><trkpt lat="45.72637493260738" lon="11.649495167668581"><ele>82.5</ele><time>2026-04-19T16:24:53.63Z</time></trkpt><trkpt lat="45.72624502642594" lon="11.649076734976367"><ele>82.0</ele><time>2026-04-19T16:24:54.63Z</time></trkpt><trkpt lat="45.72609894830695" lon="11.64865223240637"><ele>82.0</ele><time>2026-04-19T16:24:55.63Z</time></trkpt><trkpt lat="45.72596968514883" lon="11.648262344855794"><ele>82.0</ele><time>2026-04-19T16:24:56.63Z</time></trkpt><trkpt lat="45.72580273050956" lon="11.647890957361971"><ele>82.5</ele><time>2026-04-19T16:24:57.63Z</time></trkpt><trkpt lat="45.72562327154091" lon="11.64752329916459"><ele>83.0</ele><time>2026-04-19T16:24:58.63Z</time></trkpt><trkpt lat="45.72543457379121" lon="11.647153410541787"><ele>83.0</ele><time>2026-04-19T16:24:59.63Z</time></trkpt><trkpt lat="45.72522572948435" lon="11.646789284429333"><ele>83.0</ele><time>2026-04-19T16:25:00.63Z</time></trkpt><trkpt lat="45.72502457161562" lon="11.646435742094658"><ele>83.0</ele><time>2026-04-19T16:25:01.63Z</time></trkpt><trkpt lat="45.7247943424785" lon="11.646106554994853"><ele>83.0</ele><time>2026-04-19T16:25:02.63Z</time></trkpt><trkpt lat="45.724565521044326" lon="11.645790456139647"><ele>82.5</ele><time>2026-04-19T16:25:03.63Z</time></trkpt><trkpt lat="45.72430840561513" lon="11.645474225158305"><ele>82.0</ele><time>2026-04-19T16:25:04.63Z</time></trkpt><trkpt lat="45.72403717731845" lon="11.645123054165477"><ele>82.0</ele><time>2026-04-19T16:25:05.63Z</time></trkpt><trkpt lat="45.72377288388119" lon="11.64482883718766"><ele>82.0</ele><time>2026-04-19T16:25:06.63Z</time></trkpt><trkpt lat="45.72350089640597" lon="11.644539042084821"><ele>81.5</ele><time>2026-04-19T16:25:07.63Z</time></trkpt><trkpt lat="45.72322735749082" lon="11.644265588537836"><ele>81.0</ele><time>2026-04-19T16:25:08.63Z</time></trkpt><trkpt lat="45.722945006430315" lon="11.643987216261754"><ele>81.0</ele><time>2026-04-19T16:25:09.63Z</time></trkpt><trkpt lat="45.72265394268482" lon="11.643706563437151"><ele>81.0</ele><time>2026-04-19T16:25:10.63Z</time></trkpt><trkpt lat="45.72236062419851" lon="11.643412803661993"><ele>81.0</ele><time>2026-04-19T16:25:11.63Z</time></trkpt><trkpt lat="45.7220732792647" lon="11.643107869500318"><ele>81.0</ele><time>2026-04-19T16:25:12.63Z</time></trkpt><trkpt lat="45.72178579576426" lon="11.642810227966581"><ele>81.5</ele><time>2026-04-19T16:25:13.63Z</time></trkpt><trkpt lat="45.721504609945946" lon="11.642521742423723"><ele>82.0</ele><time>2026-04-19T16:25:14.63Z</time></trkpt><trkpt lat="45.721221643073505" lon="11.642232937361573"><ele>81.5</ele><time>2026-04-19T16:25:15.63Z</time></trkpt><trkpt lat="45.720940573952284" lon="11.641949782806956"><ele>81.0</ele><time>2026-04-19T16:25:16.63Z</time></trkpt><trkpt lat="45.72066895437867" lon="11.641674041068807"><ele>81.0</ele><time>2026-04-19T16:25:17.63Z</time></trkpt><trkpt lat="45.72040219126974" lon="11.641395349699765"><ele>81.0</ele><time>2026-04-19T16:25:18.631Z</time></trkpt><trkpt lat="45.72013509584573" lon="11.641098493356722"><ele>81.0</ele><time>2026-04-19T16:25:19.631Z</time></trkpt><trkpt lat="45.71986288845597" lon="11.640802188288891"><ele>81.0</ele><time>2026-04-19T16:25:20.631Z</time></trkpt><trkpt lat="45.719588031372844" lon="11.640506807130148"><ele>81.5</ele><time>2026-04-19T16:25:21.631Z</time></trkpt><trkpt lat="45.719313523422464" lon="11.64021340826162"><ele>82.0</ele><time>2026-04-19T16:25:22.631Z</time></trkpt><trkpt lat="45.719033830047636" lon="11.63991899546202"><ele>82.0</ele><time>2026-04-19T16:25:23.631Z</time></trkpt><trkpt lat="45.718753038989576" lon="11.639620510359316"><ele>82.0</ele><time>2026-04-19T16:25:24.631Z</time></trkpt><trkpt lat="45.7184641631068" lon="11.63931564643662"><ele>82.5</ele><time>2026-04-19T16:25:25.631Z</time></trkpt><trkpt lat="45.71816590347344" lon="11.63902639854704"><ele>83.0</ele><time>2026-04-19T16:25:26.631Z</time></trkpt><trkpt lat="45.7178721288205" lon="11.638730275579793"><ele>82.0</ele><time>2026-04-19T16:25:27.631Z</time></trkpt><trkpt lat="45.71757841145277" lon="11.638425915795256"><ele>81.0</ele><time>2026-04-19T16:25:28.631Z</time></trkpt><trkpt lat="45.71728458980527" lon="11.63812982218607"><ele>81.0</ele><time>2026-04-19T16:25:29.631Z</time></trkpt><trkpt lat="45.71699061866307" lon="11.637821824891708"><ele>81.0</ele><time>2026-04-19T16:25:30.631Z</time></trkpt><trkpt lat="45.71669523595192" lon="11.637517225736492"><ele>81.0</ele><time>2026-04-19T16:25:31.631Z</time></trkpt><trkpt lat="45.71640416910827" lon="11.637218894291243"><ele>81.0</ele><time>2026-04-19T16:25:32.631Z</time></trkpt><trkpt lat="45.716119026391176" lon="11.636928328960616"><ele>79.5</ele><time>2026-04-19T16:25:33.631Z</time></trkpt><trkpt lat="45.715843665429176" lon="11.636638854988234"><ele>78.0</ele><time>2026-04-19T16:25:34.631Z</time></trkpt><trkpt lat="45.71556623272167" lon="11.636350619067258"><ele>78.5</ele><time>2026-04-19T16:25:35.631Z</time></trkpt><trkpt lat="45.71529695331611" lon="11.636072135270673"><ele>79.0</ele><time>2026-04-19T16:25:36.631Z</time></trkpt><trkpt lat="45.71503353078453" lon="11.635798401324402"><ele>79.0</ele><time>2026-04-19T16:25:37.631Z</time></trkpt><trkpt lat="45.714769544822346" lon="11.63551404392095"><ele>79.0</ele><time>2026-04-19T16:25:38.631Z</time></trkpt><trkpt lat="45.71450558433962" lon="11.635228216332322"><ele>79.5</ele><time>2026-04-19T16:25:39.631Z</time></trkpt><trkpt lat="45.71424898673905" lon="11.634933154280212"><ele>80.0</ele><time>2026-04-19T16:25:40.631Z</time></trkpt><trkpt lat="45.714002220322676" lon="11.634642870405745"><ele>80.0</ele><time>2026-04-19T16:25:41.631Z</time></trkpt><trkpt lat="45.713756182498074" lon="11.634341739153173"><ele>80.0</ele><time>2026-04-19T16:25:42.631Z</time></trkpt><trkpt lat="45.713520924589055" lon="11.63403040515157"><ele>78.5</ele><time>2026-04-19T16:25:43.631Z</time></trkpt><trkpt lat="45.71328618585411" lon="11.633703268722691"><ele>77.0</ele><time>2026-04-19T16:25:44.631Z</time></trkpt><trkpt lat="45.71305677461721" lon="11.633376359136086"><ele>77.0</ele><time>2026-04-19T16:25:45.631Z</time></trkpt><trkpt lat="45.71283735586606" lon="11.633036755226058"><ele>77.0</ele><time>2026-04-19T16:25:46.631Z</time></trkpt><trkpt lat="45.71262543541056" lon="11.632684486250831"><ele>76.5</ele><time>2026-04-19T16:25:47.631Z</time></trkpt><trkpt lat="45.71241890055" lon="11.632333426523568"><ele>76.0</ele><time>2026-04-19T16:25:48.631Z</time></trkpt><trkpt lat="45.7122186600977" lon="11.631966451363937"><ele>76.0</ele><time>2026-04-19T16:25:49.631Z</time></trkpt><trkpt lat="45.71201870784498" lon="11.631591460083124"><ele>76.0</ele><time>2026-04-19T16:25:50.631Z</time></trkpt><trkpt lat="45.71182579664542" lon="11.631201149244234"><ele>75.5</ele><time>2026-04-19T16:25:51.631Z</time></trkpt><trkpt lat="45.711636739493564" lon="11.630802464743624"><ele>75.0</ele><time>2026-04-19T16:25:52.631Z</time></trkpt><trkpt lat="45.711457353487056" lon="11.630394015196003"><ele>77.0</ele><time>2026-04-19T16:25:53.631Z</time></trkpt><trkpt lat="45.71127899307055" lon="11.629976332265718"><ele>79.0</ele><time>2026-04-19T16:25:54.631Z</time></trkpt><trkpt lat="45.711110894116125" lon="11.629562145970425"><ele>78.5</ele><time>2026-04-19T16:25:55.631Z</time></trkpt><trkpt lat="45.710947963769826" lon="11.629162738827379"><ele>78.0</ele><time>2026-04-19T16:25:56.631Z</time></trkpt><trkpt lat="45.71079650717373" lon="11.628751209333148"><ele>78.5</ele><time>2026-04-19T16:25:57.631Z</time></trkpt><trkpt lat="45.71065351282355" lon="11.628342064214273"><ele>79.0</ele><time>2026-04-19T16:25:58.631Z</time></trkpt><trkpt lat="45.71051838109282" lon="11.627933550937552"><ele>78.5</ele><time>2026-04-19T16:25:59.631Z</time></trkpt><trkpt lat="45.71039346002821" lon="11.627523797603036"><ele>78.0</ele><time>2026-04-19T16:26:00.631Z</time></trkpt><trkpt lat="45.71027076079787" lon="11.627120969451708"><ele>78.0</ele><time>2026-04-19T16:26:01.631Z</time></trkpt><trkpt lat="45.710156899487686" lon="11.626707734706141"><ele>78.0</ele><time>2026-04-19T16:26:02.631Z</time></trkpt><trkpt lat="45.71004917676522" lon="11.626266318944204"><ele>78.0</ele><time>2026-04-19T16:26:03.631Z</time></trkpt><trkpt lat="45.7099519074025" lon="11.62581082997887"><ele>78.0</ele><time>2026-04-19T16:26:04.631Z</time></trkpt><trkpt lat="45.70986090051555" lon="11.6253432843589"><ele>77.5</ele><time>2026-04-19T16:26:05.631Z</time></trkpt><trkpt lat="45.7097773122718" lon="11.624863120611389"><ele>77.0</ele><time>2026-04-19T16:26:06.631Z</time></trkpt><trkpt lat="45.70969280246235" lon="11.624368452216647"><ele>76.5</ele><time>2026-04-19T16:26:07.631Z</time></trkpt><trkpt lat="45.70960872054694" lon="11.623870392000008"><ele>76.0</ele><time>2026-04-19T16:26:08.631Z</time></trkpt><trkpt lat="45.70952292736364" lon="11.623367041529246"><ele>76.0</ele><time>2026-04-19T16:26:09.631Z</time></trkpt><trkpt lat="45.70943958958374" lon="11.622866112256508"><ele>76.0</ele><time>2026-04-19T16:26:10.631Z</time></trkpt><trkpt lat="45.709360665784835" lon="11.622375540464525"><ele>77.0</ele><time>2026-04-19T16:26:11.631Z</time></trkpt><trkpt lat="45.709279887179854" lon="11.62188883551624"><ele>78.0</ele><time>2026-04-19T16:26:12.631Z</time></trkpt><trkpt lat="45.70919874114712" lon="11.621414651885225"><ele>78.5</ele><time>2026-04-19T16:26:13.631Z</time></trkpt><trkpt lat="45.70911906276206" lon="11.620946299861163"><ele>79.0</ele><time>2026-04-19T16:26:14.631Z</time></trkpt><trkpt lat="45.70904591745435" lon="11.620490331529725"><ele>78.5</ele><time>2026-04-19T16:26:15.631Z</time></trkpt><trkpt lat="45.70897094228408" lon="11.620048275171547"><ele>78.0</ele><time>2026-04-19T16:26:16.631Z</time></trkpt><trkpt lat="45.70889806999268" lon="11.61961564906583"><ele>78.0</ele><time>2026-04-19T16:26:17.631Z</time></trkpt><trkpt lat="45.70883034780983" lon="11.619190847887976"><ele>78.0</ele><time>2026-04-19T16:26:18.631Z</time></trkpt><trkpt lat="45.708756890196305" lon="11.618776208894474"><ele>78.0</ele><time>2026-04-19T16:26:19.631Z</time></trkpt><trkpt lat="45.70868692316938" lon="11.618351756813093"><ele>78.0</ele><time>2026-04-19T16:26:20.631Z</time></trkpt><trkpt lat="45.708611732666434" lon="11.617933778952128"><ele>77.0</ele><time>2026-04-19T16:26:21.631Z</time></trkpt><trkpt lat="45.708525387269866" lon="11.61751955068515"><ele>76.0</ele><time>2026-04-19T16:26:22.631Z</time></trkpt><trkpt lat="45.70844192907757" lon="11.617109923014512"><ele>75.5</ele><time>2026-04-19T16:26:23.631Z</time></trkpt><trkpt lat="45.70835875397809" lon="11.616694786346969"><ele>75.0</ele><time>2026-04-19T16:26:24.631Z</time></trkpt><trkpt lat="45.70827002476369" lon="11.616278860685265"><ele>76.5</ele><time>2026-04-19T16:26:25.631Z</time></trkpt><trkpt lat="45.70818382427648" lon="11.61585941095371"><ele>78.0</ele><time>2026-04-19T16:26:26.631Z</time></trkpt><trkpt lat="45.70808836367792" lon="11.615441226649214"><ele>78.0</ele><time>2026-04-19T16:26:27.631Z</time></trkpt><trkpt lat="45.7079960262348" lon="11.615019090449826"><ele>78.0</ele><time>2026-04-19T16:26:28.631Z</time></trkpt><trkpt lat="45.70790707834877" lon="11.614600177668178"><ele>78.0</ele><time>2026-04-19T16:26:29.631Z</time></trkpt><trkpt lat="45.707815301480096" lon="11.614177860947366"><ele>78.0</ele><time>2026-04-19T16:26:30.631Z</time></trkpt><trkpt lat="45.70771370865117" lon="11.613766761072931"><ele>78.0</ele><time>2026-04-19T16:26:31.631Z</time></trkpt><trkpt lat="45.70761796652638" lon="11.61334971022157"><ele>78.0</ele><time>2026-04-19T16:26:32.631Z</time></trkpt><trkpt lat="45.70751747392291" lon="11.61293503629071"><ele>77.5</ele><time>2026-04-19T16:26:33.631Z</time></trkpt><trkpt lat="45.707408580233476" lon="11.612524442842066"><ele>77.0</ele><time>2026-04-19T16:26:34.631Z</time></trkpt><trkpt lat="45.70729805584983" lon="11.612112369709518"><ele>76.5</ele><time>2026-04-19T16:26:35.631Z</time></trkpt><trkpt lat="45.707187882223295" lon="11.611703895315477"><ele>76.0</ele><time>2026-04-19T16:26:36.631Z</time></trkpt><trkpt lat="45.70707980106428" lon="11.61129218384903"><ele>76.0</ele><time>2026-04-19T16:26:37.631Z</time></trkpt><trkpt lat="45.70696296456724" lon="11.610864944954361"><ele>76.0</ele><time>2026-04-19T16:26:38.631Z</time></trkpt><trkpt lat="45.70684185640538" lon="11.61043051944762"><ele>76.5</ele><time>2026-04-19T16:26:39.631Z</time></trkpt><trkpt lat="45.70671617774997" lon="11.609994466094971"><ele>77.0</ele><time>2026-04-19T16:26:40.631Z</time></trkpt><trkpt lat="45.706582578072215" lon="11.609549474818946"><ele>77.5</ele><time>2026-04-19T16:26:41.631Z</time></trkpt><trkpt lat="45.70644880623135" lon="11.609103977124148"><ele>78.0</ele><time>2026-04-19T16:26:42.631Z</time></trkpt><trkpt lat="45.70631048327926" lon="11.608659966830187"><ele>78.5</ele><time>2026-04-19T16:26:43.631Z</time></trkpt><trkpt lat="45.706169768160784" lon="11.60822386644805"><ele>79.0</ele><time>2026-04-19T16:26:44.631Z</time></trkpt><trkpt lat="45.70603069666602" lon="11.607787124334036"><ele>79.0</ele><time>2026-04-19T16:26:45.631Z</time></trkpt><trkpt lat="45.705884672973426" lon="11.607345655480728"><ele>79.0</ele><time>2026-04-19T16:26:46.631Z</time></trkpt><trkpt lat="45.70574088175545" lon="11.606914258943865"><ele>78.5</ele><time>2026-04-19T16:26:47.631Z</time></trkpt><trkpt lat="45.70560005925578" lon="11.606484934321987"><ele>78.0</ele><time>2026-04-19T16:26:48.631Z</time></trkpt><trkpt lat="45.70545391962033" lon="11.606059505606842"><ele>78.0</ele><time>2026-04-19T16:26:49.631Z</time></trkpt><trkpt lat="45.705308334407626" lon="11.605636356478549"><ele>78.0</ele><time>2026-04-19T16:26:50.631Z</time></trkpt><trkpt lat="45.705154140007174" lon="11.605211494237105"><ele>78.0</ele><time>2026-04-19T16:26:51.631Z</time></trkpt><trkpt lat="45.705000541834984" lon="11.604768497908475"><ele>78.0</ele><time>2026-04-19T16:26:52.631Z</time></trkpt><trkpt lat="45.704848149664805" lon="11.604308494726242"><ele>78.0</ele><time>2026-04-19T16:26:53.631Z</time></trkpt><trkpt lat="45.70468740157448" lon="11.603840712294383"><ele>78.0</ele><time>2026-04-19T16:26:54.631Z</time></trkpt><trkpt lat="45.70452337460187" lon="11.603359773312844"><ele>77.0</ele><time>2026-04-19T16:26:55.631Z</time></trkpt><trkpt lat="45.70435476229713" lon="11.602875400644917"><ele>76.0</ele><time>2026-04-19T16:26:56.631Z</time></trkpt><trkpt lat="45.70418579158558" lon="11.602397595980042"><ele>76.5</ele><time>2026-04-19T16:26:57.631Z</time></trkpt><trkpt lat="45.704019992788574" lon="11.601915755648433"><ele>77.0</ele><time>2026-04-19T16:26:58.631Z</time></trkpt><trkpt lat="45.7038583567805" lon="11.601439629175536"><ele>77.0</ele><time>2026-04-19T16:26:59.631Z</time></trkpt><trkpt lat="45.7036936262791" lon="11.600963550452216"><ele>77.0</ele><time>2026-04-19T16:27:00.631Z</time></trkpt><trkpt lat="45.70353052284098" lon="11.600491548472286"><ele>77.5</ele><time>2026-04-19T16:27:01.631Z</time></trkpt><trkpt lat="45.70337430638547" lon="11.60002317264222"><ele>78.0</ele><time>2026-04-19T16:27:02.631Z</time></trkpt><trkpt lat="45.70322458020323" lon="11.599558269579479"><ele>78.0</ele><time>2026-04-19T16:27:03.631Z</time></trkpt><trkpt lat="45.703082330456816" lon="11.599094657882096"><ele>78.0</ele><time>2026-04-19T16:27:04.631Z</time></trkpt><trkpt lat="45.70294484343418" lon="11.598622959602178"><ele>78.0</ele><time>2026-04-19T16:27:05.631Z</time></trkpt><trkpt lat="45.702805651517515" lon="11.59815913182144"><ele>78.0</ele><time>2026-04-19T16:27:06.631Z</time></trkpt><trkpt lat="45.70266753406997" lon="11.59769299057344"><ele>79.0</ele><time>2026-04-19T16:27:07.631Z</time></trkpt><trkpt lat="45.70253595094394" lon="11.597229671502738"><ele>80.0</ele><time>2026-04-19T16:27:08.631Z</time></trkpt><trkpt lat="45.702401627909445" lon="11.596760207382273"><ele>80.5</ele><time>2026-04-19T16:27:09.631Z</time></trkpt><trkpt lat="45.702271400887405" lon="11.596295683354121"><ele>81.0</ele><time>2026-04-19T16:27:10.631Z</time></trkpt><trkpt lat="45.70213503778704" lon="11.595830503487495"><ele>81.0</ele><time>2026-04-19T16:27:11.631Z</time></trkpt><trkpt lat="45.70200030964899" lon="11.595363250895078"><ele>81.0</ele><time>2026-04-19T16:27:12.631Z</time></trkpt><trkpt lat="45.70186298134253" lon="11.59489138502816"><ele>81.5</ele><time>2026-04-19T16:27:13.631Z</time></trkpt><trkpt lat="45.7017210472882" lon="11.594413387387947"><ele>82.0</ele><time>2026-04-19T16:27:14.631Z</time></trkpt><trkpt lat="45.701576168583216" lon="11.593930433412565"><ele>82.0</ele><time>2026-04-19T16:27:15.631Z</time></trkpt><trkpt lat="45.70142535532397" lon="11.593433369540499"><ele>82.0</ele><time>2026-04-19T16:27:16.631Z</time></trkpt><trkpt lat="45.70128038633505" lon="11.592953837027506"><ele>82.5</ele><time>2026-04-19T16:27:17.631Z</time></trkpt><trkpt lat="45.70114419834978" lon="11.592485668313161"><ele>83.0</ele><time>2026-04-19T16:27:18.631Z</time></trkpt><trkpt lat="45.701007316336316" lon="11.592015631191705"><ele>83.5</ele><time>2026-04-19T16:27:19.631Z</time></trkpt><trkpt lat="45.70087206108315" lon="11.591557122975207"><ele>84.0</ele><time>2026-04-19T16:27:20.631Z</time></trkpt><trkpt lat="45.70073427596451" lon="11.591107343548055"><ele>84.0</ele><time>2026-04-19T16:27:21.631Z</time></trkpt><trkpt lat="45.70060340020156" lon="11.590662397898415"><ele>84.0</ele><time>2026-04-19T16:27:22.631Z</time></trkpt><trkpt lat="45.70047077894529" lon="11.59023275985197"><ele>84.0</ele><time>2026-04-19T16:27:23.631Z</time></trkpt><trkpt lat="45.70034310516891" lon="11.589794722764696"><ele>84.0</ele><time>2026-04-19T16:27:24.632Z</time></trkpt><trkpt lat="45.70020718257589" lon="11.58936243454978"><ele>86.0</ele><time>2026-04-19T16:27:25.632Z</time></trkpt><trkpt lat="45.70008008678907" lon="11.58892906963636"><ele>88.0</ele><time>2026-04-19T16:27:26.632Z</time></trkpt><trkpt lat="45.69994500080008" lon="11.588488493571102"><ele>88.0</ele><time>2026-04-19T16:27:27.632Z</time></trkpt><trkpt lat="45.699810204652906" lon="11.58803960894038"><ele>88.0</ele><time>2026-04-19T16:27:28.632Z</time></trkpt><trkpt lat="45.699679217788756" lon="11.587590834316478"><ele>88.5</ele><time>2026-04-19T16:27:29.632Z</time></trkpt><trkpt lat="45.6995390945704" lon="11.587121445441136"><ele>89.0</ele><time>2026-04-19T16:27:30.632Z</time></trkpt><trkpt lat="45.69939757010666" lon="11.586643505599294"><ele>89.5</ele><time>2026-04-19T16:27:31.633Z</time></trkpt><trkpt lat="45.69925491462127" lon="11.586152703102064"><ele>90.0</ele><time>2026-04-19T16:27:32.633Z</time></trkpt><trkpt lat="45.699109505496935" lon="11.585656900365363"><ele>90.0</ele><time>2026-04-19T16:27:33.633Z</time></trkpt><trkpt lat="45.698964157377205" lon="11.585151149817493"><ele>90.0</ele><time>2026-04-19T16:27:34.633Z</time></trkpt><trkpt lat="45.69881973294408" lon="11.584657751794323"><ele>90.0</ele><time>2026-04-19T16:27:35.633Z</time></trkpt><trkpt lat="45.698674871740806" lon="11.58417491320538"><ele>90.0</ele><time>2026-04-19T16:27:36.633Z</time></trkpt><trkpt lat="45.698534139913505" lon="11.583699160497513"><ele>90.5</ele><time>2026-04-19T16:27:37.633Z</time></trkpt><trkpt lat="45.698398873203026" lon="11.583233023207793"><ele>91.0</ele><time>2026-04-19T16:27:38.633Z</time></trkpt><trkpt lat="45.69825950311274" lon="11.582767278856709"><ele>91.5</ele><time>2026-04-19T16:27:39.633Z</time></trkpt><trkpt lat="45.69811677454279" lon="11.582316904752727"><ele>92.0</ele><time>2026-04-19T16:27:40.633Z</time></trkpt><trkpt lat="45.69797889497213" lon="11.581857130917232"><ele>92.5</ele><time>2026-04-19T16:27:41.633Z</time></trkpt><trkpt lat="45.697856785707174" lon="11.58139526843093"><ele>93.0</ele><time>2026-04-19T16:27:42.633Z</time></trkpt><trkpt lat="45.697729861240674" lon="11.580936680236672"><ele>93.5</ele><time>2026-04-19T16:27:43.633Z</time></trkpt><trkpt lat="45.69761573686073" lon="11.580474922644065"><ele>94.0</ele><time>2026-04-19T16:27:44.633Z</time></trkpt><trkpt lat="45.697505337877736" lon="11.580010454278119"><ele>94.5</ele><time>2026-04-19T16:27:45.633Z</time></trkpt><trkpt lat="45.697393187509995" lon="11.579546991005268"><ele>95.0</ele><time>2026-04-19T16:27:46.633Z</time></trkpt><trkpt lat="45.69729040734085" lon="11.579088062348172"><ele>94.5</ele><time>2026-04-19T16:27:47.633Z</time></trkpt><trkpt lat="45.697191504191764" lon="11.578622530189135"><ele>94.0</ele><time>2026-04-19T16:27:48.633Z</time></trkpt><trkpt lat="45.69708810851863" lon="11.578151806776036"><ele>94.0</ele><time>2026-04-19T16:27:49.633Z</time></trkpt><trkpt lat="45.69698828734233" lon="11.577677585653191"><ele>94.0</ele><time>2026-04-19T16:27:50.633Z</time></trkpt><trkpt lat="45.69689451511234" lon="11.577197887983823"><ele>93.5</ele><time>2026-04-19T16:27:51.633Z</time></trkpt><trkpt lat="45.69681176317802" lon="11.576746382480954"><ele>93.0</ele><time>2026-04-19T16:27:52.633Z</time></trkpt><trkpt lat="45.69672948556563" lon="11.57628738134026"><ele>93.5</ele><time>2026-04-19T16:27:53.633Z</time></trkpt><trkpt lat="45.696657905900004" lon="11.575797256402687"><ele>94.0</ele><time>2026-04-19T16:27:54.633Z</time></trkpt><trkpt lat="45.69658968393061" lon="11.575301690227766"><ele>94.5</ele><time>2026-04-19T16:27:55.633Z</time></trkpt><trkpt lat="45.6965116473671" lon="11.574771653682538"><ele>95.0</ele><time>2026-04-19T16:27:56.633Z</time></trkpt><trkpt lat="45.69644001271003" lon="11.574247728123346"><ele>95.0</ele><time>2026-04-19T16:27:57.633Z</time></trkpt><trkpt lat="45.69636491553041" lon="11.573703523351458"><ele>95.0</ele><time>2026-04-19T16:27:58.633Z</time></trkpt><trkpt lat="45.696308077147236" lon="11.573161561698338"><ele>95.5</ele><time>2026-04-19T16:27:59.633Z</time></trkpt><trkpt lat="45.69624672085703" lon="11.572614345569354"><ele>96.0</ele><time>2026-04-19T16:28:00.633Z</time></trkpt><trkpt lat="45.69619660505488" lon="11.57207263381434"><ele>96.0</ele><time>2026-04-19T16:28:01.633Z</time></trkpt><trkpt lat="45.69615667151122" lon="11.571524078228727"><ele>96.0</ele><time>2026-04-19T16:28:02.633Z</time></trkpt><trkpt lat="45.69611453542901" lon="11.570982432818482"><ele>96.0</ele><time>2026-04-19T16:28:03.633Z</time></trkpt><trkpt lat="45.69608070584706" lon="11.570446287645588"><ele>96.0</ele><time>2026-04-19T16:28:04.633Z</time></trkpt><trkpt lat="45.69605224696312" lon="11.569912376931017"><ele>96.0</ele><time>2026-04-19T16:28:05.633Z</time></trkpt><trkpt lat="45.69602694791358" lon="11.569384379341127"><ele>96.0</ele><time>2026-04-19T16:28:06.633Z</time></trkpt><trkpt lat="45.69600647533985" lon="11.568856689291652"><ele>96.5</ele><time>2026-04-19T16:28:07.633Z</time></trkpt><trkpt lat="45.6959850058642" lon="11.568327077734585"><ele>97.0</ele><time>2026-04-19T16:28:08.633Z</time></trkpt><trkpt lat="45.69597030235982" lon="11.567807794054614"><ele>97.5</ele><time>2026-04-19T16:28:09.633Z</time></trkpt><trkpt lat="45.695947659375555" lon="11.567291641150614"><ele>98.0</ele><time>2026-04-19T16:28:10.633Z</time></trkpt><trkpt lat="45.69593197201381" lon="11.566785691077936"><ele>97.5</ele><time>2026-04-19T16:28:11.633Z</time></trkpt><trkpt lat="45.69591848830314" lon="11.566287658836927"><ele>97.0</ele><time>2026-04-19T16:28:12.633Z</time></trkpt><trkpt lat="45.69590338809177" lon="11.565798313630681"><ele>98.5</ele><time>2026-04-19T16:28:13.633Z</time></trkpt><trkpt lat="45.695894359029054" lon="11.565317292929072"><ele>100.0</ele><time>2026-04-19T16:28:14.633Z</time></trkpt><trkpt lat="45.69588419644614" lon="11.564850060738845"><ele>101.0</ele><time>2026-04-19T16:28:15.633Z</time></trkpt><trkpt lat="45.69587705340313" lon="11.564384233658"><ele>102.0</ele><time>2026-04-19T16:28:16.633Z</time></trkpt><trkpt lat="45.69586164553352" lon="11.563937143652467"><ele>101.5</ele><time>2026-04-19T16:28:17.633Z</time></trkpt><trkpt lat="45.695855300863194" lon="11.563478827500191"><ele>101.0</ele><time>2026-04-19T16:28:18.633Z</time></trkpt><trkpt lat="45.695842095532555" lon="11.563026359971419"><ele>101.0</ele><time>2026-04-19T16:28:19.633Z</time></trkpt><trkpt lat="45.695826772915304" lon="11.562573722227325"><ele>101.0</ele><time>2026-04-19T16:28:20.633Z</time></trkpt><trkpt lat="45.695809734784596" lon="11.562111910280384"><ele>101.0</ele><time>2026-04-19T16:28:21.633Z</time></trkpt><trkpt lat="45.69580195909308" lon="11.561654422803363"><ele>101.0</ele><time>2026-04-19T16:28:22.633Z</time></trkpt><trkpt lat="45.69580291032541" lon="11.561195947028835"><ele>101.5</ele><time>2026-04-19T16:28:23.633Z</time></trkpt><trkpt lat="45.695783421368986" lon="11.560733304410599"><ele>102.0</ele><time>2026-04-19T16:28:24.633Z</time></trkpt><trkpt lat="45.695793055672866" lon="11.560268306161552"><ele>102.0</ele><time>2026-04-19T16:28:25.633Z</time></trkpt><trkpt lat="45.69574194443537" lon="11.559789830687095"><ele>102.0</ele><time>2026-04-19T16:28:26.633Z</time></trkpt><trkpt lat="45.69571552028301" lon="11.559305891265973"><ele>102.5</ele><time>2026-04-19T16:28:27.633Z</time></trkpt><trkpt lat="45.69568564174201" lon="11.55881966576686"><ele>103.0</ele><time>2026-04-19T16:28:28.633Z</time></trkpt><trkpt lat="45.69565351570277" lon="11.558334624944367"><ele>103.0</ele><time>2026-04-19T16:28:29.633Z</time></trkpt><trkpt lat="45.695629236786004" lon="11.557849821626672"><ele>103.0</ele><time>2026-04-19T16:28:30.633Z</time></trkpt><trkpt lat="45.69559969733314" lon="11.557359964707594"><ele>104.0</ele><time>2026-04-19T16:28:31.633Z</time></trkpt><trkpt lat="45.695565179748705" lon="11.556868476348605"><ele>105.0</ele><time>2026-04-19T16:28:32.633Z</time></trkpt><trkpt lat="45.695538236653505" lon="11.556373387451341"><ele>105.0</ele><time>2026-04-19T16:28:33.633Z</time></trkpt><trkpt lat="45.69550887004725" lon="11.555884761788066"><ele>105.0</ele><time>2026-04-19T16:28:34.633Z</time></trkpt><trkpt lat="45.69547451818321" lon="11.555401526667753"><ele>104.5</ele><time>2026-04-19T16:28:35.633Z</time></trkpt><trkpt lat="45.69542533221196" lon="11.554929172960476"><ele>104.0</ele><time>2026-04-19T16:28:36.633Z</time></trkpt><trkpt lat="45.69539442771312" lon="11.554456786799495"><ele>102.5</ele><time>2026-04-19T16:28:37.633Z</time></trkpt><trkpt lat="45.69535613112612" lon="11.553981891607632"><ele>101.0</ele><time>2026-04-19T16:28:38.633Z</time></trkpt><trkpt lat="45.69531762840204" lon="11.553505777402616"><ele>101.0</ele><time>2026-04-19T16:28:39.633Z</time></trkpt><trkpt lat="45.69527086408565" lon="11.553020541154535"><ele>101.0</ele><time>2026-04-19T16:28:40.633Z</time></trkpt><trkpt lat="45.695223999405634" lon="11.552529084799364"><ele>101.0</ele><time>2026-04-19T16:28:41.633Z</time></trkpt><trkpt lat="45.69517888801637" lon="11.552042649474954"><ele>101.0</ele><time>2026-04-19T16:28:42.633Z</time></trkpt><trkpt lat="45.695134515809926" lon="11.55155827353034"><ele>100.5</ele><time>2026-04-19T16:28:43.633Z</time></trkpt><trkpt lat="45.695088687777606" lon="11.551083385085748"><ele>100.0</ele><time>2026-04-19T16:28:44.633Z</time></trkpt><trkpt lat="45.69504556890962" lon="11.550607227068351"><ele>98.0</ele><time>2026-04-19T16:28:45.633Z</time></trkpt><trkpt lat="45.694998749270376" lon="11.550126268532297"><ele>96.0</ele><time>2026-04-19T16:28:46.633Z</time></trkpt><trkpt lat="45.6949423187032" lon="11.549632716922961"><ele>95.5</ele><time>2026-04-19T16:28:47.633Z</time></trkpt><trkpt lat="45.69489172262216" lon="11.54912191740165"><ele>95.0</ele><time>2026-04-19T16:28:48.633Z</time></trkpt><trkpt lat="45.69483558260005" lon="11.548603484231853"><ele>98.0</ele><time>2026-04-19T16:28:49.633Z</time></trkpt><trkpt lat="45.69478171190394" lon="11.54806996714061"><ele>101.0</ele><time>2026-04-19T16:28:50.633Z</time></trkpt><trkpt lat="45.69472321167284" lon="11.547534250787479"><ele>101.5</ele><time>2026-04-19T16:28:51.633Z</time></trkpt><trkpt lat="45.694664880340696" lon="11.5470099766667"><ele>102.0</ele><time>2026-04-19T16:28:52.633Z</time></trkpt><trkpt lat="45.69460388817393" lon="11.54649662633992"><ele>100.0</ele><time>2026-04-19T16:28:53.633Z</time></trkpt><trkpt lat="45.69454520616153" lon="11.545983029680285"><ele>98.0</ele><time>2026-04-19T16:28:54.633Z</time></trkpt><trkpt lat="45.69448655056718" lon="11.54547295585725"><ele>98.0</ele><time>2026-04-19T16:28:55.633Z</time></trkpt><trkpt lat="45.69443283994207" lon="11.544969208454415"><ele>98.0</ele><time>2026-04-19T16:28:56.633Z</time></trkpt><trkpt lat="45.69438064896915" lon="11.544475315296559"><ele>100.0</ele><time>2026-04-19T16:28:57.633Z</time></trkpt><trkpt lat="45.69432590722424" lon="11.543990967175835"><ele>102.0</ele><time>2026-04-19T16:28:58.633Z</time></trkpt><trkpt lat="45.69427693106541" lon="11.543513142359274"><ele>102.0</ele><time>2026-04-19T16:28:59.633Z</time></trkpt><trkpt lat="45.69421337630871" lon="11.543040317396043"><ele>102.0</ele><time>2026-04-19T16:29:00.633Z</time></trkpt><trkpt lat="45.69414470649219" lon="11.542567918140684"><ele>102.5</ele><time>2026-04-19T16:29:01.633Z</time></trkpt><trkpt lat="45.69406341611564" lon="11.542102278160161"><ele>103.0</ele><time>2026-04-19T16:29:02.633Z</time></trkpt><trkpt lat="45.69397743451445" lon="11.541623760632929"><ele>103.5</ele><time>2026-04-19T16:29:03.633Z</time></trkpt><trkpt lat="45.69388677737554" lon="11.541153382171647"><ele>104.0</ele><time>2026-04-19T16:29:04.633Z</time></trkpt><trkpt lat="45.69378168132689" lon="11.540690713599997"><ele>104.0</ele><time>2026-04-19T16:29:05.633Z</time></trkpt><trkpt lat="45.69367258475555" lon="11.540230756960083"><ele>104.0</ele><time>2026-04-19T16:29:06.633Z</time></trkpt><trkpt lat="45.69355109660143" lon="11.539783096112663"><ele>105.0</ele><time>2026-04-19T16:29:07.633Z</time></trkpt><trkpt lat="45.69341585378314" lon="11.539342823380215"><ele>106.0</ele><time>2026-04-19T16:29:08.633Z</time></trkpt><trkpt lat="45.69326811113034" lon="11.53889473748663"><ele>105.0</ele><time>2026-04-19T16:29:09.651Z</time></trkpt><trkpt lat="45.69310780409885" lon="11.538453477416802"><ele>104.0</ele><time>2026-04-19T16:29:10.647Z</time></trkpt><trkpt lat="45.692934629179824" lon="11.538004419985759"><ele>104.0</ele><time>2026-04-19T16:29:11.646Z</time></trkpt><trkpt lat="45.69275931780323" lon="11.537570468145772"><ele>104.0</ele><time>2026-04-19T16:29:12.633Z</time></trkpt><trkpt lat="45.692631877786816" lon="11.537076194629465"><ele>103.0</ele><time>2026-04-19T16:29:13.633Z</time></trkpt><trkpt lat="45.69245443612779" lon="11.53665917855288"><ele>102.0</ele><time>2026-04-19T16:29:14.633Z</time></trkpt><trkpt lat="45.6922679786515" lon="11.536246311996038"><ele>102.0</ele><time>2026-04-19T16:29:15.633Z</time></trkpt><trkpt lat="45.69207686559387" lon="11.535836443103808"><ele>102.0</ele><time>2026-04-19T16:29:16.633Z</time></trkpt><trkpt lat="45.69188672706275" lon="11.535430727384266"><ele>102.5</ele><time>2026-04-19T16:29:17.633Z</time></trkpt><trkpt lat="45.691676882203694" lon="11.535028932715766"><ele>103.0</ele><time>2026-04-19T16:29:18.633Z</time></trkpt><trkpt lat="45.691465749697905" lon="11.534628263837224"><ele>102.5</ele><time>2026-04-19T16:29:19.633Z</time></trkpt><trkpt lat="45.69123992005645" lon="11.534223653288644"><ele>102.0</ele><time>2026-04-19T16:29:20.633Z</time></trkpt><trkpt lat="45.69100115854363" lon="11.533830463733537"><ele>102.5</ele><time>2026-04-19T16:29:21.633Z</time></trkpt><trkpt lat="45.690743676997734" lon="11.533421103466837"><ele>103.0</ele><time>2026-04-19T16:29:22.633Z</time></trkpt><trkpt lat="45.690475186261004" lon="11.533020846167716"><ele>102.5</ele><time>2026-04-19T16:29:23.633Z</time></trkpt><trkpt lat="45.690205202560186" lon="11.53259275781517"><ele>102.0</ele><time>2026-04-19T16:29:24.633Z</time></trkpt><trkpt lat="45.68993483250459" lon="11.532194994309318"><ele>101.5</ele><time>2026-04-19T16:29:25.633Z</time></trkpt><trkpt lat="45.68967802058915" lon="11.531784808625314"><ele>101.0</ele><time>2026-04-19T16:29:26.633Z</time></trkpt><trkpt lat="45.689428678408184" lon="11.53137889281236"><ele>100.0</ele><time>2026-04-19T16:29:27.633Z</time></trkpt><trkpt lat="45.68918981016485" lon="11.530986603551748"><ele>99.0</ele><time>2026-04-19T16:29:28.633Z</time></trkpt><trkpt lat="45.68895396394602" lon="11.53059241029745"><ele>98.5</ele><time>2026-04-19T16:29:29.652Z</time></trkpt><trkpt lat="45.68873066358259" lon="11.530213795131514"><ele>98.0</ele><time>2026-04-19T16:29:30.646Z</time></trkpt><trkpt lat="45.68850946321054" lon="11.529839017404258"><ele>96.5</ele><time>2026-04-19T16:29:31.65Z</time></trkpt><trkpt lat="45.68829323278617" lon="11.529474999077786"><ele>95.0</ele><time>2026-04-19T16:29:32.645Z</time></trkpt><trkpt lat="45.6880760925679" lon="11.529109747120874"><ele>94.0</ele><time>2026-04-19T16:29:33.651Z</time></trkpt><trkpt lat="45.68594436040137" lon="11.525337420134395"><ele>94.0</ele><time>2026-04-19T16:29:44.573Z</time></trkpt><trkpt lat="45.685397232925226" lon="11.524925502027873"><ele>92.5</ele><time>2026-04-19T16:29:45.633Z</time></trkpt><trkpt lat="45.6851952407292" lon="11.524595525386667"><ele>91.0</ele><time>2026-04-19T16:29:46.634Z</time></trkpt><trkpt lat="45.68506965798162" lon="11.524417372835325"><ele>90.0</ele><time>2026-04-19T16:29:47.634Z</time></trkpt><trkpt lat="45.68488529492898" lon="11.524102209181763"><ele>89.0</ele><time>2026-04-19T16:29:48.634Z</time></trkpt><trkpt lat="45.68469577897" lon="11.523774089044089"><ele>89.5</ele><time>2026-04-19T16:29:49.634Z</time></trkpt><trkpt lat="45.68448279289848" lon="11.523455707571266"><ele>90.0</ele><time>2026-04-19T16:29:50.634Z</time></trkpt><trkpt lat="45.68426228246472" lon="11.523133310601414"><ele>89.0</ele><time>2026-04-19T16:29:51.634Z</time></trkpt><trkpt lat="45.684030233253246" lon="11.522814139772091"><ele>88.0</ele><time>2026-04-19T16:29:52.634Z</time></trkpt><trkpt lat="45.68375738824226" lon="11.522498889750668"><ele>88.5</ele><time>2026-04-19T16:29:53.634Z</time></trkpt><trkpt lat="45.68348547467364" lon="11.52218706807683"><ele>89.0</ele><time>2026-04-19T16:29:54.634Z</time></trkpt><trkpt lat="45.68323272650388" lon="11.52186266248059"><ele>89.5</ele><time>2026-04-19T16:29:55.634Z</time></trkpt><trkpt lat="45.68293079017339" lon="11.521604661318996"><ele>90.0</ele><time>2026-04-19T16:29:56.634Z</time></trkpt><trkpt lat="45.68261139558554" lon="11.521283937370633"><ele>89.0</ele><time>2026-04-19T16:29:57.634Z</time></trkpt><trkpt lat="45.68230250412712" lon="11.521011997312751"><ele>88.0</ele><time>2026-04-19T16:29:58.634Z</time></trkpt><trkpt lat="45.681985915714456" lon="11.52074469575375"><ele>87.5</ele><time>2026-04-19T16:29:59.634Z</time></trkpt><trkpt lat="45.68166235943483" lon="11.520494690782645"><ele>87.0</ele><time>2026-04-19T16:30:00.634Z</time></trkpt><trkpt lat="45.68132229359938" lon="11.520249510059415"><ele>87.0</ele><time>2026-04-19T16:30:01.634Z</time></trkpt><trkpt lat="45.68097388684935" lon="11.520024359125355"><ele>87.0</ele><time>2026-04-19T16:30:02.634Z</time></trkpt><trkpt lat="45.68063304481233" lon="11.519819962692663"><ele>87.0</ele><time>2026-04-19T16:30:03.634Z</time></trkpt><trkpt lat="45.680289124829585" lon="11.519630601591368"><ele>87.0</ele><time>2026-04-19T16:30:04.634Z</time></trkpt><trkpt lat="45.679941996016055" lon="11.519475690492756"><ele>87.0</ele><time>2026-04-19T16:30:05.634Z</time></trkpt><trkpt lat="45.679598471229276" lon="11.519325706786425"><ele>87.0</ele><time>2026-04-19T16:30:06.634Z</time></trkpt><trkpt lat="45.679251491795476" lon="11.519189975458456"><ele>86.5</ele><time>2026-04-19T16:30:07.634Z</time></trkpt><trkpt lat="45.678896835976346" lon="11.519072505472277"><ele>86.0</ele><time>2026-04-19T16:30:08.634Z</time></trkpt><trkpt lat="45.67854457406218" lon="11.518965064785425"><ele>85.0</ele><time>2026-04-19T16:30:09.634Z</time></trkpt><trkpt lat="45.67818136621716" lon="11.518866227776789"><ele>84.0</ele><time>2026-04-19T16:30:10.634Z</time></trkpt><trkpt lat="45.67781525676888" lon="11.518793929598628"><ele>84.0</ele><time>2026-04-19T16:30:11.634Z</time></trkpt><trkpt lat="45.67743963322856" lon="11.518731085392421"><ele>84.0</ele><time>2026-04-19T16:30:12.634Z</time></trkpt><trkpt lat="45.67706066140219" lon="11.518677846792453"><ele>84.5</ele><time>2026-04-19T16:30:13.634Z</time></trkpt><trkpt lat="45.67668407222251" lon="11.518629579783827"><ele>85.0</ele><time>2026-04-19T16:30:14.634Z</time></trkpt><trkpt lat="45.67630299601823" lon="11.518580361722357"><ele>83.5</ele><time>2026-04-19T16:30:15.634Z</time></trkpt><trkpt lat="45.67593142446627" lon="11.518522101424589"><ele>82.0</ele><time>2026-04-19T16:30:16.634Z</time></trkpt><trkpt lat="45.67556678497485" lon="11.518461592744089"><ele>82.5</ele><time>2026-04-19T16:30:17.634Z</time></trkpt><trkpt lat="45.675200506822065" lon="11.518393746774327"><ele>83.0</ele><time>2026-04-19T16:30:18.634Z</time></trkpt><trkpt lat="45.67483837490022" lon="11.51832428190155"><ele>83.0</ele><time>2026-04-19T16:30:19.634Z</time></trkpt><trkpt lat="45.67447769543895" lon="11.518255682101167"><ele>83.0</ele><time>2026-04-19T16:30:20.634Z</time></trkpt><trkpt lat="45.67412846581855" lon="11.518179961064407"><ele>81.0</ele><time>2026-04-19T16:30:21.634Z</time></trkpt><trkpt lat="45.67377857272297" lon="11.51809505016782"><ele>79.0</ele><time>2026-04-19T16:30:22.634Z</time></trkpt><trkpt lat="45.67344047483247" lon="11.518005183762524"><ele>80.0</ele><time>2026-04-19T16:30:23.634Z</time></trkpt><trkpt lat="45.67310008437621" lon="11.517882610993412"><ele>81.0</ele><time>2026-04-19T16:30:24.634Z</time></trkpt><trkpt lat="45.67276487157021" lon="11.517751355538167"><ele>81.0</ele><time>2026-04-19T16:30:25.634Z</time></trkpt><trkpt lat="45.67244263462003" lon="11.517606449175668"><ele>81.0</ele><time>2026-04-19T16:30:26.634Z</time></trkpt><trkpt lat="45.67212405929644" lon="11.517447521347536"><ele>80.0</ele><time>2026-04-19T16:30:27.634Z</time></trkpt><trkpt lat="45.6718164620832" lon="11.517270156559173"><ele>79.0</ele><time>2026-04-19T16:30:28.634Z</time></trkpt><trkpt lat="45.671526461598276" lon="11.517093170701777"><ele>80.0</ele><time>2026-04-19T16:30:29.634Z</time></trkpt><trkpt lat="45.67124333883292" lon="11.51690187472149"><ele>81.0</ele><time>2026-04-19T16:30:30.634Z</time></trkpt><trkpt lat="45.6709651325039" lon="11.516696128490919"><ele>81.0</ele><time>2026-04-19T16:30:31.634Z</time></trkpt><trkpt lat="45.67069508219008" lon="11.516487948151587"><ele>81.0</ele><time>2026-04-19T16:30:32.634Z</time></trkpt><trkpt lat="45.6704425145611" lon="11.516257723205545"><ele>80.0</ele><time>2026-04-19T16:30:33.634Z</time></trkpt><trkpt lat="45.670190861059176" lon="11.516007773812754"><ele>79.0</ele><time>2026-04-19T16:30:34.634Z</time></trkpt><trkpt lat="45.66994248806261" lon="11.515740343024925"><ele>79.0</ele><time>2026-04-19T16:30:35.634Z</time></trkpt><trkpt lat="45.66970043002075" lon="11.515450784729383"><ele>79.0</ele><time>2026-04-19T16:30:36.634Z</time></trkpt><trkpt lat="45.669431903361804" lon="11.51518483433221"><ele>79.0</ele><time>2026-04-19T16:30:37.634Z</time></trkpt><trkpt lat="45.669188575417074" lon="11.514886263311588"><ele>79.0</ele><time>2026-04-19T16:30:38.634Z</time></trkpt><trkpt lat="45.668943575471246" lon="11.514586722225854"><ele>79.0</ele><time>2026-04-19T16:30:39.634Z</time></trkpt><trkpt lat="45.66870722391302" lon="11.514249528658487"><ele>79.0</ele><time>2026-04-19T16:30:40.634Z</time></trkpt><trkpt lat="45.66848368804541" lon="11.513894197449504"><ele>78.5</ele><time>2026-04-19T16:30:41.634Z</time></trkpt><trkpt lat="45.668266006316045" lon="11.513543768620151"><ele>78.0</ele><time>2026-04-19T16:30:42.634Z</time></trkpt><trkpt lat="45.66805057015882" lon="11.51321534905399"><ele>78.0</ele><time>2026-04-19T16:30:43.634Z</time></trkpt><trkpt lat="45.66783612237022" lon="11.512869796365926"><ele>78.0</ele><time>2026-04-19T16:30:44.634Z</time></trkpt><trkpt lat="45.66765768337291" lon="11.512496275769061"><ele>77.5</ele><time>2026-04-19T16:30:45.634Z</time></trkpt><trkpt lat="45.66749513081812" lon="11.512121427158517"><ele>77.0</ele><time>2026-04-19T16:30:46.634Z</time></trkpt><trkpt lat="45.66733425920324" lon="11.511759005686681"><ele>77.0</ele><time>2026-04-19T16:30:47.634Z</time></trkpt><trkpt lat="45.667153926151535" lon="11.511428502722612"><ele>77.0</ele><time>2026-04-19T16:30:48.634Z</time></trkpt><trkpt lat="45.66700483994638" lon="11.511053793308692"><ele>77.0</ele><time>2026-04-19T16:30:49.634Z</time></trkpt><trkpt lat="45.66686193379296" lon="11.510665755440568"><ele>77.0</ele><time>2026-04-19T16:30:50.634Z</time></trkpt><trkpt lat="45.66673298467889" lon="11.510265478765017"><ele>76.5</ele><time>2026-04-19T16:30:51.634Z</time></trkpt><trkpt lat="45.66660986900851" lon="11.509846657610126"><ele>76.0</ele><time>2026-04-19T16:30:52.634Z</time></trkpt><trkpt lat="45.666488746747234" lon="11.509414921834471"><ele>76.0</ele><time>2026-04-19T16:30:53.634Z</time></trkpt><trkpt lat="45.666379147047024" lon="11.508988196957317"><ele>76.0</ele><time>2026-04-19T16:30:54.634Z</time></trkpt><trkpt lat="45.666263828680435" lon="11.508550952622699"><ele>75.5</ele><time>2026-04-19T16:30:55.634Z</time></trkpt><trkpt lat="45.66615421062723" lon="11.508099651263104"><ele>75.0</ele><time>2026-04-19T16:30:56.634Z</time></trkpt><trkpt lat="45.66604105413809" lon="11.507631832788162"><ele>75.0</ele><time>2026-04-19T16:30:57.634Z</time></trkpt><trkpt lat="45.66593093399776" lon="11.507153248812429"><ele>75.0</ele><time>2026-04-19T16:30:58.634Z</time></trkpt><trkpt lat="45.66580869402391" lon="11.506671975006926"><ele>76.5</ele><time>2026-04-19T16:30:59.634Z</time></trkpt><trkpt lat="45.66568653626246" lon="11.506175570248796"><ele>78.0</ele><time>2026-04-19T16:31:00.634Z</time></trkpt><trkpt lat="45.665556856671685" lon="11.505657325231962"><ele>78.5</ele><time>2026-04-19T16:31:01.634Z</time></trkpt><trkpt lat="45.665430500629455" lon="11.505141438764204"><ele>79.0</ele><time>2026-04-19T16:31:02.634Z</time></trkpt><trkpt lat="45.665305852984034" lon="11.504630286215706"><ele>78.0</ele><time>2026-04-19T16:31:03.634Z</time></trkpt><trkpt lat="45.66517877531422" lon="11.504124001096981"><ele>77.0</ele><time>2026-04-19T16:31:04.634Z</time></trkpt><trkpt lat="45.66506226687254" lon="11.503623319816104"><ele>77.0</ele><time>2026-04-19T16:31:05.634Z</time></trkpt><trkpt lat="45.66494489385122" lon="11.50312981094596"><ele>77.0</ele><time>2026-04-19T16:31:06.634Z</time></trkpt><trkpt lat="45.66483159475362" lon="11.502646291447679"><ele>76.5</ele><time>2026-04-19T16:31:07.634Z</time></trkpt><trkpt lat="45.664721840862455" lon="11.50215871747441"><ele>76.0</ele><time>2026-04-19T16:31:08.634Z</time></trkpt><trkpt lat="45.664603816488864" lon="11.501685405018577"><ele>76.0</ele><time>2026-04-19T16:31:09.634Z</time></trkpt><trkpt lat="45.664497593495405" lon="11.501214443120906"><ele>76.0</ele><time>2026-04-19T16:31:10.634Z</time></trkpt><trkpt lat="45.66437730961226" lon="11.500745356487526"><ele>76.5</ele><time>2026-04-19T16:31:11.634Z</time></trkpt><trkpt lat="45.66425698163204" lon="11.500277433057803"><ele>77.0</ele><time>2026-04-19T16:31:12.634Z</time></trkpt><trkpt lat="45.66413709576923" lon="11.499805635517813"><ele>77.0</ele><time>2026-04-19T16:31:13.645Z</time></trkpt><trkpt lat="45.664020917824175" lon="11.49933953158462"><ele>77.0</ele><time>2026-04-19T16:31:14.645Z</time></trkpt><trkpt lat="45.66390436494715" lon="11.498867881419065"><ele>76.5</ele><time>2026-04-19T16:31:15.646Z</time></trkpt><trkpt lat="45.66378743411004" lon="11.498392122433422"><ele>76.0</ele><time>2026-04-19T16:31:16.653Z</time></trkpt><trkpt lat="45.66351162273964" lon="11.49703999982355"><ele>77.5</ele><time>2026-04-19T16:31:19.634Z</time></trkpt><trkpt lat="45.66340362329593" lon="11.496583187657782"><ele>79.0</ele><time>2026-04-19T16:31:20.634Z</time></trkpt><trkpt lat="45.66328208188238" lon="11.496056170264342"><ele>79.0</ele><time>2026-04-19T16:31:21.634Z</time></trkpt><trkpt lat="45.66317299140529" lon="11.495586700770476"><ele>79.0</ele><time>2026-04-19T16:31:22.634Z</time></trkpt><trkpt lat="45.6630625070577" lon="11.49511329612542"><ele>79.0</ele><time>2026-04-19T16:31:23.647Z</time></trkpt><trkpt lat="45.661647445564775" lon="11.489290259789199"><ele>79.0</ele><time>2026-04-19T16:31:35.634Z</time></trkpt><trkpt lat="45.6615421769753" lon="11.488845013298265"><ele>79.0</ele><time>2026-04-19T16:31:36.634Z</time></trkpt><trkpt lat="45.661428183134625" lon="11.488449304741467"><ele>79.0</ele><time>2026-04-19T16:31:37.634Z</time></trkpt><trkpt lat="45.66133484036295" lon="11.487999290026476"><ele>79.0</ele><time>2026-04-19T16:31:38.634Z</time></trkpt><trkpt lat="45.66124860431757" lon="11.487559873561388"><ele>78.5</ele><time>2026-04-19T16:31:39.634Z</time></trkpt><trkpt lat="45.66112014072159" lon="11.487093724353258"><ele>78.0</ele><time>2026-04-19T16:31:40.634Z</time></trkpt><trkpt lat="45.661002337666844" lon="11.486618182702541"><ele>79.0</ele><time>2026-04-19T16:31:41.634Z</time></trkpt><trkpt lat="45.66088208164027" lon="11.486159248346514"><ele>80.0</ele><time>2026-04-19T16:31:42.634Z</time></trkpt><trkpt lat="45.66076407401394" lon="11.485691000308705"><ele>80.5</ele><time>2026-04-19T16:31:43.634Z</time></trkpt><trkpt lat="45.660627916443204" lon="11.485239888079134"><ele>81.0</ele><time>2026-04-19T16:31:44.634Z</time></trkpt><trkpt lat="45.66049964544039" lon="11.484780365589975"><ele>80.0</ele><time>2026-04-19T16:31:45.634Z</time></trkpt><trkpt lat="45.66036232124399" lon="11.484365897908402"><ele>79.0</ele><time>2026-04-19T16:31:46.634Z</time></trkpt><trkpt lat="45.66021613182292" lon="11.483914550857895"><ele>79.5</ele><time>2026-04-19T16:31:47.634Z</time></trkpt><trkpt lat="45.66006923526891" lon="11.483478322425801"><ele>80.0</ele><time>2026-04-19T16:31:48.634Z</time></trkpt><trkpt lat="45.65991306441571" lon="11.483034782178269"><ele>80.0</ele><time>2026-04-19T16:31:49.634Z</time></trkpt><trkpt lat="45.65974088998727" lon="11.482556709226197"><ele>80.0</ele><time>2026-04-19T16:31:50.634Z</time></trkpt><trkpt lat="45.659568428434575" lon="11.48212989308896"><ele>79.5</ele><time>2026-04-19T16:31:51.634Z</time></trkpt><trkpt lat="45.659380937717344" lon="11.481707060864597"><ele>79.0</ele><time>2026-04-19T16:31:52.635Z</time></trkpt><trkpt lat="45.65918739359475" lon="11.481275143016616"><ele>79.5</ele><time>2026-04-19T16:31:53.635Z</time></trkpt><trkpt lat="45.658984187393024" lon="11.480845255067461"><ele>80.0</ele><time>2026-04-19T16:31:54.635Z</time></trkpt><trkpt lat="45.658786614404086" lon="11.480401732964083"><ele>79.5</ele><time>2026-04-19T16:31:55.635Z</time></trkpt><trkpt lat="45.65858047807107" lon="11.479979115409884"><ele>79.0</ele><time>2026-04-19T16:31:56.635Z</time></trkpt><trkpt lat="45.65836678568999" lon="11.479566258803562"><ele>79.0</ele><time>2026-04-19T16:31:57.635Z</time></trkpt><trkpt lat="45.658145731431404" lon="11.479161518054552"><ele>79.0</ele><time>2026-04-19T16:31:58.635Z</time></trkpt><trkpt lat="45.65792638886648" lon="11.478761797024069"><ele>80.0</ele><time>2026-04-19T16:31:59.635Z</time></trkpt><trkpt lat="45.6576948637136" lon="11.478372835829665"><ele>81.0</ele><time>2026-04-19T16:32:00.635Z</time></trkpt><trkpt lat="45.657454107360664" lon="11.477996180478916"><ele>81.0</ele><time>2026-04-19T16:32:01.635Z</time></trkpt><trkpt lat="45.65720316061143" lon="11.4776199840545"><ele>81.0</ele><time>2026-04-19T16:32:02.648Z</time></trkpt><trkpt lat="45.656966524470235" lon="11.477235118646126"><ele>80.5</ele><time>2026-04-19T16:32:03.646Z</time></trkpt><trkpt lat="45.65672540766787" lon="11.476848377369679"><ele>80.0</ele><time>2026-04-19T16:32:04.647Z</time></trkpt><trkpt lat="45.65648298385743" lon="11.476453272571595"><ele>80.5</ele><time>2026-04-19T16:32:05.648Z</time></trkpt><trkpt lat="45.656261104651435" lon="11.476090580348558"><ele>81.0</ele><time>2026-04-19T16:32:06.648Z</time></trkpt><trkpt lat="45.65608514655426" lon="11.4757124837766"><ele>81.0</ele><time>2026-04-19T16:32:07.653Z</time></trkpt><trkpt lat="45.65588410152473" lon="11.47535499660203"><ele>81.0</ele><time>2026-04-19T16:32:08.635Z</time></trkpt><trkpt lat="45.65567100129012" lon="11.474983301826176"><ele>81.0</ele><time>2026-04-19T16:32:09.635Z</time></trkpt><trkpt lat="45.655456269530966" lon="11.474614815839056"><ele>81.0</ele><time>2026-04-19T16:32:10.635Z</time></trkpt><trkpt lat="45.65524077307639" lon="11.474248511019761"><ele>81.0</ele><time>2026-04-19T16:32:11.635Z</time></trkpt><trkpt lat="45.65501698253538" lon="11.473874720933543"><ele>81.0</ele><time>2026-04-19T16:32:12.635Z</time></trkpt><trkpt lat="45.65478693777012" lon="11.473491614959531"><ele>81.0</ele><time>2026-04-19T16:32:13.653Z</time></trkpt><trkpt lat="45.654561197875225" lon="11.473112604340544"><ele>81.0</ele><time>2026-04-19T16:32:14.648Z</time></trkpt><trkpt lat="45.654329164288384" lon="11.472729589606528"><ele>81.0</ele><time>2026-04-19T16:32:15.654Z</time></trkpt><trkpt lat="45.654134259598756" lon="11.472308096226898"><ele>81.0</ele><time>2026-04-19T16:32:16.653Z</time></trkpt><trkpt lat="45.65392806980375" lon="11.471897787171402"><ele>80.0</ele><time>2026-04-19T16:32:17.649Z</time></trkpt><trkpt lat="45.653451536824605" lon="11.470700791116311"><ele>80.5</ele><time>2026-04-19T16:32:20.635Z</time></trkpt><trkpt lat="45.65327097324662" lon="11.470288630198871"><ele>81.0</ele><time>2026-04-19T16:32:21.635Z</time></trkpt><trkpt lat="45.65310176727925" lon="11.469866442357315"><ele>81.0</ele><time>2026-04-19T16:32:22.635Z</time></trkpt><trkpt lat="45.652946615067854" lon="11.46943557305593"><ele>81.0</ele><time>2026-04-19T16:32:23.635Z</time></trkpt><trkpt lat="45.65277353328344" lon="11.468990130460188"><ele>81.0</ele><time>2026-04-19T16:32:24.635Z</time></trkpt><trkpt lat="45.652621394010964" lon="11.468596301439984"><ele>81.0</ele><time>2026-04-19T16:32:25.635Z</time></trkpt><trkpt lat="45.65247296476679" lon="11.468189809124562"><ele>82.0</ele><time>2026-04-19T16:32:26.635Z</time></trkpt><trkpt lat="45.652325529871256" lon="11.467749430572633"><ele>83.0</ele><time>2026-04-19T16:32:27.635Z</time></trkpt><trkpt lat="45.65217990278197" lon="11.46733622551938"><ele>83.0</ele><time>2026-04-19T16:32:28.635Z</time></trkpt><trkpt lat="45.65203129743223" lon="11.466887746990235"><ele>83.0</ele><time>2026-04-19T16:32:29.635Z</time></trkpt><trkpt lat="45.65188792662736" lon="11.466453770916772"><ele>81.5</ele><time>2026-04-19T16:32:30.635Z</time></trkpt><trkpt lat="45.651739402590124" lon="11.465952514752896"><ele>80.0</ele><time>2026-04-19T16:32:31.635Z</time></trkpt><trkpt lat="45.65159827530066" lon="11.465509588103133"><ele>80.5</ele><time>2026-04-19T16:32:32.635Z</time></trkpt><trkpt lat="45.651457276066914" lon="11.465076976501924"><ele>81.0</ele><time>2026-04-19T16:32:33.635Z</time></trkpt><trkpt lat="45.65131656871905" lon="11.464639645890882"><ele>81.0</ele><time>2026-04-19T16:32:34.635Z</time></trkpt><trkpt lat="45.65117657932832" lon="11.464202156124582"><ele>81.0</ele><time>2026-04-19T16:32:35.635Z</time></trkpt><trkpt lat="45.65103361555669" lon="11.463760866382886"><ele>81.0</ele><time>2026-04-19T16:32:36.635Z</time></trkpt><trkpt lat="45.650890879192126" lon="11.463314248819227"><ele>81.0</ele><time>2026-04-19T16:32:37.635Z</time></trkpt><trkpt lat="45.65075508054868" lon="11.462862736155945"><ele>81.0</ele><time>2026-04-19T16:32:38.635Z</time></trkpt><trkpt lat="45.65061774840899" lon="11.462420649302302"><ele>81.0</ele><time>2026-04-19T16:32:39.635Z</time></trkpt><trkpt lat="45.65048326990571" lon="11.461979102472183"><ele>82.5</ele><time>2026-04-19T16:32:40.635Z</time></trkpt><trkpt lat="45.650354100537506" lon="11.461546780060363"><ele>84.0</ele><time>2026-04-19T16:32:41.635Z</time></trkpt><trkpt lat="45.65023026823573" lon="11.461122877555242"><ele>84.0</ele><time>2026-04-19T16:32:42.635Z</time></trkpt><trkpt lat="45.6501095731557" lon="11.460705274636931"><ele>84.0</ele><time>2026-04-19T16:32:43.635Z</time></trkpt><trkpt lat="45.64999576022452" lon="11.460290363664768"><ele>85.0</ele><time>2026-04-19T16:32:44.635Z</time></trkpt><trkpt lat="45.649888087708554" lon="11.459872909764858"><ele>86.0</ele><time>2026-04-19T16:32:45.635Z</time></trkpt><trkpt lat="45.6497841746654" lon="11.459458192556811"><ele>86.0</ele><time>2026-04-19T16:32:46.635Z</time></trkpt><trkpt lat="45.649685323734545" lon="11.459040338500888"><ele>86.0</ele><time>2026-04-19T16:32:47.635Z</time></trkpt><trkpt lat="45.64959429579757" lon="11.45861509346844"><ele>86.0</ele><time>2026-04-19T16:32:48.635Z</time></trkpt><trkpt lat="45.64950366079636" lon="11.458199104670562"><ele>86.0</ele><time>2026-04-19T16:32:49.635Z</time></trkpt><trkpt lat="45.64942599821989" lon="11.457774478295777"><ele>86.5</ele><time>2026-04-19T16:32:50.635Z</time></trkpt><trkpt lat="45.64935436265588" lon="11.457346649945986"><ele>87.0</ele><time>2026-04-19T16:32:51.635Z</time></trkpt><trkpt lat="45.64928825249129" lon="11.456902734387189"><ele>86.0</ele><time>2026-04-19T16:32:52.635Z</time></trkpt><trkpt lat="45.649219182503394" lon="11.456459377459428"><ele>85.0</ele><time>2026-04-19T16:32:53.635Z</time></trkpt><trkpt lat="45.64915218133119" lon="11.456006103206862"><ele>85.0</ele><time>2026-04-19T16:32:54.635Z</time></trkpt><trkpt lat="45.64910329768586" lon="11.455529894954095"><ele>85.0</ele><time>2026-04-19T16:32:55.635Z</time></trkpt><trkpt lat="45.64906012833028" lon="11.455060760814145"><ele>85.0</ele><time>2026-04-19T16:32:56.635Z</time></trkpt><trkpt lat="45.649012085617954" lon="11.454588627785704"><ele>85.0</ele><time>2026-04-19T16:32:57.635Z</time></trkpt><trkpt lat="45.64897102544968" lon="11.454128885034809"><ele>85.5</ele><time>2026-04-19T16:32:58.635Z</time></trkpt><trkpt lat="45.648934057377225" lon="11.453674143500269"><ele>86.0</ele><time>2026-04-19T16:32:59.635Z</time></trkpt><trkpt lat="45.64890514231965" lon="11.453213173337293"><ele>86.5</ele><time>2026-04-19T16:33:00.635Z</time></trkpt><trkpt lat="45.648879051291125" lon="11.45276673237519"><ele>87.0</ele><time>2026-04-19T16:33:01.635Z</time></trkpt><trkpt lat="45.64886287260519" lon="11.452318277146663"><ele>88.0</ele><time>2026-04-19T16:33:02.635Z</time></trkpt><trkpt lat="45.64885178581879" lon="11.451874770350436"><ele>89.0</ele><time>2026-04-19T16:33:03.635Z</time></trkpt><trkpt lat="45.64884335218239" lon="11.451431988809496"><ele>88.5</ele><time>2026-04-19T16:33:04.635Z</time></trkpt><trkpt lat="45.64884375160399" lon="11.450982427397271"><ele>88.0</ele><time>2026-04-19T16:33:05.635Z</time></trkpt><trkpt lat="45.64885059079587" lon="11.450539439630068"><ele>87.5</ele><time>2026-04-19T16:33:06.635Z</time></trkpt><trkpt lat="45.64886414943965" lon="11.450101058175127"><ele>87.0</ele><time>2026-04-19T16:33:07.635Z</time></trkpt><trkpt lat="45.6488736800522" lon="11.44965787260671"><ele>87.5</ele><time>2026-04-19T16:33:08.635Z</time></trkpt><trkpt lat="45.648889500097546" lon="11.449207189290806"><ele>88.0</ele><time>2026-04-19T16:33:09.635Z</time></trkpt><trkpt lat="45.648910099942434" lon="11.448737032898462"><ele>88.5</ele><time>2026-04-19T16:33:10.635Z</time></trkpt><trkpt lat="45.6489295236268" lon="11.448262306824073"><ele>89.0</ele><time>2026-04-19T16:33:11.635Z</time></trkpt><trkpt lat="45.648937783521156" lon="11.447767330895477"><ele>89.0</ele><time>2026-04-19T16:33:12.635Z</time></trkpt><trkpt lat="45.648944233234936" lon="11.4472770385376"><ele>89.0</ele><time>2026-04-19T16:33:13.635Z</time></trkpt><trkpt lat="45.64896145934249" lon="11.446773428056245"><ele>89.5</ele><time>2026-04-19T16:33:14.635Z</time></trkpt><trkpt lat="45.648972891750056" lon="11.446260530241117"><ele>90.0</ele><time>2026-04-19T16:33:15.635Z</time></trkpt><trkpt lat="45.64897491778596" lon="11.445762352751773"><ele>89.5</ele><time>2026-04-19T16:33:16.635Z</time></trkpt><trkpt lat="45.64897934003972" lon="11.445277730219935"><ele>89.0</ele><time>2026-04-19T16:33:17.635Z</time></trkpt><trkpt lat="45.64897547283193" lon="11.444804412724134"><ele>89.0</ele><time>2026-04-19T16:33:18.635Z</time></trkpt><trkpt lat="45.64897055684808" lon="11.444340394934976"><ele>89.0</ele><time>2026-04-19T16:33:19.635Z</time></trkpt><trkpt lat="45.648953766218355" lon="11.443873092123743"><ele>89.5</ele><time>2026-04-19T16:33:20.635Z</time></trkpt><trkpt lat="45.64893582970543" lon="11.44341485849657"><ele>90.0</ele><time>2026-04-19T16:33:21.635Z</time></trkpt><trkpt lat="45.648912178724665" lon="11.44295860690139"><ele>90.0</ele><time>2026-04-19T16:33:22.635Z</time></trkpt><trkpt lat="45.64889192622764" lon="11.442503315780213"><ele>90.0</ele><time>2026-04-19T16:33:23.635Z</time></trkpt><trkpt lat="45.648864129041094" lon="11.442047836608568"><ele>91.0</ele><time>2026-04-19T16:33:24.635Z</time></trkpt><trkpt lat="45.6488321889758" lon="11.441593311220506"><ele>92.0</ele><time>2026-04-19T16:33:25.635Z</time></trkpt><trkpt lat="45.648790296557294" lon="11.441145906635926"><ele>92.0</ele><time>2026-04-19T16:33:26.635Z</time></trkpt><trkpt lat="45.6487469658959" lon="11.4406965732609"><ele>92.0</ele><time>2026-04-19T16:33:27.635Z</time></trkpt><trkpt lat="45.648692277708314" lon="11.440248679874669"><ele>92.0</ele><time>2026-04-19T16:33:28.635Z</time></trkpt><trkpt lat="45.648624563986715" lon="11.439807043336783"><ele>92.0</ele><time>2026-04-19T16:33:29.635Z</time></trkpt><trkpt lat="45.64856721004617" lon="11.439361747201943"><ele>91.5</ele><time>2026-04-19T16:33:30.635Z</time></trkpt><trkpt lat="45.64850207490961" lon="11.438915140071522"><ele>91.0</ele><time>2026-04-19T16:33:31.635Z</time></trkpt><trkpt lat="45.648431244691004" lon="11.438466671292408"><ele>90.5</ele><time>2026-04-19T16:33:32.635Z</time></trkpt><trkpt lat="45.64836266014605" lon="11.438015606839265"><ele>90.0</ele><time>2026-04-19T16:33:33.635Z</time></trkpt><trkpt lat="45.64828650113899" lon="11.437567786965701"><ele>89.0</ele><time>2026-04-19T16:33:34.635Z</time></trkpt><trkpt lat="45.648216008488355" lon="11.437118680369236"><ele>88.0</ele><time>2026-04-19T16:33:35.635Z</time></trkpt><trkpt lat="45.64814699963397" lon="11.436682529871737"><ele>88.5</ele><time>2026-04-19T16:33:36.635Z</time></trkpt><trkpt lat="45.64806124604282" lon="11.436246417024531"><ele>89.0</ele><time>2026-04-19T16:33:37.635Z</time></trkpt><trkpt lat="45.64798727129468" lon="11.435798694256158"><ele>89.0</ele><time>2026-04-19T16:33:38.635Z</time></trkpt><trkpt lat="45.6478985391774" lon="11.435335903699"><ele>89.0</ele><time>2026-04-19T16:33:39.635Z</time></trkpt><trkpt lat="45.64780772487545" lon="11.434857967938479"><ele>89.0</ele><time>2026-04-19T16:33:40.635Z</time></trkpt><trkpt lat="45.64772358723976" lon="11.43437298957104"><ele>89.0</ele><time>2026-04-19T16:33:41.635Z</time></trkpt><trkpt lat="45.647634698592945" lon="11.433903525983077"><ele>88.5</ele><time>2026-04-19T16:33:42.635Z</time></trkpt><trkpt lat="45.64754693429651" lon="11.433442415227379"><ele>88.0</ele><time>2026-04-19T16:33:43.635Z</time></trkpt><trkpt lat="45.64746889014813" lon="11.432980064898807"><ele>88.5</ele><time>2026-04-19T16:33:44.635Z</time></trkpt><trkpt lat="45.647382594477634" lon="11.432515910571215"><ele>89.0</ele><time>2026-04-19T16:33:45.635Z</time></trkpt><trkpt lat="45.64730026720037" lon="11.432046645989901"><ele>90.0</ele><time>2026-04-19T16:33:46.635Z</time></trkpt><trkpt lat="45.647204063697544" lon="11.431594120638845"><ele>91.0</ele><time>2026-04-19T16:33:47.635Z</time></trkpt><trkpt lat="45.64710339922972" lon="11.431158193325498"><ele>91.5</ele><time>2026-04-19T16:33:48.635Z</time></trkpt><trkpt lat="45.64700321790396" lon="11.430724272762546"><ele>92.0</ele><time>2026-04-19T16:33:49.635Z</time></trkpt><trkpt lat="45.64689093563744" lon="11.430301160220143"><ele>92.5</ele><time>2026-04-19T16:33:50.635Z</time></trkpt><trkpt lat="45.64677267754867" lon="11.429874905934113"><ele>93.0</ele><time>2026-04-19T16:33:51.635Z</time></trkpt><trkpt lat="45.646657396756005" lon="11.429452700687161"><ele>93.0</ele><time>2026-04-19T16:33:52.635Z</time></trkpt><trkpt lat="45.6465345141856" lon="11.429030528263196"><ele>93.0</ele><time>2026-04-19T16:33:53.635Z</time></trkpt><trkpt lat="45.64640187378786" lon="11.428610462505748"><ele>93.5</ele><time>2026-04-19T16:33:54.635Z</time></trkpt><trkpt lat="45.646272229703506" lon="11.428187561630674"><ele>94.0</ele><time>2026-04-19T16:33:55.635Z</time></trkpt><trkpt lat="45.64613107156092" lon="11.42776778511302"><ele>94.0</ele><time>2026-04-19T16:33:56.635Z</time></trkpt><trkpt lat="45.645996914712356" lon="11.427348888886973"><ele>94.0</ele><time>2026-04-19T16:33:57.635Z</time></trkpt><trkpt lat="45.6458568814984" lon="11.426921818080656"><ele>94.0</ele><time>2026-04-19T16:33:58.636Z</time></trkpt><trkpt lat="45.64571250623909" lon="11.426491777585822"><ele>94.0</ele><time>2026-04-19T16:33:59.636Z</time></trkpt><trkpt lat="45.64557024666744" lon="11.42605848893297"><ele>94.0</ele><time>2026-04-19T16:34:00.652Z</time></trkpt><trkpt lat="45.64543327865121" lon="11.425630763311954"><ele>94.0</ele><time>2026-04-19T16:34:01.65Z</time></trkpt><trkpt lat="45.64529604723005" lon="11.425203436145138"><ele>93.5</ele><time>2026-04-19T16:34:02.648Z</time></trkpt><trkpt lat="45.6451559896656" lon="11.424772923902795"><ele>93.0</ele><time>2026-04-19T16:34:03.654Z</time></trkpt><trkpt lat="45.6450173613249" lon="11.424341615150748"><ele>90.0</ele><time>2026-04-19T16:34:04.649Z</time></trkpt><trkpt lat="45.644561140211316" lon="11.423076969272643"><ele>94.0</ele><time>2026-04-19T16:34:27.014Z</time></trkpt><trkpt lat="45.644135030225264" lon="11.421806765249483"><ele>111.0</ele><time>2026-04-19T16:34:28.012Z</time></trkpt><trkpt lat="45.64370689348586" lon="11.420531398959318"><ele>151.0</ele><time>2026-04-19T16:34:29.014Z</time></trkpt><trkpt lat="45.64328023748659" lon="11.41926133862786"><ele>145.0</ele><time>2026-04-19T16:34:30.012Z</time></trkpt><trkpt lat="45.642811733089985" lon="11.41801967478796"><ele>166.0</ele><time>2026-04-19T16:34:31.012Z</time></trkpt><trkpt lat="45.64235716626788" lon="11.416765775753941"><ele>189.0</ele><time>2026-04-19T16:34:32.012Z</time></trkpt><trkpt lat="45.64185920338931" lon="11.415545009619745"><ele>231.0</ele><time>2026-04-19T16:34:33.013Z</time></trkpt><trkpt lat="45.641319975413744" lon="11.414360340709846"><ele>259.0</ele><time>2026-04-19T16:34:34.014Z</time></trkpt><trkpt lat="45.64075379503954" lon="11.413203070413072"><ele>298.0</ele><time>2026-04-19T16:34:35.014Z</time></trkpt><trkpt lat="45.64015218781348" lon="11.412083423635835"><ele>293.0</ele><time>2026-04-19T16:34:36.014Z</time></trkpt><trkpt lat="45.639518564602376" lon="11.410999547294482"><ele>267.0</ele><time>2026-04-19T16:34:37.014Z</time></trkpt><trkpt lat="45.63889031040347" lon="11.409909251183477"><ele>264.0</ele><time>2026-04-19T16:34:38.014Z</time></trkpt><trkpt lat="45.638256780097464" lon="11.408826791831865"><ele>306.0</ele><time>2026-04-19T16:34:39.013Z</time></trkpt><trkpt lat="45.63758529115224" lon="11.407793495155662"><ele>317.0</ele><time>2026-04-19T16:34:40.012Z</time></trkpt><trkpt lat="45.63690717146332" lon="11.406761400695782"><ele>328.0</ele><time>2026-04-19T16:34:41.014Z</time></trkpt><trkpt lat="45.6362312394455" lon="11.405730956793294"><ele>343.0</ele><time>2026-04-19T16:34:42.014Z</time></trkpt><trkpt lat="45.63555453202043" lon="11.40470149137078"><ele>358.0</ele><time>2026-04-19T16:34:43.014Z</time></trkpt><trkpt lat="45.63487784171378" lon="11.403671797981778"><ele>312.0</ele><time>2026-04-19T16:34:44.014Z</time></trkpt><trkpt lat="45.63419945303437" lon="11.402644656273623"><ele>272.0</ele><time>2026-04-19T16:34:45.014Z</time></trkpt><trkpt lat="45.633509472142805" lon="11.401633479535272"><ele>253.0</ele><time>2026-04-19T16:34:46.014Z</time></trkpt><trkpt lat="45.63276646671205" lon="11.400706779054323"><ele>274.0</ele><time>2026-04-19T16:34:47.012Z</time></trkpt><trkpt lat="45.63198889279822" lon="11.399829340384445"><ele>263.0</ele><time>2026-04-19T16:34:48.014Z</time></trkpt><trkpt lat="45.63119687970418" lon="11.398989503562731"><ele>290.0</ele><time>2026-04-19T16:34:49.012Z</time></trkpt><trkpt lat="45.63037995274964" lon="11.398186899653133"><ele>303.0</ele><time>2026-04-19T16:34:50.014Z</time></trkpt><trkpt lat="45.62955680853832" lon="11.3974038450668"><ele>262.0</ele><time>2026-04-19T16:34:51.014Z</time></trkpt><trkpt lat="45.62872893154167" lon="11.39663071252163"><ele>257.0</ele><time>2026-04-19T16:34:52.014Z</time></trkpt><trkpt lat="45.62790578170588" lon="11.395853176934883"><ele>257.0</ele><time>2026-04-19T16:34:53.012Z</time></trkpt><trkpt lat="45.62706713738147" lon="11.395098893991848"><ele>206.0</ele><time>2026-04-19T16:34:54.014Z</time></trkpt><trkpt lat="45.626202511827266" lon="11.394412776737603"><ele>196.0</ele><time>2026-04-19T16:34:55.014Z</time></trkpt><trkpt lat="45.62532417714349" lon="11.39376248690268"><ele>259.0</ele><time>2026-04-19T16:34:56.014Z</time></trkpt><trkpt lat="45.624437699443455" lon="11.39313562194912"><ele>338.0</ele><time>2026-04-19T16:34:57.014Z</time></trkpt><trkpt lat="45.62355097786537" lon="11.392509011735209"><ele>424.0</ele><time>2026-04-19T16:34:58.014Z</time></trkpt><trkpt lat="45.6226640378652" lon="11.391885764622012"><ele>448.0</ele><time>2026-04-19T16:34:59.013Z</time></trkpt><trkpt lat="45.6217738990242" lon="11.391274447094553"><ele>464.0</ele><time>2026-04-19T16:35:00.012Z</time></trkpt><trkpt lat="45.620872099068144" lon="11.390685292311334"><ele>475.0</ele><time>2026-04-19T16:35:01.014Z</time></trkpt><trkpt lat="45.619961046985225" lon="11.3901346633656"><ele>427.0</ele><time>2026-04-19T16:35:02.014Z</time></trkpt><trkpt lat="45.619039964497084" lon="11.389618675046602"><ele>390.0</ele><time>2026-04-19T16:35:03.014Z</time></trkpt><trkpt lat="45.61812660147213" lon="11.38907552650706"><ele>329.0</ele><time>2026-04-19T16:35:04.014Z</time></trkpt><trkpt lat="45.61721292132193" lon="11.388536876448033"><ele>288.0</ele><time>2026-04-19T16:35:05.013Z</time></trkpt><trkpt lat="45.6162882156689" lon="11.388031101251197"><ele>243.0</ele><time>2026-04-19T16:35:06.014Z</time></trkpt><trkpt lat="45.61536120412156" lon="11.3875459663244"><ele>192.0</ele><time>2026-04-19T16:35:07.012Z</time></trkpt><trkpt lat="45.61442463242553" lon="11.387089727089757"><ele>182.0</ele><time>2026-04-19T16:35:08.012Z</time></trkpt><trkpt lat="45.613478380840796" lon="11.386666966833777"><ele>170.0</ele><time>2026-04-19T16:35:09.014Z</time></trkpt><trkpt lat="45.61251783388564" lon="11.386329474592848"><ele>166.0</ele><time>2026-04-19T16:35:10.014Z</time></trkpt><trkpt lat="45.6115408706463" lon="11.386122891026712"><ele>165.0</ele><time>2026-04-19T16:35:11.012Z</time></trkpt><trkpt lat="45.610557642345405" lon="11.385939460534376"><ele>162.0</ele><time>2026-04-19T16:35:12.014Z</time></trkpt><trkpt lat="45.60957477724673" lon="11.385786013373464"><ele>157.0</ele><time>2026-04-19T16:35:13.013Z</time></trkpt><trkpt lat="45.60859437280604" lon="11.385584366280936"><ele>155.0</ele><time>2026-04-19T16:35:14.014Z</time></trkpt><trkpt lat="45.60761808748469" lon="11.385370992645854"><ele>154.0</ele><time>2026-04-19T16:35:15.012Z</time></trkpt><trkpt lat="45.60663706950834" lon="11.385163431212645"><ele>152.0</ele><time>2026-04-19T16:35:16.014Z</time></trkpt><trkpt lat="45.6056539738721" lon="11.385001637949518"><ele>154.0</ele><time>2026-04-19T16:35:17.014Z</time></trkpt><trkpt lat="45.60467824946145" lon="11.384782715679464"><ele>151.0</ele><time>2026-04-19T16:35:18.012Z</time></trkpt><trkpt lat="45.603704899105786" lon="11.384513335777141"><ele>149.0</ele><time>2026-04-19T16:35:19.014Z</time></trkpt><trkpt lat="45.60273614238972" lon="11.384224652516004"><ele>148.0</ele><time>2026-04-19T16:35:20.014Z</time></trkpt><trkpt lat="45.6017695506111" lon="11.383925488408783"><ele>151.0</ele><time>2026-04-19T16:35:21.014Z</time></trkpt><trkpt lat="45.60030092489496" lon="11.383276116113535"><ele>151.0</ele><time>2026-04-19T16:36:49.636Z</time></trkpt><trkpt lat="45.600397987333686" lon="11.383419279019705"><ele>151.0</ele><time>2026-04-19T16:36:50.636Z</time></trkpt><trkpt lat="45.60012574642801" lon="11.38330938735532"><ele>151.0</ele><time>2026-04-19T16:36:51.636Z</time></trkpt><trkpt lat="45.59985722962791" lon="11.383260698294896"><ele>151.5</ele><time>2026-04-19T16:36:52.636Z</time></trkpt><trkpt lat="45.59958736768691" lon="11.383010653208254"><ele>152.0</ele><time>2026-04-19T16:36:53.636Z</time></trkpt><trkpt lat="45.59936767652559" lon="11.382879849981533"><ele>152.0</ele><time>2026-04-19T16:36:54.636Z</time></trkpt><trkpt lat="45.59915978331978" lon="11.382773752954433"><ele>152.0</ele><time>2026-04-19T16:36:55.637Z</time></trkpt><trkpt lat="45.59892628485746" lon="11.382650437051543"><ele>152.5</ele><time>2026-04-19T16:36:56.637Z</time></trkpt><trkpt lat="45.598647885858" lon="11.382501720366122"><ele>153.0</ele><time>2026-04-19T16:36:57.638Z</time></trkpt><trkpt lat="45.59837211026426" lon="11.38235202212521"><ele>154.0</ele><time>2026-04-19T16:36:58.638Z</time></trkpt><trkpt lat="45.598092410092946" lon="11.382173065818565"><ele>155.0</ele><time>2026-04-19T16:36:59.65Z</time></trkpt><trkpt lat="45.59594145514592" lon="11.380983246500959"><ele>152.5</ele><time>2026-04-19T16:37:07.638Z</time></trkpt><trkpt lat="45.59566962056631" lon="11.380842013012323"><ele>150.0</ele><time>2026-04-19T16:37:08.638Z</time></trkpt><trkpt lat="45.59528965914729" lon="11.380566941616962"><ele>150.5</ele><time>2026-04-19T16:37:09.638Z</time></trkpt><trkpt lat="45.59506681047908" lon="11.380476259578836"><ele>151.0</ele><time>2026-04-19T16:37:10.638Z</time></trkpt><trkpt lat="45.59475237527122" lon="11.380278222911784"><ele>152.5</ele><time>2026-04-19T16:37:11.638Z</time></trkpt><trkpt lat="45.59442581645906" lon="11.380091875683151"><ele>154.0</ele><time>2026-04-19T16:37:12.638Z</time></trkpt><trkpt lat="45.594114303105584" lon="11.379886101065178"><ele>154.0</ele><time>2026-04-19T16:37:13.638Z</time></trkpt><trkpt lat="45.59381308192729" lon="11.379700019056711"><ele>154.0</ele><time>2026-04-19T16:37:14.638Z</time></trkpt><trkpt lat="45.59350634757618" lon="11.379510476080151"><ele>151.0</ele><time>2026-04-19T16:37:15.655Z</time></trkpt><trkpt lat="45.59071315922363" lon="11.37788361870812"><ele>151.0</ele><time>2026-04-19T16:37:27.638Z</time></trkpt><trkpt lat="45.590464727187964" lon="11.377781005405593"><ele>151.0</ele><time>2026-04-19T16:37:28.638Z</time></trkpt><trkpt lat="45.59021332728632" lon="11.377674883617509"><ele>149.5</ele><time>2026-04-19T16:37:29.638Z</time></trkpt><trkpt lat="45.5899547098441" lon="11.377595317512439"><ele>148.0</ele><time>2026-04-19T16:37:30.638Z</time></trkpt><trkpt lat="45.58970936075206" lon="11.377502443194562"><ele>148.0</ele><time>2026-04-19T16:37:31.638Z</time></trkpt><trkpt lat="45.589457559004806" lon="11.377435672218876"><ele>148.0</ele><time>2026-04-19T16:37:32.65Z</time></trkpt><trkpt lat="45.58910630647613" lon="11.377381626527177"><ele>148.0</ele><time>2026-04-19T16:37:34.638Z</time></trkpt><trkpt lat="45.58890247565733" lon="11.377388663877563"><ele>148.0</ele><time>2026-04-19T16:37:35.638Z</time></trkpt><trkpt lat="45.58871609417215" lon="11.377385594486386"><ele>148.0</ele><time>2026-04-19T16:37:36.638Z</time></trkpt><trkpt lat="45.588549569796335" lon="11.377277148624819"><ele>148.0</ele><time>2026-04-19T16:37:37.638Z</time></trkpt><trkpt lat="45.588418442876396" lon="11.377267039343403"><ele>148.0</ele><time>2026-04-19T16:37:38.638Z</time></trkpt><trkpt lat="45.58829821277927" lon="11.377236819611609"><ele>148.0</ele><time>2026-04-19T16:37:39.638Z</time></trkpt><trkpt lat="45.58819391336135" lon="11.377179784513283"><ele>148.0</ele><time>2026-04-19T16:37:40.638Z</time></trkpt><trkpt lat="45.5880918324458" lon="11.377130135903634"><ele>148.0</ele><time>2026-04-19T16:37:41.638Z</time></trkpt><trkpt lat="45.588032313937084" lon="11.377001906478107"><ele>148.0</ele><time>2026-04-19T16:37:42.638Z</time></trkpt><trkpt lat="45.5879772736529" lon="11.376868776368749"><ele>148.0</ele><time>2026-04-19T16:37:43.638Z</time></trkpt><trkpt lat="45.58796744177332" lon="11.37671576077859"><ele>148.0</ele><time>2026-04-19T16:37:44.638Z</time></trkpt><trkpt lat="45.587979070078774" lon="11.37658210496222"><ele>148.0</ele><time>2026-04-19T16:37:45.638Z</time></trkpt><trkpt lat="45.58800611522664" lon="11.376473695475083"><ele>148.0</ele><time>2026-04-19T16:37:46.638Z</time></trkpt><trkpt lat="45.588051901179234" lon="11.376368161023027"><ele>148.0</ele><time>2026-04-19T16:37:47.638Z</time></trkpt><trkpt lat="45.58812359230129" lon="11.37626279122584"><ele>148.0</ele><time>2026-04-19T16:37:48.638Z</time></trkpt><trkpt lat="45.588213957472476" lon="11.376173542822341"><ele>148.0</ele><time>2026-04-19T16:37:49.638Z</time></trkpt><trkpt lat="45.58833487884517" lon="11.376136908664055"><ele>148.0</ele><time>2026-04-19T16:37:50.638Z</time></trkpt><trkpt lat="45.58846754832913" lon="11.376139207959211"><ele>148.5</ele><time>2026-04-19T16:37:51.638Z</time></trkpt><trkpt lat="45.588587365722994" lon="11.376197725742811"><ele>149.0</ele><time>2026-04-19T16:37:52.638Z</time></trkpt><trkpt lat="45.58871223351547" lon="11.37625262931374"><ele>149.5</ele><time>2026-04-19T16:37:53.638Z</time></trkpt><trkpt lat="45.588813012597726" lon="11.376442969784023"><ele>150.0</ele><time>2026-04-19T16:37:54.638Z</time></trkpt><trkpt lat="45.58893445415908" lon="11.37656337002649"><ele>150.0</ele><time>2026-04-19T16:37:55.638Z</time></trkpt><trkpt lat="45.58903784414408" lon="11.3766589422523"><ele>150.0</ele><time>2026-04-19T16:37:56.638Z</time></trkpt><trkpt lat="45.58914808885758" lon="11.376736037764791"><ele>150.0</ele><time>2026-04-19T16:37:57.638Z</time></trkpt><trkpt lat="45.58925711401667" lon="11.376788727629462"><ele>150.0</ele><time>2026-04-19T16:37:58.638Z</time></trkpt><trkpt lat="45.589365971125595" lon="11.376806244229684"><ele>150.0</ele><time>2026-04-19T16:37:59.638Z</time></trkpt><trkpt lat="45.589474652788056" lon="11.376822341513083"><ele>150.0</ele><time>2026-04-19T16:38:00.638Z</time></trkpt><trkpt lat="45.58957208611667" lon="11.376823337593196"><ele>150.0</ele><time>2026-04-19T16:38:01.638Z</time></trkpt><trkpt lat="45.5896615176368" lon="11.376809212404716"><ele>150.0</ele><time>2026-04-19T16:38:02.638Z</time></trkpt><trkpt lat="45.58973526823924" lon="11.37680287949549"><ele>150.0</ele><time>2026-04-19T16:38:03.638Z</time></trkpt><trkpt lat="45.589821512750824" lon="11.376800348504151"><ele>149.8</ele><time>2026-04-19T16:38:05.638Z</time></trkpt><trkpt lat="45.58991482459292" lon="11.376790414459302"><ele>149.6</ele><time>2026-04-19T16:38:07.638Z</time></trkpt><trkpt lat="45.58998687325161" lon="11.37678999918256"><ele>149.4</ele><time>2026-04-19T16:38:08.638Z</time></trkpt><trkpt lat="45.59008020234234" lon="11.37677708830212"><ele>149.2</ele><time>2026-04-19T16:38:09.638Z</time></trkpt><trkpt lat="45.590209035263165" lon="11.376765786915895"><ele>149.0</ele><time>2026-04-19T16:38:10.638Z</time></trkpt><trkpt lat="45.59037747111284" lon="11.37675138513926"><ele>149.5</ele><time>2026-04-19T16:38:11.638Z</time></trkpt><trkpt lat="45.590516460772655" lon="11.376740526632911"><ele>150.0</ele><time>2026-04-19T16:38:12.638Z</time></trkpt><trkpt lat="45.59064601775044" lon="11.376708314844386"><ele>150.5</ele><time>2026-04-19T16:38:13.638Z</time></trkpt><trkpt lat="45.59075943176868" lon="11.376662403670748"><ele>151.0</ele><time>2026-04-19T16:38:14.638Z</time></trkpt><trkpt lat="45.59086211646691" lon="11.376617465004562"><ele>151.0</ele><time>2026-04-19T16:38:15.638Z</time></trkpt><trkpt lat="45.59095218309396" lon="11.37655331812947"><ele>151.0</ele><time>2026-04-19T16:38:16.638Z</time></trkpt><trkpt lat="45.59103050944073" lon="11.376489571866289"><ele>151.0</ele><time>2026-04-19T16:38:17.638Z</time></trkpt><trkpt lat="45.59110379128783" lon="11.376434412460478"><ele>151.0</ele><time>2026-04-19T16:38:18.638Z</time></trkpt><trkpt lat="45.59116997079713" lon="11.376385876078464"><ele>151.0</ele><time>2026-04-19T16:38:19.638Z</time></trkpt><trkpt lat="45.59122925442036" lon="11.37633208319325"><ele>151.0</ele><time>2026-04-19T16:38:20.638Z</time></trkpt><trkpt lat="45.591319716466785" lon="11.376373232665825"><ele>151.8</ele><time>2026-04-19T16:38:21.638Z</time></trkpt><trkpt lat="45.59140032003355" lon="11.37643289225402"><ele>152.6</ele><time>2026-04-19T16:38:22.638Z</time></trkpt><trkpt lat="45.591459599453636" lon="11.376520605589773"><ele>153.4</ele><time>2026-04-19T16:38:23.638Z</time></trkpt><trkpt lat="45.59150195004311" lon="11.376639471469835"><ele>154.2</ele><time>2026-04-19T16:38:24.638Z</time></trkpt><trkpt lat="45.591477527898796" lon="11.376856678426204"><ele>155.0</ele><time>2026-04-19T16:38:26.638Z</time></trkpt><trkpt lat="45.59143985603876" lon="11.377009593604049"><ele>155.0</ele><time>2026-04-19T16:38:27.638Z</time></trkpt><trkpt lat="45.59130728995017" lon="11.377110721470379"><ele>155.0</ele><time>2026-04-19T16:38:28.638Z</time></trkpt><trkpt lat="45.59120367934019" lon="11.377187500664732"><ele>155.0</ele><time>2026-04-19T16:38:29.638Z</time></trkpt><trkpt lat="45.59106567154072" lon="11.377242522526066"><ele>155.0</ele><time>2026-04-19T16:38:30.638Z</time></trkpt><trkpt lat="45.590883712547615" lon="11.377267638163572"><ele>153.66666666666666</ele><time>2026-04-19T16:38:31.638Z</time></trkpt><trkpt lat="45.59068102843398" lon="11.377273064644925"><ele>152.33333333333334</ele><time>2026-04-19T16:38:32.638Z</time></trkpt><trkpt lat="45.59050186167095" lon="11.377318151255778"><ele>151.0</ele><time>2026-04-19T16:38:33.638Z</time></trkpt><trkpt lat="45.59032231026092" lon="11.377393878553859"><ele>150.0</ele><time>2026-04-19T16:38:34.638Z</time></trkpt><trkpt lat="45.5901427166372" lon="11.377517209504036"><ele>149.0</ele><time>2026-04-19T16:38:35.638Z</time></trkpt><trkpt lat="45.58995437248449" lon="11.377672020785807"><ele>148.0</ele><time>2026-04-19T16:38:36.638Z</time></trkpt><trkpt lat="45.58975127831022" lon="11.377863497570134"><ele>149.0</ele><time>2026-04-19T16:38:37.638Z</time></trkpt><trkpt lat="45.589523311853" lon="11.378058369188633"><ele>150.0</ele><time>2026-04-19T16:38:38.638Z</time></trkpt><trkpt lat="45.5893055217494" lon="11.378228714785894"><ele>150.0</ele><time>2026-04-19T16:38:39.638Z</time></trkpt><trkpt lat="45.589104478356056" lon="11.378372761082437"><ele>150.0</ele><time>2026-04-19T16:38:40.638Z</time></trkpt><trkpt lat="45.58890415618596" lon="11.378501487586526"><ele>150.0</ele><time>2026-04-19T16:38:41.638Z</time></trkpt><trkpt lat="45.58871233836371" lon="11.378615180168095"><ele>150.33333333333334</ele><time>2026-04-19T16:38:42.638Z</time></trkpt><trkpt lat="45.588523771933176" lon="11.378707805678944"><ele>150.66666666666669</ele><time>2026-04-19T16:38:43.638Z</time></trkpt><trkpt lat="45.58833763200554" lon="11.378815081049744"><ele>151.0</ele><time>2026-04-19T16:38:44.638Z</time></trkpt><trkpt lat="45.58815520942272" lon="11.3789222246482"><ele>150.33333333333334</ele><time>2026-04-19T16:38:45.638Z</time></trkpt><trkpt lat="45.58797870820659" lon="11.37902630791306"><ele>149.66666666666666</ele><time>2026-04-19T16:38:46.638Z</time></trkpt><trkpt lat="45.587804073954096" lon="11.379129290279545"><ele>149.0</ele><time>2026-04-19T16:38:47.638Z</time></trkpt><trkpt lat="45.587628089225674" lon="11.379228983392485"><ele>149.0</ele><time>2026-04-19T16:38:48.638Z</time></trkpt><trkpt lat="45.58745002844911" lon="11.37932812180877"><ele>149.0</ele><time>2026-04-19T16:38:49.638Z</time></trkpt><trkpt lat="45.58727339680698" lon="11.379425484012433"><ele>149.0</ele><time>2026-04-19T16:38:50.638Z</time></trkpt><trkpt lat="45.587097369030765" lon="11.379517932945108"><ele>149.0</ele><time>2026-04-19T16:38:51.638Z</time></trkpt><trkpt lat="45.58693448293198" lon="11.379619424686648"><ele>149.0</ele><time>2026-04-19T16:38:52.638Z</time></trkpt><trkpt lat="45.58675436253859" lon="11.379696631305983"><ele>149.0</ele><time>2026-04-19T16:38:53.638Z</time></trkpt><trkpt lat="45.5865809364159" lon="11.379807810886579"><ele>148.33333333333331</ele><time>2026-04-19T16:38:54.638Z</time></trkpt><trkpt lat="45.58639551373984" lon="11.379896919463937"><ele>147.66666666666666</ele><time>2026-04-19T16:38:55.638Z</time></trkpt><trkpt lat="45.586211941598165" lon="11.379989333258399"><ele>147.0</ele><time>2026-04-19T16:38:56.638Z</time></trkpt><trkpt lat="45.58603947750495" lon="11.380072902268951"><ele>146.66666666666666</ele><time>2026-04-19T16:38:57.638Z</time></trkpt><trkpt lat="45.58586373599944" lon="11.38012921457652"><ele>146.33333333333331</ele><time>2026-04-19T16:38:58.638Z</time></trkpt><trkpt lat="45.58568507394241" lon="11.38020263944691"><ele>146.0</ele><time>2026-04-19T16:38:59.638Z</time></trkpt><trkpt lat="45.585502393516265" lon="11.38027020432191"><ele>146.33333333333331</ele><time>2026-04-19T16:39:00.638Z</time></trkpt><trkpt lat="45.58531086629908" lon="11.38033941103096"><ele>146.66666666666666</ele><time>2026-04-19T16:39:01.639Z</time></trkpt><trkpt lat="45.58510099031235" lon="11.380414818497524"><ele>147.0</ele><time>2026-04-19T16:39:02.639Z</time></trkpt><trkpt lat="45.584920287315555" lon="11.380503785475968"><ele>147.0</ele><time>2026-04-19T16:39:03.639Z</time></trkpt><trkpt lat="45.58474028333615" lon="11.38056422676434"><ele>147.0</ele><time>2026-04-19T16:39:04.639Z</time></trkpt><trkpt lat="45.58456560935885" lon="11.380623321533673"><ele>147.0</ele><time>2026-04-19T16:39:05.639Z</time></trkpt><trkpt lat="45.58438577266716" lon="11.3806829716429"><ele>147.0</ele><time>2026-04-19T16:39:06.639Z</time></trkpt><trkpt lat="45.58419089827415" lon="11.380750241981648"><ele>147.0</ele><time>2026-04-19T16:39:07.639Z</time></trkpt><trkpt lat="45.58397921435201" lon="11.380830075340794"><ele>147.0</ele><time>2026-04-19T16:39:08.639Z</time></trkpt><trkpt lat="45.58375691486915" lon="11.380909644579846"><ele>147.0</ele><time>2026-04-19T16:39:09.639Z</time></trkpt><trkpt lat="45.58351428542718" lon="11.380993214996387"><ele>147.0</ele><time>2026-04-19T16:39:10.639Z</time></trkpt><trkpt lat="45.583269348174895" lon="11.381070973681437"><ele>147.0</ele><time>2026-04-19T16:39:11.639Z</time></trkpt><trkpt lat="45.583037106963474" lon="11.381159676957589"><ele>147.0</ele><time>2026-04-19T16:39:12.639Z</time></trkpt><trkpt lat="45.58282001238313" lon="11.38123306756327"><ele>147.0</ele><time>2026-04-19T16:39:13.639Z</time></trkpt><trkpt lat="45.58262671140138" lon="11.3813068347013"><ele>147.0</ele><time>2026-04-19T16:39:14.639Z</time></trkpt><trkpt lat="45.58244833206672" lon="11.381361232841863"><ele>147.0</ele><time>2026-04-19T16:39:15.639Z</time></trkpt><trkpt lat="45.582284118745164" lon="11.381417258448483"><ele>146.0</ele><time>2026-04-19T16:39:16.639Z</time></trkpt><trkpt lat="45.58212690189561" lon="11.381447885082233"><ele>145.0</ele><time>2026-04-19T16:39:17.639Z</time></trkpt><trkpt lat="45.58198117298755" lon="11.381475360669656"><ele>144.0</ele><time>2026-04-19T16:39:18.639Z</time></trkpt><trkpt lat="45.58183716907331" lon="11.381490736374174"><ele>144.0</ele><time>2026-04-19T16:39:19.639Z</time></trkpt><trkpt lat="45.58167699365916" lon="11.381482748520897"><ele>144.0</ele><time>2026-04-19T16:39:20.639Z</time></trkpt><trkpt lat="45.58152785026705" lon="11.381440599785803"><ele>144.0</ele><time>2026-04-19T16:39:21.639Z</time></trkpt><trkpt lat="45.5813640060092" lon="11.38138044711557"><ele>144.25</ele><time>2026-04-19T16:39:22.639Z</time></trkpt><trkpt lat="45.58122251809655" lon="11.381313882894913"><ele>144.5</ele><time>2026-04-19T16:39:23.639Z</time></trkpt><trkpt lat="45.58108127246693" lon="11.381275484950029"><ele>144.75</ele><time>2026-04-19T16:39:24.639Z</time></trkpt><trkpt lat="45.58093363427462" lon="11.381262089947008"><ele>145.0</ele><time>2026-04-19T16:39:25.639Z</time></trkpt><trkpt lat="45.580760485217354" lon="11.381278479439105"><ele>145.0</ele><time>2026-04-19T16:39:26.639Z</time></trkpt><trkpt lat="45.580577787843794" lon="11.381335425897042"><ele>145.0</ele><time>2026-04-19T16:39:27.639Z</time></trkpt><trkpt lat="45.58038942843549" lon="11.381425577547393"><ele>145.0</ele><time>2026-04-19T16:39:28.639Z</time></trkpt><trkpt lat="45.58019385432837" lon="11.381570398887693"><ele>144.33333333333334</ele><time>2026-04-19T16:39:29.639Z</time></trkpt><trkpt lat="45.58001232740916" lon="11.381723836183092"><ele>143.66666666666666</ele><time>2026-04-19T16:39:30.639Z</time></trkpt><trkpt lat="45.57985112293805" lon="11.381898006638856"><ele>143.0</ele><time>2026-04-19T16:39:31.639Z</time></trkpt><trkpt lat="45.57967355647907" lon="11.382024903379433"><ele>143.0</ele><time>2026-04-19T16:39:32.639Z</time></trkpt><trkpt lat="45.57951779680899" lon="11.382150190008664"><ele>143.0</ele><time>2026-04-19T16:39:33.639Z</time></trkpt><trkpt lat="45.579352900563705" lon="11.382262831447084"><ele>143.0</ele><time>2026-04-19T16:39:34.639Z</time></trkpt><trkpt lat="45.57916307770079" lon="11.382393573455394"><ele>143.0</ele><time>2026-04-19T16:39:35.639Z</time></trkpt><trkpt lat="45.578954779054726" lon="11.382506834506376"><ele>143.0</ele><time>2026-04-19T16:39:36.639Z</time></trkpt><trkpt lat="45.57873085636851" lon="11.382646823841453"><ele>142.0</ele><time>2026-04-19T16:39:37.639Z</time></trkpt><trkpt lat="45.57847489055807" lon="11.38273107704613"><ele>141.0</ele><time>2026-04-19T16:39:38.639Z</time></trkpt><trkpt lat="45.57821496639959" lon="11.382838051404867"><ele>141.0</ele><time>2026-04-19T16:39:39.639Z</time></trkpt><trkpt lat="45.57797659413322" lon="11.382924942842589"><ele>141.0</ele><time>2026-04-19T16:39:40.639Z</time></trkpt><trkpt lat="45.5777481871316" lon="11.382999210507101"><ele>140.33333333333334</ele><time>2026-04-19T16:39:41.639Z</time></trkpt><trkpt lat="45.577526854574714" lon="11.38303636112398"><ele>139.66666666666669</ele><time>2026-04-19T16:39:42.639Z</time></trkpt><trkpt lat="45.57731999298999" lon="11.383067228546366"><ele>139.0</ele><time>2026-04-19T16:39:43.639Z</time></trkpt><trkpt lat="45.57710149059594" lon="11.383091153979459"><ele>138.33333333333334</ele><time>2026-04-19T16:39:44.639Z</time></trkpt><trkpt lat="45.57689129517828" lon="11.38311890614949"><ele>137.66666666666666</ele><time>2026-04-19T16:39:45.639Z</time></trkpt><trkpt lat="45.57668775915048" lon="11.383143984265798"><ele>137.0</ele><time>2026-04-19T16:39:46.639Z</time></trkpt><trkpt lat="45.57649306259449" lon="11.383165346818991"><ele>137.0</ele><time>2026-04-19T16:39:47.639Z</time></trkpt><trkpt lat="45.57629769471409" lon="11.383189836833091"><ele>137.0</ele><time>2026-04-19T16:39:48.639Z</time></trkpt><trkpt lat="45.57610947921751" lon="11.383206866358574"><ele>137.0</ele><time>2026-04-19T16:39:49.639Z</time></trkpt><trkpt lat="45.57591746348181" lon="11.383218953945526"><ele>137.0</ele><time>2026-04-19T16:39:50.639Z</time></trkpt><trkpt lat="45.575703882373965" lon="11.383236546792752"><ele>137.0</ele><time>2026-04-19T16:39:51.639Z</time></trkpt><trkpt lat="45.57547586899692" lon="11.383275378083518"><ele>137.0</ele><time>2026-04-19T16:39:52.639Z</time></trkpt><trkpt lat="45.575235656852314" lon="11.383313606446297"><ele>136.5</ele><time>2026-04-19T16:39:53.639Z</time></trkpt><trkpt lat="45.575001585267664" lon="11.383345098400987"><ele>136.0</ele><time>2026-04-19T16:39:54.639Z</time></trkpt><trkpt lat="45.574775059213216" lon="11.383361716258507"><ele>136.0</ele><time>2026-04-19T16:39:55.639Z</time></trkpt><trkpt lat="45.574558392585814" lon="11.383382240659683"><ele>136.0</ele><time>2026-04-19T16:39:56.639Z</time></trkpt><trkpt lat="45.57436515896762" lon="11.383407539979395"><ele>136.0</ele><time>2026-04-19T16:39:57.639Z</time></trkpt><trkpt lat="45.574186458627416" lon="11.38342161354429"><ele>136.0</ele><time>2026-04-19T16:39:58.639Z</time></trkpt><trkpt lat="45.57400912794003" lon="11.383439588952465"><ele>136.0</ele><time>2026-04-19T16:39:59.639Z</time></trkpt><trkpt lat="45.5738351146051" lon="11.383451162877925"><ele>136.0</ele><time>2026-04-19T16:40:00.639Z</time></trkpt><trkpt lat="45.573674112114816" lon="11.383470745639023"><ele>136.0</ele><time>2026-04-19T16:40:01.639Z</time></trkpt><trkpt lat="45.57350499997021" lon="11.383496788027227"><ele>136.0</ele><time>2026-04-19T16:40:02.639Z</time></trkpt><trkpt lat="45.573318910009206" lon="11.38351892022934"><ele>136.0</ele><time>2026-04-19T16:40:03.639Z</time></trkpt><trkpt lat="45.57311016045935" lon="11.383549626887731"><ele>136.0</ele><time>2026-04-19T16:40:04.639Z</time></trkpt><trkpt lat="45.572893390043966" lon="11.383575618096621"><ele>136.0</ele><time>2026-04-19T16:40:05.639Z</time></trkpt><trkpt lat="45.5726532945496" lon="11.383595323026665"><ele>135.0</ele><time>2026-04-19T16:40:06.639Z</time></trkpt><trkpt lat="45.572400500702486" lon="11.383611708958355"><ele>134.0</ele><time>2026-04-19T16:40:07.639Z</time></trkpt><trkpt lat="45.572160675112904" lon="11.383636601146591"><ele>134.0</ele><time>2026-04-19T16:40:08.639Z</time></trkpt><trkpt lat="45.57194081412357" lon="11.383662721927804"><ele>134.0</ele><time>2026-04-19T16:40:09.639Z</time></trkpt><trkpt lat="45.57173526363379" lon="11.383686933544352"><ele>134.0</ele><time>2026-04-19T16:40:10.639Z</time></trkpt><trkpt lat="45.571547473305195" lon="11.383706599899323"><ele>134.0</ele><time>2026-04-19T16:40:11.639Z</time></trkpt><trkpt lat="45.571367486453425" lon="11.383713354738743"><ele>134.0</ele><time>2026-04-19T16:40:12.639Z</time></trkpt><trkpt lat="45.57121236495157" lon="11.383714032791802"><ele>134.0</ele><time>2026-04-19T16:40:13.639Z</time></trkpt><trkpt lat="45.57107679503064" lon="11.383723162061377"><ele>134.0</ele><time>2026-04-19T16:40:14.639Z</time></trkpt><trkpt lat="45.57094519318187" lon="11.383734697994877"><ele>134.0</ele><time>2026-04-19T16:40:15.639Z</time></trkpt><trkpt lat="45.57081035168872" lon="11.383740837873225"><ele>134.0</ele><time>2026-04-19T16:40:16.639Z</time></trkpt><trkpt lat="45.57065224333824" lon="11.383765670898372"><ele>134.0</ele><time>2026-04-19T16:40:17.639Z</time></trkpt><trkpt lat="45.57046710716404" lon="11.38379788358695"><ele>133.66666666666666</ele><time>2026-04-19T16:40:18.639Z</time></trkpt><trkpt lat="45.57026286267359" lon="11.383822924270188"><ele>133.33333333333334</ele><time>2026-04-19T16:40:19.639Z</time></trkpt><trkpt lat="45.570040193752924" lon="11.383847049311703"><ele>133.0</ele><time>2026-04-19T16:40:20.639Z</time></trkpt><trkpt lat="45.56980737389151" lon="11.383880724705488"><ele>132.66666666666669</ele><time>2026-04-19T16:40:21.639Z</time></trkpt><trkpt lat="45.569589347006456" lon="11.383901583426427"><ele>132.33333333333334</ele><time>2026-04-19T16:40:22.639Z</time></trkpt><trkpt lat="45.569391217273676" lon="11.383923638466186"><ele>132.0</ele><time>2026-04-19T16:40:23.639Z</time></trkpt><trkpt lat="45.56920443152058" lon="11.383937319982621"><ele>132.0</ele><time>2026-04-19T16:40:24.639Z</time></trkpt><trkpt lat="45.56903548955915" lon="11.383947233610368"><ele>132.0</ele><time>2026-04-19T16:40:25.639Z</time></trkpt><trkpt lat="45.568882070954615" lon="11.38394852069063"><ele>132.0</ele><time>2026-04-19T16:40:26.639Z</time></trkpt><trkpt lat="45.568744785852765" lon="11.38396565687179"><ele>132.0</ele><time>2026-04-19T16:40:27.639Z</time></trkpt><trkpt lat="45.56862878465723" lon="11.383935610820377"><ele>132.0</ele><time>2026-04-19T16:40:28.639Z</time></trkpt><trkpt lat="45.568531604563816" lon="11.383913195025803"><ele>132.0</ele><time>2026-04-19T16:40:29.639Z</time></trkpt><trkpt lat="45.56845004580233" lon="11.383852213925238"><ele>132.0</ele><time>2026-04-19T16:40:30.639Z</time></trkpt><trkpt lat="45.56837771686077" lon="11.383746425283576"><ele>132.0</ele><time>2026-04-19T16:40:31.639Z</time></trkpt><trkpt lat="45.56830490267235" lon="11.383651181116429"><ele>131.6</ele><time>2026-04-19T16:40:32.639Z</time></trkpt><trkpt lat="45.568217985913314" lon="11.383622744043457"><ele>131.2</ele><time>2026-04-19T16:40:33.639Z</time></trkpt><trkpt lat="45.56811849267365" lon="11.383647079474512"><ele>130.8</ele><time>2026-04-19T16:40:34.639Z</time></trkpt><trkpt lat="45.568013261413" lon="11.383718420704579"><ele>130.4</ele><time>2026-04-19T16:40:35.639Z</time></trkpt><trkpt lat="45.56792105837904" lon="11.383836356860597"><ele>130.0</ele><time>2026-04-19T16:40:36.639Z</time></trkpt><trkpt lat="45.56785324212405" lon="11.383970324201126"><ele>129.5</ele><time>2026-04-19T16:40:37.639Z</time></trkpt><trkpt lat="45.567777260128906" lon="11.384069166913873"><ele>129.0</ele><time>2026-04-19T16:40:38.639Z</time></trkpt><trkpt lat="45.567658051750456" lon="11.38413064125304"><ele>128.5</ele><time>2026-04-19T16:40:39.639Z</time></trkpt><trkpt lat="45.567503312488164" lon="11.384165565973206"><ele>128.0</ele><time>2026-04-19T16:40:40.639Z</time></trkpt><trkpt lat="45.56731493949984" lon="11.384180712584948"><ele>128.0</ele><time>2026-04-19T16:40:41.639Z</time></trkpt><trkpt lat="45.56708841111084" lon="11.384192290985009"><ele>128.0</ele><time>2026-04-19T16:40:42.639Z</time></trkpt><trkpt lat="45.56683147049" lon="11.384209262667742"><ele>128.5</ele><time>2026-04-19T16:40:43.639Z</time></trkpt><trkpt lat="45.5665893510729" lon="11.384229987463161"><ele>129.0</ele><time>2026-04-19T16:40:44.639Z</time></trkpt><trkpt lat="45.56637348137846" lon="11.384255894120104"><ele>129.0</ele><time>2026-04-19T16:40:45.639Z</time></trkpt><trkpt lat="45.566167820893156" lon="11.384278156573814"><ele>129.0</ele><time>2026-04-19T16:40:46.639Z</time></trkpt><trkpt lat="45.56597631151073" lon="11.384302246739656"><ele>129.0</ele><time>2026-04-19T16:40:47.639Z</time></trkpt><trkpt lat="45.56578882357535" lon="11.38432695470039"><ele>129.0</ele><time>2026-04-19T16:40:48.639Z</time></trkpt><trkpt lat="45.565615539955296" lon="11.384352974765548"><ele>129.0</ele><time>2026-04-19T16:40:49.639Z</time></trkpt><trkpt lat="45.56545243473777" lon="11.384372359330575"><ele>129.0</ele><time>2026-04-19T16:40:50.639Z</time></trkpt><trkpt lat="45.56530980579123" lon="11.384391361535144"><ele>128.8</ele><time>2026-04-19T16:40:51.639Z</time></trkpt><trkpt lat="45.56519881557933" lon="11.384402404494866"><ele>128.60000000000002</ele><time>2026-04-19T16:40:52.639Z</time></trkpt><trkpt lat="45.56509454350843" lon="11.384404555467064"><ele>128.4</ele><time>2026-04-19T16:40:53.639Z</time></trkpt><trkpt lat="45.56501251133063" lon="11.384409332005239"><ele>128.20000000000002</ele><time>2026-04-19T16:40:54.639Z</time></trkpt><trkpt lat="45.564945134872126" lon="11.38441159877026"><ele>128.0</ele><time>2026-04-19T16:40:55.639Z</time></trkpt><trkpt lat="45.56485781621255" lon="11.384393183700643"><ele>127.99999999999999</ele><time>2026-04-19T16:40:56.639Z</time></trkpt><trkpt lat="45.56477312038287" lon="11.384336424531558"><ele>128.0</ele><time>2026-04-19T16:40:57.639Z</time></trkpt><trkpt lat="45.5646976171578" lon="11.384293380178283"><ele>128.0</ele><time>2026-04-19T16:40:58.639Z</time></trkpt><trkpt lat="45.564621789497586" lon="11.384298240587832"><ele>128.0</ele><time>2026-04-19T16:40:59.639Z</time></trkpt><trkpt lat="45.56454711997456" lon="11.38435002597055"><ele>127.99999999999999</ele><time>2026-04-19T16:41:00.639Z</time></trkpt><trkpt lat="45.56449451258456" lon="11.38446357948363"><ele>128.0</ele><time>2026-04-19T16:41:01.639Z</time></trkpt><trkpt lat="45.564348861703984" lon="11.384502587430426"><ele>127.66666666666666</ele><time>2026-04-19T16:41:02.639Z</time></trkpt><trkpt lat="45.56417447916211" lon="11.384517838978384"><ele>127.33333333333334</ele><time>2026-04-19T16:41:03.639Z</time></trkpt><trkpt lat="45.56395900399748" lon="11.384534516591437"><ele>127.0</ele><time>2026-04-19T16:41:04.639Z</time></trkpt><trkpt lat="45.56371099825204" lon="11.384554811258493"><ele>126.0</ele><time>2026-04-19T16:41:05.639Z</time></trkpt><trkpt lat="45.56349505914868" lon="11.384581698484194"><ele>125.0</ele><time>2026-04-19T16:41:06.639Z</time></trkpt><trkpt lat="45.563297006389355" lon="11.384605375652047"><ele>124.0</ele><time>2026-04-19T16:41:07.64Z</time></trkpt><trkpt lat="45.563115431766256" lon="11.384622617826187"><ele>124.0</ele><time>2026-04-19T16:41:08.64Z</time></trkpt><trkpt lat="45.56294788458727" lon="11.384633483511713"><ele>124.0</ele><time>2026-04-19T16:41:09.64Z</time></trkpt><trkpt lat="45.56278785311232" lon="11.384657618295709"><ele>124.0</ele><time>2026-04-19T16:41:10.64Z</time></trkpt><trkpt lat="45.562643132124755" lon="11.384679906984392"><ele>123.75</ele><time>2026-04-19T16:41:11.64Z</time></trkpt><trkpt lat="45.56251141309623" lon="11.384690137094086"><ele>123.5</ele><time>2026-04-19T16:41:12.64Z</time></trkpt><trkpt lat="45.56238566207211" lon="11.384708534249002"><ele>123.25</ele><time>2026-04-19T16:41:13.64Z</time></trkpt><trkpt lat="45.562260973878736" lon="11.384732601703355"><ele>123.0</ele><time>2026-04-19T16:41:14.64Z</time></trkpt><trkpt lat="45.56212185957769" lon="11.384752682725772"><ele>123.33333333333334</ele><time>2026-04-19T16:41:15.64Z</time></trkpt><trkpt lat="45.561968231485984" lon="11.384764095400035"><ele>123.66666666666667</ele><time>2026-04-19T16:41:16.64Z</time></trkpt><trkpt lat="45.56180327153907" lon="11.384774061439163"><ele>124.0</ele><time>2026-04-19T16:41:17.64Z</time></trkpt><trkpt lat="45.56161012811077" lon="11.384781327655762"><ele>124.0</ele><time>2026-04-19T16:41:18.64Z</time></trkpt><trkpt lat="45.56139411279656" lon="11.384803248497386"><ele>124.0</ele><time>2026-04-19T16:41:19.64Z</time></trkpt><trkpt lat="45.56114628672503" lon="11.384824951897212"><ele>123.0</ele><time>2026-04-19T16:41:20.64Z</time></trkpt><trkpt lat="45.56086431938687" lon="11.384859101475948"><ele>122.0</ele><time>2026-04-19T16:41:21.64Z</time></trkpt><trkpt lat="45.5605846530425" lon="11.384893922099964"><ele>122.0</ele><time>2026-04-19T16:41:22.64Z</time></trkpt><trkpt lat="45.560340594710674" lon="11.384927082387737"><ele>122.0</ele><time>2026-04-19T16:41:23.64Z</time></trkpt><trkpt lat="45.560103988161515" lon="11.3849545092717"><ele>122.0</ele><time>2026-04-19T16:41:24.64Z</time></trkpt><trkpt lat="45.5598703491557" lon="11.38497922816876"><ele>122.0</ele><time>2026-04-19T16:41:25.64Z</time></trkpt><trkpt lat="45.55964428751198" lon="11.385007044024706"><ele>122.0</ele><time>2026-04-19T16:41:26.64Z</time></trkpt><trkpt lat="45.55941803673637" lon="11.385029657586903"><ele>122.0</ele><time>2026-04-19T16:41:27.64Z</time></trkpt><trkpt lat="45.559196456616576" lon="11.385051854351092"><ele>122.0</ele><time>2026-04-19T16:41:28.64Z</time></trkpt><trkpt lat="45.55898361100836" lon="11.385082333322671"><ele>122.0</ele><time>2026-04-19T16:41:29.64Z</time></trkpt><trkpt lat="45.558757132385665" lon="11.38511336328198"><ele>122.0</ele><time>2026-04-19T16:41:30.64Z</time></trkpt><trkpt lat="45.558503979398964" lon="11.385140897169205"><ele>122.5</ele><time>2026-04-19T16:41:31.64Z</time></trkpt><trkpt lat="45.558253838338864" lon="11.385155062357907"><ele>123.0</ele><time>2026-04-19T16:41:32.64Z</time></trkpt><trkpt lat="45.55803116368466" lon="11.385172021787536"><ele>123.0</ele><time>2026-04-19T16:41:33.64Z</time></trkpt><trkpt lat="45.5578202807414" lon="11.385179339029975"><ele>123.0</ele><time>2026-04-19T16:41:34.64Z</time></trkpt><trkpt lat="45.55761402619783" lon="11.385174140213646"><ele>123.0</ele><time>2026-04-19T16:41:35.64Z</time></trkpt><trkpt lat="45.55738668665029" lon="11.385141496229098"><ele>123.0</ele><time>2026-04-19T16:41:36.64Z</time></trkpt><trkpt lat="45.55715498478737" lon="11.38509638358426"><ele>123.0</ele><time>2026-04-19T16:41:37.64Z</time></trkpt><trkpt lat="45.5569391662949" lon="11.385057325167253"><ele>123.0</ele><time>2026-04-19T16:41:38.64Z</time></trkpt><trkpt lat="45.556740989725085" lon="11.385023259380848"><ele>123.0</ele><time>2026-04-19T16:41:39.64Z</time></trkpt><trkpt lat="45.5565687526597" lon="11.384988843657558"><ele>123.0</ele><time>2026-04-19T16:41:40.64Z</time></trkpt><trkpt lat="45.55642393882666" lon="11.384946991107444"><ele>123.0</ele><time>2026-04-19T16:41:41.64Z</time></trkpt><trkpt lat="45.55630059619476" lon="11.384881963369393"><ele>123.00000000000001</ele><time>2026-04-19T16:41:42.64Z</time></trkpt><trkpt lat="45.55620261525051" lon="11.384797172248732"><ele>123.00000000000001</ele><time>2026-04-19T16:41:43.64Z</time></trkpt><trkpt lat="45.55611680558151" lon="11.384708087035198"><ele>123.0</ele><time>2026-04-19T16:41:44.64Z</time></trkpt><trkpt lat="45.55602414237257" lon="11.384676001036583"><ele>123.0</ele><time>2026-04-19T16:41:45.64Z</time></trkpt><trkpt lat="45.555936073787926" lon="11.38471127008538"><ele>122.75</ele><time>2026-04-19T16:41:46.64Z</time></trkpt><trkpt lat="45.55584670819829" lon="11.38481639397497"><ele>122.5</ele><time>2026-04-19T16:41:47.64Z</time></trkpt><trkpt lat="45.555700713160434" lon="11.384859346009149"><ele>122.25</ele><time>2026-04-19T16:41:48.64Z</time></trkpt><trkpt lat="45.555561383140045" lon="11.384918560715795"><ele>122.0</ele><time>2026-04-19T16:41:49.64Z</time></trkpt><trkpt lat="45.5553621481936" lon="11.384838136057823"><ele>119.5</ele><time>2026-04-19T16:41:50.64Z</time></trkpt><trkpt lat="45.5551499606518" lon="11.384778665699859"><ele>117.0</ele><time>2026-04-19T16:41:51.64Z</time></trkpt><trkpt lat="45.55490420626459" lon="11.384728815102331"><ele>117.0</ele><time>2026-04-19T16:41:52.64Z</time></trkpt><trkpt lat="45.55462970068755" lon="11.384686163738367"><ele>117.0</ele><time>2026-04-19T16:41:53.64Z</time></trkpt><trkpt lat="45.55434743201401" lon="11.38463738107467"><ele>117.0</ele><time>2026-04-19T16:41:54.64Z</time></trkpt><trkpt lat="45.554143428707725" lon="11.384299155156194"><ele>117.0</ele><time>2026-04-19T16:41:55.64Z</time></trkpt><trkpt lat="45.5538972196803" lon="11.384221697854022"><ele>116.5</ele><time>2026-04-19T16:41:56.64Z</time></trkpt><trkpt lat="45.5536317224351" lon="11.384157460163319"><ele>116.0</ele><time>2026-04-19T16:41:57.64Z</time></trkpt><trkpt lat="45.5532915728931" lon="11.384461385873934"><ele>116.0</ele><time>2026-04-19T16:41:58.64Z</time></trkpt><trkpt lat="45.55302506969156" lon="11.384418402972484"><ele>116.0</ele><time>2026-04-19T16:41:59.64Z</time></trkpt><trkpt lat="45.55277749140881" lon="11.384371593524545"><ele>117.0</ele><time>2026-04-19T16:42:00.64Z</time></trkpt><trkpt lat="45.55254095555311" lon="11.384322663179802"><ele>118.0</ele><time>2026-04-19T16:42:01.64Z</time></trkpt><trkpt lat="45.5523170689725" lon="11.384285172020968"><ele>118.0</ele><time>2026-04-19T16:42:02.64Z</time></trkpt><trkpt lat="45.55209350119114" lon="11.38424535232893"><ele>118.0</ele><time>2026-04-19T16:42:03.64Z</time></trkpt><trkpt lat="45.551867720356384" lon="11.38420428707049"><ele>117.0</ele><time>2026-04-19T16:42:04.64Z</time></trkpt><trkpt lat="45.55164186328853" lon="11.384165143554219"><ele>116.0</ele><time>2026-04-19T16:42:05.64Z</time></trkpt><trkpt lat="45.55141911919745" lon="11.38412783452773"><ele>115.33333333333333</ele><time>2026-04-19T16:42:06.64Z</time></trkpt><trkpt lat="45.551199241979724" lon="11.384094173548947"><ele>114.66666666666666</ele><time>2026-04-19T16:42:07.64Z</time></trkpt><trkpt lat="45.55098686483202" lon="11.384061459207263"><ele>114.0</ele><time>2026-04-19T16:42:08.64Z</time></trkpt><trkpt lat="45.55079202375281" lon="11.38402666623092"><ele>114.0</ele><time>2026-04-19T16:42:09.64Z</time></trkpt><trkpt lat="45.550623334550075" lon="11.383991877867125"><ele>114.0</ele><time>2026-04-19T16:42:10.64Z</time></trkpt><trkpt lat="45.550484306346064" lon="11.383954430114654"><ele>114.0</ele><time>2026-04-19T16:42:11.64Z</time></trkpt><trkpt lat="45.550360737374085" lon="11.383895737402089"><ele>114.0</ele><time>2026-04-19T16:42:12.64Z</time></trkpt><trkpt lat="45.55025163649949" lon="11.383802093237014"><ele>113.5</ele><time>2026-04-19T16:42:13.64Z</time></trkpt><trkpt lat="45.550168261763396" lon="11.383679537661813"><ele>113.0</ele><time>2026-04-19T16:42:14.64Z</time></trkpt><trkpt lat="45.55010471279426" lon="11.383518239258427"><ele>112.5</ele><time>2026-04-19T16:42:15.64Z</time></trkpt><trkpt lat="45.5500645210633" lon="11.383331646950065"><ele>112.0</ele><time>2026-04-19T16:42:16.64Z</time></trkpt><trkpt lat="45.55001018117081" lon="11.383144393313007"><ele>112.25</ele><time>2026-04-19T16:42:17.64Z</time></trkpt><trkpt lat="45.5499255428014" lon="11.383009512744211"><ele>112.5</ele><time>2026-04-19T16:42:18.64Z</time></trkpt><trkpt lat="45.54982058574582" lon="11.382915382581071"><ele>112.75</ele><time>2026-04-19T16:42:19.64Z</time></trkpt><trkpt lat="45.549695305760174" lon="11.382873845019894"><ele>113.0</ele><time>2026-04-19T16:42:20.64Z</time></trkpt><trkpt lat="45.54956665510039" lon="11.382894539057903"><ele>113.0</ele><time>2026-04-19T16:42:21.64Z</time></trkpt><trkpt lat="45.5494527266972" lon="11.382946161401913"><ele>113.0</ele><time>2026-04-19T16:42:22.64Z</time></trkpt><trkpt lat="45.54934683868892" lon="11.383004553397555"><ele>113.0</ele><time>2026-04-19T16:42:23.64Z</time></trkpt><trkpt lat="45.549223021312706" lon="11.38302019241861"><ele>113.0</ele><time>2026-04-19T16:42:24.64Z</time></trkpt><trkpt lat="45.54909428833091" lon="11.382991412541545"><ele>113.0</ele><time>2026-04-19T16:42:25.64Z</time></trkpt><trkpt lat="45.54895658807777" lon="11.382920902373778"><ele>113.0</ele><time>2026-04-19T16:42:26.64Z</time></trkpt><trkpt lat="45.548791048755625" lon="11.38280414558244"><ele>113.0</ele><time>2026-04-19T16:42:27.64Z</time></trkpt><trkpt lat="45.54862664044591" lon="11.382659151010904"><ele>112.0</ele><time>2026-04-19T16:42:28.64Z</time></trkpt><trkpt lat="45.548427677638955" lon="11.382459689288796"><ele>111.0</ele><time>2026-04-19T16:42:29.64Z</time></trkpt><trkpt lat="45.54820354707947" lon="11.382251662959796"><ele>110.5</ele><time>2026-04-19T16:42:30.64Z</time></trkpt><trkpt lat="45.5479541453912" lon="11.382031438060746"><ele>110.0</ele><time>2026-04-19T16:42:31.64Z</time></trkpt><trkpt lat="45.54772980063622" lon="11.381819140271102"><ele>111.0</ele><time>2026-04-19T16:42:32.64Z</time></trkpt><trkpt lat="45.547520481691386" lon="11.381634316790919"><ele>112.0</ele><time>2026-04-19T16:42:33.64Z</time></trkpt><trkpt lat="45.547313844860355" lon="11.38145472316952"><ele>112.0</ele><time>2026-04-19T16:42:34.64Z</time></trkpt><trkpt lat="45.54711780557446" lon="11.381278114794435"><ele>112.0</ele><time>2026-04-19T16:42:35.64Z</time></trkpt><trkpt lat="45.54693094039494" lon="11.381110895568078"><ele>111.66666666666667</ele><time>2026-04-19T16:42:36.64Z</time></trkpt><trkpt lat="45.5467520517797" lon="11.380955356784776"><ele>111.33333333333334</ele><time>2026-04-19T16:42:37.64Z</time></trkpt><trkpt lat="45.54657726540417" lon="11.380820753614117"><ele>111.0</ele><time>2026-04-19T16:42:38.64Z</time></trkpt><trkpt lat="45.54639101895602" lon="11.38069897327053"><ele>110.66666666666666</ele><time>2026-04-19T16:42:39.64Z</time></trkpt><trkpt lat="45.5461950860686" lon="11.380579796761348"><ele>110.33333333333333</ele><time>2026-04-19T16:42:40.64Z</time></trkpt><trkpt lat="45.545983417566596" lon="11.380457994636368"><ele>110.0</ele><time>2026-04-19T16:42:41.64Z</time></trkpt><trkpt lat="45.54576169414582" lon="11.38033004811018"><ele>110.0</ele><time>2026-04-19T16:42:42.64Z</time></trkpt><trkpt lat="45.545561200853356" lon="11.380223008350304"><ele>110.0</ele><time>2026-04-19T16:42:43.64Z</time></trkpt><trkpt lat="45.54536851397466" lon="11.380124307951538"><ele>110.0</ele><time>2026-04-19T16:42:44.64Z</time></trkpt><trkpt lat="45.54518727051796" lon="11.380016290867404"><ele>109.66666666666666</ele><time>2026-04-19T16:42:45.64Z</time></trkpt><trkpt lat="45.545011832156355" lon="11.379914192760532"><ele>109.33333333333334</ele><time>2026-04-19T16:42:46.64Z</time></trkpt><trkpt lat="45.54483649272827" lon="11.379808278649564"><ele>109.0</ele><time>2026-04-19T16:42:47.64Z</time></trkpt><trkpt lat="45.544679834682704" lon="11.379682667662307"><ele>108.0</ele><time>2026-04-19T16:42:48.64Z</time></trkpt><trkpt lat="45.5445331609892" lon="11.379546437411731"><ele>107.0</ele><time>2026-04-19T16:42:49.64Z</time></trkpt><trkpt lat="45.54440959438177" lon="11.379428231649086"><ele>106.0</ele><time>2026-04-19T16:42:50.64Z</time></trkpt><trkpt lat="45.54430343581021" lon="11.379328591851069"><ele>106.0</ele><time>2026-04-19T16:42:51.64Z</time></trkpt><trkpt lat="45.54421784821599" lon="11.379218319435944"><ele>106.0</ele><time>2026-04-19T16:42:52.64Z</time></trkpt><trkpt lat="45.54414087435467" lon="11.379126056951534"><ele>106.0</ele><time>2026-04-19T16:42:53.64Z</time></trkpt><trkpt lat="45.54407645005788" lon="11.379037298742"><ele>106.0</ele><time>2026-04-19T16:42:54.64Z</time></trkpt><trkpt lat="45.54402702620538" lon="11.37896308930026"><ele>106.0</ele><time>2026-04-19T16:42:55.64Z</time></trkpt><trkpt lat="45.544003995243585" lon="11.378858116501476"><ele>105.66666666666667</ele><time>2026-04-19T16:42:56.64Z</time></trkpt><trkpt lat="45.54400576788983" lon="11.378764314348908"><ele>105.33333333333334</ele><time>2026-04-19T16:42:57.64Z</time></trkpt><trkpt lat="45.54401595676285" lon="11.378669705461602"><ele>105.0</ele><time>2026-04-19T16:42:58.64Z</time></trkpt><trkpt lat="45.54397015498332" lon="11.378497139951152"><ele>104.66666666666666</ele><time>2026-04-19T16:43:00.64Z</time></trkpt><trkpt lat="45.5439232722244" lon="11.378431632081991"><ele>104.33333333333333</ele><time>2026-04-19T16:43:01.64Z</time></trkpt><trkpt lat="45.543859279124206" lon="11.37838486946936"><ele>104.0</ele><time>2026-04-19T16:43:02.64Z</time></trkpt><trkpt lat="45.54379396951188" lon="11.37836925170851"><ele>104.2</ele><time>2026-04-19T16:43:03.64Z</time></trkpt><trkpt lat="45.54366828222464" lon="11.378313393012698"><ele>104.4</ele><time>2026-04-19T16:43:05.64Z</time></trkpt><trkpt lat="45.54360591897351" lon="11.378251597374787"><ele>104.6</ele><time>2026-04-19T16:43:06.64Z</time></trkpt><trkpt lat="45.543544897110316" lon="11.378171201714572"><ele>104.8</ele><time>2026-04-19T16:43:07.64Z</time></trkpt><trkpt lat="45.54349371957818" lon="11.37806353911624"><ele>105.0</ele><time>2026-04-19T16:43:08.64Z</time></trkpt><trkpt lat="45.543410697660285" lon="11.37791588597169"><ele>105.0</ele><time>2026-04-19T16:43:09.64Z</time></trkpt><trkpt lat="45.54330874545349" lon="11.377734744790182"><ele>105.0</ele><time>2026-04-19T16:43:10.64Z</time></trkpt><trkpt lat="45.54317452999948" lon="11.377497054488662"><ele>105.0</ele><time>2026-04-19T16:43:11.64Z</time></trkpt><trkpt lat="45.54303254776613" lon="11.377294472210158"><ele>105.0</ele><time>2026-04-19T16:43:12.64Z</time></trkpt><trkpt lat="45.54291704153417" lon="11.377085683270499"><ele>105.0</ele><time>2026-04-19T16:43:13.641Z</time></trkpt><trkpt lat="45.542780285600664" lon="11.376881391491848"><ele>105.0</ele><time>2026-04-19T16:43:14.641Z</time></trkpt><trkpt lat="45.54261010497191" lon="11.376668472845918"><ele>104.5</ele><time>2026-04-19T16:43:15.641Z</time></trkpt><trkpt lat="45.542411998819205" lon="11.376449634027217"><ele>104.0</ele><time>2026-04-19T16:43:16.641Z</time></trkpt><trkpt lat="45.54219236217727" lon="11.37621168141568"><ele>103.0</ele><time>2026-04-19T16:43:17.641Z</time></trkpt><trkpt lat="45.54194494834481" lon="11.375953818941612"><ele>102.0</ele><time>2026-04-19T16:43:18.641Z</time></trkpt><trkpt lat="45.54171521355267" lon="11.375707873253335"><ele>102.5</ele><time>2026-04-19T16:43:19.641Z</time></trkpt><trkpt lat="45.54146860897707" lon="11.37547198734433"><ele>103.0</ele><time>2026-04-19T16:43:20.641Z</time></trkpt><trkpt lat="45.541252115027945" lon="11.375235771839641"><ele>102.5</ele><time>2026-04-19T16:43:21.641Z</time></trkpt><trkpt lat="45.5410486766882" lon="11.37501091495778"><ele>102.0</ele><time>2026-04-19T16:43:22.641Z</time></trkpt><trkpt lat="45.54086225663536" lon="11.374800285234029"><ele>102.0</ele><time>2026-04-19T16:43:23.641Z</time></trkpt><trkpt lat="45.54068870079623" lon="11.374600650041284"><ele>102.0</ele><time>2026-04-19T16:43:24.641Z</time></trkpt><trkpt lat="45.540526153868214" lon="11.374379585727112"><ele>102.0</ele><time>2026-04-19T16:43:25.641Z</time></trkpt><trkpt lat="45.540356995059966" lon="11.374157098775385"><ele>102.0</ele><time>2026-04-19T16:43:26.641Z</time></trkpt><trkpt lat="45.54021112993462" lon="11.373951407127606"><ele>102.0</ele><time>2026-04-19T16:43:27.641Z</time></trkpt><trkpt lat="45.54009335900063" lon="11.373736513421406"><ele>102.0</ele><time>2026-04-19T16:43:28.641Z</time></trkpt><trkpt lat="45.539968669077744" lon="11.37353746131368"><ele>102.0</ele><time>2026-04-19T16:43:29.641Z</time></trkpt><trkpt lat="45.53985823023453" lon="11.373357944652561"><ele>102.0</ele><time>2026-04-19T16:43:30.641Z</time></trkpt><trkpt lat="45.53976342650673" lon="11.37319855250637"><ele>102.0</ele><time>2026-04-19T16:43:31.641Z</time></trkpt><trkpt lat="45.5396868791021" lon="11.373066503980711"><ele>102.0</ele><time>2026-04-19T16:43:32.641Z</time></trkpt><trkpt lat="45.53962146358525" lon="11.372950997831902"><ele>102.0</ele><time>2026-04-19T16:43:33.641Z</time></trkpt><trkpt lat="45.539564495556945" lon="11.372848102890575"><ele>102.0</ele><time>2026-04-19T16:43:34.641Z</time></trkpt><trkpt lat="45.53951952415417" lon="11.372766876148317"><ele>102.0</ele><time>2026-04-19T16:43:35.641Z</time></trkpt><trkpt lat="45.539274741805464" lon="11.372987739262545"><ele>101.25</ele><time>2026-04-19T16:43:37.641Z</time></trkpt><trkpt lat="45.53918258796898" lon="11.373019638639748"><ele>100.5</ele><time>2026-04-19T16:43:38.641Z</time></trkpt><trkpt lat="45.53907730820946" lon="11.372981181767456"><ele>99.75</ele><time>2026-04-19T16:43:39.641Z</time></trkpt><trkpt lat="45.53899569532572" lon="11.372837628495983"><ele>99.0</ele><time>2026-04-19T16:43:40.641Z</time></trkpt><trkpt lat="45.53888957726907" lon="11.372723859858613"><ele>99.0</ele><time>2026-04-19T16:43:41.641Z</time></trkpt><trkpt lat="45.53875448912268" lon="11.3725790325362"><ele>99.0</ele><time>2026-04-19T16:43:42.641Z</time></trkpt><trkpt lat="45.53858664428405" lon="11.372399086933534"><ele>99.0</ele><time>2026-04-19T16:43:43.641Z</time></trkpt><trkpt lat="45.538439419525794" lon="11.372241762403213"><ele>99.0</ele><time>2026-04-19T16:43:44.641Z</time></trkpt><trkpt lat="45.53830014012038" lon="11.372115273642736"><ele>99.0</ele><time>2026-04-19T16:43:45.641Z</time></trkpt><trkpt lat="45.53819460520136" lon="11.371996391961678"><ele>99.0</ele><time>2026-04-19T16:43:46.641Z</time></trkpt><trkpt lat="45.53810325106494" lon="11.37190006917652"><ele>99.0</ele><time>2026-04-19T16:43:47.641Z</time></trkpt><trkpt lat="45.538012130019126" lon="11.371805823513071"><ele>99.0</ele><time>2026-04-19T16:43:48.641Z</time></trkpt><trkpt lat="45.53790863953375" lon="11.371703728045476"><ele>99.0</ele><time>2026-04-19T16:43:49.641Z</time></trkpt><trkpt lat="45.53778089512752" lon="11.371588532698546"><ele>99.0</ele><time>2026-04-19T16:43:50.641Z</time></trkpt><trkpt lat="45.53763262984032" lon="11.371464308810408"><ele>99.0</ele><time>2026-04-19T16:43:51.641Z</time></trkpt><trkpt lat="45.53745828508515" lon="11.371312951007011"><ele>99.5</ele><time>2026-04-19T16:43:52.641Z</time></trkpt><trkpt lat="45.53725608506333" lon="11.37113602015765"><ele>100.0</ele><time>2026-04-19T16:43:53.641Z</time></trkpt><trkpt lat="45.53706617592641" lon="11.370957429455267"><ele>99.66666666666667</ele><time>2026-04-19T16:43:54.641Z</time></trkpt><trkpt lat="45.536903127534245" lon="11.3707865831265"><ele>99.33333333333334</ele><time>2026-04-19T16:43:55.641Z</time></trkpt><trkpt lat="45.53673819364702" lon="11.370582595608067"><ele>99.0</ele><time>2026-04-19T16:43:56.641Z</time></trkpt><trkpt lat="45.53657387646863" lon="11.370346121705582"><ele>98.66666666666666</ele><time>2026-04-19T16:43:57.641Z</time></trkpt><trkpt lat="45.5364152148456" lon="11.370131961966012"><ele>98.33333333333333</ele><time>2026-04-19T16:43:58.641Z</time></trkpt><trkpt lat="45.53626039046824" lon="11.369943958447468"><ele>98.0</ele><time>2026-04-19T16:43:59.641Z</time></trkpt><trkpt lat="45.53610763136966" lon="11.369784612266287"><ele>97.33333333333333</ele><time>2026-04-19T16:44:00.641Z</time></trkpt><trkpt lat="45.53594845824689" lon="11.369655047622654"><ele>96.66666666666666</ele><time>2026-04-19T16:44:01.641Z</time></trkpt><trkpt lat="45.53579677349467" lon="11.369541250141806"><ele>96.0</ele><time>2026-04-19T16:44:02.641Z</time></trkpt><trkpt lat="45.535666326268085" lon="11.369438281200216"><ele>96.0</ele><time>2026-04-19T16:44:03.641Z</time></trkpt><trkpt lat="45.5355582425542" lon="11.369348526151335"><ele>96.0</ele><time>2026-04-19T16:44:04.641Z</time></trkpt><trkpt lat="45.53544899470827" lon="11.369273109053738"><ele>96.0</ele><time>2026-04-19T16:44:05.641Z</time></trkpt><trkpt lat="45.53534164090674" lon="11.36923878150293"><ele>96.0</ele><time>2026-04-19T16:44:06.641Z</time></trkpt><trkpt lat="45.53523500622075" lon="11.369111024188316"><ele>96.66666666666666</ele><time>2026-04-19T16:44:07.641Z</time></trkpt><trkpt lat="45.535165553221034" lon="11.368935520899415"><ele>97.33333333333333</ele><time>2026-04-19T16:44:08.641Z</time></trkpt><trkpt lat="45.53506877184987" lon="11.368741831400516"><ele>98.0</ele><time>2026-04-19T16:44:09.641Z</time></trkpt><trkpt lat="45.534981442795335" lon="11.3684965208403"><ele>98.0</ele><time>2026-04-19T16:44:10.641Z</time></trkpt><trkpt lat="45.53488954778275" lon="11.368299542605188"><ele>98.0</ele><time>2026-04-19T16:44:11.641Z</time></trkpt><trkpt lat="45.53480736788099" lon="11.368107890251677"><ele>98.0</ele><time>2026-04-19T16:44:12.641Z</time></trkpt><trkpt lat="45.53473549751886" lon="11.36786188436516"><ele>98.0</ele><time>2026-04-19T16:44:13.641Z</time></trkpt><trkpt lat="45.53467309459587" lon="11.367576419102162"><ele>98.0</ele><time>2026-04-19T16:44:14.641Z</time></trkpt><trkpt lat="45.534591875781196" lon="11.367262606934364"><ele>98.0</ele><time>2026-04-19T16:44:15.641Z</time></trkpt><trkpt lat="45.5345091634602" lon="11.366952429317065"><ele>98.0</ele><time>2026-04-19T16:44:16.641Z</time></trkpt><trkpt lat="45.5344500469714" lon="11.366693617926162"><ele>98.0</ele><time>2026-04-19T16:44:17.641Z</time></trkpt><trkpt lat="45.53440663174244" lon="11.366477468231265"><ele>98.0</ele><time>2026-04-19T16:44:18.641Z</time></trkpt><trkpt lat="45.53436840990584" lon="11.366303747753724"><ele>98.0</ele><time>2026-04-19T16:44:19.641Z</time></trkpt><trkpt lat="45.53432004277226" lon="11.366171660590576"><ele>98.0</ele><time>2026-04-19T16:44:20.641Z</time></trkpt><trkpt lat="45.534250751719135" lon="11.366062922759143"><ele>98.0</ele><time>2026-04-19T16:44:21.641Z</time></trkpt><trkpt lat="45.53418091221249" lon="11.365948796021206"><ele>98.0</ele><time>2026-04-19T16:44:22.641Z</time></trkpt><trkpt lat="45.53411351005813" lon="11.36586337510743"><ele>98.0</ele><time>2026-04-19T16:44:23.641Z</time></trkpt><trkpt lat="45.53402716541009" lon="11.365759212428008"><ele>98.0</ele><time>2026-04-19T16:44:24.641Z</time></trkpt><trkpt lat="45.53393827739734" lon="11.365655366228964"><ele>98.0</ele><time>2026-04-19T16:44:25.641Z</time></trkpt><trkpt lat="45.53383699297677" lon="11.365556916831567"><ele>98.0</ele><time>2026-04-19T16:44:26.641Z</time></trkpt><trkpt lat="45.53374251373505" lon="11.365466021185764"><ele>98.0</ele><time>2026-04-19T16:44:27.641Z</time></trkpt><trkpt lat="45.53366042250492" lon="11.365392386458819"><ele>98.0</ele><time>2026-04-19T16:44:28.641Z</time></trkpt><trkpt lat="45.53358314718878" lon="11.365325172390673"><ele>97.80000000000001</ele><time>2026-04-19T16:44:29.641Z</time></trkpt><trkpt lat="45.5335047767077" lon="11.365257005662334"><ele>97.6</ele><time>2026-04-19T16:44:30.641Z</time></trkpt><trkpt lat="45.53340830998341" lon="11.365222667302476"><ele>97.4</ele><time>2026-04-19T16:44:31.641Z</time></trkpt><trkpt lat="45.53331560564969" lon="11.365153086465686"><ele>97.19999999999999</ele><time>2026-04-19T16:44:32.641Z</time></trkpt><trkpt lat="45.533231042222106" lon="11.365075605565691"><ele>97.0</ele><time>2026-04-19T16:44:33.641Z</time></trkpt><trkpt lat="45.53314188867823" lon="11.365006433078607"><ele>97.0</ele><time>2026-04-19T16:44:34.641Z</time></trkpt><trkpt lat="45.533035604040904" lon="11.364914984734236"><ele>97.0</ele><time>2026-04-19T16:44:35.641Z</time></trkpt><trkpt lat="45.53293010536483" lon="11.364880660655338"><ele>97.0</ele><time>2026-04-19T16:44:36.641Z</time></trkpt><trkpt lat="45.532844006261975" lon="11.36482480946594"><ele>97.0</ele><time>2026-04-19T16:44:37.641Z</time></trkpt><trkpt lat="45.532760964501776" lon="11.36476175040785"><ele>97.0</ele><time>2026-04-19T16:44:38.641Z</time></trkpt><trkpt lat="45.53269393046674" lon="11.364713059585762"><ele>97.0</ele><time>2026-04-19T16:44:39.641Z</time></trkpt><trkpt lat="45.53259386806217" lon="11.364631585117758"><ele>97.0</ele><time>2026-04-19T16:44:41.641Z</time></trkpt><trkpt lat="45.5325047145281" lon="11.36463233577136"><ele>97.0</ele><time>2026-04-19T16:44:43.641Z</time></trkpt><trkpt lat="45.53244104122388" lon="11.364731515064094"><ele>97.0</ele><time>2026-04-19T16:44:44.641Z</time></trkpt><trkpt lat="45.532394294578936" lon="11.364863363374011"><ele>97.0</ele><time>2026-04-19T16:44:45.641Z</time></trkpt><trkpt lat="45.53231830237965" lon="11.364933941004638"><ele>97.00000000000001</ele><time>2026-04-19T16:44:46.641Z</time></trkpt><trkpt lat="45.53223968989318" lon="11.364963701379484"><ele>97.0</ele><time>2026-04-19T16:44:47.641Z</time></trkpt><trkpt lat="45.53214486381801" lon="11.36501702297172"><ele>97.0</ele><time>2026-04-19T16:44:48.641Z</time></trkpt><trkpt lat="45.532077896600285" lon="11.36509370493935"><ele>97.0</ele><time>2026-04-19T16:44:49.641Z</time></trkpt><trkpt lat="45.53200047663563" lon="11.36511570698278"><ele>97.00000000000001</ele><time>2026-04-19T16:44:50.641Z</time></trkpt><trkpt lat="45.53191685328102" lon="11.36511413340293"><ele>97.0</ele><time>2026-04-19T16:44:51.641Z</time></trkpt><trkpt lat="45.53182114401324" lon="11.365077952166587"><ele>96.6</ele><time>2026-04-19T16:44:53.641Z</time></trkpt><trkpt lat="45.53176428338738" lon="11.365001675499954"><ele>96.19999999999999</ele><time>2026-04-19T16:44:55.641Z</time></trkpt><trkpt lat="45.53169979510176" lon="11.365004292203501"><ele>95.8</ele><time>2026-04-19T16:48:11.643Z</time></trkpt><trkpt lat="45.531779106201675" lon="11.365046621819754"><ele>95.4</ele><time>2026-04-19T16:48:40.643Z</time></trkpt><trkpt lat="45.531932674391015" lon="11.365132648508403"><ele>95.0</ele><time>2026-04-19T16:50:26.644Z</time></trkpt><trkpt lat="45.531849900938155" lon="11.365161260220415"><ele>95.0</ele><time>2026-04-19T16:50:32.644Z</time></trkpt><trkpt lat="45.53180248981538" lon="11.365249156100553"><ele>95.0</ele><time>2026-04-19T16:50:35.644Z</time></trkpt><trkpt lat="45.53173300253461" lon="11.365341168524708"><ele>95.0</ele><time>2026-04-19T16:50:38.644Z</time></trkpt><trkpt lat="45.531738944416645" lon="11.365242603212392"><ele>95.0</ele><time>2026-04-19T16:50:45.644Z</time></trkpt><trkpt lat="45.53178374666816" lon="11.36514770494717"><ele>95.0</ele><time>2026-04-19T16:50:47.644Z</time></trkpt><trkpt lat="45.531886717497905" lon="11.36497020638681"><ele>95.0</ele><time>2026-04-19T16:51:34.644Z</time></trkpt><trkpt lat="45.531940318250705" lon="11.364883631568421"><ele>95.0</ele><time>2026-04-19T16:51:40.644Z</time></trkpt><trkpt lat="45.53187950839093" lon="11.365054992819726"><ele>95.0</ele><time>2026-04-19T16:51:54.662Z</time></trkpt></trkseg></trk></gpx>